<?xml version='1.0' encoding='UTF-8'?><gpx version="1.1" creator="JPX - https://github.com/jenetics/jpx" xmlns="http://www.topografix.com/GPX/1/1"><trk><trkseg><trkpt lat="44.88336224551422" lon="9.696583122472353"><ele>228.0</ele><time>2026-05-03T11:26:36Z</time></trkpt><trkpt lat="44.883283025449394" lon="9.696418961881376"><ele>228.0</ele><time>2026-05-03T11:26:38Z</time></trkpt><trkpt lat="44.883215117831206" lon="9.696308221391247"><ele>228.0</ele><time>2026-05-03T11:26:39Z</time></trkpt><trkpt lat="44.883125848831966" lon="9.69619174145625"><ele>228.0</ele><time>2026-05-03T11:26:40Z</time></trkpt><trkpt lat="44.88302802869513" lon="9.696092978349602"><ele>228.75</ele><time>2026-05-03T11:26:41Z</time></trkpt><trkpt lat="44.882957826614" lon="9.69599903772395"><ele>229.5</ele><time>2026-05-03T11:26:42Z</time></trkpt><trkpt lat="44.882881373827836" lon="9.695864815671495"><ele>230.25</ele><time>2026-05-03T11:26:43Z</time></trkpt><trkpt lat="44.8827966294867" lon="9.695731995425184"><ele>231.0</ele><time>2026-05-03T11:26:44Z</time></trkpt><trkpt lat="44.882720718703794" lon="9.695613950209363"><ele>231.0</ele><time>2026-05-03T11:26:45Z</time></trkpt><trkpt lat="44.882644103572" lon="9.695519912240954"><ele>231.00000000000003</ele><time>2026-05-03T11:26:46Z</time></trkpt><trkpt lat="44.88261290486589" lon="9.695423193728427"><ele>231.00000000000003</ele><time>2026-05-03T11:26:47Z</time></trkpt><trkpt lat="44.88249695321374" lon="9.695343654399716"><ele>231.0</ele><time>2026-05-03T11:26:49Z</time></trkpt><trkpt lat="44.88240367527228" lon="9.695275142108061"><ele>231.0</ele><time>2026-05-03T11:26:50Z</time></trkpt><trkpt lat="44.882335034099754" lon="9.695208635002231"><ele>232.0</ele><time>2026-05-03T11:26:51Z</time></trkpt><trkpt lat="44.8822381040344" lon="9.695088250831517"><ele>233.00000000000003</ele><time>2026-05-03T11:26:53Z</time></trkpt><trkpt lat="44.88217032258742" lon="9.694954250704107"><ele>234.00000000000003</ele><time>2026-05-03T11:26:55Z</time></trkpt><trkpt lat="44.88212819707937" lon="9.694874347480846"><ele>235.0</ele><time>2026-05-03T11:26:56Z</time></trkpt><trkpt lat="44.88204204484482" lon="9.694762437736511"><ele>236.0</ele><time>2026-05-03T11:26:58Z</time></trkpt><trkpt lat="44.882000091773975" lon="9.694682101212114"><ele>236.00000000000003</ele><time>2026-05-03T11:26:59Z</time></trkpt><trkpt lat="44.881937811833026" lon="9.694601973479237"><ele>236.0</ele><time>2026-05-03T11:27:00Z</time></trkpt><trkpt lat="44.881883740775855" lon="9.694525867703407"><ele>236.0</ele><time>2026-05-03T11:27:01Z</time></trkpt><trkpt lat="44.8818317084278" lon="9.694455070557863"><ele>236.0</ele><time>2026-05-03T11:27:02Z</time></trkpt><trkpt lat="44.88178031853667" lon="9.69439078263357"><ele>236.00000000000003</ele><time>2026-05-03T11:27:03Z</time></trkpt><trkpt lat="44.881708226843706" lon="9.69427465789407"><ele>236.0</ele><time>2026-05-03T11:27:05Z</time></trkpt><trkpt lat="44.88166869868245" lon="9.694174860024368"><ele>236.33333333333334</ele><time>2026-05-03T11:27:07Z</time></trkpt><trkpt lat="44.88158443260805" lon="9.694040754613681"><ele>236.66666666666669</ele><time>2026-05-03T11:27:09Z</time></trkpt><trkpt lat="44.881525848403044" lon="9.693973044068983"><ele>237.0</ele><time>2026-05-03T11:27:10Z</time></trkpt><trkpt lat="44.88147793413427" lon="9.693890113753596"><ele>237.33333333333331</ele><time>2026-05-03T11:27:11Z</time></trkpt><trkpt lat="44.881434032476506" lon="9.69382478704037"><ele>237.66666666666666</ele><time>2026-05-03T11:27:12Z</time></trkpt><trkpt lat="44.88137030999426" lon="9.693816517335513"><ele>238.0</ele><time>2026-05-03T11:27:16Z</time></trkpt><trkpt lat="44.881346646072146" lon="9.69368377802809"><ele>238.16666666666666</ele><time>2026-05-03T11:27:18Z</time></trkpt><trkpt lat="44.88127942860303" lon="9.693575303231757"><ele>238.33333333333331</ele><time>2026-05-03T11:27:20Z</time></trkpt><trkpt lat="44.8812266516211" lon="9.693491566699816"><ele>238.5</ele><time>2026-05-03T11:27:21Z</time></trkpt><trkpt lat="44.88116780348803" lon="9.693397115407224"><ele>238.66666666666669</ele><time>2026-05-03T11:27:22Z</time></trkpt><trkpt lat="44.88111059629649" lon="9.693306844775721"><ele>238.83333333333334</ele><time>2026-05-03T11:27:23Z</time></trkpt><trkpt lat="44.881063295271524" lon="9.693239373275583"><ele>239.0</ele><time>2026-05-03T11:27:24Z</time></trkpt><trkpt lat="44.881008588849326" lon="9.693143425424097"><ele>239.00000000000003</ele><time>2026-05-03T11:27:25Z</time></trkpt><trkpt lat="44.88095632423626" lon="9.693073486702088"><ele>239.0</ele><time>2026-05-03T11:27:26Z</time></trkpt><trkpt lat="44.88091017082694" lon="9.693007345423823"><ele>239.0</ele><time>2026-05-03T11:27:27Z</time></trkpt><trkpt lat="44.88081809835919" lon="9.692937162273216"><ele>239.0</ele><time>2026-05-03T11:27:29Z</time></trkpt><trkpt lat="44.880769544738065" lon="9.69287261330103"><ele>239.00000000000003</ele><time>2026-05-03T11:27:32Z</time></trkpt><trkpt lat="44.88068152389059" lon="9.6928285885708"><ele>239.0</ele><time>2026-05-03T11:27:33Z</time></trkpt><trkpt lat="44.88059196236636" lon="9.692755130156694"><ele>239.79999999999998</ele><time>2026-05-03T11:27:34Z</time></trkpt><trkpt lat="44.88051207388545" lon="9.69266595082471"><ele>240.59999999999997</ele><time>2026-05-03T11:27:35Z</time></trkpt><trkpt lat="44.880405813615084" lon="9.692579840649337"><ele>241.4</ele><time>2026-05-03T11:27:36Z</time></trkpt><trkpt lat="44.880331349823734" lon="9.692518453417836"><ele>242.2</ele><time>2026-05-03T11:27:37Z</time></trkpt><trkpt lat="44.88025950347687" lon="9.692444969950007"><ele>243.0</ele><time>2026-05-03T11:27:38Z</time></trkpt><trkpt lat="44.88020633738224" lon="9.692387818266868"><ele>243.0</ele><time>2026-05-03T11:27:39Z</time></trkpt><trkpt lat="44.88014187877277" lon="9.692324456187261"><ele>243.0</ele><time>2026-05-03T11:27:40Z</time></trkpt><trkpt lat="44.88006797698097" lon="9.692254161183982"><ele>243.0</ele><time>2026-05-03T11:27:41Z</time></trkpt><trkpt lat="44.88000401142" lon="9.692192355508766"><ele>243.0</ele><time>2026-05-03T11:27:42Z</time></trkpt><trkpt lat="44.87993264870918" lon="9.692124197083636"><ele>243.0</ele><time>2026-05-03T11:27:43Z</time></trkpt><trkpt lat="44.879874738129566" lon="9.692069791188032"><ele>243.0</ele><time>2026-05-03T11:27:44Z</time></trkpt><trkpt lat="44.87979870396747" lon="9.691929281067024"><ele>243.42857142857142</ele><time>2026-05-03T11:27:46Z</time></trkpt><trkpt lat="44.87972463670752" lon="9.69184667630529"><ele>243.8571428571429</ele><time>2026-05-03T11:27:48Z</time></trkpt><trkpt lat="44.87965514483107" lon="9.691827535601686"><ele>244.2857142857143</ele><time>2026-05-03T11:27:49Z</time></trkpt><trkpt lat="44.879593226179445" lon="9.691784891520358"><ele>244.71428571428572</ele><time>2026-05-03T11:27:50Z</time></trkpt><trkpt lat="44.87951736122894" lon="9.691740573322354"><ele>245.14285714285717</ele><time>2026-05-03T11:27:51Z</time></trkpt><trkpt lat="44.87945810098288" lon="9.691709759482867"><ele>245.5714285714286</ele><time>2026-05-03T11:27:52Z</time></trkpt><trkpt lat="44.879393010055104" lon="9.691688399295092"><ele>246.00000000000003</ele><time>2026-05-03T11:27:53Z</time></trkpt><trkpt lat="44.87927172012589" lon="9.691631503588214"><ele>245.5</ele><time>2026-05-03T11:27:55Z</time></trkpt><trkpt lat="44.87918805548061" lon="9.691601030212935"><ele>245.0</ele><time>2026-05-03T11:27:56Z</time></trkpt><trkpt lat="44.879122497030835" lon="9.69157230425409"><ele>244.5</ele><time>2026-05-03T11:27:57Z</time></trkpt><trkpt lat="44.879062111272155" lon="9.691539021121402"><ele>244.0</ele><time>2026-05-03T11:27:58Z</time></trkpt><trkpt lat="44.87900455320062" lon="9.691485154362926"><ele>243.5</ele><time>2026-05-03T11:27:59Z</time></trkpt><trkpt lat="44.87893838049495" lon="9.69143607812171"><ele>243.0</ele><time>2026-05-03T11:28:00Z</time></trkpt><trkpt lat="44.878839421708854" lon="9.691406498143738"><ele>243.0</ele><time>2026-05-03T11:28:01Z</time></trkpt><trkpt lat="44.878759875255476" lon="9.69137577550519"><ele>243.0</ele><time>2026-05-03T11:28:02Z</time></trkpt><trkpt lat="44.878656697973625" lon="9.69128351098734"><ele>243.0</ele><time>2026-05-03T11:28:03.999Z</time></trkpt><trkpt lat="44.878634278244164" lon="9.691194427953997"><ele>243.0</ele><time>2026-05-03T11:28:04.999Z</time></trkpt><trkpt lat="44.878584080830514" lon="9.691098109486282"><ele>243.0</ele><time>2026-05-03T11:28:05.999Z</time></trkpt><trkpt lat="44.8785310490136" lon="9.691022470693532"><ele>243.0</ele><time>2026-05-03T11:28:06.999Z</time></trkpt><trkpt lat="44.87843094494182" lon="9.6909851057187"><ele>244.16666666666666</ele><time>2026-05-03T11:28:07.999Z</time></trkpt><trkpt lat="44.87836850630028" lon="9.690928843867388"><ele>245.33333333333331</ele><time>2026-05-03T11:28:08.999Z</time></trkpt><trkpt lat="44.87830774539726" lon="9.690863842899661"><ele>246.5</ele><time>2026-05-03T11:28:09.999Z</time></trkpt><trkpt lat="44.87826692524936" lon="9.690762447150226"><ele>247.66666666666666</ele><time>2026-05-03T11:28:10.999Z</time></trkpt><trkpt lat="44.8782175667222" lon="9.690655519398932"><ele>248.83333333333331</ele><time>2026-05-03T11:28:11.999Z</time></trkpt><trkpt lat="44.87815550595" lon="9.690543537705135"><ele>250.0</ele><time>2026-05-03T11:28:12.999Z</time></trkpt><trkpt lat="44.878095486264755" lon="9.69043665485005"><ele>250.0</ele><time>2026-05-03T11:28:13.999Z</time></trkpt><trkpt lat="44.8780572051383" lon="9.690323356617082"><ele>250.0</ele><time>2026-05-03T11:28:14.999Z</time></trkpt><trkpt lat="44.877986373373346" lon="9.690252619364042"><ele>250.0</ele><time>2026-05-03T11:28:15.999Z</time></trkpt><trkpt lat="44.877881131991046" lon="9.69020240365132"><ele>250.0</ele><time>2026-05-03T11:28:16.999Z</time></trkpt><trkpt lat="44.87778606911591" lon="9.690150411885936"><ele>250.0</ele><time>2026-05-03T11:28:17.999Z</time></trkpt><trkpt lat="44.87770281877382" lon="9.690109951430484"><ele>251.49999999999997</ele><time>2026-05-03T11:28:18.999Z</time></trkpt><trkpt lat="44.877644205110386" lon="9.690044397194306"><ele>253.0</ele><time>2026-05-03T11:28:19.999Z</time></trkpt><trkpt lat="44.87757878142979" lon="9.689976753453033"><ele>254.5</ele><time>2026-05-03T11:28:20.999Z</time></trkpt><trkpt lat="44.87751307156538" lon="9.689897904770614"><ele>256.0</ele><time>2026-05-03T11:28:21.999Z</time></trkpt><trkpt lat="44.877463550421886" lon="9.689839933053767"><ele>257.5</ele><time>2026-05-03T11:28:22.999Z</time></trkpt><trkpt lat="44.87752808586364" lon="9.689710167037692"><ele>259.0</ele><time>2026-05-03T11:28:26Z</time></trkpt><trkpt lat="44.87757867822379" lon="9.68964689619018"><ele>259.3333333333333</ele><time>2026-05-03T11:28:29Z</time></trkpt><trkpt lat="44.87762628452371" lon="9.689558024622595"><ele>259.66666666666663</ele><time>2026-05-03T11:28:31Z</time></trkpt><trkpt lat="44.87768378420952" lon="9.68945646273434"><ele>260.0</ele><time>2026-05-03T11:28:33Z</time></trkpt><trkpt lat="44.8777256846673" lon="9.689331403732925"><ele>260.3333333333333</ele><time>2026-05-03T11:28:35Z</time></trkpt><trkpt lat="44.87768736916343" lon="9.6894288776428"><ele>260.6666666666667</ele><time>2026-05-03T11:29:35Z</time></trkpt><trkpt lat="44.877643678846944" lon="9.689513264840027"><ele>261.0</ele><time>2026-05-03T11:29:38Z</time></trkpt><trkpt lat="44.87761500550228" lon="9.689595016103985"><ele>261.0</ele><time>2026-05-03T11:29:42Z</time></trkpt><trkpt lat="44.87756264366631" lon="9.689688856159822"><ele>261.0</ele><time>2026-05-03T11:29:46Z</time></trkpt><trkpt lat="44.87751243338308" lon="9.689773149558109"><ele>261.0</ele><time>2026-05-03T11:29:48Z</time></trkpt><trkpt lat="44.877497037522865" lon="9.689878671448064"><ele>261.0</ele><time>2026-05-03T11:29:50Z</time></trkpt><trkpt lat="44.87758017054477" lon="9.689965852018807"><ele>261.0</ele><time>2026-05-03T11:29:52Z</time></trkpt><trkpt lat="44.877654186285845" lon="9.690051162045469"><ele>261.0</ele><time>2026-05-03T11:29:53Z</time></trkpt><trkpt lat="44.8777371276776" lon="9.690145413646906"><ele>261.0</ele><time>2026-05-03T11:29:54Z</time></trkpt><trkpt lat="44.87781670784627" lon="9.690191943744798"><ele>261.0</ele><time>2026-05-03T11:29:55Z</time></trkpt><trkpt lat="44.877885942509245" lon="9.690230037665113"><ele>261.0</ele><time>2026-05-03T11:29:56Z</time></trkpt><trkpt lat="44.877969733388085" lon="9.690276381051211"><ele>261.0</ele><time>2026-05-03T11:29:57Z</time></trkpt><trkpt lat="44.87804835914043" lon="9.690343633212004"><ele>261.0</ele><time>2026-05-03T11:29:58Z</time></trkpt><trkpt lat="44.87812647801768" lon="9.69041874218294"><ele>261.0</ele><time>2026-05-03T11:29:59Z</time></trkpt><trkpt lat="44.87816177053301" lon="9.690500371955594"><ele>259.3333333333333</ele><time>2026-05-03T11:30:00Z</time></trkpt><trkpt lat="44.878195273208824" lon="9.69060036124307"><ele>257.6666666666667</ele><time>2026-05-03T11:30:01Z</time></trkpt><trkpt lat="44.878254972234664" lon="9.690696057649285"><ele>256.0</ele><time>2026-05-03T11:30:02Z</time></trkpt><trkpt lat="44.87830149387458" lon="9.690794590525842"><ele>254.33333333333334</ele><time>2026-05-03T11:30:03Z</time></trkpt><trkpt lat="44.87834699944117" lon="9.690875643410013"><ele>252.66666666666669</ele><time>2026-05-03T11:30:04Z</time></trkpt><trkpt lat="44.878385110285514" lon="9.690953878028656"><ele>251.0</ele><time>2026-05-03T11:30:05Z</time></trkpt><trkpt lat="44.878447099331524" lon="9.691019313449551"><ele>250.99999999999997</ele><time>2026-05-03T11:30:06Z</time></trkpt><trkpt lat="44.878508295557424" lon="9.691055381086654"><ele>251.0</ele><time>2026-05-03T11:30:07Z</time></trkpt><trkpt lat="44.878582820384224" lon="9.691112274445128"><ele>250.99999999999997</ele><time>2026-05-03T11:30:08Z</time></trkpt><trkpt lat="44.8786338433971" lon="9.691180338307714"><ele>250.99999999999997</ele><time>2026-05-03T11:30:09Z</time></trkpt><trkpt lat="44.878667391113716" lon="9.691269833373"><ele>251.0</ele><time>2026-05-03T11:30:10Z</time></trkpt><trkpt lat="44.87871275470553" lon="9.691363416956214"><ele>250.99999999999997</ele><time>2026-05-03T11:30:11Z</time></trkpt><trkpt lat="44.878773138875964" lon="9.691404838498991"><ele>250.99999999999997</ele><time>2026-05-03T11:30:12Z</time></trkpt><trkpt lat="44.87890060815639" lon="9.691445805248263"><ele>249.85714285714283</ele><time>2026-05-03T11:30:14Z</time></trkpt><trkpt lat="44.87898156182757" lon="9.691485306422042"><ele>248.71428571428572</ele><time>2026-05-03T11:30:16Z</time></trkpt><trkpt lat="44.878927562201795" lon="9.691545586503292"><ele>247.57142857142856</ele><time>2026-05-03T11:30:28Z</time></trkpt><trkpt lat="44.87885736440906" lon="9.691524545399103"><ele>246.42857142857142</ele><time>2026-05-03T11:30:29Z</time></trkpt><trkpt lat="44.878793896698895" lon="9.69151367978933"><ele>245.28571428571428</ele><time>2026-05-03T11:30:30Z</time></trkpt><trkpt lat="44.8787183573727" lon="9.691504183143824"><ele>244.14285714285714</ele><time>2026-05-03T11:30:31Z</time></trkpt><trkpt lat="44.878642775538395" lon="9.691499063717744"><ele>243.0</ele><time>2026-05-03T11:30:32Z</time></trkpt><trkpt lat="44.87857500475507" lon="9.691515547644977"><ele>243.0</ele><time>2026-05-03T11:30:33Z</time></trkpt><trkpt lat="44.87849041907426" lon="9.691544653437786"><ele>243.0</ele><time>2026-05-03T11:30:37Z</time></trkpt><trkpt lat="44.87840005654223" lon="9.691574594119006"><ele>243.0</ele><time>2026-05-03T11:30:39Z</time></trkpt><trkpt lat="44.87827879075445" lon="9.691560919145692"><ele>243.0</ele><time>2026-05-03T11:30:41Z</time></trkpt><trkpt lat="44.87820736616691" lon="9.691528852438902"><ele>243.0</ele><time>2026-05-03T11:30:43Z</time></trkpt><trkpt lat="44.87811716046312" lon="9.691530846343218"><ele>242.5</ele><time>2026-05-03T11:30:45Z</time></trkpt><trkpt lat="44.878032618683235" lon="9.691511744228245"><ele>242.0</ele><time>2026-05-03T11:30:47Z</time></trkpt><trkpt lat="44.87796184323423" lon="9.691475521469107"><ele>241.5</ele><time>2026-05-03T11:30:48Z</time></trkpt><trkpt lat="44.87785581803447" lon="9.69140423765522"><ele>241.0</ele><time>2026-05-03T11:30:50Z</time></trkpt><trkpt lat="44.877791995674684" lon="9.691372975384763"><ele>240.5</ele><time>2026-05-03T11:30:51Z</time></trkpt><trkpt lat="44.87773545722312" lon="9.691327967410617"><ele>240.0</ele><time>2026-05-03T11:30:52Z</time></trkpt><trkpt lat="44.87762401185592" lon="9.691270031273095"><ele>240.4</ele><time>2026-05-03T11:30:54Z</time></trkpt><trkpt lat="44.87753470097989" lon="9.691283743059424"><ele>240.8</ele><time>2026-05-03T11:30:57Z</time></trkpt><trkpt lat="44.87745309239558" lon="9.6913039696615"><ele>241.2</ele><time>2026-05-03T11:30:59Z</time></trkpt><trkpt lat="44.87737476229775" lon="9.69130783187356"><ele>241.6</ele><time>2026-05-03T11:31:01Z</time></trkpt><trkpt lat="44.877270213896416" lon="9.691305103124762"><ele>242.0</ele><time>2026-05-03T11:31:03Z</time></trkpt><trkpt lat="44.877215048136556" lon="9.691421429069061"><ele>242.00000000000003</ele><time>2026-05-03T11:31:19Z</time></trkpt><trkpt lat="44.87723283874004" lon="9.69154825261495"><ele>242.0</ele><time>2026-05-03T11:31:21Z</time></trkpt><trkpt lat="44.87729558682682" lon="9.691631022635196"><ele>242.0</ele><time>2026-05-03T11:31:23Z</time></trkpt><trkpt lat="44.87734967405639" lon="9.691701206106984"><ele>242.0</ele><time>2026-05-03T11:31:33Z</time></trkpt><trkpt lat="44.877372402607094" lon="9.691792282919293"><ele>242.00000000000003</ele><time>2026-05-03T11:31:35Z</time></trkpt><trkpt lat="44.87739922372525" lon="9.691880189775981"><ele>242.0</ele><time>2026-05-03T11:31:40Z</time></trkpt><trkpt lat="44.87743264004778" lon="9.691979016967553"><ele>241.42857142857142</ele><time>2026-05-03T11:31:44Z</time></trkpt><trkpt lat="44.877502740164" lon="9.692004667855446"><ele>240.85714285714283</ele><time>2026-05-03T11:31:49Z</time></trkpt><trkpt lat="44.877561273359476" lon="9.692102471688349"><ele>240.28571428571428</ele><time>2026-05-03T11:31:52Z</time></trkpt><trkpt lat="44.87761999422181" lon="9.692152724888262"><ele>239.71428571428572</ele><time>2026-05-03T11:31:55Z</time></trkpt><trkpt lat="44.87764821053473" lon="9.69226315495592"><ele>239.14285714285714</ele><time>2026-05-03T11:31:58Z</time></trkpt><trkpt lat="44.87768585916414" lon="9.692334964750243"><ele>238.57142857142856</ele><time>2026-05-03T11:32:00Z</time></trkpt><trkpt lat="44.8777411482072" lon="9.692396873117755"><ele>238.0</ele><time>2026-05-03T11:32:17Z</time></trkpt><trkpt lat="44.877762505803695" lon="9.69250648339747"><ele>238.0</ele><time>2026-05-03T11:32:20Z</time></trkpt><trkpt lat="44.877752968969354" lon="9.692594983440639"><ele>238.0</ele><time>2026-05-03T11:32:22Z</time></trkpt><trkpt lat="44.87775305745008" lon="9.692698773645287"><ele>238.0</ele><time>2026-05-03T11:32:26Z</time></trkpt><trkpt lat="44.87773390093039" lon="9.692825571182388"><ele>238.0</ele><time>2026-05-03T11:32:56Z</time></trkpt><trkpt lat="44.87779580296878" lon="9.692881034839605"><ele>238.0</ele><time>2026-05-03T11:33:10Z</time></trkpt><trkpt lat="44.87783262049753" lon="9.692972091980284"><ele>238.0</ele><time>2026-05-03T11:33:14Z</time></trkpt><trkpt lat="44.877887456128505" lon="9.692917704723332"><ele>238.0</ele><time>2026-05-03T11:33:24Z</time></trkpt><trkpt lat="44.87797180410539" lon="9.69288191978584"><ele>238.99999999999997</ele><time>2026-05-03T11:33:28Z</time></trkpt><trkpt lat="44.878061903327094" lon="9.69289001969859"><ele>240.0</ele><time>2026-05-03T11:33:31Z</time></trkpt><trkpt lat="44.878144644536484" lon="9.692912825316654"><ele>241.0</ele><time>2026-05-03T11:33:34Z</time></trkpt><trkpt lat="44.87824961516029" lon="9.692947364652667"><ele>242.0</ele><time>2026-05-03T11:33:36Z</time></trkpt><trkpt lat="44.87831167974245" lon="9.692970486442366"><ele>242.99999999999997</ele><time>2026-05-03T11:33:38Z</time></trkpt><trkpt lat="44.87838437132805" lon="9.693053397243531"><ele>244.0</ele><time>2026-05-03T11:33:41Z</time></trkpt><trkpt lat="44.8784527757026" lon="9.69306351978438"><ele>242.28571428571425</ele><time>2026-05-03T11:33:43Z</time></trkpt><trkpt lat="44.878521370347904" lon="9.693077703765631"><ele>240.57142857142856</ele><time>2026-05-03T11:33:46Z</time></trkpt><trkpt lat="44.878592262045565" lon="9.693127921227521"><ele>238.85714285714286</ele><time>2026-05-03T11:33:49Z</time></trkpt><trkpt lat="44.87866027956758" lon="9.693133230790693"><ele>237.14285714285714</ele><time>2026-05-03T11:33:52Z</time></trkpt><trkpt lat="44.87859425889844" lon="9.693128965524338"><ele>235.42857142857144</ele><time>2026-05-03T11:34:25Z</time></trkpt><trkpt lat="44.87862823741621" lon="9.693205512296604"><ele>233.71428571428575</ele><time>2026-05-03T11:34:30Z</time></trkpt><trkpt lat="44.87864345684592" lon="9.693313758826589"><ele>232.00000000000003</ele><time>2026-05-03T11:36:04Z</time></trkpt><trkpt lat="44.87856184982087" lon="9.693206825113585"><ele>231.99999999999997</ele><time>2026-05-03T11:41:13Z</time></trkpt><trkpt lat="44.87861842217934" lon="9.69316322948531"><ele>232.0</ele><time>2026-05-03T11:41:16Z</time></trkpt><trkpt lat="44.87855606047361" lon="9.693176376353845"><ele>232.0</ele><time>2026-05-03T11:41:31Z</time></trkpt><trkpt lat="44.87849448923283" lon="9.693085589516258"><ele>232.0</ele><time>2026-05-03T11:41:37Z</time></trkpt><trkpt lat="44.87839255825781" lon="9.693055649014708"><ele>231.99999999999997</ele><time>2026-05-03T11:41:39Z</time></trkpt><trkpt lat="44.87832850489287" lon="9.692971264265815"><ele>232.0</ele><time>2026-05-03T11:41:41Z</time></trkpt><trkpt lat="44.878227371027315" lon="9.692924267455815"><ele>232.99999999999997</ele><time>2026-05-03T11:41:43Z</time></trkpt><trkpt lat="44.87811357368743" lon="9.69291214720591"><ele>234.0</ele><time>2026-05-03T11:41:45Z</time></trkpt><trkpt lat="44.878046303622334" lon="9.692882101376094"><ele>235.0</ele><time>2026-05-03T11:41:57Z</time></trkpt><trkpt lat="44.877958093684306" lon="9.692872125083419"><ele>236.0</ele><time>2026-05-03T11:41:59Z</time></trkpt><trkpt lat="44.87788864305179" lon="9.692818342336038"><ele>236.99999999999997</ele><time>2026-05-03T11:42:01Z</time></trkpt><trkpt lat="44.87783055691095" lon="9.692753040863822"><ele>238.0</ele><time>2026-05-03T11:42:03Z</time></trkpt><trkpt lat="44.87778070098857" lon="9.692691867330016"><ele>237.99999999999997</ele><time>2026-05-03T11:42:05Z</time></trkpt><trkpt lat="44.877777097010636" lon="9.692561951025338"><ele>238.0</ele><time>2026-05-03T11:42:09Z</time></trkpt><trkpt lat="44.877764988673036" lon="9.69243446296201"><ele>238.0</ele><time>2026-05-03T11:42:12Z</time></trkpt><trkpt lat="44.877701037772894" lon="9.692355347340511"><ele>238.0</ele><time>2026-05-03T11:42:14Z</time></trkpt><trkpt lat="44.8776515690583" lon="9.692287287306582"><ele>237.99999999999997</ele><time>2026-05-03T11:42:16Z</time></trkpt><trkpt lat="44.87762662269158" lon="9.692198662721955"><ele>238.0</ele><time>2026-05-03T11:42:23Z</time></trkpt><trkpt lat="44.87757972182061" lon="9.692129864545928"><ele>238.66666666666666</ele><time>2026-05-03T11:42:35Z</time></trkpt><trkpt lat="44.87751445564622" lon="9.692059660178124"><ele>239.33333333333331</ele><time>2026-05-03T11:42:43Z</time></trkpt><trkpt lat="44.877457492877966" lon="9.692008618049597"><ele>240.0</ele><time>2026-05-03T11:42:49Z</time></trkpt><trkpt lat="44.87738886589423" lon="9.691968200197842"><ele>240.66666666666669</ele><time>2026-05-03T11:42:54Z</time></trkpt><trkpt lat="44.87728258170899" lon="9.691882374087646"><ele>241.33333333333334</ele><time>2026-05-03T11:42:56Z</time></trkpt><trkpt lat="44.87721533179899" lon="9.691832672832554"><ele>242.0</ele><time>2026-05-03T11:42:57Z</time></trkpt><trkpt lat="44.877136911682726" lon="9.69176705071741"><ele>242.0</ele><time>2026-05-03T11:42:59Z</time></trkpt><trkpt lat="44.87722130278288" lon="9.691713178744532"><ele>241.99999999999997</ele><time>2026-05-03T11:44:13Z</time></trkpt><trkpt lat="44.877275395837096" lon="9.691656356387647"><ele>242.0</ele><time>2026-05-03T11:44:35Z</time></trkpt><trkpt lat="44.877245566364266" lon="9.691578090244356"><ele>242.0</ele><time>2026-05-03T11:44:42Z</time></trkpt><trkpt lat="44.877216541462566" lon="9.691486388290237"><ele>241.99999999999997</ele><time>2026-05-03T11:44:44Z</time></trkpt><trkpt lat="44.87720531837755" lon="9.691396580692048"><ele>242.0</ele><time>2026-05-03T11:44:46Z</time></trkpt><trkpt lat="44.87725908982983" lon="9.691300000018536"><ele>242.0</ele><time>2026-05-03T11:44:52Z</time></trkpt><trkpt lat="44.877358928350574" lon="9.691302875660835"><ele>242.0</ele><time>2026-05-03T11:44:54Z</time></trkpt><trkpt lat="44.87749240517086" lon="9.691268725311916"><ele>242.0</ele><time>2026-05-03T11:44:56Z</time></trkpt><trkpt lat="44.877577784571194" lon="9.691268875972517"><ele>242.0</ele><time>2026-05-03T11:44:57Z</time></trkpt><trkpt lat="44.877652833852636" lon="9.691290033645043"><ele>242.0</ele><time>2026-05-03T11:44:58Z</time></trkpt><trkpt lat="44.87772316351161" lon="9.691352621707754"><ele>242.0</ele><time>2026-05-03T11:45:00Z</time></trkpt><trkpt lat="44.87782347567589" lon="9.69144125136995"><ele>241.66666666666669</ele><time>2026-05-03T11:45:02Z</time></trkpt><trkpt lat="44.87790510630985" lon="9.691481586494833"><ele>241.33333333333334</ele><time>2026-05-03T11:45:04Z</time></trkpt><trkpt lat="44.877965736404256" lon="9.691521885055"><ele>241.0</ele><time>2026-05-03T11:45:05Z</time></trkpt><trkpt lat="44.87802731208211" lon="9.691541274591465"><ele>240.66666666666669</ele><time>2026-05-03T11:45:06Z</time></trkpt><trkpt lat="44.87809606144367" lon="9.6915388694703"><ele>240.33333333333334</ele><time>2026-05-03T11:45:07Z</time></trkpt><trkpt lat="44.87818702982688" lon="9.691518776539322"><ele>240.0</ele><time>2026-05-03T11:45:09Z</time></trkpt><trkpt lat="44.87829432535195" lon="9.691552217629166"><ele>240.0</ele><time>2026-05-03T11:45:11Z</time></trkpt><trkpt lat="44.87837441068752" lon="9.691559947808038"><ele>240.0</ele><time>2026-05-03T11:45:12Z</time></trkpt><trkpt lat="44.87844455722562" lon="9.691562050250424"><ele>240.0</ele><time>2026-05-03T11:45:13Z</time></trkpt><trkpt lat="44.878547121078334" lon="9.691485075456246"><ele>240.0</ele><time>2026-05-03T11:45:15Z</time></trkpt><trkpt lat="44.8786572572945" lon="9.691476965530653"><ele>240.0</ele><time>2026-05-03T11:45:17Z</time></trkpt><trkpt lat="44.87873857770263" lon="9.691496737069777"><ele>240.5</ele><time>2026-05-03T11:45:18Z</time></trkpt><trkpt lat="44.87882613623578" lon="9.691511198249078"><ele>241.0</ele><time>2026-05-03T11:45:19Z</time></trkpt><trkpt lat="44.878928429491" lon="9.691533698967094"><ele>241.5</ele><time>2026-05-03T11:45:21Z</time></trkpt><trkpt lat="44.87901382942369" lon="9.691537060169606"><ele>242.0</ele><time>2026-05-03T11:45:23Z</time></trkpt><trkpt lat="44.87911204876942" lon="9.691589252051687"><ele>242.5</ele><time>2026-05-03T11:45:25Z</time></trkpt><trkpt lat="44.87917273347796" lon="9.691614127439736"><ele>243.0</ele><time>2026-05-03T11:45:26Z</time></trkpt><trkpt lat="44.87930103661232" lon="9.69166755836173"><ele>243.42857142857142</ele><time>2026-05-03T11:45:28Z</time></trkpt><trkpt lat="44.87936659608721" lon="9.691683453740406"><ele>243.8571428571429</ele><time>2026-05-03T11:45:29Z</time></trkpt><trkpt lat="44.879451543750264" lon="9.691718196797307"><ele>244.2857142857143</ele><time>2026-05-03T11:45:30Z</time></trkpt><trkpt lat="44.87951101417017" lon="9.69175745386037"><ele>244.71428571428572</ele><time>2026-05-03T11:45:31Z</time></trkpt><trkpt lat="44.87958083429701" lon="9.691787485823884"><ele>245.14285714285717</ele><time>2026-05-03T11:45:32Z</time></trkpt><trkpt lat="44.87965574250633" lon="9.691829101354838"><ele>245.5714285714286</ele><time>2026-05-03T11:45:33Z</time></trkpt><trkpt lat="44.87972140674814" lon="9.691875148649206"><ele>246.00000000000003</ele><time>2026-05-03T11:45:34Z</time></trkpt><trkpt lat="44.8798099480638" lon="9.691924966976103"><ele>245.4</ele><time>2026-05-03T11:45:36Z</time></trkpt><trkpt lat="44.87987974797143" lon="9.692064183694065"><ele>244.8</ele><time>2026-05-03T11:45:38Z</time></trkpt><trkpt lat="44.879960262873" lon="9.69217085503811"><ele>244.20000000000002</ele><time>2026-05-03T11:45:40Z</time></trkpt><trkpt lat="44.8800143189437" lon="9.692223011223305"><ele>243.60000000000002</ele><time>2026-05-03T11:45:41Z</time></trkpt><trkpt lat="44.88007741128381" lon="9.692283453980282"><ele>243.0</ele><time>2026-05-03T11:45:42Z</time></trkpt><trkpt lat="44.88014032352207" lon="9.692347596601866"><ele>243.0</ele><time>2026-05-03T11:45:43Z</time></trkpt><trkpt lat="44.88020318223998" lon="9.692405462004047"><ele>243.0</ele><time>2026-05-03T11:45:44Z</time></trkpt><trkpt lat="44.880270514751835" lon="9.692472613967862"><ele>243.0</ele><time>2026-05-03T11:45:45Z</time></trkpt><trkpt lat="44.88034159554474" lon="9.692544517881625"><ele>243.0</ele><time>2026-05-03T11:45:46Z</time></trkpt><trkpt lat="44.88041288579732" lon="9.692603697572498"><ele>243.0</ele><time>2026-05-03T11:45:47Z</time></trkpt><trkpt lat="44.88049135285" lon="9.69266020837707"><ele>243.0</ele><time>2026-05-03T11:45:48Z</time></trkpt><trkpt lat="44.880581288282876" lon="9.692733882650849"><ele>242.2</ele><time>2026-05-03T11:45:49Z</time></trkpt><trkpt lat="44.880655832838436" lon="9.692807641602158"><ele>241.4</ele><time>2026-05-03T11:45:50Z</time></trkpt><trkpt lat="44.88071922804121" lon="9.692867720003337"><ele>240.59999999999997</ele><time>2026-05-03T11:45:51Z</time></trkpt><trkpt lat="44.88082804588099" lon="9.69294105110852"><ele>239.79999999999998</ele><time>2026-05-03T11:45:53Z</time></trkpt><trkpt lat="44.880834723087204" lon="9.693031505310458"><ele>239.0</ele><time>2026-05-03T11:45:55Z</time></trkpt><trkpt lat="44.88077317225498" lon="9.693156724510176"><ele>239.0</ele><time>2026-05-03T11:45:57Z</time></trkpt><trkpt lat="44.8807118731383" lon="9.693300531224603"><ele>239.0</ele><time>2026-05-03T11:45:59Z</time></trkpt><trkpt lat="44.88063097491689" lon="9.693448336113615"><ele>239.0</ele><time>2026-05-03T11:46:01Z</time></trkpt><trkpt lat="44.880526553038436" lon="9.693567949525262"><ele>239.0</ele><time>2026-05-03T11:46:03Z</time></trkpt><trkpt lat="44.88044514222954" lon="9.693593100151343"><ele>239.00000000000003</ele><time>2026-05-03T11:46:04Z</time></trkpt><trkpt lat="44.88036363562716" lon="9.693589357700459"><ele>239.0</ele><time>2026-05-03T11:46:05Z</time></trkpt><trkpt lat="44.88029606408885" lon="9.69358082360484"><ele>239.0</ele><time>2026-05-03T11:46:06Z</time></trkpt><trkpt lat="44.88022883205845" lon="9.693590919608392"><ele>239.0</ele><time>2026-05-03T11:46:07Z</time></trkpt><trkpt lat="44.880151018563154" lon="9.693657184218786"><ele>239.00000000000003</ele><time>2026-05-03T11:46:09Z</time></trkpt><trkpt lat="44.880072997919946" lon="9.693707631109936"><ele>239.0</ele><time>2026-05-03T11:46:11Z</time></trkpt><trkpt lat="44.879977136790664" lon="9.693712491070821"><ele>237.16666666666669</ele><time>2026-05-03T11:46:13Z</time></trkpt><trkpt lat="44.879908952259655" lon="9.693676414610387"><ele>235.33333333333334</ele><time>2026-05-03T11:46:15Z</time></trkpt><trkpt lat="44.87985443565658" lon="9.69373039840333"><ele>233.5</ele><time>2026-05-03T11:46:18Z</time></trkpt><trkpt lat="44.87976592679756" lon="9.69379589043756"><ele>231.66666666666669</ele><time>2026-05-03T11:46:20Z</time></trkpt><trkpt lat="44.879700970041895" lon="9.693835580564603"><ele>229.83333333333334</ele><time>2026-05-03T11:46:22Z</time></trkpt><trkpt lat="44.87969404067308" lon="9.693936307492853"><ele>228.0</ele><time>2026-05-03T11:46:24Z</time></trkpt><trkpt lat="44.879706980956655" lon="9.694042510314132"><ele>228.0</ele><time>2026-05-03T11:46:25Z</time></trkpt><trkpt lat="44.87971150458438" lon="9.69414768069527"><ele>228.0</ele><time>2026-05-03T11:46:26Z</time></trkpt><trkpt lat="44.87962940324306" lon="9.694197679101256"><ele>228.0</ele><time>2026-05-03T11:46:28Z</time></trkpt><trkpt lat="44.87952884242925" lon="9.694188151522457"><ele>228.0</ele><time>2026-05-03T11:46:29Z</time></trkpt><trkpt lat="44.87941418257677" lon="9.694171116613532"><ele>228.0</ele><time>2026-05-03T11:46:30Z</time></trkpt><trkpt lat="44.879315873900616" lon="9.694193278745319"><ele>228.0</ele><time>2026-05-03T11:46:31Z</time></trkpt><trkpt lat="44.87938322651255" lon="9.694279258097257"><ele>228.0</ele><time>2026-05-03T11:46:35Z</time></trkpt><trkpt lat="44.879443213224484" lon="9.694313166273352"><ele>228.0</ele><time>2026-05-03T11:46:36Z</time></trkpt><trkpt lat="44.87946678490259" lon="9.694408480934388"><ele>228.0</ele><time>2026-05-03T11:46:38Z</time></trkpt><trkpt lat="44.87944402974951" lon="9.69456220875609"><ele>228.0</ele><time>2026-05-03T11:46:40Z</time></trkpt><trkpt lat="44.87941798588069" lon="9.694651046419358"><ele>228.0</ele><time>2026-05-03T11:46:41Z</time></trkpt><trkpt lat="44.8793835713166" lon="9.69472870122613"><ele>229.60000000000002</ele><time>2026-05-03T11:46:42Z</time></trkpt><trkpt lat="44.879404091880765" lon="9.69488566360616"><ele>231.20000000000002</ele><time>2026-05-03T11:46:44Z</time></trkpt><trkpt lat="44.87948650631743" lon="9.695043538183635"><ele>232.8</ele><time>2026-05-03T11:46:46Z</time></trkpt><trkpt lat="44.87953756073926" lon="9.695157960522133"><ele>234.4</ele><time>2026-05-03T11:46:47Z</time></trkpt><trkpt lat="44.87956571802011" lon="9.695239973684942"><ele>236.0</ele><time>2026-05-03T11:46:48Z</time></trkpt><trkpt lat="44.879551008410786" lon="9.695383993084427"><ele>237.8</ele><time>2026-05-03T11:46:50Z</time></trkpt><trkpt lat="44.87950099273784" lon="9.69546844083484"><ele>239.60000000000002</ele><time>2026-05-03T11:46:52Z</time></trkpt><trkpt lat="44.879535842812956" lon="9.695620445799758"><ele>241.4</ele><time>2026-05-03T11:46:54Z</time></trkpt><trkpt lat="44.8795301615193" lon="9.695725530852748"><ele>243.2</ele><time>2026-05-03T11:46:55Z</time></trkpt><trkpt lat="44.87958541157075" lon="9.695851234835713"><ele>245.0</ele><time>2026-05-03T11:46:57Z</time></trkpt><trkpt lat="44.87966066681587" lon="9.695903709428661"><ele>245.0</ele><time>2026-05-03T11:46:58Z</time></trkpt><trkpt lat="44.8797310458966" lon="9.695974499931117"><ele>245.0</ele><time>2026-05-03T11:46:59Z</time></trkpt><trkpt lat="44.879823465049775" lon="9.696094393159788"><ele>245.0</ele><time>2026-05-03T11:47:01Z</time></trkpt><trkpt lat="44.8798572315932" lon="9.69617912650315"><ele>245.0</ele><time>2026-05-03T11:47:02Z</time></trkpt><trkpt lat="44.87987673497282" lon="9.69626735986213"><ele>245.0</ele><time>2026-05-03T11:47:03Z</time></trkpt><trkpt lat="44.879912261685696" lon="9.696432461670408"><ele>246.4</ele><time>2026-05-03T11:47:05Z</time></trkpt><trkpt lat="44.87996579609076" lon="9.696571500146447"><ele>247.8</ele><time>2026-05-03T11:47:07Z</time></trkpt><trkpt lat="44.879990696950586" lon="9.696720664735393"><ele>249.2</ele><time>2026-05-03T11:47:09Z</time></trkpt><trkpt lat="44.879970354066344" lon="9.69682318925438"><ele>250.6</ele><time>2026-05-03T11:47:10Z</time></trkpt><trkpt lat="44.87998051724497" lon="9.696981976532115"><ele>252.0</ele><time>2026-05-03T11:47:12Z</time></trkpt><trkpt lat="44.88005948687504" lon="9.697085037510476"><ele>250.71428571428572</ele><time>2026-05-03T11:47:14Z</time></trkpt><trkpt lat="44.880124681314356" lon="9.697121266074042"><ele>249.42857142857144</ele><time>2026-05-03T11:47:15Z</time></trkpt><trkpt lat="44.8802039082664" lon="9.697154042777969"><ele>248.14285714285714</ele><time>2026-05-03T11:47:16Z</time></trkpt><trkpt lat="44.88025743313056" lon="9.697227290366154"><ele>246.85714285714286</ele><time>2026-05-03T11:47:17Z</time></trkpt><trkpt lat="44.88030127142804" lon="9.697307158497628"><ele>245.57142857142858</ele><time>2026-05-03T11:47:18Z</time></trkpt><trkpt lat="44.880318905843005" lon="9.697400905506578"><ele>244.28571428571428</ele><time>2026-05-03T11:47:19Z</time></trkpt><trkpt lat="44.88035454018598" lon="9.697490471805798"><ele>243.0</ele><time>2026-05-03T11:47:20Z</time></trkpt><trkpt lat="44.88042302577304" lon="9.697650035562761"><ele>243.83333333333334</ele><time>2026-05-03T11:47:22Z</time></trkpt><trkpt lat="44.880473537685866" lon="9.697770336183675"><ele>244.66666666666669</ele><time>2026-05-03T11:47:23Z</time></trkpt><trkpt lat="44.88051003793594" lon="9.697876972572438"><ele>245.5</ele><time>2026-05-03T11:47:24Z</time></trkpt><trkpt lat="44.880512191818866" lon="9.698029730837614"><ele>246.33333333333334</ele><time>2026-05-03T11:47:26Z</time></trkpt><trkpt lat="44.88052478768534" lon="9.698132035089941"><ele>247.16666666666669</ele><time>2026-05-03T11:47:28Z</time></trkpt><trkpt lat="44.88058544174996" lon="9.698184025529992"><ele>248.0</ele><time>2026-05-03T11:47:30Z</time></trkpt><trkpt lat="44.88067326977737" lon="9.698299651791574"><ele>248.00000000000003</ele><time>2026-05-03T11:47:32Z</time></trkpt><trkpt lat="44.88075710709314" lon="9.698314170973758"><ele>248.0</ele><time>2026-05-03T11:47:33Z</time></trkpt><trkpt lat="44.8808229538425" lon="9.698309178559986"><ele>248.0</ele><time>2026-05-03T11:47:34Z</time></trkpt><trkpt lat="44.88090370860167" lon="9.698300600928349"><ele>248.0</ele><time>2026-05-03T11:47:35Z</time></trkpt><trkpt lat="44.88098513872527" lon="9.69832100055596"><ele>248.00000000000003</ele><time>2026-05-03T11:47:36Z</time></trkpt><trkpt lat="44.88106077686993" lon="9.698359853670063"><ele>248.0</ele><time>2026-05-03T11:47:37Z</time></trkpt><trkpt lat="44.88113589902061" lon="9.698438179535065"><ele>246.83333333333334</ele><time>2026-05-03T11:47:39Z</time></trkpt><trkpt lat="44.88114907014799" lon="9.698531922511417"><ele>245.66666666666669</ele><time>2026-05-03T11:47:40Z</time></trkpt><trkpt lat="44.88116454111412" lon="9.698628393053882"><ele>244.5</ele><time>2026-05-03T11:47:41Z</time></trkpt><trkpt lat="44.881221260319556" lon="9.69869954905773"><ele>243.33333333333331</ele><time>2026-05-03T11:47:42Z</time></trkpt><trkpt lat="44.881306441113495" lon="9.698788884791016"><ele>242.16666666666666</ele><time>2026-05-03T11:47:43Z</time></trkpt><trkpt lat="44.88137902015901" lon="9.6988571205593"><ele>241.0</ele><time>2026-05-03T11:47:44Z</time></trkpt><trkpt lat="44.88146936690491" lon="9.698969757893344"><ele>240.99999999999997</ele><time>2026-05-03T11:47:46Z</time></trkpt><trkpt lat="44.881535915781015" lon="9.699036060809856"><ele>241.0</ele><time>2026-05-03T11:47:47Z</time></trkpt><trkpt lat="44.88158138092842" lon="9.699108641779493"><ele>241.0</ele><time>2026-05-03T11:47:48Z</time></trkpt><trkpt lat="44.881680527908486" lon="9.699190440382816"><ele>241.0</ele><time>2026-05-03T11:47:50Z</time></trkpt><trkpt lat="44.881752751809145" lon="9.699225789922432"><ele>240.99999999999997</ele><time>2026-05-03T11:47:51Z</time></trkpt><trkpt lat="44.88182165646635" lon="9.699263502720905"><ele>241.0</ele><time>2026-05-03T11:47:52Z</time></trkpt><trkpt lat="44.88189799838743" lon="9.699297592764966"><ele>239.20000000000002</ele><time>2026-05-03T11:48:01Z</time></trkpt><trkpt lat="44.88197125587062" lon="9.69935451385834"><ele>237.40000000000003</ele><time>2026-05-03T11:48:04Z</time></trkpt><trkpt lat="44.88193075749456" lon="9.699432343759744"><ele>235.6</ele><time>2026-05-03T11:48:06Z</time></trkpt><trkpt lat="44.88187102960904" lon="9.699590922313952"><ele>233.8</ele><time>2026-05-03T11:48:08Z</time></trkpt><trkpt lat="44.88193980633578" lon="9.699690937033733"><ele>232.0</ele><time>2026-05-03T11:48:10Z</time></trkpt><trkpt lat="44.88202320412028" lon="9.69974146219828"><ele>231.8</ele><time>2026-05-03T11:48:11Z</time></trkpt><trkpt lat="44.882115149585" lon="9.699807233562314"><ele>231.6</ele><time>2026-05-03T11:48:12Z</time></trkpt><trkpt lat="44.882196287848096" lon="9.699857787603321"><ele>231.40000000000003</ele><time>2026-05-03T11:48:13Z</time></trkpt><trkpt lat="44.88226291636617" lon="9.699989046126767"><ele>231.20000000000002</ele><time>2026-05-03T11:48:15Z</time></trkpt><trkpt lat="44.88228757312367" lon="9.700074877210934"><ele>231.0</ele><time>2026-05-03T11:48:16Z</time></trkpt><trkpt lat="44.88235898649763" lon="9.700133312478869"><ele>231.0</ele><time>2026-05-03T11:48:18Z</time></trkpt><trkpt lat="44.8822437000039" lon="9.700169227158604"><ele>231.00000000000003</ele><time>2026-05-03T11:48:21Z</time></trkpt><trkpt lat="44.88214939487198" lon="9.70018454428178"><ele>231.00000000000003</ele><time>2026-05-03T11:48:22Z</time></trkpt><trkpt lat="44.882057560713655" lon="9.700213876466899"><ele>231.0</ele><time>2026-05-03T11:48:23Z</time></trkpt><trkpt lat="44.88198049588703" lon="9.700241430817563"><ele>231.0</ele><time>2026-05-03T11:48:24Z</time></trkpt><trkpt lat="44.88190867621429" lon="9.700266405940715"><ele>229.8</ele><time>2026-05-03T11:48:25Z</time></trkpt><trkpt lat="44.881815490714544" lon="9.700296642350006"><ele>228.60000000000002</ele><time>2026-05-03T11:48:26Z</time></trkpt><trkpt lat="44.88170942167747" lon="9.700329878606844"><ele>227.4</ele><time>2026-05-03T11:48:27Z</time></trkpt><trkpt lat="44.88162379851841" lon="9.70038502053829"><ele>226.2</ele><time>2026-05-03T11:48:28Z</time></trkpt><trkpt lat="44.881554410436365" lon="9.700446383057974"><ele>225.0</ele><time>2026-05-03T11:48:29Z</time></trkpt><trkpt lat="44.881462166982715" lon="9.70051938642524"><ele>225.0</ele><time>2026-05-03T11:48:30Z</time></trkpt><trkpt lat="44.88138024105637" lon="9.70058036923483"><ele>225.0</ele><time>2026-05-03T11:48:31Z</time></trkpt><trkpt lat="44.88131046589841" lon="9.700636878693823"><ele>225.0</ele><time>2026-05-03T11:48:32Z</time></trkpt><trkpt lat="44.88123917226131" lon="9.700642194756902"><ele>225.0</ele><time>2026-05-03T11:48:33Z</time></trkpt><trkpt lat="44.8811508285539" lon="9.700625434140587"><ele>225.0</ele><time>2026-05-03T11:48:34Z</time></trkpt><trkpt lat="44.881076241460676" lon="9.70060407211276"><ele>225.0</ele><time>2026-05-03T11:48:35Z</time></trkpt><trkpt lat="44.88100067240295" lon="9.700646458252239"><ele>225.66666666666666</ele><time>2026-05-03T11:48:37Z</time></trkpt><trkpt lat="44.88087733052065" lon="9.700703430665504"><ele>226.33333333333331</ele><time>2026-05-03T11:48:39Z</time></trkpt><trkpt lat="44.880804201364114" lon="9.700695614912066"><ele>227.0</ele><time>2026-05-03T11:48:40Z</time></trkpt><trkpt lat="44.88072566186249" lon="9.700693705478661"><ele>227.66666666666666</ele><time>2026-05-03T11:48:41Z</time></trkpt><trkpt lat="44.88064595113614" lon="9.700703846807677"><ele>228.33333333333331</ele><time>2026-05-03T11:48:42Z</time></trkpt><trkpt lat="44.88057468215905" lon="9.700708070946664"><ele>229.0</ele><time>2026-05-03T11:48:43Z</time></trkpt><trkpt lat="44.880494644471085" lon="9.700687065566393"><ele>229.0</ele><time>2026-05-03T11:48:44Z</time></trkpt><trkpt lat="44.88041055513005" lon="9.70065969453896"><ele>228.99999999999997</ele><time>2026-05-03T11:48:45Z</time></trkpt><trkpt lat="44.88032820197976" lon="9.700625266200124"><ele>228.99999999999997</ele><time>2026-05-03T11:48:46Z</time></trkpt><trkpt lat="44.880267591577024" lon="9.700569182881564"><ele>229.0</ele><time>2026-05-03T11:48:47Z</time></trkpt><trkpt lat="44.880154482866644" lon="9.700448931818379"><ele>229.0</ele><time>2026-05-03T11:48:49Z</time></trkpt><trkpt lat="44.88008003613477" lon="9.700380446527435"><ele>229.16666666666666</ele><time>2026-05-03T11:48:50Z</time></trkpt><trkpt lat="44.880044739751156" lon="9.700284864339652"><ele>229.33333333333331</ele><time>2026-05-03T11:48:51Z</time></trkpt><trkpt lat="44.879975486185245" lon="9.700204744512282"><ele>229.5</ele><time>2026-05-03T11:48:52Z</time></trkpt><trkpt lat="44.87989051208978" lon="9.700150431972629"><ele>229.66666666666669</ele><time>2026-05-03T11:48:53Z</time></trkpt><trkpt lat="44.879845789780525" lon="9.700053167146692"><ele>229.83333333333334</ele><time>2026-05-03T11:48:54Z</time></trkpt><trkpt lat="44.87981617938068" lon="9.69995970267899"><ele>230.0</ele><time>2026-05-03T11:48:55Z</time></trkpt><trkpt lat="44.87969809172328" lon="9.699889708272085"><ele>230.25</ele><time>2026-05-03T11:48:57Z</time></trkpt><trkpt lat="44.87958544536443" lon="9.69987114334917"><ele>230.5</ele><time>2026-05-03T11:48:58Z</time></trkpt><trkpt lat="44.87947131491019" lon="9.699841795366906"><ele>230.75</ele><time>2026-05-03T11:48:59Z</time></trkpt><trkpt lat="44.87936070128662" lon="9.699777060713641"><ele>231.0</ele><time>2026-05-03T11:49:00Z</time></trkpt><trkpt lat="44.87925680926681" lon="9.699728879597222"><ele>231.0</ele><time>2026-05-03T11:49:01Z</time></trkpt><trkpt lat="44.87914905741663" lon="9.699675237334928"><ele>231.00000000000003</ele><time>2026-05-03T11:49:02Z</time></trkpt><trkpt lat="44.87907134044693" lon="9.699646617954683"><ele>231.00000000000003</ele><time>2026-05-03T11:49:03Z</time></trkpt><trkpt lat="44.87896832488908" lon="9.699693914132586"><ele>231.0</ele><time>2026-05-03T11:49:05Z</time></trkpt><trkpt lat="44.87895629205465" lon="9.699802852313567"><ele>231.0</ele><time>2026-05-03T11:49:07Z</time></trkpt><trkpt lat="44.87898259785538" lon="9.699942173637558"><ele>231.0</ele><time>2026-05-03T11:49:09Z</time></trkpt><trkpt lat="44.878956357345736" lon="9.700178199365018"><ele>231.00000000000003</ele><time>2026-05-03T11:49:12Z</time></trkpt><trkpt lat="44.87893433675151" lon="9.70028657215149"><ele>231.00000000000003</ele><time>2026-05-03T11:49:14Z</time></trkpt><trkpt lat="44.878915050602956" lon="9.700411807849285"><ele>231.0</ele><time>2026-05-03T11:49:16Z</time></trkpt><trkpt lat="44.87888617787651" lon="9.700518250093808"><ele>231.0</ele><time>2026-05-03T11:49:18Z</time></trkpt><trkpt lat="44.87884191917106" lon="9.700616260963669"><ele>232.20000000000002</ele><time>2026-05-03T11:49:20Z</time></trkpt><trkpt lat="44.878819599998636" lon="9.700751159428377"><ele>233.40000000000003</ele><time>2026-05-03T11:49:22Z</time></trkpt><trkpt lat="44.878809433301626" lon="9.700897800962702"><ele>234.6</ele><time>2026-05-03T11:49:24Z</time></trkpt><trkpt lat="44.878820151036194" lon="9.70107552967777"><ele>235.8</ele><time>2026-05-03T11:49:26Z</time></trkpt><trkpt lat="44.87883314011039" lon="9.701204194172037"><ele>237.0</ele><time>2026-05-03T11:49:28Z</time></trkpt><trkpt lat="44.87886402486861" lon="9.701337524412116"><ele>238.5</ele><time>2026-05-03T11:49:30Z</time></trkpt><trkpt lat="44.87885972673704" lon="9.70144915981132"><ele>240.0</ele><time>2026-05-03T11:49:32Z</time></trkpt><trkpt lat="44.87882439028307" lon="9.7015606333483"><ele>241.5</ele><time>2026-05-03T11:49:34Z</time></trkpt><trkpt lat="44.87878148232581" lon="9.701689088886235"><ele>243.0</ele><time>2026-05-03T11:49:36Z</time></trkpt><trkpt lat="44.878750230901865" lon="9.701797664764436"><ele>244.5</ele><time>2026-05-03T11:49:38Z</time></trkpt><trkpt lat="44.87872391075054" lon="9.701888685096261"><ele>246.0</ele><time>2026-05-03T11:49:41Z</time></trkpt><trkpt lat="44.87860522778425" lon="9.701944852787976"><ele>246.66666666666666</ele><time>2026-05-03T11:49:43Z</time></trkpt><trkpt lat="44.87854149400674" lon="9.70199219933341"><ele>247.33333333333331</ele><time>2026-05-03T11:49:44Z</time></trkpt><trkpt lat="44.878473733924494" lon="9.702071248303358"><ele>248.0</ele><time>2026-05-03T11:49:45Z</time></trkpt><trkpt lat="44.8783962888709" lon="9.702123654797948"><ele>248.66666666666666</ele><time>2026-05-03T11:49:46Z</time></trkpt><trkpt lat="44.87832206187522" lon="9.702198788923827"><ele>249.33333333333331</ele><time>2026-05-03T11:49:47Z</time></trkpt><trkpt lat="44.878253810799464" lon="9.702293918464504"><ele>250.0</ele><time>2026-05-03T11:49:48Z</time></trkpt><trkpt lat="44.878175377984654" lon="9.702377637786595"><ele>250.2</ele><time>2026-05-03T11:49:49Z</time></trkpt><trkpt lat="44.87809397673641" lon="9.702464544452859"><ele>250.4</ele><time>2026-05-03T11:49:50Z</time></trkpt><trkpt lat="44.878021900397414" lon="9.702537053354114"><ele>250.60000000000002</ele><time>2026-05-03T11:49:51Z</time></trkpt><trkpt lat="44.877951405840435" lon="9.702615219835106"><ele>250.8</ele><time>2026-05-03T11:49:52Z</time></trkpt><trkpt lat="44.87787207167191" lon="9.702697776340262"><ele>251.0</ele><time>2026-05-03T11:49:53Z</time></trkpt><trkpt lat="44.877792360059395" lon="9.702772466597393"><ele>251.20000000000002</ele><time>2026-05-03T11:49:54Z</time></trkpt><trkpt lat="44.87770777455142" lon="9.70286108248226"><ele>251.40000000000003</ele><time>2026-05-03T11:49:55Z</time></trkpt><trkpt lat="44.87762744256134" lon="9.702947232352743"><ele>251.6</ele><time>2026-05-03T11:49:56Z</time></trkpt><trkpt lat="44.877532687979986" lon="9.7030159475902"><ele>251.8</ele><time>2026-05-03T11:49:57Z</time></trkpt><trkpt lat="44.877457979994" lon="9.703118114721125"><ele>252.0</ele><time>2026-05-03T11:49:58Z</time></trkpt><trkpt lat="44.877375012468555" lon="9.703201053890593"><ele>252.0</ele><time>2026-05-03T11:49:59Z</time></trkpt><trkpt lat="44.877297891446744" lon="9.70327584066447"><ele>252.0</ele><time>2026-05-03T11:50:00Z</time></trkpt><trkpt lat="44.87722128044583" lon="9.703359215049588"><ele>252.0</ele><time>2026-05-03T11:50:02Z</time></trkpt><trkpt lat="44.87716220707269" lon="9.703461436288345"><ele>252.0</ele><time>2026-05-03T11:50:05Z</time></trkpt><trkpt lat="44.87726777838927" lon="9.703583913147382"><ele>252.0</ele><time>2026-05-03T11:50:06Z</time></trkpt><trkpt lat="44.87734164635099" lon="9.70365867038134"><ele>252.0</ele><time>2026-05-03T11:50:07Z</time></trkpt><trkpt lat="44.87742143071838" lon="9.703743196725561"><ele>252.0</ele><time>2026-05-03T11:50:08Z</time></trkpt><trkpt lat="44.87749699458924" lon="9.703839034541351"><ele>252.0</ele><time>2026-05-03T11:50:09Z</time></trkpt><trkpt lat="44.8775576851154" lon="9.703937037146092"><ele>252.0</ele><time>2026-05-03T11:50:10Z</time></trkpt><trkpt lat="44.87761027699644" lon="9.704063259131155"><ele>252.0</ele><time>2026-05-03T11:50:11Z</time></trkpt><trkpt lat="44.87765133725599" lon="9.70418919746699"><ele>251.39999999999998</ele><time>2026-05-03T11:50:12Z</time></trkpt><trkpt lat="44.87769784937882" lon="9.704328545133249"><ele>250.79999999999998</ele><time>2026-05-03T11:50:13Z</time></trkpt><trkpt lat="44.87774175432235" lon="9.704454952370854"><ele>250.2</ele><time>2026-05-03T11:50:14Z</time></trkpt><trkpt lat="44.877776538469064" lon="9.704550607426812"><ele>249.6</ele><time>2026-05-03T11:50:15Z</time></trkpt><trkpt lat="44.87781247228749" lon="9.704650303296974"><ele>249.0</ele><time>2026-05-03T11:50:16Z</time></trkpt><trkpt lat="44.877858662381556" lon="9.704763974467529"><ele>248.0</ele><time>2026-05-03T11:50:17Z</time></trkpt><trkpt lat="44.87790162290005" lon="9.704896757768687"><ele>246.99999999999997</ele><time>2026-05-03T11:50:18Z</time></trkpt><trkpt lat="44.87794248726001" lon="9.705035440869587"><ele>245.99999999999997</ele><time>2026-05-03T11:50:19Z</time></trkpt><trkpt lat="44.87798397921658" lon="9.705174306786313"><ele>245.0</ele><time>2026-05-03T11:50:20Z</time></trkpt><trkpt lat="44.8780335075977" lon="9.70530342781758"><ele>244.0</ele><time>2026-05-03T11:50:21Z</time></trkpt><trkpt lat="44.87808535254911" lon="9.705421482776952"><ele>242.25</ele><time>2026-05-03T11:50:22Z</time></trkpt><trkpt lat="44.87814285028723" lon="9.705546445102309"><ele>240.5</ele><time>2026-05-03T11:50:23Z</time></trkpt><trkpt lat="44.878208297389484" lon="9.705683358111587"><ele>238.75</ele><time>2026-05-03T11:50:24Z</time></trkpt><trkpt lat="44.87828694442974" lon="9.705842266388098"><ele>237.0</ele><time>2026-05-03T11:50:25Z</time></trkpt><trkpt lat="44.87836815919773" lon="9.706019199652573"><ele>236.25</ele><time>2026-05-03T11:50:26Z</time></trkpt><trkpt lat="44.87844547920949" lon="9.706193391321847"><ele>235.5</ele><time>2026-05-03T11:50:27Z</time></trkpt><trkpt lat="44.878513159089444" lon="9.706350609817424"><ele>234.75</ele><time>2026-05-03T11:50:28Z</time></trkpt><trkpt lat="44.8785771237167" lon="9.706498269870579"><ele>234.0</ele><time>2026-05-03T11:50:29Z</time></trkpt><trkpt lat="44.878635577899196" lon="9.70663531002585"><ele>234.0</ele><time>2026-05-03T11:50:30Z</time></trkpt><trkpt lat="44.87868451016809" lon="9.706768026546785"><ele>234.0</ele><time>2026-05-03T11:50:31Z</time></trkpt><trkpt lat="44.8787371470803" lon="9.706905565575457"><ele>234.0</ele><time>2026-05-03T11:50:32Z</time></trkpt><trkpt lat="44.87879868988106" lon="9.707051636474059"><ele>234.0</ele><time>2026-05-03T11:50:33Z</time></trkpt><trkpt lat="44.87885895631586" lon="9.707186190638296"><ele>231.79999999999998</ele><time>2026-05-03T11:50:34Z</time></trkpt><trkpt lat="44.87890707389286" lon="9.707308819044945"><ele>229.59999999999997</ele><time>2026-05-03T11:50:35Z</time></trkpt><trkpt lat="44.87896367875063" lon="9.707403858562955"><ele>227.4</ele><time>2026-05-03T11:50:36Z</time></trkpt><trkpt lat="44.87903948872378" lon="9.707478020117907"><ele>225.2</ele><time>2026-05-03T11:50:37Z</time></trkpt><trkpt lat="44.87913005311183" lon="9.70756032236777"><ele>223.0</ele><time>2026-05-03T11:50:38Z</time></trkpt><trkpt lat="44.87921353630293" lon="9.707650758267777"><ele>220.5</ele><time>2026-05-03T11:50:39Z</time></trkpt><trkpt lat="44.87931216844053" lon="9.707750762767363"><ele>218.0</ele><time>2026-05-03T11:50:40Z</time></trkpt><trkpt lat="44.87942217988875" lon="9.707857114266194"><ele>215.5</ele><time>2026-05-03T11:50:41Z</time></trkpt><trkpt lat="44.87952394170292" lon="9.707956064569572"><ele>213.0</ele><time>2026-05-03T11:50:42Z</time></trkpt><trkpt lat="44.879622990713216" lon="9.708055007764173"><ele>213.0</ele><time>2026-05-03T11:50:43Z</time></trkpt><trkpt lat="44.879723404042075" lon="9.708146383634984"><ele>213.0</ele><time>2026-05-03T11:50:44Z</time></trkpt><trkpt lat="44.87982284339769" lon="9.70823836647371"><ele>213.0</ele><time>2026-05-03T11:50:45Z</time></trkpt><trkpt lat="44.87992396614646" lon="9.708347194688464"><ele>213.0</ele><time>2026-05-03T11:50:46Z</time></trkpt><trkpt lat="44.880021338357885" lon="9.708457225273964"><ele>214.25</ele><time>2026-05-03T11:50:47Z</time></trkpt><trkpt lat="44.8801267169395" lon="9.708558700182683"><ele>215.5</ele><time>2026-05-03T11:50:48Z</time></trkpt><trkpt lat="44.88023360950543" lon="9.708648884883722"><ele>216.75</ele><time>2026-05-03T11:50:49Z</time></trkpt><trkpt lat="44.88033556103189" lon="9.708730836840385"><ele>218.0</ele><time>2026-05-03T11:50:50Z</time></trkpt><trkpt lat="44.8804387899287" lon="9.708788405795932"><ele>215.60000000000002</ele><time>2026-05-03T11:50:51Z</time></trkpt><trkpt lat="44.88052897453365" lon="9.70883821366132"><ele>213.20000000000002</ele><time>2026-05-03T11:50:52Z</time></trkpt><trkpt lat="44.88058736847014" lon="9.70887646334046"><ele>210.8</ele><time>2026-05-03T11:50:53Z</time></trkpt><trkpt lat="44.880622196340184" lon="9.709038280160982"><ele>208.4</ele><time>2026-05-03T11:50:55Z</time></trkpt><trkpt lat="44.88055776832954" lon="9.709159223523242"><ele>206.0</ele><time>2026-05-03T11:50:56Z</time></trkpt><trkpt lat="44.880502007609394" lon="9.709318195341652"><ele>203.25</ele><time>2026-05-03T11:50:57Z</time></trkpt><trkpt lat="44.880443227703786" lon="9.70949278771887"><ele>200.5</ele><time>2026-05-03T11:50:58Z</time></trkpt><trkpt lat="44.880404823082394" lon="9.709660422461058"><ele>197.75</ele><time>2026-05-03T11:50:59Z</time></trkpt><trkpt lat="44.88036950905285" lon="9.709798502933298"><ele>195.0</ele><time>2026-05-03T11:51:00Z</time></trkpt><trkpt lat="44.88033198175923" lon="9.709936045563351"><ele>195.0</ele><time>2026-05-03T11:51:01Z</time></trkpt><trkpt lat="44.88029496328602" lon="9.710082472880037"><ele>195.0</ele><time>2026-05-03T11:51:02Z</time></trkpt><trkpt lat="44.880260635793356" lon="9.710224122800813"><ele>195.0</ele><time>2026-05-03T11:51:03Z</time></trkpt><trkpt lat="44.880224219321306" lon="9.710349717614836"><ele>195.0</ele><time>2026-05-03T11:51:04Z</time></trkpt><trkpt lat="44.880189669759176" lon="9.710468586841586"><ele>195.0</ele><time>2026-05-03T11:51:05Z</time></trkpt><trkpt lat="44.880165995203775" lon="9.710581161595522"><ele>194.66666666666666</ele><time>2026-05-03T11:51:06Z</time></trkpt><trkpt lat="44.880138080524816" lon="9.710677269431589"><ele>194.33333333333331</ele><time>2026-05-03T11:51:07Z</time></trkpt><trkpt lat="44.88012482679673" lon="9.710782124996198"><ele>194.0</ele><time>2026-05-03T11:51:08Z</time></trkpt><trkpt lat="44.880131807451605" lon="9.710903035835948"><ele>193.66666666666666</ele><time>2026-05-03T11:51:09.001Z</time></trkpt><trkpt lat="44.88006746790662" lon="9.711021140981114"><ele>193.33333333333331</ele><time>2026-05-03T11:51:10.001Z</time></trkpt><trkpt lat="44.880017533958785" lon="9.711110629461574"><ele>193.0</ele><time>2026-05-03T11:51:11.001Z</time></trkpt><trkpt lat="44.87994721448736" lon="9.711191747250593"><ele>193.0</ele><time>2026-05-03T11:51:12.001Z</time></trkpt><trkpt lat="44.879886712814624" lon="9.71126533979833"><ele>193.0</ele><time>2026-05-03T11:51:13.001Z</time></trkpt><trkpt lat="44.879824211859294" lon="9.711290018433568"><ele>193.0</ele><time>2026-05-03T11:51:14.001Z</time></trkpt><trkpt lat="44.87975586878958" lon="9.711161684493458"><ele>193.0</ele><time>2026-05-03T11:51:16Z</time></trkpt><trkpt lat="44.87968228271083" lon="9.711150402433125"><ele>193.0</ele><time>2026-05-03T11:51:17Z</time></trkpt><trkpt lat="44.87962327801158" lon="9.710979791721956"><ele>192.99999999999997</ele><time>2026-05-03T11:51:21Z</time></trkpt><trkpt lat="44.87955607828173" lon="9.710901646578401"><ele>193.0</ele><time>2026-05-03T11:51:22Z</time></trkpt><trkpt lat="44.87949415499382" lon="9.710833816967309"><ele>193.0</ele><time>2026-05-03T11:51:23Z</time></trkpt><trkpt lat="44.87941403565277" lon="9.710773326743043"><ele>193.0</ele><time>2026-05-03T11:51:24Z</time></trkpt><trkpt lat="44.87932757310252" lon="9.710718196089775"><ele>192.99999999999997</ele><time>2026-05-03T11:51:25Z</time></trkpt><trkpt lat="44.8792509641508" lon="9.71067309238683"><ele>193.0</ele><time>2026-05-03T11:51:26Z</time></trkpt><trkpt lat="44.879167462765444" lon="9.710628257875948"><ele>193.16666666666666</ele><time>2026-05-03T11:51:27Z</time></trkpt><trkpt lat="44.879065324883996" lon="9.710642214932234"><ele>193.33333333333331</ele><time>2026-05-03T11:51:28Z</time></trkpt><trkpt lat="44.87897161788248" lon="9.710635220200773"><ele>193.5</ele><time>2026-05-03T11:51:29Z</time></trkpt><trkpt lat="44.87889113292119" lon="9.710599114975873"><ele>193.66666666666669</ele><time>2026-05-03T11:51:30Z</time></trkpt><trkpt lat="44.87882029764234" lon="9.71057788991238"><ele>193.83333333333334</ele><time>2026-05-03T11:51:31Z</time></trkpt><trkpt lat="44.87873775912751" lon="9.710549726597462"><ele>194.0</ele><time>2026-05-03T11:51:32Z</time></trkpt><trkpt lat="44.87865028669338" lon="9.710525050186952"><ele>194.00000000000003</ele><time>2026-05-03T11:51:33Z</time></trkpt><trkpt lat="44.87855909506529" lon="9.710498555632268"><ele>194.0</ele><time>2026-05-03T11:51:34Z</time></trkpt><trkpt lat="44.878489363617454" lon="9.710475804207853"><ele>194.0</ele><time>2026-05-03T11:51:35Z</time></trkpt><trkpt lat="44.878391815510426" lon="9.710477799882106"><ele>194.0</ele><time>2026-05-03T11:51:37Z</time></trkpt><trkpt lat="44.878328820070045" lon="9.710489799739763"><ele>194.00000000000003</ele><time>2026-05-03T11:51:38Z</time></trkpt><trkpt lat="44.87825927786095" lon="9.710484638171943"><ele>194.0</ele><time>2026-05-03T11:51:39Z</time></trkpt><trkpt lat="44.878141154235756" lon="9.710510944912784"><ele>194.6</ele><time>2026-05-03T11:51:41Z</time></trkpt><trkpt lat="44.878044133739614" lon="9.710474315860843"><ele>195.2</ele><time>2026-05-03T11:51:43Z</time></trkpt><trkpt lat="44.877954854692504" lon="9.710387428189705"><ele>195.79999999999998</ele><time>2026-05-03T11:51:45Z</time></trkpt><trkpt lat="44.87784800181051" lon="9.710306728054336"><ele>196.39999999999998</ele><time>2026-05-03T11:51:47Z</time></trkpt><trkpt lat="44.87775916305101" lon="9.710270737784418"><ele>197.0</ele><time>2026-05-03T11:51:49Z</time></trkpt><trkpt lat="44.87755585467042" lon="9.710439486144946"><ele>198.8</ele><time>2026-05-03T11:51:53Z</time></trkpt><trkpt lat="44.87748996624455" lon="9.710510559161987"><ele>200.6</ele><time>2026-05-03T11:51:54Z</time></trkpt><trkpt lat="44.87742203288971" lon="9.710577710735217"><ele>202.4</ele><time>2026-05-03T11:51:55Z</time></trkpt><trkpt lat="44.87734060018456" lon="9.710634692390034"><ele>204.20000000000002</ele><time>2026-05-03T11:51:56Z</time></trkpt><trkpt lat="44.877234104557765" lon="9.710653125766669"><ele>206.0</ele><time>2026-05-03T11:51:57Z</time></trkpt><trkpt lat="44.87712281427768" lon="9.710697075748591"><ele>206.0</ele><time>2026-05-03T11:51:58Z</time></trkpt><trkpt lat="44.87703282172199" lon="9.710739016264304"><ele>206.0</ele><time>2026-05-03T11:51:59Z</time></trkpt><trkpt lat="44.87693690317356" lon="9.710782861533223"><ele>206.0</ele><time>2026-05-03T11:52:00Z</time></trkpt><trkpt lat="44.87683788911724" lon="9.7108288156317"><ele>206.0</ele><time>2026-05-03T11:52:01Z</time></trkpt><trkpt lat="44.87673201673406" lon="9.710838739310509"><ele>206.0</ele><time>2026-05-03T11:52:02Z</time></trkpt><trkpt lat="44.876624695719826" lon="9.710842144122608"><ele>207.20000000000002</ele><time>2026-05-03T11:52:03Z</time></trkpt><trkpt lat="44.876511661337624" lon="9.710868960621509"><ele>208.4</ele><time>2026-05-03T11:52:04Z</time></trkpt><trkpt lat="44.876414331003616" lon="9.710942959338414"><ele>209.6</ele><time>2026-05-03T11:52:05Z</time></trkpt><trkpt lat="44.876343796630664" lon="9.71099651806808"><ele>210.8</ele><time>2026-05-03T11:52:06Z</time></trkpt><trkpt lat="44.87620964512593" lon="9.711039686387723"><ele>212.0</ele><time>2026-05-03T11:52:08Z</time></trkpt><trkpt lat="44.87611916690202" lon="9.711068350055056"><ele>211.39999999999998</ele><time>2026-05-03T11:52:09Z</time></trkpt><trkpt lat="44.87604427115846" lon="9.711095157672919"><ele>210.79999999999998</ele><time>2026-05-03T11:52:10Z</time></trkpt><trkpt lat="44.87592595795274" lon="9.711026397131347"><ele>210.2</ele><time>2026-05-03T11:52:12Z</time></trkpt><trkpt lat="44.87585816512321" lon="9.711013312783177"><ele>209.6</ele><time>2026-05-03T11:52:13Z</time></trkpt><trkpt lat="44.87579199327527" lon="9.71102838025861"><ele>209.0</ele><time>2026-05-03T11:52:14Z</time></trkpt><trkpt lat="44.87569592765008" lon="9.71115181557733"><ele>211.79999999999998</ele><time>2026-05-03T11:52:16Z</time></trkpt><trkpt lat="44.8756128648926" lon="9.711205527512274"><ele>214.6</ele><time>2026-05-03T11:52:18Z</time></trkpt><trkpt lat="44.87549868333849" lon="9.711233017066794"><ele>217.4</ele><time>2026-05-03T11:52:20Z</time></trkpt><trkpt lat="44.8753624332266" lon="9.711236830759416"><ele>220.2</ele><time>2026-05-03T11:52:22Z</time></trkpt><trkpt lat="44.8752779273722" lon="9.711234961455306"><ele>223.0</ele><time>2026-05-03T11:52:23Z</time></trkpt><trkpt lat="44.87520182711506" lon="9.711229754404476"><ele>222.99999999999997</ele><time>2026-05-03T11:52:24Z</time></trkpt><trkpt lat="44.87512833482676" lon="9.711233518865141"><ele>223.0</ele><time>2026-05-03T11:52:25Z</time></trkpt><trkpt lat="44.87503408933525" lon="9.711240176260842"><ele>223.0</ele><time>2026-05-03T11:52:26Z</time></trkpt><trkpt lat="44.87494155973564" lon="9.711250162268968"><ele>223.0</ele><time>2026-05-03T11:52:27Z</time></trkpt><trkpt lat="44.87483569783287" lon="9.711239069983927"><ele>222.99999999999997</ele><time>2026-05-03T11:52:28Z</time></trkpt><trkpt lat="44.874754279465634" lon="9.711229282745146"><ele>223.0</ele><time>2026-05-03T11:52:29Z</time></trkpt><trkpt lat="44.874684613093635" lon="9.711178524162701"><ele>224.8</ele><time>2026-05-03T11:52:31Z</time></trkpt><trkpt lat="44.87467473708617" lon="9.711079036854011"><ele>226.60000000000002</ele><time>2026-05-03T11:52:32Z</time></trkpt><trkpt lat="44.87468386176445" lon="9.710970876498966"><ele>228.39999999999998</ele><time>2026-05-03T11:52:33Z</time></trkpt><trkpt lat="44.87459976529715" lon="9.710806166932464"><ele>230.2</ele><time>2026-05-03T11:52:35Z</time></trkpt><trkpt lat="44.87452332704607" lon="9.710744288983948"><ele>232.0</ele><time>2026-05-03T11:52:36Z</time></trkpt><trkpt lat="44.87446667948267" lon="9.710672959692227"><ele>232.8</ele><time>2026-05-03T11:52:37Z</time></trkpt><trkpt lat="44.874378767669626" lon="9.71055199808393"><ele>233.6</ele><time>2026-05-03T11:52:39Z</time></trkpt><trkpt lat="44.87433504996014" lon="9.710443234779252"><ele>234.40000000000003</ele><time>2026-05-03T11:52:40Z</time></trkpt><trkpt lat="44.87430313856058" lon="9.710364398515319"><ele>235.20000000000002</ele><time>2026-05-03T11:52:41Z</time></trkpt><trkpt lat="44.87435650352488" lon="9.710224150198846"><ele>236.0</ele><time>2026-05-03T11:52:43Z</time></trkpt><trkpt lat="44.87438057462246" lon="9.710088550295392"><ele>236.0</ele><time>2026-05-03T11:52:44Z</time></trkpt><trkpt lat="44.87435679760115" lon="9.709952610829411"><ele>236.00000000000003</ele><time>2026-05-03T11:52:45Z</time></trkpt><trkpt lat="44.87429401664641" lon="9.709887536993639"><ele>236.00000000000003</ele><time>2026-05-03T11:52:47Z</time></trkpt><trkpt lat="44.87421458063829" lon="9.7099023357162"><ele>236.0</ele><time>2026-05-03T11:52:48Z</time></trkpt><trkpt lat="44.87413971854785" lon="9.709961759842628"><ele>236.0</ele><time>2026-05-03T11:52:49Z</time></trkpt><trkpt lat="44.874045505069375" lon="9.71005091244835"><ele>238.0</ele><time>2026-05-03T11:52:50Z</time></trkpt><trkpt lat="44.87395303022804" lon="9.710126001228197"><ele>240.00000000000003</ele><time>2026-05-03T11:52:51Z</time></trkpt><trkpt lat="44.87388470955823" lon="9.710198919717604"><ele>242.00000000000003</ele><time>2026-05-03T11:52:53Z</time></trkpt><trkpt lat="44.87382177212114" lon="9.710240390722323"><ele>244.0</ele><time>2026-05-03T11:52:54Z</time></trkpt><trkpt lat="44.8737564558955" lon="9.71028880688981"><ele>246.0</ele><time>2026-05-03T11:52:55Z</time></trkpt><trkpt lat="44.87363103931782" lon="9.710317613841456"><ele>246.20000000000002</ele><time>2026-05-03T11:52:57Z</time></trkpt><trkpt lat="44.87357018458559" lon="9.710345597232534"><ele>246.40000000000003</ele><time>2026-05-03T11:52:58Z</time></trkpt><trkpt lat="44.87345085966545" lon="9.710346713235602"><ele>246.6</ele><time>2026-05-03T11:53:00Z</time></trkpt><trkpt lat="44.87334163876367" lon="9.710284931584908"><ele>246.8</ele><time>2026-05-03T11:53:02Z</time></trkpt><trkpt lat="44.873261268507356" lon="9.710236042888528"><ele>247.0</ele><time>2026-05-03T11:53:04Z</time></trkpt><trkpt lat="44.87318977804619" lon="9.710215952171005"><ele>248.83333333333331</ele><time>2026-05-03T11:53:05Z</time></trkpt><trkpt lat="44.8731162951046" lon="9.710221587049691"><ele>250.66666666666666</ele><time>2026-05-03T11:53:06Z</time></trkpt><trkpt lat="44.873050704670696" lon="9.71028671624121"><ele>252.5</ele><time>2026-05-03T11:53:07Z</time></trkpt><trkpt lat="44.872985618188466" lon="9.710363031110308"><ele>254.33333333333331</ele><time>2026-05-03T11:53:08Z</time></trkpt><trkpt lat="44.8729166642735" lon="9.710380604193414"><ele>256.1666666666667</ele><time>2026-05-03T11:53:09Z</time></trkpt><trkpt lat="44.87284238812177" lon="9.710337695264377"><ele>258.0</ele><time>2026-05-03T11:53:10Z</time></trkpt><trkpt lat="44.87277150063237" lon="9.71027048598153"><ele>258.1666666666667</ele><time>2026-05-03T11:53:11Z</time></trkpt><trkpt lat="44.87269459719779" lon="9.710209014326782"><ele>258.3333333333333</ele><time>2026-05-03T11:53:12Z</time></trkpt><trkpt lat="44.872610822402606" lon="9.710139410350372"><ele>258.5</ele><time>2026-05-03T11:53:13Z</time></trkpt><trkpt lat="44.872547599828145" lon="9.710062331604647"><ele>258.66666666666663</ele><time>2026-05-03T11:53:14Z</time></trkpt><trkpt lat="44.87249823731338" lon="9.709963452789008"><ele>258.8333333333333</ele><time>2026-05-03T11:53:15Z</time></trkpt><trkpt lat="44.872405040534126" lon="9.70996209755328"><ele>259.0</ele><time>2026-05-03T11:53:17Z</time></trkpt><trkpt lat="44.87230533683303" lon="9.709925155500743"><ele>261.2</ele><time>2026-05-03T11:53:19Z</time></trkpt><trkpt lat="44.87223711047257" lon="9.709843684424829"><ele>263.4</ele><time>2026-05-03T11:53:20Z</time></trkpt><trkpt lat="44.872152038413006" lon="9.709730772499652"><ele>265.6</ele><time>2026-05-03T11:53:21Z</time></trkpt><trkpt lat="44.8720566211427" lon="9.709626227897127"><ele>267.8</ele><time>2026-05-03T11:53:22Z</time></trkpt><trkpt lat="44.87195957327708" lon="9.70953514166211"><ele>270.0</ele><time>2026-05-03T11:53:23Z</time></trkpt><trkpt lat="44.87185985046233" lon="9.709465432097078"><ele>269.2</ele><time>2026-05-03T11:53:24Z</time></trkpt><trkpt lat="44.87176209711185" lon="9.709418574691655"><ele>268.4</ele><time>2026-05-03T11:53:25Z</time></trkpt><trkpt lat="44.87169154182669" lon="9.709349447190636"><ele>267.6</ele><time>2026-05-03T11:53:26Z</time></trkpt><trkpt lat="44.87160125741899" lon="9.709240008638613"><ele>266.8</ele><time>2026-05-03T11:53:27Z</time></trkpt><trkpt lat="44.87151375787168" lon="9.709166770111635"><ele>266.0</ele><time>2026-05-03T11:53:28Z</time></trkpt><trkpt lat="44.871436876192305" lon="9.709100125346675"><ele>269.40000000000003</ele><time>2026-05-03T11:53:29Z</time></trkpt><trkpt lat="44.87138397660748" lon="9.70901424197541"><ele>272.8</ele><time>2026-05-03T11:53:30Z</time></trkpt><trkpt lat="44.871357802845125" lon="9.708908465682601"><ele>276.20000000000005</ele><time>2026-05-03T11:53:31Z</time></trkpt><trkpt lat="44.871252030729686" lon="9.708871794011229"><ele>279.6</ele><time>2026-05-03T11:53:33Z</time></trkpt><trkpt lat="44.871140138382934" lon="9.708834312259"><ele>283.0</ele><time>2026-05-03T11:53:35Z</time></trkpt><trkpt lat="44.87108232894146" lon="9.708752087160645"><ele>283.0</ele><time>2026-05-03T11:53:36Z</time></trkpt><trkpt lat="44.871027452269445" lon="9.708655190818313"><ele>283.0</ele><time>2026-05-03T11:53:37Z</time></trkpt><trkpt lat="44.87097853340231" lon="9.708576678510328"><ele>283.0</ele><time>2026-05-03T11:53:38Z</time></trkpt><trkpt lat="44.870890534857836" lon="9.708492799675799"><ele>283.0</ele><time>2026-05-03T11:53:40Z</time></trkpt><trkpt lat="44.87082160103777" lon="9.70842831022517"><ele>283.0</ele><time>2026-05-03T11:53:42Z</time></trkpt><trkpt lat="44.87072894644179" lon="9.708420121827935"><ele>283.0</ele><time>2026-05-03T11:53:46Z</time></trkpt><trkpt lat="44.87063767916096" lon="9.708365493090184"><ele>284.66666666666663</ele><time>2026-05-03T11:53:48Z</time></trkpt><trkpt lat="44.87056740938888" lon="9.708383672636817"><ele>286.3333333333333</ele><time>2026-05-03T11:53:50Z</time></trkpt><trkpt lat="44.870499441398145" lon="9.708374807773874"><ele>288.0</ele><time>2026-05-03T11:53:52Z</time></trkpt><trkpt lat="44.87042208482092" lon="9.708257328758467"><ele>289.6666666666667</ele><time>2026-05-03T11:53:54Z</time></trkpt><trkpt lat="44.870352106944424" lon="9.708227637042302"><ele>291.33333333333337</ele><time>2026-05-03T11:53:55Z</time></trkpt><trkpt lat="44.87026561848583" lon="9.7081924015354"><ele>293.0</ele><time>2026-05-03T11:53:56Z</time></trkpt><trkpt lat="44.87021078275149" lon="9.708134461177611"><ele>293.0</ele><time>2026-05-03T11:53:57Z</time></trkpt><trkpt lat="44.87015572139393" lon="9.708024812781318"><ele>293.0</ele><time>2026-05-03T11:53:58Z</time></trkpt><trkpt lat="44.87008342253994" lon="9.707913200127487"><ele>293.0</ele><time>2026-05-03T11:53:59Z</time></trkpt><trkpt lat="44.87000337543446" lon="9.707813666907034"><ele>293.0</ele><time>2026-05-03T11:54:00Z</time></trkpt><trkpt lat="44.86993377849876" lon="9.707718812944098"><ele>293.0</ele><time>2026-05-03T11:54:01Z</time></trkpt><trkpt lat="44.8698727157412" lon="9.707642543368035"><ele>293.6</ele><time>2026-05-03T11:54:02Z</time></trkpt><trkpt lat="44.86982428243449" lon="9.70754109376435"><ele>294.20000000000005</ele><time>2026-05-03T11:54:03Z</time></trkpt><trkpt lat="44.8697797464029" lon="9.707426715797457"><ele>294.8</ele><time>2026-05-03T11:54:04Z</time></trkpt><trkpt lat="44.869718331466544" lon="9.707322779633587"><ele>295.40000000000003</ele><time>2026-05-03T11:54:05Z</time></trkpt><trkpt lat="44.869635789249266" lon="9.707207888308716"><ele>296.0</ele><time>2026-05-03T11:54:06Z</time></trkpt><trkpt lat="44.869558313916556" lon="9.707099813468936"><ele>296.0</ele><time>2026-05-03T11:54:07Z</time></trkpt><trkpt lat="44.86947081122492" lon="9.707013769634488"><ele>296.0</ele><time>2026-05-03T11:54:08Z</time></trkpt><trkpt lat="44.86940086141201" lon="9.706949061661634"><ele>296.0</ele><time>2026-05-03T11:54:09Z</time></trkpt><trkpt lat="44.869353200385966" lon="9.706856307872034"><ele>296.0</ele><time>2026-05-03T11:54:10Z</time></trkpt><trkpt lat="44.86931287721542" lon="9.70674142951861"><ele>296.0</ele><time>2026-05-03T11:54:11Z</time></trkpt><trkpt lat="44.86925366398563" lon="9.7065683912177"><ele>295.2</ele><time>2026-05-03T11:54:12Z</time></trkpt><trkpt lat="44.8691942185395" lon="9.706430045373203"><ele>294.40000000000003</ele><time>2026-05-03T11:54:13Z</time></trkpt><trkpt lat="44.86914545288743" lon="9.706331799645385"><ele>293.6</ele><time>2026-05-03T11:54:14Z</time></trkpt><trkpt lat="44.86908456308092" lon="9.70624779417091"><ele>292.8</ele><time>2026-05-03T11:54:15Z</time></trkpt><trkpt lat="44.86900221619534" lon="9.70615897632354"><ele>292.0</ele><time>2026-05-03T11:54:16Z</time></trkpt><trkpt lat="44.868929923158724" lon="9.706050859745073"><ele>292.0</ele><time>2026-05-03T11:54:17Z</time></trkpt><trkpt lat="44.86888196262356" lon="9.705946434617386"><ele>292.0</ele><time>2026-05-03T11:54:18Z</time></trkpt><trkpt lat="44.86885726681278" lon="9.705806037943939"><ele>292.0</ele><time>2026-05-03T11:54:19Z</time></trkpt><trkpt lat="44.868807341153484" lon="9.705674508857365"><ele>292.0</ele><time>2026-05-03T11:54:20Z</time></trkpt><trkpt lat="44.86878076148389" lon="9.705575034800475"><ele>292.0</ele><time>2026-05-03T11:54:21Z</time></trkpt><trkpt lat="44.86876456545242" lon="9.70544164215069"><ele>292.0</ele><time>2026-05-03T11:54:22Z</time></trkpt><trkpt lat="44.86869122455956" lon="9.705308344605804"><ele>292.0</ele><time>2026-05-03T11:54:23Z</time></trkpt><trkpt lat="44.86861798428415" lon="9.70519531031743"><ele>292.0</ele><time>2026-05-03T11:54:24Z</time></trkpt><trkpt lat="44.868590813905115" lon="9.705071723346558"><ele>292.0</ele><time>2026-05-03T11:54:25Z</time></trkpt><trkpt lat="44.868543420078296" lon="9.704958090215554"><ele>292.0</ele><time>2026-05-03T11:54:26Z</time></trkpt><trkpt lat="44.868474897338466" lon="9.704886508912653"><ele>294.4</ele><time>2026-05-03T11:54:27Z</time></trkpt><trkpt lat="44.86839802408031" lon="9.704821454583117"><ele>296.79999999999995</ele><time>2026-05-03T11:54:28Z</time></trkpt><trkpt lat="44.86831314915776" lon="9.704753196362242"><ele>299.2</ele><time>2026-05-03T11:54:29Z</time></trkpt><trkpt lat="44.86823317287317" lon="9.704677125312758"><ele>301.59999999999997</ele><time>2026-05-03T11:54:30Z</time></trkpt><trkpt lat="44.868155511991795" lon="9.704581505681425"><ele>304.0</ele><time>2026-05-03T11:54:31Z</time></trkpt><trkpt lat="44.86808446372355" lon="9.704463776185571"><ele>304.2</ele><time>2026-05-03T11:54:32Z</time></trkpt><trkpt lat="44.86802076350267" lon="9.704355400544506"><ele>304.4</ele><time>2026-05-03T11:54:33Z</time></trkpt><trkpt lat="44.86795247922406" lon="9.704248917516166"><ele>304.6</ele><time>2026-05-03T11:54:34Z</time></trkpt><trkpt lat="44.86792075463005" lon="9.704147259156473"><ele>304.8</ele><time>2026-05-03T11:54:35Z</time></trkpt><trkpt lat="44.8678536812675" lon="9.704000281302259"><ele>305.0</ele><time>2026-05-03T11:54:36Z</time></trkpt><trkpt lat="44.86778017576108" lon="9.703869028322142"><ele>305.0</ele><time>2026-05-03T11:54:37Z</time></trkpt><trkpt lat="44.86772446083831" lon="9.703734149179601"><ele>305.0</ele><time>2026-05-03T11:54:38Z</time></trkpt><trkpt lat="44.86767453526827" lon="9.703626848637173"><ele>305.0</ele><time>2026-05-03T11:54:39Z</time></trkpt><trkpt lat="44.86763648068269" lon="9.703521246868243"><ele>305.0</ele><time>2026-05-03T11:54:40Z</time></trkpt><trkpt lat="44.86759572578069" lon="9.703436100803364"><ele>305.0</ele><time>2026-05-03T11:54:41Z</time></trkpt><trkpt lat="44.86750831984563" lon="9.703363707920557"><ele>305.1666666666667</ele><time>2026-05-03T11:54:42Z</time></trkpt><trkpt lat="44.86744757780741" lon="9.703299053196703"><ele>305.33333333333337</ele><time>2026-05-03T11:54:43Z</time></trkpt><trkpt lat="44.867420257018175" lon="9.703212789048674"><ele>305.5</ele><time>2026-05-03T11:54:44Z</time></trkpt><trkpt lat="44.86738323581422" lon="9.703111412749235"><ele>305.6666666666667</ele><time>2026-05-03T11:54:45Z</time></trkpt><trkpt lat="44.86734320558143" lon="9.702988387362629"><ele>305.8333333333333</ele><time>2026-05-03T11:54:46Z</time></trkpt><trkpt lat="44.867322158719176" lon="9.702892062781759"><ele>306.0</ele><time>2026-05-03T11:54:47Z</time></trkpt><trkpt lat="44.867297548379554" lon="9.702801270941887"><ele>305.5</ele><time>2026-05-03T11:54:48Z</time></trkpt><trkpt lat="44.86724736817658" lon="9.702700325761441"><ele>305.0</ele><time>2026-05-03T11:54:49Z</time></trkpt><trkpt lat="44.86721225480195" lon="9.702625642422117"><ele>304.5</ele><time>2026-05-03T11:54:50Z</time></trkpt><trkpt lat="44.86718141280402" lon="9.702524635070544"><ele>304.0</ele><time>2026-05-03T11:54:51Z</time></trkpt><trkpt lat="44.86712230513913" lon="9.702460842845575"><ele>303.5</ele><time>2026-05-03T11:54:52Z</time></trkpt><trkpt lat="44.867046183502" lon="9.702366577061193"><ele>303.0</ele><time>2026-05-03T11:54:53Z</time></trkpt><trkpt lat="44.86697273231778" lon="9.702274799173818"><ele>303.0</ele><time>2026-05-03T11:54:54Z</time></trkpt><trkpt lat="44.866892623270274" lon="9.702227489468054"><ele>303.0</ele><time>2026-05-03T11:54:55Z</time></trkpt><trkpt lat="44.86682648875553" lon="9.702216879659382"><ele>303.0</ele><time>2026-05-03T11:54:56Z</time></trkpt><trkpt lat="44.866756454834906" lon="9.70214257187619"><ele>303.0</ele><time>2026-05-03T11:54:58Z</time></trkpt><trkpt lat="44.86671388343758" lon="9.701952912254683"><ele>303.0</ele><time>2026-05-03T11:55:00Z</time></trkpt><trkpt lat="44.86665027689615" lon="9.701856790905444"><ele>301.6</ele><time>2026-05-03T11:55:01Z</time></trkpt><trkpt lat="44.86655972593049" lon="9.701788495630158"><ele>300.20000000000005</ele><time>2026-05-03T11:55:02Z</time></trkpt><trkpt lat="44.86646681878195" lon="9.701700397210951"><ele>298.8</ele><time>2026-05-03T11:55:03Z</time></trkpt><trkpt lat="44.86638766119062" lon="9.701626954696291"><ele>297.40000000000003</ele><time>2026-05-03T11:55:04Z</time></trkpt><trkpt lat="44.86631002267505" lon="9.701537109110332"><ele>296.0</ele><time>2026-05-03T11:55:05Z</time></trkpt><trkpt lat="44.86623741917738" lon="9.701428885626179"><ele>296.0</ele><time>2026-05-03T11:55:06Z</time></trkpt><trkpt lat="44.86613393965188" lon="9.70130318520482"><ele>296.0</ele><time>2026-05-03T11:55:07Z</time></trkpt><trkpt lat="44.866007726825906" lon="9.70114261696833"><ele>296.0</ele><time>2026-05-03T11:55:08Z</time></trkpt><trkpt lat="44.86590880566479" lon="9.70100866356067"><ele>296.0</ele><time>2026-05-03T11:55:09Z</time></trkpt><trkpt lat="44.865830840790416" lon="9.700914004685602"><ele>295.40000000000003</ele><time>2026-05-03T11:55:10Z</time></trkpt><trkpt lat="44.86578611504048" lon="9.70079933885222"><ele>294.8</ele><time>2026-05-03T11:55:11Z</time></trkpt><trkpt lat="44.86571529725618" lon="9.700657657268142"><ele>294.20000000000005</ele><time>2026-05-03T11:55:12Z</time></trkpt><trkpt lat="44.86563283910137" lon="9.700563816602719"><ele>293.6</ele><time>2026-05-03T11:55:13Z</time></trkpt><trkpt lat="44.8655198503196" lon="9.70051980297721"><ele>293.0</ele><time>2026-05-03T11:55:14Z</time></trkpt><trkpt lat="44.865440235563526" lon="9.700486979263387"><ele>293.0</ele><time>2026-05-03T11:55:15Z</time></trkpt><trkpt lat="44.86538148155588" lon="9.70041101403147"><ele>293.0</ele><time>2026-05-03T11:55:16Z</time></trkpt><trkpt lat="44.86531092749238" lon="9.700296511057438"><ele>293.0</ele><time>2026-05-03T11:55:17Z</time></trkpt><trkpt lat="44.865209869724126" lon="9.700188946698981"><ele>293.0</ele><time>2026-05-03T11:55:18Z</time></trkpt><trkpt lat="44.86510675330735" lon="9.70010487697939"><ele>293.0</ele><time>2026-05-03T11:55:19Z</time></trkpt><trkpt lat="44.86500599875459" lon="9.700015994910904"><ele>295.6</ele><time>2026-05-03T11:55:20Z</time></trkpt><trkpt lat="44.86489958269472" lon="9.699917979469214"><ele>298.20000000000005</ele><time>2026-05-03T11:55:21Z</time></trkpt><trkpt lat="44.86483494904848" lon="9.699814055757034"><ele>300.8</ele><time>2026-05-03T11:55:22Z</time></trkpt><trkpt lat="44.86477808877946" lon="9.699702384598151"><ele>303.40000000000003</ele><time>2026-05-03T11:55:23Z</time></trkpt><trkpt lat="44.864694085186" lon="9.699608763787742"><ele>306.0</ele><time>2026-05-03T11:55:24Z</time></trkpt><trkpt lat="44.864588825052216" lon="9.699526013616245"><ele>306.0</ele><time>2026-05-03T11:55:25Z</time></trkpt><trkpt lat="44.864517026722886" lon="9.699421719443823"><ele>306.0</ele><time>2026-05-03T11:55:26Z</time></trkpt><trkpt lat="44.864433040525256" lon="9.699331207265487"><ele>306.0</ele><time>2026-05-03T11:55:27Z</time></trkpt><trkpt lat="44.864343648489566" lon="9.699232857833097"><ele>306.0</ele><time>2026-05-03T11:55:28Z</time></trkpt><trkpt lat="44.86427874002446" lon="9.699173188794168"><ele>306.0</ele><time>2026-05-03T11:55:29Z</time></trkpt><trkpt lat="44.86420660264489" lon="9.699105095713712"><ele>306.6</ele><time>2026-05-03T11:55:30Z</time></trkpt><trkpt lat="44.8641199850491" lon="9.699015310476298"><ele>307.20000000000005</ele><time>2026-05-03T11:55:31Z</time></trkpt><trkpt lat="44.86401689651594" lon="9.698948272959068"><ele>307.79999999999995</ele><time>2026-05-03T11:55:32Z</time></trkpt><trkpt lat="44.8639321237687" lon="9.698882617729481"><ele>308.4</ele><time>2026-05-03T11:55:33Z</time></trkpt><trkpt lat="44.863864863593456" lon="9.69884344041692"><ele>309.0</ele><time>2026-05-03T11:55:34Z</time></trkpt><trkpt lat="44.863774051809315" lon="9.698836394450222"><ele>309.0</ele><time>2026-05-03T11:55:35Z</time></trkpt><trkpt lat="44.863660663476196" lon="9.698826473570193"><ele>309.0</ele><time>2026-05-03T11:55:36Z</time></trkpt><trkpt lat="44.86354865840895" lon="9.698820075210167"><ele>309.0</ele><time>2026-05-03T11:55:37Z</time></trkpt><trkpt lat="44.86345556666563" lon="9.698850247660314"><ele>309.0</ele><time>2026-05-03T11:55:38Z</time></trkpt><trkpt lat="44.86336836891939" lon="9.698899433070368"><ele>309.0</ele><time>2026-05-03T11:55:39Z</time></trkpt><trkpt lat="44.86326432134344" lon="9.69894998656942"><ele>309.4</ele><time>2026-05-03T11:55:40Z</time></trkpt><trkpt lat="44.86317061279465" lon="9.69895758320981"><ele>309.79999999999995</ele><time>2026-05-03T11:55:41Z</time></trkpt><trkpt lat="44.86308109253162" lon="9.698905779155874"><ele>310.20000000000005</ele><time>2026-05-03T11:55:42Z</time></trkpt><trkpt lat="44.863003860826396" lon="9.6988180193355"><ele>310.6</ele><time>2026-05-03T11:55:43Z</time></trkpt><trkpt lat="44.86292426039779" lon="9.69872523311116"><ele>311.0</ele><time>2026-05-03T11:55:44Z</time></trkpt><trkpt lat="44.86284004278428" lon="9.698647568440478"><ele>311.0</ele><time>2026-05-03T11:55:45Z</time></trkpt><trkpt lat="44.862762883539" lon="9.698601465654795"><ele>311.0</ele><time>2026-05-03T11:55:46Z</time></trkpt><trkpt lat="44.86269365286918" lon="9.698573415537942"><ele>311.0</ele><time>2026-05-03T11:55:47Z</time></trkpt><trkpt lat="44.862620590287186" lon="9.698536241034875"><ele>311.0</ele><time>2026-05-03T11:55:48Z</time></trkpt><trkpt lat="44.862546892517244" lon="9.698478317150945"><ele>311.0</ele><time>2026-05-03T11:55:49Z</time></trkpt><trkpt lat="44.86246688437712" lon="9.69838969007158"><ele>311.0</ele><time>2026-05-03T11:55:50Z</time></trkpt><trkpt lat="44.8623775390674" lon="9.698305808111295"><ele>314.6</ele><time>2026-05-03T11:55:51Z</time></trkpt><trkpt lat="44.86227989701202" lon="9.69825478559129"><ele>318.20000000000005</ele><time>2026-05-03T11:55:52Z</time></trkpt><trkpt lat="44.862180392413244" lon="9.698228221117171"><ele>321.79999999999995</ele><time>2026-05-03T11:55:53Z</time></trkpt><trkpt lat="44.86208716801193" lon="9.698203677125228"><ele>325.4</ele><time>2026-05-03T11:55:54Z</time></trkpt><trkpt lat="44.861999236390446" lon="9.69814582747535"><ele>329.0</ele><time>2026-05-03T11:55:55Z</time></trkpt><trkpt lat="44.86190170664828" lon="9.698072016667403"><ele>329.0</ele><time>2026-05-03T11:55:56Z</time></trkpt><trkpt lat="44.861804098422205" lon="9.69798477644409"><ele>329.0</ele><time>2026-05-03T11:55:57Z</time></trkpt><trkpt lat="44.8617020021553" lon="9.697899589436263"><ele>329.0</ele><time>2026-05-03T11:55:58Z</time></trkpt><trkpt lat="44.86160372519068" lon="9.697820602616291"><ele>329.0</ele><time>2026-05-03T11:55:59Z</time></trkpt><trkpt lat="44.86150366020069" lon="9.69774901306048"><ele>329.2</ele><time>2026-05-03T11:56:00Z</time></trkpt><trkpt lat="44.86141435683094" lon="9.697678124456917"><ele>329.4</ele><time>2026-05-03T11:56:01Z</time></trkpt><trkpt lat="44.86132730751572" lon="9.697615533329351"><ele>329.6</ele><time>2026-05-03T11:56:02Z</time></trkpt><trkpt lat="44.86124713701619" lon="9.697563282007291"><ele>329.8</ele><time>2026-05-03T11:56:03Z</time></trkpt><trkpt lat="44.86114848546518" lon="9.69751109719741"><ele>330.0</ele><time>2026-05-03T11:56:04Z</time></trkpt><trkpt lat="44.861054353706265" lon="9.697455568077608"><ele>330.0</ele><time>2026-05-03T11:56:05Z</time></trkpt><trkpt lat="44.860973959339546" lon="9.697391186884767"><ele>330.0</ele><time>2026-05-03T11:56:06Z</time></trkpt><trkpt lat="44.86091722526052" lon="9.697319745625125"><ele>330.0</ele><time>2026-05-03T11:56:07Z</time></trkpt><trkpt lat="44.86084213843615" lon="9.697222314841452"><ele>330.0</ele><time>2026-05-03T11:56:08Z</time></trkpt><trkpt lat="44.8608099264811" lon="9.697133313786086"><ele>330.0</ele><time>2026-05-03T11:56:09Z</time></trkpt><trkpt lat="44.860767687378996" lon="9.69706343816655"><ele>330.0</ele><time>2026-05-03T11:56:10Z</time></trkpt><trkpt lat="44.860661139658625" lon="9.69696266356388"><ele>330.4</ele><time>2026-05-03T11:56:12Z</time></trkpt><trkpt lat="44.86055305083621" lon="9.696892977206849"><ele>330.8</ele><time>2026-05-03T11:56:14Z</time></trkpt><trkpt lat="44.86047083847488" lon="9.696854790316678"><ele>331.20000000000005</ele><time>2026-05-03T11:56:15Z</time></trkpt><trkpt lat="44.860375914085935" lon="9.696814019253633"><ele>331.6</ele><time>2026-05-03T11:56:16Z</time></trkpt><trkpt lat="44.86029309268208" lon="9.696780303816519"><ele>332.0</ele><time>2026-05-03T11:56:17Z</time></trkpt><trkpt lat="44.860218948231484" lon="9.696750120642477"><ele>332.0</ele><time>2026-05-03T11:56:18Z</time></trkpt><trkpt lat="44.860134390417784" lon="9.696716137550952"><ele>332.0</ele><time>2026-05-03T11:56:19Z</time></trkpt><trkpt lat="44.860031657977856" lon="9.696678598277716"><ele>332.0</ele><time>2026-05-03T11:56:20Z</time></trkpt><trkpt lat="44.85992509909745" lon="9.69664376602898"><ele>332.0</ele><time>2026-05-03T11:56:21Z</time></trkpt><trkpt lat="44.859833251976035" lon="9.696615288567523"><ele>332.0</ele><time>2026-05-03T11:56:22Z</time></trkpt><trkpt lat="44.85974175177659" lon="9.696614074004195"><ele>332.6666666666667</ele><time>2026-05-03T11:56:23Z</time></trkpt><trkpt lat="44.859660125989976" lon="9.696573003993832"><ele>333.33333333333337</ele><time>2026-05-03T11:56:24Z</time></trkpt><trkpt lat="44.859594363718806" lon="9.696559006182389"><ele>334.0</ele><time>2026-05-03T11:56:25Z</time></trkpt><trkpt lat="44.85952029610006" lon="9.696546206671076"><ele>334.6666666666667</ele><time>2026-05-03T11:56:26Z</time></trkpt><trkpt lat="44.85942574884329" lon="9.696537301138871"><ele>335.3333333333333</ele><time>2026-05-03T11:56:27Z</time></trkpt><trkpt lat="44.85932620807272" lon="9.696539986013203"><ele>336.0</ele><time>2026-05-03T11:56:28Z</time></trkpt><trkpt lat="44.85925416465259" lon="9.696568727105474"><ele>336.4</ele><time>2026-05-03T11:56:29Z</time></trkpt><trkpt lat="44.85914079931789" lon="9.696565488971231"><ele>336.8</ele><time>2026-05-03T11:56:31Z</time></trkpt><trkpt lat="44.859080115377914" lon="9.696598903317065"><ele>337.2</ele><time>2026-05-03T11:56:32Z</time></trkpt><trkpt lat="44.85895619406637" lon="9.69659865274325"><ele>337.59999999999997</ele><time>2026-05-03T11:56:34Z</time></trkpt><trkpt lat="44.858862205160676" lon="9.696633577883702"><ele>338.0</ele><time>2026-05-03T11:56:36Z</time></trkpt><trkpt lat="44.858768528303514" lon="9.696609576876282"><ele>338.0</ele><time>2026-05-03T11:56:38Z</time></trkpt><trkpt lat="44.85868246897057" lon="9.696621116765096"><ele>338.0</ele><time>2026-05-03T11:56:40Z</time></trkpt><trkpt lat="44.858593871539966" lon="9.696639925094411"><ele>338.0</ele><time>2026-05-03T11:56:42Z</time></trkpt><trkpt lat="44.85849307091064" lon="9.69666088576701"><ele>338.0</ele><time>2026-05-03T11:56:44Z</time></trkpt><trkpt lat="44.85838358952502" lon="9.696623102359922"><ele>338.0</ele><time>2026-05-03T11:56:46Z</time></trkpt><trkpt lat="44.85828592319679" lon="9.696579850707739"><ele>339.1666666666667</ele><time>2026-05-03T11:56:48Z</time></trkpt><trkpt lat="44.858226782146374" lon="9.69654349461074"><ele>340.33333333333337</ele><time>2026-05-03T11:56:49Z</time></trkpt><trkpt lat="44.85816769576312" lon="9.696484729992969"><ele>341.5</ele><time>2026-05-03T11:56:50Z</time></trkpt><trkpt lat="44.858101497111775" lon="9.69643062382683"><ele>342.6666666666667</ele><time>2026-05-03T11:56:51Z</time></trkpt><trkpt lat="44.858024239517356" lon="9.696377511328826"><ele>343.8333333333333</ele><time>2026-05-03T11:56:52Z</time></trkpt><trkpt lat="44.85795184527026" lon="9.696350796086968"><ele>345.0</ele><time>2026-05-03T11:56:53Z</time></trkpt><trkpt lat="44.85783031860683" lon="9.696267296137536"><ele>345.0</ele><time>2026-05-03T11:56:55Z</time></trkpt><trkpt lat="44.85778409963399" lon="9.696196537880505"><ele>345.0</ele><time>2026-05-03T11:56:56Z</time></trkpt><trkpt lat="44.85769059010855" lon="9.696219432903263"><ele>345.0</ele><time>2026-05-03T11:56:57Z</time></trkpt><trkpt lat="44.857610785876254" lon="9.696224625741415"><ele>345.0</ele><time>2026-05-03T11:56:58Z</time></trkpt><trkpt lat="44.85751610149858" lon="9.696196928651393"><ele>345.0</ele><time>2026-05-03T11:56:59Z</time></trkpt><trkpt lat="44.857402181269066" lon="9.696181813691375"><ele>344.6</ele><time>2026-05-03T11:57:00Z</time></trkpt><trkpt lat="44.857299176773424" lon="9.69616331020332"><ele>344.2</ele><time>2026-05-03T11:57:01Z</time></trkpt><trkpt lat="44.85720825153804" lon="9.696141293488436"><ele>343.79999999999995</ele><time>2026-05-03T11:57:02Z</time></trkpt><trkpt lat="44.857106978229" lon="9.696115112464442"><ele>343.4</ele><time>2026-05-03T11:57:03Z</time></trkpt><trkpt lat="44.85701777191612" lon="9.69608732029998"><ele>343.0</ele><time>2026-05-03T11:57:04Z</time></trkpt><trkpt lat="44.85692697883701" lon="9.696055233365355"><ele>343.79999999999995</ele><time>2026-05-03T11:57:05Z</time></trkpt><trkpt lat="44.85683387857156" lon="9.696019079248584"><ele>344.6</ele><time>2026-05-03T11:57:06Z</time></trkpt><trkpt lat="44.85673923459911" lon="9.695978093388813"><ele>345.4</ele><time>2026-05-03T11:57:07Z</time></trkpt><trkpt lat="44.85664439561438" lon="9.695930174654793"><ele>346.20000000000005</ele><time>2026-05-03T11:57:08Z</time></trkpt><trkpt lat="44.85654736053244" lon="9.695875732240381"><ele>347.0</ele><time>2026-05-03T11:57:09Z</time></trkpt><trkpt lat="44.856464527746404" lon="9.69582091541958"><ele>348.1666666666667</ele><time>2026-05-03T11:57:10Z</time></trkpt><trkpt lat="44.856395984964905" lon="9.695747566058403"><ele>349.33333333333337</ele><time>2026-05-03T11:57:11Z</time></trkpt><trkpt lat="44.85633627968746" lon="9.695665900432209"><ele>350.5</ele><time>2026-05-03T11:57:12Z</time></trkpt><trkpt lat="44.85629603950983" lon="9.695578510187733"><ele>351.6666666666667</ele><time>2026-05-03T11:57:13Z</time></trkpt><trkpt lat="44.856246408929216" lon="9.6954818616865"><ele>352.8333333333333</ele><time>2026-05-03T11:57:14Z</time></trkpt><trkpt lat="44.8561981761757" lon="9.695382393090432"><ele>354.0</ele><time>2026-05-03T11:57:15Z</time></trkpt><trkpt lat="44.85614334828149" lon="9.695266080116044"><ele>353.4</ele><time>2026-05-03T11:57:16Z</time></trkpt><trkpt lat="44.856094837379864" lon="9.695163168153615"><ele>352.79999999999995</ele><time>2026-05-03T11:57:17Z</time></trkpt><trkpt lat="44.85604264854035" lon="9.695053715142091"><ele>352.20000000000005</ele><time>2026-05-03T11:57:18Z</time></trkpt><trkpt lat="44.85597915780813" lon="9.694935063291968"><ele>351.6</ele><time>2026-05-03T11:57:19Z</time></trkpt><trkpt lat="44.85591044049972" lon="9.69482761060561"><ele>351.0</ele><time>2026-05-03T11:57:20Z</time></trkpt><trkpt lat="44.855833290371926" lon="9.694708547383877"><ele>353.4</ele><time>2026-05-03T11:57:21Z</time></trkpt><trkpt lat="44.85575354423917" lon="9.694585477693849"><ele>355.8</ele><time>2026-05-03T11:57:22Z</time></trkpt><trkpt lat="44.85567320968961" lon="9.694461499920205"><ele>358.2</ele><time>2026-05-03T11:57:23Z</time></trkpt><trkpt lat="44.85560527939058" lon="9.694356665235404"><ele>360.59999999999997</ele><time>2026-05-03T11:57:24Z</time></trkpt><trkpt lat="44.85551596116581" lon="9.694297856047177"><ele>363.0</ele><time>2026-05-03T11:57:25Z</time></trkpt><trkpt lat="44.85545540543287" lon="9.694212399201586"><ele>363.2</ele><time>2026-05-03T11:57:26Z</time></trkpt><trkpt lat="44.85539913212584" lon="9.694107951437806"><ele>363.4</ele><time>2026-05-03T11:57:27Z</time></trkpt><trkpt lat="44.85535113166112" lon="9.69400996124775"><ele>363.59999999999997</ele><time>2026-05-03T11:57:28Z</time></trkpt><trkpt lat="44.8553047745417" lon="9.693904163397123"><ele>363.79999999999995</ele><time>2026-05-03T11:57:29Z</time></trkpt><trkpt lat="44.85524277310651" lon="9.69376911108782"><ele>364.0</ele><time>2026-05-03T11:57:31Z</time></trkpt><trkpt lat="44.85514914461741" lon="9.69362439359006"><ele>366.2</ele><time>2026-05-03T11:57:33Z</time></trkpt><trkpt lat="44.85509383009504" lon="9.693548883925866"><ele>368.4</ele><time>2026-05-03T11:57:34Z</time></trkpt><trkpt lat="44.855028934661675" lon="9.693464976062634"><ele>370.6</ele><time>2026-05-03T11:57:35Z</time></trkpt><trkpt lat="44.854957383199" lon="9.693375761022283"><ele>372.8</ele><time>2026-05-03T11:57:36Z</time></trkpt><trkpt lat="44.85487071631586" lon="9.693273992809608"><ele>375.0</ele><time>2026-05-03T11:57:37Z</time></trkpt><trkpt lat="44.85477175283421" lon="9.693163795037172"><ele>375.0</ele><time>2026-05-03T11:57:38Z</time></trkpt><trkpt lat="44.85467598881807" lon="9.693064592453046"><ele>375.0</ele><time>2026-05-03T11:57:39Z</time></trkpt><trkpt lat="44.85458557925915" lon="9.692981465108437"><ele>375.0</ele><time>2026-05-03T11:57:40Z</time></trkpt><trkpt lat="44.85449993545798" lon="9.692907278935321"><ele>375.0</ele><time>2026-05-03T11:57:41Z</time></trkpt><trkpt lat="44.85440691644961" lon="9.692831696888414"><ele>375.0</ele><time>2026-05-03T11:57:42Z</time></trkpt><trkpt lat="44.85431025310087" lon="9.692776733941642"><ele>375.6</ele><time>2026-05-03T11:57:43Z</time></trkpt><trkpt lat="44.85423561726838" lon="9.692720169614864"><ele>376.2</ele><time>2026-05-03T11:57:44Z</time></trkpt><trkpt lat="44.854160305192266" lon="9.692650599212397"><ele>376.79999999999995</ele><time>2026-05-03T11:57:45Z</time></trkpt><trkpt lat="44.854084994708494" lon="9.692584702393871"><ele>377.4</ele><time>2026-05-03T11:57:46Z</time></trkpt><trkpt lat="44.85400276576437" lon="9.692530773523071"><ele>378.0</ele><time>2026-05-03T11:57:47Z</time></trkpt><trkpt lat="44.85390991417258" lon="9.692453221978578"><ele>378.0</ele><time>2026-05-03T11:57:48Z</time></trkpt><trkpt lat="44.85380054752418" lon="9.692346002414666"><ele>378.0</ele><time>2026-05-03T11:57:49Z</time></trkpt><trkpt lat="44.853703221433285" lon="9.6922413378319"><ele>378.0</ele><time>2026-05-03T11:57:50Z</time></trkpt><trkpt lat="44.853603990679346" lon="9.692139738006873"><ele>378.0</ele><time>2026-05-03T11:57:51Z</time></trkpt><trkpt lat="44.853501601881604" lon="9.69204944979069"><ele>378.4</ele><time>2026-05-03T11:57:52Z</time></trkpt><trkpt lat="44.85340256705146" lon="9.691978700765135"><ele>378.79999999999995</ele><time>2026-05-03T11:57:53Z</time></trkpt><trkpt lat="44.853313026105624" lon="9.691922103725444"><ele>379.2</ele><time>2026-05-03T11:57:54Z</time></trkpt><trkpt lat="44.853224903685486" lon="9.691862691163385"><ele>379.6</ele><time>2026-05-03T11:57:55Z</time></trkpt><trkpt lat="44.853131899665726" lon="9.691793845647014"><ele>380.0</ele><time>2026-05-03T11:57:56Z</time></trkpt><trkpt lat="44.853036496524226" lon="9.691724050650043"><ele>380.0</ele><time>2026-05-03T11:57:57Z</time></trkpt><trkpt lat="44.85293937727636" lon="9.69165732538815"><ele>380.0</ele><time>2026-05-03T11:57:58Z</time></trkpt><trkpt lat="44.85283972457127" lon="9.691585446111416"><ele>380.0</ele><time>2026-05-03T11:57:59Z</time></trkpt><trkpt lat="44.852729442923646" lon="9.691517620581417"><ele>380.0</ele><time>2026-05-03T11:58:00Z</time></trkpt><trkpt lat="44.85261494374088" lon="9.691465755458767"><ele>381.75</ele><time>2026-05-03T11:58:01Z</time></trkpt><trkpt lat="44.85249213827033" lon="9.691435642315145"><ele>383.5</ele><time>2026-05-03T11:58:02Z</time></trkpt><trkpt lat="44.852376795308" lon="9.691452512202408"><ele>385.25</ele><time>2026-05-03T11:58:03Z</time></trkpt><trkpt lat="44.85226672359709" lon="9.69148804329164"><ele>387.0</ele><time>2026-05-03T11:58:04Z</time></trkpt><trkpt lat="44.85215307452867" lon="9.691547275856195"><ele>387.0</ele><time>2026-05-03T11:58:05Z</time></trkpt><trkpt lat="44.85203981277172" lon="9.691597019758785"><ele>387.0</ele><time>2026-05-03T11:58:06Z</time></trkpt><trkpt lat="44.851923228867086" lon="9.69163266411149"><ele>387.0</ele><time>2026-05-03T11:58:07Z</time></trkpt><trkpt lat="44.85181643724944" lon="9.691619399898222"><ele>387.0</ele><time>2026-05-03T11:58:08Z</time></trkpt><trkpt lat="44.85171733694404" lon="9.691559775868605"><ele>385.0</ele><time>2026-05-03T11:58:09Z</time></trkpt><trkpt lat="44.85161782581859" lon="9.691458366055084"><ele>383.0</ele><time>2026-05-03T11:58:10Z</time></trkpt><trkpt lat="44.85153154087765" lon="9.691337480165211"><ele>381.0</ele><time>2026-05-03T11:58:11Z</time></trkpt><trkpt lat="44.851457685392134" lon="9.691223892088514"><ele>379.0</ele><time>2026-05-03T11:58:12Z</time></trkpt><trkpt lat="44.851400129736085" lon="9.691115415381695"><ele>378.4</ele><time>2026-05-03T11:58:13Z</time></trkpt><trkpt lat="44.85134069665478" lon="9.691004223499126"><ele>377.79999999999995</ele><time>2026-05-03T11:58:14Z</time></trkpt><trkpt lat="44.85128354406624" lon="9.690889643937544"><ele>377.20000000000005</ele><time>2026-05-03T11:58:15Z</time></trkpt><trkpt lat="44.85123023137683" lon="9.690779684561496"><ele>376.6</ele><time>2026-05-03T11:58:16Z</time></trkpt><trkpt lat="44.85117231595776" lon="9.690670069339797"><ele>376.0</ele><time>2026-05-03T11:58:17Z</time></trkpt><trkpt lat="44.851096627869204" lon="9.690561467594698"><ele>376.0</ele><time>2026-05-03T11:58:18Z</time></trkpt><trkpt lat="44.851001039105974" lon="9.690454881389758"><ele>376.0</ele><time>2026-05-03T11:58:19Z</time></trkpt><trkpt lat="44.85089948452914" lon="9.690366086223392"><ele>376.0</ele><time>2026-05-03T11:58:20Z</time></trkpt><trkpt lat="44.85079128683376" lon="9.690293213130554"><ele>376.0</ele><time>2026-05-03T11:58:21Z</time></trkpt><trkpt lat="44.85068601877883" lon="9.690208293000463"><ele>377.0</ele><time>2026-05-03T11:58:22Z</time></trkpt><trkpt lat="44.85059298277435" lon="9.690097551987424"><ele>378.0</ele><time>2026-05-03T11:58:23Z</time></trkpt><trkpt lat="44.85051398805149" lon="9.68998370645023"><ele>379.0</ele><time>2026-05-03T11:58:24Z</time></trkpt><trkpt lat="44.8504518895058" lon="9.689874799349964"><ele>380.0</ele><time>2026-05-03T11:58:25Z</time></trkpt><trkpt lat="44.85039068622063" lon="9.68975418245379"><ele>381.0</ele><time>2026-05-03T11:58:26Z</time></trkpt><trkpt lat="44.85032647326674" lon="9.689629331169524"><ele>381.0</ele><time>2026-05-03T11:58:27Z</time></trkpt><trkpt lat="44.850256072825914" lon="9.689504961027612"><ele>381.0</ele><time>2026-05-03T11:58:28Z</time></trkpt><trkpt lat="44.8501771775473" lon="9.689374638377428"><ele>381.0</ele><time>2026-05-03T11:58:29Z</time></trkpt><trkpt lat="44.85009756112901" lon="9.689243966693521"><ele>381.0</ele><time>2026-05-03T11:58:30Z</time></trkpt><trkpt lat="44.85001468668762" lon="9.689123392064266"><ele>381.25</ele><time>2026-05-03T11:58:31Z</time></trkpt><trkpt lat="44.84993058928544" lon="9.689013607745787"><ele>381.5</ele><time>2026-05-03T11:58:32Z</time></trkpt><trkpt lat="44.8498412850483" lon="9.688915056711915"><ele>381.75</ele><time>2026-05-03T11:58:33Z</time></trkpt><trkpt lat="44.84973758991835" lon="9.688830905522371"><ele>382.0</ele><time>2026-05-03T11:58:34Z</time></trkpt><trkpt lat="44.84963310632006" lon="9.68875671568597"><ele>382.0</ele><time>2026-05-03T11:58:35Z</time></trkpt><trkpt lat="44.84953671431958" lon="9.688688732412402"><ele>382.0</ele><time>2026-05-03T11:58:36Z</time></trkpt><trkpt lat="44.84944845113104" lon="9.688618729990628"><ele>382.0</ele><time>2026-05-03T11:58:37Z</time></trkpt><trkpt lat="44.849368344359995" lon="9.688537135480477"><ele>382.0</ele><time>2026-05-03T11:58:38Z</time></trkpt><trkpt lat="44.849293542542966" lon="9.68845419366373"><ele>382.0</ele><time>2026-05-03T11:58:39Z</time></trkpt><trkpt lat="44.84922972037906" lon="9.688379145972059"><ele>381.5</ele><time>2026-05-03T11:58:40Z</time></trkpt><trkpt lat="44.84916998249117" lon="9.688311899026392"><ele>381.0</ele><time>2026-05-03T11:58:41Z</time></trkpt><trkpt lat="44.849125325150354" lon="9.688246772169574"><ele>380.5</ele><time>2026-05-03T11:58:42Z</time></trkpt><trkpt lat="44.8490743020525" lon="9.68818719009359"><ele>380.0</ele><time>2026-05-03T11:58:43Z</time></trkpt><trkpt lat="44.84901025831368" lon="9.688114325497402"><ele>379.5</ele><time>2026-05-03T11:58:44Z</time></trkpt><trkpt lat="44.84894109697497" lon="9.688031822012455"><ele>379.0</ele><time>2026-05-03T11:58:45Z</time></trkpt><trkpt lat="44.84887171820264" lon="9.687934632518806"><ele>379.0</ele><time>2026-05-03T11:58:46Z</time></trkpt><trkpt lat="44.84881406931963" lon="9.687824345198479"><ele>379.0</ele><time>2026-05-03T11:58:47Z</time></trkpt><trkpt lat="44.84874486978866" lon="9.68770760628478"><ele>379.0</ele><time>2026-05-03T11:58:48Z</time></trkpt><trkpt lat="44.848675083048605" lon="9.687598177212449"><ele>379.0</ele><time>2026-05-03T11:58:49Z</time></trkpt><trkpt lat="44.84860296426623" lon="9.687482435343282"><ele>379.0</ele><time>2026-05-03T11:58:50Z</time></trkpt><trkpt lat="44.84854004490585" lon="9.687362657235369"><ele>379.4</ele><time>2026-05-03T11:58:51Z</time></trkpt><trkpt lat="44.8484934285234" lon="9.687238075611237"><ele>379.79999999999995</ele><time>2026-05-03T11:58:52Z</time></trkpt><trkpt lat="44.848454127048946" lon="9.68711680205082"><ele>380.20000000000005</ele><time>2026-05-03T11:58:53Z</time></trkpt><trkpt lat="44.8484124951626" lon="9.686991025245518"><ele>380.6</ele><time>2026-05-03T11:58:54Z</time></trkpt><trkpt lat="44.8483668572257" lon="9.68686112184214"><ele>381.0</ele><time>2026-05-03T11:58:55Z</time></trkpt><trkpt lat="44.84831175891656" lon="9.686725538033944"><ele>382.8333333333333</ele><time>2026-05-03T11:58:56Z</time></trkpt><trkpt lat="44.8482472189833" lon="9.68660806332354"><ele>384.66666666666663</ele><time>2026-05-03T11:58:57Z</time></trkpt><trkpt lat="44.84818832284785" lon="9.686512834351834"><ele>386.5</ele><time>2026-05-03T11:58:58Z</time></trkpt><trkpt lat="44.84814220348558" lon="9.686437351533595"><ele>388.3333333333333</ele><time>2026-05-03T11:58:59Z</time></trkpt><trkpt lat="44.848097846045306" lon="9.686345821069088"><ele>390.16666666666663</ele><time>2026-05-03T11:59:00Z</time></trkpt><trkpt lat="44.84803689108748" lon="9.686238505195021"><ele>392.0</ele><time>2026-05-03T11:59:01Z</time></trkpt><trkpt lat="44.847958961213074" lon="9.68612871180732"><ele>391.75</ele><time>2026-05-03T11:59:02Z</time></trkpt><trkpt lat="44.84786984122932" lon="9.686012702684422"><ele>391.5</ele><time>2026-05-03T11:59:03Z</time></trkpt><trkpt lat="44.84778254739143" lon="9.685890248486459"><ele>391.25</ele><time>2026-05-03T11:59:04Z</time></trkpt><trkpt lat="44.84769823452034" lon="9.685770671575716"><ele>391.0</ele><time>2026-05-03T11:59:05Z</time></trkpt><trkpt lat="44.84761117594235" lon="9.685651970902752"><ele>391.0</ele><time>2026-05-03T11:59:06Z</time></trkpt><trkpt lat="44.847509340307674" lon="9.685540955498578"><ele>391.0</ele><time>2026-05-03T11:59:07Z</time></trkpt><trkpt lat="44.84740878266226" lon="9.685429100952327"><ele>391.0</ele><time>2026-05-03T11:59:08Z</time></trkpt><trkpt lat="44.847318398098324" lon="9.6853213707829"><ele>391.0</ele><time>2026-05-03T11:59:09Z</time></trkpt><trkpt lat="44.84723500490877" lon="9.685213595565507"><ele>391.20000000000005</ele><time>2026-05-03T11:59:10Z</time></trkpt><trkpt lat="44.84715086752501" lon="9.685110036248588"><ele>391.40000000000003</ele><time>2026-05-03T11:59:11Z</time></trkpt><trkpt lat="44.847074336206894" lon="9.685003385695415"><ele>391.6</ele><time>2026-05-03T11:59:12Z</time></trkpt><trkpt lat="44.846994313515786" lon="9.684893364979013"><ele>391.8</ele><time>2026-05-03T11:59:13Z</time></trkpt><trkpt lat="44.84692117203139" lon="9.684772208981572"><ele>392.0</ele><time>2026-05-03T11:59:14Z</time></trkpt><trkpt lat="44.84685628446674" lon="9.684647605260375"><ele>392.8</ele><time>2026-05-03T11:59:15Z</time></trkpt><trkpt lat="44.84678099320575" lon="9.68453428248893"><ele>393.6</ele><time>2026-05-03T11:59:16Z</time></trkpt><trkpt lat="44.846702576487196" lon="9.68444140401579"><ele>394.40000000000003</ele><time>2026-05-03T11:59:17Z</time></trkpt><trkpt lat="44.846609186831174" lon="9.684366314615362"><ele>395.20000000000005</ele><time>2026-05-03T11:59:18Z</time></trkpt><trkpt lat="44.846524452844776" lon="9.684304253788985"><ele>396.0</ele><time>2026-05-03T11:59:19Z</time></trkpt><trkpt lat="44.84644239920844" lon="9.684272130470543"><ele>396.0</ele><time>2026-05-03T11:59:20Z</time></trkpt><trkpt lat="44.84635009052375" lon="9.684245598085315"><ele>396.0</ele><time>2026-05-03T11:59:21Z</time></trkpt><trkpt lat="44.84625308611798" lon="9.684243172137386"><ele>396.0</ele><time>2026-05-03T11:59:22Z</time></trkpt><trkpt lat="44.84614279215325" lon="9.684245290783087"><ele>396.0</ele><time>2026-05-03T11:59:23Z</time></trkpt><trkpt lat="44.84603812674355" lon="9.684242924983659"><ele>396.0</ele><time>2026-05-03T11:59:24Z</time></trkpt><trkpt lat="44.845923938809705" lon="9.684220446253423"><ele>398.0</ele><time>2026-05-03T11:59:25Z</time></trkpt><trkpt lat="44.84580646795614" lon="9.684185622754697"><ele>400.0</ele><time>2026-05-03T11:59:26Z</time></trkpt><trkpt lat="44.84568511577772" lon="9.68414393551914"><ele>402.0</ele><time>2026-05-03T11:59:27Z</time></trkpt><trkpt lat="44.84556460027752" lon="9.684083251519255"><ele>404.0</ele><time>2026-05-03T11:59:28Z</time></trkpt><trkpt lat="44.845464311544326" lon="9.684018525526222"><ele>404.0</ele><time>2026-05-03T11:59:29Z</time></trkpt><trkpt lat="44.84537313188578" lon="9.683967696858945"><ele>404.0</ele><time>2026-05-03T11:59:30Z</time></trkpt><trkpt lat="44.84531160652425" lon="9.683915521843781"><ele>404.0</ele><time>2026-05-03T11:59:31Z</time></trkpt><trkpt lat="44.84523819042329" lon="9.683837658941655"><ele>404.0</ele><time>2026-05-03T11:59:32Z</time></trkpt><trkpt lat="44.84516152990285" lon="9.683740878106748"><ele>404.0</ele><time>2026-05-03T11:59:33Z</time></trkpt><trkpt lat="44.84507039357425" lon="9.683654407382019"><ele>405.0</ele><time>2026-05-03T11:59:34Z</time></trkpt><trkpt lat="44.844962093523954" lon="9.683584367303157"><ele>406.0</ele><time>2026-05-03T11:59:35Z</time></trkpt><trkpt lat="44.844841102010456" lon="9.683543868852256"><ele>407.0</ele><time>2026-05-03T11:59:36Z</time></trkpt><trkpt lat="44.84471642470003" lon="9.683525211722685"><ele>408.0</ele><time>2026-05-03T11:59:37Z</time></trkpt><trkpt lat="44.84460679020908" lon="9.683533464276781"><ele>408.0</ele><time>2026-05-03T11:59:38Z</time></trkpt><trkpt lat="44.844519645645015" lon="9.683532513339118"><ele>408.0</ele><time>2026-05-03T11:59:39Z</time></trkpt><trkpt lat="44.8444364705954" lon="9.683515273325925"><ele>408.0</ele><time>2026-05-03T11:59:40Z</time></trkpt><trkpt lat="44.844341948215465" lon="9.683497479529464"><ele>408.0</ele><time>2026-05-03T11:59:41Z</time></trkpt><trkpt lat="44.84424729307457" lon="9.68347227275621"><ele>408.0</ele><time>2026-05-03T11:59:42Z</time></trkpt><trkpt lat="44.84414550038531" lon="9.683432961950151"><ele>407.79999999999995</ele><time>2026-05-03T11:59:43Z</time></trkpt><trkpt lat="44.844032229363265" lon="9.683389624202961"><ele>407.6</ele><time>2026-05-03T11:59:44Z</time></trkpt><trkpt lat="44.843922988628094" lon="9.683335793352814"><ele>407.4</ele><time>2026-05-03T11:59:45Z</time></trkpt><trkpt lat="44.84382085137552" lon="9.683287404849615"><ele>407.20000000000005</ele><time>2026-05-03T11:59:46Z</time></trkpt><trkpt lat="44.843727694543595" lon="9.683223017979083"><ele>407.0</ele><time>2026-05-03T11:59:47Z</time></trkpt><trkpt lat="44.843640563451046" lon="9.683148701651445"><ele>407.0</ele><time>2026-05-03T11:59:48Z</time></trkpt><trkpt lat="44.843548947498356" lon="9.683049062442066"><ele>407.0</ele><time>2026-05-03T11:59:49Z</time></trkpt><trkpt lat="44.84344655803869" lon="9.68297033041029"><ele>407.0</ele><time>2026-05-03T11:59:50Z</time></trkpt><trkpt lat="44.84333775113508" lon="9.682926647981901"><ele>407.0</ele><time>2026-05-03T11:59:51Z</time></trkpt><trkpt lat="44.843225811022975" lon="9.68289465768169"><ele>407.40000000000003</ele><time>2026-05-03T11:59:52Z</time></trkpt><trkpt lat="44.84312606605452" lon="9.682841685121005"><ele>407.8</ele><time>2026-05-03T11:59:53Z</time></trkpt><trkpt lat="44.84304171615251" lon="9.682788991349511"><ele>408.2</ele><time>2026-05-03T11:59:54Z</time></trkpt><trkpt lat="44.84296330691388" lon="9.682756962954361"><ele>408.6</ele><time>2026-05-03T11:59:55Z</time></trkpt><trkpt lat="44.84289478126388" lon="9.682772094764067"><ele>409.0</ele><time>2026-05-03T11:59:56Z</time></trkpt><trkpt lat="44.84280278886227" lon="9.682901865122185"><ele>407.50000000000006</ele><time>2026-05-03T11:59:58Z</time></trkpt><trkpt lat="44.84276176209868" lon="9.68299655885494"><ele>406.0</ele><time>2026-05-03T11:59:59Z</time></trkpt><trkpt lat="44.84269977982726" lon="9.683078815480219"><ele>404.5</ele><time>2026-05-03T12:00:00Z</time></trkpt><trkpt lat="44.842627896165894" lon="9.683098648657197"><ele>403.0</ele><time>2026-05-03T12:00:01Z</time></trkpt><trkpt lat="44.842557986619894" lon="9.683060465131058"><ele>401.50000000000006</ele><time>2026-05-03T12:00:02Z</time></trkpt><trkpt lat="44.842504260757146" lon="9.682972624311619"><ele>400.0</ele><time>2026-05-03T12:00:03Z</time></trkpt><trkpt lat="44.84243973514079" lon="9.682858441917727"><ele>400.4</ele><time>2026-05-03T12:00:04Z</time></trkpt><trkpt lat="44.84238185019212" lon="9.682747750219686"><ele>400.8</ele><time>2026-05-03T12:00:05Z</time></trkpt><trkpt lat="44.842309857930296" lon="9.68264495832667"><ele>401.20000000000005</ele><time>2026-05-03T12:00:06Z</time></trkpt><trkpt lat="44.84224153182032" lon="9.682555933553187"><ele>401.6</ele><time>2026-05-03T12:00:07Z</time></trkpt><trkpt lat="44.84216218098948" lon="9.682449753116957"><ele>402.0</ele><time>2026-05-03T12:00:08Z</time></trkpt><trkpt lat="44.84208528198576" lon="9.68233565094908"><ele>402.0</ele><time>2026-05-03T12:00:09Z</time></trkpt><trkpt lat="44.84199667621381" lon="9.682233676711922"><ele>402.0</ele><time>2026-05-03T12:00:10Z</time></trkpt><trkpt lat="44.84188834900813" lon="9.682159166925043"><ele>402.0</ele><time>2026-05-03T12:00:11Z</time></trkpt><trkpt lat="44.84179172007188" lon="9.682097534601084"><ele>402.0</ele><time>2026-05-03T12:00:12Z</time></trkpt><trkpt lat="44.841694056710615" lon="9.681991151263041"><ele>403.5</ele><time>2026-05-03T12:00:13Z</time></trkpt><trkpt lat="44.841595189199396" lon="9.681887376723914"><ele>405.0</ele><time>2026-05-03T12:00:14Z</time></trkpt><trkpt lat="44.84150573082545" lon="9.681791165640412"><ele>406.5</ele><time>2026-05-03T12:00:15Z</time></trkpt><trkpt lat="44.84140068975462" lon="9.681713523813736"><ele>408.0</ele><time>2026-05-03T12:00:16Z</time></trkpt><trkpt lat="44.84129385377951" lon="9.681676957489755"><ele>408.0</ele><time>2026-05-03T12:00:17Z</time></trkpt><trkpt lat="44.84119638073449" lon="9.681648315051177"><ele>408.0</ele><time>2026-05-03T12:00:18Z</time></trkpt><trkpt lat="44.841119203361714" lon="9.681592291870887"><ele>408.0</ele><time>2026-05-03T12:00:19Z</time></trkpt><trkpt lat="44.84105489051379" lon="9.681498252276029"><ele>408.0</ele><time>2026-05-03T12:00:20Z</time></trkpt><trkpt lat="44.840989449598936" lon="9.681386050874483"><ele>408.0</ele><time>2026-05-03T12:00:21Z</time></trkpt><trkpt lat="44.84091382178846" lon="9.681265969875472"><ele>406.75</ele><time>2026-05-03T12:00:22Z</time></trkpt><trkpt lat="44.84085287075703" lon="9.681128596691634"><ele>405.5</ele><time>2026-05-03T12:00:23Z</time></trkpt><trkpt lat="44.840815187074455" lon="9.680982485637493"><ele>404.25</ele><time>2026-05-03T12:00:24Z</time></trkpt><trkpt lat="44.840763240780774" lon="9.680828756354936"><ele>403.0</ele><time>2026-05-03T12:00:25Z</time></trkpt><trkpt lat="44.84070360667239" lon="9.68069276188362"><ele>403.0</ele><time>2026-05-03T12:00:26Z</time></trkpt><trkpt lat="44.84063116044892" lon="9.68056441698685"><ele>403.0</ele><time>2026-05-03T12:00:27Z</time></trkpt><trkpt lat="44.84055196612359" lon="9.680431267859559"><ele>403.0</ele><time>2026-05-03T12:00:28Z</time></trkpt><trkpt lat="44.84049876333742" lon="9.680312315161647"><ele>403.0</ele><time>2026-05-03T12:00:29Z</time></trkpt><trkpt lat="44.84045603504186" lon="9.6801842773161"><ele>403.0</ele><time>2026-05-03T12:00:30Z</time></trkpt><trkpt lat="44.84041199427477" lon="9.680048455545185"><ele>402.79999999999995</ele><time>2026-05-03T12:00:31Z</time></trkpt><trkpt lat="44.84035097416973" lon="9.679925504231829"><ele>402.6</ele><time>2026-05-03T12:00:32Z</time></trkpt><trkpt lat="44.84027168424398" lon="9.67982801525804"><ele>402.4</ele><time>2026-05-03T12:00:33Z</time></trkpt><trkpt lat="44.84018362195245" lon="9.679753140633753"><ele>402.20000000000005</ele><time>2026-05-03T12:00:34Z</time></trkpt><trkpt lat="44.840105539552326" lon="9.67967551046485"><ele>402.0</ele><time>2026-05-03T12:00:35Z</time></trkpt><trkpt lat="44.84004073556396" lon="9.679610558090184"><ele>402.0</ele><time>2026-05-03T12:00:36Z</time></trkpt><trkpt lat="44.83998574596524" lon="9.67953526522866"><ele>402.0</ele><time>2026-05-03T12:00:37Z</time></trkpt><trkpt lat="44.83992484440568" lon="9.679477690293906"><ele>402.0</ele><time>2026-05-03T12:00:38Z</time></trkpt><trkpt lat="44.83985578252835" lon="9.67943173161696"><ele>402.0</ele><time>2026-05-03T12:00:39Z</time></trkpt><trkpt lat="44.83978167770748" lon="9.679394869816145"><ele>402.0</ele><time>2026-05-03T12:00:40Z</time></trkpt><trkpt lat="44.839703885201466" lon="9.679366895202797"><ele>402.0</ele><time>2026-05-03T12:00:41Z</time></trkpt><trkpt lat="44.839621862439365" lon="9.679322313722793"><ele>402.40000000000003</ele><time>2026-05-03T12:00:42Z</time></trkpt><trkpt lat="44.83953276305882" lon="9.679257187571142"><ele>402.8</ele><time>2026-05-03T12:00:43Z</time></trkpt><trkpt lat="44.83944330861202" lon="9.679195723796937"><ele>403.2</ele><time>2026-05-03T12:00:44Z</time></trkpt><trkpt lat="44.83935623748553" lon="9.679142121228574"><ele>403.6</ele><time>2026-05-03T12:00:45Z</time></trkpt><trkpt lat="44.8392712284236" lon="9.679073005831068"><ele>404.0</ele><time>2026-05-03T12:00:46Z</time></trkpt><trkpt lat="44.839188220066156" lon="9.678993966974565"><ele>404.8333333333333</ele><time>2026-05-03T12:00:47Z</time></trkpt><trkpt lat="44.83910467416983" lon="9.678910597125425"><ele>405.66666666666663</ele><time>2026-05-03T12:00:48Z</time></trkpt><trkpt lat="44.83904006044658" lon="9.678836697350532"><ele>406.5</ele><time>2026-05-03T12:00:49Z</time></trkpt><trkpt lat="44.83898192891578" lon="9.678767347113943"><ele>407.33333333333337</ele><time>2026-05-03T12:00:50Z</time></trkpt><trkpt lat="44.83890726782005" lon="9.678714528100711"><ele>408.1666666666667</ele><time>2026-05-03T12:00:51Z</time></trkpt><trkpt lat="44.83882217725438" lon="9.678685015199132"><ele>409.0</ele><time>2026-05-03T12:00:52Z</time></trkpt><trkpt lat="44.83872690519025" lon="9.678676313867582"><ele>409.0</ele><time>2026-05-03T12:00:53Z</time></trkpt><trkpt lat="44.838640713585605" lon="9.678700273470264"><ele>409.0</ele><time>2026-05-03T12:00:54Z</time></trkpt><trkpt lat="44.83854739343689" lon="9.678744851613557"><ele>409.0</ele><time>2026-05-03T12:00:55Z</time></trkpt><trkpt lat="44.838453304938355" lon="9.678787397972755"><ele>409.0</ele><time>2026-05-03T12:00:56Z</time></trkpt><trkpt lat="44.838355127062016" lon="9.678826107640594"><ele>409.0</ele><time>2026-05-03T12:00:57Z</time></trkpt><trkpt lat="44.83827024082792" lon="9.678844730685306"><ele>408.33333333333337</ele><time>2026-05-03T12:00:58Z</time></trkpt><trkpt lat="44.83818219646187" lon="9.678833128851105"><ele>407.6666666666667</ele><time>2026-05-03T12:00:59Z</time></trkpt><trkpt lat="44.83810620703408" lon="9.678795482485347"><ele>407.0</ele><time>2026-05-03T12:01:00Z</time></trkpt><trkpt lat="44.83803491827264" lon="9.678734952698067"><ele>406.33333333333337</ele><time>2026-05-03T12:01:01Z</time></trkpt><trkpt lat="44.83796230950942" lon="9.678660728799095"><ele>405.6666666666667</ele><time>2026-05-03T12:01:02Z</time></trkpt><trkpt lat="44.83788734835997" lon="9.678565566728969"><ele>405.0</ele><time>2026-05-03T12:01:03Z</time></trkpt><trkpt lat="44.83780470170638" lon="9.678462798580313"><ele>403.2</ele><time>2026-05-03T12:01:04Z</time></trkpt><trkpt lat="44.837711459849324" lon="9.678352571884394"><ele>401.4</ele><time>2026-05-03T12:01:05Z</time></trkpt><trkpt lat="44.83763384524279" lon="9.678237975852456"><ele>399.6</ele><time>2026-05-03T12:01:06Z</time></trkpt><trkpt lat="44.83757223613649" lon="9.67812933914217"><ele>397.8</ele><time>2026-05-03T12:01:07Z</time></trkpt><trkpt lat="44.837506141966564" lon="9.678023480364207"><ele>396.0</ele><time>2026-05-03T12:01:08Z</time></trkpt><trkpt lat="44.837433697846286" lon="9.677917430794022"><ele>395.3333333333333</ele><time>2026-05-03T12:01:09Z</time></trkpt><trkpt lat="44.83736361202785" lon="9.677818107422405"><ele>394.66666666666663</ele><time>2026-05-03T12:01:10Z</time></trkpt><trkpt lat="44.83729691555759" lon="9.677720745063555"><ele>394.0</ele><time>2026-05-03T12:01:11Z</time></trkpt><trkpt lat="44.83723759461088" lon="9.67762261175442"><ele>393.3333333333333</ele><time>2026-05-03T12:01:12Z</time></trkpt><trkpt lat="44.837190561620744" lon="9.677524672658546"><ele>392.66666666666663</ele><time>2026-05-03T12:01:13Z</time></trkpt><trkpt lat="44.83714951990747" lon="9.677430002711144"><ele>392.0</ele><time>2026-05-03T12:01:14Z</time></trkpt><trkpt lat="44.837110597301574" lon="9.677337238575134"><ele>392.16666666666663</ele><time>2026-05-03T12:01:15Z</time></trkpt><trkpt lat="44.837068516998194" lon="9.67725823224988"><ele>392.3333333333333</ele><time>2026-05-03T12:01:16Z</time></trkpt><trkpt lat="44.837011929734" lon="9.677170266910318"><ele>392.5</ele><time>2026-05-03T12:01:18Z</time></trkpt><trkpt lat="44.836961501750196" lon="9.677114220682178"><ele>392.66666666666663</ele><time>2026-05-03T12:01:20Z</time></trkpt><trkpt lat="44.83685261544493" lon="9.677041695986167"><ele>392.8333333333333</ele><time>2026-05-03T12:01:22Z</time></trkpt><trkpt lat="44.836775445890034" lon="9.67699308216515"><ele>393.0</ele><time>2026-05-03T12:01:23Z</time></trkpt><trkpt lat="44.8367002342201" lon="9.676931523205354"><ele>393.0</ele><time>2026-05-03T12:01:24Z</time></trkpt><trkpt lat="44.83662828154476" lon="9.67686717001332"><ele>393.0</ele><time>2026-05-03T12:01:25Z</time></trkpt><trkpt lat="44.83656470736674" lon="9.676803482445738"><ele>393.0</ele><time>2026-05-03T12:01:26Z</time></trkpt><trkpt lat="44.836499701663904" lon="9.676747137073129"><ele>393.0</ele><time>2026-05-03T12:01:27Z</time></trkpt><trkpt lat="44.83644071137191" lon="9.676702732741493"><ele>393.0</ele><time>2026-05-03T12:01:28Z</time></trkpt><trkpt lat="44.83637963770163" lon="9.676643804065725"><ele>393.0</ele><time>2026-05-03T12:01:29Z</time></trkpt><trkpt lat="44.83631582748371" lon="9.676569906343266"><ele>393.0</ele><time>2026-05-03T12:01:30Z</time></trkpt><trkpt lat="44.83625623695957" lon="9.676481736193896"><ele>393.0</ele><time>2026-05-03T12:01:31Z</time></trkpt><trkpt lat="44.83620275619267" lon="9.676392489509558"><ele>393.0</ele><time>2026-05-03T12:01:32Z</time></trkpt><trkpt lat="44.83616384701081" lon="9.67629178063696"><ele>393.0</ele><time>2026-05-03T12:01:33Z</time></trkpt><trkpt lat="44.83612873484949" lon="9.676188634415967"><ele>393.0</ele><time>2026-05-03T12:01:34Z</time></trkpt><trkpt lat="44.83609718934974" lon="9.67607980636139"><ele>393.0</ele><time>2026-05-03T12:01:35Z</time></trkpt><trkpt lat="44.83607678119157" lon="9.675987946177"><ele>392.8571428571429</ele><time>2026-05-03T12:01:36Z</time></trkpt><trkpt lat="44.83606555729947" lon="9.675897157663622"><ele>392.7142857142857</ele><time>2026-05-03T12:01:37Z</time></trkpt><trkpt lat="44.8360500678019" lon="9.675805198512117"><ele>392.57142857142856</ele><time>2026-05-03T12:01:38Z</time></trkpt><trkpt lat="44.83601557574003" lon="9.675705094094742"><ele>392.42857142857144</ele><time>2026-05-03T12:01:39Z</time></trkpt><trkpt lat="44.835961919004916" lon="9.67561878888454"><ele>392.2857142857143</ele><time>2026-05-03T12:01:40Z</time></trkpt><trkpt lat="44.8359114323541" lon="9.67555910541867"><ele>392.14285714285717</ele><time>2026-05-03T12:01:41Z</time></trkpt><trkpt lat="44.83584505606915" lon="9.675539000752558"><ele>392.0</ele><time>2026-05-03T12:01:42Z</time></trkpt><trkpt lat="44.83577104379976" lon="9.675527039431993"><ele>394.6</ele><time>2026-05-03T12:01:43Z</time></trkpt><trkpt lat="44.83569109146521" lon="9.675523840038977"><ele>397.20000000000005</ele><time>2026-05-03T12:01:44Z</time></trkpt><trkpt lat="44.83559846312964" lon="9.6755265050768"><ele>399.8</ele><time>2026-05-03T12:01:45Z</time></trkpt><trkpt lat="44.83550758111089" lon="9.67553043495522"><ele>402.4</ele><time>2026-05-03T12:01:46Z</time></trkpt><trkpt lat="44.83541757286298" lon="9.675526568132506"><ele>405.0</ele><time>2026-05-03T12:01:47Z</time></trkpt><trkpt lat="44.835314152807605" lon="9.675527946491178"><ele>405.0</ele><time>2026-05-03T12:01:48Z</time></trkpt><trkpt lat="44.8352187108184" lon="9.67552562689236"><ele>405.0</ele><time>2026-05-03T12:01:49Z</time></trkpt><trkpt lat="44.83512312679391" lon="9.675539405687385"><ele>405.0</ele><time>2026-05-03T12:01:50Z</time></trkpt><trkpt lat="44.83501788700656" lon="9.675564678773478"><ele>405.0</ele><time>2026-05-03T12:01:51Z</time></trkpt><trkpt lat="44.83493037428375" lon="9.67559265882673"><ele>405.0</ele><time>2026-05-03T12:01:52Z</time></trkpt><trkpt lat="44.83485899781808" lon="9.67560976960974"><ele>405.3333333333333</ele><time>2026-05-03T12:01:53Z</time></trkpt><trkpt lat="44.834773619820616" lon="9.675633685717164"><ele>405.66666666666663</ele><time>2026-05-03T12:01:54Z</time></trkpt><trkpt lat="44.83469216891963" lon="9.675652681375782"><ele>406.0</ele><time>2026-05-03T12:01:55Z</time></trkpt><trkpt lat="44.83460573454044" lon="9.675676871715996"><ele>406.3333333333333</ele><time>2026-05-03T12:01:56Z</time></trkpt><trkpt lat="44.834519376876024" lon="9.675694211643316"><ele>406.66666666666663</ele><time>2026-05-03T12:01:57Z</time></trkpt><trkpt lat="44.8344228782155" lon="9.675709567596819"><ele>407.0</ele><time>2026-05-03T12:01:58Z</time></trkpt><trkpt lat="44.8343226953811" lon="9.675718581917744"><ele>406.40000000000003</ele><time>2026-05-03T12:01:59Z</time></trkpt><trkpt lat="44.834226481922066" lon="9.67571800844412"><ele>405.8</ele><time>2026-05-03T12:02:00Z</time></trkpt><trkpt lat="44.83413452408" lon="9.675701462510196"><ele>405.2</ele><time>2026-05-03T12:02:01Z</time></trkpt><trkpt lat="44.83403456237235" lon="9.67568024640337"><ele>404.6</ele><time>2026-05-03T12:02:02Z</time></trkpt><trkpt lat="44.83392420334707" lon="9.67565026514677"><ele>404.0</ele><time>2026-05-03T12:02:03Z</time></trkpt><trkpt lat="44.83382267017785" lon="9.675618352488007"><ele>403.99999999999994</ele><time>2026-05-03T12:02:04Z</time></trkpt><trkpt lat="44.83371576674559" lon="9.675587081233646"><ele>404.0</ele><time>2026-05-03T12:02:05Z</time></trkpt><trkpt lat="44.83362262401238" lon="9.67556074334567"><ele>404.0</ele><time>2026-05-03T12:02:06Z</time></trkpt><trkpt lat="44.833536122680705" lon="9.675534754905518"><ele>404.0</ele><time>2026-05-03T12:02:07Z</time></trkpt><trkpt lat="44.83346778756789" lon="9.67551041544609"><ele>403.99999999999994</ele><time>2026-05-03T12:02:08Z</time></trkpt><trkpt lat="44.8333971666172" lon="9.675471424099888"><ele>404.0</ele><time>2026-05-03T12:02:09Z</time></trkpt><trkpt lat="44.8333161494666" lon="9.67540159282595"><ele>403.75</ele><time>2026-05-03T12:02:10Z</time></trkpt><trkpt lat="44.83321899801877" lon="9.675302998519536"><ele>403.5</ele><time>2026-05-03T12:02:11Z</time></trkpt><trkpt lat="44.83310424388446" lon="9.675214931150526"><ele>403.25</ele><time>2026-05-03T12:02:12Z</time></trkpt><trkpt lat="44.83299193162466" lon="9.675145227306224"><ele>403.0</ele><time>2026-05-03T12:02:13Z</time></trkpt><trkpt lat="44.83288995685843" lon="9.675081664296677"><ele>401.79999999999995</ele><time>2026-05-03T12:02:14Z</time></trkpt><trkpt lat="44.83280523252353" lon="9.675021284404494"><ele>400.6</ele><time>2026-05-03T12:02:15Z</time></trkpt><trkpt lat="44.83271208852511" lon="9.67494680343971"><ele>399.4</ele><time>2026-05-03T12:02:16Z</time></trkpt><trkpt lat="44.83264755912327" lon="9.674857859956756"><ele>398.20000000000005</ele><time>2026-05-03T12:02:17Z</time></trkpt><trkpt lat="44.832580805615564" lon="9.674741485539727"><ele>397.0</ele><time>2026-05-03T12:02:18Z</time></trkpt><trkpt lat="44.83249805031288" lon="9.674633292158328"><ele>397.20000000000005</ele><time>2026-05-03T12:02:19Z</time></trkpt><trkpt lat="44.832423193187985" lon="9.674520378640416"><ele>397.4</ele><time>2026-05-03T12:02:20Z</time></trkpt><trkpt lat="44.83235050006873" lon="9.674396972358219"><ele>397.6</ele><time>2026-05-03T12:02:21Z</time></trkpt><trkpt lat="44.832289617298045" lon="9.674278982648563"><ele>397.79999999999995</ele><time>2026-05-03T12:02:22Z</time></trkpt><trkpt lat="44.832244337822345" lon="9.674139720601042"><ele>398.0</ele><time>2026-05-03T12:02:23Z</time></trkpt><trkpt lat="44.832177566420505" lon="9.673989535103328"><ele>398.0</ele><time>2026-05-03T12:02:24Z</time></trkpt><trkpt lat="44.832104817704426" lon="9.67383821503245"><ele>398.0</ele><time>2026-05-03T12:02:25Z</time></trkpt><trkpt lat="44.83203627629622" lon="9.673690354765345"><ele>398.0</ele><time>2026-05-03T12:02:26Z</time></trkpt><trkpt lat="44.831967532448346" lon="9.673553527956738"><ele>398.0</ele><time>2026-05-03T12:02:27Z</time></trkpt><trkpt lat="44.83189929795155" lon="9.673428234715445"><ele>398.59999999999997</ele><time>2026-05-03T12:02:28Z</time></trkpt><trkpt lat="44.83184274658438" lon="9.673361790412615"><ele>399.2</ele><time>2026-05-03T12:02:29Z</time></trkpt><trkpt lat="44.831710329351615" lon="9.67338262478867"><ele>399.8</ele><time>2026-05-03T12:02:31Z</time></trkpt><trkpt lat="44.83161347481297" lon="9.673420951183216"><ele>400.4</ele><time>2026-05-03T12:02:32Z</time></trkpt><trkpt lat="44.83149137897085" lon="9.673450664660484"><ele>401.0</ele><time>2026-05-03T12:02:33Z</time></trkpt><trkpt lat="44.83137858315638" lon="9.673468640982112"><ele>404.4</ele><time>2026-05-03T12:02:34Z</time></trkpt><trkpt lat="44.83127738987825" lon="9.673488081198714"><ele>407.8</ele><time>2026-05-03T12:02:35Z</time></trkpt><trkpt lat="44.831182596188924" lon="9.673497044803888"><ele>411.2</ele><time>2026-05-03T12:02:36Z</time></trkpt><trkpt lat="44.83108989828821" lon="9.673508618949887"><ele>414.59999999999997</ele><time>2026-05-03T12:02:37Z</time></trkpt><trkpt lat="44.831012884386375" lon="9.673562337943093"><ele>418.0</ele><time>2026-05-03T12:02:38Z</time></trkpt><trkpt lat="44.830965201964624" lon="9.673642274473131"><ele>420.33333333333337</ele><time>2026-05-03T12:02:39Z</time></trkpt><trkpt lat="44.83091716151068" lon="9.673745301825482"><ele>422.6666666666667</ele><time>2026-05-03T12:02:40Z</time></trkpt><trkpt lat="44.830872564576346" lon="9.673861717064257"><ele>425.0</ele><time>2026-05-03T12:02:41Z</time></trkpt><trkpt lat="44.83082767287942" lon="9.673973483562783"><ele>427.33333333333337</ele><time>2026-05-03T12:02:42Z</time></trkpt><trkpt lat="44.83078278481608" lon="9.674060286840518"><ele>429.6666666666667</ele><time>2026-05-03T12:02:43Z</time></trkpt><trkpt lat="44.830699804173946" lon="9.674124089751128"><ele>432.0</ele><time>2026-05-03T12:02:45Z</time></trkpt><trkpt lat="44.830574385143606" lon="9.6740794062756"><ele>432.0</ele><time>2026-05-03T12:02:47Z</time></trkpt><trkpt lat="44.83049289231786" lon="9.67404915209468"><ele>432.00000000000006</ele><time>2026-05-03T12:02:48Z</time></trkpt><trkpt lat="44.83038485668445" lon="9.674000573394514"><ele>432.00000000000006</ele><time>2026-05-03T12:02:49Z</time></trkpt><trkpt lat="44.83028177995226" lon="9.67396132488206"><ele>432.0</ele><time>2026-05-03T12:02:50Z</time></trkpt><trkpt lat="44.8301840188598" lon="9.67392427669978"><ele>432.0</ele><time>2026-05-03T12:02:51Z</time></trkpt><trkpt lat="44.830083960151335" lon="9.673896144046129"><ele>432.8</ele><time>2026-05-03T12:02:52Z</time></trkpt><trkpt lat="44.82998846200601" lon="9.673847644986722"><ele>433.6</ele><time>2026-05-03T12:02:53Z</time></trkpt><trkpt lat="44.82988245602336" lon="9.673785452962965"><ele>434.40000000000003</ele><time>2026-05-03T12:02:54Z</time></trkpt><trkpt lat="44.829787673083224" lon="9.673701092578025"><ele>435.20000000000005</ele><time>2026-05-03T12:02:55Z</time></trkpt><trkpt lat="44.829705239548744" lon="9.673608365573516"><ele>436.0</ele><time>2026-05-03T12:02:56Z</time></trkpt><trkpt lat="44.829621558311786" lon="9.673514664404454"><ele>436.6</ele><time>2026-05-03T12:02:57Z</time></trkpt><trkpt lat="44.82954687604038" lon="9.673414066603973"><ele>437.20000000000005</ele><time>2026-05-03T12:02:58Z</time></trkpt><trkpt lat="44.82948552197604" lon="9.6733075019936"><ele>437.79999999999995</ele><time>2026-05-03T12:02:59Z</time></trkpt><trkpt lat="44.829420202842826" lon="9.673241120764674"><ele>438.4</ele><time>2026-05-03T12:03:00Z</time></trkpt><trkpt lat="44.829340579553616" lon="9.673190738448161"><ele>439.0</ele><time>2026-05-03T12:03:01Z</time></trkpt><trkpt lat="44.82925299103714" lon="9.673198143685447"><ele>442.00000000000006</ele><time>2026-05-03T12:03:02Z</time></trkpt><trkpt lat="44.82918554165438" lon="9.673245321597065"><ele>445.0</ele><time>2026-05-03T12:03:03Z</time></trkpt><trkpt lat="44.82912176573717" lon="9.673325073680301"><ele>448.0</ele><time>2026-05-03T12:03:04Z</time></trkpt><trkpt lat="44.82904568028643" lon="9.673380243199816"><ele>451.0</ele><time>2026-05-03T12:03:05Z</time></trkpt><trkpt lat="44.828966030651294" lon="9.67340325515127"><ele>454.00000000000006</ele><time>2026-05-03T12:03:06Z</time></trkpt><trkpt lat="44.828871863572495" lon="9.673404884958504"><ele>457.0</ele><time>2026-05-03T12:03:07Z</time></trkpt><trkpt lat="44.828768296145775" lon="9.673379288437774"><ele>457.0</ele><time>2026-05-03T12:03:08Z</time></trkpt><trkpt lat="44.8286677815499" lon="9.673356162831363"><ele>457.00000000000006</ele><time>2026-05-03T12:03:09Z</time></trkpt><trkpt lat="44.82856878265026" lon="9.67334432276699"><ele>457.00000000000006</ele><time>2026-05-03T12:03:10Z</time></trkpt><trkpt lat="44.82845014300379" lon="9.673343707269312"><ele>457.0</ele><time>2026-05-03T12:03:11Z</time></trkpt><trkpt lat="44.828336864044104" lon="9.673327777997184"><ele>457.0</ele><time>2026-05-03T12:03:12Z</time></trkpt><trkpt lat="44.8282298913981" lon="9.673287074814734"><ele>458.20000000000005</ele><time>2026-05-03T12:03:13Z</time></trkpt><trkpt lat="44.82814768065784" lon="9.67324976961907"><ele>459.40000000000003</ele><time>2026-05-03T12:03:14Z</time></trkpt><trkpt lat="44.82807368228139" lon="9.67318876738909"><ele>460.59999999999997</ele><time>2026-05-03T12:03:15Z</time></trkpt><trkpt lat="44.82800599249739" lon="9.673127120789458"><ele>461.79999999999995</ele><time>2026-05-03T12:03:16Z</time></trkpt><trkpt lat="44.827858255569076" lon="9.673074586820107"><ele>463.0</ele><time>2026-05-03T12:03:18Z</time></trkpt><trkpt lat="44.82777786054263" lon="9.673100359327961"><ele>463.0</ele><time>2026-05-03T12:03:19Z</time></trkpt><trkpt lat="44.82769050054913" lon="9.673143874444856"><ele>462.99999999999994</ele><time>2026-05-03T12:03:20Z</time></trkpt><trkpt lat="44.82759310126878" lon="9.673173374405645"><ele>462.99999999999994</ele><time>2026-05-03T12:03:21Z</time></trkpt><trkpt lat="44.82748723335772" lon="9.67319434734695"><ele>463.0</ele><time>2026-05-03T12:03:22Z</time></trkpt><trkpt lat="44.82738772354688" lon="9.673236415352378"><ele>463.0</ele><time>2026-05-03T12:03:23Z</time></trkpt><trkpt lat="44.82729022449655" lon="9.67329934634149"><ele>461.75</ele><time>2026-05-03T12:03:24Z</time></trkpt><trkpt lat="44.827187418054045" lon="9.673371728375498"><ele>460.5</ele><time>2026-05-03T12:03:25Z</time></trkpt><trkpt lat="44.827082894587555" lon="9.673446430334282"><ele>459.25</ele><time>2026-05-03T12:03:26Z</time></trkpt><trkpt lat="44.82697194575536" lon="9.673525058146291"><ele>458.0</ele><time>2026-05-03T12:03:27Z</time></trkpt><trkpt lat="44.826870854931066" lon="9.673616046010508"><ele>462.4</ele><time>2026-05-03T12:03:28Z</time></trkpt><trkpt lat="44.82677193376868" lon="9.673695749398009"><ele>466.79999999999995</ele><time>2026-05-03T12:03:29Z</time></trkpt><trkpt lat="44.82668156257459" lon="9.67370989171533"><ele>471.2</ele><time>2026-05-03T12:03:30Z</time></trkpt><trkpt lat="44.82657606040349" lon="9.673654323239337"><ele>475.6</ele><time>2026-05-03T12:03:31Z</time></trkpt><trkpt lat="44.82646584789147" lon="9.673573794719772"><ele>480.0</ele><time>2026-05-03T12:03:32Z</time></trkpt><trkpt lat="44.8263622874116" lon="9.67350359874028"><ele>480.0</ele><time>2026-05-03T12:03:33Z</time></trkpt><trkpt lat="44.82625726771585" lon="9.673440805825997"><ele>480.0</ele><time>2026-05-03T12:03:34Z</time></trkpt><trkpt lat="44.82616196267998" lon="9.67335530009751"><ele>480.0</ele><time>2026-05-03T12:03:35Z</time></trkpt><trkpt lat="44.82606752325363" lon="9.67326807890327"><ele>480.0</ele><time>2026-05-03T12:03:36Z</time></trkpt><trkpt lat="44.82598067289363" lon="9.673158554890882"><ele>482.5</ele><time>2026-05-03T12:03:37Z</time></trkpt><trkpt lat="44.825904631392284" lon="9.673028086446617"><ele>485.0</ele><time>2026-05-03T12:03:38Z</time></trkpt><trkpt lat="44.82583067519204" lon="9.6729023694833"><ele>487.5</ele><time>2026-05-03T12:03:39Z</time></trkpt><trkpt lat="44.82574767658406" lon="9.672805091143694"><ele>490.0</ele><time>2026-05-03T12:03:40Z</time></trkpt><trkpt lat="44.82564719296628" lon="9.67272752682445"><ele>490.0</ele><time>2026-05-03T12:03:41Z</time></trkpt><trkpt lat="44.82554112858613" lon="9.672658928431598"><ele>490.0</ele><time>2026-05-03T12:03:42Z</time></trkpt><trkpt lat="44.825438654746875" lon="9.672565562341827"><ele>490.0</ele><time>2026-05-03T12:03:43Z</time></trkpt><trkpt lat="44.82535337063367" lon="9.672446736599976"><ele>490.0</ele><time>2026-05-03T12:03:44Z</time></trkpt><trkpt lat="44.82527555937917" lon="9.672320196715942"><ele>490.0</ele><time>2026-05-03T12:03:45Z</time></trkpt><trkpt lat="44.82518996294821" lon="9.672204592971406"><ele>490.0</ele><time>2026-05-03T12:03:46Z</time></trkpt><trkpt lat="44.82509779781569" lon="9.672099213564387"><ele>490.0</ele><time>2026-05-03T12:03:47Z</time></trkpt><trkpt lat="44.82499915037602" lon="9.672000265623986"><ele>490.0</ele><time>2026-05-03T12:03:48Z</time></trkpt><trkpt lat="44.824899140970416" lon="9.671906307776275"><ele>493.25</ele><time>2026-05-03T12:03:49Z</time></trkpt><trkpt lat="44.82481001631822" lon="9.67179763592447"><ele>496.5</ele><time>2026-05-03T12:03:50Z</time></trkpt><trkpt lat="44.824720219538754" lon="9.671684514482202"><ele>499.75</ele><time>2026-05-03T12:03:51Z</time></trkpt><trkpt lat="44.824640217176004" lon="9.671555199580643"><ele>503.0</ele><time>2026-05-03T12:03:52Z</time></trkpt><trkpt lat="44.8245783490646" lon="9.6714120655609"><ele>503.0</ele><time>2026-05-03T12:03:53Z</time></trkpt><trkpt lat="44.82451769709192" lon="9.67126887789667"><ele>503.0</ele><time>2026-05-03T12:03:54Z</time></trkpt><trkpt lat="44.82443053835253" lon="9.671149104660527"><ele>503.0</ele><time>2026-05-03T12:03:55Z</time></trkpt><trkpt lat="44.82432570793051" lon="9.671051824939896"><ele>503.0</ele><time>2026-05-03T12:03:56Z</time></trkpt><trkpt lat="44.82422051322119" lon="9.67097141894653"><ele>505.75</ele><time>2026-05-03T12:03:57Z</time></trkpt><trkpt lat="44.82411484377719" lon="9.670888056643477"><ele>508.5</ele><time>2026-05-03T12:03:58Z</time></trkpt><trkpt lat="44.82401423892937" lon="9.6707906834968"><ele>511.25</ele><time>2026-05-03T12:03:59Z</time></trkpt><trkpt lat="44.823906950374734" lon="9.670686590309884"><ele>514.0</ele><time>2026-05-03T12:04:00Z</time></trkpt><trkpt lat="44.82380215208323" lon="9.670591656351778"><ele>514.0</ele><time>2026-05-03T12:04:01Z</time></trkpt><trkpt lat="44.82368285250272" lon="9.670527677114062"><ele>514.0</ele><time>2026-05-03T12:04:02Z</time></trkpt><trkpt lat="44.82357401795338" lon="9.670479019205189"><ele>514.0</ele><time>2026-05-03T12:04:03Z</time></trkpt><trkpt lat="44.82344810472943" lon="9.670443612880524"><ele>514.0</ele><time>2026-05-03T12:04:04Z</time></trkpt><trkpt lat="44.82331861277529" lon="9.670412572150866"><ele>515.5</ele><time>2026-05-03T12:04:05Z</time></trkpt><trkpt lat="44.82319594233474" lon="9.670379898307985"><ele>517.0</ele><time>2026-05-03T12:04:06Z</time></trkpt><trkpt lat="44.823070192472095" lon="9.670345099216318"><ele>518.5</ele><time>2026-05-03T12:04:07Z</time></trkpt><trkpt lat="44.82295122504717" lon="9.670297688046045"><ele>520.0</ele><time>2026-05-03T12:04:08Z</time></trkpt><trkpt lat="44.82283037735792" lon="9.670243057672003"><ele>520.25</ele><time>2026-05-03T12:04:09Z</time></trkpt><trkpt lat="44.82271628463203" lon="9.67018347907772"><ele>520.5</ele><time>2026-05-03T12:04:10Z</time></trkpt><trkpt lat="44.822599066454146" lon="9.670130735685971"><ele>520.75</ele><time>2026-05-03T12:04:11Z</time></trkpt><trkpt lat="44.82247634180017" lon="9.670069905767003"><ele>521.0</ele><time>2026-05-03T12:04:12Z</time></trkpt><trkpt lat="44.822341390053055" lon="9.670004904258517"><ele>521.75</ele><time>2026-05-03T12:04:13Z</time></trkpt><trkpt lat="44.82220935893209" lon="9.66993437243856"><ele>522.5</ele><time>2026-05-03T12:04:14Z</time></trkpt><trkpt lat="44.82209063057492" lon="9.66983716113858"><ele>523.25</ele><time>2026-05-03T12:04:15Z</time></trkpt><trkpt lat="44.821986601328085" lon="9.669704104255596"><ele>524.0</ele><time>2026-05-03T12:04:16Z</time></trkpt><trkpt lat="44.821912706957" lon="9.669538629812857"><ele>523.0</ele><time>2026-05-03T12:04:17Z</time></trkpt><trkpt lat="44.82186255245891" lon="9.669362802990635"><ele>522.0</ele><time>2026-05-03T12:04:18Z</time></trkpt><trkpt lat="44.821817447330424" lon="9.669185643781843"><ele>521.0</ele><time>2026-05-03T12:04:19Z</time></trkpt><trkpt lat="44.82176598582757" lon="9.669019102202132"><ele>520.0</ele><time>2026-05-03T12:04:20Z</time></trkpt><trkpt lat="44.821696350734165" lon="9.66886280757723"><ele>521.75</ele><time>2026-05-03T12:04:21Z</time></trkpt><trkpt lat="44.8216171013297" lon="9.668726827835554"><ele>523.5</ele><time>2026-05-03T12:04:22Z</time></trkpt><trkpt lat="44.8215345920695" lon="9.66858260601452"><ele>525.25</ele><time>2026-05-03T12:04:23Z</time></trkpt><trkpt lat="44.82145668161411" lon="9.668433247071064"><ele>527.0</ele><time>2026-05-03T12:04:24Z</time></trkpt><trkpt lat="44.82138636507593" lon="9.668313602173981"><ele>527.0</ele><time>2026-05-03T12:04:25Z</time></trkpt><trkpt lat="44.82132032575142" lon="9.668183085176196"><ele>527.0</ele><time>2026-05-03T12:04:26Z</time></trkpt><trkpt lat="44.82124760138395" lon="9.668049326913904"><ele>527.0</ele><time>2026-05-03T12:04:27Z</time></trkpt><trkpt lat="44.82118124560758" lon="9.6679363940865"><ele>527.0</ele><time>2026-05-03T12:04:28Z</time></trkpt><trkpt lat="44.82112067147321" lon="9.667821151241146"><ele>527.0</ele><time>2026-05-03T12:04:29Z</time></trkpt><trkpt lat="44.82106004085796" lon="9.667677177861549"><ele>528.25</ele><time>2026-05-03T12:04:30Z</time></trkpt><trkpt lat="44.82100536389873" lon="9.667501500079378"><ele>529.5</ele><time>2026-05-03T12:04:31Z</time></trkpt><trkpt lat="44.820950448484155" lon="9.667333291972366"><ele>530.75</ele><time>2026-05-03T12:04:32Z</time></trkpt><trkpt lat="44.82088899353931" lon="9.667157243021057"><ele>532.0</ele><time>2026-05-03T12:04:33Z</time></trkpt><trkpt lat="44.82082417748344" lon="9.666984286705416"><ele>531.75</ele><time>2026-05-03T12:04:34Z</time></trkpt><trkpt lat="44.8207611679708" lon="9.666830467348547"><ele>531.5</ele><time>2026-05-03T12:04:35Z</time></trkpt><trkpt lat="44.820711753808624" lon="9.666689049719592"><ele>531.25</ele><time>2026-05-03T12:04:36Z</time></trkpt><trkpt lat="44.82067917008534" lon="9.666547325298588"><ele>531.0</ele><time>2026-05-03T12:04:37Z</time></trkpt><trkpt lat="44.8206774278172" lon="9.666396754980752"><ele>531.0</ele><time>2026-05-03T12:04:38Z</time></trkpt><trkpt lat="44.82072411002588" lon="9.666265889155541"><ele>531.0</ele><time>2026-05-03T12:04:39Z</time></trkpt><trkpt lat="44.8207997639998" lon="9.666172120642928"><ele>531.0</ele><time>2026-05-03T12:04:40Z</time></trkpt><trkpt lat="44.82083699793589" lon="9.666075145733016"><ele>531.0</ele><time>2026-05-03T12:04:41Z</time></trkpt><trkpt lat="44.82081515487504" lon="9.665946076353753"><ele>531.0</ele><time>2026-05-03T12:04:42Z</time></trkpt><trkpt lat="44.82077044761094" lon="9.66582457611833"><ele>529.4</ele><time>2026-05-03T12:04:43Z</time></trkpt><trkpt lat="44.820706897406076" lon="9.66569476169287"><ele>527.8</ele><time>2026-05-03T12:04:44Z</time></trkpt><trkpt lat="44.82063047248299" lon="9.6655862686062"><ele>526.1999999999999</ele><time>2026-05-03T12:04:45Z</time></trkpt><trkpt lat="44.82054226681626" lon="9.665505141880898"><ele>524.6</ele><time>2026-05-03T12:04:46Z</time></trkpt><trkpt lat="44.82044204470344" lon="9.665453170789467"><ele>523.0</ele><time>2026-05-03T12:04:47Z</time></trkpt><trkpt lat="44.82033896267403" lon="9.66542836148613"><ele>523.0</ele><time>2026-05-03T12:04:48Z</time></trkpt><trkpt lat="44.82023543947929" lon="9.665423490932875"><ele>523.0</ele><time>2026-05-03T12:04:49Z</time></trkpt><trkpt lat="44.82013307177846" lon="9.665424742081038"><ele>523.0</ele><time>2026-05-03T12:04:50Z</time></trkpt><trkpt lat="44.820026628579456" lon="9.665423433412156"><ele>523.0</ele><time>2026-05-03T12:04:51Z</time></trkpt><trkpt lat="44.81992323216762" lon="9.66541865666844"><ele>523.0</ele><time>2026-05-03T12:04:52Z</time></trkpt><trkpt lat="44.819829078517095" lon="9.665405704346018"><ele>522.0</ele><time>2026-05-03T12:04:53Z</time></trkpt><trkpt lat="44.81973335372601" lon="9.665417858797671"><ele>521.0</ele><time>2026-05-03T12:04:54Z</time></trkpt><trkpt lat="44.81964381137137" lon="9.665461837230914"><ele>520.0</ele><time>2026-05-03T12:04:55Z</time></trkpt><trkpt lat="44.819569319670435" lon="9.665518225018145"><ele>519.0</ele><time>2026-05-03T12:04:56Z</time></trkpt><trkpt lat="44.81949439728988" lon="9.665601675236251"><ele>518.0</ele><time>2026-05-03T12:04:57Z</time></trkpt><trkpt lat="44.819413241905465" lon="9.665678603087878"><ele>518.0</ele><time>2026-05-03T12:04:58Z</time></trkpt><trkpt lat="44.819323612764556" lon="9.665722917590271"><ele>518.0</ele><time>2026-05-03T12:04:59Z</time></trkpt><trkpt lat="44.81922114970117" lon="9.665749561397366"><ele>518.0</ele><time>2026-05-03T12:05:00Z</time></trkpt><trkpt lat="44.81912575753899" lon="9.665769012387386"><ele>518.0</ele><time>2026-05-03T12:05:01Z</time></trkpt><trkpt lat="44.81903188859738" lon="9.66577696821138"><ele>518.0</ele><time>2026-05-03T12:05:02Z</time></trkpt><trkpt lat="44.81894032203185" lon="9.665771658227442"><ele>516.5</ele><time>2026-05-03T12:05:03Z</time></trkpt><trkpt lat="44.818865374309304" lon="9.665746313768054"><ele>515.0</ele><time>2026-05-03T12:05:04Z</time></trkpt><trkpt lat="44.818806795566815" lon="9.665683133954548"><ele>513.5</ele><time>2026-05-03T12:05:05Z</time></trkpt><trkpt lat="44.81875120788346" lon="9.665602974899349"><ele>512.0</ele><time>2026-05-03T12:05:07Z</time></trkpt><trkpt lat="44.81869671162209" lon="9.665544364360448"><ele>510.49999999999994</ele><time>2026-05-03T12:05:48Z</time></trkpt><trkpt lat="44.81861194656878" lon="9.66547337240447"><ele>509.0</ele><time>2026-05-03T12:05:50Z</time></trkpt><trkpt lat="44.81855122664567" lon="9.665381401877962"><ele>508.79999999999995</ele><time>2026-05-03T12:05:52Z</time></trkpt><trkpt lat="44.81851261893894" lon="9.665244745709376"><ele>508.59999999999997</ele><time>2026-05-03T12:05:54Z</time></trkpt><trkpt lat="44.818549316149834" lon="9.665064226759753"><ele>508.4</ele><time>2026-05-03T12:05:56Z</time></trkpt><trkpt lat="44.81859197572357" lon="9.664981006852742"><ele>508.2</ele><time>2026-05-03T12:05:57Z</time></trkpt><trkpt lat="44.818616540323816" lon="9.664878509558987"><ele>508.0</ele><time>2026-05-03T12:05:58Z</time></trkpt><trkpt lat="44.81863427340998" lon="9.664764669067736"><ele>508.0</ele><time>2026-05-03T12:05:59Z</time></trkpt><trkpt lat="44.81865281205168" lon="9.66466667237078"><ele>507.99999999999994</ele><time>2026-05-03T12:06:00Z</time></trkpt><trkpt lat="44.81867965129757" lon="9.664504683312687"><ele>507.99999999999994</ele><time>2026-05-03T12:06:02Z</time></trkpt><trkpt lat="44.81870748520203" lon="9.664355386104779"><ele>508.0</ele><time>2026-05-03T12:06:04Z</time></trkpt><trkpt lat="44.818763645257775" lon="9.664254789903953"><ele>508.0</ele><time>2026-05-03T12:06:05Z</time></trkpt><trkpt lat="44.81883180670742" lon="9.664127319439942"><ele>509.33333333333337</ele><time>2026-05-03T12:06:06Z</time></trkpt><trkpt lat="44.81887181404502" lon="9.664030489995499"><ele>510.6666666666667</ele><time>2026-05-03T12:06:07Z</time></trkpt><trkpt lat="44.81889845282316" lon="9.663935469552271"><ele>512.0</ele><time>2026-05-03T12:06:08Z</time></trkpt><trkpt lat="44.818904848100594" lon="9.663827927573266"><ele>513.3333333333334</ele><time>2026-05-03T12:06:09Z</time></trkpt><trkpt lat="44.818874770970616" lon="9.663723136348944"><ele>514.6666666666666</ele><time>2026-05-03T12:06:10Z</time></trkpt><trkpt lat="44.818854387612845" lon="9.663554447027515"><ele>516.0</ele><time>2026-05-03T12:06:12Z</time></trkpt><trkpt lat="44.8187993204547" lon="9.663465147879263"><ele>517.5</ele><time>2026-05-03T12:06:14Z</time></trkpt><trkpt lat="44.81874657594888" lon="9.663336356997933"><ele>519.0</ele><time>2026-05-03T12:06:45Z</time></trkpt><trkpt lat="44.818713826316134" lon="9.663238285034799"><ele>520.5</ele><time>2026-05-03T12:06:46Z</time></trkpt><trkpt lat="44.81870565801926" lon="9.663145705930715"><ele>522.0</ele><time>2026-05-03T12:06:47Z</time></trkpt><trkpt lat="44.81867194853888" lon="9.663034587941182"><ele>523.5</ele><time>2026-05-03T12:06:48Z</time></trkpt><trkpt lat="44.81863685235864" lon="9.662931537456206"><ele>525.0</ele><time>2026-05-03T12:06:49Z</time></trkpt><trkpt lat="44.81857543019424" lon="9.662808420658841"><ele>524.6666666666666</ele><time>2026-05-03T12:06:51Z</time></trkpt><trkpt lat="44.81851854674467" lon="9.662723640882593"><ele>524.3333333333334</ele><time>2026-05-03T12:06:53Z</time></trkpt><trkpt lat="44.818419909428776" lon="9.66261393467323"><ele>524.0</ele><time>2026-05-03T12:06:55Z</time></trkpt><trkpt lat="44.81836345099176" lon="9.662546946918596"><ele>523.6666666666667</ele><time>2026-05-03T12:06:56Z</time></trkpt><trkpt lat="44.81828629456887" lon="9.66250968455097"><ele>523.3333333333334</ele><time>2026-05-03T12:06:58Z</time></trkpt><trkpt lat="44.81820266096275" lon="9.662528000650243"><ele>523.0</ele><time>2026-05-03T12:07:01Z</time></trkpt><trkpt lat="44.81805203187942" lon="9.66250665249124"><ele>528.0</ele><time>2026-05-03T12:07:04Z</time></trkpt><trkpt lat="44.81797735550951" lon="9.662393356181134"><ele>533.0</ele><time>2026-05-03T12:07:06Z</time></trkpt><trkpt lat="44.817944194533055" lon="9.662310215357087"><ele>538.0</ele><time>2026-05-03T12:07:07Z</time></trkpt><trkpt lat="44.817895766299905" lon="9.662174936334582"><ele>543.0</ele><time>2026-05-03T12:07:09Z</time></trkpt><trkpt lat="44.817830366339564" lon="9.662025536107476"><ele>548.0</ele><time>2026-05-03T12:07:11Z</time></trkpt><trkpt lat="44.817746860605936" lon="9.6618843135013"><ele>548.0</ele><time>2026-05-03T12:07:13Z</time></trkpt><trkpt lat="44.817710720038235" lon="9.661797990411538"><ele>548.0</ele><time>2026-05-03T12:07:14Z</time></trkpt><trkpt lat="44.817670385535386" lon="9.661712160164273"><ele>548.0</ele><time>2026-05-03T12:07:15Z</time></trkpt><trkpt lat="44.81762914099152" lon="9.661621723212656"><ele>548.0</ele><time>2026-05-03T12:07:16Z</time></trkpt><trkpt lat="44.817582522218075" lon="9.66151369836918"><ele>548.0</ele><time>2026-05-03T12:07:17Z</time></trkpt><trkpt lat="44.81752721564949" lon="9.661404491398848"><ele>548.0</ele><time>2026-05-03T12:07:18Z</time></trkpt><trkpt lat="44.81746018635148" lon="9.66131317823"><ele>549.6</ele><time>2026-05-03T12:07:19Z</time></trkpt><trkpt lat="44.8173875439927" lon="9.66122616322537"><ele>551.1999999999999</ele><time>2026-05-03T12:07:20Z</time></trkpt><trkpt lat="44.817303215771496" lon="9.661154611398414"><ele>552.8</ele><time>2026-05-03T12:07:21Z</time></trkpt><trkpt lat="44.817208007533246" lon="9.661103037726017"><ele>554.4</ele><time>2026-05-03T12:07:22Z</time></trkpt><trkpt lat="44.81711729221849" lon="9.661021901670637"><ele>556.0</ele><time>2026-05-03T12:07:23Z</time></trkpt><trkpt lat="44.817037303133105" lon="9.660925752105376"><ele>556.5</ele><time>2026-05-03T12:07:24Z</time></trkpt><trkpt lat="44.81695581215771" lon="9.660833164268595"><ele>557.0</ele><time>2026-05-03T12:07:25Z</time></trkpt><trkpt lat="44.81689112243229" lon="9.66072457614275"><ele>557.5</ele><time>2026-05-03T12:07:26Z</time></trkpt><trkpt lat="44.81682892798973" lon="9.660632517929733"><ele>558.0</ele><time>2026-05-03T12:07:27Z</time></trkpt><trkpt lat="44.816778439551825" lon="9.660558925114625"><ele>558.5</ele><time>2026-05-03T12:07:28Z</time></trkpt><trkpt lat="44.816726613658474" lon="9.66049100645656"><ele>559.0</ele><time>2026-05-03T12:07:29Z</time></trkpt><trkpt lat="44.81664727622524" lon="9.660372940836917"><ele>559.0</ele><time>2026-05-03T12:07:31Z</time></trkpt><trkpt lat="44.81661350570642" lon="9.660292570633253"><ele>559.0</ele><time>2026-05-03T12:07:32Z</time></trkpt><trkpt lat="44.81656987359425" lon="9.660190842223393"><ele>559.0</ele><time>2026-05-03T12:07:33Z</time></trkpt><trkpt lat="44.816528605711916" lon="9.660076889875413"><ele>559.0</ele><time>2026-05-03T12:07:34Z</time></trkpt><trkpt lat="44.816486517842264" lon="9.659944178292129"><ele>559.0</ele><time>2026-05-03T12:07:35Z</time></trkpt><trkpt lat="44.81643105594277" lon="9.659802779027833"><ele>561.5</ele><time>2026-05-03T12:07:36Z</time></trkpt><trkpt lat="44.816343174767205" lon="9.659676529232401"><ele>564.0</ele><time>2026-05-03T12:07:37Z</time></trkpt><trkpt lat="44.8162440314951" lon="9.659585358375564"><ele>566.5</ele><time>2026-05-03T12:07:38Z</time></trkpt><trkpt lat="44.81613690389636" lon="9.659505484789273"><ele>569.0</ele><time>2026-05-03T12:07:39Z</time></trkpt><trkpt lat="44.81603146303718" lon="9.659434210212565"><ele>569.4</ele><time>2026-05-03T12:07:40Z</time></trkpt><trkpt lat="44.81592191051998" lon="9.659364526853139"><ele>569.8</ele><time>2026-05-03T12:07:41Z</time></trkpt><trkpt lat="44.81581330087855" lon="9.659304434088648"><ele>570.2</ele><time>2026-05-03T12:07:42Z</time></trkpt><trkpt lat="44.81571172927772" lon="9.659252531823185"><ele>570.6</ele><time>2026-05-03T12:07:43Z</time></trkpt><trkpt lat="44.81563311933632" lon="9.659179037760019"><ele>571.0</ele><time>2026-05-03T12:07:44Z</time></trkpt><trkpt lat="44.815566474470984" lon="9.659102097007858"><ele>571.0</ele><time>2026-05-03T12:07:45Z</time></trkpt><trkpt lat="44.81549284477061" lon="9.658995293516384"><ele>571.0</ele><time>2026-05-03T12:07:46Z</time></trkpt><trkpt lat="44.815424162752855" lon="9.658897053639098"><ele>571.0</ele><time>2026-05-03T12:07:47Z</time></trkpt><trkpt lat="44.815365144453786" lon="9.658802370045759"><ele>571.0</ele><time>2026-05-03T12:07:48Z</time></trkpt><trkpt lat="44.81531793440149" lon="9.65872067691296"><ele>571.0</ele><time>2026-05-03T12:07:49Z</time></trkpt><trkpt lat="44.815276845987285" lon="9.65865071866323"><ele>571.0</ele><time>2026-05-03T12:07:50Z</time></trkpt><trkpt lat="44.81523184001526" lon="9.65856685178992"><ele>571.0</ele><time>2026-05-03T12:07:51Z</time></trkpt><trkpt lat="44.81518486592919" lon="9.65849969843138"><ele>571.0</ele><time>2026-05-03T12:07:52Z</time></trkpt><trkpt lat="44.815109128772676" lon="9.658389126343252"><ele>571.0</ele><time>2026-05-03T12:07:54Z</time></trkpt><trkpt lat="44.81500644133127" lon="9.658294206083543"><ele>571.0</ele><time>2026-05-03T12:07:56Z</time></trkpt><trkpt lat="44.81494831346571" lon="9.658245865749269"><ele>571.0</ele><time>2026-05-03T12:07:57Z</time></trkpt><trkpt lat="44.81490232059889" lon="9.658185100066191"><ele>571.0</ele><time>2026-05-03T12:07:59Z</time></trkpt><trkpt lat="44.81481807110416" lon="9.658079584699832"><ele>570.8</ele><time>2026-05-03T12:08:01Z</time></trkpt><trkpt lat="44.814736055914224" lon="9.657986664114297"><ele>570.6</ele><time>2026-05-03T12:08:02Z</time></trkpt><trkpt lat="44.814662030831265" lon="9.657906252671257"><ele>570.4</ele><time>2026-05-03T12:08:03Z</time></trkpt><trkpt lat="44.814594470645936" lon="9.657835317153836"><ele>570.2</ele><time>2026-05-03T12:08:04Z</time></trkpt><trkpt lat="44.81453212469037" lon="9.657756397766137"><ele>570.0</ele><time>2026-05-03T12:08:05Z</time></trkpt><trkpt lat="44.814460109885964" lon="9.657656066221662"><ele>570.8</ele><time>2026-05-03T12:08:06Z</time></trkpt><trkpt lat="44.81440431092811" lon="9.657587919837995"><ele>571.6</ele><time>2026-05-03T12:08:07Z</time></trkpt><trkpt lat="44.81429727695181" lon="9.65751532694015"><ele>572.4</ele><time>2026-05-03T12:08:09Z</time></trkpt><trkpt lat="44.81424269711312" lon="9.657434842482106"><ele>573.2</ele><time>2026-05-03T12:08:10Z</time></trkpt><trkpt lat="44.814162609568015" lon="9.657317909167835"><ele>574.0</ele><time>2026-05-03T12:08:11Z</time></trkpt><trkpt lat="44.81410876567602" lon="9.657173720676695"><ele>575.25</ele><time>2026-05-03T12:08:12Z</time></trkpt><trkpt lat="44.81405631916262" lon="9.657012996290241"><ele>576.5</ele><time>2026-05-03T12:08:13Z</time></trkpt><trkpt lat="44.814023583953905" lon="9.656829930864353"><ele>577.75</ele><time>2026-05-03T12:08:14Z</time></trkpt><trkpt lat="44.81397981184346" lon="9.65665922286357"><ele>579.0</ele><time>2026-05-03T12:08:15Z</time></trkpt><trkpt lat="44.8139291008873" lon="9.656497285253437"><ele>581.75</ele><time>2026-05-03T12:08:16Z</time></trkpt><trkpt lat="44.813882929093616" lon="9.65633406871987"><ele>584.5</ele><time>2026-05-03T12:08:17Z</time></trkpt><trkpt lat="44.81383308473364" lon="9.656169988728921"><ele>587.25</ele><time>2026-05-03T12:08:18Z</time></trkpt><trkpt lat="44.81378424197242" lon="9.656035853360992"><ele>590.0</ele><time>2026-05-03T12:08:19Z</time></trkpt><trkpt lat="44.81372168090682" lon="9.65592984599901"><ele>590.0</ele><time>2026-05-03T12:08:20Z</time></trkpt><trkpt lat="44.81366093871163" lon="9.655845670432752"><ele>590.0</ele><time>2026-05-03T12:08:21Z</time></trkpt><trkpt lat="44.813603665914016" lon="9.655762452297937"><ele>590.0</ele><time>2026-05-03T12:08:22Z</time></trkpt><trkpt lat="44.81354918932229" lon="9.65564626661262"><ele>590.0</ele><time>2026-05-03T12:08:23Z</time></trkpt><trkpt lat="44.81352000965196" lon="9.655509230060256"><ele>590.0</ele><time>2026-05-03T12:08:24Z</time></trkpt><trkpt lat="44.813505006024656" lon="9.65535702550248"><ele>590.2</ele><time>2026-05-03T12:08:25Z</time></trkpt><trkpt lat="44.81349679423016" lon="9.655208301085667"><ele>590.4</ele><time>2026-05-03T12:08:26Z</time></trkpt><trkpt lat="44.81348578729196" lon="9.655057415640407"><ele>590.6</ele><time>2026-05-03T12:08:27Z</time></trkpt><trkpt lat="44.81347942113958" lon="9.654930188670424"><ele>590.8</ele><time>2026-05-03T12:08:28Z</time></trkpt><trkpt lat="44.81347076076819" lon="9.654817141159135"><ele>591.0</ele><time>2026-05-03T12:08:29Z</time></trkpt><trkpt lat="44.813465132565675" lon="9.654713902652382"><ele>591.0</ele><time>2026-05-03T12:08:30Z</time></trkpt><trkpt lat="44.813450863277176" lon="9.654627455427988"><ele>591.0</ele><time>2026-05-03T12:08:31Z</time></trkpt><trkpt lat="44.81337874902507" lon="9.654495950163017"><ele>591.0</ele><time>2026-05-03T12:08:33Z</time></trkpt><trkpt lat="44.81330919581747" lon="9.654452061799148"><ele>591.0</ele><time>2026-05-03T12:08:34Z</time></trkpt><trkpt lat="44.813233852873566" lon="9.654447642101623"><ele>591.0</ele><time>2026-05-03T12:08:35Z</time></trkpt><trkpt lat="44.813147860802786" lon="9.65444601870071"><ele>591.0</ele><time>2026-05-03T12:08:36Z</time></trkpt><trkpt lat="44.81305480945151" lon="9.65445281271044"><ele>591.0</ele><time>2026-05-03T12:08:37Z</time></trkpt><trkpt lat="44.812976119695534" lon="9.654479305109291"><ele>591.0</ele><time>2026-05-03T12:08:38Z</time></trkpt><trkpt lat="44.81290172043205" lon="9.654531741129011"><ele>591.0</ele><time>2026-05-03T12:08:39Z</time></trkpt><trkpt lat="44.81282460349591" lon="9.654602198727643"><ele>591.0</ele><time>2026-05-03T12:08:40Z</time></trkpt><trkpt lat="44.81275989302277" lon="9.654690314279344"><ele>591.0</ele><time>2026-05-03T12:08:41Z</time></trkpt><trkpt lat="44.81269596384638" lon="9.654765664747313"><ele>591.0</ele><time>2026-05-03T12:08:42Z</time></trkpt><trkpt lat="44.81258495626998" lon="9.654788081914418"><ele>589.3333333333334</ele><time>2026-05-03T12:08:44Z</time></trkpt><trkpt lat="44.81249118226256" lon="9.654675938025537"><ele>587.6666666666666</ele><time>2026-05-03T12:08:46Z</time></trkpt><trkpt lat="44.81245984436428" lon="9.654582528218388"><ele>586.0</ele><time>2026-05-03T12:08:47Z</time></trkpt><trkpt lat="44.81242267071379" lon="9.654499906763697"><ele>584.3333333333333</ele><time>2026-05-03T12:08:48Z</time></trkpt><trkpt lat="44.812354881831496" lon="9.65444862587002"><ele>582.6666666666666</ele><time>2026-05-03T12:08:49Z</time></trkpt><trkpt lat="44.81226059721452" lon="9.654443810395252"><ele>581.0</ele><time>2026-05-03T12:08:50Z</time></trkpt><trkpt lat="44.8121686606136" lon="9.654480230117763"><ele>581.0</ele><time>2026-05-03T12:08:51Z</time></trkpt><trkpt lat="44.81206785244442" lon="9.654539596614136"><ele>581.0</ele><time>2026-05-03T12:08:52Z</time></trkpt><trkpt lat="44.811960013738805" lon="9.654601129844687"><ele>581.0</ele><time>2026-05-03T12:08:53Z</time></trkpt><trkpt lat="44.81187273316523" lon="9.654684953719837"><ele>581.0</ele><time>2026-05-03T12:08:54Z</time></trkpt><trkpt lat="44.81177759380419" lon="9.65474088650194"><ele>581.0</ele><time>2026-05-03T12:08:55Z</time></trkpt><trkpt lat="44.81167151235569" lon="9.654782852790147"><ele>579.8</ele><time>2026-05-03T12:08:56Z</time></trkpt><trkpt lat="44.81156026403789" lon="9.65480723146194"><ele>578.6</ele><time>2026-05-03T12:08:57Z</time></trkpt><trkpt lat="44.81145953370037" lon="9.654808413328935"><ele>577.4</ele><time>2026-05-03T12:08:58Z</time></trkpt><trkpt lat="44.81136085797547" lon="9.654800344831564"><ele>576.2</ele><time>2026-05-03T12:08:59Z</time></trkpt><trkpt lat="44.811263191826534" lon="9.65478859678324"><ele>575.0</ele><time>2026-05-03T12:09:00Z</time></trkpt><trkpt lat="44.81115936170507" lon="9.654752803639939"><ele>575.0</ele><time>2026-05-03T12:09:01Z</time></trkpt><trkpt lat="44.811050835772875" lon="9.654716939666303"><ele>575.0</ele><time>2026-05-03T12:09:02Z</time></trkpt><trkpt lat="44.81095978165545" lon="9.65467991897223"><ele>575.0</ele><time>2026-05-03T12:09:03Z</time></trkpt><trkpt lat="44.810895486996884" lon="9.654656202383519"><ele>575.0</ele><time>2026-05-03T12:09:04Z</time></trkpt><trkpt lat="44.8108311079407" lon="9.65464341387529"><ele>575.0</ele><time>2026-05-03T12:09:05Z</time></trkpt><trkpt lat="44.810744013570414" lon="9.65459454216593"><ele>575.0</ele><time>2026-05-03T12:09:06Z</time></trkpt><trkpt lat="44.810663790966224" lon="9.65453330632451"><ele>575.2</ele><time>2026-05-03T12:09:07Z</time></trkpt><trkpt lat="44.81057376290048" lon="9.654487607166233"><ele>575.4</ele><time>2026-05-03T12:09:08Z</time></trkpt><trkpt lat="44.81047502013736" lon="9.654471783051012"><ele>575.6</ele><time>2026-05-03T12:09:09Z</time></trkpt><trkpt lat="44.81038128114458" lon="9.654478100629458"><ele>575.8</ele><time>2026-05-03T12:09:10Z</time></trkpt><trkpt lat="44.810282836403175" lon="9.654503789742312"><ele>576.0</ele><time>2026-05-03T12:09:11Z</time></trkpt><trkpt lat="44.81019398687626" lon="9.654533473513027"><ele>577.8333333333334</ele><time>2026-05-03T12:09:12Z</time></trkpt><trkpt lat="44.81010768860413" lon="9.654575107069533"><ele>579.6666666666666</ele><time>2026-05-03T12:09:13Z</time></trkpt><trkpt lat="44.8100159206576" lon="9.65460881829581"><ele>581.5</ele><time>2026-05-03T12:09:14Z</time></trkpt><trkpt lat="44.809936837146346" lon="9.654669710081476"><ele>583.3333333333333</ele><time>2026-05-03T12:09:15Z</time></trkpt><trkpt lat="44.80986971798377" lon="9.654751002745892"><ele>585.1666666666666</ele><time>2026-05-03T12:09:16Z</time></trkpt><trkpt lat="44.80981302045262" lon="9.6548370563807"><ele>587.0</ele><time>2026-05-03T12:09:17Z</time></trkpt><trkpt lat="44.80974947518314" lon="9.654941258652018"><ele>587.0</ele><time>2026-05-03T12:09:18Z</time></trkpt><trkpt lat="44.80969403597288" lon="9.655030946287688"><ele>587.0</ele><time>2026-05-03T12:09:19Z</time></trkpt><trkpt lat="44.80963834131818" lon="9.655097018810984"><ele>587.0</ele><time>2026-05-03T12:09:20Z</time></trkpt><trkpt lat="44.80951501024265" lon="9.655054486542532"><ele>587.0</ele><time>2026-05-03T12:09:22Z</time></trkpt><trkpt lat="44.809449832745436" lon="9.654997698203205"><ele>587.0</ele><time>2026-05-03T12:09:23Z</time></trkpt><trkpt lat="44.809387373806516" lon="9.654917946564538"><ele>587.0</ele><time>2026-05-03T12:09:24Z</time></trkpt><trkpt lat="44.80933277362748" lon="9.654834743876494"><ele>588.8333333333333</ele><time>2026-05-03T12:09:25Z</time></trkpt><trkpt lat="44.809278564401225" lon="9.654753382185408"><ele>590.6666666666666</ele><time>2026-05-03T12:09:26Z</time></trkpt><trkpt lat="44.80921249646663" lon="9.654660923350038"><ele>592.5</ele><time>2026-05-03T12:09:27Z</time></trkpt><trkpt lat="44.80916219062645" lon="9.654566434296495"><ele>594.3333333333334</ele><time>2026-05-03T12:09:28Z</time></trkpt><trkpt lat="44.8090932390292" lon="9.65448455085671"><ele>596.1666666666667</ele><time>2026-05-03T12:09:29Z</time></trkpt><trkpt lat="44.80901124261993" lon="9.654430782805381"><ele>598.0</ele><time>2026-05-03T12:09:30Z</time></trkpt><trkpt lat="44.8089171047011" lon="9.654391118689498"><ele>598.3333333333334</ele><time>2026-05-03T12:09:31Z</time></trkpt><trkpt lat="44.80884488330783" lon="9.654343368433945"><ele>598.6666666666667</ele><time>2026-05-03T12:09:32Z</time></trkpt><trkpt lat="44.80877443675916" lon="9.65428392950666"><ele>599.0</ele><time>2026-05-03T12:09:33Z</time></trkpt><trkpt lat="44.808713292399176" lon="9.654218624599155"><ele>599.3333333333334</ele><time>2026-05-03T12:09:34Z</time></trkpt><trkpt lat="44.80866206262601" lon="9.654140299372996"><ele>599.6666666666666</ele><time>2026-05-03T12:09:35Z</time></trkpt><trkpt lat="44.808618459732955" lon="9.653983645075954"><ele>600.0</ele><time>2026-05-03T12:09:37Z</time></trkpt><trkpt lat="44.80860973961199" lon="9.653842932416142"><ele>600.0</ele><time>2026-05-03T12:09:39Z</time></trkpt><trkpt lat="44.80858500910744" lon="9.653717618357366"><ele>600.0</ele><time>2026-05-03T12:09:41Z</time></trkpt><trkpt lat="44.808532886058636" lon="9.653599351868083"><ele>600.0</ele><time>2026-05-03T12:09:43Z</time></trkpt><trkpt lat="44.808426997014415" lon="9.653553642597549"><ele>600.0</ele><time>2026-05-03T12:09:45Z</time></trkpt><trkpt lat="44.8083195649295" lon="9.65354818222481"><ele>600.0</ele><time>2026-05-03T12:09:47Z</time></trkpt><trkpt lat="44.80822178116664" lon="9.65359665580252"><ele>602.5</ele><time>2026-05-03T12:09:49Z</time></trkpt><trkpt lat="44.80815485879146" lon="9.653617470185928"><ele>605.0</ele><time>2026-05-03T12:09:50Z</time></trkpt><trkpt lat="44.808083173332555" lon="9.653611373571941"><ele>607.5</ele><time>2026-05-03T12:09:51Z</time></trkpt><trkpt lat="44.80801200335565" lon="9.653621985032126"><ele>610.0</ele><time>2026-05-03T12:09:52Z</time></trkpt><trkpt lat="44.80794697909128" lon="9.653627064707303"><ele>612.5</ele><time>2026-05-03T12:09:53Z</time></trkpt><trkpt lat="44.80785080828211" lon="9.653649307811168"><ele>615.0</ele><time>2026-05-03T12:09:55Z</time></trkpt><trkpt lat="44.80776549039514" lon="9.653687714111486"><ele>615.0</ele><time>2026-05-03T12:09:57Z</time></trkpt><trkpt lat="44.80770229220014" lon="9.653650639339153"><ele>615.0</ele><time>2026-05-03T12:10:01Z</time></trkpt><trkpt lat="44.80776089156933" lon="9.653700824635699"><ele>615.0</ele><time>2026-05-03T12:10:28Z</time></trkpt><trkpt lat="44.807845222412176" lon="9.653713141312641"><ele>615.0</ele><time>2026-05-03T12:10:33Z</time></trkpt><trkpt lat="44.807940317183906" lon="9.653658455436481"><ele>615.0</ele><time>2026-05-03T12:10:36Z</time></trkpt><trkpt lat="44.80800813899582" lon="9.653623644785485"><ele>615.0</ele><time>2026-05-03T12:10:37Z</time></trkpt><trkpt lat="44.80808870187576" lon="9.65361587370316"><ele>615.0</ele><time>2026-05-03T12:10:38Z</time></trkpt><trkpt lat="44.80817049636367" lon="9.653621569162551"><ele>615.0</ele><time>2026-05-03T12:10:39Z</time></trkpt><trkpt lat="44.80824977601308" lon="9.653610433337885"><ele>615.0</ele><time>2026-05-03T12:10:40Z</time></trkpt><trkpt lat="44.80833429450965" lon="9.653548045293167"><ele>615.0</ele><time>2026-05-03T12:10:42Z</time></trkpt><trkpt lat="44.80832503639748" lon="9.653659942038134"><ele>615.0</ele><time>2026-05-03T12:10:46Z</time></trkpt><trkpt lat="44.808269405885696" lon="9.653720650883542"><ele>615.0</ele><time>2026-05-03T12:10:47Z</time></trkpt><trkpt lat="44.8082223247778" lon="9.6537883323993"><ele>615.0</ele><time>2026-05-03T12:10:48Z</time></trkpt><trkpt lat="44.80818090724192" lon="9.653872828292915"><ele>615.0</ele><time>2026-05-03T12:10:49Z</time></trkpt><trkpt lat="44.80814440971909" lon="9.653966920952506"><ele>615.0</ele><time>2026-05-03T12:10:50Z</time></trkpt><trkpt lat="44.808108847749295" lon="9.654057698594423"><ele>615.0</ele><time>2026-05-03T12:10:51Z</time></trkpt><trkpt lat="44.80806887099318" lon="9.654164484560468"><ele>615.0</ele><time>2026-05-03T12:10:52Z</time></trkpt><trkpt lat="44.808021516116455" lon="9.654279337406066"><ele>615.0</ele><time>2026-05-03T12:10:53Z</time></trkpt><trkpt lat="44.80797359916227" lon="9.654396030266636"><ele>614.4</ele><time>2026-05-03T12:10:54Z</time></trkpt><trkpt lat="44.80793399758149" lon="9.654517654779243"><ele>613.8</ele><time>2026-05-03T12:10:55Z</time></trkpt><trkpt lat="44.807913997108294" lon="9.654635151161932"><ele>613.2</ele><time>2026-05-03T12:10:56Z</time></trkpt><trkpt lat="44.8079001649368" lon="9.654769033825232"><ele>612.6</ele><time>2026-05-03T12:10:57Z</time></trkpt><trkpt lat="44.8078832505627" lon="9.65490000968268"><ele>612.0</ele><time>2026-05-03T12:10:58Z</time></trkpt><trkpt lat="44.8078666246035" lon="9.655025515261352"><ele>612.0</ele><time>2026-05-03T12:10:59Z</time></trkpt><trkpt lat="44.80784615963289" lon="9.655161986962007"><ele>612.0</ele><time>2026-05-03T12:11:00Z</time></trkpt><trkpt lat="44.8078102425296" lon="9.655283379248502"><ele>612.0</ele><time>2026-05-03T12:11:01Z</time></trkpt><trkpt lat="44.80775567921013" lon="9.655390011683108"><ele>612.0</ele><time>2026-05-03T12:11:02Z</time></trkpt><trkpt lat="44.80769935632206" lon="9.65544976816332"><ele>612.0</ele><time>2026-05-03T12:11:03Z</time></trkpt><trkpt lat="44.80765911650095" lon="9.655529978427584"><ele>612.0</ele><time>2026-05-03T12:11:04Z</time></trkpt><trkpt lat="44.807668713575396" lon="9.65570886604245"><ele>612.3333333333334</ele><time>2026-05-03T12:11:06Z</time></trkpt><trkpt lat="44.80772499569789" lon="9.655790884761585"><ele>612.6666666666666</ele><time>2026-05-03T12:11:07Z</time></trkpt><trkpt lat="44.80778609211733" lon="9.655899861625524"><ele>613.0</ele><time>2026-05-03T12:11:08Z</time></trkpt><trkpt lat="44.807835909817975" lon="9.656009893553033"><ele>613.3333333333333</ele><time>2026-05-03T12:11:09Z</time></trkpt><trkpt lat="44.807875034761246" lon="9.656129935224863"><ele>613.6666666666666</ele><time>2026-05-03T12:11:10Z</time></trkpt><trkpt lat="44.8078758437342" lon="9.65624768894372"><ele>614.0</ele><time>2026-05-03T12:11:11Z</time></trkpt><trkpt lat="44.8078452154944" lon="9.656348638076826"><ele>614.1666666666666</ele><time>2026-05-03T12:11:12Z</time></trkpt><trkpt lat="44.80779616241825" lon="9.656432197145234"><ele>614.3333333333333</ele><time>2026-05-03T12:11:13Z</time></trkpt><trkpt lat="44.80772975228829" lon="9.656518148130285"><ele>614.5</ele><time>2026-05-03T12:11:14Z</time></trkpt><trkpt lat="44.807676610876904" lon="9.656606902464368"><ele>614.6666666666666</ele><time>2026-05-03T12:11:15Z</time></trkpt><trkpt lat="44.80761995829237" lon="9.656718499470092"><ele>614.8333333333334</ele><time>2026-05-03T12:11:16Z</time></trkpt><trkpt lat="44.80757658519985" lon="9.656814885494754"><ele>615.0</ele><time>2026-05-03T12:11:17Z</time></trkpt><trkpt lat="44.80753849640984" lon="9.656938297094516"><ele>621.6</ele><time>2026-05-03T12:11:18Z</time></trkpt><trkpt lat="44.8074962784521" lon="9.657072479133394"><ele>628.2</ele><time>2026-05-03T12:11:19Z</time></trkpt><trkpt lat="44.80745791400651" lon="9.657181297388085"><ele>634.8</ele><time>2026-05-03T12:11:20Z</time></trkpt><trkpt lat="44.807395332614455" lon="9.657285633247302"><ele>641.4</ele><time>2026-05-03T12:11:21Z</time></trkpt><trkpt lat="44.807320869230715" lon="9.657359113106859"><ele>648.0</ele><time>2026-05-03T12:11:22Z</time></trkpt><trkpt lat="44.807260169027195" lon="9.6574377431833"><ele>648.0</ele><time>2026-05-03T12:11:23Z</time></trkpt><trkpt lat="44.807236652690285" lon="9.657561881236948"><ele>648.0</ele><time>2026-05-03T12:11:24Z</time></trkpt><trkpt lat="44.80725930512857" lon="9.657698178918354"><ele>648.0</ele><time>2026-05-03T12:11:25Z</time></trkpt><trkpt lat="44.80732400287711" lon="9.657810280725208"><ele>648.0</ele><time>2026-05-03T12:11:26Z</time></trkpt><trkpt lat="44.807393137577776" lon="9.657908358215337"><ele>648.0</ele><time>2026-05-03T12:11:27Z</time></trkpt><trkpt lat="44.807432173185155" lon="9.658015945715748"><ele>647.3333333333334</ele><time>2026-05-03T12:11:28Z</time></trkpt><trkpt lat="44.80742749023524" lon="9.658114115962864"><ele>646.6666666666666</ele><time>2026-05-03T12:11:29Z</time></trkpt><trkpt lat="44.80735055671378" lon="9.658218678791414"><ele>646.0</ele><time>2026-05-03T12:11:31Z</time></trkpt><trkpt lat="44.807285437950675" lon="9.65825370810402"><ele>645.3333333333333</ele><time>2026-05-03T12:11:32Z</time></trkpt><trkpt lat="44.80721014008587" lon="9.658272236580066"><ele>644.6666666666666</ele><time>2026-05-03T12:11:33Z</time></trkpt><trkpt lat="44.807127062393064" lon="9.658314547991491"><ele>644.0</ele><time>2026-05-03T12:11:34Z</time></trkpt><trkpt lat="44.80701774192625" lon="9.658367027619017"><ele>644.0</ele><time>2026-05-03T12:11:35Z</time></trkpt><trkpt lat="44.80692116090098" lon="9.658436577690912"><ele>644.0</ele><time>2026-05-03T12:11:36Z</time></trkpt><trkpt lat="44.806833907353194" lon="9.65852368193548"><ele>644.0</ele><time>2026-05-03T12:11:37Z</time></trkpt><trkpt lat="44.8067281667579" lon="9.658602274194573"><ele>644.0</ele><time>2026-05-03T12:11:38Z</time></trkpt><trkpt lat="44.80662131219299" lon="9.658641387512828"><ele>644.0</ele><time>2026-05-03T12:11:39Z</time></trkpt><trkpt lat="44.80652163826735" lon="9.6586288228684"><ele>647.2</ele><time>2026-05-03T12:11:40Z</time></trkpt><trkpt lat="44.80642796695167" lon="9.658595127880647"><ele>650.4000000000001</ele><time>2026-05-03T12:11:41Z</time></trkpt><trkpt lat="44.8063359679128" lon="9.6585640466394"><ele>653.6</ele><time>2026-05-03T12:11:42Z</time></trkpt><trkpt lat="44.806254663222425" lon="9.658552454165795"><ele>656.8</ele><time>2026-05-03T12:11:43Z</time></trkpt><trkpt lat="44.80616017952942" lon="9.658525974520975"><ele>660.0</ele><time>2026-05-03T12:11:44Z</time></trkpt><trkpt lat="44.80606801842079" lon="9.658467174260508"><ele>660.0</ele><time>2026-05-03T12:11:45Z</time></trkpt><trkpt lat="44.80597822929449" lon="9.65841622247667"><ele>660.0</ele><time>2026-05-03T12:11:46Z</time></trkpt><trkpt lat="44.80590824943402" lon="9.658376955977726"><ele>660.0</ele><time>2026-05-03T12:11:47Z</time></trkpt><trkpt lat="44.80582291185765" lon="9.658345077279213"><ele>660.0</ele><time>2026-05-03T12:11:48Z</time></trkpt><trkpt lat="44.805713397372344" lon="9.6583136713295"><ele>660.0</ele><time>2026-05-03T12:11:49Z</time></trkpt><trkpt lat="44.80561630975159" lon="9.65833423144792"><ele>660.0</ele><time>2026-05-03T12:11:50Z</time></trkpt><trkpt lat="44.80552373323574" lon="9.658356240799803"><ele>660.0</ele><time>2026-05-03T12:11:51Z</time></trkpt><trkpt lat="44.80542905541292" lon="9.658345693796413"><ele>660.0</ele><time>2026-05-03T12:11:52Z</time></trkpt><trkpt lat="44.80532907365153" lon="9.658321710651533"><ele>660.0</ele><time>2026-05-03T12:11:53Z</time></trkpt><trkpt lat="44.80523172134219" lon="9.658307270311079"><ele>660.0</ele><time>2026-05-03T12:11:54Z</time></trkpt><trkpt lat="44.805131172957026" lon="9.6583507162868"><ele>660.6</ele><time>2026-05-03T12:11:55Z</time></trkpt><trkpt lat="44.805036613062164" lon="9.658403063938108"><ele>661.2</ele><time>2026-05-03T12:11:56Z</time></trkpt><trkpt lat="44.80494353306777" lon="9.658445617342727"><ele>661.8</ele><time>2026-05-03T12:11:57Z</time></trkpt><trkpt lat="44.80485259255937" lon="9.658483345585777"><ele>662.4</ele><time>2026-05-03T12:11:58Z</time></trkpt><trkpt lat="44.80475580705271" lon="9.658520037763449"><ele>663.0</ele><time>2026-05-03T12:11:59Z</time></trkpt><trkpt lat="44.804661034677586" lon="9.658554282766296"><ele>663.0</ele><time>2026-05-03T12:12:00Z</time></trkpt><trkpt lat="44.80456944501897" lon="9.658606981393751"><ele>663.0</ele><time>2026-05-03T12:12:01Z</time></trkpt><trkpt lat="44.804503289864726" lon="9.658685180561681"><ele>663.0</ele><time>2026-05-03T12:12:02Z</time></trkpt><trkpt lat="44.80446346514739" lon="9.658779444633302"><ele>663.0</ele><time>2026-05-03T12:12:03Z</time></trkpt><trkpt lat="44.80445934986185" lon="9.658887923063416"><ele>663.0</ele><time>2026-05-03T12:12:04Z</time></trkpt><trkpt lat="44.80448701826488" lon="9.659007628724316"><ele>663.0</ele><time>2026-05-03T12:12:05Z</time></trkpt><trkpt lat="44.80452749020906" lon="9.659107227842135"><ele>661.2</ele><time>2026-05-03T12:12:06Z</time></trkpt><trkpt lat="44.80456926276263" lon="9.659208528904065"><ele>659.4</ele><time>2026-05-03T12:12:07Z</time></trkpt><trkpt lat="44.80460468425533" lon="9.659324244270557"><ele>657.6</ele><time>2026-05-03T12:12:08Z</time></trkpt><trkpt lat="44.80465254456653" lon="9.659457323012692"><ele>655.8000000000001</ele><time>2026-05-03T12:12:09Z</time></trkpt><trkpt lat="44.804679290542616" lon="9.659605751675398"><ele>654.0</ele><time>2026-05-03T12:12:10Z</time></trkpt><trkpt lat="44.804711158792905" lon="9.65975082078583"><ele>654.0</ele><time>2026-05-03T12:12:11Z</time></trkpt><trkpt lat="44.80471610983446" lon="9.659900635676696"><ele>654.0</ele><time>2026-05-03T12:12:12Z</time></trkpt><trkpt lat="44.804713094311005" lon="9.660045989006498"><ele>654.0</ele><time>2026-05-03T12:12:13Z</time></trkpt><trkpt lat="44.804693567849675" lon="9.660193092352626"><ele>654.0</ele><time>2026-05-03T12:12:14Z</time></trkpt><trkpt lat="44.804682132984134" lon="9.660311797981304"><ele>654.0</ele><time>2026-05-03T12:12:15Z</time></trkpt><trkpt lat="44.80467077306784" lon="9.660406195108896"><ele>655.6</ele><time>2026-05-03T12:12:16Z</time></trkpt><trkpt lat="44.80464402588327" lon="9.660512147129246"><ele>657.2</ele><time>2026-05-03T12:12:18Z</time></trkpt><trkpt lat="44.80446782549035" lon="9.660498479763518"><ele>658.8000000000001</ele><time>2026-05-03T12:12:21Z</time></trkpt><trkpt lat="44.804390715921" lon="9.66046330414191"><ele>660.4000000000001</ele><time>2026-05-03T12:12:22Z</time></trkpt><trkpt lat="44.804316267467485" lon="9.660405216162209"><ele>662.0</ele><time>2026-05-03T12:12:23Z</time></trkpt><trkpt lat="44.804235328743836" lon="9.660330718641218"><ele>664.4000000000001</ele><time>2026-05-03T12:12:24Z</time></trkpt><trkpt lat="44.80415980913057" lon="9.660252279934483"><ele>666.8000000000001</ele><time>2026-05-03T12:12:25Z</time></trkpt><trkpt lat="44.80408325108736" lon="9.660160466513478"><ele>669.2</ele><time>2026-05-03T12:12:26Z</time></trkpt><trkpt lat="44.804013256102245" lon="9.660052791565708"><ele>671.6</ele><time>2026-05-03T12:12:27Z</time></trkpt><trkpt lat="44.80394125158521" lon="9.659944182117195"><ele>674.0</ele><time>2026-05-03T12:12:28Z</time></trkpt><trkpt lat="44.803885578760806" lon="9.659826866344828"><ele>674.0</ele><time>2026-05-03T12:12:29Z</time></trkpt><trkpt lat="44.803844822933215" lon="9.659686360476352"><ele>674.0</ele><time>2026-05-03T12:12:30Z</time></trkpt><trkpt lat="44.80380637867245" lon="9.659566898253589"><ele>674.0</ele><time>2026-05-03T12:12:31Z</time></trkpt><trkpt lat="44.803772163144885" lon="9.659434772489016"><ele>674.0</ele><time>2026-05-03T12:12:32Z</time></trkpt><trkpt lat="44.80374476427915" lon="9.659308431114697"><ele>674.0</ele><time>2026-05-03T12:12:33Z</time></trkpt><trkpt lat="44.80372636790998" lon="9.659185644991258"><ele>673.8000000000001</ele><time>2026-05-03T12:12:34Z</time></trkpt><trkpt lat="44.80370953900644" lon="9.659043425770896"><ele>673.6</ele><time>2026-05-03T12:12:35Z</time></trkpt><trkpt lat="44.80368705071974" lon="9.658882662298677"><ele>673.4</ele><time>2026-05-03T12:12:36Z</time></trkpt><trkpt lat="44.803653471205074" lon="9.658744354301696"><ele>673.2</ele><time>2026-05-03T12:12:37Z</time></trkpt><trkpt lat="44.803589555440304" lon="9.658591754308489"><ele>673.0</ele><time>2026-05-03T12:12:38Z</time></trkpt><trkpt lat="44.803513150929" lon="9.658457357410866"><ele>675.4</ele><time>2026-05-03T12:12:39Z</time></trkpt><trkpt lat="44.80344196745744" lon="9.658331931192208"><ele>677.8</ele><time>2026-05-03T12:12:40Z</time></trkpt><trkpt lat="44.80337372412261" lon="9.658216292862294"><ele>680.2</ele><time>2026-05-03T12:12:41Z</time></trkpt><trkpt lat="44.803296840481764" lon="9.65808820236781"><ele>682.6</ele><time>2026-05-03T12:12:42Z</time></trkpt><trkpt lat="44.80322615539658" lon="9.657970438944348"><ele>685.0</ele><time>2026-05-03T12:12:43Z</time></trkpt><trkpt lat="44.80315925671728" lon="9.657849946025067"><ele>687.4</ele><time>2026-05-03T12:12:44Z</time></trkpt><trkpt lat="44.8031043526878" lon="9.657717822121088"><ele>689.8</ele><time>2026-05-03T12:12:45Z</time></trkpt><trkpt lat="44.80307047699577" lon="9.657585968549927"><ele>692.2</ele><time>2026-05-03T12:12:46Z</time></trkpt><trkpt lat="44.80302433524919" lon="9.657456519909568"><ele>694.6</ele><time>2026-05-03T12:12:47Z</time></trkpt><trkpt lat="44.802970422003916" lon="9.6573452653047"><ele>697.0</ele><time>2026-05-03T12:12:48Z</time></trkpt><trkpt lat="44.802889415480806" lon="9.65729500749017"><ele>697.0</ele><time>2026-05-03T12:12:49Z</time></trkpt><trkpt lat="44.80279926134074" lon="9.657224248518276"><ele>697.0</ele><time>2026-05-03T12:12:50Z</time></trkpt><trkpt lat="44.802720718525116" lon="9.657160016541406"><ele>697.0</ele><time>2026-05-03T12:12:51Z</time></trkpt><trkpt lat="44.80264616028444" lon="9.657064566700953"><ele>697.0</ele><time>2026-05-03T12:12:52Z</time></trkpt><trkpt lat="44.80256390710816" lon="9.656961883346415"><ele>697.0</ele><time>2026-05-03T12:12:53Z</time></trkpt><trkpt lat="44.802477601318785" lon="9.656876664391453"><ele>700.25</ele><time>2026-05-03T12:12:54Z</time></trkpt><trkpt lat="44.802364928036354" lon="9.656830930509859"><ele>703.5</ele><time>2026-05-03T12:12:55Z</time></trkpt><trkpt lat="44.80224327451265" lon="9.656926130380356"><ele>706.75</ele><time>2026-05-03T12:12:56Z</time></trkpt><trkpt lat="44.80214822231519" lon="9.656912118502992"><ele>710.0</ele><time>2026-05-03T12:12:57Z</time></trkpt><trkpt lat="44.80204290440684" lon="9.656909446794616"><ele>710.0</ele><time>2026-05-03T12:12:58Z</time></trkpt><trkpt lat="44.801930938954015" lon="9.656886633103252"><ele>710.0</ele><time>2026-05-03T12:12:59Z</time></trkpt><trkpt lat="44.80184559593889" lon="9.65684158675298"><ele>710.0</ele><time>2026-05-03T12:13:00Z</time></trkpt><trkpt lat="44.8017850398955" lon="9.656760388320768"><ele>710.0</ele><time>2026-05-03T12:13:01Z</time></trkpt><trkpt lat="44.80171391604077" lon="9.656649807219715"><ele>710.0</ele><time>2026-05-03T12:13:02Z</time></trkpt><trkpt lat="44.80162585845316" lon="9.656520333464032"><ele>710.25</ele><time>2026-05-03T12:13:03Z</time></trkpt><trkpt lat="44.80151289459605" lon="9.656400811437644"><ele>710.5</ele><time>2026-05-03T12:13:04Z</time></trkpt><trkpt lat="44.80140014573906" lon="9.656346693642716"><ele>710.75</ele><time>2026-05-03T12:13:05Z</time></trkpt><trkpt lat="44.80128827394284" lon="9.656284585797152"><ele>711.0</ele><time>2026-05-03T12:13:06Z</time></trkpt><trkpt lat="44.80118940847367" lon="9.656216262871617"><ele>711.0</ele><time>2026-05-03T12:13:07Z</time></trkpt><trkpt lat="44.801082263928365" lon="9.656157727216755"><ele>711.0</ele><time>2026-05-03T12:13:08Z</time></trkpt><trkpt lat="44.80097206808096" lon="9.656101064241915"><ele>711.0</ele><time>2026-05-03T12:13:09Z</time></trkpt><trkpt lat="44.80084584574081" lon="9.656042216306133"><ele>711.0</ele><time>2026-05-03T12:13:10Z</time></trkpt><trkpt lat="44.80072919373005" lon="9.655999933789497"><ele>711.5999999999999</ele><time>2026-05-03T12:13:11Z</time></trkpt><trkpt lat="44.8006228409556" lon="9.65598685595527"><ele>712.2</ele><time>2026-05-03T12:13:12Z</time></trkpt><trkpt lat="44.80052182475582" lon="9.655978653328615"><ele>712.8</ele><time>2026-05-03T12:13:13Z</time></trkpt><trkpt lat="44.80042342368581" lon="9.65601401808117"><ele>713.4000000000001</ele><time>2026-05-03T12:13:14Z</time></trkpt><trkpt lat="44.8003135364495" lon="9.656058273561435"><ele>714.0</ele><time>2026-05-03T12:13:15Z</time></trkpt><trkpt lat="44.8002109270856" lon="9.656124891779022"><ele>716.6</ele><time>2026-05-03T12:13:16Z</time></trkpt><trkpt lat="44.800128713045744" lon="9.65623869890218"><ele>719.2</ele><time>2026-05-03T12:13:17Z</time></trkpt><trkpt lat="44.800095322567365" lon="9.656369280238279"><ele>721.8000000000001</ele><time>2026-05-03T12:13:18Z</time></trkpt><trkpt lat="44.8000923486994" lon="9.65649665083369"><ele>724.4000000000001</ele><time>2026-05-03T12:13:19Z</time></trkpt><trkpt lat="44.80008926361812" lon="9.65661462216292"><ele>727.0</ele><time>2026-05-03T12:13:20Z</time></trkpt><trkpt lat="44.800071574487795" lon="9.65674874684402"><ele>727.0</ele><time>2026-05-03T12:13:21Z</time></trkpt><trkpt lat="44.80002286169293" lon="9.656843198067218"><ele>727.0</ele><time>2026-05-03T12:13:22Z</time></trkpt><trkpt lat="44.799911645320655" lon="9.65682660813785"><ele>727.0</ele><time>2026-05-03T12:13:24Z</time></trkpt><trkpt lat="44.799824786932845" lon="9.656663895497491"><ele>727.0</ele><time>2026-05-03T12:13:26Z</time></trkpt><trkpt lat="44.79976339822151" lon="9.656597021322924"><ele>727.0</ele><time>2026-05-03T12:13:27Z</time></trkpt><trkpt lat="44.79968994227664" lon="9.656512590632925"><ele>727.0</ele><time>2026-05-03T12:13:28Z</time></trkpt><trkpt lat="44.799617125629" lon="9.656421517289502"><ele>727.0</ele><time>2026-05-03T12:13:29Z</time></trkpt><trkpt lat="44.799539858822016" lon="9.656315177860616"><ele>727.0</ele><time>2026-05-03T12:13:30Z</time></trkpt><trkpt lat="44.79946345327738" lon="9.656205213865245"><ele>727.0</ele><time>2026-05-03T12:13:31Z</time></trkpt><trkpt lat="44.799386839242864" lon="9.656089856453793"><ele>727.0</ele><time>2026-05-03T12:13:32Z</time></trkpt><trkpt lat="44.79931310462633" lon="9.655967832826754"><ele>728.75</ele><time>2026-05-03T12:13:33Z</time></trkpt><trkpt lat="44.7992371815031" lon="9.655829475181605"><ele>730.5</ele><time>2026-05-03T12:13:34Z</time></trkpt><trkpt lat="44.79916447200885" lon="9.655696375663995"><ele>732.25</ele><time>2026-05-03T12:13:35Z</time></trkpt><trkpt lat="44.79908724386318" lon="9.655567834884076"><ele>734.0</ele><time>2026-05-03T12:13:36Z</time></trkpt><trkpt lat="44.79899489425032" lon="9.655463422330584"><ele>734.0</ele><time>2026-05-03T12:13:37Z</time></trkpt><trkpt lat="44.79890376784444" lon="9.65533982950497"><ele>734.0</ele><time>2026-05-03T12:13:38Z</time></trkpt><trkpt lat="44.79880664166162" lon="9.655207911420172"><ele>734.0</ele><time>2026-05-03T12:13:39Z</time></trkpt><trkpt lat="44.79873902803983" lon="9.655087266818539"><ele>734.0</ele><time>2026-05-03T12:13:40Z</time></trkpt><trkpt lat="44.798665226263374" lon="9.654994847153429"><ele>733.5</ele><time>2026-05-03T12:13:41Z</time></trkpt><trkpt lat="44.79860498911168" lon="9.654924300335644"><ele>733.0</ele><time>2026-05-03T12:13:42Z</time></trkpt><trkpt lat="44.79853929792965" lon="9.654857043134436"><ele>732.5</ele><time>2026-05-03T12:13:43Z</time></trkpt><trkpt lat="44.7984784680384" lon="9.65480267537785"><ele>732.0</ele><time>2026-05-03T12:13:44Z</time></trkpt><trkpt lat="44.798403186423066" lon="9.654744298791426"><ele>731.5</ele><time>2026-05-03T12:13:46Z</time></trkpt><trkpt lat="44.79833020755692" lon="9.654692395290118"><ele>731.0</ele><time>2026-05-03T12:13:49Z</time></trkpt><trkpt lat="44.79825525004729" lon="9.654786376571073"><ele>731.0</ele><time>2026-05-03T12:15:09Z</time></trkpt><trkpt lat="44.79818515482351" lon="9.654800519350543"><ele>731.0</ele><time>2026-05-03T12:15:10Z</time></trkpt><trkpt lat="44.79810122572604" lon="9.654781704697053"><ele>731.0</ele><time>2026-05-03T12:15:11Z</time></trkpt><trkpt lat="44.79800902568891" lon="9.654736757310484"><ele>731.0</ele><time>2026-05-03T12:15:12Z</time></trkpt><trkpt lat="44.79790432371065" lon="9.654694307036323"><ele>731.0</ele><time>2026-05-03T12:15:13Z</time></trkpt><trkpt lat="44.7978153045656" lon="9.654652305164555"><ele>731.0</ele><time>2026-05-03T12:15:14Z</time></trkpt><trkpt lat="44.79773226398562" lon="9.654602242398"><ele>731.0</ele><time>2026-05-03T12:15:15Z</time></trkpt><trkpt lat="44.79764821226273" lon="9.65454486952939"><ele>731.0</ele><time>2026-05-03T12:15:16Z</time></trkpt><trkpt lat="44.79755758311172" lon="9.654491542789202"><ele>731.0</ele><time>2026-05-03T12:15:17Z</time></trkpt><trkpt lat="44.79746535154508" lon="9.654435513448785"><ele>731.0</ele><time>2026-05-03T12:15:18Z</time></trkpt><trkpt lat="44.797381300977726" lon="9.654386104059046"><ele>731.5999999999999</ele><time>2026-05-03T12:15:19Z</time></trkpt><trkpt lat="44.79730505970555" lon="9.654343520358545"><ele>732.2</ele><time>2026-05-03T12:15:20Z</time></trkpt><trkpt lat="44.79722250498815" lon="9.654296502226277"><ele>732.8</ele><time>2026-05-03T12:15:21Z</time></trkpt><trkpt lat="44.79712706904502" lon="9.654254679141399"><ele>733.4000000000001</ele><time>2026-05-03T12:15:22Z</time></trkpt><trkpt lat="44.79703124786808" lon="9.654231499709951"><ele>734.0</ele><time>2026-05-03T12:15:23Z</time></trkpt><trkpt lat="44.79694606134669" lon="9.654211539104397"><ele>734.0</ele><time>2026-05-03T12:15:24Z</time></trkpt><trkpt lat="44.796869950442414" lon="9.654163156917347"><ele>734.0</ele><time>2026-05-03T12:15:25Z</time></trkpt><trkpt lat="44.79680074447446" lon="9.654082247905595"><ele>734.0</ele><time>2026-05-03T12:15:26Z</time></trkpt><trkpt lat="44.79673317074454" lon="9.654010162857698"><ele>734.0</ele><time>2026-05-03T12:15:27Z</time></trkpt><trkpt lat="44.79667053735273" lon="9.653948633942038"><ele>734.0</ele><time>2026-05-03T12:15:28Z</time></trkpt><trkpt lat="44.79660521364515" lon="9.653895440218866"><ele>734.0</ele><time>2026-05-03T12:15:29Z</time></trkpt><trkpt lat="44.79654491238759" lon="9.653826693460331"><ele>733.6666666666666</ele><time>2026-05-03T12:15:30Z</time></trkpt><trkpt lat="44.79650304294712" lon="9.653758796314534"><ele>733.3333333333333</ele><time>2026-05-03T12:15:31Z</time></trkpt><trkpt lat="44.79646126444279" lon="9.653680959649614"><ele>733.0</ele><time>2026-05-03T12:15:32Z</time></trkpt><trkpt lat="44.79643736764065" lon="9.653595789869083"><ele>732.6666666666666</ele><time>2026-05-03T12:15:33Z</time></trkpt><trkpt lat="44.79640718465769" lon="9.65348670816985"><ele>732.3333333333334</ele><time>2026-05-03T12:15:34Z</time></trkpt><trkpt lat="44.79636921754681" lon="9.653366059791315"><ele>732.0</ele><time>2026-05-03T12:15:35Z</time></trkpt><trkpt lat="44.7963364773154" lon="9.653266130420477"><ele>731.8333333333334</ele><time>2026-05-03T12:15:36Z</time></trkpt><trkpt lat="44.79630724676098" lon="9.653160974624312"><ele>731.6666666666666</ele><time>2026-05-03T12:15:37Z</time></trkpt><trkpt lat="44.79627306761722" lon="9.653054237762923"><ele>731.5</ele><time>2026-05-03T12:15:38Z</time></trkpt><trkpt lat="44.79623160663688" lon="9.652956096840414"><ele>731.3333333333333</ele><time>2026-05-03T12:15:39Z</time></trkpt><trkpt lat="44.79618131673611" lon="9.6528642090018"><ele>731.1666666666666</ele><time>2026-05-03T12:15:40Z</time></trkpt><trkpt lat="44.796088825266956" lon="9.65276126456734"><ele>731.0</ele><time>2026-05-03T12:15:42Z</time></trkpt><trkpt lat="44.79600980511872" lon="9.652743882082847"><ele>729.0</ele><time>2026-05-03T12:15:43Z</time></trkpt><trkpt lat="44.79590642371311" lon="9.65269489843918"><ele>727.0</ele><time>2026-05-03T12:15:44Z</time></trkpt><trkpt lat="44.79580693966143" lon="9.652663033949983"><ele>725.0</ele><time>2026-05-03T12:15:45Z</time></trkpt><trkpt lat="44.79570299124625" lon="9.652620801952668"><ele>723.0</ele><time>2026-05-03T12:15:46Z</time></trkpt><trkpt lat="44.795600888251926" lon="9.652573177095027"><ele>721.0</ele><time>2026-05-03T12:15:47Z</time></trkpt><trkpt lat="44.795495889313756" lon="9.652508054493156"><ele>721.0</ele><time>2026-05-03T12:15:48Z</time></trkpt><trkpt lat="44.79537163275918" lon="9.652462593383502"><ele>721.0</ele><time>2026-05-03T12:15:49Z</time></trkpt><trkpt lat="44.79524483074685" lon="9.652477862051322"><ele>721.0</ele><time>2026-05-03T12:15:50Z</time></trkpt><trkpt lat="44.79512814393469" lon="9.652483641263567"><ele>721.0</ele><time>2026-05-03T12:15:51Z</time></trkpt><trkpt lat="44.795010298856106" lon="9.652448440343807"><ele>719.75</ele><time>2026-05-03T12:15:52Z</time></trkpt><trkpt lat="44.794895576809594" lon="9.652397066958937"><ele>718.5</ele><time>2026-05-03T12:15:53Z</time></trkpt><trkpt lat="44.7947749521303" lon="9.65233884635343"><ele>717.25</ele><time>2026-05-03T12:15:54Z</time></trkpt><trkpt lat="44.7946592227475" lon="9.652295640575444"><ele>716.0</ele><time>2026-05-03T12:15:55Z</time></trkpt><trkpt lat="44.79454057236475" lon="9.652272714410906"><ele>716.0</ele><time>2026-05-03T12:15:56Z</time></trkpt><trkpt lat="44.79442947479061" lon="9.652282146886717"><ele>716.0</ele><time>2026-05-03T12:15:57Z</time></trkpt><trkpt lat="44.79431758020793" lon="9.652319535079432"><ele>716.0</ele><time>2026-05-03T12:15:58Z</time></trkpt><trkpt lat="44.794206883879106" lon="9.652375424561557"><ele>716.0</ele><time>2026-05-03T12:15:59Z</time></trkpt><trkpt lat="44.79410597643459" lon="9.652421766951498"><ele>715.8333333333333</ele><time>2026-05-03T12:16:00Z</time></trkpt><trkpt lat="44.79401078035429" lon="9.652427665596134"><ele>715.6666666666666</ele><time>2026-05-03T12:16:01Z</time></trkpt><trkpt lat="44.79394351750997" lon="9.65239459077369"><ele>715.5</ele><time>2026-05-03T12:16:02Z</time></trkpt><trkpt lat="44.793877349106374" lon="9.652333026680687"><ele>715.3333333333334</ele><time>2026-05-03T12:16:03Z</time></trkpt><trkpt lat="44.79380805475226" lon="9.65225962031818"><ele>715.1666666666667</ele><time>2026-05-03T12:16:04Z</time></trkpt><trkpt lat="44.793735888045866" lon="9.65216693253296"><ele>715.0</ele><time>2026-05-03T12:16:05Z</time></trkpt><trkpt lat="44.79366988558536" lon="9.652093407862328"><ele>715.0</ele><time>2026-05-03T12:16:06Z</time></trkpt><trkpt lat="44.793582930027576" lon="9.652011806813533"><ele>715.0</ele><time>2026-05-03T12:16:07Z</time></trkpt><trkpt lat="44.793509435334826" lon="9.651926174490201"><ele>715.0</ele><time>2026-05-03T12:16:08Z</time></trkpt><trkpt lat="44.793427703832386" lon="9.651828654127417"><ele>715.0</ele><time>2026-05-03T12:16:09Z</time></trkpt><trkpt lat="44.79333021121051" lon="9.651730500196111"><ele>715.0</ele><time>2026-05-03T12:16:10Z</time></trkpt><trkpt lat="44.79323108141456" lon="9.651659259738896"><ele>715.8</ele><time>2026-05-03T12:16:11Z</time></trkpt><trkpt lat="44.793134236381746" lon="9.651591574110828"><ele>716.6</ele><time>2026-05-03T12:16:12Z</time></trkpt><trkpt lat="44.7930491360096" lon="9.651540640866113"><ele>717.4000000000001</ele><time>2026-05-03T12:16:13Z</time></trkpt><trkpt lat="44.79296175897912" lon="9.651481999382208"><ele>718.2</ele><time>2026-05-03T12:16:14Z</time></trkpt><trkpt lat="44.79288709732056" lon="9.651432303161265"><ele>719.0</ele><time>2026-05-03T12:16:15Z</time></trkpt><trkpt lat="44.792817681318446" lon="9.651364013121563"><ele>719.0</ele><time>2026-05-03T12:16:16Z</time></trkpt><trkpt lat="44.79276150556304" lon="9.651307650897383"><ele>719.0</ele><time>2026-05-03T12:16:17Z</time></trkpt><trkpt lat="44.792708457781636" lon="9.651249122617505"><ele>719.0</ele><time>2026-05-03T12:16:18Z</time></trkpt><trkpt lat="44.79263655203382" lon="9.651161295859614"><ele>719.0</ele><time>2026-05-03T12:16:20Z</time></trkpt><trkpt lat="44.792523456886634" lon="9.65105379907488"><ele>719.0</ele><time>2026-05-03T12:16:22Z</time></trkpt><trkpt lat="44.79245308731907" lon="9.65100428134567"><ele>719.0</ele><time>2026-05-03T12:16:23Z</time></trkpt><trkpt lat="44.79236705085465" lon="9.650932253701374"><ele>720.4000000000001</ele><time>2026-05-03T12:16:24Z</time></trkpt><trkpt lat="44.79227816251446" lon="9.650866550175438"><ele>721.8</ele><time>2026-05-03T12:16:25Z</time></trkpt><trkpt lat="44.79217370379483" lon="9.650792535829959"><ele>723.2</ele><time>2026-05-03T12:16:26Z</time></trkpt><trkpt lat="44.7920811803041" lon="9.65073189749031"><ele>724.5999999999999</ele><time>2026-05-03T12:16:27Z</time></trkpt><trkpt lat="44.79199943445716" lon="9.650670954963775"><ele>726.0</ele><time>2026-05-03T12:16:28Z</time></trkpt><trkpt lat="44.7919379126169" lon="9.650638958307248"><ele>724.8</ele><time>2026-05-03T12:16:29Z</time></trkpt><trkpt lat="44.791839406048005" lon="9.650575971811447"><ele>723.5999999999999</ele><time>2026-05-03T12:16:31Z</time></trkpt><trkpt lat="44.7917774062424" lon="9.650530191456088"><ele>722.4</ele><time>2026-05-03T12:16:32Z</time></trkpt><trkpt lat="44.79171205833581" lon="9.6504640461311"><ele>721.2</ele><time>2026-05-03T12:16:33Z</time></trkpt><trkpt lat="44.79163571979754" lon="9.650380456861393"><ele>720.0</ele><time>2026-05-03T12:16:34Z</time></trkpt><trkpt lat="44.79156208472306" lon="9.65029120423149"><ele>722.1666666666666</ele><time>2026-05-03T12:16:35Z</time></trkpt><trkpt lat="44.79149345297495" lon="9.650224520663697"><ele>724.3333333333334</ele><time>2026-05-03T12:16:36Z</time></trkpt><trkpt lat="44.79143368190174" lon="9.650150780101459"><ele>726.5</ele><time>2026-05-03T12:16:37Z</time></trkpt><trkpt lat="44.791378136211435" lon="9.650062601588461"><ele>728.6666666666667</ele><time>2026-05-03T12:16:38Z</time></trkpt><trkpt lat="44.791316531337394" lon="9.649980336041533"><ele>730.8333333333334</ele><time>2026-05-03T12:16:39Z</time></trkpt><trkpt lat="44.79127766031801" lon="9.649890241747535"><ele>733.0</ele><time>2026-05-03T12:16:40Z</time></trkpt><trkpt lat="44.79124935136827" lon="9.649805677228068"><ele>733.0</ele><time>2026-05-03T12:16:41Z</time></trkpt><trkpt lat="44.791219563669046" lon="9.64971041460729"><ele>733.0</ele><time>2026-05-03T12:16:42Z</time></trkpt><trkpt lat="44.79115432665696" lon="9.649580898404635"><ele>733.0</ele><time>2026-05-03T12:16:44Z</time></trkpt><trkpt lat="44.79109207562452" lon="9.649523436713864"><ele>733.0</ele><time>2026-05-03T12:16:45Z</time></trkpt><trkpt lat="44.791024376570455" lon="9.649478902195197"><ele>733.0</ele><time>2026-05-03T12:16:46Z</time></trkpt><trkpt lat="44.79093586018137" lon="9.649444381456764"><ele>733.0</ele><time>2026-05-03T12:16:47Z</time></trkpt><trkpt lat="44.79084895464798" lon="9.649444189230682"><ele>730.0</ele><time>2026-05-03T12:16:48Z</time></trkpt><trkpt lat="44.79073675249878" lon="9.649461006690043"><ele>727.0</ele><time>2026-05-03T12:16:49Z</time></trkpt><trkpt lat="44.79062468700463" lon="9.649496966005199"><ele>724.0</ele><time>2026-05-03T12:16:50Z</time></trkpt><trkpt lat="44.790515608298016" lon="9.649530035624432"><ele>721.0</ele><time>2026-05-03T12:16:51Z</time></trkpt><trkpt lat="44.79041778482742" lon="9.64954528461371"><ele>718.0</ele><time>2026-05-03T12:16:52Z</time></trkpt><trkpt lat="44.79032553065866" lon="9.64955031734126"><ele>718.0</ele><time>2026-05-03T12:16:53Z</time></trkpt><trkpt lat="44.79022028012102" lon="9.6495735466739"><ele>718.0</ele><time>2026-05-03T12:16:54Z</time></trkpt><trkpt lat="44.79012537237521" lon="9.649590132336389"><ele>718.0</ele><time>2026-05-03T12:16:55Z</time></trkpt><trkpt lat="44.79003494283158" lon="9.649589139895781"><ele>718.0</ele><time>2026-05-03T12:16:56Z</time></trkpt><trkpt lat="44.78995282578006" lon="9.649566397447538"><ele>718.0</ele><time>2026-05-03T12:16:57Z</time></trkpt><trkpt lat="44.78987339544372" lon="9.649534533994395"><ele>716.8333333333334</ele><time>2026-05-03T12:16:58Z</time></trkpt><trkpt lat="44.78979816210384" lon="9.64948889069489"><ele>715.6666666666667</ele><time>2026-05-03T12:16:59Z</time></trkpt><trkpt lat="44.789701561659" lon="9.649452978013507"><ele>714.5</ele><time>2026-05-03T12:17:00Z</time></trkpt><trkpt lat="44.789622129836566" lon="9.649408200758192"><ele>713.3333333333334</ele><time>2026-05-03T12:17:01Z</time></trkpt><trkpt lat="44.789544336410806" lon="9.649366444425807"><ele>712.1666666666666</ele><time>2026-05-03T12:17:02Z</time></trkpt><trkpt lat="44.78947990744369" lon="9.649325460028189"><ele>711.0</ele><time>2026-05-03T12:17:03Z</time></trkpt><trkpt lat="44.78941305258015" lon="9.649273910472214"><ele>711.5</ele><time>2026-05-03T12:17:04Z</time></trkpt><trkpt lat="44.78934611651133" lon="9.649140198738813"><ele>712.0</ele><time>2026-05-03T12:17:06Z</time></trkpt><trkpt lat="44.789293968444625" lon="9.648976494590594"><ele>712.5</ele><time>2026-05-03T12:17:08Z</time></trkpt><trkpt lat="44.78923851451943" lon="9.648825884437246"><ele>713.0</ele><time>2026-05-03T12:17:10Z</time></trkpt><trkpt lat="44.78917010844127" lon="9.64869852271648"><ele>713.0</ele><time>2026-05-03T12:17:12Z</time></trkpt><trkpt lat="44.78911509793692" lon="9.648627004328722"><ele>713.0</ele><time>2026-05-03T12:17:13Z</time></trkpt><trkpt lat="44.78906091519712" lon="9.648541877286073"><ele>713.0</ele><time>2026-05-03T12:17:14Z</time></trkpt><trkpt lat="44.789007870312524" lon="9.648440590125057"><ele>713.0</ele><time>2026-05-03T12:17:15Z</time></trkpt><trkpt lat="44.78893748868504" lon="9.648333774218118"><ele>713.0</ele><time>2026-05-03T12:17:16Z</time></trkpt><trkpt lat="44.788870980453815" lon="9.648238021066508"><ele>713.0</ele><time>2026-05-03T12:17:17Z</time></trkpt><trkpt lat="44.78881496764603" lon="9.648132135626675"><ele>713.5</ele><time>2026-05-03T12:17:18Z</time></trkpt><trkpt lat="44.788761003757045" lon="9.648028914692876"><ele>714.0</ele><time>2026-05-03T12:17:19Z</time></trkpt><trkpt lat="44.7887135098011" lon="9.647938824794887"><ele>714.5</ele><time>2026-05-03T12:17:20Z</time></trkpt><trkpt lat="44.78865465105417" lon="9.647851349656879"><ele>715.0</ele><time>2026-05-03T12:17:21Z</time></trkpt><trkpt lat="44.78859080849956" lon="9.647779371138581"><ele>715.5</ele><time>2026-05-03T12:17:22Z</time></trkpt><trkpt lat="44.788529449451055" lon="9.647722320209933"><ele>716.0</ele><time>2026-05-03T12:17:23Z</time></trkpt><trkpt lat="44.78845656270647" lon="9.647680702193814"><ele>710.75</ele><time>2026-05-03T12:17:24Z</time></trkpt><trkpt lat="44.78834191962803" lon="9.647613583815351"><ele>705.5</ele><time>2026-05-03T12:17:26Z</time></trkpt><trkpt lat="44.78826231004169" lon="9.6475653941402"><ele>700.25</ele><time>2026-05-03T12:17:27Z</time></trkpt><trkpt lat="44.788153168087916" lon="9.647512381029678"><ele>695.0</ele><time>2026-05-03T12:17:28Z</time></trkpt><trkpt lat="44.78803350739575" lon="9.647444070325554"><ele>695.0</ele><time>2026-05-03T12:17:29Z</time></trkpt><trkpt lat="44.78792205936563" lon="9.647362471371256"><ele>695.0</ele><time>2026-05-03T12:17:30Z</time></trkpt><trkpt lat="44.787831436017335" lon="9.647291171348757"><ele>695.0</ele><time>2026-05-03T12:17:31Z</time></trkpt><trkpt lat="44.78773818021064" lon="9.647233458002397"><ele>695.0</ele><time>2026-05-03T12:17:32Z</time></trkpt><trkpt lat="44.78765176462467" lon="9.647184177688484"><ele>695.0</ele><time>2026-05-03T12:17:33Z</time></trkpt><trkpt lat="44.78757676209831" lon="9.647123642584317"><ele>693.4</ele><time>2026-05-03T12:17:34Z</time></trkpt><trkpt lat="44.787492993946124" lon="9.647065589793314"><ele>691.8</ele><time>2026-05-03T12:17:35Z</time></trkpt><trkpt lat="44.78739712445332" lon="9.647021248425267"><ele>690.2</ele><time>2026-05-03T12:17:36Z</time></trkpt><trkpt lat="44.78728937188524" lon="9.646975134303249"><ele>688.6</ele><time>2026-05-03T12:17:37Z</time></trkpt><trkpt lat="44.787180718787525" lon="9.646950853775198"><ele>687.0</ele><time>2026-05-03T12:17:38Z</time></trkpt><trkpt lat="44.78707612124298" lon="9.646939663030409"><ele>687.0</ele><time>2026-05-03T12:17:39Z</time></trkpt><trkpt lat="44.7869715159571" lon="9.646947522842284"><ele>687.0</ele><time>2026-05-03T12:17:40Z</time></trkpt><trkpt lat="44.786870757242546" lon="9.646942567789454"><ele>687.0</ele><time>2026-05-03T12:17:41Z</time></trkpt><trkpt lat="44.78677876801685" lon="9.646940702166944"><ele>687.0</ele><time>2026-05-03T12:17:42Z</time></trkpt><trkpt lat="44.78669483603125" lon="9.646931125946015"><ele>687.0</ele><time>2026-05-03T12:17:43Z</time></trkpt><trkpt lat="44.786619840172584" lon="9.646901222217597"><ele>686.8</ele><time>2026-05-03T12:17:44Z</time></trkpt><trkpt lat="44.786539971577724" lon="9.646802869830864"><ele>686.6</ele><time>2026-05-03T12:17:46Z</time></trkpt><trkpt lat="44.78650456100824" lon="9.646703549352264"><ele>686.4</ele><time>2026-05-03T12:18:03Z</time></trkpt><trkpt lat="44.78640827728503" lon="9.64665909659373"><ele>686.1999999999999</ele><time>2026-05-03T12:18:05Z</time></trkpt><trkpt lat="44.78632965885773" lon="9.646663407010285"><ele>686.0</ele><time>2026-05-03T12:18:06Z</time></trkpt><trkpt lat="44.78623549189855" lon="9.646633104844474"><ele>686.0</ele><time>2026-05-03T12:18:07Z</time></trkpt><trkpt lat="44.78612894362913" lon="9.646596735489224"><ele>686.0</ele><time>2026-05-03T12:18:08Z</time></trkpt><trkpt lat="44.7860362183194" lon="9.64656139626526"><ele>686.0</ele><time>2026-05-03T12:18:09Z</time></trkpt><trkpt lat="44.78593673111088" lon="9.646528846914954"><ele>686.0</ele><time>2026-05-03T12:18:10Z</time></trkpt><trkpt lat="44.78583559419868" lon="9.646494198969883"><ele>686.0</ele><time>2026-05-03T12:18:11Z</time></trkpt><trkpt lat="44.785742159439245" lon="9.64645758421664"><ele>685.1666666666666</ele><time>2026-05-03T12:18:12Z</time></trkpt><trkpt lat="44.78565862612091" lon="9.646433421137505"><ele>684.3333333333333</ele><time>2026-05-03T12:18:13Z</time></trkpt><trkpt lat="44.785587640979806" lon="9.646429576750764"><ele>683.5</ele><time>2026-05-03T12:18:14Z</time></trkpt><trkpt lat="44.7855172125005" lon="9.64642558081525"><ele>682.6666666666666</ele><time>2026-05-03T12:18:15Z</time></trkpt><trkpt lat="44.78542661638592" lon="9.64643145322303"><ele>681.8333333333334</ele><time>2026-05-03T12:18:16Z</time></trkpt><trkpt lat="44.78534179459993" lon="9.646430796648056"><ele>681.0</ele><time>2026-05-03T12:18:17Z</time></trkpt><trkpt lat="44.785271070479006" lon="9.6464312616715"><ele>681.0</ele><time>2026-05-03T12:18:18Z</time></trkpt><trkpt lat="44.78518928716244" lon="9.64640979142525"><ele>681.0</ele><time>2026-05-03T12:18:19Z</time></trkpt><trkpt lat="44.7851212441871" lon="9.646377530114709"><ele>681.0</ele><time>2026-05-03T12:18:20Z</time></trkpt><trkpt lat="44.785011935130434" lon="9.646329094594913"><ele>681.0</ele><time>2026-05-03T12:18:22Z</time></trkpt><trkpt lat="44.7849183745425" lon="9.646239758555206"><ele>681.0</ele><time>2026-05-03T12:18:24Z</time></trkpt><trkpt lat="44.78483046114314" lon="9.646131847161401"><ele>683.0</ele><time>2026-05-03T12:18:26Z</time></trkpt><trkpt lat="44.7847980572558" lon="9.646027881796982"><ele>685.0</ele><time>2026-05-03T12:18:28Z</time></trkpt><trkpt lat="44.78469557384884" lon="9.646001306198261"><ele>687.0</ele><time>2026-05-03T12:18:34Z</time></trkpt><trkpt lat="44.78464808714996" lon="9.645938955577204"><ele>689.0</ele><time>2026-05-03T12:18:35Z</time></trkpt><trkpt lat="44.78457105368638" lon="9.645846619829578"><ele>691.0</ele><time>2026-05-03T12:18:37Z</time></trkpt><trkpt lat="44.78447577376385" lon="9.645734061601772"><ele>691.0</ele><time>2026-05-03T12:18:39Z</time></trkpt><trkpt lat="44.784418145954675" lon="9.645672382390286"><ele>691.0</ele><time>2026-05-03T12:18:40Z</time></trkpt><trkpt lat="44.784326288485936" lon="9.645558482736774"><ele>691.0</ele><time>2026-05-03T12:18:42Z</time></trkpt><trkpt lat="44.78421613291043" lon="9.645456681435396"><ele>691.0</ele><time>2026-05-03T12:18:44Z</time></trkpt><trkpt lat="44.7841556932388" lon="9.645403687883855"><ele>691.0</ele><time>2026-05-03T12:18:45Z</time></trkpt><trkpt lat="44.78408872121395" lon="9.645340970931557"><ele>691.6666666666667</ele><time>2026-05-03T12:18:46Z</time></trkpt><trkpt lat="44.78403068418935" lon="9.645302425908733"><ele>692.3333333333334</ele><time>2026-05-03T12:18:47Z</time></trkpt><trkpt lat="44.78395727651278" lon="9.645236329794688"><ele>693.0</ele><time>2026-05-03T12:18:49Z</time></trkpt><trkpt lat="44.78391544921154" lon="9.645139737333109"><ele>693.6666666666666</ele><time>2026-05-03T12:18:50Z</time></trkpt><trkpt lat="44.783779405821015" lon="9.645077096160971"><ele>694.3333333333333</ele><time>2026-05-03T12:18:52Z</time></trkpt><trkpt lat="44.78371049119981" lon="9.645062085146593"><ele>695.0</ele><time>2026-05-03T12:18:53Z</time></trkpt><trkpt lat="44.78363381204852" lon="9.645042462635017"><ele>695.3333333333333</ele><time>2026-05-03T12:18:55Z</time></trkpt><trkpt lat="44.78357781218064" lon="9.644997548012965"><ele>695.6666666666666</ele><time>2026-05-03T12:18:57Z</time></trkpt><trkpt lat="44.78344793819953" lon="9.645005563587747"><ele>696.0</ele><time>2026-05-03T12:19:01Z</time></trkpt><trkpt lat="44.783358863418364" lon="9.645005646355647"><ele>696.3333333333334</ele><time>2026-05-03T12:19:02Z</time></trkpt><trkpt lat="44.78328418829512" lon="9.645004103612491"><ele>696.6666666666667</ele><time>2026-05-03T12:19:03Z</time></trkpt><trkpt lat="44.78321092643415" lon="9.645002447456765"><ele>697.0</ele><time>2026-05-03T12:19:04Z</time></trkpt><trkpt lat="44.78313324270706" lon="9.645027207840554"><ele>696.8333333333334</ele><time>2026-05-03T12:19:05Z</time></trkpt><trkpt lat="44.783056654569656" lon="9.645061421016136"><ele>696.6666666666667</ele><time>2026-05-03T12:19:06Z</time></trkpt><trkpt lat="44.78299151003284" lon="9.645123610652192"><ele>696.5</ele><time>2026-05-03T12:19:07Z</time></trkpt><trkpt lat="44.78293235929696" lon="9.645211659024834"><ele>696.3333333333334</ele><time>2026-05-03T12:19:08Z</time></trkpt><trkpt lat="44.782857714666115" lon="9.645297896074203"><ele>696.1666666666666</ele><time>2026-05-03T12:19:09Z</time></trkpt><trkpt lat="44.78278312664799" lon="9.645345182001059"><ele>696.0</ele><time>2026-05-03T12:19:10Z</time></trkpt><trkpt lat="44.78268686372908" lon="9.645411043173373"><ele>698.4</ele><time>2026-05-03T12:19:12Z</time></trkpt><trkpt lat="44.782646458667" lon="9.64548589700158"><ele>700.8</ele><time>2026-05-03T12:19:13Z</time></trkpt><trkpt lat="44.7825398106115" lon="9.645598853506996"><ele>703.1999999999999</ele><time>2026-05-03T12:19:15Z</time></trkpt><trkpt lat="44.78247332692099" lon="9.645653257018703"><ele>705.5999999999999</ele><time>2026-05-03T12:19:16Z</time></trkpt><trkpt lat="44.782341506200694" lon="9.645677075465107"><ele>708.0</ele><time>2026-05-03T12:19:18Z</time></trkpt><trkpt lat="44.78226395961584" lon="9.645684155940737"><ele>708.0</ele><time>2026-05-03T12:19:19Z</time></trkpt><trkpt lat="44.782192667308095" lon="9.645719957601786"><ele>708.0</ele><time>2026-05-03T12:19:20Z</time></trkpt><trkpt lat="44.782125272880684" lon="9.645782582435773"><ele>708.0</ele><time>2026-05-03T12:19:21Z</time></trkpt><trkpt lat="44.782070620306364" lon="9.645867491418999"><ele>708.0</ele><time>2026-05-03T12:19:22Z</time></trkpt><trkpt lat="44.78201380266925" lon="9.645938968750272"><ele>708.0</ele><time>2026-05-03T12:19:23Z</time></trkpt><trkpt lat="44.781919401217415" lon="9.64603083663485"><ele>708.0</ele><time>2026-05-03T12:19:25Z</time></trkpt><trkpt lat="44.78179851172986" lon="9.646075420335004"><ele>709.1666666666666</ele><time>2026-05-03T12:19:27Z</time></trkpt><trkpt lat="44.78171532623137" lon="9.646085150456754"><ele>710.3333333333334</ele><time>2026-05-03T12:19:28Z</time></trkpt><trkpt lat="44.781629956343096" lon="9.646106816219655"><ele>711.5</ele><time>2026-05-03T12:19:29Z</time></trkpt><trkpt lat="44.78154818671464" lon="9.646145062537276"><ele>712.6666666666667</ele><time>2026-05-03T12:19:30Z</time></trkpt><trkpt lat="44.78148516744209" lon="9.646200953217173"><ele>713.8333333333334</ele><time>2026-05-03T12:19:31Z</time></trkpt><trkpt lat="44.78144015913771" lon="9.64627736196987"><ele>715.0</ele><time>2026-05-03T12:19:32Z</time></trkpt><trkpt lat="44.78139312871288" lon="9.646376101129569"><ele>715.0</ele><time>2026-05-03T12:19:33Z</time></trkpt><trkpt lat="44.78135702028645" lon="9.646456638966024"><ele>715.0</ele><time>2026-05-03T12:19:34Z</time></trkpt><trkpt lat="44.78132369084665" lon="9.6465390074561"><ele>715.0</ele><time>2026-05-03T12:19:35Z</time></trkpt><trkpt lat="44.78127645754125" lon="9.646614078805417"><ele>715.0</ele><time>2026-05-03T12:19:36Z</time></trkpt><trkpt lat="44.781212760323015" lon="9.646641073062789"><ele>715.0</ele><time>2026-05-03T12:19:37Z</time></trkpt><trkpt lat="44.78113034076446" lon="9.646639564873727"><ele>715.0</ele><time>2026-05-03T12:19:38Z</time></trkpt><trkpt lat="44.78104344870121" lon="9.646624498381863"><ele>715.0</ele><time>2026-05-03T12:19:39Z</time></trkpt><trkpt lat="44.780956675787564" lon="9.646629597095448"><ele>716.0</ele><time>2026-05-03T12:19:40Z</time></trkpt><trkpt lat="44.7808733541441" lon="9.646643421282098"><ele>717.0</ele><time>2026-05-03T12:19:41Z</time></trkpt><trkpt lat="44.78079360394246" lon="9.646663537130479"><ele>718.0</ele><time>2026-05-03T12:19:42Z</time></trkpt><trkpt lat="44.78070645582063" lon="9.64670277915369"><ele>719.0</ele><time>2026-05-03T12:19:43Z</time></trkpt><trkpt lat="44.780607119572416" lon="9.646735519308358"><ele>720.0</ele><time>2026-05-03T12:19:44Z</time></trkpt><trkpt lat="44.78053383659388" lon="9.646758392492911"><ele>721.0</ele><time>2026-05-03T12:19:45Z</time></trkpt><trkpt lat="44.78045171564178" lon="9.646774265324078"><ele>721.0</ele><time>2026-05-03T12:19:46Z</time></trkpt><trkpt lat="44.780357826857035" lon="9.646773230966119"><ele>721.0</ele><time>2026-05-03T12:19:47Z</time></trkpt><trkpt lat="44.78026160962042" lon="9.646772604381205"><ele>721.0</ele><time>2026-05-03T12:19:48Z</time></trkpt><trkpt lat="44.78016423632862" lon="9.646791756268433"><ele>721.0</ele><time>2026-05-03T12:19:49Z</time></trkpt><trkpt lat="44.78006961859084" lon="9.64682936749253"><ele>721.0</ele><time>2026-05-03T12:19:50Z</time></trkpt><trkpt lat="44.77999127081139" lon="9.646891916581628"><ele>720.0</ele><time>2026-05-03T12:19:51Z</time></trkpt><trkpt lat="44.77990349009626" lon="9.646981549344817"><ele>719.0</ele><time>2026-05-03T12:19:52Z</time></trkpt><trkpt lat="44.779828709288736" lon="9.64709531545008"><ele>718.0</ele><time>2026-05-03T12:19:53Z</time></trkpt><trkpt lat="44.77975585665637" lon="9.647227740145956"><ele>717.0</ele><time>2026-05-03T12:19:54Z</time></trkpt><trkpt lat="44.77968516184044" lon="9.64732620001639"><ele>716.0</ele><time>2026-05-03T12:19:55Z</time></trkpt><trkpt lat="44.779608855252114" lon="9.647407432638566"><ele>716.0</ele><time>2026-05-03T12:19:56Z</time></trkpt><trkpt lat="44.779535846061016" lon="9.647476075768703"><ele>716.0</ele><time>2026-05-03T12:19:57Z</time></trkpt><trkpt lat="44.779465810012645" lon="9.647514612018927"><ele>716.0</ele><time>2026-05-03T12:19:58Z</time></trkpt><trkpt lat="44.77938469508514" lon="9.647523059119004"><ele>716.0</ele><time>2026-05-03T12:19:59Z</time></trkpt><trkpt lat="44.779291807369894" lon="9.647571327235227"><ele>716.0</ele><time>2026-05-03T12:20:00Z</time></trkpt><trkpt lat="44.779233513177715" lon="9.647620477365532"><ele>716.0</ele><time>2026-05-03T12:20:01Z</time></trkpt><trkpt lat="44.77914488270337" lon="9.647664196197798"><ele>716.3333333333333</ele><time>2026-05-03T12:20:02Z</time></trkpt><trkpt lat="44.779049879226406" lon="9.64769529485219"><ele>716.6666666666666</ele><time>2026-05-03T12:20:03Z</time></trkpt><trkpt lat="44.778988953658995" lon="9.647742591932392"><ele>717.0</ele><time>2026-05-03T12:20:04Z</time></trkpt><trkpt lat="44.77892537472401" lon="9.647812508175019"><ele>717.3333333333334</ele><time>2026-05-03T12:20:05Z</time></trkpt><trkpt lat="44.77883680072361" lon="9.647851036905273"><ele>717.6666666666667</ele><time>2026-05-03T12:20:06Z</time></trkpt><trkpt lat="44.778744684063476" lon="9.647848166265568"><ele>718.0</ele><time>2026-05-03T12:20:07Z</time></trkpt><trkpt lat="44.77866748810581" lon="9.647854186136435"><ele>718.0</ele><time>2026-05-03T12:20:08Z</time></trkpt><trkpt lat="44.77854210537536" lon="9.647912799775087"><ele>718.0</ele><time>2026-05-03T12:20:10Z</time></trkpt><trkpt lat="44.77846601103126" lon="9.647919288272202"><ele>718.0</ele><time>2026-05-03T12:20:11Z</time></trkpt><trkpt lat="44.77838564760097" lon="9.647949337428981"><ele>718.0</ele><time>2026-05-03T12:20:12Z</time></trkpt><trkpt lat="44.77832767489643" lon="9.647990148389066"><ele>718.0</ele><time>2026-05-03T12:20:13Z</time></trkpt><trkpt lat="44.77827100375418" lon="9.64804719665306"><ele>718.0</ele><time>2026-05-03T12:20:18Z</time></trkpt><trkpt lat="44.77820302462372" lon="9.64812907556411"><ele>718.8333333333334</ele><time>2026-05-03T12:20:26Z</time></trkpt><trkpt lat="44.77811467865157" lon="9.648235805612966"><ele>719.6666666666667</ele><time>2026-05-03T12:20:28Z</time></trkpt><trkpt lat="44.77805109524875" lon="9.648264963407737"><ele>720.5</ele><time>2026-05-03T12:20:29Z</time></trkpt><trkpt lat="44.777938469160624" lon="9.64826029319904"><ele>721.3333333333334</ele><time>2026-05-03T12:20:31Z</time></trkpt><trkpt lat="44.7778720557138" lon="9.64826854266439"><ele>722.1666666666666</ele><time>2026-05-03T12:20:32Z</time></trkpt><trkpt lat="44.777810191875844" lon="9.648227003154556"><ele>723.0</ele><time>2026-05-03T12:20:33Z</time></trkpt><trkpt lat="44.77773618926749" lon="9.648203902504216"><ele>722.3333333333334</ele><time>2026-05-03T12:20:34Z</time></trkpt><trkpt lat="44.777672578487895" lon="9.648235197898478"><ele>721.6666666666666</ele><time>2026-05-03T12:20:35Z</time></trkpt><trkpt lat="44.77759086553485" lon="9.648272734316429"><ele>721.0</ele><time>2026-05-03T12:20:36Z</time></trkpt><trkpt lat="44.77750174686969" lon="9.648288976232834"><ele>720.3333333333333</ele><time>2026-05-03T12:20:37Z</time></trkpt><trkpt lat="44.777422601959714" lon="9.648304371723512"><ele>719.6666666666666</ele><time>2026-05-03T12:20:38Z</time></trkpt><trkpt lat="44.777337263448594" lon="9.648300452431515"><ele>719.0</ele><time>2026-05-03T12:20:40Z</time></trkpt><trkpt lat="44.77726238261057" lon="9.648273252575128"><ele>719.0</ele><time>2026-05-03T12:20:41Z</time></trkpt><trkpt lat="44.77716853012561" lon="9.648269170413622"><ele>719.0</ele><time>2026-05-03T12:20:43Z</time></trkpt><trkpt lat="44.77706673657012" lon="9.648201461660713"><ele>719.0</ele><time>2026-05-03T12:20:45Z</time></trkpt><trkpt lat="44.77697306824775" lon="9.648194110015485"><ele>719.0</ele><time>2026-05-03T12:20:46Z</time></trkpt><trkpt lat="44.776883459219" lon="9.648206205094235"><ele>719.0</ele><time>2026-05-03T12:20:47Z</time></trkpt><trkpt lat="44.77677671368329" lon="9.648226941186017"><ele>719.4000000000001</ele><time>2026-05-03T12:20:48Z</time></trkpt><trkpt lat="44.77668930399514" lon="9.648212860994"><ele>719.8</ele><time>2026-05-03T12:20:49Z</time></trkpt><trkpt lat="44.77662491368956" lon="9.64818511830248"><ele>720.2</ele><time>2026-05-03T12:20:50Z</time></trkpt><trkpt lat="44.776512779480974" lon="9.648161393453066"><ele>720.5999999999999</ele><time>2026-05-03T12:20:52Z</time></trkpt><trkpt lat="44.77639477764719" lon="9.648212220369349"><ele>721.0</ele><time>2026-05-03T12:20:54Z</time></trkpt><trkpt lat="44.77631660108311" lon="9.648272214095458"><ele>721.0</ele><time>2026-05-03T12:20:55Z</time></trkpt><trkpt lat="44.776233151300424" lon="9.648322551249644"><ele>721.0</ele><time>2026-05-03T12:20:56Z</time></trkpt><trkpt lat="44.77613418048105" lon="9.648408153079941"><ele>721.0</ele><time>2026-05-03T12:20:57Z</time></trkpt><trkpt lat="44.77606277137865" lon="9.648451973021691"><ele>721.0</ele><time>2026-05-03T12:20:58Z</time></trkpt><trkpt lat="44.77593873481735" lon="9.648508506695089"><ele>721.0</ele><time>2026-05-03T12:21:00Z</time></trkpt><trkpt lat="44.775878644932966" lon="9.648540125250774"><ele>720.0</ele><time>2026-05-03T12:21:01Z</time></trkpt><trkpt lat="44.775766477380216" lon="9.648598912755974"><ele>719.0</ele><time>2026-05-03T12:21:03Z</time></trkpt><trkpt lat="44.77568770364667" lon="9.6486628903558"><ele>718.0</ele><time>2026-05-03T12:21:04Z</time></trkpt><trkpt lat="44.77559538249133" lon="9.648718613146233"><ele>717.0</ele><time>2026-05-03T12:21:05Z</time></trkpt><trkpt lat="44.775480200083194" lon="9.648710229616476"><ele>716.0</ele><time>2026-05-03T12:21:06Z</time></trkpt><trkpt lat="44.7753565086633" lon="9.648695213359277"><ele>715.75</ele><time>2026-05-03T12:21:07Z</time></trkpt><trkpt lat="44.77523429378579" lon="9.648683309341683"><ele>715.5</ele><time>2026-05-03T12:21:08Z</time></trkpt><trkpt lat="44.77511667813822" lon="9.648648096433307"><ele>715.25</ele><time>2026-05-03T12:21:09Z</time></trkpt><trkpt lat="44.77499896276058" lon="9.648621915965936"><ele>715.0</ele><time>2026-05-03T12:21:10Z</time></trkpt><trkpt lat="44.774877151567686" lon="9.648601798492992"><ele>714.0</ele><time>2026-05-03T12:21:11Z</time></trkpt><trkpt lat="44.77475530300035" lon="9.648572447338355"><ele>713.0</ele><time>2026-05-03T12:21:12Z</time></trkpt><trkpt lat="44.77464008541645" lon="9.648549215142301"><ele>712.0</ele><time>2026-05-03T12:21:13Z</time></trkpt><trkpt lat="44.77452616095933" lon="9.648528034074886"><ele>711.0</ele><time>2026-05-03T12:21:14Z</time></trkpt><trkpt lat="44.77442461642944" lon="9.648468204298974"><ele>712.25</ele><time>2026-05-03T12:21:15Z</time></trkpt><trkpt lat="44.77431515818559" lon="9.648435335101079"><ele>713.5</ele><time>2026-05-03T12:21:16Z</time></trkpt><trkpt lat="44.77419447193437" lon="9.64837481314646"><ele>714.75</ele><time>2026-05-03T12:21:17Z</time></trkpt><trkpt lat="44.774056362390816" lon="9.648327577669662"><ele>716.0</ele><time>2026-05-03T12:21:18Z</time></trkpt><trkpt lat="44.773907371753374" lon="9.64824710362728"><ele>716.0</ele><time>2026-05-03T12:21:19Z</time></trkpt><trkpt lat="44.773778536956236" lon="9.648200691993038"><ele>716.0</ele><time>2026-05-03T12:21:20Z</time></trkpt><trkpt lat="44.77366885862376" lon="9.648184920988992"><ele>716.0</ele><time>2026-05-03T12:21:21Z</time></trkpt><trkpt lat="44.77355422264313" lon="9.648143148319841"><ele>716.0</ele><time>2026-05-03T12:21:22Z</time></trkpt><trkpt lat="44.77345651647315" lon="9.648108215888318"><ele>716.5</ele><time>2026-05-03T12:21:23Z</time></trkpt><trkpt lat="44.773348688516464" lon="9.648082150278919"><ele>717.0</ele><time>2026-05-03T12:21:24Z</time></trkpt><trkpt lat="44.77326228452124" lon="9.648064547374153"><ele>717.5</ele><time>2026-05-03T12:21:25Z</time></trkpt><trkpt lat="44.77318710187435" lon="9.648019687497609"><ele>718.0</ele><time>2026-05-03T12:21:26Z</time></trkpt><trkpt lat="44.7731062578809" lon="9.648017610681203"><ele>718.5</ele><time>2026-05-03T12:21:27Z</time></trkpt><trkpt lat="44.77302132435317" lon="9.64798503652996"><ele>719.0</ele><time>2026-05-03T12:21:28Z</time></trkpt><trkpt lat="44.77292888690678" lon="9.647955952966738"><ele>719.0</ele><time>2026-05-03T12:21:30Z</time></trkpt><trkpt lat="44.77282058290146" lon="9.647934899423635"><ele>719.0</ele><time>2026-05-03T12:21:33Z</time></trkpt><trkpt lat="44.7727457562689" lon="9.647910010409921"><ele>719.0</ele><time>2026-05-03T12:21:35Z</time></trkpt><trkpt lat="44.77268156735544" lon="9.64788794520136"><ele>719.0</ele><time>2026-05-03T12:21:39Z</time></trkpt><trkpt lat="44.772588720353866" lon="9.647846114278371"><ele>719.0</ele><time>2026-05-03T12:21:42Z</time></trkpt><trkpt lat="44.77252621423627" lon="9.647826662610818"><ele>719.0</ele><time>2026-05-03T12:21:43Z</time></trkpt><trkpt lat="44.77243161096739" lon="9.647795136921689"><ele>719.6</ele><time>2026-05-03T12:21:45Z</time></trkpt><trkpt lat="44.7723370210172" lon="9.647762951608303"><ele>720.2</ele><time>2026-05-03T12:21:47Z</time></trkpt><trkpt lat="44.77226565816791" lon="9.647768444487694"><ele>720.8000000000001</ele><time>2026-05-03T12:21:49Z</time></trkpt><trkpt lat="44.772144289583515" lon="9.647783835350909"><ele>721.4000000000001</ele><time>2026-05-03T12:21:51Z</time></trkpt><trkpt lat="44.772025807977855" lon="9.647861436146389"><ele>722.0</ele><time>2026-05-03T12:21:54Z</time></trkpt><trkpt lat="44.77194903383079" lon="9.647923746977815"><ele>722.0</ele><time>2026-05-03T12:21:55Z</time></trkpt><trkpt lat="44.7718758127845" lon="9.647987477749606"><ele>722.0</ele><time>2026-05-03T12:21:56Z</time></trkpt><trkpt lat="44.771800468200794" lon="9.648064149435081"><ele>722.0</ele><time>2026-05-03T12:21:57Z</time></trkpt><trkpt lat="44.77172643315558" lon="9.648143963572053"><ele>722.0</ele><time>2026-05-03T12:21:58Z</time></trkpt><trkpt lat="44.77168123553943" lon="9.648224326047487"><ele>722.0</ele><time>2026-05-03T12:21:59Z</time></trkpt><trkpt lat="44.77162484995043" lon="9.648295925724817"><ele>722.0</ele><time>2026-05-03T12:22:00Z</time></trkpt><trkpt lat="44.771552607788855" lon="9.648371579892842"><ele>723.8</ele><time>2026-05-03T12:22:01Z</time></trkpt><trkpt lat="44.771465320309716" lon="9.648446320761273"><ele>725.6</ele><time>2026-05-03T12:22:02Z</time></trkpt><trkpt lat="44.771369336182524" lon="9.64851209501407"><ele>727.4</ele><time>2026-05-03T12:22:03Z</time></trkpt><trkpt lat="44.771269564151815" lon="9.648559605579893"><ele>729.1999999999999</ele><time>2026-05-03T12:22:04Z</time></trkpt><trkpt lat="44.77117478020498" lon="9.648582690194166"><ele>731.0</ele><time>2026-05-03T12:22:05Z</time></trkpt><trkpt lat="44.77108635189182" lon="9.648605827265143"><ele>731.5</ele><time>2026-05-03T12:22:06Z</time></trkpt><trkpt lat="44.77099335272437" lon="9.648627986523197"><ele>732.0</ele><time>2026-05-03T12:22:07Z</time></trkpt><trkpt lat="44.77088538016124" lon="9.648656676434372"><ele>732.5</ele><time>2026-05-03T12:22:08Z</time></trkpt><trkpt lat="44.77076661722083" lon="9.648697840083608"><ele>733.0</ele><time>2026-05-03T12:22:09Z</time></trkpt><trkpt lat="44.770649065139175" lon="9.648749138221765"><ele>733.0</ele><time>2026-05-03T12:22:10Z</time></trkpt><trkpt lat="44.77053215435305" lon="9.648802557843847"><ele>733.0</ele><time>2026-05-03T12:22:11Z</time></trkpt><trkpt lat="44.77043027081242" lon="9.64885493138255"><ele>733.0</ele><time>2026-05-03T12:22:12Z</time></trkpt><trkpt lat="44.770331214565374" lon="9.648902724289368"><ele>733.0</ele><time>2026-05-03T12:22:13Z</time></trkpt><trkpt lat="44.770230961497816" lon="9.648948062729573"><ele>733.0</ele><time>2026-05-03T12:22:14Z</time></trkpt><trkpt lat="44.77013415939775" lon="9.649004714147194"><ele>736.5</ele><time>2026-05-03T12:22:15Z</time></trkpt><trkpt lat="44.77003901188663" lon="9.64908601010419"><ele>740.0</ele><time>2026-05-03T12:22:16Z</time></trkpt><trkpt lat="44.76994238532888" lon="9.64915249781139"><ele>743.5</ele><time>2026-05-03T12:22:17Z</time></trkpt><trkpt lat="44.76986668989369" lon="9.64929219235295"><ele>747.0</ele><time>2026-05-03T12:22:18Z</time></trkpt><trkpt lat="44.76977817659496" lon="9.649399479798573"><ele>747.0</ele><time>2026-05-03T12:22:19Z</time></trkpt><trkpt lat="44.76970019293497" lon="9.649507772117012"><ele>747.0</ele><time>2026-05-03T12:22:20Z</time></trkpt><trkpt lat="44.769631873755756" lon="9.649597981822145"><ele>747.0</ele><time>2026-05-03T12:22:21Z</time></trkpt><trkpt lat="44.76956517432633" lon="9.649683154187793"><ele>747.0</ele><time>2026-05-03T12:22:22Z</time></trkpt><trkpt lat="44.769472739489835" lon="9.649758215046845"><ele>747.0</ele><time>2026-05-03T12:22:23Z</time></trkpt><trkpt lat="44.76936110482998" lon="9.64981636792039"><ele>748.2</ele><time>2026-05-03T12:22:24Z</time></trkpt><trkpt lat="44.76925069222924" lon="9.64985620939741"><ele>749.4000000000001</ele><time>2026-05-03T12:22:25Z</time></trkpt><trkpt lat="44.769147853293255" lon="9.649826462016293"><ele>750.5999999999999</ele><time>2026-05-03T12:22:26Z</time></trkpt><trkpt lat="44.76904645993089" lon="9.649767574367804"><ele>751.8</ele><time>2026-05-03T12:22:27Z</time></trkpt><trkpt lat="44.768939831133345" lon="9.64969532786617"><ele>753.0</ele><time>2026-05-03T12:22:28Z</time></trkpt><trkpt lat="44.768830089018536" lon="9.649629196995711"><ele>753.0</ele><time>2026-05-03T12:22:29Z</time></trkpt><trkpt lat="44.76871576891353" lon="9.649555257408224"><ele>753.0</ele><time>2026-05-03T12:22:30Z</time></trkpt><trkpt lat="44.76859384819241" lon="9.64951576202276"><ele>753.0</ele><time>2026-05-03T12:22:31Z</time></trkpt><trkpt lat="44.76846319864804" lon="9.64952545650194"><ele>753.0</ele><time>2026-05-03T12:22:32Z</time></trkpt><trkpt lat="44.768340534116774" lon="9.649569716666745"><ele>754.25</ele><time>2026-05-03T12:22:33Z</time></trkpt><trkpt lat="44.76821105376031" lon="9.64963739695428"><ele>755.5</ele><time>2026-05-03T12:22:34Z</time></trkpt><trkpt lat="44.768097415469725" lon="9.649713611337523"><ele>756.75</ele><time>2026-05-03T12:22:35Z</time></trkpt><trkpt lat="44.76798349836675" lon="9.64978881266042"><ele>758.0</ele><time>2026-05-03T12:22:36Z</time></trkpt><trkpt lat="44.76786630785114" lon="9.649854229923179"><ele>758.0</ele><time>2026-05-03T12:22:37Z</time></trkpt><trkpt lat="44.767744312012745" lon="9.64992569872617"><ele>758.0</ele><time>2026-05-03T12:22:38Z</time></trkpt><trkpt lat="44.767625357838796" lon="9.64999930964351"><ele>758.0</ele><time>2026-05-03T12:22:39Z</time></trkpt><trkpt lat="44.76750748990707" lon="9.650067710096371"><ele>758.0</ele><time>2026-05-03T12:22:40Z</time></trkpt><trkpt lat="44.767401661316825" lon="9.650147700668885"><ele>758.25</ele><time>2026-05-03T12:22:41Z</time></trkpt><trkpt lat="44.76729645239796" lon="9.650234973308748"><ele>758.5</ele><time>2026-05-03T12:22:42Z</time></trkpt><trkpt lat="44.76719162712782" lon="9.650323809772198"><ele>758.75</ele><time>2026-05-03T12:22:43Z</time></trkpt><trkpt lat="44.7670825043089" lon="9.650385734283327"><ele>759.0</ele><time>2026-05-03T12:22:44Z</time></trkpt><trkpt lat="44.76695595899439" lon="9.650430775566031"><ele>761.25</ele><time>2026-05-03T12:22:45Z</time></trkpt><trkpt lat="44.766817183114604" lon="9.650448571836186"><ele>763.5</ele><time>2026-05-03T12:22:46Z</time></trkpt><trkpt lat="44.76668430018929" lon="9.650452909720908"><ele>765.75</ele><time>2026-05-03T12:22:47Z</time></trkpt><trkpt lat="44.76654995790802" lon="9.650448508112449"><ele>768.0</ele><time>2026-05-03T12:22:48Z</time></trkpt><trkpt lat="44.76643931272733" lon="9.650444377953184"><ele>768.0</ele><time>2026-05-03T12:22:49Z</time></trkpt><trkpt lat="44.76633536144162" lon="9.650450594859587"><ele>768.0</ele><time>2026-05-03T12:22:50Z</time></trkpt><trkpt lat="44.766232210572454" lon="9.650499976276397"><ele>768.0</ele><time>2026-05-03T12:22:51Z</time></trkpt><trkpt lat="44.76614859457723" lon="9.650561988905258"><ele>768.0</ele><time>2026-05-03T12:22:52Z</time></trkpt><trkpt lat="44.76608569864409" lon="9.650624465515799"><ele>768.0</ele><time>2026-05-03T12:22:53Z</time></trkpt><trkpt lat="44.765990258216114" lon="9.650735970527503"><ele>769.4</ele><time>2026-05-03T12:22:55Z</time></trkpt><trkpt lat="44.76593413328473" lon="9.65080532124022"><ele>770.8</ele><time>2026-05-03T12:22:57Z</time></trkpt><trkpt lat="44.76595305299679" lon="9.65094700693954"><ele>772.2</ele><time>2026-05-03T12:23:29Z</time></trkpt><trkpt lat="44.76595658375366" lon="9.651072137055813"><ele>773.6</ele><time>2026-05-03T12:23:30Z</time></trkpt><trkpt lat="44.76594620036349" lon="9.651227220619482"><ele>775.0</ele><time>2026-05-03T12:23:31Z</time></trkpt><trkpt lat="44.765932310567145" lon="9.651389627465528"><ele>775.0</ele><time>2026-05-03T12:23:32Z</time></trkpt><trkpt lat="44.76591967155584" lon="9.651564723036467"><ele>775.0</ele><time>2026-05-03T12:23:33Z</time></trkpt><trkpt lat="44.76592049986527" lon="9.65173556801821"><ele>775.0</ele><time>2026-05-03T12:23:34Z</time></trkpt><trkpt lat="44.76596043930352" lon="9.651895195535985"><ele>775.0</ele><time>2026-05-03T12:23:35Z</time></trkpt><trkpt lat="44.76601993500552" lon="9.652039224365687"><ele>772.5</ele><time>2026-05-03T12:23:36Z</time></trkpt><trkpt lat="44.76609827683036" lon="9.652173640975375"><ele>770.0</ele><time>2026-05-03T12:23:37Z</time></trkpt><trkpt lat="44.766182409460136" lon="9.652311898011773"><ele>767.5</ele><time>2026-05-03T12:23:38Z</time></trkpt><trkpt lat="44.76627283694361" lon="9.652467712538776"><ele>765.0</ele><time>2026-05-03T12:23:39Z</time></trkpt><trkpt lat="44.76635579596907" lon="9.65262658465938"><ele>765.5</ele><time>2026-05-03T12:23:40Z</time></trkpt><trkpt lat="44.76642172472761" lon="9.652796224184442"><ele>766.0</ele><time>2026-05-03T12:23:41Z</time></trkpt><trkpt lat="44.76646395459151" lon="9.652974201465712"><ele>766.5</ele><time>2026-05-03T12:23:42Z</time></trkpt><trkpt lat="44.76648318758286" lon="9.653157042063434"><ele>767.0</ele><time>2026-05-03T12:23:43Z</time></trkpt><trkpt lat="44.76649365587723" lon="9.653343523781151"><ele>767.0</ele><time>2026-05-03T12:23:44Z</time></trkpt><trkpt lat="44.76651102748348" lon="9.653534716259296"><ele>767.0</ele><time>2026-05-03T12:23:45Z</time></trkpt><trkpt lat="44.76652533826363" lon="9.653719613478996"><ele>767.0</ele><time>2026-05-03T12:23:46Z</time></trkpt><trkpt lat="44.766537203862875" lon="9.653903080867863"><ele>767.0</ele><time>2026-05-03T12:23:47Z</time></trkpt><trkpt lat="44.766548371938065" lon="9.654074616475661"><ele>767.0</ele><time>2026-05-03T12:23:48Z</time></trkpt><trkpt lat="44.766566223394776" lon="9.654238693043704"><ele>767.0</ele><time>2026-05-03T12:23:49Z</time></trkpt><trkpt lat="44.766598378876914" lon="9.654400132573214"><ele>767.0</ele><time>2026-05-03T12:23:50Z</time></trkpt><trkpt lat="44.766648597341785" lon="9.654553027092735"><ele>767.0</ele><time>2026-05-03T12:23:51Z</time></trkpt><trkpt lat="44.766700645652534" lon="9.654720472588028"><ele>767.5</ele><time>2026-05-03T12:23:52Z</time></trkpt><trkpt lat="44.76675377398977" lon="9.654894409449057"><ele>768.0</ele><time>2026-05-03T12:23:53Z</time></trkpt><trkpt lat="44.76680054630797" lon="9.655061129793356"><ele>768.5</ele><time>2026-05-03T12:23:54Z</time></trkpt><trkpt lat="44.76684863341108" lon="9.65522565987024"><ele>769.0</ele><time>2026-05-03T12:23:55Z</time></trkpt><trkpt lat="44.76689803544821" lon="9.655399055833884"><ele>766.5</ele><time>2026-05-03T12:23:56Z</time></trkpt><trkpt lat="44.766931332370426" lon="9.655557415434632"><ele>764.0</ele><time>2026-05-03T12:23:57Z</time></trkpt><trkpt lat="44.76694641408886" lon="9.655744470603691"><ele>761.5</ele><time>2026-05-03T12:23:58Z</time></trkpt><trkpt lat="44.76693308967289" lon="9.65591657228458"><ele>759.0</ele><time>2026-05-03T12:23:59Z</time></trkpt><trkpt lat="44.76690836411255" lon="9.656109075075031"><ele>758.75</ele><time>2026-05-03T12:24:00Z</time></trkpt><trkpt lat="44.766889849430726" lon="9.656312120759296"><ele>758.5</ele><time>2026-05-03T12:24:01Z</time></trkpt><trkpt lat="44.76689590974597" lon="9.656462388720287"><ele>758.25</ele><time>2026-05-03T12:24:02Z</time></trkpt><trkpt lat="44.766905125070984" lon="9.656648355665439"><ele>758.0</ele><time>2026-05-03T12:24:03Z</time></trkpt><trkpt lat="44.76691810685224" lon="9.656840685538022"><ele>758.5</ele><time>2026-05-03T12:24:04Z</time></trkpt><trkpt lat="44.76693733595833" lon="9.657033452852922"><ele>759.0</ele><time>2026-05-03T12:24:05Z</time></trkpt><trkpt lat="44.76697714491954" lon="9.657228070520715"><ele>759.5</ele><time>2026-05-03T12:24:06Z</time></trkpt><trkpt lat="44.76702829844703" lon="9.657419409227632"><ele>760.0</ele><time>2026-05-03T12:24:07Z</time></trkpt><trkpt lat="44.76709469355246" lon="9.65759059161986"><ele>760.0</ele><time>2026-05-03T12:24:08Z</time></trkpt><trkpt lat="44.76718703303496" lon="9.65774101486405"><ele>760.0</ele><time>2026-05-03T12:24:09Z</time></trkpt><trkpt lat="44.76727547290885" lon="9.65787627791579"><ele>760.0</ele><time>2026-05-03T12:24:10Z</time></trkpt><trkpt lat="44.767324893253225" lon="9.658003296872504"><ele>760.0</ele><time>2026-05-03T12:24:11Z</time></trkpt><trkpt lat="44.76732818613687" lon="9.65813601981528"><ele>761.6666666666667</ele><time>2026-05-03T12:24:12Z</time></trkpt><trkpt lat="44.76730862712827" lon="9.658296455095028"><ele>763.3333333333334</ele><time>2026-05-03T12:24:13Z</time></trkpt><trkpt lat="44.7672943859223" lon="9.658470629040961"><ele>765.0</ele><time>2026-05-03T12:24:14Z</time></trkpt><trkpt lat="44.76727932040601" lon="9.658825106394323"><ele>765.0</ele><time>2026-05-03T12:24:16Z</time></trkpt><trkpt lat="44.767244439750854" lon="9.658980543262297"><ele>765.0</ele><time>2026-05-03T12:24:17Z</time></trkpt><trkpt lat="44.76718525485982" lon="9.659139432091447"><ele>765.0</ele><time>2026-05-03T12:24:18Z</time></trkpt><trkpt lat="44.767118976821585" lon="9.659278318200736"><ele>765.0</ele><time>2026-05-03T12:24:19Z</time></trkpt><trkpt lat="44.76706932136826" lon="9.659423052141463"><ele>766.0</ele><time>2026-05-03T12:24:20Z</time></trkpt><trkpt lat="44.76707421929413" lon="9.659586410960722"><ele>767.0</ele><time>2026-05-03T12:24:21Z</time></trkpt><trkpt lat="44.76711838151348" lon="9.659756230023055"><ele>768.0</ele><time>2026-05-03T12:24:22Z</time></trkpt><trkpt lat="44.76716646536668" lon="9.659926809799115"><ele>769.0</ele><time>2026-05-03T12:24:23Z</time></trkpt><trkpt lat="44.767201281226384" lon="9.660077518971294"><ele>769.0</ele><time>2026-05-03T12:24:24Z</time></trkpt><trkpt lat="44.76721903860967" lon="9.660237853136579"><ele>769.0</ele><time>2026-05-03T12:24:25Z</time></trkpt><trkpt lat="44.767225543040986" lon="9.660409955236538"><ele>769.0</ele><time>2026-05-03T12:24:26Z</time></trkpt><trkpt lat="44.767211134235254" lon="9.66057446854858"><ele>769.0</ele><time>2026-05-03T12:24:27Z</time></trkpt><trkpt lat="44.76718501664191" lon="9.660729967716716"><ele>768.8000000000001</ele><time>2026-05-03T12:24:28Z</time></trkpt><trkpt lat="44.76713242511267" lon="9.660845569726943"><ele>768.6</ele><time>2026-05-03T12:24:29Z</time></trkpt><trkpt lat="44.767047773119316" lon="9.660941183994225"><ele>768.4</ele><time>2026-05-03T12:24:30Z</time></trkpt><trkpt lat="44.76695321230075" lon="9.661041051547748"><ele>768.2</ele><time>2026-05-03T12:24:31Z</time></trkpt><trkpt lat="44.76685332689921" lon="9.661147152922611"><ele>768.0</ele><time>2026-05-03T12:24:32Z</time></trkpt><trkpt lat="44.76675590856697" lon="9.66125067750411"><ele>769.5999999999999</ele><time>2026-05-03T12:24:33Z</time></trkpt><trkpt lat="44.76667352533725" lon="9.661346271228734"><ele>771.1999999999999</ele><time>2026-05-03T12:24:34Z</time></trkpt><trkpt lat="44.7666131406175" lon="9.661457153243052"><ele>772.8</ele><time>2026-05-03T12:24:35Z</time></trkpt><trkpt lat="44.76658695619442" lon="9.661607260342175"><ele>774.4</ele><time>2026-05-03T12:24:36Z</time></trkpt><trkpt lat="44.76658316033407" lon="9.66177146863261"><ele>776.0</ele><time>2026-05-03T12:24:37Z</time></trkpt><trkpt lat="44.76655474925313" lon="9.661927169240526"><ele>775.0</ele><time>2026-05-03T12:24:38Z</time></trkpt><trkpt lat="44.76648620801893" lon="9.662062038422528"><ele>774.0</ele><time>2026-05-03T12:24:39Z</time></trkpt><trkpt lat="44.76641447295727" lon="9.662199534166684"><ele>773.0</ele><time>2026-05-03T12:24:40Z</time></trkpt><trkpt lat="44.76635693176639" lon="9.662362746944694"><ele>772.0</ele><time>2026-05-03T12:24:41Z</time></trkpt><trkpt lat="44.76630601554415" lon="9.662533114519826"><ele>772.0</ele><time>2026-05-03T12:24:42Z</time></trkpt><trkpt lat="44.76625581065822" lon="9.6626871327108"><ele>772.0</ele><time>2026-05-03T12:24:43Z</time></trkpt><trkpt lat="44.76620362531549" lon="9.662838184166093"><ele>772.0</ele><time>2026-05-03T12:24:44Z</time></trkpt><trkpt lat="44.76615474462695" lon="9.662980707529492"><ele>772.0</ele><time>2026-05-03T12:24:45Z</time></trkpt><trkpt lat="44.76612448325274" lon="9.663129292568176"><ele>773.25</ele><time>2026-05-03T12:24:46Z</time></trkpt><trkpt lat="44.76612787801421" lon="9.663290820498485"><ele>774.5</ele><time>2026-05-03T12:24:47Z</time></trkpt><trkpt lat="44.76616793168065" lon="9.663451267033585"><ele>775.75</ele><time>2026-05-03T12:24:48Z</time></trkpt><trkpt lat="44.76623373994764" lon="9.663600343270444"><ele>777.0</ele><time>2026-05-03T12:24:49Z</time></trkpt><trkpt lat="44.766307232911544" lon="9.663734381045547"><ele>778.0</ele><time>2026-05-03T12:24:50Z</time></trkpt><trkpt lat="44.76638293610517" lon="9.663870523476396"><ele>779.0</ele><time>2026-05-03T12:24:51Z</time></trkpt><trkpt lat="44.76646298615925" lon="9.664006470288273"><ele>780.0</ele><time>2026-05-03T12:24:52Z</time></trkpt><trkpt lat="44.7665473845772" lon="9.664139684636256"><ele>781.0</ele><time>2026-05-03T12:24:53Z</time></trkpt><trkpt lat="44.766634373941336" lon="9.664270948288209"><ele>781.0</ele><time>2026-05-03T12:24:54Z</time></trkpt><trkpt lat="44.7667240314104" lon="9.664405372922667"><ele>781.0</ele><time>2026-05-03T12:24:55Z</time></trkpt><trkpt lat="44.766792014199986" lon="9.664531864473156"><ele>781.0</ele><time>2026-05-03T12:24:56Z</time></trkpt><trkpt lat="44.76683186222403" lon="9.664667898266119"><ele>781.0</ele><time>2026-05-03T12:24:57Z</time></trkpt><trkpt lat="44.76683281603749" lon="9.664794077301638"><ele>781.0</ele><time>2026-05-03T12:24:58Z</time></trkpt><trkpt lat="44.766806677977485" lon="9.664937718580477"><ele>781.4</ele><time>2026-05-03T12:24:59Z</time></trkpt><trkpt lat="44.76677239239666" lon="9.66507897674822"><ele>781.8</ele><time>2026-05-03T12:25:00Z</time></trkpt><trkpt lat="44.76675951685011" lon="9.66522867212831"><ele>782.1999999999999</ele><time>2026-05-03T12:25:01Z</time></trkpt><trkpt lat="44.766782671161295" lon="9.665356538329146"><ele>782.5999999999999</ele><time>2026-05-03T12:25:02Z</time></trkpt><trkpt lat="44.766824793913855" lon="9.665479595611739"><ele>783.0</ele><time>2026-05-03T12:25:03Z</time></trkpt><trkpt lat="44.76688403738169" lon="9.665583539391104"><ele>783.0</ele><time>2026-05-03T12:25:04Z</time></trkpt><trkpt lat="44.76693215139192" lon="9.665680091613574"><ele>783.0</ele><time>2026-05-03T12:25:05Z</time></trkpt><trkpt lat="44.766953183794065" lon="9.66576489012276"><ele>783.0</ele><time>2026-05-03T12:25:06Z</time></trkpt><trkpt lat="44.76689901106972" lon="9.665826622261761"><ele>783.0</ele><time>2026-05-03T12:25:09Z</time></trkpt><trkpt lat="44.766808701361455" lon="9.66578751646872"><ele>783.0</ele><time>2026-05-03T12:25:11Z</time></trkpt><trkpt lat="44.76672751661206" lon="9.665712494235065"><ele>783.0</ele><time>2026-05-03T12:25:12Z</time></trkpt><trkpt lat="44.766636292749574" lon="9.665661639904627"><ele>784.4</ele><time>2026-05-03T12:25:13Z</time></trkpt><trkpt lat="44.766531876274065" lon="9.665630702317838"><ele>785.8</ele><time>2026-05-03T12:25:14Z</time></trkpt><trkpt lat="44.76642584628663" lon="9.665592840976677"><ele>787.2</ele><time>2026-05-03T12:25:15Z</time></trkpt><trkpt lat="44.76631974817952" lon="9.665545859433582"><ele>788.6</ele><time>2026-05-03T12:25:16Z</time></trkpt><trkpt lat="44.766211467036506" lon="9.66549962734451"><ele>790.0</ele><time>2026-05-03T12:25:17Z</time></trkpt><trkpt lat="44.76611088077861" lon="9.665436338017086"><ele>790.75</ele><time>2026-05-03T12:25:18Z</time></trkpt><trkpt lat="44.76600811897715" lon="9.665358094869028"><ele>791.5</ele><time>2026-05-03T12:25:19Z</time></trkpt><trkpt lat="44.765900544517635" lon="9.665286518795648"><ele>792.25</ele><time>2026-05-03T12:25:20Z</time></trkpt><trkpt lat="44.765791887649286" lon="9.665242394550214"><ele>793.0</ele><time>2026-05-03T12:25:21Z</time></trkpt><trkpt lat="44.76568108501921" lon="9.665230762529783"><ele>793.0</ele><time>2026-05-03T12:25:22Z</time></trkpt><trkpt lat="44.76556555848183" lon="9.665269855640194"><ele>793.0</ele><time>2026-05-03T12:25:23Z</time></trkpt><trkpt lat="44.76545062991727" lon="9.665324939007164"><ele>793.0</ele><time>2026-05-03T12:25:24Z</time></trkpt><trkpt lat="44.76533838973391" lon="9.665398732802318"><ele>793.0</ele><time>2026-05-03T12:25:25Z</time></trkpt><trkpt lat="44.765230530821114" lon="9.665495383304831"><ele>794.75</ele><time>2026-05-03T12:25:26Z</time></trkpt><trkpt lat="44.765113896087364" lon="9.665581684504176"><ele>796.5</ele><time>2026-05-03T12:25:27Z</time></trkpt><trkpt lat="44.764995334234335" lon="9.665662574104866"><ele>798.25</ele><time>2026-05-03T12:25:28Z</time></trkpt><trkpt lat="44.76488156220211" lon="9.665753156046696"><ele>800.0</ele><time>2026-05-03T12:25:29Z</time></trkpt><trkpt lat="44.764765372712866" lon="9.665849279439886"><ele>800.0</ele><time>2026-05-03T12:25:30Z</time></trkpt><trkpt lat="44.76464912335866" lon="9.665943792604825"><ele>800.0</ele><time>2026-05-03T12:25:31Z</time></trkpt><trkpt lat="44.76452679605371" lon="9.66603620343833"><ele>800.0</ele><time>2026-05-03T12:25:32Z</time></trkpt><trkpt lat="44.764407710167454" lon="9.666112025899814"><ele>800.0</ele><time>2026-05-03T12:25:33Z</time></trkpt><trkpt lat="44.76428673208792" lon="9.66618167991032"><ele>801.25</ele><time>2026-05-03T12:25:34Z</time></trkpt><trkpt lat="44.76416284726447" lon="9.666252472450742"><ele>802.5</ele><time>2026-05-03T12:25:35Z</time></trkpt><trkpt lat="44.764040220209594" lon="9.666329490780411"><ele>803.75</ele><time>2026-05-03T12:25:36Z</time></trkpt><trkpt lat="44.76392440979025" lon="9.666404294276564"><ele>805.0</ele><time>2026-05-03T12:25:37Z</time></trkpt><trkpt lat="44.763803359333494" lon="9.666463825797258"><ele>805.0</ele><time>2026-05-03T12:25:38Z</time></trkpt><trkpt lat="44.76367285418948" lon="9.666493574251055"><ele>805.0</ele><time>2026-05-03T12:25:39Z</time></trkpt><trkpt lat="44.76354199953692" lon="9.666479541626968"><ele>805.0</ele><time>2026-05-03T12:25:40Z</time></trkpt><trkpt lat="44.76341496631579" lon="9.666438555049771"><ele>805.0</ele><time>2026-05-03T12:25:41Z</time></trkpt><trkpt lat="44.76331436377866" lon="9.666373411931074"><ele>806.6</ele><time>2026-05-03T12:25:42Z</time></trkpt><trkpt lat="44.763244628391455" lon="9.666274770136573"><ele>808.2</ele><time>2026-05-03T12:25:43Z</time></trkpt><trkpt lat="44.763197828862715" lon="9.66614538820763"><ele>809.8</ele><time>2026-05-03T12:25:44Z</time></trkpt><trkpt lat="44.76317030904371" lon="9.666003941337992"><ele>811.4</ele><time>2026-05-03T12:25:45Z</time></trkpt><trkpt lat="44.76313101868084" lon="9.66586254686792"><ele>813.0</ele><time>2026-05-03T12:25:46Z</time></trkpt><trkpt lat="44.76307515826651" lon="9.665720939109777"><ele>815.5</ele><time>2026-05-03T12:25:47Z</time></trkpt><trkpt lat="44.763015644479715" lon="9.665576046473635"><ele>818.0</ele><time>2026-05-03T12:25:48Z</time></trkpt><trkpt lat="44.76296981377667" lon="9.66541728370671"><ele>820.5</ele><time>2026-05-03T12:25:49Z</time></trkpt><trkpt lat="44.76295437019943" lon="9.66524853361883"><ele>823.0</ele><time>2026-05-03T12:25:50Z</time></trkpt><trkpt lat="44.76298283637271" lon="9.665080875129819"><ele>825.5</ele><time>2026-05-03T12:25:51Z</time></trkpt><trkpt lat="44.76301758906781" lon="9.664917620673316"><ele>828.0</ele><time>2026-05-03T12:25:52Z</time></trkpt><trkpt lat="44.76303307822828" lon="9.664751173725183"><ele>830.5</ele><time>2026-05-03T12:25:53Z</time></trkpt><trkpt lat="44.76301364200341" lon="9.664597692175823"><ele>833.0</ele><time>2026-05-03T12:25:54Z</time></trkpt><trkpt lat="44.76294261374468" lon="9.664468395065716"><ele>835.0</ele><time>2026-05-03T12:25:55Z</time></trkpt><trkpt lat="44.76283503693744" lon="9.664382402768977"><ele>837.0</ele><time>2026-05-03T12:25:56Z</time></trkpt><trkpt lat="44.76270004741957" lon="9.664338699093587"><ele>839.0</ele><time>2026-05-03T12:25:57Z</time></trkpt><trkpt lat="44.762574592313456" lon="9.66428248827689"><ele>841.0</ele><time>2026-05-03T12:25:58Z</time></trkpt><trkpt lat="44.76245590823462" lon="9.66421174063982"><ele>841.0</ele><time>2026-05-03T12:25:59Z</time></trkpt><trkpt lat="44.762336177067795" lon="9.664140238182261"><ele>841.0</ele><time>2026-05-03T12:26:00Z</time></trkpt><trkpt lat="44.762219719839365" lon="9.664084726769886"><ele>841.0</ele><time>2026-05-03T12:26:01Z</time></trkpt><trkpt lat="44.76211972021593" lon="9.664041363053105"><ele>841.0</ele><time>2026-05-03T12:26:02Z</time></trkpt><trkpt lat="44.762044275664046" lon="9.663987384025509"><ele>841.0</ele><time>2026-05-03T12:26:03Z</time></trkpt><trkpt lat="44.76198893153876" lon="9.663914512372132"><ele>841.0</ele><time>2026-05-03T12:26:04Z</time></trkpt><trkpt lat="44.76195776595896" lon="9.663798171934797"><ele>841.0</ele><time>2026-05-03T12:26:05Z</time></trkpt><trkpt lat="44.76196196954895" lon="9.663642185084155"><ele>841.0</ele><time>2026-05-03T12:26:06Z</time></trkpt><trkpt lat="44.76197486748122" lon="9.663488843132177"><ele>841.0</ele><time>2026-05-03T12:26:07Z</time></trkpt><trkpt lat="44.761977266122244" lon="9.663335921034927"><ele>841.0</ele><time>2026-05-03T12:26:08Z</time></trkpt><trkpt lat="44.76197636819843" lon="9.663174838173024"><ele>842.75</ele><time>2026-05-03T12:26:09Z</time></trkpt><trkpt lat="44.76197747023973" lon="9.663005247089277"><ele>844.5</ele><time>2026-05-03T12:26:10Z</time></trkpt><trkpt lat="44.761965177889145" lon="9.662835641083223"><ele>846.25</ele><time>2026-05-03T12:26:11Z</time></trkpt><trkpt lat="44.76194066769402" lon="9.662665970326568"><ele>848.0</ele><time>2026-05-03T12:26:12Z</time></trkpt><trkpt lat="44.76190881405866" lon="9.662497679203463"><ele>848.25</ele><time>2026-05-03T12:26:13Z</time></trkpt><trkpt lat="44.76187299913015" lon="9.662329094184251"><ele>848.5</ele><time>2026-05-03T12:26:14Z</time></trkpt><trkpt lat="44.76183817359248" lon="9.662165214403478"><ele>848.75</ele><time>2026-05-03T12:26:15Z</time></trkpt><trkpt lat="44.76180182273527" lon="9.662015496796112"><ele>849.0</ele><time>2026-05-03T12:26:16Z</time></trkpt><trkpt lat="44.761770611195935" lon="9.661856744494427"><ele>850.75</ele><time>2026-05-03T12:26:17Z</time></trkpt><trkpt lat="44.761740739356455" lon="9.661694560244179"><ele>852.5</ele><time>2026-05-03T12:26:18Z</time></trkpt><trkpt lat="44.761705894437405" lon="9.661533041233895"><ele>854.25</ele><time>2026-05-03T12:26:19Z</time></trkpt><trkpt lat="44.76166872179063" lon="9.661372737570765"><ele>856.0</ele><time>2026-05-03T12:26:20Z</time></trkpt><trkpt lat="44.76162512570055" lon="9.661221202555646"><ele>858.25</ele><time>2026-05-03T12:26:21Z</time></trkpt><trkpt lat="44.76155995972728" lon="9.661085960348464"><ele>860.5</ele><time>2026-05-03T12:26:22Z</time></trkpt><trkpt lat="44.761461060074424" lon="9.660974786990566"><ele>862.75</ele><time>2026-05-03T12:26:23Z</time></trkpt><trkpt lat="44.76135326371424" lon="9.660882571674852"><ele>865.0</ele><time>2026-05-03T12:26:24Z</time></trkpt><trkpt lat="44.761236811541075" lon="9.660812104671518"><ele>865.0</ele><time>2026-05-03T12:26:25Z</time></trkpt><trkpt lat="44.76111314238705" lon="9.660790207890095"><ele>865.0</ele><time>2026-05-03T12:26:26Z</time></trkpt><trkpt lat="44.76098979638501" lon="9.66074826484599"><ele>865.0</ele><time>2026-05-03T12:26:27Z</time></trkpt><trkpt lat="44.76087409347895" lon="9.660680325868755"><ele>865.0</ele><time>2026-05-03T12:26:28Z</time></trkpt><trkpt lat="44.76076605401762" lon="9.660602733792485"><ele>865.25</ele><time>2026-05-03T12:26:29Z</time></trkpt><trkpt lat="44.76063839528873" lon="9.660577505113695"><ele>865.5</ele><time>2026-05-03T12:26:30Z</time></trkpt><trkpt lat="44.76051200746679" lon="9.660626590007084"><ele>865.75</ele><time>2026-05-03T12:26:31Z</time></trkpt><trkpt lat="44.7603868097356" lon="9.660689636103319"><ele>866.0</ele><time>2026-05-03T12:26:32Z</time></trkpt><trkpt lat="44.760260130236894" lon="9.660743345634543"><ele>867.0</ele><time>2026-05-03T12:26:33Z</time></trkpt><trkpt lat="44.76014299446145" lon="9.660797403400801"><ele>868.0</ele><time>2026-05-03T12:26:34Z</time></trkpt><trkpt lat="44.76003201849652" lon="9.660847202416907"><ele>869.0</ele><time>2026-05-03T12:26:35Z</time></trkpt><trkpt lat="44.759916700497854" lon="9.660891948849128"><ele>870.0</ele><time>2026-05-03T12:26:36Z</time></trkpt><trkpt lat="44.75981114166356" lon="9.660908125996018"><ele>870.0</ele><time>2026-05-03T12:26:37Z</time></trkpt><trkpt lat="44.759706148603684" lon="9.660886213503279"><ele>870.0</ele><time>2026-05-03T12:26:38Z</time></trkpt><trkpt lat="44.75959713136231" lon="9.660835917994518"><ele>870.0</ele><time>2026-05-03T12:26:39Z</time></trkpt><trkpt lat="44.759486108818884" lon="9.660749470842218"><ele>870.0</ele><time>2026-05-03T12:26:40Z</time></trkpt><trkpt lat="44.75937532584165" lon="9.660650869532727"><ele>870.75</ele><time>2026-05-03T12:26:41Z</time></trkpt><trkpt lat="44.759252592839886" lon="9.660593159270993"><ele>871.5</ele><time>2026-05-03T12:26:42Z</time></trkpt><trkpt lat="44.759128926163406" lon="9.660587653070838"><ele>872.25</ele><time>2026-05-03T12:26:43Z</time></trkpt><trkpt lat="44.75900250255605" lon="9.66062478224151"><ele>873.0</ele><time>2026-05-03T12:26:44Z</time></trkpt><trkpt lat="44.758896414068325" lon="9.660687222449036"><ele>873.0</ele><time>2026-05-03T12:26:45Z</time></trkpt><trkpt lat="44.75880004093486" lon="9.660739578023142"><ele>873.0</ele><time>2026-05-03T12:26:46Z</time></trkpt><trkpt lat="44.75870610743005" lon="9.66078708401759"><ele>873.0</ele><time>2026-05-03T12:26:47Z</time></trkpt><trkpt lat="44.758610094544736" lon="9.660858820765595"><ele>873.0</ele><time>2026-05-03T12:26:48Z</time></trkpt><trkpt lat="44.75851060792843" lon="9.660952501187753"><ele>873.0</ele><time>2026-05-03T12:26:49Z</time></trkpt><trkpt lat="44.758403355486195" lon="9.661052141138361"><ele>871.75</ele><time>2026-05-03T12:26:50Z</time></trkpt><trkpt lat="44.75829769412938" lon="9.66115520028754"><ele>870.5</ele><time>2026-05-03T12:26:51Z</time></trkpt><trkpt lat="44.758184776342084" lon="9.661243960525468"><ele>869.25</ele><time>2026-05-03T12:26:52Z</time></trkpt><trkpt lat="44.758073615827726" lon="9.661326810392058"><ele>868.0</ele><time>2026-05-03T12:26:53Z</time></trkpt><trkpt lat="44.75798100035659" lon="9.66139364722382"><ele>868.0</ele><time>2026-05-03T12:26:54Z</time></trkpt><trkpt lat="44.75789563640688" lon="9.661457919457572"><ele>868.0</ele><time>2026-05-03T12:26:55Z</time></trkpt><trkpt lat="44.757823869936935" lon="9.661527051317767"><ele>868.0</ele><time>2026-05-03T12:26:56Z</time></trkpt><trkpt lat="44.75775429441937" lon="9.661621995568801"><ele>868.0</ele><time>2026-05-03T12:26:57Z</time></trkpt><trkpt lat="44.75769305357164" lon="9.66173678829569"><ele>868.0</ele><time>2026-05-03T12:26:58Z</time></trkpt><trkpt lat="44.75764694456763" lon="9.661864043334173"><ele>870.5999999999999</ele><time>2026-05-03T12:26:59Z</time></trkpt><trkpt lat="44.75760330398554" lon="9.662004324953473"><ele>873.1999999999999</ele><time>2026-05-03T12:27:00Z</time></trkpt><trkpt lat="44.75754937311577" lon="9.66214522757558"><ele>875.8</ele><time>2026-05-03T12:27:01Z</time></trkpt><trkpt lat="44.75748503574094" lon="9.662281195814607"><ele>878.4</ele><time>2026-05-03T12:27:02Z</time></trkpt><trkpt lat="44.75741465368381" lon="9.662400604106935"><ele>881.0</ele><time>2026-05-03T12:27:03Z</time></trkpt><trkpt lat="44.75734379657751" lon="9.662501264113471"><ele>881.0000000000001</ele><time>2026-05-03T12:27:04Z</time></trkpt><trkpt lat="44.75727548739949" lon="9.662607574225857"><ele>881.0</ele><time>2026-05-03T12:27:05Z</time></trkpt><trkpt lat="44.75720844654615" lon="9.662709207487305"><ele>881.0</ele><time>2026-05-03T12:27:06Z</time></trkpt><trkpt lat="44.75714423708429" lon="9.66281381164126"><ele>881.0</ele><time>2026-05-03T12:27:07Z</time></trkpt><trkpt lat="44.757095305266944" lon="9.662898903684601"><ele>881.0000000000001</ele><time>2026-05-03T12:27:08Z</time></trkpt><trkpt lat="44.75705002959767" lon="9.66297519978794"><ele>881.0</ele><time>2026-05-03T12:27:09Z</time></trkpt><trkpt lat="44.757004283963674" lon="9.663062088399949"><ele>880.1999999999999</ele><time>2026-05-03T12:27:10Z</time></trkpt><trkpt lat="44.756960715562236" lon="9.66316903062782"><ele>879.3999999999999</ele><time>2026-05-03T12:27:11Z</time></trkpt><trkpt lat="44.756910704224985" lon="9.663284047916898"><ele>878.6</ele><time>2026-05-03T12:27:12Z</time></trkpt><trkpt lat="44.75685881191593" lon="9.663403561123548"><ele>877.8</ele><time>2026-05-03T12:27:13Z</time></trkpt><trkpt lat="44.75681913405298" lon="9.663533560655155"><ele>877.0</ele><time>2026-05-03T12:27:14Z</time></trkpt><trkpt lat="44.756773460300536" lon="9.663668168395589"><ele>879.8</ele><time>2026-05-03T12:27:15Z</time></trkpt><trkpt lat="44.75672253123168" lon="9.663793174367582"><ele>882.6</ele><time>2026-05-03T12:27:16Z</time></trkpt><trkpt lat="44.756667090730346" lon="9.663918149571511"><ele>885.3999999999999</ele><time>2026-05-03T12:27:17Z</time></trkpt><trkpt lat="44.75659697839577" lon="9.664030621793206"><ele>888.1999999999999</ele><time>2026-05-03T12:27:18Z</time></trkpt><trkpt lat="44.756516284254324" lon="9.664111677814317"><ele>891.0</ele><time>2026-05-03T12:27:19Z</time></trkpt><trkpt lat="44.75642006772553" lon="9.66418017299086"><ele>891.0</ele><time>2026-05-03T12:27:20Z</time></trkpt><trkpt lat="44.75632020720397" lon="9.664254024541071"><ele>890.9999999999999</ele><time>2026-05-03T12:27:21Z</time></trkpt><trkpt lat="44.75621777464807" lon="9.664330160042027"><ele>890.9999999999999</ele><time>2026-05-03T12:27:22Z</time></trkpt><trkpt lat="44.75611613053313" lon="9.664404635323148"><ele>891.0</ele><time>2026-05-03T12:27:23Z</time></trkpt><trkpt lat="44.75603326294568" lon="9.66447367610029"><ele>891.0</ele><time>2026-05-03T12:27:24Z</time></trkpt><trkpt lat="44.755946399781564" lon="9.664547843193313"><ele>891.5999999999999</ele><time>2026-05-03T12:27:25Z</time></trkpt><trkpt lat="44.75586476580208" lon="9.664638467980025"><ele>892.1999999999999</ele><time>2026-05-03T12:27:26Z</time></trkpt><trkpt lat="44.75579513930549" lon="9.66475321178893"><ele>892.8000000000001</ele><time>2026-05-03T12:27:27Z</time></trkpt><trkpt lat="44.75572733581509" lon="9.664866203830533"><ele>893.4000000000001</ele><time>2026-05-03T12:27:28Z</time></trkpt><trkpt lat="44.75566444693761" lon="9.664960555357132"><ele>894.0</ele><time>2026-05-03T12:27:29Z</time></trkpt><trkpt lat="44.755592946270234" lon="9.665055042310918"><ele>894.0</ele><time>2026-05-03T12:27:30Z</time></trkpt><trkpt lat="44.755497924503246" lon="9.665124707432605"><ele>894.0000000000001</ele><time>2026-05-03T12:27:31Z</time></trkpt><trkpt lat="44.75539742502964" lon="9.665131123509811"><ele>894.0000000000001</ele><time>2026-05-03T12:27:32Z</time></trkpt><trkpt lat="44.75530103412501" lon="9.665110552325203"><ele>894.0</ele><time>2026-05-03T12:27:33Z</time></trkpt><trkpt lat="44.75520253039901" lon="9.665095718409717"><ele>894.0</ele><time>2026-05-03T12:27:34Z</time></trkpt><trkpt lat="44.75509935066325" lon="9.665079204034758"><ele>893.4000000000001</ele><time>2026-05-03T12:27:35Z</time></trkpt><trkpt lat="44.75499730825526" lon="9.66506571929102"><ele>892.8000000000001</ele><time>2026-05-03T12:27:36Z</time></trkpt><trkpt lat="44.7548930817593" lon="9.665073302035873"><ele>892.1999999999999</ele><time>2026-05-03T12:27:37Z</time></trkpt><trkpt lat="44.75478439066051" lon="9.665107693915374"><ele>891.5999999999999</ele><time>2026-05-03T12:27:38Z</time></trkpt><trkpt lat="44.754673970804696" lon="9.66517529346673"><ele>891.0</ele><time>2026-05-03T12:27:39Z</time></trkpt><trkpt lat="44.75456701563337" lon="9.665269542217656"><ele>890.75</ele><time>2026-05-03T12:27:40Z</time></trkpt><trkpt lat="44.754454565515" lon="9.665376891822582"><ele>890.5</ele><time>2026-05-03T12:27:41Z</time></trkpt><trkpt lat="44.75434378630987" lon="9.665497064775828"><ele>890.25</ele><time>2026-05-03T12:27:42Z</time></trkpt><trkpt lat="44.75423328567712" lon="9.665630093077237"><ele>890.0</ele><time>2026-05-03T12:27:43Z</time></trkpt><trkpt lat="44.75413299280487" lon="9.665775986164242"><ele>890.25</ele><time>2026-05-03T12:27:44Z</time></trkpt><trkpt lat="44.75405337872544" lon="9.665910222830563"><ele>890.5</ele><time>2026-05-03T12:27:45Z</time></trkpt><trkpt lat="44.753970267658545" lon="9.66605222333794"><ele>890.75</ele><time>2026-05-03T12:27:46Z</time></trkpt><trkpt lat="44.75388652180015" lon="9.666188234220025"><ele>891.0</ele><time>2026-05-03T12:27:47Z</time></trkpt><trkpt lat="44.753800636565025" lon="9.666327157221698"><ele>891.0</ele><time>2026-05-03T12:27:48Z</time></trkpt><trkpt lat="44.75370229682178" lon="9.666451355878337"><ele>891.0</ele><time>2026-05-03T12:27:49Z</time></trkpt><trkpt lat="44.75359333664407" lon="9.666558834040973"><ele>891.0</ele><time>2026-05-03T12:27:50Z</time></trkpt><trkpt lat="44.753485849333046" lon="9.666642763559384"><ele>891.0</ele><time>2026-05-03T12:27:51Z</time></trkpt><trkpt lat="44.75337435098002" lon="9.666700293801394"><ele>892.8</ele><time>2026-05-03T12:27:52Z</time></trkpt><trkpt lat="44.753265793881624" lon="9.666673912512623"><ele>894.5999999999999</ele><time>2026-05-03T12:27:53Z</time></trkpt><trkpt lat="44.75315986387611" lon="9.666633567768145"><ele>896.4</ele><time>2026-05-03T12:27:54Z</time></trkpt><trkpt lat="44.75305549483819" lon="9.666603343745335"><ele>898.2</ele><time>2026-05-03T12:27:55Z</time></trkpt><trkpt lat="44.75294879440488" lon="9.666576903959431"><ele>900.0</ele><time>2026-05-03T12:27:56Z</time></trkpt><trkpt lat="44.752840986596205" lon="9.666555812957428"><ele>900.0</ele><time>2026-05-03T12:27:57Z</time></trkpt><trkpt lat="44.752732931253085" lon="9.666542591162816"><ele>900.0</ele><time>2026-05-03T12:27:58Z</time></trkpt><trkpt lat="44.752617320937595" lon="9.66652796755274"><ele>900.0</ele><time>2026-05-03T12:27:59Z</time></trkpt><trkpt lat="44.75249696923974" lon="9.666511436656537"><ele>900.0</ele><time>2026-05-03T12:28:00Z</time></trkpt><trkpt lat="44.752371090790234" lon="9.666493638088813"><ele>900.0</ele><time>2026-05-03T12:28:01Z</time></trkpt><trkpt lat="44.752249721947116" lon="9.6664795514045"><ele>900.0</ele><time>2026-05-03T12:28:02Z</time></trkpt><trkpt lat="44.752127272890874" lon="9.666469017942314"><ele>900.0</ele><time>2026-05-03T12:28:03Z</time></trkpt><trkpt lat="44.75200268690104" lon="9.666453373421048"><ele>900.0</ele><time>2026-05-03T12:28:04Z</time></trkpt><trkpt lat="44.75186462520907" lon="9.66643535424294"><ele>901.0</ele><time>2026-05-03T12:28:05Z</time></trkpt><trkpt lat="44.751714079015166" lon="9.666412879022541"><ele>902.0</ele><time>2026-05-03T12:28:06Z</time></trkpt><trkpt lat="44.751550599071756" lon="9.666380208304897"><ele>903.0</ele><time>2026-05-03T12:28:07Z</time></trkpt><trkpt lat="44.75138218566862" lon="9.666341883312782"><ele>903.0</ele><time>2026-05-03T12:28:08Z</time></trkpt><trkpt lat="44.75120180528074" lon="9.66631252923221"><ele>903.0</ele><time>2026-05-03T12:28:09Z</time></trkpt><trkpt lat="44.751108324801386" lon="9.66629063001958"><ele>903.0</ele><time>2026-05-03T12:28:11Z</time></trkpt><trkpt lat="44.75100591375091" lon="9.666197246901666"><ele>903.0</ele><time>2026-05-03T12:28:12Z</time></trkpt><trkpt lat="44.75090996567661" lon="9.6660801477131"><ele>905.5</ele><time>2026-05-03T12:28:13Z</time></trkpt><trkpt lat="44.750813028441705" lon="9.665956330962457"><ele>908.0</ele><time>2026-05-03T12:28:14Z</time></trkpt><trkpt lat="44.75070996438487" lon="9.665834967457819"><ele>910.5</ele><time>2026-05-03T12:28:15Z</time></trkpt><trkpt lat="44.75060074629256" lon="9.665719475054567"><ele>913.0</ele><time>2026-05-03T12:28:16Z</time></trkpt><trkpt lat="44.75047771289337" lon="9.66561315400341"><ele>913.0</ele><time>2026-05-03T12:28:17Z</time></trkpt><trkpt lat="44.750361227069206" lon="9.665528274159923"><ele>913.0</ele><time>2026-05-03T12:28:18Z</time></trkpt><trkpt lat="44.75024829703327" lon="9.665436969575962"><ele>913.0</ele><time>2026-05-03T12:28:19Z</time></trkpt><trkpt lat="44.75014056342957" lon="9.665327091394213"><ele>913.0</ele><time>2026-05-03T12:28:20Z</time></trkpt><trkpt lat="44.75005089278343" lon="9.665215261426454"><ele>914.0</ele><time>2026-05-03T12:28:21Z</time></trkpt><trkpt lat="44.749972088524245" lon="9.665111296865291"><ele>915.0</ele><time>2026-05-03T12:28:22Z</time></trkpt><trkpt lat="44.74988289235594" lon="9.665011428556769"><ele>916.0</ele><time>2026-05-03T12:28:23Z</time></trkpt><trkpt lat="44.749777923349214" lon="9.664938109780474"><ele>917.0</ele><time>2026-05-03T12:28:24Z</time></trkpt><trkpt lat="44.74966136372803" lon="9.664871184050618"><ele>917.0</ele><time>2026-05-03T12:28:25Z</time></trkpt><trkpt lat="44.74954087176972" lon="9.66481106899572"><ele>917.0</ele><time>2026-05-03T12:28:26Z</time></trkpt><trkpt lat="44.74941846563862" lon="9.66476244410805"><ele>917.0</ele><time>2026-05-03T12:28:27Z</time></trkpt><trkpt lat="44.74929503238399" lon="9.664736267930342"><ele>917.0</ele><time>2026-05-03T12:28:28Z</time></trkpt><trkpt lat="44.74916877884186" lon="9.664738894087945"><ele>917.5</ele><time>2026-05-03T12:28:29Z</time></trkpt><trkpt lat="44.749038427082446" lon="9.66477676445161"><ele>918.0</ele><time>2026-05-03T12:28:30Z</time></trkpt><trkpt lat="44.74892333644096" lon="9.66483409384156"><ele>918.5</ele><time>2026-05-03T12:28:31Z</time></trkpt><trkpt lat="44.74881295529133" lon="9.664934646630954"><ele>919.0</ele><time>2026-05-03T12:28:32Z</time></trkpt><trkpt lat="44.7487047215507" lon="9.664932568165895"><ele>919.0</ele><time>2026-05-03T12:28:33Z</time></trkpt><trkpt lat="44.74860408323497" lon="9.664848049705654"><ele>919.0</ele><time>2026-05-03T12:28:34Z</time></trkpt><trkpt lat="44.74850957960958" lon="9.66474280572666"><ele>919.0</ele><time>2026-05-03T12:28:35Z</time></trkpt><trkpt lat="44.74842145511202" lon="9.664625466500976"><ele>919.0</ele><time>2026-05-03T12:28:36Z</time></trkpt><trkpt lat="44.7483248678286" lon="9.664564178482147"><ele>918.5</ele><time>2026-05-03T12:28:37Z</time></trkpt><trkpt lat="44.74821418479728" lon="9.664584182817192"><ele>918.0</ele><time>2026-05-03T12:28:38Z</time></trkpt><trkpt lat="44.748106340159175" lon="9.66464493411624"><ele>917.5</ele><time>2026-05-03T12:28:39Z</time></trkpt><trkpt lat="44.7479904044427" lon="9.664703645606266"><ele>917.0</ele><time>2026-05-03T12:28:40Z</time></trkpt><trkpt lat="44.747887979563195" lon="9.664732157636696"><ele>917.0</ele><time>2026-05-03T12:28:41Z</time></trkpt><trkpt lat="44.747773583590146" lon="9.664708221075292"><ele>917.0</ele><time>2026-05-03T12:28:42Z</time></trkpt><trkpt lat="44.74767062406056" lon="9.664621095967172"><ele>917.0</ele><time>2026-05-03T12:28:43Z</time></trkpt><trkpt lat="44.74756739940962" lon="9.664516758357815"><ele>917.0</ele><time>2026-05-03T12:28:44Z</time></trkpt><trkpt lat="44.747456804703134" lon="9.664446777332651"><ele>917.0</ele><time>2026-05-03T12:28:45Z</time></trkpt><trkpt lat="44.74733655504393" lon="9.664396922754012"><ele>917.0</ele><time>2026-05-03T12:28:46Z</time></trkpt><trkpt lat="44.747224265242785" lon="9.664396019392251"><ele>917.0</ele><time>2026-05-03T12:28:47Z</time></trkpt><trkpt lat="44.747120843490485" lon="9.664433122665281"><ele>917.0</ele><time>2026-05-03T12:28:48Z</time></trkpt><trkpt lat="44.74702029234901" lon="9.664477784728543"><ele>917.0</ele><time>2026-05-03T12:28:49Z</time></trkpt><trkpt lat="44.746928889283346" lon="9.664508359522273"><ele>917.0</ele><time>2026-05-03T12:28:50Z</time></trkpt><trkpt lat="44.74684317978536" lon="9.66448134043231"><ele>917.0</ele><time>2026-05-03T12:28:51Z</time></trkpt><trkpt lat="44.74678196044064" lon="9.664402164753813"><ele>917.0</ele><time>2026-05-03T12:28:52Z</time></trkpt><trkpt lat="44.74675168764113" lon="9.664274229623235"><ele>917.0</ele><time>2026-05-03T12:28:53Z</time></trkpt><trkpt lat="44.746735609388644" lon="9.664136744412236"><ele>918.2</ele><time>2026-05-03T12:28:54Z</time></trkpt><trkpt lat="44.74670178929838" lon="9.66400368176289"><ele>919.4000000000001</ele><time>2026-05-03T12:28:55Z</time></trkpt><trkpt lat="44.74664891121952" lon="9.66390568649938"><ele>920.5999999999999</ele><time>2026-05-03T12:28:56Z</time></trkpt><trkpt lat="44.74659546169245" lon="9.66383422334992"><ele>921.8</ele><time>2026-05-03T12:28:57Z</time></trkpt><trkpt lat="44.7465274539237" lon="9.663757887780669"><ele>923.0</ele><time>2026-05-03T12:28:58Z</time></trkpt><trkpt lat="44.746443079933954" lon="9.663674377161525"><ele>925.25</ele><time>2026-05-03T12:28:59Z</time></trkpt><trkpt lat="44.746361808644075" lon="9.663559553007174"><ele>927.5</ele><time>2026-05-03T12:29:00Z</time></trkpt><trkpt lat="44.746288321009786" lon="9.663415749616213"><ele>929.75</ele><time>2026-05-03T12:29:01Z</time></trkpt><trkpt lat="44.746224722414766" lon="9.663245629894636"><ele>932.0</ele><time>2026-05-03T12:29:02Z</time></trkpt><trkpt lat="44.746186610414554" lon="9.663094165835377"><ele>932.0</ele><time>2026-05-03T12:29:03Z</time></trkpt><trkpt lat="44.74610581058076" lon="9.662942994680233"><ele>932.0</ele><time>2026-05-03T12:29:04Z</time></trkpt><trkpt lat="44.74600161591957" lon="9.662821952213923"><ele>932.0</ele><time>2026-05-03T12:29:05Z</time></trkpt><trkpt lat="44.74588662901012" lon="9.662733273507811"><ele>932.0</ele><time>2026-05-03T12:29:06Z</time></trkpt><trkpt lat="44.745762468017105" lon="9.662680174415401"><ele>932.25</ele><time>2026-05-03T12:29:07Z</time></trkpt><trkpt lat="44.745651254426974" lon="9.662691539663069"><ele>932.5</ele><time>2026-05-03T12:29:08Z</time></trkpt><trkpt lat="44.745541872739494" lon="9.662749063120495"><ele>932.75</ele><time>2026-05-03T12:29:09Z</time></trkpt><trkpt lat="44.74541756818572" lon="9.662779065013243"><ele>933.0</ele><time>2026-05-03T12:29:10Z</time></trkpt><trkpt lat="44.74528212840536" lon="9.662769081949845"><ele>932.0</ele><time>2026-05-03T12:29:11Z</time></trkpt><trkpt lat="44.74515074968891" lon="9.662747857358081"><ele>931.0</ele><time>2026-05-03T12:29:12Z</time></trkpt><trkpt lat="44.745010329392805" lon="9.662739895905796"><ele>930.0</ele><time>2026-05-03T12:29:13Z</time></trkpt><trkpt lat="44.7448629128591" lon="9.662733815987158"><ele>929.0</ele><time>2026-05-03T12:29:14Z</time></trkpt><trkpt lat="44.74471720393275" lon="9.662730438488222"><ele>929.0</ele><time>2026-05-03T12:29:15Z</time></trkpt><trkpt lat="44.74458324539107" lon="9.66273721626393"><ele>929.0</ele><time>2026-05-03T12:29:16Z</time></trkpt><trkpt lat="44.74445275169672" lon="9.662752113239774"><ele>929.0</ele><time>2026-05-03T12:29:17Z</time></trkpt><trkpt lat="44.74432524886912" lon="9.662774414470707"><ele>929.0</ele><time>2026-05-03T12:29:18Z</time></trkpt><trkpt lat="44.74420460106839" lon="9.66279861072684"><ele>927.75</ele><time>2026-05-03T12:29:19Z</time></trkpt><trkpt lat="44.74408176266095" lon="9.662867633626599"><ele>926.5</ele><time>2026-05-03T12:29:20Z</time></trkpt><trkpt lat="44.74398127689321" lon="9.662971643778807"><ele>925.25</ele><time>2026-05-03T12:29:21Z</time></trkpt><trkpt lat="44.74389782857124" lon="9.663116431121834"><ele>924.0</ele><time>2026-05-03T12:29:22Z</time></trkpt><trkpt lat="44.74383548829741" lon="9.66324781926232"><ele>924.0</ele><time>2026-05-03T12:29:23Z</time></trkpt><trkpt lat="44.74376278828115" lon="9.663358742347903"><ele>924.0000000000001</ele><time>2026-05-03T12:29:24Z</time></trkpt><trkpt lat="44.74367715397848" lon="9.663414268295723"><ele>924.0000000000001</ele><time>2026-05-03T12:29:25Z</time></trkpt><trkpt lat="44.74358697050494" lon="9.663389502376178"><ele>924.0</ele><time>2026-05-03T12:29:26Z</time></trkpt><trkpt lat="44.74349068964233" lon="9.663304289581964"><ele>924.0</ele><time>2026-05-03T12:29:27Z</time></trkpt><trkpt lat="44.74340268277546" lon="9.663219977575782"><ele>924.0</ele><time>2026-05-03T12:29:28Z</time></trkpt><trkpt lat="44.7433285072235" lon="9.663171599913722"><ele>924.0</ele><time>2026-05-03T12:29:29Z</time></trkpt><trkpt lat="44.74326168791435" lon="9.66311693849738"><ele>924.0</ele><time>2026-05-03T12:32:33Z</time></trkpt><trkpt lat="44.74319621591273" lon="9.66308271794693"><ele>924.0</ele><time>2026-05-03T12:32:34Z</time></trkpt><trkpt lat="44.74312570287063" lon="9.663047780466407"><ele>924.0</ele><time>2026-05-03T12:32:35Z</time></trkpt><trkpt lat="44.74304879334193" lon="9.663035181593429"><ele>924.0</ele><time>2026-05-03T12:32:36Z</time></trkpt><trkpt lat="44.74295407467819" lon="9.663038590168462"><ele>924.0</ele><time>2026-05-03T12:32:37Z</time></trkpt><trkpt lat="44.742854565537556" lon="9.663073725296188"><ele>924.0000000000001</ele><time>2026-05-03T12:32:38Z</time></trkpt><trkpt lat="44.74275816345288" lon="9.663129262424505"><ele>924.0000000000001</ele><time>2026-05-03T12:32:39Z</time></trkpt><trkpt lat="44.7426594029581" lon="9.663191440688697"><ele>924.0</ele><time>2026-05-03T12:32:40Z</time></trkpt><trkpt lat="44.7425648867527" lon="9.663253020388366"><ele>924.0</ele><time>2026-05-03T12:32:41Z</time></trkpt><trkpt lat="44.74247147860085" lon="9.663319273965291"><ele>923.6</ele><time>2026-05-03T12:32:42Z</time></trkpt><trkpt lat="44.74238516787568" lon="9.663384072334816"><ele>923.2</ele><time>2026-05-03T12:32:43Z</time></trkpt><trkpt lat="44.742308996290255" lon="9.663449544861427"><ele>922.8000000000001</ele><time>2026-05-03T12:32:44Z</time></trkpt><trkpt lat="44.742234397940635" lon="9.663527429447312"><ele>922.4000000000001</ele><time>2026-05-03T12:32:45Z</time></trkpt><trkpt lat="44.74215912076246" lon="9.66361779096441"><ele>922.0</ele><time>2026-05-03T12:32:46Z</time></trkpt><trkpt lat="44.74207977982983" lon="9.663718267314064"><ele>922.4000000000001</ele><time>2026-05-03T12:32:47Z</time></trkpt><trkpt lat="44.742002428174374" lon="9.663819755558356"><ele>922.8000000000001</ele><time>2026-05-03T12:32:48Z</time></trkpt><trkpt lat="44.741927429704546" lon="9.663914317387164"><ele>923.2</ele><time>2026-05-03T12:32:49Z</time></trkpt><trkpt lat="44.74184590142234" lon="9.664008909469942"><ele>923.6</ele><time>2026-05-03T12:32:50Z</time></trkpt><trkpt lat="44.7417498076762" lon="9.66408856492682"><ele>924.0</ele><time>2026-05-03T12:32:51Z</time></trkpt><trkpt lat="44.741647769109235" lon="9.664160837148863"><ele>924.0</ele><time>2026-05-03T12:32:52Z</time></trkpt><trkpt lat="44.74155950817245" lon="9.66421714751372"><ele>924.0000000000001</ele><time>2026-05-03T12:32:53Z</time></trkpt><trkpt lat="44.74148052421831" lon="9.664261880148127"><ele>924.0000000000001</ele><time>2026-05-03T12:32:54Z</time></trkpt><trkpt lat="44.74138917750968" lon="9.66431278880819"><ele>924.0</ele><time>2026-05-03T12:32:55Z</time></trkpt><trkpt lat="44.74129145779339" lon="9.664366757663146"><ele>924.0</ele><time>2026-05-03T12:32:56Z</time></trkpt><trkpt lat="44.74121004282417" lon="9.664418975965242"><ele>923.6</ele><time>2026-05-03T12:32:57Z</time></trkpt><trkpt lat="44.74113604459593" lon="9.664453829604804"><ele>923.2</ele><time>2026-05-03T12:32:58Z</time></trkpt><trkpt lat="44.741055474616445" lon="9.664492090979152"><ele>922.8000000000001</ele><time>2026-05-03T12:32:59Z</time></trkpt><trkpt lat="44.74096656548743" lon="9.664479280775442"><ele>922.4000000000001</ele><time>2026-05-03T12:33:00Z</time></trkpt><trkpt lat="44.74088308117356" lon="9.664610438100995"><ele>922.0</ele><time>2026-05-03T12:33:01Z</time></trkpt><trkpt lat="44.740796890079686" lon="9.664665472136141"><ele>922.6666666666666</ele><time>2026-05-03T12:33:02Z</time></trkpt><trkpt lat="44.74070534532671" lon="9.664718501683755"><ele>923.3333333333333</ele><time>2026-05-03T12:33:03Z</time></trkpt><trkpt lat="44.74061475336539" lon="9.664774501695693"><ele>924.0</ele><time>2026-05-03T12:33:04Z</time></trkpt><trkpt lat="44.740533838514224" lon="9.66482378182193"><ele>924.6666666666667</ele><time>2026-05-03T12:33:05Z</time></trkpt><trkpt lat="44.74046250479728" lon="9.664869823436153"><ele>925.3333333333334</ele><time>2026-05-03T12:33:06Z</time></trkpt><trkpt lat="44.740388644700666" lon="9.664915996218735"><ele>926.0</ele><time>2026-05-03T12:33:07Z</time></trkpt><trkpt lat="44.74031979978072" lon="9.664963444339289"><ele>926.0000000000001</ele><time>2026-05-03T12:33:08Z</time></trkpt><trkpt lat="44.740248695553305" lon="9.665015595118199"><ele>926.0</ele><time>2026-05-03T12:33:09Z</time></trkpt><trkpt lat="44.74016705697576" lon="9.665051122980453"><ele>926.0</ele><time>2026-05-03T12:33:10Z</time></trkpt><trkpt lat="44.74010968949613" lon="9.665111577296601"><ele>926.0</ele><time>2026-05-03T12:33:11Z</time></trkpt><trkpt lat="44.740007814015044" lon="9.665093072989777"><ele>926.0000000000001</ele><time>2026-05-03T12:33:12Z</time></trkpt><trkpt lat="44.7399229747676" lon="9.665113118378956"><ele>926.0</ele><time>2026-05-03T12:33:13Z</time></trkpt><trkpt lat="44.7398416167283" lon="9.66513740632235"><ele>926.0</ele><time>2026-05-03T12:33:14Z</time></trkpt><trkpt lat="44.73975654540915" lon="9.665166216135132"><ele>925.9999999999999</ele><time>2026-05-03T12:33:15Z</time></trkpt><trkpt lat="44.7396670374307" lon="9.66520828219778"><ele>925.9999999999999</ele><time>2026-05-03T12:33:16Z</time></trkpt><trkpt lat="44.73958306924932" lon="9.665273854826424"><ele>926.0</ele><time>2026-05-03T12:33:17Z</time></trkpt><trkpt lat="44.7395091054821" lon="9.665364510609303"><ele>926.0</ele><time>2026-05-03T12:33:18Z</time></trkpt><trkpt lat="44.73943831448117" lon="9.66548017186805"><ele>928.0</ele><time>2026-05-03T12:33:19Z</time></trkpt><trkpt lat="44.73937651204304" lon="9.665594390235537"><ele>929.9999999999999</ele><time>2026-05-03T12:33:20Z</time></trkpt><trkpt lat="44.73931604317357" lon="9.665706596930123"><ele>931.9999999999999</ele><time>2026-05-03T12:33:21Z</time></trkpt><trkpt lat="44.739250060575756" lon="9.66581257460508"><ele>934.0</ele><time>2026-05-03T12:33:22Z</time></trkpt><trkpt lat="44.73918070485287" lon="9.66591521563047"><ele>936.0</ele><time>2026-05-03T12:33:23Z</time></trkpt><trkpt lat="44.739107739076275" lon="9.666016658865562"><ele>935.4</ele><time>2026-05-03T12:33:24Z</time></trkpt><trkpt lat="44.73903605008105" lon="9.666122862002355"><ele>934.8</ele><time>2026-05-03T12:33:25Z</time></trkpt><trkpt lat="44.73896933586054" lon="9.66622928759066"><ele>934.1999999999999</ele><time>2026-05-03T12:33:26Z</time></trkpt><trkpt lat="44.73889406557464" lon="9.666326114707012"><ele>933.5999999999999</ele><time>2026-05-03T12:33:27Z</time></trkpt><trkpt lat="44.738821126788594" lon="9.666428644279234"><ele>933.0</ele><time>2026-05-03T12:33:28Z</time></trkpt><trkpt lat="44.73875312303164" lon="9.666542131040668"><ele>933.0</ele><time>2026-05-03T12:33:29Z</time></trkpt><trkpt lat="44.73867965594262" lon="9.666646833338936"><ele>933.0</ele><time>2026-05-03T12:33:30Z</time></trkpt><trkpt lat="44.73860886995493" lon="9.66674082473025"><ele>933.0</ele><time>2026-05-03T12:33:31Z</time></trkpt><trkpt lat="44.73854116425707" lon="9.666829585743598"><ele>933.0</ele><time>2026-05-03T12:33:32Z</time></trkpt><trkpt lat="44.73847519417916" lon="9.666925670632285"><ele>933.0</ele><time>2026-05-03T12:33:33Z</time></trkpt><trkpt lat="44.738415898331034" lon="9.667029424306728"><ele>935.1666666666666</ele><time>2026-05-03T12:33:34Z</time></trkpt><trkpt lat="44.738362981913575" lon="9.667138298622607"><ele>937.3333333333333</ele><time>2026-05-03T12:33:35Z</time></trkpt><trkpt lat="44.73832158383229" lon="9.66725949335507"><ele>939.5</ele><time>2026-05-03T12:33:36Z</time></trkpt><trkpt lat="44.73830299569634" lon="9.667389726683258"><ele>941.6666666666666</ele><time>2026-05-03T12:33:37Z</time></trkpt><trkpt lat="44.73830936882098" lon="9.667502830029282"><ele>943.8333333333333</ele><time>2026-05-03T12:33:38Z</time></trkpt><trkpt lat="44.738316257887746" lon="9.667613995687825"><ele>946.0</ele><time>2026-05-03T12:33:39Z</time></trkpt><trkpt lat="44.73831699355417" lon="9.66774654529194"><ele>946.4</ele><time>2026-05-03T12:33:40Z</time></trkpt><trkpt lat="44.73829509829894" lon="9.667884030238847"><ele>946.8</ele><time>2026-05-03T12:33:41Z</time></trkpt><trkpt lat="44.73823296857282" lon="9.667987455764429"><ele>947.1999999999999</ele><time>2026-05-03T12:33:42Z</time></trkpt><trkpt lat="44.73813689026394" lon="9.668051055479001"><ele>947.5999999999999</ele><time>2026-05-03T12:33:43Z</time></trkpt><trkpt lat="44.7380417337435" lon="9.668110902773318"><ele>948.0</ele><time>2026-05-03T12:33:44Z</time></trkpt><trkpt lat="44.73794308953221" lon="9.668181093584835"><ele>948.0</ele><time>2026-05-03T12:33:45Z</time></trkpt><trkpt lat="44.73784615985082" lon="9.668263185569572"><ele>948.0</ele><time>2026-05-03T12:33:46Z</time></trkpt><trkpt lat="44.737745482410524" lon="9.668353732064583"><ele>948.0</ele><time>2026-05-03T12:33:47Z</time></trkpt><trkpt lat="44.73764455431378" lon="9.668439777804457"><ele>948.0</ele><time>2026-05-03T12:33:48Z</time></trkpt><trkpt lat="44.73754801818116" lon="9.668528952796123"><ele>948.8</ele><time>2026-05-03T12:33:49Z</time></trkpt><trkpt lat="44.737455196397896" lon="9.668625737798628"><ele>949.5999999999999</ele><time>2026-05-03T12:33:50Z</time></trkpt><trkpt lat="44.73736330123982" lon="9.668722526671562"><ele>950.4000000000001</ele><time>2026-05-03T12:33:51Z</time></trkpt><trkpt lat="44.7372730867186" lon="9.668808816922503"><ele>951.2</ele><time>2026-05-03T12:33:52Z</time></trkpt><trkpt lat="44.73718249033332" lon="9.668887791721433"><ele>952.0</ele><time>2026-05-03T12:33:53Z</time></trkpt><trkpt lat="44.737091462718666" lon="9.66896815177015"><ele>952.0</ele><time>2026-05-03T12:33:54Z</time></trkpt><trkpt lat="44.73699631521582" lon="9.669043013131194"><ele>952.0</ele><time>2026-05-03T12:33:55Z</time></trkpt><trkpt lat="44.73689758253549" lon="9.669115726539466"><ele>952.0</ele><time>2026-05-03T12:33:56Z</time></trkpt><trkpt lat="44.73679733271689" lon="9.669190687605447"><ele>952.0</ele><time>2026-05-03T12:33:57Z</time></trkpt><trkpt lat="44.73669559629195" lon="9.669267478354014"><ele>952.0</ele><time>2026-05-03T12:33:58Z</time></trkpt><trkpt lat="44.73658938993627" lon="9.66934038864909"><ele>954.0</ele><time>2026-05-03T12:33:59Z</time></trkpt><trkpt lat="44.736480480136294" lon="9.669413188195001"><ele>956.0</ele><time>2026-05-03T12:34:00Z</time></trkpt><trkpt lat="44.736373790305045" lon="9.669486564689429"><ele>958.0</ele><time>2026-05-03T12:34:01Z</time></trkpt><trkpt lat="44.73627170201147" lon="9.669560190834401"><ele>960.0</ele><time>2026-05-03T12:34:02Z</time></trkpt><trkpt lat="44.736164231429505" lon="9.66961342718018"><ele>963.5</ele><time>2026-05-03T12:34:03Z</time></trkpt><trkpt lat="44.73604783328927" lon="9.669647571310938"><ele>967.0</ele><time>2026-05-03T12:34:04Z</time></trkpt><trkpt lat="44.735927805842906" lon="9.66966577235104"><ele>970.5</ele><time>2026-05-03T12:34:05Z</time></trkpt><trkpt lat="44.73580374258913" lon="9.669678838475898"><ele>974.0</ele><time>2026-05-03T12:34:06Z</time></trkpt><trkpt lat="44.735682310379936" lon="9.669669228006832"><ele>974.0</ele><time>2026-05-03T12:34:07Z</time></trkpt><trkpt lat="44.735557818968466" lon="9.669661600577918"><ele>974.0</ele><time>2026-05-03T12:34:08Z</time></trkpt><trkpt lat="44.735433925919004" lon="9.669668788443397"><ele>974.0</ele><time>2026-05-03T12:34:09Z</time></trkpt><trkpt lat="44.73530496614795" lon="9.669685862722313"><ele>974.0</ele><time>2026-05-03T12:34:10Z</time></trkpt><trkpt lat="44.73517923353919" lon="9.669700950781051"><ele>976.0</ele><time>2026-05-03T12:34:11Z</time></trkpt><trkpt lat="44.73506524713944" lon="9.669692324790356"><ele>978.0</ele><time>2026-05-03T12:34:12Z</time></trkpt><trkpt lat="44.73495086826205" lon="9.669654132006693"><ele>980.0</ele><time>2026-05-03T12:34:13Z</time></trkpt><trkpt lat="44.734836543739824" lon="9.669618266827264"><ele>982.0</ele><time>2026-05-03T12:34:14Z</time></trkpt><trkpt lat="44.734720330704675" lon="9.669585767185787"><ele>982.0</ele><time>2026-05-03T12:34:15Z</time></trkpt><trkpt lat="44.734600864185694" lon="9.669551435445793"><ele>982.0</ele><time>2026-05-03T12:34:16Z</time></trkpt><trkpt lat="44.73448034862767" lon="9.669521537347517"><ele>982.0</ele><time>2026-05-03T12:34:17Z</time></trkpt><trkpt lat="44.73436880693317" lon="9.669497014899191"><ele>982.0</ele><time>2026-05-03T12:34:18Z</time></trkpt><trkpt lat="44.73426359951102" lon="9.669505992633743"><ele>983.75</ele><time>2026-05-03T12:34:19Z</time></trkpt><trkpt lat="44.73416054229586" lon="9.669561885355165"><ele>985.5</ele><time>2026-05-03T12:34:20Z</time></trkpt><trkpt lat="44.73405599440557" lon="9.669641005134089"><ele>987.25</ele><time>2026-05-03T12:34:21Z</time></trkpt><trkpt lat="44.733953476354685" lon="9.66973170606305"><ele>989.0</ele><time>2026-05-03T12:34:22Z</time></trkpt><trkpt lat="44.7338448832199" lon="9.669818081917587"><ele>989.0</ele><time>2026-05-03T12:34:23Z</time></trkpt><trkpt lat="44.73373499778386" lon="9.669900162138816"><ele>989.0</ele><time>2026-05-03T12:34:24Z</time></trkpt><trkpt lat="44.73362917657141" lon="9.669969587437816"><ele>989.0</ele><time>2026-05-03T12:34:25Z</time></trkpt><trkpt lat="44.73352077411925" lon="9.670018422012275"><ele>989.0</ele><time>2026-05-03T12:34:26Z</time></trkpt><trkpt lat="44.733414099200196" lon="9.670023766082993"><ele>988.75</ele><time>2026-05-03T12:34:27Z</time></trkpt><trkpt lat="44.73329133648662" lon="9.670009352675866"><ele>988.5</ele><time>2026-05-03T12:34:28Z</time></trkpt><trkpt lat="44.73316206424787" lon="9.67000215413882"><ele>988.25</ele><time>2026-05-03T12:34:29Z</time></trkpt><trkpt lat="44.73302893050562" lon="9.669989212768678"><ele>988.0</ele><time>2026-05-03T12:34:30Z</time></trkpt><trkpt lat="44.73290043211369" lon="9.669961992206686"><ele>988.0</ele><time>2026-05-03T12:34:31Z</time></trkpt><trkpt lat="44.732781879364346" lon="9.669911083047921"><ele>988.0</ele><time>2026-05-03T12:34:32Z</time></trkpt><trkpt lat="44.73268261609519" lon="9.669805929903907"><ele>988.0</ele><time>2026-05-03T12:34:33Z</time></trkpt><trkpt lat="44.73258188493512" lon="9.66971483320835"><ele>988.0</ele><time>2026-05-03T12:34:34Z</time></trkpt><trkpt lat="44.73248376204209" lon="9.669594937297534"><ele>987.5</ele><time>2026-05-03T12:34:35Z</time></trkpt><trkpt lat="44.73239406905594" lon="9.669469041855072"><ele>987.0</ele><time>2026-05-03T12:34:36Z</time></trkpt><trkpt lat="44.732309261584525" lon="9.669317669789969"><ele>986.5</ele><time>2026-05-03T12:34:37Z</time></trkpt><trkpt lat="44.732229605735604" lon="9.66915858436319"><ele>986.0</ele><time>2026-05-03T12:34:38Z</time></trkpt><trkpt lat="44.732167141871884" lon="9.669001340706675"><ele>984.5</ele><time>2026-05-03T12:34:39Z</time></trkpt><trkpt lat="44.73211167688912" lon="9.668862935771225"><ele>983.0</ele><time>2026-05-03T12:34:40Z</time></trkpt><trkpt lat="44.73205334378109" lon="9.668737690903376"><ele>981.5</ele><time>2026-05-03T12:34:41Z</time></trkpt><trkpt lat="44.73198790604683" lon="9.668614152659478"><ele>980.0</ele><time>2026-05-03T12:34:42Z</time></trkpt><trkpt lat="44.731906758416564" lon="9.668483109819771"><ele>980.8</ele><time>2026-05-03T12:34:43Z</time></trkpt><trkpt lat="44.73182940667236" lon="9.668377674328026"><ele>981.6</ele><time>2026-05-03T12:34:44Z</time></trkpt><trkpt lat="44.731754832888086" lon="9.668282595253789"><ele>982.4000000000001</ele><time>2026-05-03T12:34:45Z</time></trkpt><trkpt lat="44.731679478888424" lon="9.668199345681476"><ele>983.2</ele><time>2026-05-03T12:34:46Z</time></trkpt><trkpt lat="44.73160031374588" lon="9.668136537078563"><ele>984.0</ele><time>2026-05-03T12:34:47Z</time></trkpt><trkpt lat="44.73152253732503" lon="9.66808355249036"><ele>984.0</ele><time>2026-05-03T12:34:48Z</time></trkpt><trkpt lat="44.731456457571575" lon="9.668046660075436"><ele>984.0</ele><time>2026-05-03T12:34:49Z</time></trkpt><trkpt lat="44.73139705489084" lon="9.668015810080139"><ele>984.0</ele><time>2026-05-03T12:34:50Z</time></trkpt><trkpt lat="44.73129822163609" lon="9.667953652442206"><ele>984.0</ele><time>2026-05-03T12:34:52Z</time></trkpt><trkpt lat="44.73121698347929" lon="9.66786358860207"><ele>984.0</ele><time>2026-05-03T12:34:54Z</time></trkpt><trkpt lat="44.73114220438467" lon="9.667815153201227"><ele>984.0</ele><time>2026-05-03T12:34:56Z</time></trkpt><trkpt lat="44.731199506512766" lon="9.667598806211545"><ele>983.8000000000001</ele><time>2026-05-03T12:34:57Z</time></trkpt><trkpt lat="44.73113174510613" lon="9.66745231559685"><ele>983.6000000000001</ele><time>2026-05-03T12:34:59Z</time></trkpt><trkpt lat="44.7310617135113" lon="9.667398383921793"><ele>983.4</ele><time>2026-05-03T12:35:00Z</time></trkpt><trkpt lat="44.73098664689898" lon="9.66731128649947"><ele>983.2</ele><time>2026-05-03T12:35:01Z</time></trkpt><trkpt lat="44.73090589095864" lon="9.667223877922464"><ele>983.0</ele><time>2026-05-03T12:35:02Z</time></trkpt><trkpt lat="44.730808578368894" lon="9.667169983209902"><ele>983.0</ele><time>2026-05-03T12:35:03Z</time></trkpt><trkpt lat="44.73070867359816" lon="9.66712822443949"><ele>983.0</ele><time>2026-05-03T12:35:04Z</time></trkpt><trkpt lat="44.7306232675322" lon="9.667079528136325"><ele>983.0</ele><time>2026-05-03T12:35:05Z</time></trkpt><trkpt lat="44.7305399449922" lon="9.667008492560363"><ele>983.0</ele><time>2026-05-03T12:35:06Z</time></trkpt><trkpt lat="44.73047102681839" lon="9.666904036948294"><ele>983.0</ele><time>2026-05-03T12:35:07Z</time></trkpt><trkpt lat="44.73041993805343" lon="9.666765165650348"><ele>984.0</ele><time>2026-05-03T12:35:08Z</time></trkpt><trkpt lat="44.73038921983438" lon="9.666628788258242"><ele>985.0</ele><time>2026-05-03T12:35:09Z</time></trkpt><trkpt lat="44.73036226540968" lon="9.666496733266936"><ele>986.0</ele><time>2026-05-03T12:35:10Z</time></trkpt><trkpt lat="44.730320793526346" lon="9.666358988360304"><ele>987.0</ele><time>2026-05-03T12:35:11Z</time></trkpt><trkpt lat="44.73025689132359" lon="9.66623592768585"><ele>988.0</ele><time>2026-05-03T12:35:12Z</time></trkpt><trkpt lat="44.73017132478501" lon="9.666148918477528"><ele>987.0</ele><time>2026-05-03T12:35:13Z</time></trkpt><trkpt lat="44.73009494670002" lon="9.666064733662239"><ele>986.0</ele><time>2026-05-03T12:35:14Z</time></trkpt><trkpt lat="44.730024515368775" lon="9.665983890940613"><ele>985.0</ele><time>2026-05-03T12:35:15Z</time></trkpt><trkpt lat="44.729957098936055" lon="9.66589457357688"><ele>984.0</ele><time>2026-05-03T12:35:16Z</time></trkpt><trkpt lat="44.72989200427656" lon="9.66580222790164"><ele>983.0</ele><time>2026-05-03T12:35:17Z</time></trkpt><trkpt lat="44.7298272726128" lon="9.665708063408477"><ele>983.0</ele><time>2026-05-03T12:35:18Z</time></trkpt><trkpt lat="44.72976227856304" lon="9.665612387029082"><ele>983.0</ele><time>2026-05-03T12:35:19Z</time></trkpt><trkpt lat="44.729697771665435" lon="9.665506389115906"><ele>983.0</ele><time>2026-05-03T12:35:20Z</time></trkpt><trkpt lat="44.729637499396546" lon="9.66539114433347"><ele>983.0</ele><time>2026-05-03T12:35:21Z</time></trkpt><trkpt lat="44.729581405077845" lon="9.665279284797027"><ele>983.0</ele><time>2026-05-03T12:35:22Z</time></trkpt><trkpt lat="44.72952569258101" lon="9.665178074598883"><ele>983.8</ele><time>2026-05-03T12:35:23Z</time></trkpt><trkpt lat="44.72947535443877" lon="9.665075283009223"><ele>984.5999999999999</ele><time>2026-05-03T12:35:24Z</time></trkpt><trkpt lat="44.729423369011286" lon="9.66496611521977"><ele>985.4000000000001</ele><time>2026-05-03T12:35:25Z</time></trkpt><trkpt lat="44.72937968424558" lon="9.66484583694107"><ele>986.2</ele><time>2026-05-03T12:35:26Z</time></trkpt><trkpt lat="44.72934927012567" lon="9.664714235596367"><ele>987.0</ele><time>2026-05-03T12:35:27Z</time></trkpt><trkpt lat="44.72932931645263" lon="9.664581907781654"><ele>985.3333333333334</ele><time>2026-05-03T12:35:28Z</time></trkpt><trkpt lat="44.729313662674976" lon="9.664455327561312"><ele>983.6666666666667</ele><time>2026-05-03T12:35:29Z</time></trkpt><trkpt lat="44.729277241301624" lon="9.664346239037435"><ele>982.0</ele><time>2026-05-03T12:35:30Z</time></trkpt><trkpt lat="44.729213683570876" lon="9.664263817351184"><ele>980.3333333333334</ele><time>2026-05-03T12:35:31Z</time></trkpt><trkpt lat="44.729140422712014" lon="9.664205342520392"><ele>978.6666666666667</ele><time>2026-05-03T12:35:32Z</time></trkpt><trkpt lat="44.72904228545459" lon="9.664171451256914"><ele>977.0</ele><time>2026-05-03T12:35:33Z</time></trkpt><trkpt lat="44.72894130998512" lon="9.664174951306368"><ele>977.0</ele><time>2026-05-03T12:35:34Z</time></trkpt><trkpt lat="44.728832376156596" lon="9.664190780380688"><ele>977.0</ele><time>2026-05-03T12:35:35Z</time></trkpt><trkpt lat="44.72871779134622" lon="9.664191285676422"><ele>977.0</ele><time>2026-05-03T12:35:36Z</time></trkpt><trkpt lat="44.72860133256107" lon="9.664175074126126"><ele>977.0</ele><time>2026-05-03T12:35:37Z</time></trkpt><trkpt lat="44.72848611646463" lon="9.664151112831302"><ele>978.6</ele><time>2026-05-03T12:35:38Z</time></trkpt><trkpt lat="44.728375803673" lon="9.664126579609128"><ele>980.2</ele><time>2026-05-03T12:35:39Z</time></trkpt><trkpt lat="44.72827311835383" lon="9.66409006071446"><ele>981.8</ele><time>2026-05-03T12:35:40Z</time></trkpt><trkpt lat="44.728185112930284" lon="9.664027223206093"><ele>983.4</ele><time>2026-05-03T12:35:41Z</time></trkpt><trkpt lat="44.72810925895004" lon="9.663927137985821"><ele>985.0</ele><time>2026-05-03T12:35:42Z</time></trkpt><trkpt lat="44.72805177190449" lon="9.663802627095885"><ele>985.0</ele><time>2026-05-03T12:35:43Z</time></trkpt><trkpt lat="44.72798119089733" lon="9.663682289295648"><ele>985.0</ele><time>2026-05-03T12:35:44Z</time></trkpt><trkpt lat="44.72788129925594" lon="9.66357368093485"><ele>985.0</ele><time>2026-05-03T12:35:45Z</time></trkpt><trkpt lat="44.727764545521616" lon="9.663494235510942"><ele>985.0</ele><time>2026-05-03T12:35:46Z</time></trkpt><trkpt lat="44.72763726175228" lon="9.663440446775452"><ele>987.6</ele><time>2026-05-03T12:35:47Z</time></trkpt><trkpt lat="44.72753444947588" lon="9.663380481667174"><ele>990.2</ele><time>2026-05-03T12:35:48Z</time></trkpt><trkpt lat="44.72741749231985" lon="9.663353961772291"><ele>992.8</ele><time>2026-05-03T12:35:49Z</time></trkpt><trkpt lat="44.72731094887027" lon="9.663318300811799"><ele>995.4</ele><time>2026-05-03T12:35:50Z</time></trkpt><trkpt lat="44.727209099371734" lon="9.663264087994145"><ele>998.0</ele><time>2026-05-03T12:35:51Z</time></trkpt><trkpt lat="44.72711264589734" lon="9.663205888100105"><ele>998.0000000000001</ele><time>2026-05-03T12:35:52Z</time></trkpt><trkpt lat="44.72703259071083" lon="9.663154924246587"><ele>998.0</ele><time>2026-05-03T12:35:53Z</time></trkpt><trkpt lat="44.726962890547895" lon="9.663103116115334"><ele>998.0</ele><time>2026-05-03T12:35:54Z</time></trkpt><trkpt lat="44.72690667188516" lon="9.66305084437763"><ele>998.0</ele><time>2026-05-03T12:35:55Z</time></trkpt><trkpt lat="44.726835540066034" lon="9.662994000787004"><ele>998.0000000000001</ele><time>2026-05-03T12:35:56Z</time></trkpt><trkpt lat="44.7267635614843" lon="9.662933643597873"><ele>998.0</ele><time>2026-05-03T12:35:57Z</time></trkpt><trkpt lat="44.72669335120583" lon="9.662868604240463"><ele>998.6666666666667</ele><time>2026-05-03T12:35:58Z</time></trkpt><trkpt lat="44.72662727111766" lon="9.662798102764253"><ele>999.3333333333334</ele><time>2026-05-03T12:35:59Z</time></trkpt><trkpt lat="44.72657438105506" lon="9.662704077533105"><ele>1000.0</ele><time>2026-05-03T12:36:00Z</time></trkpt><trkpt lat="44.7265453847183" lon="9.662590343323675"><ele>1000.6666666666667</ele><time>2026-05-03T12:36:01Z</time></trkpt><trkpt lat="44.72653286442076" lon="9.662497436515107"><ele>1001.3333333333334</ele><time>2026-05-03T12:36:02Z</time></trkpt><trkpt lat="44.72646383755439" lon="9.662495200203677"><ele>1002.0</ele><time>2026-05-03T12:36:05Z</time></trkpt><trkpt lat="44.72639894467056" lon="9.662571580794912"><ele>1003.3333333333334</ele><time>2026-05-03T12:36:07Z</time></trkpt><trkpt lat="44.72628514178564" lon="9.662633053844226"><ele>1004.6666666666667</ele><time>2026-05-03T12:36:09Z</time></trkpt><trkpt lat="44.72622153055513" lon="9.66262486144023"><ele>1006.0</ele><time>2026-05-03T12:36:10Z</time></trkpt><trkpt lat="44.72616823943989" lon="9.662570645817661"><ele>1007.3333333333334</ele><time>2026-05-03T12:36:11Z</time></trkpt><trkpt lat="44.72613324065257" lon="9.662493748257468"><ele>1008.6666666666667</ele><time>2026-05-03T12:36:12Z</time></trkpt><trkpt lat="44.72609120014401" lon="9.662414715301939"><ele>1010.0</ele><time>2026-05-03T12:36:13Z</time></trkpt><trkpt lat="44.72604117683173" lon="9.662344833681736"><ele>1013.0000000000001</ele><time>2026-05-03T12:36:14Z</time></trkpt><trkpt lat="44.72597918201947" lon="9.662288815544638"><ele>1016.0</ele><time>2026-05-03T12:36:15Z</time></trkpt><trkpt lat="44.725907287598496" lon="9.662239839863586"><ele>1019.0</ele><time>2026-05-03T12:36:16Z</time></trkpt><trkpt lat="44.72581840632682" lon="9.662207240203875"><ele>1022.0</ele><time>2026-05-03T12:36:17Z</time></trkpt><trkpt lat="44.72573264245635" lon="9.662187057024497"><ele>1025.0</ele><time>2026-05-03T12:36:18Z</time></trkpt><trkpt lat="44.72565801922486" lon="9.66217844792438"><ele>1028.0</ele><time>2026-05-03T12:36:19Z</time></trkpt><trkpt lat="44.725587386705925" lon="9.662267035004948"><ele>1028.0</ele><time>2026-05-03T12:36:21Z</time></trkpt><trkpt lat="44.72557248188125" lon="9.66236953041653"><ele>1028.0</ele><time>2026-05-03T12:36:22Z</time></trkpt><trkpt lat="44.72556087991827" lon="9.662473144650026"><ele>1028.0</ele><time>2026-05-03T12:36:23Z</time></trkpt><trkpt lat="44.725526093970345" lon="9.66258071754562"><ele>1028.0</ele><time>2026-05-03T12:36:24Z</time></trkpt><trkpt lat="44.72549471448727" lon="9.66266792235901"><ele>1028.0</ele><time>2026-05-03T12:36:25Z</time></trkpt><trkpt lat="44.72540135598356" lon="9.662801817176604"><ele>1028.0</ele><time>2026-05-03T12:36:27Z</time></trkpt><trkpt lat="44.72533976775047" lon="9.662874816210227"><ele>1027.2</ele><time>2026-05-03T12:36:28Z</time></trkpt><trkpt lat="44.7252541799925" lon="9.662919955453962"><ele>1026.4</ele><time>2026-05-03T12:36:29Z</time></trkpt><trkpt lat="44.72516113428692" lon="9.662958342875113"><ele>1025.6000000000001</ele><time>2026-05-03T12:36:30Z</time></trkpt><trkpt lat="44.725085133058286" lon="9.662972523462889"><ele>1024.8</ele><time>2026-05-03T12:36:31Z</time></trkpt><trkpt lat="44.72496328133564" lon="9.662952445681995"><ele>1024.0</ele><time>2026-05-03T12:36:33Z</time></trkpt><trkpt lat="44.7248587565011" lon="9.662992675717238"><ele>1028.5</ele><time>2026-05-03T12:36:35Z</time></trkpt><trkpt lat="44.724798749894504" lon="9.663057429410655"><ele>1033.0</ele><time>2026-05-03T12:36:36Z</time></trkpt><trkpt lat="44.72473744212258" lon="9.663122162613213"><ele>1037.5</ele><time>2026-05-03T12:36:37Z</time></trkpt><trkpt lat="44.72467772294732" lon="9.663158382416443"><ele>1042.0</ele><time>2026-05-03T12:36:38Z</time></trkpt><trkpt lat="44.724591791518804" lon="9.663205248345463"><ele>1046.5</ele><time>2026-05-03T12:36:39Z</time></trkpt><trkpt lat="44.724504630944615" lon="9.663248089880277"><ele>1051.0</ele><time>2026-05-03T12:36:40Z</time></trkpt><trkpt lat="44.72443028905626" lon="9.663281617758596"><ele>1054.1666666666665</ele><time>2026-05-03T12:36:41Z</time></trkpt><trkpt lat="44.724370113586176" lon="9.663320724987772"><ele>1057.3333333333333</ele><time>2026-05-03T12:36:42Z</time></trkpt><trkpt lat="44.72432831766228" lon="9.663416679001015"><ele>1060.5</ele><time>2026-05-03T12:36:46Z</time></trkpt><trkpt lat="44.72429684268108" lon="9.663542870795688"><ele>1063.6666666666667</ele><time>2026-05-03T12:36:48Z</time></trkpt><trkpt lat="44.72426844132784" lon="9.663645105628584"><ele>1066.8333333333335</ele><time>2026-05-03T12:36:49Z</time></trkpt><trkpt lat="44.724251468468076" lon="9.663755141024186"><ele>1070.0</ele><time>2026-05-03T12:36:50Z</time></trkpt><trkpt lat="44.724235613310796" lon="9.663867908598256"><ele>1070.0</ele><time>2026-05-03T12:36:51Z</time></trkpt><trkpt lat="44.72422717514984" lon="9.66398863448505"><ele>1070.0</ele><time>2026-05-03T12:36:52Z</time></trkpt><trkpt lat="44.724220786731074" lon="9.664112419217668"><ele>1070.0</ele><time>2026-05-03T12:36:53Z</time></trkpt><trkpt lat="44.72417612298018" lon="9.664198825300927"><ele>1070.0</ele><time>2026-05-03T12:36:54Z</time></trkpt><trkpt lat="44.7240581697023" lon="9.664209801226093"><ele>1070.0</ele><time>2026-05-03T12:36:56Z</time></trkpt><trkpt lat="44.72400035538171" lon="9.664099837869244"><ele>1070.0</ele><time>2026-05-03T12:36:58Z</time></trkpt><trkpt lat="44.72397586637559" lon="9.664012974816997"><ele>1070.0</ele><time>2026-05-03T12:36:59Z</time></trkpt><trkpt lat="44.72395109695436" lon="9.66392574591907"><ele>1070.0</ele><time>2026-05-03T12:37:00Z</time></trkpt><trkpt lat="44.72395923619263" lon="9.663786941341508"><ele>1070.0</ele><time>2026-05-03T12:37:02Z</time></trkpt><trkpt lat="44.72391743573011" lon="9.66371773991879"><ele>1070.0</ele><time>2026-05-03T12:37:03Z</time></trkpt><trkpt lat="44.723770972623804" lon="9.663673861840417"><ele>1070.0</ele><time>2026-05-03T12:37:05Z</time></trkpt><trkpt lat="44.72370132766172" lon="9.663805523169732"><ele>1070.0</ele><time>2026-05-03T12:37:07Z</time></trkpt><trkpt lat="44.723655277540466" lon="9.663968941771055"><ele>1070.0</ele><time>2026-05-03T12:37:09Z</time></trkpt><trkpt lat="44.72356742143193" lon="9.66395993325457"><ele>1070.0</ele><time>2026-05-03T12:37:11Z</time></trkpt><trkpt lat="44.72347257875394" lon="9.663875205036117"><ele>1070.0</ele><time>2026-05-03T12:37:13Z</time></trkpt><trkpt lat="44.72334721390861" lon="9.663908266398817"><ele>1074.1666666666667</ele><time>2026-05-03T12:37:15Z</time></trkpt><trkpt lat="44.72327637990737" lon="9.663958281689046"><ele>1078.3333333333335</ele><time>2026-05-03T12:37:16Z</time></trkpt><trkpt lat="44.72322216328373" lon="9.664009849684486"><ele>1082.5</ele><time>2026-05-03T12:37:17Z</time></trkpt><trkpt lat="44.72317424391662" lon="9.664069368667745"><ele>1086.6666666666667</ele><time>2026-05-03T12:37:18Z</time></trkpt><trkpt lat="44.72314444497438" lon="9.664152196696662"><ele>1090.8333333333333</ele><time>2026-05-03T12:37:19Z</time></trkpt><trkpt lat="44.72311795841022" lon="9.664306533698305"><ele>1095.0</ele><time>2026-05-03T12:37:21Z</time></trkpt><trkpt lat="44.72307497993811" lon="9.664419865880802"><ele>1095.0</ele><time>2026-05-03T12:37:23Z</time></trkpt><trkpt lat="44.72302389601808" lon="9.664572153496396"><ele>1095.0</ele><time>2026-05-03T12:37:25Z</time></trkpt><trkpt lat="44.72291540332807" lon="9.6645896875104"><ele>1095.0</ele><time>2026-05-03T12:37:27Z</time></trkpt><trkpt lat="44.722810906665224" lon="9.664500614571192"><ele>1095.0</ele><time>2026-05-03T12:37:29Z</time></trkpt><trkpt lat="44.72276914502212" lon="9.66442344500571"><ele>1095.0</ele><time>2026-05-03T12:37:30Z</time></trkpt><trkpt lat="44.722711773526136" lon="9.664334828608405"><ele>1099.3333333333333</ele><time>2026-05-03T12:37:31Z</time></trkpt><trkpt lat="44.722654521912006" lon="9.66429048511797"><ele>1103.6666666666667</ele><time>2026-05-03T12:37:32Z</time></trkpt><trkpt lat="44.72258565653867" lon="9.664254603695019"><ele>1108.0</ele><time>2026-05-03T12:37:33Z</time></trkpt><trkpt lat="44.722501173328" lon="9.664253941088015"><ele>1112.3333333333335</ele><time>2026-05-03T12:37:35Z</time></trkpt><trkpt lat="44.72250036126602" lon="9.66435332550629"><ele>1116.6666666666667</ele><time>2026-05-03T12:37:37Z</time></trkpt><trkpt lat="44.72254452707177" lon="9.66449151810426"><ele>1121.0</ele><time>2026-05-03T12:37:39Z</time></trkpt><trkpt lat="44.72256338223049" lon="9.66463030198474"><ele>1121.8333333333335</ele><time>2026-05-03T12:37:41Z</time></trkpt><trkpt lat="44.722555150512456" lon="9.664813587815729"><ele>1122.6666666666667</ele><time>2026-05-03T12:37:43Z</time></trkpt><trkpt lat="44.722537556550975" lon="9.664902278042836"><ele>1123.5</ele><time>2026-05-03T12:37:44Z</time></trkpt><trkpt lat="44.722499197286616" lon="9.665004539152571"><ele>1124.3333333333333</ele><time>2026-05-03T12:37:45Z</time></trkpt><trkpt lat="44.72245236811414" lon="9.66509092416894"><ele>1125.1666666666665</ele><time>2026-05-03T12:37:46Z</time></trkpt><trkpt lat="44.722400220920534" lon="9.665167927958516"><ele>1126.0</ele><time>2026-05-03T12:37:47Z</time></trkpt><trkpt lat="44.72233391276486" lon="9.665250468020988"><ele>1123.8</ele><time>2026-05-03T12:37:48Z</time></trkpt><trkpt lat="44.72226766955405" lon="9.665322208581179"><ele>1121.6</ele><time>2026-05-03T12:37:49Z</time></trkpt><trkpt lat="44.72216751708299" lon="9.66541155062994"><ele>1119.4</ele><time>2026-05-03T12:37:51Z</time></trkpt><trkpt lat="44.72208873427516" lon="9.665478124622311"><ele>1117.2</ele><time>2026-05-03T12:37:53Z</time></trkpt><trkpt lat="44.72197202248978" lon="9.665515388759916"><ele>1115.0</ele><time>2026-05-03T12:37:55Z</time></trkpt><trkpt lat="44.72190517895094" lon="9.66553224267669"><ele>1117.6666666666667</ele><time>2026-05-03T12:37:56Z</time></trkpt><trkpt lat="44.721838882976854" lon="9.665524774782156"><ele>1120.3333333333335</ele><time>2026-05-03T12:37:57Z</time></trkpt><trkpt lat="44.721766195211735" lon="9.665526411383048"><ele>1123.0</ele><time>2026-05-03T12:37:58Z</time></trkpt><trkpt lat="44.7216542405398" lon="9.665543957438773"><ele>1125.6666666666667</ele><time>2026-05-03T12:38:00Z</time></trkpt><trkpt lat="44.72164906692616" lon="9.665380355354971"><ele>1128.3333333333333</ele><time>2026-05-03T12:38:03Z</time></trkpt><trkpt lat="44.72167550640222" lon="9.665289647853173"><ele>1131.0</ele><time>2026-05-03T12:38:04Z</time></trkpt><trkpt lat="44.72170631505597" lon="9.665210210489395"><ele>1134.1666666666667</ele><time>2026-05-03T12:38:05Z</time></trkpt><trkpt lat="44.7217524154796" lon="9.665145578175542"><ele>1137.3333333333333</ele><time>2026-05-03T12:38:06Z</time></trkpt><trkpt lat="44.72179336918926" lon="9.665048137237568"><ele>1140.5</ele><time>2026-05-03T12:38:08Z</time></trkpt><trkpt lat="44.721750880834264" lon="9.664961884113218"><ele>1143.6666666666665</ele><time>2026-05-03T12:38:10Z</time></trkpt><trkpt lat="44.72168706362428" lon="9.664935331212126"><ele>1146.8333333333333</ele><time>2026-05-03T12:38:11Z</time></trkpt><trkpt lat="44.72161229814107" lon="9.664927427832255"><ele>1150.0</ele><time>2026-05-03T12:38:12Z</time></trkpt><trkpt lat="44.721519697776344" lon="9.664901914490619"><ele>1150.0</ele><time>2026-05-03T12:38:13Z</time></trkpt><trkpt lat="44.721453960283014" lon="9.664855394998755"><ele>1150.0</ele><time>2026-05-03T12:38:14Z</time></trkpt><trkpt lat="44.7214165697197" lon="9.664777200910484"><ele>1150.0</ele><time>2026-05-03T12:38:15Z</time></trkpt><trkpt lat="44.721330678417" lon="9.664673583474913"><ele>1150.0</ele><time>2026-05-03T12:38:17Z</time></trkpt><trkpt lat="44.721268813644755" lon="9.664645907314961"><ele>1150.0</ele><time>2026-05-03T12:38:18Z</time></trkpt><trkpt lat="44.72113908079027" lon="9.6645968839746"><ele>1150.0</ele><time>2026-05-03T12:38:20Z</time></trkpt><trkpt lat="44.721075367681614" lon="9.664565339529487"><ele>1150.0</ele><time>2026-05-03T12:38:21Z</time></trkpt><trkpt lat="44.72095587977628" lon="9.664497186936924"><ele>1150.0</ele><time>2026-05-03T12:38:23Z</time></trkpt><trkpt lat="44.72089356958576" lon="9.664459016257998"><ele>1150.0</ele><time>2026-05-03T12:38:24Z</time></trkpt><trkpt lat="44.720818787561754" lon="9.664442784910426"><ele>1150.0</ele><time>2026-05-03T12:38:25Z</time></trkpt><trkpt lat="44.720733615491866" lon="9.664425062520499"><ele>1150.0</ele><time>2026-05-03T12:38:26Z</time></trkpt><trkpt lat="44.720653198880825" lon="9.664365615462104"><ele>1154.8</ele><time>2026-05-03T12:38:27Z</time></trkpt><trkpt lat="44.720574631152644" lon="9.6643012735435"><ele>1159.6</ele><time>2026-05-03T12:38:28Z</time></trkpt><trkpt lat="44.720501623871314" lon="9.664243391118093"><ele>1164.4</ele><time>2026-05-03T12:38:29Z</time></trkpt><trkpt lat="44.72042915788811" lon="9.6641668574706"><ele>1169.2</ele><time>2026-05-03T12:38:30Z</time></trkpt><trkpt lat="44.72032284885221" lon="9.664059569207092"><ele>1174.0</ele><time>2026-05-03T12:38:32Z</time></trkpt><trkpt lat="44.7202294431185" lon="9.66399373462192"><ele>1175.0</ele><time>2026-05-03T12:38:34Z</time></trkpt><trkpt lat="44.720167223778" lon="9.663903249411973"><ele>1176.0</ele><time>2026-05-03T12:38:35Z</time></trkpt><trkpt lat="44.720098226588874" lon="9.663821534873442"><ele>1177.0</ele><time>2026-05-03T12:38:36Z</time></trkpt><trkpt lat="44.72003381239634" lon="9.66371730235767"><ele>1178.0</ele><time>2026-05-03T12:38:37Z</time></trkpt><trkpt lat="44.72000301833534" lon="9.663590682674524"><ele>1179.0</ele><time>2026-05-03T12:38:38Z</time></trkpt><trkpt lat="44.7199936193388" lon="9.66343205983089"><ele>1181.4</ele><time>2026-05-03T12:38:39Z</time></trkpt><trkpt lat="44.71998039469781" lon="9.663277084132682"><ele>1183.8000000000002</ele><time>2026-05-03T12:38:40Z</time></trkpt><trkpt lat="44.71995919113656" lon="9.663125928688235"><ele>1186.1999999999998</ele><time>2026-05-03T12:38:41Z</time></trkpt><trkpt lat="44.71993375586074" lon="9.662973643248243"><ele>1188.6</ele><time>2026-05-03T12:38:42Z</time></trkpt><trkpt lat="44.71991351832575" lon="9.662819182800582"><ele>1191.0</ele><time>2026-05-03T12:38:43Z</time></trkpt><trkpt lat="44.71990336861775" lon="9.662667441145715"><ele>1192.2</ele><time>2026-05-03T12:38:44Z</time></trkpt><trkpt lat="44.71991870168155" lon="9.662519684032265"><ele>1193.3999999999999</ele><time>2026-05-03T12:38:45Z</time></trkpt><trkpt lat="44.719949931715746" lon="9.662363717329708"><ele>1194.6</ele><time>2026-05-03T12:38:46Z</time></trkpt><trkpt lat="44.719976581416965" lon="9.662212509041652"><ele>1195.8</ele><time>2026-05-03T12:38:47Z</time></trkpt><trkpt lat="44.72000245624359" lon="9.662071862648581"><ele>1197.0</ele><time>2026-05-03T12:38:48Z</time></trkpt><trkpt lat="44.720016218751624" lon="9.661945087401591"><ele>1197.5</ele><time>2026-05-03T12:38:49Z</time></trkpt><trkpt lat="44.720027444020616" lon="9.661830122488004"><ele>1198.0</ele><time>2026-05-03T12:38:50Z</time></trkpt><trkpt lat="44.72002115112782" lon="9.66173998752547"><ele>1198.5</ele><time>2026-05-03T12:38:51Z</time></trkpt><trkpt lat="44.71999474643267" lon="9.661636915476658"><ele>1199.0</ele><time>2026-05-03T12:38:52Z</time></trkpt><trkpt lat="44.719941363890996" lon="9.661529241055925"><ele>1199.5</ele><time>2026-05-03T12:38:53Z</time></trkpt><trkpt lat="44.71987517986231" lon="9.661431084615206"><ele>1200.0</ele><time>2026-05-03T12:38:54Z</time></trkpt><trkpt lat="44.71980422665211" lon="9.661324035550923"><ele>1200.0</ele><time>2026-05-03T12:38:55Z</time></trkpt><trkpt lat="44.719740246152384" lon="9.661201314497372"><ele>1200.0</ele><time>2026-05-03T12:38:56Z</time></trkpt><trkpt lat="44.71968745997892" lon="9.661060338165608"><ele>1200.0</ele><time>2026-05-03T12:38:57Z</time></trkpt><trkpt lat="44.71964295078351" lon="9.66092108176214"><ele>1200.0</ele><time>2026-05-03T12:38:58Z</time></trkpt><trkpt lat="44.71960063754006" lon="9.660783526378534"><ele>1200.0</ele><time>2026-05-03T12:38:59Z</time></trkpt><trkpt lat="44.71955737933601" lon="9.660646754810447"><ele>1200.75</ele><time>2026-05-03T12:39:00Z</time></trkpt><trkpt lat="44.71950414261422" lon="9.66051057475207"><ele>1201.5</ele><time>2026-05-03T12:39:01Z</time></trkpt><trkpt lat="44.71944845529275" lon="9.660373143141495"><ele>1202.25</ele><time>2026-05-03T12:39:02Z</time></trkpt><trkpt lat="44.7193956998565" lon="9.660220895376328"><ele>1203.0</ele><time>2026-05-03T12:39:03Z</time></trkpt><trkpt lat="44.71935029828662" lon="9.660073696278063"><ele>1206.5</ele><time>2026-05-03T12:39:04Z</time></trkpt><trkpt lat="44.71930818970939" lon="9.659923979604807"><ele>1210.0</ele><time>2026-05-03T12:39:05Z</time></trkpt><trkpt lat="44.71926881132036" lon="9.659767293195287"><ele>1213.5</ele><time>2026-05-03T12:39:06Z</time></trkpt><trkpt lat="44.71923160246195" lon="9.659611768291114"><ele>1217.0</ele><time>2026-05-03T12:39:07Z</time></trkpt><trkpt lat="44.719193204505" lon="9.65945815333651"><ele>1219.0</ele><time>2026-05-03T12:39:08Z</time></trkpt><trkpt lat="44.71914833281214" lon="9.659302065182054"><ele>1221.0</ele><time>2026-05-03T12:39:09Z</time></trkpt><trkpt lat="44.71911184180522" lon="9.659138703639222"><ele>1223.0</ele><time>2026-05-03T12:39:10Z</time></trkpt><trkpt lat="44.719080428521075" lon="9.658987208435788"><ele>1225.0</ele><time>2026-05-03T12:39:11Z</time></trkpt><trkpt lat="44.7190596684028" lon="9.658822511858501"><ele>1225.0</ele><time>2026-05-03T12:39:12Z</time></trkpt><trkpt lat="44.71902956699687" lon="9.65866915808933"><ele>1225.0</ele><time>2026-05-03T12:39:13Z</time></trkpt><trkpt lat="44.71899531920609" lon="9.65851389637786"><ele>1225.0</ele><time>2026-05-03T12:39:14Z</time></trkpt><trkpt lat="44.7189579221717" lon="9.658370546973183"><ele>1225.0</ele><time>2026-05-03T12:39:15Z</time></trkpt><trkpt lat="44.718910969445055" lon="9.6582313145252"><ele>1225.0</ele><time>2026-05-03T12:39:16Z</time></trkpt><trkpt lat="44.71885826441658" lon="9.658112381920551"><ele>1225.5</ele><time>2026-05-03T12:39:17Z</time></trkpt><trkpt lat="44.71881416243864" lon="9.658040661816345"><ele>1226.0</ele><time>2026-05-03T12:39:18Z</time></trkpt><trkpt lat="44.718769172998925" lon="9.65795019157241"><ele>1226.5</ele><time>2026-05-03T12:39:19Z</time></trkpt><trkpt lat="44.718729314847934" lon="9.65787870751949"><ele>1227.0</ele><time>2026-05-03T12:39:20Z</time></trkpt><trkpt lat="44.71871334506422" lon="9.657783819803832"><ele>1227.5</ele><time>2026-05-03T12:39:22Z</time></trkpt><trkpt lat="44.71872898872581" lon="9.657623785024107"><ele>1228.0</ele><time>2026-05-03T12:39:24Z</time></trkpt><trkpt lat="44.718669642127665" lon="9.657483728369012"><ele>1229.2</ele><time>2026-05-03T12:39:26Z</time></trkpt><trkpt lat="44.71865386308481" lon="9.657395857832833"><ele>1230.4</ele><time>2026-05-03T12:39:27Z</time></trkpt><trkpt lat="44.71864328779737" lon="9.657297826289323"><ele>1231.6000000000001</ele><time>2026-05-03T12:39:28Z</time></trkpt><trkpt lat="44.71863859528872" lon="9.657197610261344"><ele>1232.8</ele><time>2026-05-03T12:39:29Z</time></trkpt><trkpt lat="44.71863108713517" lon="9.656990924189316"><ele>1234.0</ele><time>2026-05-03T12:39:31Z</time></trkpt><trkpt lat="44.71857313934298" lon="9.656832964359747"><ele>1238.5</ele><time>2026-05-03T12:39:33Z</time></trkpt><trkpt lat="44.71852531284404" lon="9.65676167606545"><ele>1243.0</ele><time>2026-05-03T12:39:34Z</time></trkpt><trkpt lat="44.71848720908349" lon="9.656675208852196"><ele>1247.5</ele><time>2026-05-03T12:39:35Z</time></trkpt><trkpt lat="44.71845501840307" lon="9.656586252176618"><ele>1252.0</ele><time>2026-05-03T12:39:36Z</time></trkpt><trkpt lat="44.718400115198214" lon="9.656506741109704"><ele>1256.5</ele><time>2026-05-03T12:39:37Z</time></trkpt><trkpt lat="44.71831821934739" lon="9.656455173742144"><ele>1261.0</ele><time>2026-05-03T12:39:38Z</time></trkpt><trkpt lat="44.71824798292672" lon="9.656409584309086"><ele>1261.0</ele><time>2026-05-03T12:39:39Z</time></trkpt><trkpt lat="44.71818482597081" lon="9.656367969286006"><ele>1261.0</ele><time>2026-05-03T12:39:47Z</time></trkpt><trkpt lat="44.718117588878314" lon="9.656340803338065"><ele>1261.0</ele><time>2026-05-03T12:39:50Z</time></trkpt><trkpt lat="44.71797755535596" lon="9.6562496548248"><ele>1261.0</ele><time>2026-05-03T12:39:52Z</time></trkpt><trkpt lat="44.71789586571646" lon="9.656233429844939"><ele>1261.0</ele><time>2026-05-03T12:39:53Z</time></trkpt><trkpt lat="44.717784028407785" lon="9.65622789420701"><ele>1260.8</ele><time>2026-05-03T12:39:55Z</time></trkpt><trkpt lat="44.71771586487672" lon="9.656217238998991"><ele>1260.6</ele><time>2026-05-03T12:39:56Z</time></trkpt><trkpt lat="44.71762068848853" lon="9.656105277184638"><ele>1260.4</ele><time>2026-05-03T12:39:58Z</time></trkpt><trkpt lat="44.71754007752338" lon="9.656042012043121"><ele>1260.2</ele><time>2026-05-03T12:39:59Z</time></trkpt><trkpt lat="44.71743532708183" lon="9.655972094593686"><ele>1260.0</ele><time>2026-05-03T12:40:00Z</time></trkpt><trkpt lat="44.71736740704355" lon="9.655938854134378"><ele>1261.6</ele><time>2026-05-03T12:40:01Z</time></trkpt><trkpt lat="44.71728370234735" lon="9.655916354632849"><ele>1263.2</ele><time>2026-05-03T12:40:02Z</time></trkpt><trkpt lat="44.71720564880644" lon="9.655890806605694"><ele>1264.8</ele><time>2026-05-03T12:40:03Z</time></trkpt><trkpt lat="44.717070750657825" lon="9.655924398262034"><ele>1266.4</ele><time>2026-05-03T12:40:05Z</time></trkpt><trkpt lat="44.71697454672723" lon="9.65593426862348"><ele>1268.0</ele><time>2026-05-03T12:40:06Z</time></trkpt><trkpt lat="44.716891410374274" lon="9.655915616436218"><ele>1268.0</ele><time>2026-05-03T12:40:07Z</time></trkpt><trkpt lat="44.716819182510456" lon="9.655852820235019"><ele>1268.0</ele><time>2026-05-03T12:40:08Z</time></trkpt><trkpt lat="44.71673702018829" lon="9.655784590805524"><ele>1268.0</ele><time>2026-05-03T12:40:09Z</time></trkpt><trkpt lat="44.71666967918792" lon="9.655728304036938"><ele>1268.0</ele><time>2026-05-03T12:40:10Z</time></trkpt><trkpt lat="44.716599415261754" lon="9.6556696148129"><ele>1268.0</ele><time>2026-05-03T12:40:11Z</time></trkpt><trkpt lat="44.71654064009424" lon="9.655631191771894"><ele>1268.0</ele><time>2026-05-03T12:40:12Z</time></trkpt><trkpt lat="44.716446590175465" lon="9.655575064184807"><ele>1268.0</ele><time>2026-05-03T12:40:14Z</time></trkpt><trkpt lat="44.716304774633706" lon="9.655597110558862"><ele>1268.0</ele><time>2026-05-03T12:40:16Z</time></trkpt><trkpt lat="44.71619935908854" lon="9.655455517572237"><ele>1268.0</ele><time>2026-05-03T12:40:18Z</time></trkpt><trkpt lat="44.71614321998806" lon="9.655353666649948"><ele>1268.0</ele><time>2026-05-03T12:40:19Z</time></trkpt><trkpt lat="44.7160623301395" lon="9.655256130235395"><ele>1268.0</ele><time>2026-05-03T12:40:21Z</time></trkpt><trkpt lat="44.71597149690552" lon="9.65522144098189"><ele>1268.0</ele><time>2026-05-03T12:40:23Z</time></trkpt><trkpt lat="44.715895306928054" lon="9.655211035329039"><ele>1268.0</ele><time>2026-05-03T12:40:24Z</time></trkpt><trkpt lat="44.715793517189795" lon="9.655146910028378"><ele>1268.0</ele><time>2026-05-03T12:40:25Z</time></trkpt><trkpt lat="44.715688076187426" lon="9.655048601251874"><ele>1268.0</ele><time>2026-05-03T12:40:26Z</time></trkpt><trkpt lat="44.7155799573931" lon="9.65495683152087"><ele>1268.0</ele><time>2026-05-03T12:40:27Z</time></trkpt><trkpt lat="44.71547255712554" lon="9.654878823269707"><ele>1268.0</ele><time>2026-05-03T12:40:28Z</time></trkpt><trkpt lat="44.71538798070782" lon="9.654805981745225"><ele>1268.0</ele><time>2026-05-03T12:40:29Z</time></trkpt><trkpt lat="44.71533869114556" lon="9.654742911580923"><ele>1268.0</ele><time>2026-05-03T12:40:30Z</time></trkpt><trkpt lat="44.71526886584773" lon="9.654626959411116"><ele>1268.0</ele><time>2026-05-03T12:40:32Z</time></trkpt><trkpt lat="44.715239806844075" lon="9.654541304386461"><ele>1269.8</ele><time>2026-05-03T12:40:33Z</time></trkpt><trkpt lat="44.71520199809844" lon="9.654449006528832"><ele>1271.6</ele><time>2026-05-03T12:40:34Z</time></trkpt><trkpt lat="44.71515463423192" lon="9.654349645713012"><ele>1273.4</ele><time>2026-05-03T12:40:35Z</time></trkpt><trkpt lat="44.71511277933738" lon="9.654229203385128"><ele>1275.2</ele><time>2026-05-03T12:40:36Z</time></trkpt><trkpt lat="44.715070073909224" lon="9.65409061753729"><ele>1277.0</ele><time>2026-05-03T12:40:37Z</time></trkpt><trkpt lat="44.71502327743064" lon="9.653942950914645"><ele>1277.0</ele><time>2026-05-03T12:40:38Z</time></trkpt><trkpt lat="44.71497964227765" lon="9.653775939628124"><ele>1277.0</ele><time>2026-05-03T12:40:39Z</time></trkpt><trkpt lat="44.71494640767751" lon="9.653614145899661"><ele>1277.0</ele><time>2026-05-03T12:40:40Z</time></trkpt><trkpt lat="44.71491445387321" lon="9.653482784051791"><ele>1277.0</ele><time>2026-05-03T12:40:41Z</time></trkpt><trkpt lat="44.714893599247596" lon="9.653349916955035"><ele>1277.0</ele><time>2026-05-03T12:40:43Z</time></trkpt><trkpt lat="44.71486354462002" lon="9.6532607216733"><ele>1276.6</ele><time>2026-05-03T12:40:46Z</time></trkpt><trkpt lat="44.7148404320558" lon="9.653166165201183"><ele>1276.2</ele><time>2026-05-03T12:40:47Z</time></trkpt><trkpt lat="44.71481287997941" lon="9.653041758142276"><ele>1275.8</ele><time>2026-05-03T12:40:48Z</time></trkpt><trkpt lat="44.714777808273695" lon="9.652896363129306"><ele>1275.4</ele><time>2026-05-03T12:40:49Z</time></trkpt><trkpt lat="44.71473611839405" lon="9.652742641006656"><ele>1275.0</ele><time>2026-05-03T12:40:50Z</time></trkpt><trkpt lat="44.71471402337902" lon="9.652587094574118"><ele>1275.0</ele><time>2026-05-03T12:40:51Z</time></trkpt><trkpt lat="44.71470316684317" lon="9.652436843932298"><ele>1275.0</ele><time>2026-05-03T12:40:52Z</time></trkpt><trkpt lat="44.71472332831053" lon="9.652286771626438"><ele>1275.0</ele><time>2026-05-03T12:40:53Z</time></trkpt><trkpt lat="44.71479801646668" lon="9.65216830664048"><ele>1275.0</ele><time>2026-05-03T12:40:54Z</time></trkpt><trkpt lat="44.71483983152687" lon="9.65200954243279"><ele>1275.0</ele><time>2026-05-03T12:40:55Z</time></trkpt><trkpt lat="44.71488408768601" lon="9.65185932768646"><ele>1272.25</ele><time>2026-05-03T12:40:56Z</time></trkpt><trkpt lat="44.714927345033566" lon="9.651725178172857"><ele>1269.5</ele><time>2026-05-03T12:40:57Z</time></trkpt><trkpt lat="44.71497957772751" lon="9.651598089417593"><ele>1266.75</ele><time>2026-05-03T12:40:58Z</time></trkpt><trkpt lat="44.715051993154056" lon="9.651461058375633"><ele>1264.0</ele><time>2026-05-03T12:40:59Z</time></trkpt><trkpt lat="44.715121870050226" lon="9.651316793585563"><ele>1264.0</ele><time>2026-05-03T12:41:00Z</time></trkpt><trkpt lat="44.71519062881538" lon="9.6511748372543"><ele>1264.0</ele><time>2026-05-03T12:41:01Z</time></trkpt><trkpt lat="44.71525749517179" lon="9.651039765903535"><ele>1264.0</ele><time>2026-05-03T12:41:02Z</time></trkpt><trkpt lat="44.7153216903854" lon="9.650910662508393"><ele>1264.0</ele><time>2026-05-03T12:41:03Z</time></trkpt><trkpt lat="44.7153885058968" lon="9.650770281499074"><ele>1263.2</ele><time>2026-05-03T12:41:04Z</time></trkpt><trkpt lat="44.71544784257082" lon="9.650628264484267"><ele>1262.4</ele><time>2026-05-03T12:41:05Z</time></trkpt><trkpt lat="44.715505975794066" lon="9.650507796903995"><ele>1261.6</ele><time>2026-05-03T12:41:06Z</time></trkpt><trkpt lat="44.71555963426407" lon="9.650382907354423"><ele>1260.8</ele><time>2026-05-03T12:41:07Z</time></trkpt><trkpt lat="44.71561070316135" lon="9.650274501596138"><ele>1260.0</ele><time>2026-05-03T12:41:08Z</time></trkpt><trkpt lat="44.7156526185041" lon="9.65014178663411"><ele>1260.0</ele><time>2026-05-03T12:41:09Z</time></trkpt><trkpt lat="44.71567837674541" lon="9.649999541173324"><ele>1260.0</ele><time>2026-05-03T12:41:10Z</time></trkpt><trkpt lat="44.71567143780398" lon="9.649855236140711"><ele>1260.0</ele><time>2026-05-03T12:41:11Z</time></trkpt><trkpt lat="44.715635875887315" lon="9.649707071803725"><ele>1260.0</ele><time>2026-05-03T12:41:12Z</time></trkpt><trkpt lat="44.71558012799105" lon="9.649566335050288"><ele>1260.0</ele><time>2026-05-03T12:41:13Z</time></trkpt><trkpt lat="44.71553049642751" lon="9.6494222013953"><ele>1260.5</ele><time>2026-05-03T12:41:14Z</time></trkpt><trkpt lat="44.71549084375922" lon="9.649262132274387"><ele>1261.0</ele><time>2026-05-03T12:41:15Z</time></trkpt><trkpt lat="44.7154448895632" lon="9.649105167981695"><ele>1261.5</ele><time>2026-05-03T12:41:16Z</time></trkpt><trkpt lat="44.71540466504249" lon="9.648959342812121"><ele>1262.0</ele><time>2026-05-03T12:41:17Z</time></trkpt><trkpt lat="44.7153729497829" lon="9.648825284027279"><ele>1262.0</ele><time>2026-05-03T12:41:18Z</time></trkpt><trkpt lat="44.715341810113486" lon="9.648694153059102"><ele>1262.0</ele><time>2026-05-03T12:41:19Z</time></trkpt><trkpt lat="44.71530735988538" lon="9.648572666764604"><ele>1262.0</ele><time>2026-05-03T12:41:20Z</time></trkpt><trkpt lat="44.71530066771308" lon="9.64843169799632"><ele>1262.0</ele><time>2026-05-03T12:41:21Z</time></trkpt><trkpt lat="44.71527607174502" lon="9.64828733860119"><ele>1262.0</ele><time>2026-05-03T12:41:22Z</time></trkpt><trkpt lat="44.71527264561736" lon="9.648141751901344"><ele>1261.2</ele><time>2026-05-03T12:41:23Z</time></trkpt><trkpt lat="44.71529053537561" lon="9.647989477797354"><ele>1260.4</ele><time>2026-05-03T12:41:24Z</time></trkpt><trkpt lat="44.715303334550725" lon="9.647832811763529"><ele>1259.6</ele><time>2026-05-03T12:41:25Z</time></trkpt><trkpt lat="44.715337097899365" lon="9.647687219764016"><ele>1258.8</ele><time>2026-05-03T12:41:26Z</time></trkpt><trkpt lat="44.71537275581446" lon="9.647539990094637"><ele>1258.0</ele><time>2026-05-03T12:41:27Z</time></trkpt><trkpt lat="44.7154077554375" lon="9.647399617994695"><ele>1258.0</ele><time>2026-05-03T12:41:28Z</time></trkpt><trkpt lat="44.715448897686336" lon="9.647236856339847"><ele>1258.0</ele><time>2026-05-03T12:41:29Z</time></trkpt><trkpt lat="44.715480480324274" lon="9.647052788317495"><ele>1258.0</ele><time>2026-05-03T12:41:30Z</time></trkpt><trkpt lat="44.71552828402189" lon="9.64686967844698"><ele>1258.0</ele><time>2026-05-03T12:41:31Z</time></trkpt><trkpt lat="44.71556498628892" lon="9.646682511098863"><ele>1256.0</ele><time>2026-05-03T12:41:32Z</time></trkpt><trkpt lat="44.71559383583832" lon="9.646494262088558"><ele>1254.0</ele><time>2026-05-03T12:41:33.001Z</time></trkpt><trkpt lat="44.715595219380134" lon="9.646315692866633"><ele>1252.0</ele><time>2026-05-03T12:41:34.001Z</time></trkpt><trkpt lat="44.715573072949326" lon="9.646145226401234"><ele>1250.0</ele><time>2026-05-03T12:41:35.001Z</time></trkpt><trkpt lat="44.71554682218902" lon="9.645960786280448"><ele>1249.5</ele><time>2026-05-03T12:41:36.001Z</time></trkpt><trkpt lat="44.71552061146608" lon="9.645755670993891"><ele>1249.0</ele><time>2026-05-03T12:41:37.001Z</time></trkpt><trkpt lat="44.71549394810634" lon="9.64556032563187"><ele>1248.5</ele><time>2026-05-03T12:41:38.001Z</time></trkpt><trkpt lat="44.715467727832376" lon="9.645376016853524"><ele>1248.0</ele><time>2026-05-03T12:41:39.001Z</time></trkpt><trkpt lat="44.715442614076714" lon="9.645193114907807"><ele>1248.0</ele><time>2026-05-03T12:41:40.001Z</time></trkpt><trkpt lat="44.715424242604755" lon="9.645002869885325"><ele>1248.0</ele><time>2026-05-03T12:41:41.001Z</time></trkpt><trkpt lat="44.71538766856947" lon="9.644807713108493"><ele>1248.0</ele><time>2026-05-03T12:41:42.001Z</time></trkpt><trkpt lat="44.715360010278296" lon="9.644635709413588"><ele>1248.0</ele><time>2026-05-03T12:41:43.001Z</time></trkpt><trkpt lat="44.71533387791577" lon="9.644459652526358"><ele>1248.25</ele><time>2026-05-03T12:41:44.001Z</time></trkpt><trkpt lat="44.715324924314906" lon="9.644261661482682"><ele>1248.5</ele><time>2026-05-03T12:41:45.001Z</time></trkpt><trkpt lat="44.71529620098296" lon="9.644075972430768"><ele>1248.75</ele><time>2026-05-03T12:41:46Z</time></trkpt><trkpt lat="44.71527361126693" lon="9.643916277013128"><ele>1249.0</ele><time>2026-05-03T12:41:47Z</time></trkpt><trkpt lat="44.71523043084758" lon="9.643772597603006"><ele>1244.75</ele><time>2026-05-03T12:41:48Z</time></trkpt><trkpt lat="44.71516251448616" lon="9.643646993685058"><ele>1240.5</ele><time>2026-05-03T12:41:49Z</time></trkpt><trkpt lat="44.7150600680249" lon="9.643543881985117"><ele>1236.25</ele><time>2026-05-03T12:41:50Z</time></trkpt><trkpt lat="44.71495613419898" lon="9.643453522387624"><ele>1232.0</ele><time>2026-05-03T12:41:51Z</time></trkpt><trkpt lat="44.71484542555834" lon="9.643391990328043"><ele>1232.0</ele><time>2026-05-03T12:41:52Z</time></trkpt><trkpt lat="44.714725532407776" lon="9.643324637078367"><ele>1232.0</ele><time>2026-05-03T12:41:53Z</time></trkpt><trkpt lat="44.714604740981265" lon="9.6432570987114"><ele>1232.0</ele><time>2026-05-03T12:41:54Z</time></trkpt><trkpt lat="44.714491647425724" lon="9.643201958135318"><ele>1232.0</ele><time>2026-05-03T12:41:55Z</time></trkpt><trkpt lat="44.71438553577464" lon="9.643162858363418"><ele>1229.2</ele><time>2026-05-03T12:41:56Z</time></trkpt><trkpt lat="44.71428001925274" lon="9.643133260695604"><ele>1226.4</ele><time>2026-05-03T12:41:57Z</time></trkpt><trkpt lat="44.71418077755639" lon="9.643090322485635"><ele>1223.6</ele><time>2026-05-03T12:41:58Z</time></trkpt><trkpt lat="44.71409769021998" lon="9.643001795169186"><ele>1220.8</ele><time>2026-05-03T12:41:59Z</time></trkpt><trkpt lat="44.71404571124482" lon="9.642898052501893"><ele>1218.0</ele><time>2026-05-03T12:42:00Z</time></trkpt><trkpt lat="44.714020405192045" lon="9.642776666067752"><ele>1218.0</ele><time>2026-05-03T12:42:01Z</time></trkpt><trkpt lat="44.713972492327464" lon="9.642617421911307"><ele>1218.0</ele><time>2026-05-03T12:42:02Z</time></trkpt><trkpt lat="44.71392024401476" lon="9.642452680585501"><ele>1218.0</ele><time>2026-05-03T12:42:03Z</time></trkpt><trkpt lat="44.71385404114055" lon="9.642295247586713"><ele>1218.0</ele><time>2026-05-03T12:42:04Z</time></trkpt><trkpt lat="44.71381016801791" lon="9.642115212971296"><ele>1216.5</ele><time>2026-05-03T12:42:05Z</time></trkpt><trkpt lat="44.713762318199166" lon="9.64193741478999"><ele>1215.0</ele><time>2026-05-03T12:42:06Z</time></trkpt><trkpt lat="44.713757708125065" lon="9.64177723274027"><ele>1213.5</ele><time>2026-05-03T12:42:07Z</time></trkpt><trkpt lat="44.7137647232684" lon="9.641609250025702"><ele>1212.0</ele><time>2026-05-03T12:42:08Z</time></trkpt><trkpt lat="44.713796193549385" lon="9.641462344576174"><ele>1212.0</ele><time>2026-05-03T12:42:09Z</time></trkpt><trkpt lat="44.713855541341495" lon="9.641349100236809"><ele>1212.0</ele><time>2026-05-03T12:42:10Z</time></trkpt><trkpt lat="44.71393172247206" lon="9.641192758447067"><ele>1212.0</ele><time>2026-05-03T12:42:11Z</time></trkpt><trkpt lat="44.714005469630905" lon="9.64103611558475"><ele>1212.0</ele><time>2026-05-03T12:42:12Z</time></trkpt><trkpt lat="44.71406537044824" lon="9.64088025938677"><ele>1209.2</ele><time>2026-05-03T12:42:13Z</time></trkpt><trkpt lat="44.71408646835887" lon="9.640743793779517"><ele>1206.4</ele><time>2026-05-03T12:42:14Z</time></trkpt><trkpt lat="44.71407814199537" lon="9.640619267265214"><ele>1203.6</ele><time>2026-05-03T12:42:15Z</time></trkpt><trkpt lat="44.71402458193696" lon="9.640489145086281"><ele>1200.8</ele><time>2026-05-03T12:42:16Z</time></trkpt><trkpt lat="44.71395815156428" lon="9.640376199041333"><ele>1198.0</ele><time>2026-05-03T12:42:17Z</time></trkpt><trkpt lat="44.71390016433237" lon="9.640295651873261"><ele>1196.8</ele><time>2026-05-03T12:42:18Z</time></trkpt><trkpt lat="44.71386016725723" lon="9.640198782576794"><ele>1195.6</ele><time>2026-05-03T12:42:20Z</time></trkpt><trkpt lat="44.71380323100281" lon="9.640129498620908"><ele>1194.4</ele><time>2026-05-03T12:42:23Z</time></trkpt><trkpt lat="44.71375696050962" lon="9.639963776211804"><ele>1193.2</ele><time>2026-05-03T12:42:25Z</time></trkpt><trkpt lat="44.71371862083967" lon="9.639891060192577"><ele>1192.0</ele><time>2026-05-03T12:42:26Z</time></trkpt><trkpt lat="44.71365495875946" lon="9.639770317127164"><ele>1192.0</ele><time>2026-05-03T12:42:28Z</time></trkpt><trkpt lat="44.7135839897184" lon="9.639632619221837"><ele>1192.0</ele><time>2026-05-03T12:42:30Z</time></trkpt><trkpt lat="44.71351960645367" lon="9.639501577404372"><ele>1192.0</ele><time>2026-05-03T12:42:32Z</time></trkpt><trkpt lat="44.7134896470491" lon="9.639380668292437"><ele>1192.0</ele><time>2026-05-03T12:42:34Z</time></trkpt><trkpt lat="44.71372025085535" lon="9.638992824497828"><ele>1192.6666666666665</ele><time>2026-05-03T12:42:36Z</time></trkpt><trkpt lat="44.7136941202045" lon="9.638892698118424"><ele>1193.3333333333333</ele><time>2026-05-03T12:42:37Z</time></trkpt><trkpt lat="44.7136292533935" lon="9.63879448716052"><ele>1194.0</ele><time>2026-05-03T12:42:39Z</time></trkpt><trkpt lat="44.71363735210011" lon="9.638651054131676"><ele>1194.6666666666667</ele><time>2026-05-03T12:42:42Z</time></trkpt><trkpt lat="44.713604384127514" lon="9.638556622621035"><ele>1195.3333333333335</ele><time>2026-05-03T12:42:43Z</time></trkpt><trkpt lat="44.71355470570439" lon="9.63846352617439"><ele>1196.0</ele><time>2026-05-03T12:42:44Z</time></trkpt><trkpt lat="44.71351544455818" lon="9.638387726859502"><ele>1196.0</ele><time>2026-05-03T12:42:45Z</time></trkpt><trkpt lat="44.713495936056304" lon="9.63829299742354"><ele>1196.0</ele><time>2026-05-03T12:42:46Z</time></trkpt><trkpt lat="44.71348619413648" lon="9.63819129850041"><ele>1196.0</ele><time>2026-05-03T12:42:47Z</time></trkpt><trkpt lat="44.71349491857424" lon="9.638091726037459"><ele>1196.0</ele><time>2026-05-03T12:42:48Z</time></trkpt><trkpt lat="44.713442379507306" lon="9.637959715979731"><ele>1196.0</ele><time>2026-05-03T12:42:50Z</time></trkpt><trkpt lat="44.713436985714644" lon="9.63784021887461"><ele>1196.0</ele><time>2026-05-03T12:42:52Z</time></trkpt><trkpt lat="44.713457447328096" lon="9.63774884969714"><ele>1199.0</ele><time>2026-05-03T12:42:53Z</time></trkpt><trkpt lat="44.71345527802772" lon="9.637586110607371"><ele>1202.0</ele><time>2026-05-03T12:42:55Z</time></trkpt><trkpt lat="44.7134856450772" lon="9.637406658172253"><ele>1205.0</ele><time>2026-05-03T12:42:57Z</time></trkpt><trkpt lat="44.713493626785635" lon="9.63731652358842"><ele>1208.0</ele><time>2026-05-03T12:42:58Z</time></trkpt><trkpt lat="44.71350018835911" lon="9.637180909374557"><ele>1211.0</ele><time>2026-05-03T12:43:00Z</time></trkpt><trkpt lat="44.71345696034619" lon="9.6371019293104"><ele>1213.6</ele><time>2026-05-03T12:43:02Z</time></trkpt><trkpt lat="44.713368703060134" lon="9.63695346972051"><ele>1216.1999999999998</ele><time>2026-05-03T12:43:04Z</time></trkpt><trkpt lat="44.713339579698726" lon="9.636850584978369"><ele>1218.8000000000002</ele><time>2026-05-03T12:43:05Z</time></trkpt><trkpt lat="44.71330290323596" lon="9.6367617906428"><ele>1221.4</ele><time>2026-05-03T12:43:06Z</time></trkpt><trkpt lat="44.71326627882851" lon="9.636683210802408"><ele>1224.0</ele><time>2026-05-03T12:43:07Z</time></trkpt><trkpt lat="44.71317160394059" lon="9.636553628517463"><ele>1224.0</ele><time>2026-05-03T12:43:09Z</time></trkpt><trkpt lat="44.713104895313315" lon="9.636421492389129"><ele>1224.0</ele><time>2026-05-03T12:43:11Z</time></trkpt><trkpt lat="44.71305578344919" lon="9.63626137836966"><ele>1224.0</ele><time>2026-05-03T12:43:13Z</time></trkpt><trkpt lat="44.713026812042195" lon="9.636160275661389"><ele>1224.0</ele><time>2026-05-03T12:43:14Z</time></trkpt><trkpt lat="44.71298101812077" lon="9.636001529819714"><ele>1224.0</ele><time>2026-05-03T12:43:16Z</time></trkpt><trkpt lat="44.71295013355289" lon="9.635920977127217"><ele>1223.6000000000001</ele><time>2026-05-03T12:43:17Z</time></trkpt><trkpt lat="44.71285114963011" lon="9.635790074532984"><ele>1223.2</ele><time>2026-05-03T12:43:19Z</time></trkpt><trkpt lat="44.71280947718213" lon="9.635702965156563"><ele>1222.8000000000002</ele><time>2026-05-03T12:43:20Z</time></trkpt><trkpt lat="44.71277646305718" lon="9.635542959432469"><ele>1222.4</ele><time>2026-05-03T12:43:22Z</time></trkpt><trkpt lat="44.712751955157245" lon="9.635451988759156"><ele>1222.0</ele><time>2026-05-03T12:43:23Z</time></trkpt><trkpt lat="44.71271902410965" lon="9.63532636571194"><ele>1224.2</ele><time>2026-05-03T12:43:24Z</time></trkpt><trkpt lat="44.71274694950455" lon="9.635159809191894"><ele>1226.4</ele><time>2026-05-03T12:43:26Z</time></trkpt><trkpt lat="44.71273963026494" lon="9.635051806672484"><ele>1228.6</ele><time>2026-05-03T12:43:27Z</time></trkpt><trkpt lat="44.71273341317464" lon="9.63495839280656"><ele>1230.8</ele><time>2026-05-03T12:43:28Z</time></trkpt><trkpt lat="44.71267808978737" lon="9.634813865938888"><ele>1233.0</ele><time>2026-05-03T12:43:30Z</time></trkpt><trkpt lat="44.71256095137878" lon="9.63474339072838"><ele>1233.0</ele><time>2026-05-03T12:43:32Z</time></trkpt><trkpt lat="44.712492964086856" lon="9.63470258783752"><ele>1233.0</ele><time>2026-05-03T12:43:33Z</time></trkpt><trkpt lat="44.7124312526702" lon="9.63454988008185"><ele>1233.0</ele><time>2026-05-03T12:43:36Z</time></trkpt><trkpt lat="44.71241672996627" lon="9.63445463637614"><ele>1233.0</ele><time>2026-05-03T12:43:37Z</time></trkpt><trkpt lat="44.71240444451268" lon="9.63436145128657"><ele>1233.0</ele><time>2026-05-03T12:44:12Z</time></trkpt><trkpt lat="44.712376212393394" lon="9.634234834879956"><ele>1233.0</ele><time>2026-05-03T12:44:16Z</time></trkpt><trkpt lat="44.71235665469216" lon="9.634100999258491"><ele>1235.0</ele><time>2026-05-03T12:44:18Z</time></trkpt><trkpt lat="44.712282175340604" lon="9.634027915783753"><ele>1235.0</ele><time>2026-05-03T12:44:20Z</time></trkpt><trkpt lat="44.71221644805166" lon="9.633930045039481"><ele>1235.0</ele><time>2026-05-03T12:44:22Z</time></trkpt><trkpt lat="44.712185177977695" lon="9.633842707444957"><ele>1235.0</ele><time>2026-05-03T12:44:25Z</time></trkpt></trkseg><trkseg><trkpt lat="44.71245230298989" lon="9.633711532126917"><ele>1235.0</ele><time>2026-05-03T13:04:47Z</time></trkpt><trkpt lat="44.712383616930374" lon="9.633753439533614"><ele>1235.0</ele><time>2026-05-03T13:04:50Z</time></trkpt><trkpt lat="44.71231681974742" lon="9.63378558751283"><ele>1235.0</ele><time>2026-05-03T13:04:58Z</time></trkpt><trkpt lat="44.71223098025862" lon="9.63376825086418"><ele>1235.0</ele><time>2026-05-03T13:05:01Z</time></trkpt><trkpt lat="44.71217085038208" lon="9.633802602290269"><ele>1235.0</ele><time>2026-05-03T13:05:03Z</time></trkpt><trkpt lat="44.71210428800947" lon="9.633800628389961"><ele>1235.0</ele><time>2026-05-03T13:05:06Z</time></trkpt><trkpt lat="44.71200758656489" lon="9.633829926136828"><ele>1234.9999999999998</ele><time>2026-05-03T13:05:19Z</time></trkpt><trkpt lat="44.711944287612894" lon="9.633789998693599"><ele>1235.0</ele><time>2026-05-03T13:05:23Z</time></trkpt><trkpt lat="44.71190314912844" lon="9.63372288438267"><ele>1235.0</ele><time>2026-05-03T13:05:26Z</time></trkpt><trkpt lat="44.71187810177281" lon="9.63363923500742"><ele>1235.0</ele><time>2026-05-03T13:05:29Z</time></trkpt><trkpt lat="44.711898986104664" lon="9.633538176731447"><ele>1235.0</ele><time>2026-05-03T13:05:38Z</time></trkpt><trkpt lat="44.71194731566043" lon="9.633456639497467"><ele>1234.9999999999998</ele><time>2026-05-03T13:05:40Z</time></trkpt><trkpt lat="44.711994822390864" lon="9.633378410067975"><ele>1235.0</ele><time>2026-05-03T13:06:06Z</time></trkpt><trkpt lat="44.712026651223354" lon="9.633300975310517"><ele>1234.8571428571427</ele><time>2026-05-03T13:06:12Z</time></trkpt><trkpt lat="44.71204101860644" lon="9.633197201309585"><ele>1234.7142857142858</ele><time>2026-05-03T13:06:16Z</time></trkpt><trkpt lat="44.71203731870619" lon="9.633094481237283"><ele>1234.5714285714284</ele><time>2026-05-03T13:06:27Z</time></trkpt><trkpt lat="44.71196266012857" lon="9.633119091506268"><ele>1234.4285714285713</ele><time>2026-05-03T13:06:34Z</time></trkpt><trkpt lat="44.71196756669489" lon="9.633232514508942"><ele>1234.2857142857142</ele><time>2026-05-03T13:06:37Z</time></trkpt><trkpt lat="44.71199502474152" lon="9.633319064391019"><ele>1234.142857142857</ele><time>2026-05-03T13:06:43Z</time></trkpt><trkpt lat="44.711974271049925" lon="9.633419766903122"><ele>1234.0</ele><time>2026-05-03T13:06:46Z</time></trkpt><trkpt lat="44.71192330305728" lon="9.633479391454419"><ele>1234.1666666666665</ele><time>2026-05-03T13:06:49Z</time></trkpt><trkpt lat="44.71186863130561" lon="9.633568855331525"><ele>1234.3333333333333</ele><time>2026-05-03T13:07:09Z</time></trkpt><trkpt lat="44.71189689409312" lon="9.63371971923075"><ele>1234.5</ele><time>2026-05-03T13:07:13Z</time></trkpt><trkpt lat="44.71194652107221" lon="9.633782913199566"><ele>1234.6666666666667</ele><time>2026-05-03T13:07:16Z</time></trkpt><trkpt lat="44.71200332254209" lon="9.633825304884324"><ele>1234.8333333333335</ele><time>2026-05-03T13:07:18Z</time></trkpt><trkpt lat="44.71209769494536" lon="9.633812044398084"><ele>1235.0</ele><time>2026-05-03T13:07:21Z</time></trkpt><trkpt lat="44.71217932713365" lon="9.63380072619076"><ele>1235.0</ele><time>2026-05-03T13:07:23Z</time></trkpt><trkpt lat="44.71222771378735" lon="9.633920217721117"><ele>1235.0</ele><time>2026-05-03T13:07:26Z</time></trkpt><trkpt lat="44.712294379466904" lon="9.634022467511361"><ele>1235.0</ele><time>2026-05-03T13:07:28Z</time></trkpt><trkpt lat="44.71237327453486" lon="9.63410504422127"><ele>1235.0</ele><time>2026-05-03T13:07:30Z</time></trkpt><trkpt lat="44.712396515176444" lon="9.634249282350455"><ele>1235.0</ele><time>2026-05-03T13:07:33Z</time></trkpt><trkpt lat="44.7124032493763" lon="9.63433854852712"><ele>1235.0</ele><time>2026-05-03T13:07:34Z</time></trkpt><trkpt lat="44.71242373363283" lon="9.634426674485224"><ele>1235.0</ele><time>2026-05-03T13:07:37Z</time></trkpt><trkpt lat="44.71244084485472" lon="9.634573885923336"><ele>1235.0</ele><time>2026-05-03T13:07:39Z</time></trkpt><trkpt lat="44.71250332712336" lon="9.634684885180025"><ele>1235.0</ele><time>2026-05-03T13:07:42Z</time></trkpt><trkpt lat="44.71256258703915" lon="9.634715048970346"><ele>1235.0</ele><time>2026-05-03T13:07:44Z</time></trkpt><trkpt lat="44.712664181540376" lon="9.634807525518655"><ele>1234.6666666666667</ele><time>2026-05-03T13:07:46Z</time></trkpt><trkpt lat="44.71271858632717" lon="9.634856863526851"><ele>1234.3333333333335</ele><time>2026-05-03T13:07:47Z</time></trkpt><trkpt lat="44.712755807935565" lon="9.634987833144917"><ele>1234.0</ele><time>2026-05-03T13:07:49Z</time></trkpt><trkpt lat="44.71275159074305" lon="9.635080389895798"><ele>1233.6666666666667</ele><time>2026-05-03T13:07:51Z</time></trkpt><trkpt lat="44.712765080479414" lon="9.635245995560744"><ele>1233.3333333333333</ele><time>2026-05-03T13:07:53Z</time></trkpt><trkpt lat="44.71276300190377" lon="9.63537578972247"><ele>1233.0</ele><time>2026-05-03T13:07:55Z</time></trkpt><trkpt lat="44.712781038255756" lon="9.635515861914152"><ele>1232.8</ele><time>2026-05-03T13:07:57Z</time></trkpt><trkpt lat="44.71284298636324" lon="9.635668258125973"><ele>1232.6</ele><time>2026-05-03T13:07:59Z</time></trkpt><trkpt lat="44.71288679940276" lon="9.635801612168443"><ele>1232.4</ele><time>2026-05-03T13:08:01Z</time></trkpt><trkpt lat="44.71293453961387" lon="9.635880666507491"><ele>1232.2</ele><time>2026-05-03T13:08:03Z</time></trkpt><trkpt lat="44.71298536521692" lon="9.63595225207218"><ele>1232.0</ele><time>2026-05-03T13:08:05Z</time></trkpt><trkpt lat="44.7130127831517" lon="9.636064327859412"><ele>1230.4</ele><time>2026-05-03T13:08:07Z</time></trkpt><trkpt lat="44.71304382324287" lon="9.636165815684633"><ele>1228.8000000000002</ele><time>2026-05-03T13:08:09Z</time></trkpt><trkpt lat="44.71308746438602" lon="9.636311859679628"><ele>1227.2</ele><time>2026-05-03T13:08:11Z</time></trkpt><trkpt lat="44.71312183932736" lon="9.636414833204801"><ele>1225.6000000000001</ele><time>2026-05-03T13:08:13Z</time></trkpt><trkpt lat="44.71307329507511" lon="9.636311169923838"><ele>1224.0</ele><time>2026-05-03T13:08:42Z</time></trkpt><trkpt lat="44.71305659312996" lon="9.63617979393019"><ele>1225.3333333333333</ele><time>2026-05-03T13:08:44Z</time></trkpt><trkpt lat="44.713017859618155" lon="9.636031337039158"><ele>1226.6666666666667</ele><time>2026-05-03T13:08:46Z</time></trkpt><trkpt lat="44.71298369491941" lon="9.635952920184035"><ele>1228.0</ele><time>2026-05-03T13:08:49Z</time></trkpt><trkpt lat="44.71293317608918" lon="9.635883458450358"><ele>1229.3333333333335</ele><time>2026-05-03T13:08:59Z</time></trkpt><trkpt lat="44.7128652115864" lon="9.63579351080256"><ele>1230.6666666666667</ele><time>2026-05-03T13:09:01Z</time></trkpt><trkpt lat="44.71284217371263" lon="9.63569659859631"><ele>1232.0</ele><time>2026-05-03T13:09:04Z</time></trkpt><trkpt lat="44.71280149255668" lon="9.635584127712963"><ele>1232.0</ele><time>2026-05-03T13:09:08Z</time></trkpt><trkpt lat="44.71277072902534" lon="9.63544960015589"><ele>1232.0</ele><time>2026-05-03T13:09:10Z</time></trkpt><trkpt lat="44.71277161603343" lon="9.635317487949946"><ele>1232.0</ele><time>2026-05-03T13:09:12Z</time></trkpt><trkpt lat="44.71277324241378" lon="9.635180759344653"><ele>1232.0</ele><time>2026-05-03T13:09:14Z</time></trkpt><trkpt lat="44.712758621156716" lon="9.635028791905894"><ele>1232.0</ele><time>2026-05-03T13:09:16Z</time></trkpt><trkpt lat="44.71274041835904" lon="9.634923436581182"><ele>1232.1666666666667</ele><time>2026-05-03T13:09:18Z</time></trkpt><trkpt lat="44.71271128715397" lon="9.634835968242122"><ele>1232.3333333333335</ele><time>2026-05-03T13:09:20Z</time></trkpt><trkpt lat="44.712709674114166" lon="9.634705230591813"><ele>1232.5</ele><time>2026-05-03T13:09:35Z</time></trkpt><trkpt lat="44.71272608739266" lon="9.634598123550676"><ele>1232.6666666666667</ele><time>2026-05-03T13:09:40Z</time></trkpt><trkpt lat="44.71275080176446" lon="9.634509218146166"><ele>1232.8333333333333</ele><time>2026-05-03T13:09:44Z</time></trkpt><trkpt lat="44.71279198720033" lon="9.634428589970044"><ele>1233.0</ele><time>2026-05-03T13:09:46Z</time></trkpt><trkpt lat="44.71286173482231" lon="9.634371683172892"><ele>1233.0</ele><time>2026-05-03T13:09:51Z</time></trkpt><trkpt lat="44.71290048282084" lon="9.634294733123523"><ele>1233.0</ele><time>2026-05-03T13:10:29.999Z</time></trkpt><trkpt lat="44.71279889226001" lon="9.634325103768873"><ele>1233.0</ele><time>2026-05-03T13:10:51Z</time></trkpt><trkpt lat="44.71278870728053" lon="9.63446301953659"><ele>1233.0</ele><time>2026-05-03T13:10:53Z</time></trkpt><trkpt lat="44.712727355609125" lon="9.634563387824494"><ele>1233.0</ele><time>2026-05-03T13:10:57Z</time></trkpt><trkpt lat="44.71267649855372" lon="9.634631113317953"><ele>1233.0</ele><time>2026-05-03T13:11:01Z</time></trkpt><trkpt lat="44.71260644978911" lon="9.634643052802186"><ele>1233.0</ele><time>2026-05-03T13:11:04Z</time></trkpt><trkpt lat="44.71262543820799" lon="9.634764251590681"><ele>1233.0</ele><time>2026-05-03T13:11:07Z</time></trkpt><trkpt lat="44.712700723054716" lon="9.634816305093834"><ele>1233.0</ele><time>2026-05-03T13:11:09Z</time></trkpt><trkpt lat="44.71275860337401" lon="9.634950867799184"><ele>1233.0</ele><time>2026-05-03T13:11:11Z</time></trkpt><trkpt lat="44.71276061048721" lon="9.635045122088181"><ele>1233.0</ele><time>2026-05-03T13:11:12Z</time></trkpt><trkpt lat="44.71276910841675" lon="9.635149490554925"><ele>1233.0</ele><time>2026-05-03T13:11:13Z</time></trkpt><trkpt lat="44.7127825189496" lon="9.63532757442638"><ele>1232.8333333333333</ele><time>2026-05-03T13:11:15Z</time></trkpt><trkpt lat="44.71279021946703" lon="9.635478921898718"><ele>1232.6666666666667</ele><time>2026-05-03T13:11:17Z</time></trkpt><trkpt lat="44.712806318934895" lon="9.635576422394653"><ele>1232.5</ele><time>2026-05-03T13:11:18Z</time></trkpt><trkpt lat="44.712833396721955" lon="9.635665780002382"><ele>1232.3333333333335</ele><time>2026-05-03T13:11:19Z</time></trkpt><trkpt lat="44.71286584214754" lon="9.635749684646711"><ele>1232.1666666666667</ele><time>2026-05-03T13:11:20Z</time></trkpt><trkpt lat="44.71293524837623" lon="9.635880538505486"><ele>1232.0</ele><time>2026-05-03T13:11:22Z</time></trkpt><trkpt lat="44.7130056912088" lon="9.635988916188719"><ele>1232.0</ele><time>2026-05-03T13:11:24Z</time></trkpt><trkpt lat="44.71303541369822" lon="9.636119879289314"><ele>1232.0</ele><time>2026-05-03T13:11:26Z</time></trkpt><trkpt lat="44.71307533958941" lon="9.636250817714544"><ele>1232.0</ele><time>2026-05-03T13:11:28Z</time></trkpt><trkpt lat="44.713108486283346" lon="9.636368903950453"><ele>1232.0</ele><time>2026-05-03T13:11:30Z</time></trkpt><trkpt lat="44.7131628338065" lon="9.636496179714978"><ele>1232.0</ele><time>2026-05-03T13:11:32Z</time></trkpt><trkpt lat="44.71321702836068" lon="9.636596254412266"><ele>1230.6666666666667</ele><time>2026-05-03T13:11:34Z</time></trkpt><trkpt lat="44.7132828681569" lon="9.636692435335242"><ele>1229.3333333333335</ele><time>2026-05-03T13:11:36Z</time></trkpt><trkpt lat="44.713345228839685" lon="9.63680319025065"><ele>1228.0</ele><time>2026-05-03T13:11:38Z</time></trkpt><trkpt lat="44.71337954904586" lon="9.636904919260404"><ele>1226.6666666666667</ele><time>2026-05-03T13:11:41Z</time></trkpt><trkpt lat="44.713426246591" lon="9.637017049726868"><ele>1225.3333333333333</ele><time>2026-05-03T13:11:42Z</time></trkpt><trkpt lat="44.713461819781536" lon="9.637102691063383"><ele>1224.0</ele><time>2026-05-03T13:11:43Z</time></trkpt><trkpt lat="44.713513055332704" lon="9.63720154590002"><ele>1221.4</ele><time>2026-05-03T13:11:45Z</time></trkpt><trkpt lat="44.713504330966366" lon="9.637333422351519"><ele>1218.8000000000002</ele><time>2026-05-03T13:11:48Z</time></trkpt><trkpt lat="44.713611505433235" lon="9.63723452392872"><ele>1216.1999999999998</ele><time>2026-05-03T13:12:07Z</time></trkpt><trkpt lat="44.71368558390343" lon="9.637182439974406"><ele>1213.6</ele><time>2026-05-03T13:12:08Z</time></trkpt><trkpt lat="44.71375736671464" lon="9.637120405674183"><ele>1211.0</ele><time>2026-05-03T13:12:09Z</time></trkpt><trkpt lat="44.713824532057224" lon="9.637025970749491"><ele>1212.2</ele><time>2026-05-03T13:12:11Z</time></trkpt><trkpt lat="44.71386673613741" lon="9.636956415769133"><ele>1213.3999999999999</ele><time>2026-05-03T13:12:16Z</time></trkpt><trkpt lat="44.713939537304626" lon="9.63683262256549"><ele>1214.6</ele><time>2026-05-03T13:12:18Z</time></trkpt><trkpt lat="44.713992650506576" lon="9.636676986264654"><ele>1215.8</ele><time>2026-05-03T13:12:20Z</time></trkpt><trkpt lat="44.71403367709531" lon="9.63654229045586"><ele>1217.0</ele><time>2026-05-03T13:12:22Z</time></trkpt><trkpt lat="44.71410370747303" lon="9.636399345589817"><ele>1217.0</ele><time>2026-05-03T13:12:24Z</time></trkpt><trkpt lat="44.71414321037196" lon="9.636309893115417"><ele>1217.0</ele><time>2026-05-03T13:12:25Z</time></trkpt><trkpt lat="44.714189330696605" lon="9.636195125956249"><ele>1217.0</ele><time>2026-05-03T13:12:26Z</time></trkpt><trkpt lat="44.71422543210873" lon="9.636113932204918"><ele>1217.0</ele><time>2026-05-03T13:12:27Z</time></trkpt><trkpt lat="44.714270501936" lon="9.636052026982213"><ele>1217.0</ele><time>2026-05-03T13:12:28Z</time></trkpt><trkpt lat="44.714316895161744" lon="9.635991827213353"><ele>1217.0</ele><time>2026-05-03T13:12:29Z</time></trkpt><trkpt lat="44.71440124092798" lon="9.635892794623045"><ele>1213.6666666666667</ele><time>2026-05-03T13:12:31Z</time></trkpt><trkpt lat="44.714440256769045" lon="9.635811663411948"><ele>1210.3333333333335</ele><time>2026-05-03T13:12:32Z</time></trkpt><trkpt lat="44.714490790544126" lon="9.635714769865434"><ele>1207.0</ele><time>2026-05-03T13:12:33Z</time></trkpt><trkpt lat="44.714542916105394" lon="9.635605847551249"><ele>1203.6666666666667</ele><time>2026-05-03T13:12:34Z</time></trkpt><trkpt lat="44.71458965877798" lon="9.63549579630092"><ele>1200.3333333333333</ele><time>2026-05-03T13:12:35Z</time></trkpt><trkpt lat="44.7146484076643" lon="9.635390322924664"><ele>1197.0</ele><time>2026-05-03T13:12:36Z</time></trkpt><trkpt lat="44.71469284296179" lon="9.635327433374814"><ele>1200.3333333333333</ele><time>2026-05-03T13:12:37Z</time></trkpt><trkpt lat="44.71474534606981" lon="9.635225606955935"><ele>1203.6666666666667</ele><time>2026-05-03T13:12:39Z</time></trkpt><trkpt lat="44.71481084824803" lon="9.635113035786453"><ele>1207.0</ele><time>2026-05-03T13:12:41Z</time></trkpt><trkpt lat="44.71486551171546" lon="9.635063296328191"><ele>1210.3333333333335</ele><time>2026-05-03T13:12:42Z</time></trkpt><trkpt lat="44.71491827163128" lon="9.635001559776407"><ele>1213.6666666666667</ele><time>2026-05-03T13:12:43Z</time></trkpt><trkpt lat="44.71497304319257" lon="9.634906433332068"><ele>1217.0</ele><time>2026-05-03T13:12:45Z</time></trkpt><trkpt lat="44.71502616144627" lon="9.634823299439493"><ele>1217.0</ele><time>2026-05-03T13:12:46Z</time></trkpt><trkpt lat="44.7151004862429" lon="9.634726829112001"><ele>1217.0</ele><time>2026-05-03T13:12:48Z</time></trkpt><trkpt lat="44.71510995387833" lon="9.634639027634703"><ele>1217.0</ele><time>2026-05-03T13:12:50Z</time></trkpt><trkpt lat="44.715164674792796" lon="9.634537270876017"><ele>1217.0</ele><time>2026-05-03T13:12:52Z</time></trkpt><trkpt lat="44.71520254521966" lon="9.634451825993848"><ele>1217.0</ele><time>2026-05-03T13:12:53Z</time></trkpt><trkpt lat="44.71525793593973" lon="9.634358550963"><ele>1217.0</ele><time>2026-05-03T13:12:54Z</time></trkpt><trkpt lat="44.71530380492223" lon="9.634289011056644"><ele>1212.8333333333335</ele><time>2026-05-03T13:12:55Z</time></trkpt><trkpt lat="44.71537528438614" lon="9.634215239499763"><ele>1208.6666666666667</ele><time>2026-05-03T13:12:56Z</time></trkpt><trkpt lat="44.71542553789972" lon="9.6341174838537"><ele>1204.5</ele><time>2026-05-03T13:12:57Z</time></trkpt><trkpt lat="44.71549589335733" lon="9.634003848178807"><ele>1200.3333333333333</ele><time>2026-05-03T13:12:58Z</time></trkpt><trkpt lat="44.71554734905445" lon="9.633910742475047"><ele>1196.1666666666665</ele><time>2026-05-03T13:12:59Z</time></trkpt><trkpt lat="44.715599137862505" lon="9.633827325733531"><ele>1192.0</ele><time>2026-05-03T13:13:00Z</time></trkpt><trkpt lat="44.71563223119915" lon="9.633741107888167"><ele>1192.0</ele><time>2026-05-03T13:13:01Z</time></trkpt><trkpt lat="44.71566862718623" lon="9.63364143299013"><ele>1192.0</ele><time>2026-05-03T13:13:02Z</time></trkpt><trkpt lat="44.71568374056135" lon="9.63350346702456"><ele>1192.0</ele><time>2026-05-03T13:13:03Z</time></trkpt><trkpt lat="44.715702883600166" lon="9.633406230040213"><ele>1192.0</ele><time>2026-05-03T13:13:04Z</time></trkpt><trkpt lat="44.71570256568633" lon="9.633248394935274"><ele>1192.0</ele><time>2026-05-03T13:13:06Z</time></trkpt><trkpt lat="44.71568483235269" lon="9.63315685397494"><ele>1192.0</ele><time>2026-05-03T13:13:07Z</time></trkpt><trkpt lat="44.71567067703962" lon="9.633063804828325"><ele>1191.3333333333333</ele><time>2026-05-03T13:13:08Z</time></trkpt><trkpt lat="44.71564889096517" lon="9.632972063829207"><ele>1190.6666666666665</ele><time>2026-05-03T13:13:09Z</time></trkpt><trkpt lat="44.715603821193305" lon="9.63289479863188"><ele>1190.0</ele><time>2026-05-03T13:13:10Z</time></trkpt><trkpt lat="44.715525764860566" lon="9.632808103552419"><ele>1189.3333333333333</ele><time>2026-05-03T13:13:12Z</time></trkpt><trkpt lat="44.71548719188126" lon="9.632711302090186"><ele>1188.6666666666667</ele><time>2026-05-03T13:13:30Z</time></trkpt><trkpt lat="44.71548040696932" lon="9.632600982846295"><ele>1188.0</ele><time>2026-05-03T13:13:32Z</time></trkpt><trkpt lat="44.71556788844497" lon="9.632525626833772"><ele>1188.0</ele><time>2026-05-03T13:13:34Z</time></trkpt><trkpt lat="44.715649461514744" lon="9.632559589954747"><ele>1188.0</ele><time>2026-05-03T13:13:36Z</time></trkpt><trkpt lat="44.71572275020638" lon="9.632546098570915"><ele>1188.0</ele><time>2026-05-03T13:13:38Z</time></trkpt><trkpt lat="44.715844073901806" lon="9.632563028942634"><ele>1188.0</ele><time>2026-05-03T13:13:40Z</time></trkpt><trkpt lat="44.71590861167091" lon="9.632560892825627"><ele>1188.0</ele><time>2026-05-03T13:13:41Z</time></trkpt><trkpt lat="44.71597901640652" lon="9.6325579145773"><ele>1188.0</ele><time>2026-05-03T13:13:42Z</time></trkpt><trkpt lat="44.71610818155251" lon="9.632519195903722"><ele>1183.6666666666667</ele><time>2026-05-03T13:13:44Z</time></trkpt><trkpt lat="44.716206951397524" lon="9.632581354527602"><ele>1179.3333333333333</ele><time>2026-05-03T13:13:46Z</time></trkpt><trkpt lat="44.716299612758846" lon="9.632637336436266"><ele>1175.0</ele><time>2026-05-03T13:13:48Z</time></trkpt><trkpt lat="44.71636431781373" lon="9.632660398793464"><ele>1170.6666666666665</ele><time>2026-05-03T13:13:50Z</time></trkpt><trkpt lat="44.716437659885266" lon="9.632689999389198"><ele>1166.3333333333333</ele><time>2026-05-03T13:13:53Z</time></trkpt><trkpt lat="44.71650848968046" lon="9.632698045498682"><ele>1162.0</ele><time>2026-05-03T13:13:55Z</time></trkpt><trkpt lat="44.71659198934265" lon="9.63270368497288"><ele>1162.0</ele><time>2026-05-03T13:13:58Z</time></trkpt><trkpt lat="44.71667122585" lon="9.63271821787957"><ele>1162.0</ele><time>2026-05-03T13:14:00Z</time></trkpt><trkpt lat="44.716735538888926" lon="9.632765728080669"><ele>1162.0</ele><time>2026-05-03T13:14:02Z</time></trkpt><trkpt lat="44.71682559981839" lon="9.632832766071852"><ele>1162.0</ele><time>2026-05-03T13:14:04Z</time></trkpt><trkpt lat="44.716889049910606" lon="9.632860215638473"><ele>1162.0</ele><time>2026-05-03T13:14:06Z</time></trkpt><trkpt lat="44.716969213336256" lon="9.632880378574258"><ele>1162.0</ele><time>2026-05-03T13:14:08Z</time></trkpt><trkpt lat="44.717049155849864" lon="9.632886077436615"><ele>1157.5</ele><time>2026-05-03T13:14:10Z</time></trkpt><trkpt lat="44.717131542049614" lon="9.632813129019757"><ele>1153.0</ele><time>2026-05-03T13:14:13Z</time></trkpt><trkpt lat="44.71719201267402" lon="9.632781633469728"><ele>1148.5</ele><time>2026-05-03T13:14:15Z</time></trkpt><trkpt lat="44.71727153142372" lon="9.632751619626658"><ele>1144.0</ele><time>2026-05-03T13:14:17Z</time></trkpt><trkpt lat="44.71735641437723" lon="9.632696340922289"><ele>1139.5</ele><time>2026-05-03T13:14:19Z</time></trkpt><trkpt lat="44.717404050145696" lon="9.632620466410403"><ele>1135.0</ele><time>2026-05-03T13:14:21Z</time></trkpt><trkpt lat="44.717480353867565" lon="9.632511587850685"><ele>1135.0</ele><time>2026-05-03T13:14:23Z</time></trkpt><trkpt lat="44.71760264242002" lon="9.632464650230785"><ele>1135.0</ele><time>2026-05-03T13:14:25Z</time></trkpt><trkpt lat="44.71767073497118" lon="9.63246540920123"><ele>1135.0</ele><time>2026-05-03T13:14:26Z</time></trkpt><trkpt lat="44.717763827434034" lon="9.632465259793696"><ele>1135.0</ele><time>2026-05-03T13:14:28Z</time></trkpt><trkpt lat="44.71785129746992" lon="9.632419144489523"><ele>1135.0</ele><time>2026-05-03T13:14:31Z</time></trkpt><trkpt lat="44.71795527261661" lon="9.632334879302087"><ele>1133.3333333333333</ele><time>2026-05-03T13:14:33Z</time></trkpt><trkpt lat="44.71801307582723" lon="9.63226883934217"><ele>1131.6666666666665</ele><time>2026-05-03T13:14:34Z</time></trkpt><trkpt lat="44.71806489475997" lon="9.632200071917287"><ele>1130.0</ele><time>2026-05-03T13:14:35Z</time></trkpt><trkpt lat="44.718129752514216" lon="9.632128948210974"><ele>1128.3333333333333</ele><time>2026-05-03T13:14:36Z</time></trkpt><trkpt lat="44.71818532785014" lon="9.632076237250201"><ele>1126.6666666666667</ele><time>2026-05-03T13:14:37Z</time></trkpt><trkpt lat="44.71830072332794" lon="9.632074030764045"><ele>1125.0</ele><time>2026-05-03T13:14:39Z</time></trkpt><trkpt lat="44.71840532413703" lon="9.632028312489801"><ele>1124.5</ele><time>2026-05-03T13:14:41Z</time></trkpt><trkpt lat="44.71846369549576" lon="9.6319718045559"><ele>1124.0</ele><time>2026-05-03T13:14:42Z</time></trkpt><trkpt lat="44.71852254732846" lon="9.631899581625639"><ele>1123.5</ele><time>2026-05-03T13:14:43Z</time></trkpt><trkpt lat="44.71857775975613" lon="9.631828662266077"><ele>1123.0</ele><time>2026-05-03T13:14:44Z</time></trkpt><trkpt lat="44.71862324222001" lon="9.631763418998338"><ele>1122.5</ele><time>2026-05-03T13:14:45Z</time></trkpt><trkpt lat="44.71867722627197" lon="9.631650621597107"><ele>1122.0</ele><time>2026-05-03T13:14:53Z</time></trkpt><trkpt lat="44.71868700670211" lon="9.63153831168425"><ele>1122.0</ele><time>2026-05-03T13:14:55Z</time></trkpt><trkpt lat="44.7187682959676" lon="9.631496259017272"><ele>1122.0</ele><time>2026-05-03T13:14:58Z</time></trkpt><trkpt lat="44.71888085812058" lon="9.631515979317628"><ele>1122.0</ele><time>2026-05-03T13:15:00Z</time></trkpt><trkpt lat="44.71896857181143" lon="9.631431288438637"><ele>1122.0</ele><time>2026-05-03T13:15:02Z</time></trkpt><trkpt lat="44.71902093917904" lon="9.63136557163342"><ele>1122.0</ele><time>2026-05-03T13:15:03Z</time></trkpt><trkpt lat="44.71908319418696" lon="9.631306525530945"><ele>1122.0</ele><time>2026-05-03T13:15:04Z</time></trkpt><trkpt lat="44.7191537780483" lon="9.631272192583948"><ele>1122.0</ele><time>2026-05-03T13:15:05Z</time></trkpt><trkpt lat="44.719218200147274" lon="9.631237469939975"><ele>1122.0</ele><time>2026-05-03T13:15:06Z</time></trkpt><trkpt lat="44.719324142614674" lon="9.631176717226975"><ele>1122.0</ele><time>2026-05-03T13:15:08Z</time></trkpt><trkpt lat="44.71941176606855" lon="9.6310870014396"><ele>1122.0</ele><time>2026-05-03T13:15:10Z</time></trkpt><trkpt lat="44.71951017674095" lon="9.631044082807035"><ele>1119.4</ele><time>2026-05-03T13:15:12Z</time></trkpt><trkpt lat="44.719492280810705" lon="9.630935909005531"><ele>1116.8000000000002</ele><time>2026-05-03T13:15:14Z</time></trkpt><trkpt lat="44.71952938081046" lon="9.630801371668257"><ele>1114.2</ele><time>2026-05-03T13:15:17Z</time></trkpt><trkpt lat="44.71959962513613" lon="9.630691855384228"><ele>1111.6000000000001</ele><time>2026-05-03T13:15:19Z</time></trkpt><trkpt lat="44.719700128879225" lon="9.630614285052284"><ele>1109.0</ele><time>2026-05-03T13:15:21Z</time></trkpt><trkpt lat="44.719796864637196" lon="9.630531929076271"><ele>1109.0</ele><time>2026-05-03T13:15:23Z</time></trkpt><trkpt lat="44.719860621494846" lon="9.630479095947122"><ele>1109.0</ele><time>2026-05-03T13:15:24Z</time></trkpt><trkpt lat="44.71991826484142" lon="9.630412049533419"><ele>1109.0</ele><time>2026-05-03T13:15:25Z</time></trkpt><trkpt lat="44.720020551425904" lon="9.630341007685294"><ele>1109.0</ele><time>2026-05-03T13:15:27Z</time></trkpt><trkpt lat="44.72007450835757" lon="9.630286934350112"><ele>1109.0</ele><time>2026-05-03T13:15:28Z</time></trkpt><trkpt lat="44.72012198400008" lon="9.630222423369618"><ele>1109.0</ele><time>2026-05-03T13:15:29Z</time></trkpt><trkpt lat="44.72020547943142" lon="9.630138865705517"><ele>1104.6666666666667</ele><time>2026-05-03T13:15:31Z</time></trkpt><trkpt lat="44.72025269080971" lon="9.63004777425308"><ele>1100.3333333333335</ele><time>2026-05-03T13:15:32Z</time></trkpt><trkpt lat="44.72030738289114" lon="9.629934999160158"><ele>1096.0</ele><time>2026-05-03T13:15:33Z</time></trkpt><trkpt lat="44.72034605423043" lon="9.629826181757434"><ele>1091.6666666666667</ele><time>2026-05-03T13:15:34Z</time></trkpt><trkpt lat="44.72036632132624" lon="9.629716970464672"><ele>1087.3333333333333</ele><time>2026-05-03T13:15:35Z</time></trkpt><trkpt lat="44.720389913918716" lon="9.629617765396029"><ele>1083.0</ele><time>2026-05-03T13:15:36Z</time></trkpt><trkpt lat="44.72042028855486" lon="9.629508202678826"><ele>1083.5</ele><time>2026-05-03T13:15:37Z</time></trkpt><trkpt lat="44.720438547195144" lon="9.629409342687063"><ele>1084.0</ele><time>2026-05-03T13:15:38Z</time></trkpt><trkpt lat="44.72044595946214" lon="9.629292527418723"><ele>1084.5</ele><time>2026-05-03T13:15:39Z</time></trkpt><trkpt lat="44.720450640824154" lon="9.629199271077551"><ele>1085.0</ele><time>2026-05-03T13:15:40Z</time></trkpt><trkpt lat="44.72047775745364" lon="9.629019902579062"><ele>1085.5</ele><time>2026-05-03T13:15:42Z</time></trkpt><trkpt lat="44.72051107904101" lon="9.62893966512696"><ele>1086.0</ele><time>2026-05-03T13:15:43Z</time></trkpt><trkpt lat="44.72055190582323" lon="9.628861144909447"><ele>1086.0</ele><time>2026-05-03T13:15:44Z</time></trkpt><trkpt lat="44.720593864535395" lon="9.628717854579477"><ele>1086.0</ele><time>2026-05-03T13:15:46Z</time></trkpt><trkpt lat="44.72059271007367" lon="9.62861731572497"><ele>1086.0</ele><time>2026-05-03T13:15:47Z</time></trkpt><trkpt lat="44.720626122129936" lon="9.628539986808454"><ele>1086.0</ele><time>2026-05-03T13:15:48Z</time></trkpt><trkpt lat="44.72063139962154" lon="9.628438046571071"><ele>1086.0</ele><time>2026-05-03T13:15:50Z</time></trkpt><trkpt lat="44.720657572145285" lon="9.628305373375046"><ele>1086.0</ele><time>2026-05-03T13:15:53Z</time></trkpt><trkpt lat="44.72069478065849" lon="9.628191251621766"><ele>1086.1666666666667</ele><time>2026-05-03T13:15:55Z</time></trkpt><trkpt lat="44.72076039737029" lon="9.628127315475819"><ele>1086.3333333333333</ele><time>2026-05-03T13:15:58Z</time></trkpt><trkpt lat="44.72079290808352" lon="9.628012915123058"><ele>1086.5</ele><time>2026-05-03T13:16:00Z</time></trkpt><trkpt lat="44.720785323793756" lon="9.627891927976995"><ele>1086.6666666666665</ele><time>2026-05-03T13:16:02Z</time></trkpt><trkpt lat="44.720857587086016" lon="9.627774767253026"><ele>1086.8333333333333</ele><time>2026-05-03T13:16:04Z</time></trkpt><trkpt lat="44.720915140073835" lon="9.627714244803105"><ele>1087.0</ele><time>2026-05-03T13:16:06Z</time></trkpt><trkpt lat="44.72101024572961" lon="9.627687125002101"><ele>1079.0</ele><time>2026-05-03T13:16:08Z</time></trkpt><trkpt lat="44.72108009962768" lon="9.627682589656184"><ele>1071.0</ele><time>2026-05-03T13:16:09Z</time></trkpt><trkpt lat="44.721203905548066" lon="9.6276247144066"><ele>1063.0</ele><time>2026-05-03T13:16:11Z</time></trkpt><trkpt lat="44.72127959934103" lon="9.62755266448663"><ele>1055.0</ele><time>2026-05-03T13:16:13Z</time></trkpt><trkpt lat="44.72134293960386" lon="9.627437619686978"><ele>1047.0</ele><time>2026-05-03T13:16:15Z</time></trkpt><trkpt lat="44.72143545396281" lon="9.627371287201395"><ele>1047.0</ele><time>2026-05-03T13:16:17Z</time></trkpt><trkpt lat="44.72149515909728" lon="9.627329141237343"><ele>1047.0</ele><time>2026-05-03T13:16:18Z</time></trkpt><trkpt lat="44.72153760874655" lon="9.627248261806646"><ele>1047.0</ele><time>2026-05-03T13:16:19Z</time></trkpt><trkpt lat="44.721593277582045" lon="9.627171688611194"><ele>1047.0</ele><time>2026-05-03T13:16:20Z</time></trkpt><trkpt lat="44.72166032455945" lon="9.627087750649249"><ele>1047.0</ele><time>2026-05-03T13:16:21Z</time></trkpt><trkpt lat="44.721761355352534" lon="9.627002390117132"><ele>1047.0</ele><time>2026-05-03T13:16:23Z</time></trkpt><trkpt lat="44.72191039731001" lon="9.62700052005058"><ele>1043.8333333333333</ele><time>2026-05-03T13:16:25Z</time></trkpt><trkpt lat="44.722003167962654" lon="9.62700057654628"><ele>1040.6666666666667</ele><time>2026-05-03T13:16:26Z</time></trkpt><trkpt lat="44.72208122055019" lon="9.626988221960808"><ele>1037.5</ele><time>2026-05-03T13:16:27Z</time></trkpt><trkpt lat="44.72216621271599" lon="9.626966813430833"><ele>1034.3333333333335</ele><time>2026-05-03T13:16:28Z</time></trkpt><trkpt lat="44.72223647908063" lon="9.62695649634371"><ele>1031.1666666666667</ele><time>2026-05-03T13:16:29Z</time></trkpt><trkpt lat="44.722295268696676" lon="9.626922664056702"><ele>1028.0</ele><time>2026-05-03T13:16:30.001Z</time></trkpt><trkpt lat="44.722373857583975" lon="9.626830473398133"><ele>1028.0</ele><time>2026-05-03T13:16:32.001Z</time></trkpt><trkpt lat="44.722355767567436" lon="9.626669357670215"><ele>1028.0</ele><time>2026-05-03T13:16:34.001Z</time></trkpt><trkpt lat="44.722321957037636" lon="9.626587727755894"><ele>1028.0</ele><time>2026-05-03T13:16:35.001Z</time></trkpt><trkpt lat="44.72229291815638" lon="9.626378992411832"><ele>1028.0</ele><time>2026-05-03T13:16:37.001Z</time></trkpt><trkpt lat="44.72226642910142" lon="9.626258641808684"><ele>1028.0</ele><time>2026-05-03T13:16:38.001Z</time></trkpt><trkpt lat="44.72224957564707" lon="9.62610117869497"><ele>1026.3333333333335</ele><time>2026-05-03T13:16:39.001Z</time></trkpt><trkpt lat="44.72223801199391" lon="9.625982376396669"><ele>1024.6666666666667</ele><time>2026-05-03T13:16:40Z</time></trkpt><trkpt lat="44.72221792899177" lon="9.625885232566537"><ele>1023.0</ele><time>2026-05-03T13:16:41Z</time></trkpt><trkpt lat="44.722204233240355" lon="9.625776357756559"><ele>1021.3333333333333</ele><time>2026-05-03T13:16:42Z</time></trkpt><trkpt lat="44.722173729320254" lon="9.625636652254546"><ele>1019.6666666666666</ele><time>2026-05-03T13:16:44Z</time></trkpt><trkpt lat="44.72215359136436" lon="9.625536432113822"><ele>1018.0</ele><time>2026-05-03T13:16:45Z</time></trkpt><trkpt lat="44.722130329044795" lon="9.625450335632161"><ele>1017.9999999999999</ele><time>2026-05-03T13:16:46Z</time></trkpt><trkpt lat="44.72210624480637" lon="9.6253656061029"><ele>1018.0</ele><time>2026-05-03T13:16:47Z</time></trkpt><trkpt lat="44.722079170538805" lon="9.625278545781946"><ele>1017.9999999999999</ele><time>2026-05-03T13:16:48Z</time></trkpt><trkpt lat="44.72202596291477" lon="9.625220050181852"><ele>1017.9999999999999</ele><time>2026-05-03T13:16:49Z</time></trkpt><trkpt lat="44.72194775602553" lon="9.625202421036425"><ele>1018.0</ele><time>2026-05-03T13:16:50Z</time></trkpt><trkpt lat="44.72188208365388" lon="9.62518159250969"><ele>1017.9999999999999</ele><time>2026-05-03T13:16:51Z</time></trkpt><trkpt lat="44.72180741751688" lon="9.625144529970687"><ele>1017.9999999999999</ele><time>2026-05-03T13:16:52Z</time></trkpt><trkpt lat="44.721738897678364" lon="9.625111296812728"><ele>1018.1666666666666</ele><time>2026-05-03T13:16:53Z</time></trkpt><trkpt lat="44.721677970945024" lon="9.625084307654918"><ele>1018.3333333333333</ele><time>2026-05-03T13:16:54Z</time></trkpt><trkpt lat="44.721612813420926" lon="9.625051568036861"><ele>1018.5</ele><time>2026-05-03T13:16:55Z</time></trkpt><trkpt lat="44.72152578734576" lon="9.625033536935614"><ele>1018.6666666666667</ele><time>2026-05-03T13:16:57Z</time></trkpt><trkpt lat="44.721457457979504" lon="9.625145288863827"><ele>1018.8333333333334</ele><time>2026-05-03T13:17:00Z</time></trkpt><trkpt lat="44.72141490872576" lon="9.62522338949078"><ele>1019.0</ele><time>2026-05-03T13:17:01Z</time></trkpt><trkpt lat="44.72134890524003" lon="9.625318211023002"><ele>1019.0000000000001</ele><time>2026-05-03T13:17:03Z</time></trkpt><trkpt lat="44.72128344614019" lon="9.62539828416619"><ele>1019.0</ele><time>2026-05-03T13:17:05Z</time></trkpt><trkpt lat="44.72121644198945" lon="9.625485908685315"><ele>1019.0</ele><time>2026-05-03T13:17:07Z</time></trkpt><trkpt lat="44.72115633801704" lon="9.625578409434173"><ele>1019.0</ele><time>2026-05-03T13:17:09Z</time></trkpt><trkpt lat="44.721069073328785" lon="9.62561673089144"><ele>1019.0000000000001</ele><time>2026-05-03T13:17:11Z</time></trkpt><trkpt lat="44.72098052279316" lon="9.625636252229034"><ele>1019.0</ele><time>2026-05-03T13:17:14Z</time></trkpt><trkpt lat="44.72091903851568" lon="9.625675772326323"><ele>1014.8333333333334</ele><time>2026-05-03T13:17:16Z</time></trkpt><trkpt lat="44.72085628445537" lon="9.625655788173782"><ele>1010.6666666666667</ele><time>2026-05-03T13:17:18Z</time></trkpt><trkpt lat="44.72080552881662" lon="9.625540604286465"><ele>1006.5</ele><time>2026-05-03T13:17:20Z</time></trkpt><trkpt lat="44.720727384425" lon="9.625458586118345"><ele>1002.3333333333333</ele><time>2026-05-03T13:17:22Z</time></trkpt><trkpt lat="44.7206667434367" lon="9.625375059075978"><ele>998.1666666666666</ele><time>2026-05-03T13:17:24Z</time></trkpt><trkpt lat="44.72060125149898" lon="9.625367609430933"><ele>994.0</ele><time>2026-05-03T13:17:26Z</time></trkpt><trkpt lat="44.720542997373954" lon="9.625410576622825"><ele>994.0</ele><time>2026-05-03T13:17:29Z</time></trkpt><trkpt lat="44.72045790990745" lon="9.625492453314202"><ele>994.0000000000001</ele><time>2026-05-03T13:17:31Z</time></trkpt><trkpt lat="44.72040160123239" lon="9.625548703144466"><ele>994.0000000000001</ele><time>2026-05-03T13:17:32Z</time></trkpt><trkpt lat="44.7203324552036" lon="9.625646027303777"><ele>994.0</ele><time>2026-05-03T13:17:34Z</time></trkpt><trkpt lat="44.72022756758922" lon="9.625687218753884"><ele>994.0</ele><time>2026-05-03T13:17:36Z</time></trkpt><trkpt lat="44.72012292800769" lon="9.625666466365981"><ele>990.3333333333333</ele><time>2026-05-03T13:17:38Z</time></trkpt><trkpt lat="44.72001553595546" lon="9.625619014048556"><ele>986.6666666666666</ele><time>2026-05-03T13:17:40Z</time></trkpt><trkpt lat="44.71992606488289" lon="9.625599734454198"><ele>983.0</ele><time>2026-05-03T13:17:42Z</time></trkpt><trkpt lat="44.719885467348846" lon="9.625515944116646"><ele>979.3333333333333</ele><time>2026-05-03T13:17:44Z</time></trkpt><trkpt lat="44.71986426976779" lon="9.625378632394012"><ele>975.6666666666666</ele><time>2026-05-03T13:17:46Z</time></trkpt><trkpt lat="44.71982505952917" lon="9.62529955860767"><ele>972.0</ele><time>2026-05-03T13:17:48Z</time></trkpt><trkpt lat="44.719759121426414" lon="9.625229990898921"><ele>967.8333333333334</ele><time>2026-05-03T13:17:50Z</time></trkpt><trkpt lat="44.71967610555293" lon="9.625136818445064"><ele>963.6666666666667</ele><time>2026-05-03T13:17:52Z</time></trkpt><trkpt lat="44.719599595092745" lon="9.625057466854779"><ele>959.5</ele><time>2026-05-03T13:17:54Z</time></trkpt><trkpt lat="44.7195451401211" lon="9.625005970461693"><ele>955.3333333333334</ele><time>2026-05-03T13:17:55Z</time></trkpt><trkpt lat="44.7194763463954" lon="9.624965562789159"><ele>951.1666666666667</ele><time>2026-05-03T13:17:57Z</time></trkpt><trkpt lat="44.71941093744471" lon="9.62495244733057"><ele>947.0</ele><time>2026-05-03T13:18:53.001Z</time></trkpt><trkpt lat="44.719323840333786" lon="9.624948822308964"><ele>944.6</ele><time>2026-05-03T13:19:00Z</time></trkpt><trkpt lat="44.71921288847933" lon="9.62495858859181"><ele>942.2</ele><time>2026-05-03T13:19:03Z</time></trkpt><trkpt lat="44.71910377379753" lon="9.624972481385548"><ele>939.8</ele><time>2026-05-03T13:19:05Z</time></trkpt><trkpt lat="44.718994965174815" lon="9.624996874979852"><ele>937.4</ele><time>2026-05-03T13:19:07Z</time></trkpt><trkpt lat="44.7188883236257" lon="9.625025925685147"><ele>935.0</ele><time>2026-05-03T13:19:09Z</time></trkpt><trkpt lat="44.718768876961725" lon="9.625059732095627"><ele>935.0000000000001</ele><time>2026-05-03T13:19:11Z</time></trkpt><trkpt lat="44.718687814331695" lon="9.625049423934803"><ele>935.0</ele><time>2026-05-03T13:19:13Z</time></trkpt><trkpt lat="44.71861911722855" lon="9.62504388059474"><ele>935.0</ele><time>2026-05-03T13:19:15Z</time></trkpt><trkpt lat="44.718541015216665" lon="9.625111252796534"><ele>935.0</ele><time>2026-05-03T13:19:18Z</time></trkpt><trkpt lat="44.71849765559056" lon="9.625225657520524"><ele>935.0000000000001</ele><time>2026-05-03T13:19:20Z</time></trkpt><trkpt lat="44.71847108442937" lon="9.62531386593411"><ele>935.0</ele><time>2026-05-03T13:19:21Z</time></trkpt><trkpt lat="44.718447806296794" lon="9.625409761886507"><ele>936.1666666666667</ele><time>2026-05-03T13:19:22Z</time></trkpt><trkpt lat="44.71841572032449" lon="9.625497657350307"><ele>937.3333333333334</ele><time>2026-05-03T13:19:23Z</time></trkpt><trkpt lat="44.71836461938527" lon="9.625577550965211"><ele>938.5</ele><time>2026-05-03T13:19:24Z</time></trkpt><trkpt lat="44.718300873661455" lon="9.6256427328935"><ele>939.6666666666667</ele><time>2026-05-03T13:19:25Z</time></trkpt><trkpt lat="44.718229800548166" lon="9.625681572591663"><ele>940.8333333333334</ele><time>2026-05-03T13:19:26Z</time></trkpt><trkpt lat="44.71815162205693" lon="9.625704005739156"><ele>942.0</ele><time>2026-05-03T13:19:27Z</time></trkpt><trkpt lat="44.71807913390209" lon="9.625707425201877"><ele>942.0000000000001</ele><time>2026-05-03T13:19:28Z</time></trkpt><trkpt lat="44.71800953898427" lon="9.62572096555388"><ele>942.0</ele><time>2026-05-03T13:19:29Z</time></trkpt><trkpt lat="44.71794346966839" lon="9.625746637730463"><ele>942.0000000000001</ele><time>2026-05-03T13:19:30Z</time></trkpt><trkpt lat="44.71788060462688" lon="9.625788202093371"><ele>942.0000000000001</ele><time>2026-05-03T13:19:31Z</time></trkpt><trkpt lat="44.7178169360736" lon="9.625826272268995"><ele>942.0</ele><time>2026-05-03T13:19:32Z</time></trkpt><trkpt lat="44.71773773091388" lon="9.625830686820624"><ele>942.0000000000001</ele><time>2026-05-03T13:19:33Z</time></trkpt><trkpt lat="44.717669461984464" lon="9.625803174486073"><ele>942.0000000000001</ele><time>2026-05-03T13:19:34Z</time></trkpt><trkpt lat="44.71760066449508" lon="9.62574229486033"><ele>942.2857142857144</ele><time>2026-05-03T13:19:35Z</time></trkpt><trkpt lat="44.71754618327891" lon="9.62567649423329"><ele>942.5714285714287</ele><time>2026-05-03T13:19:36Z</time></trkpt><trkpt lat="44.71749006563127" lon="9.62561905747386"><ele>942.8571428571429</ele><time>2026-05-03T13:19:37Z</time></trkpt><trkpt lat="44.71742465338252" lon="9.625579799405028"><ele>943.1428571428572</ele><time>2026-05-03T13:19:38Z</time></trkpt><trkpt lat="44.7173450637064" lon="9.625541668934188"><ele>943.4285714285716</ele><time>2026-05-03T13:19:39Z</time></trkpt><trkpt lat="44.71728065537694" lon="9.625509794683387"><ele>943.7142857142857</ele><time>2026-05-03T13:19:40Z</time></trkpt><trkpt lat="44.71720467760683" lon="9.625477046158649"><ele>944.0</ele><time>2026-05-03T13:19:41Z</time></trkpt><trkpt lat="44.717134136064416" lon="9.625437248345476"><ele>944.0</ele><time>2026-05-03T13:19:42Z</time></trkpt><trkpt lat="44.71706864188832" lon="9.625391837172186"><ele>944.0</ele><time>2026-05-03T13:19:43Z</time></trkpt><trkpt lat="44.71701112805467" lon="9.625343070499817"><ele>944.0</ele><time>2026-05-03T13:19:44Z</time></trkpt><trkpt lat="44.7169557835353" lon="9.625284529922567"><ele>944.0</ele><time>2026-05-03T13:19:45Z</time></trkpt><trkpt lat="44.71690739538485" lon="9.625214783412071"><ele>944.0</ele><time>2026-05-03T13:19:46Z</time></trkpt><trkpt lat="44.71686369531677" lon="9.625143465265278"><ele>944.0</ele><time>2026-05-03T13:19:47Z</time></trkpt><trkpt lat="44.71681206104441" lon="9.625072524951253"><ele>944.0</ele><time>2026-05-03T13:19:48Z</time></trkpt><trkpt lat="44.716761395027746" lon="9.625004920746305"><ele>946.5000000000001</ele><time>2026-05-03T13:19:49Z</time></trkpt><trkpt lat="44.716701594203705" lon="9.624924916720127"><ele>949.0</ele><time>2026-05-03T13:19:50Z</time></trkpt><trkpt lat="44.71665027077771" lon="9.624842870401086"><ele>951.5</ele><time>2026-05-03T13:19:51Z</time></trkpt><trkpt lat="44.716631705037464" lon="9.624672840444369"><ele>954.0</ele><time>2026-05-03T13:19:53Z</time></trkpt><trkpt lat="44.716643971084245" lon="9.624563912475189"><ele>956.5000000000001</ele><time>2026-05-03T13:19:54Z</time></trkpt><trkpt lat="44.71666441404092" lon="9.62444397122938"><ele>959.0</ele><time>2026-05-03T13:19:55Z</time></trkpt><trkpt lat="44.716691603229044" lon="9.624336861004625"><ele>960.2</ele><time>2026-05-03T13:19:56Z</time></trkpt><trkpt lat="44.71673694014156" lon="9.624210855992237"><ele>961.4000000000001</ele><time>2026-05-03T13:19:57Z</time></trkpt><trkpt lat="44.716787461351046" lon="9.624077376450964"><ele>962.6</ele><time>2026-05-03T13:19:58Z</time></trkpt><trkpt lat="44.71683495455174" lon="9.623956835565224"><ele>963.8</ele><time>2026-05-03T13:19:59Z</time></trkpt><trkpt lat="44.716882989414636" lon="9.623829787750214"><ele>965.0</ele><time>2026-05-03T13:20:00Z</time></trkpt><trkpt lat="44.7169311146382" lon="9.623709325619311"><ele>960.3333333333334</ele><time>2026-05-03T13:20:01Z</time></trkpt><trkpt lat="44.71697992718412" lon="9.6235859623269"><ele>955.6666666666667</ele><time>2026-05-03T13:20:02Z</time></trkpt><trkpt lat="44.71702246283976" lon="9.623478643858126"><ele>951.0</ele><time>2026-05-03T13:20:03Z</time></trkpt><trkpt lat="44.71706187934125" lon="9.62340195211201"><ele>946.3333333333333</ele><time>2026-05-03T13:20:04Z</time></trkpt><trkpt lat="44.71709821165793" lon="9.623247685602319"><ele>941.6666666666666</ele><time>2026-05-03T13:20:06Z</time></trkpt><trkpt lat="44.717071272036094" lon="9.623160540257228"><ele>937.0</ele><time>2026-05-03T13:20:07Z</time></trkpt><trkpt lat="44.71700216911988" lon="9.623081078657078"><ele>936.9999999999999</ele><time>2026-05-03T13:20:08Z</time></trkpt><trkpt lat="44.71692815273685" lon="9.622994352902502"><ele>937.0</ele><time>2026-05-03T13:20:09Z</time></trkpt><trkpt lat="44.71686820125428" lon="9.622908149296288"><ele>937.0</ele><time>2026-05-03T13:20:10Z</time></trkpt><trkpt lat="44.716818609604225" lon="9.622836276807673"><ele>937.0</ele><time>2026-05-03T13:20:11Z</time></trkpt><trkpt lat="44.716760994166115" lon="9.622771287761527"><ele>936.9999999999999</ele><time>2026-05-03T13:20:12Z</time></trkpt><trkpt lat="44.71670008182632" lon="9.622717711355737"><ele>937.0</ele><time>2026-05-03T13:20:13Z</time></trkpt><trkpt lat="44.71664010558539" lon="9.62265465045362"><ele>941.4999999999999</ele><time>2026-05-03T13:20:14Z</time></trkpt><trkpt lat="44.716593304012676" lon="9.622581465643705"><ele>946.0</ele><time>2026-05-03T13:20:15Z</time></trkpt><trkpt lat="44.716546605430416" lon="9.622485075065486"><ele>950.5</ele><time>2026-05-03T13:20:16Z</time></trkpt><trkpt lat="44.716507748431994" lon="9.622389320658886"><ele>955.0</ele><time>2026-05-03T13:20:17Z</time></trkpt><trkpt lat="44.71647508040415" lon="9.622286012404919"><ele>959.4999999999999</ele><time>2026-05-03T13:20:18Z</time></trkpt><trkpt lat="44.71642808393879" lon="9.622186509209138"><ele>964.0</ele><time>2026-05-03T13:20:19Z</time></trkpt><trkpt lat="44.71638649935845" lon="9.622099913551153"><ele>964.0</ele><time>2026-05-03T13:20:20Z</time></trkpt><trkpt lat="44.71633606996839" lon="9.622004578713828"><ele>964.0000000000001</ele><time>2026-05-03T13:20:21Z</time></trkpt><trkpt lat="44.71627783049814" lon="9.621904487320261"><ele>964.0000000000001</ele><time>2026-05-03T13:20:22Z</time></trkpt><trkpt lat="44.71621543295869" lon="9.621803469572788"><ele>964.0</ele><time>2026-05-03T13:20:23Z</time></trkpt><trkpt lat="44.71615998878637" lon="9.62170462139534"><ele>964.0</ele><time>2026-05-03T13:20:24Z</time></trkpt><trkpt lat="44.71609525718137" lon="9.621600238308206"><ele>966.3333333333333</ele><time>2026-05-03T13:20:25Z</time></trkpt><trkpt lat="44.71604817241905" lon="9.621520731122398"><ele>968.6666666666666</ele><time>2026-05-03T13:20:26Z</time></trkpt><trkpt lat="44.715941562725796" lon="9.621497904869164"><ele>971.0</ele><time>2026-05-03T13:20:28Z</time></trkpt><trkpt lat="44.71582531684052" lon="9.621541442026475"><ele>973.3333333333333</ele><time>2026-05-03T13:20:30Z</time></trkpt><trkpt lat="44.715758627648626" lon="9.621558968344747"><ele>975.6666666666666</ele><time>2026-05-03T13:20:31Z</time></trkpt><trkpt lat="44.71569045331563" lon="9.621560579698073"><ele>978.0</ele><time>2026-05-03T13:20:32Z</time></trkpt><trkpt lat="44.71560955659535" lon="9.621549992190145"><ele>978.0</ele><time>2026-05-03T13:20:33Z</time></trkpt><trkpt lat="44.71552962714925" lon="9.621531133194882"><ele>978.0</ele><time>2026-05-03T13:20:34Z</time></trkpt><trkpt lat="44.7154373399843" lon="9.621540402507769"><ele>978.0</ele><time>2026-05-03T13:20:35Z</time></trkpt><trkpt lat="44.715344269689375" lon="9.62158122174899"><ele>978.0</ele><time>2026-05-03T13:20:36Z</time></trkpt><trkpt lat="44.71526758306083" lon="9.621626796280234"><ele>978.0</ele><time>2026-05-03T13:20:37Z</time></trkpt><trkpt lat="44.71517902712044" lon="9.621655555794357"><ele>978.0</ele><time>2026-05-03T13:20:38Z</time></trkpt><trkpt lat="44.715097210351225" lon="9.621657659365514"><ele>979.0</ele><time>2026-05-03T13:20:39Z</time></trkpt><trkpt lat="44.715027365123206" lon="9.621622729653815"><ele>980.0</ele><time>2026-05-03T13:20:40Z</time></trkpt><trkpt lat="44.71495003524944" lon="9.621566923347926"><ele>981.0</ele><time>2026-05-03T13:20:41Z</time></trkpt><trkpt lat="44.71488131815919" lon="9.621510559219674"><ele>982.0</ele><time>2026-05-03T13:20:42Z</time></trkpt><trkpt lat="44.714814831497705" lon="9.62148313442109"><ele>983.0</ele><time>2026-05-03T13:20:43Z</time></trkpt><trkpt lat="44.71472034239799" lon="9.621532399530848"><ele>984.0</ele><time>2026-05-03T13:20:45Z</time></trkpt><trkpt lat="44.71466675704376" lon="9.62169959962971"><ele>984.0</ele><time>2026-05-03T13:20:47Z</time></trkpt><trkpt lat="44.71464121953416" lon="9.621787167608856"><ele>984.0</ele><time>2026-05-03T13:20:48Z</time></trkpt><trkpt lat="44.71459510248771" lon="9.621868707375457"><ele>984.0</ele><time>2026-05-03T13:20:49Z</time></trkpt><trkpt lat="44.71453600409187" lon="9.621917143396049"><ele>984.0</ele><time>2026-05-03T13:20:50Z</time></trkpt><trkpt lat="44.71446357873022" lon="9.621936848880736"><ele>984.0</ele><time>2026-05-03T13:20:51Z</time></trkpt><trkpt lat="44.71438375857278" lon="9.621935125323088"><ele>984.0</ele><time>2026-05-03T13:20:52Z</time></trkpt><trkpt lat="44.71429685869243" lon="9.62192618587205"><ele>983.8000000000001</ele><time>2026-05-03T13:20:53Z</time></trkpt><trkpt lat="44.71421563150362" lon="9.621904132308366"><ele>983.6000000000001</ele><time>2026-05-03T13:20:54Z</time></trkpt><trkpt lat="44.71412281523924" lon="9.621865221804839"><ele>983.4</ele><time>2026-05-03T13:20:55Z</time></trkpt><trkpt lat="44.71403452281988" lon="9.62183973950231"><ele>983.2</ele><time>2026-05-03T13:20:56Z</time></trkpt><trkpt lat="44.713937804205244" lon="9.621799238022293"><ele>983.0</ele><time>2026-05-03T13:20:57Z</time></trkpt><trkpt lat="44.71384584199244" lon="9.62173660844034"><ele>983.0000000000001</ele><time>2026-05-03T13:20:58Z</time></trkpt><trkpt lat="44.71375341445121" lon="9.621667648990485"><ele>983.0</ele><time>2026-05-03T13:20:59Z</time></trkpt><trkpt lat="44.71367271575271" lon="9.621591920361647"><ele>983.0</ele><time>2026-05-03T13:21:00Z</time></trkpt><trkpt lat="44.713623332386746" lon="9.621522283858244"><ele>983.0</ele><time>2026-05-03T13:21:01Z</time></trkpt><trkpt lat="44.71357888897384" lon="9.621444547407574"><ele>983.0000000000001</ele><time>2026-05-03T13:21:02Z</time></trkpt><trkpt lat="44.71353294808673" lon="9.621382893326412"><ele>983.0</ele><time>2026-05-03T13:21:03Z</time></trkpt><trkpt lat="44.71341979623838" lon="9.621297115770155"><ele>986.6666666666667</ele><time>2026-05-03T13:21:05Z</time></trkpt><trkpt lat="44.713350884945704" lon="9.621254617225246"><ele>990.3333333333334</ele><time>2026-05-03T13:21:06Z</time></trkpt><trkpt lat="44.71329494662899" lon="9.621205276784684"><ele>994.0</ele><time>2026-05-03T13:21:07Z</time></trkpt><trkpt lat="44.71321784115838" lon="9.621159259508762"><ele>997.6666666666667</ele><time>2026-05-03T13:21:08Z</time></trkpt><trkpt lat="44.71314577598903" lon="9.621154809093175"><ele>1001.3333333333334</ele><time>2026-05-03T13:21:09Z</time></trkpt><trkpt lat="44.71304163956456" lon="9.621246021241019"><ele>1005.0</ele><time>2026-05-03T13:21:11Z</time></trkpt><trkpt lat="44.71298107605609" lon="9.621318873610283"><ele>1005.0</ele><time>2026-05-03T13:21:12Z</time></trkpt><trkpt lat="44.71290661401946" lon="9.621390947855135"><ele>1005.0</ele><time>2026-05-03T13:21:13Z</time></trkpt><trkpt lat="44.71281707255699" lon="9.621444310098367"><ele>1005.0</ele><time>2026-05-03T13:21:14Z</time></trkpt><trkpt lat="44.71272250674802" lon="9.62149706955299"><ele>1005.0</ele><time>2026-05-03T13:21:15Z</time></trkpt><trkpt lat="44.71262432687573" lon="9.621551859305022"><ele>1005.0</ele><time>2026-05-03T13:21:16Z</time></trkpt><trkpt lat="44.712524801645145" lon="9.6215887005527"><ele>1004.8</ele><time>2026-05-03T13:21:17Z</time></trkpt><trkpt lat="44.712444847987676" lon="9.621613277300026"><ele>1004.6</ele><time>2026-05-03T13:21:19Z</time></trkpt><trkpt lat="44.712349113382515" lon="9.621580216075133"><ele>1004.4000000000001</ele><time>2026-05-03T13:21:41Z</time></trkpt><trkpt lat="44.71224810958888" lon="9.621455308988276"><ele>1004.2</ele><time>2026-05-03T13:21:43Z</time></trkpt><trkpt lat="44.71219450677507" lon="9.62137403931437"><ele>1004.0</ele><time>2026-05-03T13:21:44Z</time></trkpt><trkpt lat="44.71218174644773" lon="9.621198438528975"><ele>1001.8333333333334</ele><time>2026-05-03T13:21:46Z</time></trkpt><trkpt lat="44.71221258668087" lon="9.621099716067521"><ele>999.6666666666667</ele><time>2026-05-03T13:21:47Z</time></trkpt><trkpt lat="44.71225520446741" lon="9.620994591153023"><ele>997.5</ele><time>2026-05-03T13:21:48Z</time></trkpt><trkpt lat="44.712276401512106" lon="9.620839920181785"><ele>995.3333333333333</ele><time>2026-05-03T13:21:50Z</time></trkpt><trkpt lat="44.71225221812164" lon="9.620740712376184"><ele>993.1666666666666</ele><time>2026-05-03T13:21:51Z</time></trkpt><trkpt lat="44.712212065434755" lon="9.62063490921019"><ele>991.0</ele><time>2026-05-03T13:21:52Z</time></trkpt><trkpt lat="44.71217244545639" lon="9.620535862702154"><ele>990.9999999999999</ele><time>2026-05-03T13:21:53Z</time></trkpt><trkpt lat="44.712138683602106" lon="9.620422679455814"><ele>991.0</ele><time>2026-05-03T13:21:54Z</time></trkpt><trkpt lat="44.71212187228922" lon="9.620329076946991"><ele>991.0</ele><time>2026-05-03T13:21:55Z</time></trkpt><trkpt lat="44.71210828333877" lon="9.620157854023025"><ele>991.0</ele><time>2026-05-03T13:21:57Z</time></trkpt><trkpt lat="44.712110791860745" lon="9.620063725723917"><ele>990.9999999999999</ele><time>2026-05-03T13:21:58Z</time></trkpt><trkpt lat="44.71211733858329" lon="9.619947321756337"><ele>991.0</ele><time>2026-05-03T13:21:59Z</time></trkpt><trkpt lat="44.712141587293466" lon="9.619833540681832"><ele>991.4</ele><time>2026-05-03T13:22:00Z</time></trkpt><trkpt lat="44.712182798917" lon="9.619739824344864"><ele>991.8</ele><time>2026-05-03T13:22:01Z</time></trkpt><trkpt lat="44.712233410460804" lon="9.619639587480972"><ele>992.1999999999999</ele><time>2026-05-03T13:22:02Z</time></trkpt><trkpt lat="44.7122825484168" lon="9.61950039920755"><ele>992.5999999999999</ele><time>2026-05-03T13:22:03Z</time></trkpt><trkpt lat="44.712339195399636" lon="9.619370283982734"><ele>993.0</ele><time>2026-05-03T13:22:04Z</time></trkpt><trkpt lat="44.71239629744163" lon="9.619251673636521"><ele>995.3333333333334</ele><time>2026-05-03T13:22:05Z</time></trkpt><trkpt lat="44.71244013407726" lon="9.619146285619568"><ele>997.6666666666667</ele><time>2026-05-03T13:22:06Z</time></trkpt><trkpt lat="44.71250003955392" lon="9.619048597748716"><ele>1000.0</ele><time>2026-05-03T13:22:07Z</time></trkpt><trkpt lat="44.71254516210024" lon="9.61896520048739"><ele>1002.3333333333334</ele><time>2026-05-03T13:22:08Z</time></trkpt><trkpt lat="44.712595928185735" lon="9.618866698272283"><ele>1004.6666666666667</ele><time>2026-05-03T13:22:09Z</time></trkpt><trkpt lat="44.71266012487075" lon="9.61877715702063"><ele>1007.0</ele><time>2026-05-03T13:22:10Z</time></trkpt><trkpt lat="44.712743318391695" lon="9.618701754695998"><ele>1004.6</ele><time>2026-05-03T13:22:11Z</time></trkpt><trkpt lat="44.71283276981142" lon="9.618630954517943"><ele>1002.2</ele><time>2026-05-03T13:22:12Z</time></trkpt><trkpt lat="44.71290929472833" lon="9.61855454492496"><ele>999.8</ele><time>2026-05-03T13:22:13Z</time></trkpt><trkpt lat="44.71297378844484" lon="9.618445218847972"><ele>997.4</ele><time>2026-05-03T13:22:14Z</time></trkpt><trkpt lat="44.713027239181024" lon="9.618325177442001"><ele>995.0</ele><time>2026-05-03T13:22:15Z</time></trkpt><trkpt lat="44.71307507568399" lon="9.618210688567743"><ele>995.0000000000001</ele><time>2026-05-03T13:22:16Z</time></trkpt><trkpt lat="44.71312832188756" lon="9.618092427203104"><ele>995.0</ele><time>2026-05-03T13:22:17Z</time></trkpt><trkpt lat="44.713174779740086" lon="9.61802104002468"><ele>995.0</ele><time>2026-05-03T13:22:18Z</time></trkpt><trkpt lat="44.713222678954985" lon="9.617948857749083"><ele>995.0</ele><time>2026-05-03T13:22:19Z</time></trkpt><trkpt lat="44.71328248379297" lon="9.61787199767227"><ele>995.0000000000001</ele><time>2026-05-03T13:22:20Z</time></trkpt><trkpt lat="44.71335882215836" lon="9.617793100697192"><ele>995.0</ele><time>2026-05-03T13:22:21Z</time></trkpt><trkpt lat="44.713437148928726" lon="9.617735257662233"><ele>993.8333333333334</ele><time>2026-05-03T13:22:22Z</time></trkpt><trkpt lat="44.713494875004166" lon="9.617667632688834"><ele>992.6666666666667</ele><time>2026-05-03T13:22:23Z</time></trkpt><trkpt lat="44.71353156610506" lon="9.617550607142903"><ele>991.5</ele><time>2026-05-03T13:22:24Z</time></trkpt><trkpt lat="44.713549642641986" lon="9.617421588705522"><ele>990.3333333333333</ele><time>2026-05-03T13:22:25Z</time></trkpt><trkpt lat="44.71355745692824" lon="9.617331280252468"><ele>989.1666666666666</ele><time>2026-05-03T13:22:26Z</time></trkpt><trkpt lat="44.71359921279208" lon="9.617183186070267"><ele>988.0</ele><time>2026-05-03T13:22:28Z</time></trkpt><trkpt lat="44.713640019471505" lon="9.617092633185434"><ele>987.9999999999999</ele><time>2026-05-03T13:22:29Z</time></trkpt><trkpt lat="44.71369102422114" lon="9.616996381749756"><ele>988.0</ele><time>2026-05-03T13:22:30Z</time></trkpt><trkpt lat="44.71374604463108" lon="9.616904374656816"><ele>988.0</ele><time>2026-05-03T13:22:31Z</time></trkpt><trkpt lat="44.71380260137667" lon="9.616806597608228"><ele>988.0</ele><time>2026-05-03T13:22:32Z</time></trkpt><trkpt lat="44.713857057371435" lon="9.61670330767656"><ele>987.9999999999999</ele><time>2026-05-03T13:22:33Z</time></trkpt><trkpt lat="44.71393010508704" lon="9.616614054593253"><ele>988.0</ele><time>2026-05-03T13:22:34Z</time></trkpt><trkpt lat="44.714021151184696" lon="9.616527756783308"><ele>993.0</ele><time>2026-05-03T13:22:35Z</time></trkpt><trkpt lat="44.71410178544641" lon="9.616433869603387"><ele>998.0</ele><time>2026-05-03T13:22:36Z</time></trkpt><trkpt lat="44.71416399024214" lon="9.616325515212466"><ele>1003.0</ele><time>2026-05-03T13:22:37Z</time></trkpt><trkpt lat="44.71421320485342" lon="9.616217087235414"><ele>1008.0</ele><time>2026-05-03T13:22:38Z</time></trkpt><trkpt lat="44.71423301189789" lon="9.616107439836405"><ele>1013.0</ele><time>2026-05-03T13:22:39Z</time></trkpt><trkpt lat="44.71427676197991" lon="9.616006893754394"><ele>1010.5000000000001</ele><time>2026-05-03T13:22:40Z</time></trkpt><trkpt lat="44.71431903492437" lon="9.615908076466823"><ele>1008.0</ele><time>2026-05-03T13:22:41Z</time></trkpt><trkpt lat="44.71435152507186" lon="9.615808750131297"><ele>1005.5</ele><time>2026-05-03T13:22:42Z</time></trkpt><trkpt lat="44.71438153580623" lon="9.615712203370341"><ele>1003.0</ele><time>2026-05-03T13:22:43Z</time></trkpt><trkpt lat="44.714444593626936" lon="9.615620100939918"><ele>1000.5000000000001</ele><time>2026-05-03T13:22:44Z</time></trkpt><trkpt lat="44.71452434011106" lon="9.615563448747999"><ele>998.0</ele><time>2026-05-03T13:22:45Z</time></trkpt><trkpt lat="44.71460040377784" lon="9.61550718391148"><ele>998.0000000000001</ele><time>2026-05-03T13:22:46Z</time></trkpt><trkpt lat="44.71467484552597" lon="9.61542352058302"><ele>998.0</ele><time>2026-05-03T13:22:47Z</time></trkpt><trkpt lat="44.7147327280523" lon="9.615327581501575"><ele>998.0</ele><time>2026-05-03T13:22:48Z</time></trkpt><trkpt lat="44.71477192453539" lon="9.615218955161893"><ele>998.0</ele><time>2026-05-03T13:22:49Z</time></trkpt><trkpt lat="44.71479035036127" lon="9.615099736430547"><ele>998.0000000000001</ele><time>2026-05-03T13:22:50Z</time></trkpt><trkpt lat="44.71480242384636" lon="9.614986118096262"><ele>998.0</ele><time>2026-05-03T13:22:51Z</time></trkpt><trkpt lat="44.714812426467326" lon="9.614865445228181"><ele>1002.5000000000001</ele><time>2026-05-03T13:22:52Z</time></trkpt><trkpt lat="44.71483182677489" lon="9.614751872664174"><ele>1007.0</ele><time>2026-05-03T13:22:53Z</time></trkpt><trkpt lat="44.714848800070264" lon="9.614642422613658"><ele>1011.5</ele><time>2026-05-03T13:22:54Z</time></trkpt><trkpt lat="44.71486617398898" lon="9.614548118921164"><ele>1016.0</ele><time>2026-05-03T13:22:55Z</time></trkpt><trkpt lat="44.71488849421117" lon="9.614454390694462"><ele>1020.5000000000001</ele><time>2026-05-03T13:22:56Z</time></trkpt><trkpt lat="44.7149708773863" lon="9.614345443533013"><ele>1025.0</ele><time>2026-05-03T13:22:58Z</time></trkpt><trkpt lat="44.71505065945155" lon="9.614321846931157"><ele>1027.5</ele><time>2026-05-03T13:22:59Z</time></trkpt><trkpt lat="44.71513774192859" lon="9.614303778033616"><ele>1030.0</ele><time>2026-05-03T13:23:00Z</time></trkpt><trkpt lat="44.71522862199228" lon="9.614252017058735"><ele>1032.5</ele><time>2026-05-03T13:23:01Z</time></trkpt><trkpt lat="44.71529844846856" lon="9.614185968260097"><ele>1035.0</ele><time>2026-05-03T13:23:02Z</time></trkpt><trkpt lat="44.71534041888071" lon="9.614104638726296"><ele>1037.5</ele><time>2026-05-03T13:23:03Z</time></trkpt><trkpt lat="44.715360975558724" lon="9.614002385346316"><ele>1040.0</ele><time>2026-05-03T13:23:04Z</time></trkpt><trkpt lat="44.71537615993526" lon="9.613880034247503"><ele>1034.2</ele><time>2026-05-03T13:23:05Z</time></trkpt><trkpt lat="44.71538826592888" lon="9.613739458678499"><ele>1028.4</ele><time>2026-05-03T13:23:06Z</time></trkpt><trkpt lat="44.71540330364218" lon="9.613601402276869"><ele>1022.5999999999999</ele><time>2026-05-03T13:23:07Z</time></trkpt><trkpt lat="44.71542009631503" lon="9.613479980371238"><ele>1016.8</ele><time>2026-05-03T13:23:08Z</time></trkpt><trkpt lat="44.715431388459244" lon="9.613349227870508"><ele>1011.0</ele><time>2026-05-03T13:23:09Z</time></trkpt><trkpt lat="44.715433982816414" lon="9.613213555776376"><ele>1011.0</ele><time>2026-05-03T13:23:10Z</time></trkpt><trkpt lat="44.71540843161793" lon="9.613075553083819"><ele>1010.9999999999999</ele><time>2026-05-03T13:23:11Z</time></trkpt><trkpt lat="44.715386051369094" lon="9.612928412488428"><ele>1010.9999999999999</ele><time>2026-05-03T13:23:12Z</time></trkpt><trkpt lat="44.715381348792576" lon="9.612789376196698"><ele>1011.0</ele><time>2026-05-03T13:23:13Z</time></trkpt><trkpt lat="44.71538125567871" lon="9.612642572499384"><ele>1011.0</ele><time>2026-05-03T13:23:14Z</time></trkpt><trkpt lat="44.71538346961696" lon="9.612507395356447"><ele>1010.5999999999999</ele><time>2026-05-03T13:23:15Z</time></trkpt><trkpt lat="44.71538239568772" lon="9.612373788423756"><ele>1010.1999999999999</ele><time>2026-05-03T13:23:16Z</time></trkpt><trkpt lat="44.71537683385133" lon="9.61225145509293"><ele>1009.8000000000001</ele><time>2026-05-03T13:23:17Z</time></trkpt><trkpt lat="44.715364975578964" lon="9.612124250195365"><ele>1009.4000000000001</ele><time>2026-05-03T13:23:18Z</time></trkpt><trkpt lat="44.71536245624068" lon="9.611979477081341"><ele>1009.0</ele><time>2026-05-03T13:23:19Z</time></trkpt><trkpt lat="44.71536137141635" lon="9.611820536386544"><ele>1008.2</ele><time>2026-05-03T13:23:20Z</time></trkpt><trkpt lat="44.71534099296796" lon="9.611656894674837"><ele>1007.4000000000001</ele><time>2026-05-03T13:23:21Z</time></trkpt><trkpt lat="44.71531454704608" lon="9.611513808246062"><ele>1006.6</ele><time>2026-05-03T13:23:22Z</time></trkpt><trkpt lat="44.71530302243675" lon="9.611385490655426"><ele>1005.8</ele><time>2026-05-03T13:23:23Z</time></trkpt><trkpt lat="44.71528831278349" lon="9.611278761080726"><ele>1005.0</ele><time>2026-05-03T13:23:24Z</time></trkpt><trkpt lat="44.715256642341856" lon="9.611170125739733"><ele>1013.0</ele><time>2026-05-03T13:23:25Z</time></trkpt><trkpt lat="44.715212178500295" lon="9.611059139942524"><ele>1021.0</ele><time>2026-05-03T13:23:26Z</time></trkpt><trkpt lat="44.71517095478088" lon="9.610894239015844"><ele>1029.0</ele><time>2026-05-03T13:23:28Z</time></trkpt><trkpt lat="44.715166138925255" lon="9.610757705976743"><ele>1037.0</ele><time>2026-05-03T13:23:30Z</time></trkpt><trkpt lat="44.71518999868042" lon="9.610671474184258"><ele>1045.0</ele><time>2026-05-03T13:23:31Z</time></trkpt><trkpt lat="44.71523340771174" lon="9.610567357551183"><ele>1045.0</ele><time>2026-05-03T13:23:32Z</time></trkpt><trkpt lat="44.715250162769784" lon="9.610460020910978"><ele>1045.0</ele><time>2026-05-03T13:23:33Z</time></trkpt><trkpt lat="44.715231678164045" lon="9.610346057547272"><ele>1045.0</ele><time>2026-05-03T13:23:34Z</time></trkpt><trkpt lat="44.71520214832601" lon="9.610215582707"><ele>1045.0</ele><time>2026-05-03T13:23:35Z</time></trkpt><trkpt lat="44.715187160194084" lon="9.61009615862367"><ele>1045.0</ele><time>2026-05-03T13:23:36Z</time></trkpt><trkpt lat="44.715176076866605" lon="9.609962316928385"><ele>1045.0</ele><time>2026-05-03T13:23:37Z</time></trkpt><trkpt lat="44.71516679992949" lon="9.609838638612148"><ele>1045.5</ele><time>2026-05-03T13:23:38Z</time></trkpt><trkpt lat="44.71514842777722" lon="9.60973076594846"><ele>1046.0</ele><time>2026-05-03T13:23:39Z</time></trkpt><trkpt lat="44.715104167036344" lon="9.60962151305468"><ele>1046.5</ele><time>2026-05-03T13:23:40Z</time></trkpt><trkpt lat="44.71504989653369" lon="9.609537873903562"><ele>1047.0</ele><time>2026-05-03T13:23:41Z</time></trkpt><trkpt lat="44.714977496400955" lon="9.609436532570365"><ele>1047.5</ele><time>2026-05-03T13:23:42Z</time></trkpt><trkpt lat="44.7149260305233" lon="9.609321416669511"><ele>1048.0</ele><time>2026-05-03T13:23:43Z</time></trkpt><trkpt lat="44.71489573559948" lon="9.609219257458864"><ele>1046.0</ele><time>2026-05-03T13:23:44Z</time></trkpt><trkpt lat="44.71485909208379" lon="9.609097020290664"><ele>1044.0</ele><time>2026-05-03T13:23:45Z</time></trkpt><trkpt lat="44.71482381097564" lon="9.608989300662126"><ele>1042.0</ele><time>2026-05-03T13:23:46Z</time></trkpt><trkpt lat="44.71479630314677" lon="9.608887535729316"><ele>1040.0</ele><time>2026-05-03T13:23:47Z</time></trkpt><trkpt lat="44.714774175688746" lon="9.608791611550803"><ele>1038.0</ele><time>2026-05-03T13:23:48Z</time></trkpt><trkpt lat="44.71474665259488" lon="9.608681081354488"><ele>1036.0</ele><time>2026-05-03T13:23:49Z</time></trkpt><trkpt lat="44.71472682904826" lon="9.608573787670425"><ele>1035.0</ele><time>2026-05-03T13:23:50Z</time></trkpt><trkpt lat="44.714716204437046" lon="9.608481488873577"><ele>1034.0</ele><time>2026-05-03T13:23:51Z</time></trkpt><trkpt lat="44.71471544186978" lon="9.608290002768126"><ele>1033.0</ele><time>2026-05-03T13:23:53Z</time></trkpt><trkpt lat="44.71471719581342" lon="9.608150351866472"><ele>1032.0</ele><time>2026-05-03T13:23:54Z</time></trkpt><trkpt lat="44.71470387085844" lon="9.608009171991228"><ele>1031.0</ele><time>2026-05-03T13:23:55Z</time></trkpt><trkpt lat="44.71468266790321" lon="9.6078683175956"><ele>1031.6666666666667</ele><time>2026-05-03T13:23:56Z</time></trkpt><trkpt lat="44.714668231380934" lon="9.607746667263246"><ele>1032.3333333333335</ele><time>2026-05-03T13:23:57Z</time></trkpt><trkpt lat="44.71466194657272" lon="9.607642912424971"><ele>1033.0</ele><time>2026-05-03T13:23:58Z</time></trkpt><trkpt lat="44.714673907177435" lon="9.607541262702231"><ele>1033.6666666666667</ele><time>2026-05-03T13:23:59Z</time></trkpt><trkpt lat="44.714694170785705" lon="9.607425161595627"><ele>1034.3333333333333</ele><time>2026-05-03T13:24:00Z</time></trkpt><trkpt lat="44.71473348313687" lon="9.60730147899677"><ele>1035.0</ele><time>2026-05-03T13:24:01Z</time></trkpt><trkpt lat="44.71479350907256" lon="9.607190850283681"><ele>1035.0</ele><time>2026-05-03T13:24:02Z</time></trkpt><trkpt lat="44.71486113690588" lon="9.60708664851043"><ele>1035.0</ele><time>2026-05-03T13:24:03Z</time></trkpt><trkpt lat="44.71492326218805" lon="9.606975758189128"><ele>1035.0</ele><time>2026-05-03T13:24:04Z</time></trkpt><trkpt lat="44.714981122310014" lon="9.606845671471783"><ele>1035.0</ele><time>2026-05-03T13:24:05Z</time></trkpt><trkpt lat="44.715025373761705" lon="9.60672736228699"><ele>1035.0</ele><time>2026-05-03T13:24:06Z</time></trkpt><trkpt lat="44.71506908613668" lon="9.606625270260258"><ele>1034.2</ele><time>2026-05-03T13:24:07Z</time></trkpt><trkpt lat="44.715135806417535" lon="9.606511910152168"><ele>1033.4</ele><time>2026-05-03T13:24:08Z</time></trkpt><trkpt lat="44.71521657554157" lon="9.606411962651148"><ele>1032.6</ele><time>2026-05-03T13:24:09Z</time></trkpt><trkpt lat="44.71529927265508" lon="9.606317965226706"><ele>1031.8</ele><time>2026-05-03T13:24:10Z</time></trkpt><trkpt lat="44.7153845791866" lon="9.606233576983799"><ele>1031.0</ele><time>2026-05-03T13:24:11Z</time></trkpt><trkpt lat="44.7154697805108" lon="9.606138395680214"><ele>1030.6</ele><time>2026-05-03T13:24:12Z</time></trkpt><trkpt lat="44.715542796868064" lon="9.606014916744885"><ele>1030.1999999999998</ele><time>2026-05-03T13:24:13Z</time></trkpt><trkpt lat="44.71560406018741" lon="9.605868494467924"><ele>1029.8000000000002</ele><time>2026-05-03T13:24:14Z</time></trkpt><trkpt lat="44.71565706887504" lon="9.605736435057361"><ele>1029.4</ele><time>2026-05-03T13:24:15Z</time></trkpt><trkpt lat="44.715705850239246" lon="9.605627734083564"><ele>1029.0</ele><time>2026-05-03T13:24:16Z</time></trkpt><trkpt lat="44.71576066222413" lon="9.605527859297181"><ele>1029.0</ele><time>2026-05-03T13:24:17Z</time></trkpt><trkpt lat="44.71581805773789" lon="9.60542964407441"><ele>1029.0</ele><time>2026-05-03T13:24:18Z</time></trkpt><trkpt lat="44.71586865906627" lon="9.605315538414217"><ele>1029.0</ele><time>2026-05-03T13:24:19Z</time></trkpt><trkpt lat="44.71591010150293" lon="9.60519097480533"><ele>1029.0</ele><time>2026-05-03T13:24:20Z</time></trkpt><trkpt lat="44.71593516356543" lon="9.605068477177431"><ele>1029.0</ele><time>2026-05-03T13:24:21Z</time></trkpt><trkpt lat="44.71594406325439" lon="9.604937964879102"><ele>1029.2</ele><time>2026-05-03T13:24:22Z</time></trkpt><trkpt lat="44.71594359431375" lon="9.604816436289537"><ele>1029.4</ele><time>2026-05-03T13:24:23Z</time></trkpt><trkpt lat="44.71594322565533" lon="9.604675010738589"><ele>1029.6</ele><time>2026-05-03T13:24:24Z</time></trkpt><trkpt lat="44.71594825400545" lon="9.60453400985227"><ele>1029.8</ele><time>2026-05-03T13:24:25Z</time></trkpt><trkpt lat="44.715943469304726" lon="9.60440716381339"><ele>1030.0</ele><time>2026-05-03T13:24:26Z</time></trkpt><trkpt lat="44.71592989947508" lon="9.604284700262209"><ele>1029.1666666666665</ele><time>2026-05-03T13:24:27Z</time></trkpt><trkpt lat="44.7159095698538" lon="9.604167906163102"><ele>1028.3333333333333</ele><time>2026-05-03T13:24:28Z</time></trkpt><trkpt lat="44.71588816302932" lon="9.604042577794383"><ele>1027.5</ele><time>2026-05-03T13:24:29Z</time></trkpt><trkpt lat="44.71587272236097" lon="9.603907733447906"><ele>1026.6666666666667</ele><time>2026-05-03T13:24:30Z</time></trkpt><trkpt lat="44.71587182763584" lon="9.60380158319692"><ele>1025.8333333333335</ele><time>2026-05-03T13:24:31Z</time></trkpt><trkpt lat="44.71586911577381" lon="9.603690976776328"><ele>1025.0</ele><time>2026-05-03T13:24:32Z</time></trkpt><trkpt lat="44.71584187364961" lon="9.60351153164172"><ele>1024.1666666666667</ele><time>2026-05-03T13:24:34Z</time></trkpt><trkpt lat="44.71579517813769" lon="9.60343944165235"><ele>1023.3333333333334</ele><time>2026-05-03T13:24:35Z</time></trkpt><trkpt lat="44.71573516150591" lon="9.603391343391689"><ele>1022.5</ele><time>2026-05-03T13:24:36Z</time></trkpt><trkpt lat="44.71562676510838" lon="9.603386080642776"><ele>1021.6666666666667</ele><time>2026-05-03T13:24:38Z</time></trkpt><trkpt lat="44.71553518644537" lon="9.603447678384056"><ele>1020.8333333333334</ele><time>2026-05-03T13:24:40Z</time></trkpt><trkpt lat="44.71545867137922" lon="9.603501742811659"><ele>1020.0</ele><time>2026-05-03T13:25:11Z</time></trkpt><trkpt lat="44.71537433973103" lon="9.603655273445526"><ele>1021.0</ele><time>2026-05-03T13:25:13Z</time></trkpt><trkpt lat="44.71529859554628" lon="9.603716611168558"><ele>1022.0</ele><time>2026-05-03T13:25:14Z</time></trkpt><trkpt lat="44.71522741498095" lon="9.603818273327285"><ele>1023.0</ele><time>2026-05-03T13:25:15Z</time></trkpt><trkpt lat="44.715167061146964" lon="9.60393742396147"><ele>1024.0</ele><time>2026-05-03T13:25:16Z</time></trkpt><trkpt lat="44.7151120441967" lon="9.604045089189695"><ele>1025.0</ele><time>2026-05-03T13:25:17Z</time></trkpt><trkpt lat="44.71508678629129" lon="9.604162186674088"><ele>1023.2</ele><time>2026-05-03T13:25:18Z</time></trkpt><trkpt lat="44.715044351945835" lon="9.604276928370385"><ele>1021.4</ele><time>2026-05-03T13:25:19Z</time></trkpt><trkpt lat="44.7150057064438" lon="9.604394016881887"><ele>1019.5999999999999</ele><time>2026-05-03T13:25:20Z</time></trkpt><trkpt lat="44.71497909471514" lon="9.604525171448179"><ele>1017.8</ele><time>2026-05-03T13:25:21Z</time></trkpt><trkpt lat="44.71492678462781" lon="9.604647358738037"><ele>1016.0</ele><time>2026-05-03T13:25:22Z</time></trkpt><trkpt lat="44.714874759095814" lon="9.604762806748363"><ele>1016.0</ele><time>2026-05-03T13:25:23Z</time></trkpt><trkpt lat="44.71482075470647" lon="9.604884634478864"><ele>1015.9999999999999</ele><time>2026-05-03T13:25:24Z</time></trkpt><trkpt lat="44.714763790573095" lon="9.60500187369829"><ele>1015.9999999999999</ele><time>2026-05-03T13:25:25Z</time></trkpt><trkpt lat="44.71471064150291" lon="9.605107658475857"><ele>1016.0</ele><time>2026-05-03T13:25:26Z</time></trkpt><trkpt lat="44.71465890007525" lon="9.605218898255954"><ele>1016.0</ele><time>2026-05-03T13:25:27Z</time></trkpt><trkpt lat="44.71461162725024" lon="9.605326842048603"><ele>1017.0</ele><time>2026-05-03T13:25:28Z</time></trkpt><trkpt lat="44.714562749984644" lon="9.605433663747533"><ele>1017.9999999999999</ele><time>2026-05-03T13:25:29Z</time></trkpt><trkpt lat="44.71451268900677" lon="9.60553313429351"><ele>1018.9999999999999</ele><time>2026-05-03T13:25:30Z</time></trkpt><trkpt lat="44.71445410426896" lon="9.605631020778466"><ele>1020.0</ele><time>2026-05-03T13:25:31Z</time></trkpt><trkpt lat="44.71436606229212" lon="9.60569417131543"><ele>1021.0</ele><time>2026-05-03T13:25:32Z</time></trkpt><trkpt lat="44.71428302611916" lon="9.605758240448814"><ele>1016.4</ele><time>2026-05-03T13:25:33Z</time></trkpt><trkpt lat="44.71419297187957" lon="9.605816731919347"><ele>1011.8</ele><time>2026-05-03T13:25:34Z</time></trkpt><trkpt lat="44.71411252910408" lon="9.605875596010678"><ele>1007.1999999999999</ele><time>2026-05-03T13:25:35Z</time></trkpt><trkpt lat="44.71404622371342" lon="9.605942535747221"><ele>1002.5999999999999</ele><time>2026-05-03T13:25:36Z</time></trkpt><trkpt lat="44.713975133478094" lon="9.606040850161284"><ele>998.0</ele><time>2026-05-03T13:25:37Z</time></trkpt><trkpt lat="44.71389329768414" lon="9.606123422838847"><ele>997.4</ele><time>2026-05-03T13:25:38Z</time></trkpt><trkpt lat="44.71381112869176" lon="9.60621072453705"><ele>996.8</ele><time>2026-05-03T13:25:39Z</time></trkpt><trkpt lat="44.713717468642706" lon="9.606293640832506"><ele>996.2</ele><time>2026-05-03T13:25:40Z</time></trkpt><trkpt lat="44.713612347250724" lon="9.606330809063193"><ele>995.6</ele><time>2026-05-03T13:25:41Z</time></trkpt><trkpt lat="44.713497980684515" lon="9.606365996236683"><ele>995.0</ele><time>2026-05-03T13:25:42Z</time></trkpt><trkpt lat="44.713412250904064" lon="9.606395444655904"><ele>995.0000000000001</ele><time>2026-05-03T13:25:43Z</time></trkpt><trkpt lat="44.71332276087818" lon="9.606382601810656"><ele>995.0</ele><time>2026-05-03T13:25:44Z</time></trkpt><trkpt lat="44.71325915917886" lon="9.606322196227007"><ele>995.0</ele><time>2026-05-03T13:25:45Z</time></trkpt><trkpt lat="44.71318762615221" lon="9.606308826060951"><ele>995.0</ele><time>2026-05-03T13:25:46Z</time></trkpt><trkpt lat="44.71311420167051" lon="9.606285928216858"><ele>995.0000000000001</ele><time>2026-05-03T13:25:48Z</time></trkpt><trkpt lat="44.71301499568251" lon="9.606307280268735"><ele>995.0</ele><time>2026-05-03T13:25:50Z</time></trkpt><trkpt lat="44.7129495915965" lon="9.606349549407657"><ele>995.0000000000001</ele><time>2026-05-03T13:25:51Z</time></trkpt><trkpt lat="44.712867887324784" lon="9.606404485193341"><ele>995.0</ele><time>2026-05-03T13:25:52Z</time></trkpt><trkpt lat="44.712796176867435" lon="9.606478421403832"><ele>995.0</ele><time>2026-05-03T13:25:53Z</time></trkpt><trkpt lat="44.71274624054856" lon="9.606541815341783"><ele>995.0</ele><time>2026-05-03T13:25:54Z</time></trkpt><trkpt lat="44.71270173623596" lon="9.606643873699237"><ele>995.0000000000001</ele><time>2026-05-03T13:25:55Z</time></trkpt><trkpt lat="44.71266515009854" lon="9.606727195908492"><ele>995.0</ele><time>2026-05-03T13:25:56Z</time></trkpt><trkpt lat="44.712638369242654" lon="9.606811498932455"><ele>993.4</ele><time>2026-05-03T13:25:57Z</time></trkpt><trkpt lat="44.71260769592418" lon="9.606913680135943"><ele>991.8</ele><time>2026-05-03T13:25:59Z</time></trkpt><trkpt lat="44.712570249947504" lon="9.60702630223358"><ele>990.2</ele><time>2026-05-03T13:26:26Z</time></trkpt><trkpt lat="44.712531704915605" lon="9.607140990241586"><ele>988.6</ele><time>2026-05-03T13:26:27Z</time></trkpt><trkpt lat="44.71247548957042" lon="9.607271193086884"><ele>987.0</ele><time>2026-05-03T13:26:28Z</time></trkpt><trkpt lat="44.712399030252044" lon="9.60740957490072"><ele>987.0</ele><time>2026-05-03T13:26:29Z</time></trkpt><trkpt lat="44.71231681212653" lon="9.607579077214416"><ele>987.0</ele><time>2026-05-03T13:26:30Z</time></trkpt><trkpt lat="44.71227404150545" lon="9.607696471300878"><ele>987.0</ele><time>2026-05-03T13:26:31Z</time></trkpt><trkpt lat="44.71220321647317" lon="9.607839204502202"><ele>987.0</ele><time>2026-05-03T13:26:32Z</time></trkpt><trkpt lat="44.712145298512425" lon="9.607979134624514"><ele>988.2</ele><time>2026-05-03T13:26:33Z</time></trkpt><trkpt lat="44.71208141450639" lon="9.608133379504945"><ele>989.4000000000001</ele><time>2026-05-03T13:26:34Z</time></trkpt><trkpt lat="44.71202372837821" lon="9.60827390818942"><ele>990.5999999999999</ele><time>2026-05-03T13:26:35Z</time></trkpt><trkpt lat="44.71197080956955" lon="9.60839770989489"><ele>991.8</ele><time>2026-05-03T13:26:36Z</time></trkpt><trkpt lat="44.71192313905824" lon="9.608512036610051"><ele>993.0</ele><time>2026-05-03T13:26:37Z</time></trkpt><trkpt lat="44.71188239977667" lon="9.608644757483852"><ele>988.25</ele><time>2026-05-03T13:26:38Z</time></trkpt><trkpt lat="44.71186280135797" lon="9.608783836435494"><ele>983.5</ele><time>2026-05-03T13:26:39Z</time></trkpt><trkpt lat="44.71184688955981" lon="9.608948784454542"><ele>978.75</ele><time>2026-05-03T13:26:40Z</time></trkpt><trkpt lat="44.711824181643365" lon="9.609118114516152"><ele>974.0</ele><time>2026-05-03T13:26:41Z</time></trkpt><trkpt lat="44.71180042699465" lon="9.609295344500575"><ele>974.0</ele><time>2026-05-03T13:26:42Z</time></trkpt><trkpt lat="44.711776319199345" lon="9.609473719358897"><ele>974.0</ele><time>2026-05-03T13:26:43Z</time></trkpt><trkpt lat="44.711754749325635" lon="9.609646300377301"><ele>974.0</ele><time>2026-05-03T13:26:44Z</time></trkpt><trkpt lat="44.71173760243384" lon="9.609783491849257"><ele>974.0</ele><time>2026-05-03T13:26:45Z</time></trkpt><trkpt lat="44.71171546914698" lon="9.60993179547904"><ele>975.6</ele><time>2026-05-03T13:26:46Z</time></trkpt><trkpt lat="44.71168916192952" lon="9.610084464214053"><ele>977.2</ele><time>2026-05-03T13:26:47Z</time></trkpt><trkpt lat="44.71165350861387" lon="9.610214052655165"><ele>978.8000000000001</ele><time>2026-05-03T13:26:48Z</time></trkpt><trkpt lat="44.71159621502027" lon="9.610338026510266"><ele>980.4000000000001</ele><time>2026-05-03T13:26:49Z</time></trkpt><trkpt lat="44.711529435957914" lon="9.610454673412525"><ele>982.0</ele><time>2026-05-03T13:26:50Z</time></trkpt><trkpt lat="44.711424039902596" lon="9.610463406160255"><ele>984.5</ele><time>2026-05-03T13:26:51Z</time></trkpt><trkpt lat="44.71133196416883" lon="9.610484200823882"><ele>987.0</ele><time>2026-05-03T13:26:52Z</time></trkpt><trkpt lat="44.71123949418069" lon="9.610487953553148"><ele>989.5</ele><time>2026-05-03T13:26:53Z</time></trkpt><trkpt lat="44.71110739598031" lon="9.610394489791437"><ele>992.0</ele><time>2026-05-03T13:26:54Z</time></trkpt><trkpt lat="44.711018027810944" lon="9.610272629574578"><ele>986.8</ele><time>2026-05-03T13:26:55Z</time></trkpt><trkpt lat="44.7109238744725" lon="9.610185977987433"><ele>981.6</ele><time>2026-05-03T13:26:56Z</time></trkpt><trkpt lat="44.71083822282569" lon="9.610090326032164"><ele>976.3999999999999</ele><time>2026-05-03T13:26:57Z</time></trkpt><trkpt lat="44.710749361322684" lon="9.61001938852471"><ele>971.1999999999999</ele><time>2026-05-03T13:26:58Z</time></trkpt><trkpt lat="44.71065542050273" lon="9.609954445466567"><ele>966.0</ele><time>2026-05-03T13:26:59Z</time></trkpt><trkpt lat="44.710573846864165" lon="9.609872559764918"><ele>966.0</ele><time>2026-05-03T13:27:00Z</time></trkpt><trkpt lat="44.710480261743605" lon="9.609836371348061"><ele>966.0</ele><time>2026-05-03T13:27:01Z</time></trkpt><trkpt lat="44.71040745198983" lon="9.609797034198289"><ele>966.0</ele><time>2026-05-03T13:27:02Z</time></trkpt><trkpt lat="44.71033637448862" lon="9.609792654312914"><ele>966.0</ele><time>2026-05-03T13:27:03Z</time></trkpt><trkpt lat="44.71027499376825" lon="9.609829161542999"><ele>966.0</ele><time>2026-05-03T13:27:04Z</time></trkpt><trkpt lat="44.71022405534336" lon="9.609907852868291"><ele>966.0</ele><time>2026-05-03T13:27:05Z</time></trkpt><trkpt lat="44.7101546325437" lon="9.609976449261774"><ele>963.8</ele><time>2026-05-03T13:27:10Z</time></trkpt><trkpt lat="44.710066891865694" lon="9.610009503311405"><ele>961.5999999999999</ele><time>2026-05-03T13:27:28Z</time></trkpt><trkpt lat="44.70998402743571" lon="9.610084638757861"><ele>959.4</ele><time>2026-05-03T13:27:30Z</time></trkpt><trkpt lat="44.70994502881906" lon="9.610272526912581"><ele>957.2</ele><time>2026-05-03T13:27:31Z</time></trkpt><trkpt lat="44.70985970815282" lon="9.61035499882686"><ele>955.0</ele><time>2026-05-03T13:27:32Z</time></trkpt><trkpt lat="44.709775356599536" lon="9.610434822210394"><ele>958.0</ele><time>2026-05-03T13:27:33Z</time></trkpt><trkpt lat="44.709681149609516" lon="9.610568295136384"><ele>961.0</ele><time>2026-05-03T13:27:35Z</time></trkpt><trkpt lat="44.70964773528081" lon="9.610681139202923"><ele>964.0</ele><time>2026-05-03T13:27:36Z</time></trkpt><trkpt lat="44.70955498240143" lon="9.61078617628017"><ele>967.0</ele><time>2026-05-03T13:27:38Z</time></trkpt><trkpt lat="44.7094885424972" lon="9.610770322711089"><ele>970.0</ele><time>2026-05-03T13:27:39Z</time></trkpt><trkpt lat="44.709401345523524" lon="9.610756812960608"><ele>969.9999999999999</ele><time>2026-05-03T13:27:40Z</time></trkpt><trkpt lat="44.70930808684528" lon="9.610740769025375"><ele>970.0</ele><time>2026-05-03T13:27:41Z</time></trkpt><trkpt lat="44.709214977950985" lon="9.610736700786845"><ele>970.0</ele><time>2026-05-03T13:27:42Z</time></trkpt><trkpt lat="44.70913174232804" lon="9.61073600637171"><ele>970.0</ele><time>2026-05-03T13:27:43Z</time></trkpt><trkpt lat="44.70907355449274" lon="9.610772696101831"><ele>969.9999999999999</ele><time>2026-05-03T13:27:44Z</time></trkpt><trkpt lat="44.70901009027193" lon="9.610848054236223"><ele>970.0</ele><time>2026-05-03T13:27:45Z</time></trkpt><trkpt lat="44.70893898233725" lon="9.610920203368453"><ele>970.0</ele><time>2026-05-03T13:27:46Z</time></trkpt><trkpt lat="44.70886793932871" lon="9.610976800868357"><ele>970.0</ele><time>2026-05-03T13:27:47Z</time></trkpt><trkpt lat="44.70877763066543" lon="9.611055557793229"><ele>970.0</ele><time>2026-05-03T13:27:49Z</time></trkpt><trkpt lat="44.70872422361199" lon="9.61110426203686"><ele>970.0</ele><time>2026-05-03T13:27:50Z</time></trkpt><trkpt lat="44.70865879763365" lon="9.611157835003858"><ele>970.0</ele><time>2026-05-03T13:27:51Z</time></trkpt><trkpt lat="44.70854895045391" lon="9.61125029098458"><ele>970.6</ele><time>2026-05-03T13:27:53Z</time></trkpt><trkpt lat="44.70848009961657" lon="9.611333609865428"><ele>971.2</ele><time>2026-05-03T13:27:55Z</time></trkpt><trkpt lat="44.70838987609674" lon="9.611474258877598"><ele>971.8</ele><time>2026-05-03T13:27:57Z</time></trkpt><trkpt lat="44.70832926884471" lon="9.611552349615152"><ele>972.4</ele><time>2026-05-03T13:27:58Z</time></trkpt><trkpt lat="44.70825618375585" lon="9.611682049792105"><ele>973.0</ele><time>2026-05-03T13:28:00Z</time></trkpt><trkpt lat="44.708215776474105" lon="9.61177483911859"><ele>972.9999999999999</ele><time>2026-05-03T13:28:01Z</time></trkpt><trkpt lat="44.7081443585247" lon="9.61186260979231"><ele>973.0</ele><time>2026-05-03T13:28:02Z</time></trkpt><trkpt lat="44.70809082188665" lon="9.6119496041847"><ele>973.0</ele><time>2026-05-03T13:28:03Z</time></trkpt><trkpt lat="44.708031470677916" lon="9.612069436737073"><ele>973.0</ele><time>2026-05-03T13:28:04Z</time></trkpt><trkpt lat="44.70798159987555" lon="9.612171255609306"><ele>972.9999999999999</ele><time>2026-05-03T13:28:05Z</time></trkpt><trkpt lat="44.707940824983105" lon="9.612247944555182"><ele>973.0</ele><time>2026-05-03T13:28:06Z</time></trkpt><trkpt lat="44.70789373875821" lon="9.612321486126676"><ele>973.9999999999999</ele><time>2026-05-03T13:28:07Z</time></trkpt><trkpt lat="44.707846386370484" lon="9.61238315977394"><ele>975.0</ele><time>2026-05-03T13:28:08Z</time></trkpt><trkpt lat="44.707786551532514" lon="9.612429472510998"><ele>976.0</ele><time>2026-05-03T13:28:09Z</time></trkpt><trkpt lat="44.70771539891859" lon="9.612501798152591"><ele>977.0</ele><time>2026-05-03T13:28:10Z</time></trkpt><trkpt lat="44.707653121918455" lon="9.612594899958419"><ele>977.9999999999999</ele><time>2026-05-03T13:28:11Z</time></trkpt><trkpt lat="44.7076037288885" lon="9.612668102312167"><ele>979.0</ele><time>2026-05-03T13:28:12Z</time></trkpt><trkpt lat="44.70755499970741" lon="9.612745967798917"><ele>979.0</ele><time>2026-05-03T13:28:13Z</time></trkpt><trkpt lat="44.70749592434651" lon="9.612820413696712"><ele>979.0000000000001</ele><time>2026-05-03T13:28:14Z</time></trkpt><trkpt lat="44.707426571326685" lon="9.61286160100564"><ele>979.0000000000001</ele><time>2026-05-03T13:28:15Z</time></trkpt><trkpt lat="44.70731093394676" lon="9.612903887408239"><ele>979.0</ele><time>2026-05-03T13:28:17Z</time></trkpt><trkpt lat="44.70724711729468" lon="9.612905355340278"><ele>979.0</ele><time>2026-05-03T13:28:18Z</time></trkpt><trkpt lat="44.707111622856665" lon="9.612936386702783"><ele>982.3333333333333</ele><time>2026-05-03T13:28:20Z</time></trkpt><trkpt lat="44.707044859771344" lon="9.612917186575016"><ele>985.6666666666666</ele><time>2026-05-03T13:28:21Z</time></trkpt><trkpt lat="44.706947831562026" lon="9.612995081889064"><ele>989.0</ele><time>2026-05-03T13:28:23Z</time></trkpt><trkpt lat="44.70688226532259" lon="9.613036117913369"><ele>992.3333333333333</ele><time>2026-05-03T13:28:24Z</time></trkpt><trkpt lat="44.70681073701153" lon="9.613007441216709"><ele>995.6666666666666</ele><time>2026-05-03T13:28:25Z</time></trkpt><trkpt lat="44.70674535950299" lon="9.612964657512583"><ele>999.0</ele><time>2026-05-03T13:28:26Z</time></trkpt><trkpt lat="44.70665989752411" lon="9.613013923800343"><ele>999.6666666666666</ele><time>2026-05-03T13:28:28Z</time></trkpt><trkpt lat="44.70660420939818" lon="9.613155744876632"><ele>1000.3333333333333</ele><time>2026-05-03T13:28:30Z</time></trkpt><trkpt lat="44.706565524661464" lon="9.613232042341844"><ele>1001.0</ele><time>2026-05-03T13:28:31Z</time></trkpt><trkpt lat="44.706485626677434" lon="9.613284071849378"><ele>1001.6666666666666</ele><time>2026-05-03T13:28:32Z</time></trkpt><trkpt lat="44.70641540251177" lon="9.613309285480506"><ele>1002.3333333333333</ele><time>2026-05-03T13:28:33Z</time></trkpt><trkpt lat="44.7063419150677" lon="9.613314249263578"><ele>1003.0</ele><time>2026-05-03T13:28:34Z</time></trkpt><trkpt lat="44.70628053050006" lon="9.613361440006397"><ele>1002.9999999999999</ele><time>2026-05-03T13:28:35Z</time></trkpt><trkpt lat="44.70622298132679" lon="9.613425023567617"><ele>1003.0</ele><time>2026-05-03T13:28:37Z</time></trkpt><trkpt lat="44.70612268104243" lon="9.613539198120028"><ele>1003.0</ele><time>2026-05-03T13:28:39Z</time></trkpt><trkpt lat="44.70603724264657" lon="9.613607417435164"><ele>1003.0</ele><time>2026-05-03T13:28:40Z</time></trkpt><trkpt lat="44.70596808086919" lon="9.613644460560094"><ele>1002.9999999999999</ele><time>2026-05-03T13:28:41Z</time></trkpt><trkpt lat="44.705910483215575" lon="9.613695196652516"><ele>1003.0</ele><time>2026-05-03T13:28:42Z</time></trkpt><trkpt lat="44.705859299590195" lon="9.613767736430308"><ele>1004.9999999999999</ele><time>2026-05-03T13:28:43Z</time></trkpt><trkpt lat="44.705811217157226" lon="9.613836488144132"><ele>1007.0</ele><time>2026-05-03T13:28:44Z</time></trkpt><trkpt lat="44.7057488008088" lon="9.613872605465263"><ele>1009.0</ele><time>2026-05-03T13:28:45Z</time></trkpt><trkpt lat="44.70567153486176" lon="9.613888424429861"><ele>1011.0</ele><time>2026-05-03T13:28:46Z</time></trkpt><trkpt lat="44.7055912773647" lon="9.613912247819098"><ele>1012.9999999999999</ele><time>2026-05-03T13:28:47Z</time></trkpt><trkpt lat="44.70552127180394" lon="9.613921211293814"><ele>1015.0</ele><time>2026-05-03T13:28:48Z</time></trkpt><trkpt lat="44.70540640341989" lon="9.61395194074426"><ele>1014.9999999999999</ele><time>2026-05-03T13:28:50Z</time></trkpt><trkpt lat="44.70532792192882" lon="9.613973737416588"><ele>1015.0</ele><time>2026-05-03T13:28:51Z</time></trkpt><trkpt lat="44.70527122392278" lon="9.614036169718082"><ele>1015.0</ele><time>2026-05-03T13:28:53Z</time></trkpt><trkpt lat="44.705210769486484" lon="9.613940802589712"><ele>1015.0</ele><time>2026-05-03T13:29:05Z</time></trkpt><trkpt lat="44.705198538995894" lon="9.613806026476002"><ele>1014.9999999999999</ele><time>2026-05-03T13:29:06Z</time></trkpt><trkpt lat="44.70518334918836" lon="9.6136851365998"><ele>1015.0</ele><time>2026-05-03T13:29:07Z</time></trkpt><trkpt lat="44.70516922477189" lon="9.613550753187173"><ele>1014.6</ele><time>2026-05-03T13:29:08Z</time></trkpt><trkpt lat="44.70506336281875" lon="9.613425461767907"><ele>1014.2</ele><time>2026-05-03T13:29:10Z</time></trkpt><trkpt lat="44.705039055425225" lon="9.613334852186966"><ele>1013.8</ele><time>2026-05-03T13:29:11Z</time></trkpt><trkpt lat="44.705026699115294" lon="9.613226295069332"><ele>1013.4</ele><time>2026-05-03T13:29:12Z</time></trkpt><trkpt lat="44.70500388371136" lon="9.613104957158637"><ele>1013.0</ele><time>2026-05-03T13:29:13Z</time></trkpt><trkpt lat="44.70501477718442" lon="9.612882125740253"><ele>1013.1666666666667</ele><time>2026-05-03T13:29:15Z</time></trkpt><trkpt lat="44.70497825103518" lon="9.61277985748938"><ele>1013.3333333333334</ele><time>2026-05-03T13:29:16Z</time></trkpt><trkpt lat="44.7049176580441" lon="9.612690642285488"><ele>1013.5</ele><time>2026-05-03T13:29:17Z</time></trkpt><trkpt lat="44.70481738917612" lon="9.61264582141765"><ele>1013.6666666666667</ele><time>2026-05-03T13:29:18Z</time></trkpt><trkpt lat="44.70473676520311" lon="9.612603488677815"><ele>1013.8333333333334</ele><time>2026-05-03T13:29:19Z</time></trkpt><trkpt lat="44.704676942437516" lon="9.612521402229394"><ele>1014.0</ele><time>2026-05-03T13:29:20Z</time></trkpt><trkpt lat="44.70462060715635" lon="9.612403198002282"><ele>1014.0</ele><time>2026-05-03T13:29:21Z</time></trkpt><trkpt lat="44.70455310029102" lon="9.612330863839128"><ele>1014.0</ele><time>2026-05-03T13:29:22Z</time></trkpt><trkpt lat="44.70448080062183" lon="9.612276272195542"><ele>1014.0</ele><time>2026-05-03T13:29:23Z</time></trkpt><trkpt lat="44.70438898548746" lon="9.612216486255916"><ele>1014.0</ele><time>2026-05-03T13:29:24Z</time></trkpt><trkpt lat="44.70432819060987" lon="9.612179435707418"><ele>1014.0</ele><time>2026-05-03T13:29:25Z</time></trkpt><trkpt lat="44.70425750014425" lon="9.612123562315869"><ele>1014.0</ele><time>2026-05-03T13:29:26Z</time></trkpt><trkpt lat="44.70418026377876" lon="9.612048419350351"><ele>1012.6</ele><time>2026-05-03T13:29:27Z</time></trkpt><trkpt lat="44.70408716325988" lon="9.612004417642913"><ele>1011.2</ele><time>2026-05-03T13:29:28Z</time></trkpt><trkpt lat="44.703988362287724" lon="9.611981238740706"><ele>1009.8000000000001</ele><time>2026-05-03T13:29:29Z</time></trkpt><trkpt lat="44.70391256006269" lon="9.611981574030134"><ele>1008.4000000000001</ele><time>2026-05-03T13:29:30Z</time></trkpt><trkpt lat="44.70383269733133" lon="9.611980243879545"><ele>1007.0</ele><time>2026-05-03T13:29:31Z</time></trkpt><trkpt lat="44.7037500852106" lon="9.611912676766654"><ele>1006.4000000000001</ele><time>2026-05-03T13:29:33Z</time></trkpt><trkpt lat="44.703696278847524" lon="9.61180940939956"><ele>1005.8000000000001</ele><time>2026-05-03T13:29:34Z</time></trkpt><trkpt lat="44.70363062017101" lon="9.611701198330891"><ele>1005.2</ele><time>2026-05-03T13:29:35Z</time></trkpt><trkpt lat="44.703576336522836" lon="9.611582161568634"><ele>1004.6</ele><time>2026-05-03T13:29:36Z</time></trkpt><trkpt lat="44.70355260881261" lon="9.611470203974939"><ele>1004.0</ele><time>2026-05-03T13:29:37Z</time></trkpt><trkpt lat="44.70346373581644" lon="9.611394651392052"><ele>1004.0000000000001</ele><time>2026-05-03T13:29:39Z</time></trkpt><trkpt lat="44.70337452445145" lon="9.61132272098434"><ele>1004.0</ele><time>2026-05-03T13:29:40Z</time></trkpt><trkpt lat="44.703297749305506" lon="9.6112463013076"><ele>1004.0</ele><time>2026-05-03T13:29:41Z</time></trkpt><trkpt lat="44.70323610389065" lon="9.61117865600184"><ele>1004.0</ele><time>2026-05-03T13:29:42Z</time></trkpt><trkpt lat="44.7031718924132" lon="9.611116021059884"><ele>1004.0000000000001</ele><time>2026-05-03T13:29:43Z</time></trkpt><trkpt lat="44.703105929442245" lon="9.61105252575018"><ele>1004.0</ele><time>2026-05-03T13:29:44Z</time></trkpt><trkpt lat="44.70305220620188" lon="9.610999146687181"><ele>1003.0</ele><time>2026-05-03T13:29:45Z</time></trkpt><trkpt lat="44.70297943951879" lon="9.610924887750443"><ele>1002.0000000000001</ele><time>2026-05-03T13:29:46Z</time></trkpt><trkpt lat="44.702892668185775" lon="9.61081522809909"><ele>1001.0000000000001</ele><time>2026-05-03T13:29:47Z</time></trkpt><trkpt lat="44.70281508541743" lon="9.610725580296315"><ele>1000.0</ele><time>2026-05-03T13:29:48Z</time></trkpt><trkpt lat="44.70274124667161" lon="9.610659155914501"><ele>999.0</ele><time>2026-05-03T13:29:49Z</time></trkpt><trkpt lat="44.70266391444243" lon="9.61057255924134"><ele>998.8000000000001</ele><time>2026-05-03T13:29:50Z</time></trkpt><trkpt lat="44.7025639308317" lon="9.610479489209823"><ele>998.6000000000001</ele><time>2026-05-03T13:29:51Z</time></trkpt><trkpt lat="44.702482377113974" lon="9.610401627605048"><ele>998.4</ele><time>2026-05-03T13:29:52Z</time></trkpt><trkpt lat="44.702406130598334" lon="9.610331623715819"><ele>998.2</ele><time>2026-05-03T13:29:53Z</time></trkpt><trkpt lat="44.70232825832723" lon="9.610239991497828"><ele>998.0</ele><time>2026-05-03T13:29:54Z</time></trkpt><trkpt lat="44.702260509021244" lon="9.610166541079936"><ele>997.3333333333334</ele><time>2026-05-03T13:29:55Z</time></trkpt><trkpt lat="44.70220121529574" lon="9.610085387899268"><ele>996.6666666666667</ele><time>2026-05-03T13:29:56Z</time></trkpt><trkpt lat="44.70214355349251" lon="9.610016306832218"><ele>996.0</ele><time>2026-05-03T13:29:57Z</time></trkpt><trkpt lat="44.702056828522956" lon="9.609939958940807"><ele>995.3333333333333</ele><time>2026-05-03T13:29:58Z</time></trkpt><trkpt lat="44.702007081765146" lon="9.609843252499443"><ele>994.6666666666666</ele><time>2026-05-03T13:29:59Z</time></trkpt><trkpt lat="44.701964597684814" lon="9.609717561554989"><ele>994.0</ele><time>2026-05-03T13:30:00Z</time></trkpt><trkpt lat="44.70192224235249" lon="9.609594017904417"><ele>993.4000000000001</ele><time>2026-05-03T13:30:01Z</time></trkpt><trkpt lat="44.701871385972176" lon="9.60946615532388"><ele>992.8000000000001</ele><time>2026-05-03T13:30:03Z</time></trkpt><trkpt lat="44.70172390796864" lon="9.609355964841136"><ele>992.1999999999999</ele><time>2026-05-03T13:30:05Z</time></trkpt><trkpt lat="44.701631493145996" lon="9.609294703035197"><ele>991.5999999999999</ele><time>2026-05-03T13:30:06Z</time></trkpt><trkpt lat="44.70156684326304" lon="9.60927848914088"><ele>991.0</ele><time>2026-05-03T13:30:07Z</time></trkpt><trkpt lat="44.70143986036703" lon="9.60913641887902"><ele>990.9999999999999</ele><time>2026-05-03T13:30:09Z</time></trkpt><trkpt lat="44.70138558669441" lon="9.609025762691727"><ele>991.0</ele><time>2026-05-03T13:30:10Z</time></trkpt><trkpt lat="44.70133543808219" lon="9.608950197288678"><ele>991.0</ele><time>2026-05-03T13:30:11Z</time></trkpt><trkpt lat="44.70127020835735" lon="9.608866761597767"><ele>991.0</ele><time>2026-05-03T13:30:12Z</time></trkpt><trkpt lat="44.7012218194429" lon="9.608780618701559"><ele>990.9999999999999</ele><time>2026-05-03T13:30:13Z</time></trkpt><trkpt lat="44.70117443570576" lon="9.608708029916393"><ele>991.0</ele><time>2026-05-03T13:30:14Z</time></trkpt><trkpt lat="44.701118526041405" lon="9.608633152342207"><ele>990.5999999999999</ele><time>2026-05-03T13:30:16Z</time></trkpt><trkpt lat="44.70098876206061" lon="9.608556316682375"><ele>990.1999999999999</ele><time>2026-05-03T13:30:18Z</time></trkpt><trkpt lat="44.70090230491085" lon="9.608499158677475"><ele>989.8000000000001</ele><time>2026-05-03T13:30:19Z</time></trkpt><trkpt lat="44.700812694471466" lon="9.60851011431124"><ele>989.4000000000001</ele><time>2026-05-03T13:30:20Z</time></trkpt><trkpt lat="44.70070341183644" lon="9.608527187018929"><ele>989.0</ele><time>2026-05-03T13:30:21Z</time></trkpt><trkpt lat="44.70060833642642" lon="9.608484181143723"><ele>989.0</ele><time>2026-05-03T13:30:22Z</time></trkpt><trkpt lat="44.70051825577238" lon="9.608455628548569"><ele>989.0000000000001</ele><time>2026-05-03T13:30:23Z</time></trkpt><trkpt lat="44.700441971859554" lon="9.608430708039645"><ele>989.0000000000001</ele><time>2026-05-03T13:30:24Z</time></trkpt><trkpt lat="44.70037342723735" lon="9.608399014476587"><ele>989.0</ele><time>2026-05-03T13:30:25Z</time></trkpt><trkpt lat="44.70027236268609" lon="9.608269313935937"><ele>989.0</ele><time>2026-05-03T13:30:27Z</time></trkpt><trkpt lat="44.70021057029449" lon="9.608133004984172"><ele>988.4000000000001</ele><time>2026-05-03T13:30:28Z</time></trkpt><trkpt lat="44.700152727330156" lon="9.607998515477192"><ele>987.8000000000001</ele><time>2026-05-03T13:30:29Z</time></trkpt><trkpt lat="44.70010458891727" lon="9.607903917635833"><ele>987.1999999999999</ele><time>2026-05-03T13:30:30Z</time></trkpt><trkpt lat="44.70004848363986" lon="9.607813245962936"><ele>986.5999999999999</ele><time>2026-05-03T13:30:31Z</time></trkpt><trkpt lat="44.69998927831783" lon="9.607719580189132"><ele>986.0</ele><time>2026-05-03T13:30:32Z</time></trkpt><trkpt lat="44.699923056303334" lon="9.607631595517649"><ele>985.3333333333334</ele><time>2026-05-03T13:30:33Z</time></trkpt><trkpt lat="44.69984440527884" lon="9.60751344787539"><ele>984.6666666666667</ele><time>2026-05-03T13:30:34Z</time></trkpt><trkpt lat="44.69979847617458" lon="9.60741986553477"><ele>984.0</ele><time>2026-05-03T13:30:35Z</time></trkpt><trkpt lat="44.69977070989731" lon="9.607339287712406"><ele>983.3333333333333</ele><time>2026-05-03T13:30:36Z</time></trkpt><trkpt lat="44.699742778127536" lon="9.607220133973867"><ele>982.6666666666666</ele><time>2026-05-03T13:30:37Z</time></trkpt><trkpt lat="44.69971085395126" lon="9.60711038382935"><ele>982.0</ele><time>2026-05-03T13:30:38Z</time></trkpt><trkpt lat="44.69965192199591" lon="9.606999970269962"><ele>980.4000000000001</ele><time>2026-05-03T13:30:39Z</time></trkpt><trkpt lat="44.69959955408719" lon="9.60687452335953"><ele>978.8000000000001</ele><time>2026-05-03T13:30:40Z</time></trkpt><trkpt lat="44.699594593375394" lon="9.606745066737767"><ele>977.2</ele><time>2026-05-03T13:30:42Z</time></trkpt><trkpt lat="44.699581542666984" lon="9.60660880855402"><ele>975.6</ele><time>2026-05-03T13:30:44Z</time></trkpt><trkpt lat="44.69956580230902" lon="9.606468472702586"><ele>974.0</ele><time>2026-05-03T13:30:45Z</time></trkpt><trkpt lat="44.69952974685272" lon="9.60631191809119"><ele>974.0000000000001</ele><time>2026-05-03T13:30:46Z</time></trkpt><trkpt lat="44.69949126792959" lon="9.606192773696664"><ele>974.0</ele><time>2026-05-03T13:30:47Z</time></trkpt><trkpt lat="44.69946784647137" lon="9.606085612831093"><ele>974.0</ele><time>2026-05-03T13:30:48Z</time></trkpt><trkpt lat="44.69945911762073" lon="9.605946491754581"><ele>974.0</ele><time>2026-05-03T13:30:49Z</time></trkpt><trkpt lat="44.699438424070166" lon="9.6058359092904"><ele>974.0000000000001</ele><time>2026-05-03T13:30:50Z</time></trkpt><trkpt lat="44.69938609614162" lon="9.605743940607352"><ele>974.0</ele><time>2026-05-03T13:30:51Z</time></trkpt><trkpt lat="44.69930038368842" lon="9.605633194387282"><ele>972.8333333333334</ele><time>2026-05-03T13:30:52Z</time></trkpt><trkpt lat="44.699229888772365" lon="9.605560308137138"><ele>971.6666666666667</ele><time>2026-05-03T13:30:53Z</time></trkpt><trkpt lat="44.69920165187486" lon="9.60547549650967"><ele>970.5</ele><time>2026-05-03T13:30:54Z</time></trkpt><trkpt lat="44.69921974135665" lon="9.605351570297477"><ele>969.3333333333333</ele><time>2026-05-03T13:30:55Z</time></trkpt><trkpt lat="44.6992324138383" lon="9.605237679530683"><ele>968.1666666666666</ele><time>2026-05-03T13:30:56Z</time></trkpt><trkpt lat="44.699187992924834" lon="9.60512782494981"><ele>967.0</ele><time>2026-05-03T13:30:57Z</time></trkpt><trkpt lat="44.69913179415916" lon="9.605032809232155"><ele>966.2</ele><time>2026-05-03T13:30:58Z</time></trkpt><trkpt lat="44.69906672041166" lon="9.60493339648307"><ele>965.4000000000001</ele><time>2026-05-03T13:30:59Z</time></trkpt><trkpt lat="44.69897421621365" lon="9.604857815073924"><ele>964.5999999999999</ele><time>2026-05-03T13:31:01Z</time></trkpt><trkpt lat="44.698921841710494" lon="9.604937521012836"><ele>963.8</ele><time>2026-05-03T13:31:02Z</time></trkpt><trkpt lat="44.698838989089175" lon="9.605011616418242"><ele>963.0</ele><time>2026-05-03T13:31:03Z</time></trkpt><trkpt lat="44.698756886571275" lon="9.605017875134735"><ele>963.0</ele><time>2026-05-03T13:31:04Z</time></trkpt><trkpt lat="44.69868395987947" lon="9.604966073421249"><ele>963.0</ele><time>2026-05-03T13:31:05Z</time></trkpt><trkpt lat="44.69860765195052" lon="9.604898910932484"><ele>963.0</ele><time>2026-05-03T13:31:06Z</time></trkpt><trkpt lat="44.69851693821609" lon="9.604822854098645"><ele>963.0</ele><time>2026-05-03T13:31:07Z</time></trkpt><trkpt lat="44.69844921197135" lon="9.604797041651862"><ele>963.0</ele><time>2026-05-03T13:31:08Z</time></trkpt><trkpt lat="44.69838495818525" lon="9.60475714326323"><ele>963.0</ele><time>2026-05-03T13:31:09Z</time></trkpt><trkpt lat="44.698318846080184" lon="9.604729679138336"><ele>960.8</ele><time>2026-05-03T13:31:10Z</time></trkpt><trkpt lat="44.69821033016636" lon="9.604733920029847"><ele>958.5999999999999</ele><time>2026-05-03T13:31:12Z</time></trkpt><trkpt lat="44.698124025527605" lon="9.604735774394921"><ele>956.4000000000001</ele><time>2026-05-03T13:31:14Z</time></trkpt><trkpt lat="44.6980111194814" lon="9.60470355875839"><ele>954.2</ele><time>2026-05-03T13:31:16Z</time></trkpt><trkpt lat="44.69791461495217" lon="9.60470031213407"><ele>952.0</ele><time>2026-05-03T13:31:18Z</time></trkpt><trkpt lat="44.69781660939749" lon="9.604749233905483"><ele>950.4999999999999</ele><time>2026-05-03T13:31:20Z</time></trkpt><trkpt lat="44.697716388621345" lon="9.604828678065765"><ele>949.0</ele><time>2026-05-03T13:31:22Z</time></trkpt><trkpt lat="44.697640977271895" lon="9.604894739504244"><ele>947.5</ele><time>2026-05-03T13:31:24Z</time></trkpt><trkpt lat="44.69757658247305" lon="9.604942194505833"><ele>946.0</ele><time>2026-05-03T13:31:26Z</time></trkpt><trkpt lat="44.69750038248903" lon="9.604975284980835"><ele>944.4999999999999</ele><time>2026-05-03T13:31:29Z</time></trkpt><trkpt lat="44.697432816571336" lon="9.604889987771205"><ele>943.0</ele><time>2026-05-03T13:31:31Z</time></trkpt><trkpt lat="44.697397870459874" lon="9.604805758683094"><ele>942.9999999999999</ele><time>2026-05-03T13:31:32Z</time></trkpt><trkpt lat="44.69735618530114" lon="9.604713797813353"><ele>943.0</ele><time>2026-05-03T13:31:33Z</time></trkpt><trkpt lat="44.69730083328673" lon="9.604633405948261"><ele>943.0</ele><time>2026-05-03T13:31:34Z</time></trkpt><trkpt lat="44.697226918318904" lon="9.604564170107775"><ele>943.0</ele><time>2026-05-03T13:31:35Z</time></trkpt><trkpt lat="44.697152997618666" lon="9.604507885397341"><ele>942.9999999999999</ele><time>2026-05-03T13:31:36Z</time></trkpt><trkpt lat="44.69708430337679" lon="9.604447358996204"><ele>943.0</ele><time>2026-05-03T13:31:37Z</time></trkpt><trkpt lat="44.697017972482506" lon="9.604371124597272"><ele>944.8333333333333</ele><time>2026-05-03T13:31:38Z</time></trkpt><trkpt lat="44.69696383903956" lon="9.604286577268928"><ele>946.6666666666666</ele><time>2026-05-03T13:31:39Z</time></trkpt><trkpt lat="44.6969316712855" lon="9.604171616609218"><ele>948.5</ele><time>2026-05-03T13:31:40Z</time></trkpt><trkpt lat="44.6969224921058" lon="9.604044706577845"><ele>950.3333333333333</ele><time>2026-05-03T13:31:41Z</time></trkpt><trkpt lat="44.696935270668185" lon="9.603920536912948"><ele>952.1666666666666</ele><time>2026-05-03T13:31:42Z</time></trkpt><trkpt lat="44.69696552093619" lon="9.603803155358024"><ele>954.0</ele><time>2026-05-03T13:31:43Z</time></trkpt><trkpt lat="44.696998063954794" lon="9.603681904673907"><ele>954.0</ele><time>2026-05-03T13:31:44Z</time></trkpt><trkpt lat="44.6970226421005" lon="9.603564577035067"><ele>954.0000000000001</ele><time>2026-05-03T13:31:45Z</time></trkpt><trkpt lat="44.697047216527004" lon="9.603435886204538"><ele>954.0000000000001</ele><time>2026-05-03T13:31:46Z</time></trkpt><trkpt lat="44.69707850547174" lon="9.603285409921739"><ele>954.0</ele><time>2026-05-03T13:31:47Z</time></trkpt><trkpt lat="44.69710776585633" lon="9.6031382389065"><ele>954.0</ele><time>2026-05-03T13:31:48Z</time></trkpt><trkpt lat="44.6971246800159" lon="9.60298574409676"><ele>954.0</ele><time>2026-05-03T13:31:49Z</time></trkpt><trkpt lat="44.69712719417439" lon="9.602842343572107"><ele>954.0000000000001</ele><time>2026-05-03T13:31:50Z</time></trkpt><trkpt lat="44.697127882695234" lon="9.602701168784659"><ele>954.0000000000001</ele><time>2026-05-03T13:31:51Z</time></trkpt><trkpt lat="44.69711760495856" lon="9.602562162661632"><ele>954.0</ele><time>2026-05-03T13:31:52Z</time></trkpt><trkpt lat="44.69709903069669" lon="9.602427881451554"><ele>954.0</ele><time>2026-05-03T13:31:53Z</time></trkpt><trkpt lat="44.69706313091487" lon="9.602308699579686"><ele>952.0</ele><time>2026-05-03T13:31:54Z</time></trkpt><trkpt lat="44.697025726208466" lon="9.602214555450947"><ele>950.0</ele><time>2026-05-03T13:31:55Z</time></trkpt><trkpt lat="44.696991667371464" lon="9.602137370567313"><ele>948.0</ele><time>2026-05-03T13:31:56Z</time></trkpt><trkpt lat="44.696966923572525" lon="9.602023142977465"><ele>946.0</ele><time>2026-05-03T13:31:58Z</time></trkpt><trkpt lat="44.696907728038745" lon="9.601919350835628"><ele>944.0</ele><time>2026-05-03T13:32:08Z</time></trkpt><trkpt lat="44.69683439105693" lon="9.601770492637945"><ele>942.0</ele><time>2026-05-03T13:32:10Z</time></trkpt><trkpt lat="44.69678969252714" lon="9.601659759975938"><ele>942.0</ele><time>2026-05-03T13:32:11Z</time></trkpt><trkpt lat="44.69673508699922" lon="9.601544379756817"><ele>942.0</ele><time>2026-05-03T13:32:12Z</time></trkpt><trkpt lat="44.696681882895" lon="9.601414969664155"><ele>942.0</ele><time>2026-05-03T13:32:13Z</time></trkpt><trkpt lat="44.69663151460246" lon="9.601282748774983"><ele>942.0</ele><time>2026-05-03T13:32:14Z</time></trkpt><trkpt lat="44.69660128437378" lon="9.601176806724924"><ele>942.0</ele><time>2026-05-03T13:32:15Z</time></trkpt><trkpt lat="44.69656432357351" lon="9.60108987632204"><ele>943.25</ele><time>2026-05-03T13:32:16Z</time></trkpt><trkpt lat="44.69652169219592" lon="9.6010112446317"><ele>944.5</ele><time>2026-05-03T13:32:17Z</time></trkpt><trkpt lat="44.69648798227862" lon="9.600933833140276"><ele>945.75</ele><time>2026-05-03T13:32:18Z</time></trkpt><trkpt lat="44.696443913351054" lon="9.600832633191976"><ele>947.0</ele><time>2026-05-03T13:32:19Z</time></trkpt><trkpt lat="44.69626143845236" lon="9.60043736776889"><ele>946.75</ele><time>2026-05-03T13:32:20Z</time></trkpt><trkpt lat="44.69619841686739" lon="9.600295438842561"><ele>946.5</ele><time>2026-05-03T13:32:21Z</time></trkpt><trkpt lat="44.696137794832296" lon="9.600153183677527"><ele>946.25</ele><time>2026-05-03T13:32:22Z</time></trkpt><trkpt lat="44.696078210276966" lon="9.600015099816694"><ele>946.0</ele><time>2026-05-03T13:32:23Z</time></trkpt><trkpt lat="44.69602367472617" lon="9.599870412604655"><ele>946.0</ele><time>2026-05-03T13:32:24Z</time></trkpt><trkpt lat="44.69597715036318" lon="9.599722923736739"><ele>946.0</ele><time>2026-05-03T13:32:25Z</time></trkpt><trkpt lat="44.69593180304729" lon="9.599576185159641"><ele>946.0</ele><time>2026-05-03T13:32:26Z</time></trkpt><trkpt lat="44.69589368389256" lon="9.599421090343178"><ele>946.0</ele><time>2026-05-03T13:32:27Z</time></trkpt><trkpt lat="44.69584897210136" lon="9.599261852435081"><ele>946.75</ele><time>2026-05-03T13:32:28Z</time></trkpt><trkpt lat="44.695805782734595" lon="9.599093119248966"><ele>947.5</ele><time>2026-05-03T13:32:29Z</time></trkpt><trkpt lat="44.69575540954135" lon="9.598914589807139"><ele>948.25</ele><time>2026-05-03T13:32:30Z</time></trkpt><trkpt lat="44.69570305834296" lon="9.598732240336762"><ele>949.0</ele><time>2026-05-03T13:32:31Z</time></trkpt><trkpt lat="44.69564994509775" lon="9.598549368266962"><ele>951.25</ele><time>2026-05-03T13:32:32Z</time></trkpt><trkpt lat="44.69560445325081" lon="9.598387357658373"><ele>953.5</ele><time>2026-05-03T13:32:33Z</time></trkpt><trkpt lat="44.695558386444546" lon="9.598220208765124"><ele>955.75</ele><time>2026-05-03T13:32:34Z</time></trkpt><trkpt lat="44.69551042045936" lon="9.598053308894702"><ele>958.0</ele><time>2026-05-03T13:32:35Z</time></trkpt><trkpt lat="44.69546336780934" lon="9.597890034159327"><ele>962.5</ele><time>2026-05-03T13:32:36Z</time></trkpt><trkpt lat="44.69542056365346" lon="9.597722738771818"><ele>967.0</ele><time>2026-05-03T13:32:37Z</time></trkpt><trkpt lat="44.69538073218664" lon="9.597571421313305"><ele>971.5</ele><time>2026-05-03T13:32:38Z</time></trkpt><trkpt lat="44.695340536295625" lon="9.597424379676266"><ele>976.0</ele><time>2026-05-03T13:32:39Z</time></trkpt><trkpt lat="44.695307738460286" lon="9.597284313272066"><ele>976.0</ele><time>2026-05-03T13:32:40Z</time></trkpt><trkpt lat="44.695275034328965" lon="9.597141947820615"><ele>976.0</ele><time>2026-05-03T13:32:41Z</time></trkpt><trkpt lat="44.69526052951216" lon="9.59697767681273"><ele>976.0</ele><time>2026-05-03T13:32:42Z</time></trkpt><trkpt lat="44.695236626247215" lon="9.596815179435586"><ele>976.0</ele><time>2026-05-03T13:32:43Z</time></trkpt><trkpt lat="44.69525971016229" lon="9.596633372978793"><ele>977.0</ele><time>2026-05-03T13:32:44Z</time></trkpt><trkpt lat="44.695291786607974" lon="9.596473110866805"><ele>977.9999999999999</ele><time>2026-05-03T13:32:45Z</time></trkpt><trkpt lat="44.695326267083566" lon="9.596336812936483"><ele>978.9999999999999</ele><time>2026-05-03T13:32:46Z</time></trkpt><trkpt lat="44.69536503101314" lon="9.59619514687497"><ele>980.0</ele><time>2026-05-03T13:32:47Z</time></trkpt><trkpt lat="44.695411841140036" lon="9.596078276684622"><ele>981.0</ele><time>2026-05-03T13:32:48Z</time></trkpt><trkpt lat="44.69545349248204" lon="9.595969992435636"><ele>975.0</ele><time>2026-05-03T13:32:49Z</time></trkpt><trkpt lat="44.695517117787546" lon="9.595883866955335"><ele>968.9999999999999</ele><time>2026-05-03T13:32:50Z</time></trkpt><trkpt lat="44.6955676529419" lon="9.595799420030867"><ele>962.9999999999999</ele><time>2026-05-03T13:32:51Z</time></trkpt><trkpt lat="44.69561953734356" lon="9.595694223583992"><ele>957.0</ele><time>2026-05-03T13:32:52Z</time></trkpt><trkpt lat="44.69569491097447" lon="9.595589734028731"><ele>951.0</ele><time>2026-05-03T13:32:53Z</time></trkpt><trkpt lat="44.69577057756559" lon="9.595486462287031"><ele>951.0</ele><time>2026-05-03T13:32:54Z</time></trkpt><trkpt lat="44.695828328196136" lon="9.595388762779136"><ele>951.0</ele><time>2026-05-03T13:32:55Z</time></trkpt><trkpt lat="44.69587223682705" lon="9.595282690943636"><ele>951.0</ele><time>2026-05-03T13:32:56Z</time></trkpt><trkpt lat="44.695910156260425" lon="9.595158287160352"><ele>951.0</ele><time>2026-05-03T13:32:57Z</time></trkpt><trkpt lat="44.69594285426202" lon="9.595044026531532"><ele>951.0</ele><time>2026-05-03T13:32:58Z</time></trkpt><trkpt lat="44.695974655162345" lon="9.59495579966721"><ele>951.0</ele><time>2026-05-03T13:32:59Z</time></trkpt><trkpt lat="44.696006231084084" lon="9.594859907133294"><ele>948.3333333333334</ele><time>2026-05-03T13:33:00Z</time></trkpt><trkpt lat="44.69604442940536" lon="9.594779796830117"><ele>945.6666666666667</ele><time>2026-05-03T13:33:01Z</time></trkpt><trkpt lat="44.69612254604925" lon="9.594699312936019"><ele>943.0</ele><time>2026-05-03T13:33:03Z</time></trkpt><trkpt lat="44.696182925690174" lon="9.594619274678463"><ele>940.3333333333334</ele><time>2026-05-03T13:33:06Z</time></trkpt><trkpt lat="44.69620397276073" lon="9.594534275451748"><ele>937.6666666666667</ele><time>2026-05-03T13:33:08Z</time></trkpt><trkpt lat="44.69626236895658" lon="9.59443974992328"><ele>935.0</ele><time>2026-05-03T13:33:11Z</time></trkpt><trkpt lat="44.6961573694577" lon="9.594230128760957"><ele>933.3333333333334</ele><time>2026-05-03T13:33:13Z</time></trkpt><trkpt lat="44.69611608088088" lon="9.594129939420537"><ele>931.6666666666667</ele><time>2026-05-03T13:33:16Z</time></trkpt><trkpt lat="44.69605577606844" lon="9.594072198878516"><ele>930.0</ele><time>2026-05-03T13:33:19Z</time></trkpt><trkpt lat="44.69599291667801" lon="9.59399904543876"><ele>928.3333333333333</ele><time>2026-05-03T13:33:22Z</time></trkpt><trkpt lat="44.695975029369805" lon="9.593896517512219"><ele>926.6666666666666</ele><time>2026-05-03T13:33:24Z</time></trkpt><trkpt lat="44.69601010574064" lon="9.593725902688904"><ele>925.0</ele><time>2026-05-03T13:33:26Z</time></trkpt><trkpt lat="44.69604239899659" lon="9.59360928242464"><ele>923.9999999999999</ele><time>2026-05-03T13:33:27Z</time></trkpt><trkpt lat="44.6960732851591" lon="9.593522347421247"><ele>923.0</ele><time>2026-05-03T13:33:28Z</time></trkpt><trkpt lat="44.6960912321499" lon="9.59340648839725"><ele>922.0</ele><time>2026-05-03T13:33:29Z</time></trkpt><trkpt lat="44.69610442195086" lon="9.593291315010045"><ele>921.0</ele><time>2026-05-03T13:33:30Z</time></trkpt><trkpt lat="44.696112561656314" lon="9.593174197023902"><ele>919.9999999999999</ele><time>2026-05-03T13:33:31Z</time></trkpt><trkpt lat="44.696125448090655" lon="9.593067778637025"><ele>919.0</ele><time>2026-05-03T13:33:32Z</time></trkpt><trkpt lat="44.69616203809085" lon="9.592949338447317"><ele>918.2</ele><time>2026-05-03T13:33:33Z</time></trkpt><trkpt lat="44.696197589023775" lon="9.592812705913856"><ele>917.4000000000001</ele><time>2026-05-03T13:33:34Z</time></trkpt><trkpt lat="44.69620128358567" lon="9.592712384664214"><ele>916.6</ele><time>2026-05-03T13:33:35Z</time></trkpt><trkpt lat="44.69616923510324" lon="9.59255057796449"><ele>915.8</ele><time>2026-05-03T13:33:37Z</time></trkpt><trkpt lat="44.69613291582645" lon="9.59245485218546"><ele>915.0</ele><time>2026-05-03T13:33:38Z</time></trkpt><trkpt lat="44.69607051802515" lon="9.592354207846743"><ele>915.0</ele><time>2026-05-03T13:33:39Z</time></trkpt><trkpt lat="44.6959960844781" lon="9.592242669352194"><ele>915.0</ele><time>2026-05-03T13:33:40Z</time></trkpt><trkpt lat="44.69591116182647" lon="9.592155095827845"><ele>915.0</ele><time>2026-05-03T13:33:41Z</time></trkpt><trkpt lat="44.695852407558405" lon="9.592064633829382"><ele>915.0</ele><time>2026-05-03T13:33:42Z</time></trkpt><trkpt lat="44.69579372157086" lon="9.591978535830705"><ele>915.0</ele><time>2026-05-03T13:33:43Z</time></trkpt><trkpt lat="44.695737444410824" lon="9.591927740242765"><ele>914.2</ele><time>2026-05-03T13:33:44Z</time></trkpt><trkpt lat="44.69566968715969" lon="9.591895366429448"><ele>913.4</ele><time>2026-05-03T13:33:45Z</time></trkpt><trkpt lat="44.69557020943781" lon="9.5919005112727"><ele>912.5999999999999</ele><time>2026-05-03T13:33:46Z</time></trkpt><trkpt lat="44.69547928398599" lon="9.591942747713023"><ele>911.8</ele><time>2026-05-03T13:33:47Z</time></trkpt><trkpt lat="44.69539985795535" lon="9.591906214676294"><ele>911.0</ele><time>2026-05-03T13:33:48Z</time></trkpt><trkpt lat="44.69529698491112" lon="9.591863041149056"><ele>910.4</ele><time>2026-05-03T13:33:49Z</time></trkpt><trkpt lat="44.69519356319456" lon="9.591832824017898"><ele>909.8</ele><time>2026-05-03T13:33:50Z</time></trkpt><trkpt lat="44.69508653750497" lon="9.591820201877766"><ele>909.1999999999999</ele><time>2026-05-03T13:33:51Z</time></trkpt><trkpt lat="44.69500347848614" lon="9.591803844597397"><ele>908.5999999999999</ele><time>2026-05-03T13:33:52Z</time></trkpt><trkpt lat="44.694934290028954" lon="9.591744146326644"><ele>908.0</ele><time>2026-05-03T13:33:53Z</time></trkpt><trkpt lat="44.69485649507945" lon="9.591662095043265"><ele>908.0000000000001</ele><time>2026-05-03T13:33:54Z</time></trkpt><trkpt lat="44.69478568215155" lon="9.591580005775889"><ele>908.0</ele><time>2026-05-03T13:33:55Z</time></trkpt><trkpt lat="44.69473392377568" lon="9.591488375933611"><ele>908.0</ele><time>2026-05-03T13:33:57Z</time></trkpt><trkpt lat="44.69468964537589" lon="9.591406417639755"><ele>908.0</ele><time>2026-05-03T13:33:58Z</time></trkpt><trkpt lat="44.69465234813884" lon="9.591307912053006"><ele>908.0000000000001</ele><time>2026-05-03T13:33:59Z</time></trkpt><trkpt lat="44.69462667046275" lon="9.591213020800074"><ele>908.0</ele><time>2026-05-03T13:34:00Z</time></trkpt><trkpt lat="44.69460595407841" lon="9.59112523409666"><ele>907.0000000000001</ele><time>2026-05-03T13:34:01Z</time></trkpt><trkpt lat="44.69457017888662" lon="9.591019798916399"><ele>906.0</ele><time>2026-05-03T13:34:02Z</time></trkpt><trkpt lat="44.694513906379406" lon="9.59092886832671"><ele>905.0</ele><time>2026-05-03T13:34:03Z</time></trkpt><trkpt lat="44.69445590033127" lon="9.590872046465943"><ele>904.0</ele><time>2026-05-03T13:34:04Z</time></trkpt><trkpt lat="44.69438266260133" lon="9.590812518358566"><ele>903.0000000000001</ele><time>2026-05-03T13:34:05Z</time></trkpt><trkpt lat="44.69430318335052" lon="9.590741416739155"><ele>902.0</ele><time>2026-05-03T13:34:06Z</time></trkpt><trkpt lat="44.69422152022788" lon="9.590673695763755"><ele>899.0</ele><time>2026-05-03T13:34:07Z</time></trkpt><trkpt lat="44.694109692074974" lon="9.590632702198686"><ele>896.0</ele><time>2026-05-03T13:34:08Z</time></trkpt><trkpt lat="44.693997398470195" lon="9.590572847873647"><ele>893.0</ele><time>2026-05-03T13:34:09Z</time></trkpt><trkpt lat="44.69388914408949" lon="9.590500410756528"><ele>890.0</ele><time>2026-05-03T13:34:10Z</time></trkpt><trkpt lat="44.69379796969432" lon="9.59042220168094"><ele>888.8333333333334</ele><time>2026-05-03T13:34:11Z</time></trkpt><trkpt lat="44.69372966251576" lon="9.590338739835165"><ele>887.6666666666667</ele><time>2026-05-03T13:34:12Z</time></trkpt><trkpt lat="44.69365585185912" lon="9.590247235462606"><ele>886.5</ele><time>2026-05-03T13:34:13Z</time></trkpt><trkpt lat="44.6935862386738" lon="9.590171784755707"><ele>885.3333333333333</ele><time>2026-05-03T13:34:14Z</time></trkpt><trkpt lat="44.69351220174137" lon="9.590113852307567"><ele>884.1666666666666</ele><time>2026-05-03T13:34:15Z</time></trkpt><trkpt lat="44.69343929645605" lon="9.590077783102732"><ele>883.0</ele><time>2026-05-03T13:34:16Z</time></trkpt><trkpt lat="44.69334074358021" lon="9.59002867034135"><ele>881.3333333333333</ele><time>2026-05-03T13:34:17Z</time></trkpt><trkpt lat="44.693268625266754" lon="9.58998708507678"><ele>879.6666666666666</ele><time>2026-05-03T13:34:18Z</time></trkpt><trkpt lat="44.6931817794672" lon="9.589929991571998"><ele>878.0</ele><time>2026-05-03T13:34:19Z</time></trkpt><trkpt lat="44.69309763993164" lon="9.589890940910852"><ele>876.3333333333333</ele><time>2026-05-03T13:34:20Z</time></trkpt><trkpt lat="44.693024027066954" lon="9.589902633401055"><ele>874.6666666666666</ele><time>2026-05-03T13:34:21Z</time></trkpt><trkpt lat="44.692920995917824" lon="9.58990061679404"><ele>873.0</ele><time>2026-05-03T13:34:22Z</time></trkpt><trkpt lat="44.692830521469205" lon="9.58988726786991"><ele>870.2</ele><time>2026-05-03T13:34:23Z</time></trkpt><trkpt lat="44.6927559862878" lon="9.589858111629455"><ele>867.4</ele><time>2026-05-03T13:34:24Z</time></trkpt><trkpt lat="44.69267737543721" lon="9.589766663195533"><ele>864.6000000000001</ele><time>2026-05-03T13:34:25Z</time></trkpt><trkpt lat="44.69256952706416" lon="9.58968491115033"><ele>861.8000000000001</ele><time>2026-05-03T13:34:26Z</time></trkpt><trkpt lat="44.69248925846369" lon="9.589639712979825"><ele>859.0</ele><time>2026-05-03T13:34:27Z</time></trkpt><trkpt lat="44.69240812774087" lon="9.589628215300053"><ele>858.9999999999999</ele><time>2026-05-03T13:34:28Z</time></trkpt><trkpt lat="44.69232877711499" lon="9.589628002090983"><ele>859.0</ele><time>2026-05-03T13:34:29Z</time></trkpt><trkpt lat="44.692259547555736" lon="9.589632064814676"><ele>859.0</ele><time>2026-05-03T13:34:30Z</time></trkpt><trkpt lat="44.692183198721615" lon="9.589661300455697"><ele>859.0</ele><time>2026-05-03T13:34:31Z</time></trkpt><trkpt lat="44.69206185916973" lon="9.589675468844698"><ele>858.9999999999999</ele><time>2026-05-03T13:34:33Z</time></trkpt><trkpt lat="44.69199261350247" lon="9.589648162586194"><ele>859.0</ele><time>2026-05-03T13:34:34Z</time></trkpt><trkpt lat="44.69191282891119" lon="9.589611200706285"><ele>857.4000000000001</ele><time>2026-05-03T13:34:35Z</time></trkpt><trkpt lat="44.691817355550405" lon="9.58959341448513"><ele>855.8000000000001</ele><time>2026-05-03T13:34:36Z</time></trkpt><trkpt lat="44.69174014680996" lon="9.589535664099268"><ele>854.2</ele><time>2026-05-03T13:34:37Z</time></trkpt><trkpt lat="44.691678558304915" lon="9.589511440305516"><ele>852.5999999999999</ele><time>2026-05-03T13:34:38Z</time></trkpt><trkpt lat="44.69152938404344" lon="9.589523801737984"><ele>851.0</ele><time>2026-05-03T13:34:40Z</time></trkpt><trkpt lat="44.69142521074414" lon="9.589529393941437"><ele>851.0</ele><time>2026-05-03T13:34:41Z</time></trkpt><trkpt lat="44.69133658444817" lon="9.58952873476065"><ele>851.0</ele><time>2026-05-03T13:34:42Z</time></trkpt><trkpt lat="44.691234926803254" lon="9.589543217834978"><ele>851.0</ele><time>2026-05-03T13:34:43Z</time></trkpt><trkpt lat="44.69114549031196" lon="9.589563482307787"><ele>851.0</ele><time>2026-05-03T13:34:44Z</time></trkpt><trkpt lat="44.691045819078646" lon="9.589574283639001"><ele>851.0</ele><time>2026-05-03T13:34:45Z</time></trkpt><trkpt lat="44.690946697857946" lon="9.589604283182812"><ele>850.0</ele><time>2026-05-03T13:34:46Z</time></trkpt><trkpt lat="44.69083600339355" lon="9.589640762968903"><ele>849.0</ele><time>2026-05-03T13:34:47Z</time></trkpt><trkpt lat="44.69070041811594" lon="9.589657640725465"><ele>848.0</ele><time>2026-05-03T13:34:48Z</time></trkpt><trkpt lat="44.690580642459004" lon="9.58965788462499"><ele>847.0</ele><time>2026-05-03T13:34:49Z</time></trkpt><trkpt lat="44.69047235849529" lon="9.589669552628475"><ele>846.9999999999999</ele><time>2026-05-03T13:34:50Z</time></trkpt><trkpt lat="44.69037801373511" lon="9.589678089054217"><ele>847.0</ele><time>2026-05-03T13:34:51Z</time></trkpt><trkpt lat="44.690302196227286" lon="9.589698123197008"><ele>847.0</ele><time>2026-05-03T13:34:52Z</time></trkpt><trkpt lat="44.6902287229481" lon="9.589707599691637"><ele>847.0</ele><time>2026-05-03T13:34:53Z</time></trkpt><trkpt lat="44.690137796878865" lon="9.589709875927452"><ele>846.9999999999999</ele><time>2026-05-03T13:34:54Z</time></trkpt><trkpt lat="44.6900567334253" lon="9.589675245947475"><ele>847.0</ele><time>2026-05-03T13:34:55Z</time></trkpt><trkpt lat="44.6899840656394" lon="9.589642259587317"><ele>844.9999999999999</ele><time>2026-05-03T13:34:56Z</time></trkpt><trkpt lat="44.68991809660933" lon="9.589604746114581"><ele>843.0</ele><time>2026-05-03T13:34:57Z</time></trkpt><trkpt lat="44.689853156620586" lon="9.589569430165199"><ele>841.0</ele><time>2026-05-03T13:34:58Z</time></trkpt><trkpt lat="44.689762227513064" lon="9.58951948790363"><ele>839.0</ele><time>2026-05-03T13:35:00Z</time></trkpt><trkpt lat="44.68964720876456" lon="9.58947538518915"><ele>836.9999999999999</ele><time>2026-05-03T13:35:02Z</time></trkpt><trkpt lat="44.689587483374694" lon="9.589422672726045"><ele>835.0</ele><time>2026-05-03T13:35:03Z</time></trkpt><trkpt lat="44.689536277374266" lon="9.58935506258882"><ele>834.1666666666666</ele><time>2026-05-03T13:35:04Z</time></trkpt><trkpt lat="44.68947860211679" lon="9.589299402083721"><ele>833.3333333333333</ele><time>2026-05-03T13:35:05Z</time></trkpt><trkpt lat="44.68941504359612" lon="9.5892830950992"><ele>832.5</ele><time>2026-05-03T13:35:06Z</time></trkpt><trkpt lat="44.68934619938565" lon="9.589271319263133"><ele>831.6666666666667</ele><time>2026-05-03T13:35:07Z</time></trkpt><trkpt lat="44.68928067284171" lon="9.589243579116284"><ele>830.8333333333334</ele><time>2026-05-03T13:35:08Z</time></trkpt><trkpt lat="44.689170578452256" lon="9.589203206535343"><ele>830.0</ele><time>2026-05-03T13:35:10Z</time></trkpt><trkpt lat="44.68911933782534" lon="9.589147951364458"><ele>825.5</ele><time>2026-05-03T13:35:11Z</time></trkpt><trkpt lat="44.68906689172292" lon="9.589042342864284"><ele>821.0</ele><time>2026-05-03T13:35:12Z</time></trkpt><trkpt lat="44.689008924444316" lon="9.588950099549415"><ele>816.5</ele><time>2026-05-03T13:35:13Z</time></trkpt><trkpt lat="44.68885815643439" lon="9.588852603006783"><ele>812.0</ele><time>2026-05-03T13:35:15Z</time></trkpt><trkpt lat="44.68872799020707" lon="9.58875163263609"><ele>809.6</ele><time>2026-05-03T13:35:16Z</time></trkpt><trkpt lat="44.68861111735381" lon="9.58867209698475"><ele>807.2</ele><time>2026-05-03T13:35:17Z</time></trkpt><trkpt lat="44.68853099906393" lon="9.588587739527712"><ele>804.8</ele><time>2026-05-03T13:35:18Z</time></trkpt><trkpt lat="44.68846536489785" lon="9.588492409811627"><ele>802.4</ele><time>2026-05-03T13:35:19Z</time></trkpt><trkpt lat="44.68840882692671" lon="9.588409592462622"><ele>800.0</ele><time>2026-05-03T13:35:20Z</time></trkpt><trkpt lat="44.688354288804824" lon="9.588337905797626"><ele>799.5000000000001</ele><time>2026-05-03T13:35:21Z</time></trkpt><trkpt lat="44.688292345458564" lon="9.588269682021224"><ele>799.0</ele><time>2026-05-03T13:35:22Z</time></trkpt><trkpt lat="44.68824250341729" lon="9.58809887339299"><ele>798.5</ele><time>2026-05-03T13:35:24Z</time></trkpt><trkpt lat="44.688225052786315" lon="9.588013236197934"><ele>798.0</ele><time>2026-05-03T13:35:25Z</time></trkpt><trkpt lat="44.68816200039744" lon="9.58796889623947"><ele>797.5000000000001</ele><time>2026-05-03T13:35:27Z</time></trkpt><trkpt lat="44.68810817151914" lon="9.587885366576948"><ele>797.0</ele><time>2026-05-03T13:35:30Z</time></trkpt><trkpt lat="44.68807061563188" lon="9.587800122522578"><ele>795.4000000000001</ele><time>2026-05-03T13:35:32Z</time></trkpt><trkpt lat="44.68803862119838" lon="9.58768600635762"><ele>793.8000000000001</ele><time>2026-05-03T13:35:35Z</time></trkpt><trkpt lat="44.687986026596256" lon="9.587550413903806"><ele>792.2</ele><time>2026-05-03T13:35:37Z</time></trkpt><trkpt lat="44.68796754865839" lon="9.587426255766715"><ele>790.6</ele><time>2026-05-03T13:35:39Z</time></trkpt><trkpt lat="44.68800854448743" lon="9.587318725971407"><ele>789.0</ele><time>2026-05-03T13:35:41Z</time></trkpt><trkpt lat="44.688036719198806" lon="9.587190910535877"><ele>789.0</ele><time>2026-05-03T13:35:43Z</time></trkpt><trkpt lat="44.688033185961984" lon="9.587068281005156"><ele>789.0</ele><time>2026-05-03T13:35:45Z</time></trkpt><trkpt lat="44.68802967358624" lon="9.586920061612963"><ele>789.0</ele><time>2026-05-03T13:35:47Z</time></trkpt><trkpt lat="44.688002285423714" lon="9.586789677087715"><ele>789.0</ele><time>2026-05-03T13:35:49Z</time></trkpt><trkpt lat="44.68792621870787" lon="9.586774647565841"><ele>789.0</ele><time>2026-05-03T13:35:51Z</time></trkpt><trkpt lat="44.68783558695862" lon="9.586761467830232"><ele>786.3333333333334</ele><time>2026-05-03T13:35:54Z</time></trkpt><trkpt lat="44.68775427431381" lon="9.586797733480456"><ele>783.6666666666667</ele><time>2026-05-03T13:35:56Z</time></trkpt><trkpt lat="44.68773664024082" lon="9.586682669930777"><ele>781.0</ele><time>2026-05-03T13:35:58Z</time></trkpt><trkpt lat="44.68770021946155" lon="9.586587572854388"><ele>778.3333333333334</ele><time>2026-05-03T13:36:00Z</time></trkpt><trkpt lat="44.68763726322232" lon="9.586515603800693"><ele>775.6666666666667</ele><time>2026-05-03T13:36:02Z</time></trkpt><trkpt lat="44.68764815249115" lon="9.586397658588"><ele>773.0</ele><time>2026-05-03T13:36:04Z</time></trkpt><trkpt lat="44.687631803345184" lon="9.586291234633228"><ele>773.0</ele><time>2026-05-03T13:36:07Z</time></trkpt><trkpt lat="44.687555969399284" lon="9.586197720656374"><ele>773.0</ele><time>2026-05-03T13:36:13Z</time></trkpt><trkpt lat="44.68749579463486" lon="9.586097552117568"><ele>773.0</ele><time>2026-05-03T13:36:15Z</time></trkpt><trkpt lat="44.68739284258009" lon="9.58613575783822"><ele>773.0</ele><time>2026-05-03T13:36:17Z</time></trkpt><trkpt lat="44.68729322569573" lon="9.586150100478767"><ele>773.0</ele><time>2026-05-03T13:36:19Z</time></trkpt><trkpt lat="44.68720989647162" lon="9.586096943320507"><ele>770.0000000000001</ele><time>2026-05-03T13:36:20Z</time></trkpt><trkpt lat="44.68714708183747" lon="9.586036980834313"><ele>767.0</ele><time>2026-05-03T13:36:21Z</time></trkpt><trkpt lat="44.68710054834775" lon="9.585961784285034"><ele>764.0</ele><time>2026-05-03T13:36:22Z</time></trkpt><trkpt lat="44.687057602699234" lon="9.585881957792855"><ele>761.0</ele><time>2026-05-03T13:36:23Z</time></trkpt><trkpt lat="44.68698211311364" lon="9.58575777363133"><ele>758.0</ele><time>2026-05-03T13:36:25Z</time></trkpt><trkpt lat="44.686944805530814" lon="9.585674192295812"><ele>755.0</ele><time>2026-05-03T13:36:26Z</time></trkpt><trkpt lat="44.68688036063356" lon="9.585548432391942"><ele>753.4</ele><time>2026-05-03T13:36:28Z</time></trkpt><trkpt lat="44.68680347760829" lon="9.585479459979545"><ele>751.8</ele><time>2026-05-03T13:36:30Z</time></trkpt><trkpt lat="44.686694501894294" lon="9.585419922696417"><ele>750.2</ele><time>2026-05-03T13:36:32Z</time></trkpt><trkpt lat="44.68662074258852" lon="9.585405651341146"><ele>748.6</ele><time>2026-05-03T13:36:33Z</time></trkpt><trkpt lat="44.68650973339665" lon="9.585323762634195"><ele>747.0</ele><time>2026-05-03T13:36:35Z</time></trkpt><trkpt lat="44.686438752365206" lon="9.5852175958718"><ele>744.1666666666666</ele><time>2026-05-03T13:36:37Z</time></trkpt><trkpt lat="44.68639606843949" lon="9.585148383183977"><ele>741.3333333333334</ele><time>2026-05-03T13:36:38Z</time></trkpt><trkpt lat="44.68629375159891" lon="9.585101146261517"><ele>738.5</ele><time>2026-05-03T13:36:40Z</time></trkpt><trkpt lat="44.68622885636263" lon="9.585078378467825"><ele>735.6666666666667</ele><time>2026-05-03T13:36:41Z</time></trkpt><trkpt lat="44.68613338367926" lon="9.584990350481869"><ele>732.8333333333334</ele><time>2026-05-03T13:36:43Z</time></trkpt><trkpt lat="44.686078265746374" lon="9.584894262612211"><ele>730.0</ele><time>2026-05-03T13:36:45Z</time></trkpt><trkpt lat="44.68612394824443" lon="9.584774238660156"><ele>730.0</ele><time>2026-05-03T13:37:20Z</time></trkpt><trkpt lat="44.68620102422549" lon="9.58471796597146"><ele>730.0</ele><time>2026-05-03T13:37:21Z</time></trkpt><trkpt lat="44.68624750305205" lon="9.584651250420043"><ele>730.0</ele><time>2026-05-03T13:37:22Z</time></trkpt><trkpt lat="44.68629642928844" lon="9.584547216406811"><ele>730.0</ele><time>2026-05-03T13:37:23Z</time></trkpt><trkpt lat="44.68634714554281" lon="9.584426624952375"><ele>730.0</ele><time>2026-05-03T13:37:24Z</time></trkpt><trkpt lat="44.68639979205921" lon="9.584318422700159"><ele>730.0</ele><time>2026-05-03T13:37:25Z</time></trkpt><trkpt lat="44.68644276086636" lon="9.584248689330956"><ele>727.8333333333334</ele><time>2026-05-03T13:37:26Z</time></trkpt><trkpt lat="44.686498438519976" lon="9.584183547178231"><ele>725.6666666666667</ele><time>2026-05-03T13:37:27Z</time></trkpt><trkpt lat="44.686569120314516" lon="9.584102958338942"><ele>723.5</ele><time>2026-05-03T13:37:28Z</time></trkpt><trkpt lat="44.68663520612225" lon="9.58400966444498"><ele>721.3333333333334</ele><time>2026-05-03T13:37:29Z</time></trkpt><trkpt lat="44.68668870642068" lon="9.583907064478623"><ele>719.1666666666666</ele><time>2026-05-03T13:37:30Z</time></trkpt><trkpt lat="44.68674857248484" lon="9.583810857771791"><ele>717.0</ele><time>2026-05-03T13:37:31Z</time></trkpt><trkpt lat="44.68680699996393" lon="9.583709555726873"><ele>716.3333333333334</ele><time>2026-05-03T13:37:32Z</time></trkpt><trkpt lat="44.686856911121744" lon="9.583626435164831"><ele>715.6666666666666</ele><time>2026-05-03T13:37:33Z</time></trkpt><trkpt lat="44.6868919479352" lon="9.583545388596415"><ele>715.0</ele><time>2026-05-03T13:37:34Z</time></trkpt><trkpt lat="44.68691754322461" lon="9.583416827562983"><ele>714.3333333333333</ele><time>2026-05-03T13:37:35Z</time></trkpt><trkpt lat="44.68693343004899" lon="9.583298114520137"><ele>713.6666666666666</ele><time>2026-05-03T13:37:36Z</time></trkpt><trkpt lat="44.6869731943902" lon="9.583195511152066"><ele>713.0</ele><time>2026-05-03T13:37:37Z</time></trkpt><trkpt lat="44.68703301011455" lon="9.583121397347222"><ele>713.0</ele><time>2026-05-03T13:37:38Z</time></trkpt><trkpt lat="44.68710177381293" lon="9.583042405955664"><ele>713.0</ele><time>2026-05-03T13:37:39Z</time></trkpt><trkpt lat="44.68717061970167" lon="9.582973359234073"><ele>713.0</ele><time>2026-05-03T13:37:40Z</time></trkpt><trkpt lat="44.68723727149922" lon="9.582949436297598"><ele>713.0</ele><time>2026-05-03T13:37:41Z</time></trkpt><trkpt lat="44.68730035966523" lon="9.582903526935262"><ele>713.0</ele><time>2026-05-03T13:37:42Z</time></trkpt><trkpt lat="44.687378615041006" lon="9.582727664015154"><ele>711.5</ele><time>2026-05-03T13:37:44Z</time></trkpt><trkpt lat="44.68741708015532" lon="9.582622815698931"><ele>710.0</ele><time>2026-05-03T13:37:45Z</time></trkpt><trkpt lat="44.68744247512635" lon="9.58253130299537"><ele>708.5</ele><time>2026-05-03T13:37:46Z</time></trkpt><trkpt lat="44.68743628762875" lon="9.582438609455854"><ele>707.0</ele><time>2026-05-03T13:37:47Z</time></trkpt><trkpt lat="44.68742649926841" lon="9.582320997181872"><ele>705.5</ele><time>2026-05-03T13:37:48Z</time></trkpt><trkpt lat="44.68743159908753" lon="9.58221392562342"><ele>704.0</ele><time>2026-05-03T13:37:49Z</time></trkpt><trkpt lat="44.68744599242928" lon="9.5820855191018"><ele>704.0</ele><time>2026-05-03T13:37:50Z</time></trkpt><trkpt lat="44.68739914638134" lon="9.582151843347907"><ele>704.0</ele><time>2026-05-03T13:39:25Z</time></trkpt><trkpt lat="44.68737018905311" lon="9.582070254147455"><ele>704.0</ele><time>2026-05-03T13:39:27Z</time></trkpt><trkpt lat="44.687340799629276" lon="9.581956533172917"><ele>704.0</ele><time>2026-05-03T13:39:28Z</time></trkpt><trkpt lat="44.68731294445448" lon="9.581870867977475"><ele>704.0</ele><time>2026-05-03T13:39:29Z</time></trkpt><trkpt lat="44.687264941483036" lon="9.581775752972133"><ele>704.0</ele><time>2026-05-03T13:39:30Z</time></trkpt><trkpt lat="44.68721914809717" lon="9.581667739628747"><ele>703.4000000000001</ele><time>2026-05-03T13:39:31Z</time></trkpt><trkpt lat="44.68718492561136" lon="9.581578914214484"><ele>702.8</ele><time>2026-05-03T13:39:32Z</time></trkpt><trkpt lat="44.68714945733776" lon="9.581409538322912"><ele>702.2</ele><time>2026-05-03T13:39:34Z</time></trkpt><trkpt lat="44.68714709496092" lon="9.581314622991554"><ele>701.5999999999999</ele><time>2026-05-03T13:39:35Z</time></trkpt><trkpt lat="44.68713877218607" lon="9.581216389735836"><ele>701.0</ele><time>2026-05-03T13:39:36Z</time></trkpt><trkpt lat="44.687112589471724" lon="9.581036404433618"><ele>700.3333333333333</ele><time>2026-05-03T13:39:38Z</time></trkpt><trkpt lat="44.687076093437256" lon="9.580914104764506"><ele>699.6666666666666</ele><time>2026-05-03T13:39:39Z</time></trkpt><trkpt lat="44.68704125919683" lon="9.580831504532066"><ele>699.0</ele><time>2026-05-03T13:39:40Z</time></trkpt><trkpt lat="44.68701595833401" lon="9.580743207963033"><ele>698.3333333333334</ele><time>2026-05-03T13:39:41Z</time></trkpt><trkpt lat="44.68699976190881" lon="9.580607991134649"><ele>697.6666666666667</ele><time>2026-05-03T13:39:43Z</time></trkpt><trkpt lat="44.687014480510946" lon="9.580474538687602"><ele>697.0</ele><time>2026-05-03T13:39:45Z</time></trkpt><trkpt lat="44.68700550857367" lon="9.580375983843801"><ele>695.2</ele><time>2026-05-03T13:39:46Z</time></trkpt><trkpt lat="44.68696051290747" lon="9.580217335942015"><ele>693.4000000000001</ele><time>2026-05-03T13:39:48Z</time></trkpt><trkpt lat="44.68694554898335" lon="9.580062996994359"><ele>691.5999999999999</ele><time>2026-05-03T13:39:50Z</time></trkpt><trkpt lat="44.68695184226885" lon="9.579934980228778"><ele>689.8</ele><time>2026-05-03T13:39:52Z</time></trkpt><trkpt lat="44.68692973255877" lon="9.579805002489385"><ele>688.0</ele><time>2026-05-03T13:39:54Z</time></trkpt><trkpt lat="44.68686042247775" lon="9.57971739035662"><ele>687.1666666666667</ele><time>2026-05-03T13:39:56Z</time></trkpt><trkpt lat="44.686809582704555" lon="9.579612394023432"><ele>686.3333333333334</ele><time>2026-05-03T13:39:58Z</time></trkpt><trkpt lat="44.68678176963362" lon="9.57953027018642"><ele>685.5</ele><time>2026-05-03T13:39:59Z</time></trkpt><trkpt lat="44.686763603946126" lon="9.579444961103556"><ele>684.6666666666666</ele><time>2026-05-03T13:40:00Z</time></trkpt><trkpt lat="44.68671186796373" lon="9.579283043656897"><ele>683.8333333333333</ele><time>2026-05-03T13:40:02Z</time></trkpt><trkpt lat="44.686645832985484" lon="9.579196725596518"><ele>683.0</ele><time>2026-05-03T13:40:04Z</time></trkpt><trkpt lat="44.68661634800346" lon="9.579108209562454"><ele>680.5999999999999</ele><time>2026-05-03T13:40:05Z</time></trkpt><trkpt lat="44.68662301526994" lon="9.578961460230884"><ele>678.1999999999999</ele><time>2026-05-03T13:40:07Z</time></trkpt><trkpt lat="44.68660924993742" lon="9.578826394047395"><ele>675.8</ele><time>2026-05-03T13:40:09Z</time></trkpt><trkpt lat="44.68657896143763" lon="9.578684552013286"><ele>673.4</ele><time>2026-05-03T13:40:11Z</time></trkpt><trkpt lat="44.6864980374972" lon="9.578582034342151"><ele>671.0</ele><time>2026-05-03T13:40:13Z</time></trkpt><trkpt lat="44.686437044341716" lon="9.578555132186501"><ele>668.25</ele><time>2026-05-03T13:40:14Z</time></trkpt><trkpt lat="44.686351231732544" lon="9.578467457107836"><ele>665.5</ele><time>2026-05-03T13:40:16Z</time></trkpt><trkpt lat="44.68632927528018" lon="9.578330859373265"><ele>662.75</ele><time>2026-05-03T13:40:18Z</time></trkpt><trkpt lat="44.68629566583163" lon="9.578171787010179"><ele>660.0</ele><time>2026-05-03T13:40:20Z</time></trkpt><trkpt lat="44.68622311605445" lon="9.578019947611986"><ele>660.0</ele><time>2026-05-03T13:40:22Z</time></trkpt><trkpt lat="44.68619903978855" lon="9.577927534603086"><ele>660.0</ele><time>2026-05-03T13:40:23Z</time></trkpt><trkpt lat="44.6861729062726" lon="9.577816927960157"><ele>660.0</ele><time>2026-05-03T13:40:24Z</time></trkpt><trkpt lat="44.68615580204943" lon="9.5777047145834"><ele>660.0</ele><time>2026-05-03T13:40:25Z</time></trkpt><trkpt lat="44.686134178453365" lon="9.577585061819903"><ele>660.0</ele><time>2026-05-03T13:40:26Z</time></trkpt><trkpt lat="44.68610518800537" lon="9.577477294402486"><ele>660.0</ele><time>2026-05-03T13:40:27Z</time></trkpt><trkpt lat="44.686056797435285" lon="9.577329756562605"><ele>657.3333333333334</ele><time>2026-05-03T13:40:29Z</time></trkpt><trkpt lat="44.686023644424886" lon="9.577252585549381"><ele>654.6666666666666</ele><time>2026-05-03T13:40:30Z</time></trkpt><trkpt lat="44.685982391685975" lon="9.577148127937836"><ele>652.0</ele><time>2026-05-03T13:40:31Z</time></trkpt><trkpt lat="44.68595154591785" lon="9.577053664108005"><ele>649.3333333333333</ele><time>2026-05-03T13:40:32Z</time></trkpt><trkpt lat="44.685916461176255" lon="9.576965423783527"><ele>646.6666666666666</ele><time>2026-05-03T13:40:33Z</time></trkpt><trkpt lat="44.685854537005326" lon="9.576834664516978"><ele>644.0</ele><time>2026-05-03T13:40:35Z</time></trkpt><trkpt lat="44.685743351085804" lon="9.576761153460648"><ele>642.1666666666666</ele><time>2026-05-03T13:40:37Z</time></trkpt><trkpt lat="44.685659052930866" lon="9.576699574225087"><ele>640.3333333333333</ele><time>2026-05-03T13:40:38Z</time></trkpt><trkpt lat="44.68558530004671" lon="9.57665329631965"><ele>638.5</ele><time>2026-05-03T13:40:39Z</time></trkpt><trkpt lat="44.68551977801171" lon="9.576588986868789"><ele>636.6666666666666</ele><time>2026-05-03T13:40:40Z</time></trkpt><trkpt lat="44.685452549183026" lon="9.576539038342068"><ele>634.8333333333334</ele><time>2026-05-03T13:40:41Z</time></trkpt><trkpt lat="44.68536294620778" lon="9.576475311623097"><ele>633.0</ele><time>2026-05-03T13:40:43Z</time></trkpt><trkpt lat="44.685259268128384" lon="9.576394935642222"><ele>630.8333333333334</ele><time>2026-05-03T13:40:45Z</time></trkpt><trkpt lat="44.68519778904897" lon="9.576361283119045"><ele>628.6666666666666</ele><time>2026-05-03T13:40:46Z</time></trkpt><trkpt lat="44.6851122164388" lon="9.576282016616812"><ele>626.5</ele><time>2026-05-03T13:40:48Z</time></trkpt><trkpt lat="44.685030563674715" lon="9.576152342181528"><ele>624.3333333333333</ele><time>2026-05-03T13:40:50Z</time></trkpt><trkpt lat="44.68497502789065" lon="9.576081072123594"><ele>622.1666666666666</ele><time>2026-05-03T13:40:51Z</time></trkpt><trkpt lat="44.68491586690877" lon="9.576036889965318"><ele>620.0</ele><time>2026-05-03T13:40:52Z</time></trkpt><trkpt lat="44.6848117897176" lon="9.576022966479409"><ele>618.5</ele><time>2026-05-03T13:40:54Z</time></trkpt><trkpt lat="44.68469778969918" lon="9.576075268796188"><ele>617.0</ele><time>2026-05-03T13:40:56Z</time></trkpt><trkpt lat="44.68462202972981" lon="9.57610134884901"><ele>615.5</ele><time>2026-05-03T13:40:57Z</time></trkpt><trkpt lat="44.68454121686875" lon="9.576106556839033"><ele>614.0</ele><time>2026-05-03T13:40:58Z</time></trkpt><trkpt lat="44.684480315121725" lon="9.576061136564801"><ele>612.5</ele><time>2026-05-03T13:40:59Z</time></trkpt><trkpt lat="44.68441226424356" lon="9.576016497984314"><ele>611.0</ele><time>2026-05-03T13:41:00Z</time></trkpt><trkpt lat="44.68434303777981" lon="9.575992871854048"><ele>608.1666666666666</ele><time>2026-05-03T13:41:01Z</time></trkpt><trkpt lat="44.68427941426935" lon="9.575990945544673"><ele>605.3333333333333</ele><time>2026-05-03T13:41:02Z</time></trkpt><trkpt lat="44.68416062943977" lon="9.576013966132972"><ele>602.5</ele><time>2026-05-03T13:41:04Z</time></trkpt><trkpt lat="44.684094501929735" lon="9.57599492721423"><ele>599.6666666666666</ele><time>2026-05-03T13:41:05Z</time></trkpt><trkpt lat="44.68403907130103" lon="9.57594564125311"><ele>596.8333333333334</ele><time>2026-05-03T13:41:06Z</time></trkpt><trkpt lat="44.68399390182112" lon="9.575879122475026"><ele>594.0</ele><time>2026-05-03T13:41:07Z</time></trkpt><trkpt lat="44.68393137724656" lon="9.575812024922815"><ele>594.0</ele><time>2026-05-03T13:41:08Z</time></trkpt><trkpt lat="44.683862508118516" lon="9.575762372805373"><ele>594.0</ele><time>2026-05-03T13:41:09Z</time></trkpt><trkpt lat="44.683800276267554" lon="9.575726975845127"><ele>594.0</ele><time>2026-05-03T13:41:10Z</time></trkpt><trkpt lat="44.68375289583007" lon="9.575665237571734"><ele>594.0</ele><time>2026-05-03T13:41:13Z</time></trkpt><trkpt lat="44.68373791715357" lon="9.575514457242365"><ele>594.0</ele><time>2026-05-03T13:41:16Z</time></trkpt><trkpt lat="44.68374683072531" lon="9.575359511908202"><ele>594.0</ele><time>2026-05-03T13:41:18Z</time></trkpt><trkpt lat="44.68373722317986" lon="9.575271224759232"><ele>594.0</ele><time>2026-05-03T13:41:19Z</time></trkpt><trkpt lat="44.68364576475337" lon="9.575168693176746"><ele>594.0</ele><time>2026-05-03T13:41:21Z</time></trkpt><trkpt lat="44.68353896819281" lon="9.575084012844773"><ele>594.0</ele><time>2026-05-03T13:41:23Z</time></trkpt><trkpt lat="44.68347083365197" lon="9.574978690117552"><ele>594.0</ele><time>2026-05-03T13:41:25Z</time></trkpt><trkpt lat="44.68344034845159" lon="9.574892667393682"><ele>594.0</ele><time>2026-05-03T13:41:28Z</time></trkpt><trkpt lat="44.683361449065465" lon="9.574812375621942"><ele>590.4</ele><time>2026-05-03T13:41:30Z</time></trkpt><trkpt lat="44.683267206199034" lon="9.574750093514991"><ele>586.8</ele><time>2026-05-03T13:41:32Z</time></trkpt><trkpt lat="44.683146584466826" lon="9.57481207370857"><ele>583.2</ele><time>2026-05-03T13:41:34Z</time></trkpt><trkpt lat="44.68307921572655" lon="9.574887629900312"><ele>579.6</ele><time>2026-05-03T13:41:35Z</time></trkpt><trkpt lat="44.68302025803839" lon="9.5749444043662"><ele>576.0</ele><time>2026-05-03T13:41:36Z</time></trkpt><trkpt lat="44.68295336577295" lon="9.57497436571092"><ele>576.0000000000001</ele><time>2026-05-03T13:41:37Z</time></trkpt><trkpt lat="44.682875213946424" lon="9.5749565557588"><ele>576.0</ele><time>2026-05-03T13:41:38Z</time></trkpt><trkpt lat="44.68280104351458" lon="9.574973545953261"><ele>576.0</ele><time>2026-05-03T13:41:39Z</time></trkpt><trkpt lat="44.68273526134945" lon="9.57494527935347"><ele>576.0</ele><time>2026-05-03T13:41:40Z</time></trkpt><trkpt lat="44.68266997735785" lon="9.574899021745917"><ele>576.0</ele><time>2026-05-03T13:41:41Z</time></trkpt><trkpt lat="44.6826280526269" lon="9.574814829752071"><ele>576.0000000000001</ele><time>2026-05-03T13:41:42Z</time></trkpt><trkpt lat="44.68260461687221" lon="9.574718637037096"><ele>576.0</ele><time>2026-05-03T13:41:43Z</time></trkpt><trkpt lat="44.68256343855347" lon="9.574610302396481"><ele>575.2</ele><time>2026-05-03T13:41:44Z</time></trkpt><trkpt lat="44.68251496076793" lon="9.574532515841788"><ele>574.4000000000001</ele><time>2026-05-03T13:41:45Z</time></trkpt><trkpt lat="44.682424824886255" lon="9.574551650753822"><ele>573.6</ele><time>2026-05-03T13:41:46Z</time></trkpt><trkpt lat="44.682334928706005" lon="9.574607805409597"><ele>572.8000000000001</ele><time>2026-05-03T13:41:47Z</time></trkpt><trkpt lat="44.68225376201826" lon="9.57465947464126"><ele>572.0</ele><time>2026-05-03T13:41:48Z</time></trkpt><trkpt lat="44.68215540376119" lon="9.574683898843295"><ele>572.0</ele><time>2026-05-03T13:41:50Z</time></trkpt><trkpt lat="44.68217694635582" lon="9.574540643661962"><ele>572.0</ele><time>2026-05-03T13:41:53Z</time></trkpt><trkpt lat="44.68217694635556" lon="9.57443279197887"><ele>572.0</ele><time>2026-05-03T13:41:54Z</time></trkpt><trkpt lat="44.68218011284325" lon="9.574309855716272"><ele>572.0</ele><time>2026-05-03T13:41:55Z</time></trkpt><trkpt lat="44.68218355771887" lon="9.57420186291723"><ele>572.0</ele><time>2026-05-03T13:41:56Z</time></trkpt><trkpt lat="44.68217390300147" lon="9.57407208245834"><ele>572.0</ele><time>2026-05-03T13:41:57Z</time></trkpt><trkpt lat="44.68218245397029" lon="9.573951057598839"><ele>571.0</ele><time>2026-05-03T13:41:58Z</time></trkpt><trkpt lat="44.682195790503464" lon="9.573846800296979"><ele>570.0</ele><time>2026-05-03T13:41:59Z</time></trkpt><trkpt lat="44.68221171853368" lon="9.573717537854614"><ele>569.0</ele><time>2026-05-03T13:42:00Z</time></trkpt><trkpt lat="44.68225100391936" lon="9.573591396751048"><ele>568.0</ele><time>2026-05-03T13:42:01Z</time></trkpt><trkpt lat="44.682287404169635" lon="9.573465473561194"><ele>567.0</ele><time>2026-05-03T13:42:02Z</time></trkpt><trkpt lat="44.68233674193388" lon="9.573366175652284"><ele>566.0</ele><time>2026-05-03T13:42:03Z</time></trkpt><trkpt lat="44.68239727447655" lon="9.573285061173015"><ele>566.2</ele><time>2026-05-03T13:42:04Z</time></trkpt><trkpt lat="44.68246097328382" lon="9.573188110444912"><ele>566.4000000000001</ele><time>2026-05-03T13:42:05Z</time></trkpt><trkpt lat="44.68254659809674" lon="9.57310635572133"><ele>566.6</ele><time>2026-05-03T13:42:06Z</time></trkpt><trkpt lat="44.68263055827436" lon="9.573029303023075"><ele>566.8000000000001</ele><time>2026-05-03T13:42:07Z</time></trkpt><trkpt lat="44.682725259733616" lon="9.57296945049821"><ele>567.0</ele><time>2026-05-03T13:42:08Z</time></trkpt><trkpt lat="44.68280363892958" lon="9.572873891198421"><ele>565.2</ele><time>2026-05-03T13:42:09Z</time></trkpt><trkpt lat="44.68289714007882" lon="9.572775880604684"><ele>563.4000000000001</ele><time>2026-05-03T13:42:10Z</time></trkpt><trkpt lat="44.682935732884886" lon="9.572625687874032"><ele>561.5999999999999</ele><time>2026-05-03T13:42:11Z</time></trkpt><trkpt lat="44.682959649241724" lon="9.57248412458588"><ele>559.8</ele><time>2026-05-03T13:42:12Z</time></trkpt><trkpt lat="44.68299852906017" lon="9.572345261328554"><ele>558.0</ele><time>2026-05-03T13:42:13Z</time></trkpt><trkpt lat="44.683058302190446" lon="9.572218630274445"><ele>558.0</ele><time>2026-05-03T13:42:14Z</time></trkpt><trkpt lat="44.68312919528349" lon="9.57210119564779"><ele>558.0</ele><time>2026-05-03T13:42:15Z</time></trkpt><trkpt lat="44.68320019767836" lon="9.572001086821016"><ele>558.0</ele><time>2026-05-03T13:42:16Z</time></trkpt><trkpt lat="44.68328276223936" lon="9.571903651507013"><ele>558.0</ele><time>2026-05-03T13:42:17Z</time></trkpt><trkpt lat="44.683341412699605" lon="9.571768447232062"><ele>558.0</ele><time>2026-05-03T13:42:18Z</time></trkpt><trkpt lat="44.683411057467865" lon="9.571661094341644"><ele>558.8</ele><time>2026-05-03T13:42:19Z</time></trkpt><trkpt lat="44.68348225865414" lon="9.571555674050995"><ele>559.5999999999999</ele><time>2026-05-03T13:42:20Z</time></trkpt><trkpt lat="44.68356003298456" lon="9.571442687040964"><ele>560.4000000000001</ele><time>2026-05-03T13:42:21Z</time></trkpt><trkpt lat="44.68363979575135" lon="9.571335613834407"><ele>561.2</ele><time>2026-05-03T13:42:22Z</time></trkpt><trkpt lat="44.68370879183631" lon="9.57123238318226"><ele>562.0</ele><time>2026-05-03T13:42:23Z</time></trkpt><trkpt lat="44.683779501672674" lon="9.571148001097697"><ele>558.2</ele><time>2026-05-03T13:42:24Z</time></trkpt><trkpt lat="44.68381692951426" lon="9.571042868289004"><ele>554.4000000000001</ele><time>2026-05-03T13:42:25Z</time></trkpt><trkpt lat="44.683871572545584" lon="9.57096043371893"><ele>550.5999999999999</ele><time>2026-05-03T13:42:26Z</time></trkpt><trkpt lat="44.68392796674516" lon="9.570857151474247"><ele>546.8</ele><time>2026-05-03T13:42:27Z</time></trkpt><trkpt lat="44.68399641551931" lon="9.57074955100455"><ele>543.0</ele><time>2026-05-03T13:42:28Z</time></trkpt><trkpt lat="44.68406987722406" lon="9.570658777942917"><ele>543.0</ele><time>2026-05-03T13:42:29Z</time></trkpt><trkpt lat="44.684150242234814" lon="9.570635406370709"><ele>543.0</ele><time>2026-05-03T13:42:30Z</time></trkpt><trkpt lat="44.684226543132766" lon="9.57064553245387"><ele>543.0</ele><time>2026-05-03T13:42:31Z</time></trkpt><trkpt lat="44.68430765942151" lon="9.570701058018443"><ele>543.0</ele><time>2026-05-03T13:42:32Z</time></trkpt><trkpt lat="44.68439796069413" lon="9.570722429532388"><ele>543.0</ele><time>2026-05-03T13:42:33Z</time></trkpt><trkpt lat="44.68448917884323" lon="9.57073522425541"><ele>543.0</ele><time>2026-05-03T13:42:34Z</time></trkpt><trkpt lat="44.684571708037694" lon="9.570701189830276"><ele>543.0</ele><time>2026-05-03T13:42:35Z</time></trkpt><trkpt lat="44.684663018942295" lon="9.570657407538427"><ele>543.0</ele><time>2026-05-03T13:42:36Z</time></trkpt><trkpt lat="44.684771663127144" lon="9.570651998663926"><ele>543.0</ele><time>2026-05-03T13:42:37Z</time></trkpt><trkpt lat="44.68486492999531" lon="9.570599671232618"><ele>543.0</ele><time>2026-05-03T13:42:38Z</time></trkpt><trkpt lat="44.68494403379779" lon="9.57048211012906"><ele>543.0</ele><time>2026-05-03T13:42:39Z</time></trkpt><trkpt lat="44.68501626327172" lon="9.57036037794378"><ele>542.0</ele><time>2026-05-03T13:42:40Z</time></trkpt><trkpt lat="44.68506819064051" lon="9.570230342245097"><ele>541.0</ele><time>2026-05-03T13:42:41Z</time></trkpt><trkpt lat="44.68511951818098" lon="9.570116030232482"><ele>540.0</ele><time>2026-05-03T13:42:42Z</time></trkpt><trkpt lat="44.6851986378155" lon="9.57002196921922"><ele>539.0</ele><time>2026-05-03T13:42:43Z</time></trkpt><trkpt lat="44.68528548756436" lon="9.56991432519393"><ele>538.0</ele><time>2026-05-03T13:42:44Z</time></trkpt><trkpt lat="44.6853541590373" lon="9.569774846805567"><ele>538.0</ele><time>2026-05-03T13:42:45Z</time></trkpt><trkpt lat="44.685447888663596" lon="9.569678163096773"><ele>538.0</ele><time>2026-05-03T13:42:46Z</time></trkpt><trkpt lat="44.685526455328834" lon="9.569561716561104"><ele>538.0</ele><time>2026-05-03T13:42:47Z</time></trkpt><trkpt lat="44.68560996209176" lon="9.569467432712427"><ele>538.0</ele><time>2026-05-03T13:42:48Z</time></trkpt><trkpt lat="44.68569779681209" lon="9.569380569450649"><ele>538.0</ele><time>2026-05-03T13:42:49Z</time></trkpt><trkpt lat="44.68578850652151" lon="9.569308033646236"><ele>533.0</ele><time>2026-05-03T13:42:50Z</time></trkpt><trkpt lat="44.6858880786726" lon="9.569277359513507"><ele>528.0</ele><time>2026-05-03T13:42:51Z</time></trkpt><trkpt lat="44.68599263672635" lon="9.569239995303302"><ele>523.0</ele><time>2026-05-03T13:42:52Z</time></trkpt><trkpt lat="44.686091816184664" lon="9.569210873601143"><ele>518.0</ele><time>2026-05-03T13:42:53Z</time></trkpt><trkpt lat="44.686185112434224" lon="9.569228650629226"><ele>513.0</ele><time>2026-05-03T13:42:54Z</time></trkpt><trkpt lat="44.686273469572086" lon="9.569258277618601"><ele>512.0</ele><time>2026-05-03T13:42:55Z</time></trkpt><trkpt lat="44.68635625708891" lon="9.56929399350433"><ele>511.0</ele><time>2026-05-03T13:42:56Z</time></trkpt><trkpt lat="44.686434297846475" lon="9.569339399182448"><ele>510.0</ele><time>2026-05-03T13:42:57Z</time></trkpt><trkpt lat="44.68650580371404" lon="9.569404798511158"><ele>509.0</ele><time>2026-05-03T13:42:58Z</time></trkpt><trkpt lat="44.686530216269325" lon="9.569555787203262"><ele>508.0</ele><time>2026-05-03T13:42:59Z</time></trkpt><trkpt lat="44.68658737289882" lon="9.56963390215137"><ele>507.0</ele><time>2026-05-03T13:43:00Z</time></trkpt><trkpt lat="44.68664737313054" lon="9.569681393475761"><ele>507.0</ele><time>2026-05-03T13:43:01Z</time></trkpt><trkpt lat="44.68679361919352" lon="9.569598535783605"><ele>507.00000000000006</ele><time>2026-05-03T13:43:03Z</time></trkpt><trkpt lat="44.686834621791505" lon="9.569453880947538"><ele>507.00000000000006</ele><time>2026-05-03T13:43:04Z</time></trkpt><trkpt lat="44.6868702559282" lon="9.569354845159618"><ele>507.0</ele><time>2026-05-03T13:43:05Z</time></trkpt><trkpt lat="44.68690149377726" lon="9.569266527988727"><ele>507.0</ele><time>2026-05-03T13:43:06Z</time></trkpt><trkpt lat="44.68694918078602" lon="9.569191653408522"><ele>506.0</ele><time>2026-05-03T13:43:07Z</time></trkpt><trkpt lat="44.68699423433942" lon="9.569115938537445"><ele>505.00000000000006</ele><time>2026-05-03T13:43:08Z</time></trkpt><trkpt lat="44.68705306492792" lon="9.569046250722861"><ele>504.00000000000006</ele><time>2026-05-03T13:43:09Z</time></trkpt><trkpt lat="44.68715636472713" lon="9.569041334721424"><ele>503.0</ele><time>2026-05-03T13:43:10Z</time></trkpt><trkpt lat="44.687268284656234" lon="9.569054980078722"><ele>502.0</ele><time>2026-05-03T13:43:11Z</time></trkpt><trkpt lat="44.68737394366018" lon="9.569050741298053"><ele>502.00000000000006</ele><time>2026-05-03T13:43:12Z</time></trkpt><trkpt lat="44.687462293427814" lon="9.569006587316961"><ele>502.0</ele><time>2026-05-03T13:43:13Z</time></trkpt><trkpt lat="44.687544655709196" lon="9.568951553709738"><ele>502.0</ele><time>2026-05-03T13:43:14Z</time></trkpt><trkpt lat="44.68762202140021" lon="9.568900947097289"><ele>502.0</ele><time>2026-05-03T13:43:15Z</time></trkpt><trkpt lat="44.68770066056134" lon="9.568844243801367"><ele>502.00000000000006</ele><time>2026-05-03T13:43:16Z</time></trkpt><trkpt lat="44.68777412279768" lon="9.568786442776636"><ele>502.0</ele><time>2026-05-03T13:43:17Z</time></trkpt><trkpt lat="44.6878602466717" lon="9.568789816381994"><ele>501.1666666666667</ele><time>2026-05-03T13:43:18Z</time></trkpt><trkpt lat="44.68793208557603" lon="9.568800506572714"><ele>500.33333333333337</ele><time>2026-05-03T13:43:19Z</time></trkpt><trkpt lat="44.688005942183366" lon="9.568811509471963"><ele>499.5</ele><time>2026-05-03T13:43:20Z</time></trkpt><trkpt lat="44.688070865653806" lon="9.568822274079459"><ele>498.66666666666663</ele><time>2026-05-03T13:43:21Z</time></trkpt><trkpt lat="44.68818861176462" lon="9.568814325396577"><ele>497.8333333333333</ele><time>2026-05-03T13:43:23Z</time></trkpt><trkpt lat="44.68825289148232" lon="9.568828774359165"><ele>497.0</ele><time>2026-05-03T13:43:25Z</time></trkpt><trkpt lat="44.68834642592984" lon="9.56882014315569"><ele>497.0</ele><time>2026-05-03T13:43:35Z</time></trkpt><trkpt lat="44.688364441663936" lon="9.568956380990329"><ele>497.00000000000006</ele><time>2026-05-03T13:43:36Z</time></trkpt><trkpt lat="44.688403972867015" lon="9.569077886976654"><ele>497.00000000000006</ele><time>2026-05-03T13:43:37Z</time></trkpt><trkpt lat="44.68846922007863" lon="9.569229946249465"><ele>497.0</ele><time>2026-05-03T13:43:38Z</time></trkpt><trkpt lat="44.68852829772715" lon="9.569294015981663"><ele>497.0</ele><time>2026-05-03T13:43:39Z</time></trkpt><trkpt lat="44.68862639382752" lon="9.569363091303922"><ele>496.6</ele><time>2026-05-03T13:43:40Z</time></trkpt><trkpt lat="44.68870114896336" lon="9.569423905072652"><ele>496.20000000000005</ele><time>2026-05-03T13:43:41Z</time></trkpt><trkpt lat="44.688803851338406" lon="9.569410666168775"><ele>495.8</ele><time>2026-05-03T13:43:42Z</time></trkpt><trkpt lat="44.6889149341474" lon="9.569363580089398"><ele>495.4</ele><time>2026-05-03T13:43:43Z</time></trkpt><trkpt lat="44.689034341756624" lon="9.569304545482831"><ele>495.0</ele><time>2026-05-03T13:43:44Z</time></trkpt><trkpt lat="44.6891594646766" lon="9.569249829461933"><ele>495.0</ele><time>2026-05-03T13:43:45Z</time></trkpt><trkpt lat="44.68928150004505" lon="9.569196656247579"><ele>495.0</ele><time>2026-05-03T13:43:46Z</time></trkpt><trkpt lat="44.68939587041198" lon="9.569154078239757"><ele>495.0</ele><time>2026-05-03T13:43:47Z</time></trkpt><trkpt lat="44.689515451664825" lon="9.569143280021498"><ele>495.0</ele><time>2026-05-03T13:43:48Z</time></trkpt><trkpt lat="44.689636968064164" lon="9.569133758889645"><ele>496.0</ele><time>2026-05-03T13:43:49Z</time></trkpt><trkpt lat="44.6897530420092" lon="9.56911727964922"><ele>497.0</ele><time>2026-05-03T13:43:50Z</time></trkpt><trkpt lat="44.68987181343483" lon="9.569062646485548"><ele>498.0</ele><time>2026-05-03T13:43:51Z</time></trkpt><trkpt lat="44.68997870055279" lon="9.568957290991195"><ele>499.0</ele><time>2026-05-03T13:43:52Z</time></trkpt><trkpt lat="44.69006353216634" lon="9.568824555663541"><ele>499.0</ele><time>2026-05-03T13:43:53Z</time></trkpt><trkpt lat="44.69013837278925" lon="9.568719380568192"><ele>499.0</ele><time>2026-05-03T13:43:54Z</time></trkpt><trkpt lat="44.690227509079534" lon="9.568659022788864"><ele>499.0</ele><time>2026-05-03T13:43:55Z</time></trkpt><trkpt lat="44.69032675092286" lon="9.568684758929347"><ele>499.0</ele><time>2026-05-03T13:43:56Z</time></trkpt><trkpt lat="44.69042097432595" lon="9.568720837143085"><ele>499.0</ele><time>2026-05-03T13:43:57Z</time></trkpt><trkpt lat="44.690508249305914" lon="9.568790920738735"><ele>497.6</ele><time>2026-05-03T13:43:58Z</time></trkpt><trkpt lat="44.690569699696375" lon="9.56890489002458"><ele>496.2</ele><time>2026-05-03T13:43:59Z</time></trkpt><trkpt lat="44.690623727239704" lon="9.569036105180146"><ele>494.80000000000007</ele><time>2026-05-03T13:44:00Z</time></trkpt><trkpt lat="44.690669562780926" lon="9.569170857108546"><ele>493.40000000000003</ele><time>2026-05-03T13:44:01Z</time></trkpt><trkpt lat="44.69074038482298" lon="9.56928293379919"><ele>492.0</ele><time>2026-05-03T13:44:02Z</time></trkpt><trkpt lat="44.690800344021845" lon="9.569390641618375"><ele>492.0</ele><time>2026-05-03T13:44:03Z</time></trkpt><trkpt lat="44.69088042695738" lon="9.569466576136033"><ele>492.00000000000006</ele><time>2026-05-03T13:44:04Z</time></trkpt><trkpt lat="44.69097073643067" lon="9.569481329834609"><ele>492.00000000000006</ele><time>2026-05-03T13:44:05Z</time></trkpt><trkpt lat="44.69106807717087" lon="9.569442672171428"><ele>492.0</ele><time>2026-05-03T13:44:06Z</time></trkpt><trkpt lat="44.691163488860866" lon="9.56938545541001"><ele>492.0</ele><time>2026-05-03T13:44:07Z</time></trkpt><trkpt lat="44.69125949527983" lon="9.56933848945414"><ele>492.75</ele><time>2026-05-03T13:44:08Z</time></trkpt><trkpt lat="44.691370494466" lon="9.569271908438223"><ele>493.5</ele><time>2026-05-03T13:44:09Z</time></trkpt><trkpt lat="44.69148705610724" lon="9.569184610136166"><ele>494.25</ele><time>2026-05-03T13:44:10Z</time></trkpt><trkpt lat="44.691598888768006" lon="9.569098942055264"><ele>495.0</ele><time>2026-05-03T13:44:11Z</time></trkpt><trkpt lat="44.69171141902311" lon="9.569048231984505"><ele>495.0</ele><time>2026-05-03T13:44:12Z</time></trkpt><trkpt lat="44.69181450331556" lon="9.569000155162918"><ele>495.0</ele><time>2026-05-03T13:44:13Z</time></trkpt><trkpt lat="44.69192737861215" lon="9.568938025439746"><ele>495.0</ele><time>2026-05-03T13:44:14Z</time></trkpt><trkpt lat="44.69204796120519" lon="9.568933202795272"><ele>495.0</ele><time>2026-05-03T13:44:15Z</time></trkpt><trkpt lat="44.69215823849796" lon="9.568925865164596"><ele>494.25</ele><time>2026-05-03T13:44:16Z</time></trkpt><trkpt lat="44.69226956514337" lon="9.56894545972463"><ele>493.5</ele><time>2026-05-03T13:44:17Z</time></trkpt><trkpt lat="44.69236950973944" lon="9.569010078678465"><ele>492.75</ele><time>2026-05-03T13:44:18Z</time></trkpt><trkpt lat="44.69248464007206" lon="9.569097052391903"><ele>492.0</ele><time>2026-05-03T13:44:19Z</time></trkpt><trkpt lat="44.6925724241779" lon="9.569191257792118"><ele>492.0</ele><time>2026-05-03T13:44:20Z</time></trkpt><trkpt lat="44.69267473358524" lon="9.569271980265409"><ele>492.00000000000006</ele><time>2026-05-03T13:44:21Z</time></trkpt><trkpt lat="44.69277337107013" lon="9.569271967238008"><ele>492.00000000000006</ele><time>2026-05-03T13:44:22Z</time></trkpt><trkpt lat="44.6928616703422" lon="9.569202661812149"><ele>492.0</ele><time>2026-05-03T13:44:23Z</time></trkpt><trkpt lat="44.69294018729234" lon="9.569093484142083"><ele>492.0</ele><time>2026-05-03T13:44:24Z</time></trkpt><trkpt lat="44.69299796719105" lon="9.568951624018478"><ele>492.75</ele><time>2026-05-03T13:44:25Z</time></trkpt><trkpt lat="44.69305240683784" lon="9.568793859058717"><ele>493.5</ele><time>2026-05-03T13:44:26Z</time></trkpt><trkpt lat="44.693099074607815" lon="9.568636423321346"><ele>494.25</ele><time>2026-05-03T13:44:27Z</time></trkpt><trkpt lat="44.69312918607429" lon="9.568472771990733"><ele>495.0</ele><time>2026-05-03T13:44:28Z</time></trkpt><trkpt lat="44.69313809832655" lon="9.56829580289552"><ele>495.0</ele><time>2026-05-03T13:44:29Z</time></trkpt><trkpt lat="44.6931368620134" lon="9.568108243555741"><ele>495.0</ele><time>2026-05-03T13:44:30Z</time></trkpt><trkpt lat="44.693126324775754" lon="9.567926002924423"><ele>495.0</ele><time>2026-05-03T13:44:31Z</time></trkpt><trkpt lat="44.69312346912648" lon="9.5677698970718"><ele>495.0</ele><time>2026-05-03T13:44:32Z</time></trkpt><trkpt lat="44.69314932300187" lon="9.567633467936417"><ele>492.2</ele><time>2026-05-03T13:44:33Z</time></trkpt><trkpt lat="44.69322646064504" lon="9.567533058747486"><ele>489.4</ele><time>2026-05-03T13:44:34Z</time></trkpt><trkpt lat="44.693303085519304" lon="9.567481101799448"><ele>486.6</ele><time>2026-05-03T13:44:35Z</time></trkpt><trkpt lat="44.693387432569416" lon="9.567457365216143"><ele>483.8</ele><time>2026-05-03T13:44:36Z</time></trkpt><trkpt lat="44.69347871537431" lon="9.56742506897369"><ele>481.0</ele><time>2026-05-03T13:44:37Z</time></trkpt><trkpt lat="44.69358289316828" lon="9.56742340934992"><ele>481.0</ele><time>2026-05-03T13:44:38Z</time></trkpt><trkpt lat="44.69368919483847" lon="9.56743415827485"><ele>481.0</ele><time>2026-05-03T13:44:39Z</time></trkpt><trkpt lat="44.69380238063945" lon="9.567469152237441"><ele>481.0</ele><time>2026-05-03T13:44:40Z</time></trkpt><trkpt lat="44.69391348808431" lon="9.567539448502783"><ele>481.0</ele><time>2026-05-03T13:44:41Z</time></trkpt><trkpt lat="44.69402852359142" lon="9.567590937307548"><ele>481.0</ele><time>2026-05-03T13:44:42Z</time></trkpt><trkpt lat="44.69414590438324" lon="9.567598978409919"><ele>481.0</ele><time>2026-05-03T13:44:43Z</time></trkpt><trkpt lat="44.69424968644433" lon="9.567564494133995"><ele>481.0</ele><time>2026-05-03T13:44:44Z</time></trkpt><trkpt lat="44.694337890610946" lon="9.567515239327395"><ele>481.0</ele><time>2026-05-03T13:44:45Z</time></trkpt><trkpt lat="44.69441922745894" lon="9.567487348559412"><ele>481.0</ele><time>2026-05-03T13:44:46Z</time></trkpt><trkpt lat="44.69451838681058" lon="9.567473167389126"><ele>480.20000000000005</ele><time>2026-05-03T13:44:47Z</time></trkpt><trkpt lat="44.694625566965875" lon="9.567470177768385"><ele>479.40000000000003</ele><time>2026-05-03T13:44:48Z</time></trkpt><trkpt lat="44.69473201085176" lon="9.567495746794616"><ele>478.6</ele><time>2026-05-03T13:44:49Z</time></trkpt><trkpt lat="44.69483450349469" lon="9.567569700140508"><ele>477.8</ele><time>2026-05-03T13:44:50Z</time></trkpt><trkpt lat="44.69491457129733" lon="9.567669224371048"><ele>477.0</ele><time>2026-05-03T13:44:51Z</time></trkpt><trkpt lat="44.69497338837683" lon="9.567777642531683"><ele>477.6</ele><time>2026-05-03T13:44:52Z</time></trkpt><trkpt lat="44.69503782906945" lon="9.567878368562715"><ele>478.20000000000005</ele><time>2026-05-03T13:44:53Z</time></trkpt><trkpt lat="44.69511064843995" lon="9.567976039324822"><ele>478.8</ele><time>2026-05-03T13:44:54Z</time></trkpt><trkpt lat="44.69518925001088" lon="9.568076513165183"><ele>479.4</ele><time>2026-05-03T13:44:55Z</time></trkpt><trkpt lat="44.69528071516368" lon="9.568158631639406"><ele>480.0</ele><time>2026-05-03T13:44:56Z</time></trkpt><trkpt lat="44.69538712738467" lon="9.568221101878134"><ele>480.0</ele><time>2026-05-03T13:44:57Z</time></trkpt><trkpt lat="44.69550076569849" lon="9.568256915547058"><ele>480.0</ele><time>2026-05-03T13:44:58Z</time></trkpt><trkpt lat="44.69560710189476" lon="9.5682730496188"><ele>480.0</ele><time>2026-05-03T13:44:59Z</time></trkpt><trkpt lat="44.69569712116574" lon="9.568276524637213"><ele>480.0</ele><time>2026-05-03T13:45:00Z</time></trkpt><trkpt lat="44.69578547101263" lon="9.568259033645097"><ele>480.0</ele><time>2026-05-03T13:45:01Z</time></trkpt><trkpt lat="44.69588291047408" lon="9.568250533346921"><ele>480.0</ele><time>2026-05-03T13:45:02Z</time></trkpt><trkpt lat="44.695989493161925" lon="9.56821840648244"><ele>480.0</ele><time>2026-05-03T13:45:03Z</time></trkpt><trkpt lat="44.69610082251328" lon="9.568177050220996"><ele>480.0</ele><time>2026-05-03T13:45:04Z</time></trkpt><trkpt lat="44.69621146384467" lon="9.568139699215017"><ele>480.0</ele><time>2026-05-03T13:45:05Z</time></trkpt><trkpt lat="44.69631879286146" lon="9.568113895032482"><ele>480.0</ele><time>2026-05-03T13:45:06Z</time></trkpt><trkpt lat="44.69642024243733" lon="9.568091676831271"><ele>479.8</ele><time>2026-05-03T13:45:07Z</time></trkpt><trkpt lat="44.69652458873849" lon="9.56807681407897"><ele>479.6</ele><time>2026-05-03T13:45:08Z</time></trkpt><trkpt lat="44.69663074973577" lon="9.56810828358695"><ele>479.4</ele><time>2026-05-03T13:45:09Z</time></trkpt><trkpt lat="44.69673134507622" lon="9.568173677287346"><ele>479.2</ele><time>2026-05-03T13:45:10Z</time></trkpt><trkpt lat="44.696816027898244" lon="9.568252269386079"><ele>479.0</ele><time>2026-05-03T13:45:11Z</time></trkpt><trkpt lat="44.6968968809818" lon="9.56833311265252"><ele>478.4</ele><time>2026-05-03T13:45:12Z</time></trkpt><trkpt lat="44.69698193238656" lon="9.568405998896303"><ele>477.79999999999995</ele><time>2026-05-03T13:45:13Z</time></trkpt><trkpt lat="44.697066506812035" lon="9.568463207720155"><ele>477.20000000000005</ele><time>2026-05-03T13:45:14Z</time></trkpt><trkpt lat="44.69715553233878" lon="9.568510253475472"><ele>476.6</ele><time>2026-05-03T13:45:15Z</time></trkpt><trkpt lat="44.69724095928863" lon="9.568543444417395"><ele>476.0</ele><time>2026-05-03T13:45:16Z</time></trkpt><trkpt lat="44.69734278117204" lon="9.56856415459484"><ele>476.0</ele><time>2026-05-03T13:45:17Z</time></trkpt><trkpt lat="44.69745337911016" lon="9.568555067718934"><ele>476.0</ele><time>2026-05-03T13:45:18Z</time></trkpt><trkpt lat="44.69756868205704" lon="9.568550589661937"><ele>476.0</ele><time>2026-05-03T13:45:19Z</time></trkpt><trkpt lat="44.69768109404822" lon="9.568585123576664"><ele>476.0</ele><time>2026-05-03T13:45:20Z</time></trkpt><trkpt lat="44.69778638822478" lon="9.56863690548603"><ele>477.4</ele><time>2026-05-03T13:45:21Z</time></trkpt><trkpt lat="44.69788096202458" lon="9.568660596429677"><ele>478.8</ele><time>2026-05-03T13:45:22Z</time></trkpt><trkpt lat="44.69797626908956" lon="9.568652127415861"><ele>480.19999999999993</ele><time>2026-05-03T13:45:23Z</time></trkpt><trkpt lat="44.69806768335262" lon="9.568588041412509"><ele>481.59999999999997</ele><time>2026-05-03T13:45:24Z</time></trkpt><trkpt lat="44.69814457283432" lon="9.56848048523782"><ele>483.0</ele><time>2026-05-03T13:45:25Z</time></trkpt><trkpt lat="44.69819931348121" lon="9.568348533729141"><ele>483.0</ele><time>2026-05-03T13:45:26Z</time></trkpt><trkpt lat="44.6982515057586" lon="9.568218803227678"><ele>482.99999999999994</ele><time>2026-05-03T13:45:27Z</time></trkpt><trkpt lat="44.69831292692184" lon="9.568106523148042"><ele>482.99999999999994</ele><time>2026-05-03T13:45:28Z</time></trkpt><trkpt lat="44.698385097371556" lon="9.567998454005412"><ele>483.0</ele><time>2026-05-03T13:45:29Z</time></trkpt><trkpt lat="44.69847479969032" lon="9.567902018055795"><ele>483.0</ele><time>2026-05-03T13:45:30Z</time></trkpt><trkpt lat="44.698579562499944" lon="9.567822010715824"><ele>482.59999999999997</ele><time>2026-05-03T13:45:31Z</time></trkpt><trkpt lat="44.698681029504094" lon="9.56777467339808"><ele>482.19999999999993</ele><time>2026-05-03T13:45:32Z</time></trkpt><trkpt lat="44.69877495561806" lon="9.567797026246085"><ele>481.8</ele><time>2026-05-03T13:45:33Z</time></trkpt><trkpt lat="44.69886859787166" lon="9.567836603710793"><ele>481.4</ele><time>2026-05-03T13:45:34Z</time></trkpt><trkpt lat="44.69897704248422" lon="9.567872032463624"><ele>481.0</ele><time>2026-05-03T13:45:35Z</time></trkpt><trkpt lat="44.69907222639751" lon="9.567928925459675"><ele>481.0</ele><time>2026-05-03T13:45:36Z</time></trkpt><trkpt lat="44.69915021895205" lon="9.567994324776894"><ele>481.0</ele><time>2026-05-03T13:45:37Z</time></trkpt><trkpt lat="44.6992069112872" lon="9.568097585562962"><ele>481.0</ele><time>2026-05-03T13:45:38Z</time></trkpt><trkpt lat="44.699244572628906" lon="9.568225424311334"><ele>481.0</ele><time>2026-05-03T13:45:39Z</time></trkpt><trkpt lat="44.69926840686586" lon="9.568364702886724"><ele>481.0</ele><time>2026-05-03T13:45:40Z</time></trkpt><trkpt lat="44.6992949928399" lon="9.568510975476128"><ele>481.0</ele><time>2026-05-03T13:45:41Z</time></trkpt><trkpt lat="44.699331030937614" lon="9.568649881124847"><ele>481.0</ele><time>2026-05-03T13:45:42Z</time></trkpt><trkpt lat="44.69938355733711" lon="9.56877750520682"><ele>481.0</ele><time>2026-05-03T13:45:43Z</time></trkpt><trkpt lat="44.69946388457475" lon="9.568892243059068"><ele>481.0</ele><time>2026-05-03T13:45:44Z</time></trkpt><trkpt lat="44.69956655413583" lon="9.568969548322183"><ele>481.0</ele><time>2026-05-03T13:45:45Z</time></trkpt><trkpt lat="44.69967726540163" lon="9.569026382385953"><ele>481.25</ele><time>2026-05-03T13:45:46Z</time></trkpt><trkpt lat="44.6997878237636" lon="9.569086641599668"><ele>481.5</ele><time>2026-05-03T13:45:47Z</time></trkpt><trkpt lat="44.69990430150449" lon="9.569163858738596"><ele>481.75</ele><time>2026-05-03T13:45:48Z</time></trkpt><trkpt lat="44.700015697538234" lon="9.569220313400223"><ele>482.0</ele><time>2026-05-03T13:45:49Z</time></trkpt><trkpt lat="44.70012663139238" lon="9.569276431010532"><ele>482.0</ele><time>2026-05-03T13:45:50Z</time></trkpt><trkpt lat="44.7002438853663" lon="9.569308162438203"><ele>482.0</ele><time>2026-05-03T13:45:51Z</time></trkpt><trkpt lat="44.7003532856575" lon="9.569306932619956"><ele>482.0</ele><time>2026-05-03T13:45:52Z</time></trkpt><trkpt lat="44.70046462746041" lon="9.56930507959767"><ele>482.0</ele><time>2026-05-03T13:45:53Z</time></trkpt><trkpt lat="44.70057726275425" lon="9.56930594354035"><ele>483.8</ele><time>2026-05-03T13:45:54Z</time></trkpt><trkpt lat="44.700683507382315" lon="9.569340411323603"><ele>485.6</ele><time>2026-05-03T13:45:55Z</time></trkpt><trkpt lat="44.7007803832434" lon="9.56940120968839"><ele>487.40000000000003</ele><time>2026-05-03T13:45:56Z</time></trkpt><trkpt lat="44.70088183215072" lon="9.569475311878584"><ele>489.20000000000005</ele><time>2026-05-03T13:45:57Z</time></trkpt><trkpt lat="44.700975741553336" lon="9.569554333447257"><ele>491.0</ele><time>2026-05-03T13:45:58Z</time></trkpt><trkpt lat="44.70106651563305" lon="9.56960295832634"><ele>489.4</ele><time>2026-05-03T13:45:59Z</time></trkpt><trkpt lat="44.701169621775875" lon="9.569612959407399"><ele>487.8</ele><time>2026-05-03T13:46:00Z</time></trkpt><trkpt lat="44.7012716265705" lon="9.56959316077977"><ele>486.19999999999993</ele><time>2026-05-03T13:46:01Z</time></trkpt><trkpt lat="44.70135210655627" lon="9.569491235946733"><ele>484.59999999999997</ele><time>2026-05-03T13:46:02Z</time></trkpt><trkpt lat="44.7014301964806" lon="9.569386672531627"><ele>483.0</ele><time>2026-05-03T13:46:03Z</time></trkpt><trkpt lat="44.70150680441278" lon="9.569263069861604"><ele>480.2</ele><time>2026-05-03T13:46:04Z</time></trkpt><trkpt lat="44.70158790437015" lon="9.569152931766858"><ele>477.4</ele><time>2026-05-03T13:46:05Z</time></trkpt><trkpt lat="44.70168115155548" lon="9.569096475404502"><ele>474.59999999999997</ele><time>2026-05-03T13:46:06Z</time></trkpt><trkpt lat="44.701773467399676" lon="9.569098912650636"><ele>471.79999999999995</ele><time>2026-05-03T13:46:07Z</time></trkpt><trkpt lat="44.70187039525664" lon="9.569135223361469"><ele>469.0</ele><time>2026-05-03T13:46:08Z</time></trkpt><trkpt lat="44.70197023803453" lon="9.569196233157305"><ele>467.5</ele><time>2026-05-03T13:46:09Z</time></trkpt><trkpt lat="44.70207880511062" lon="9.569252875233053"><ele>466.0</ele><time>2026-05-03T13:46:10Z</time></trkpt><trkpt lat="44.70219716464609" lon="9.569300368308545"><ele>464.5</ele><time>2026-05-03T13:46:11Z</time></trkpt><trkpt lat="44.702314649858884" lon="9.569351671085625"><ele>463.0</ele><time>2026-05-03T13:46:12Z</time></trkpt><trkpt lat="44.702422901488696" lon="9.569393133590118"><ele>463.0</ele><time>2026-05-03T13:46:13Z</time></trkpt><trkpt lat="44.7025238011736" lon="9.569414814631065"><ele>462.99999999999994</ele><time>2026-05-03T13:46:14Z</time></trkpt><trkpt lat="44.70262588560032" lon="9.56945184336264"><ele>462.99999999999994</ele><time>2026-05-03T13:46:15Z</time></trkpt><trkpt lat="44.702743200377924" lon="9.569455839317948"><ele>463.0</ele><time>2026-05-03T13:46:16Z</time></trkpt><trkpt lat="44.702865029079334" lon="9.569422587762036"><ele>463.0</ele><time>2026-05-03T13:46:17Z</time></trkpt><trkpt lat="44.702982188542315" lon="9.569397034729503"><ele>462.4</ele><time>2026-05-03T13:46:18Z</time></trkpt><trkpt lat="44.70308719528649" lon="9.569369914525993"><ele>461.79999999999995</ele><time>2026-05-03T13:46:19Z</time></trkpt><trkpt lat="44.703186916492896" lon="9.569348006553264"><ele>461.2</ele><time>2026-05-03T13:46:20Z</time></trkpt><trkpt lat="44.70328911497863" lon="9.56932524093489"><ele>460.6</ele><time>2026-05-03T13:46:21Z</time></trkpt><trkpt lat="44.70339212694305" lon="9.569295393678999"><ele>460.0</ele><time>2026-05-03T13:46:22Z</time></trkpt><trkpt lat="44.703502913920296" lon="9.569258811570176"><ele>458.5</ele><time>2026-05-03T13:46:23Z</time></trkpt><trkpt lat="44.703623899311516" lon="9.569251740545427"><ele>457.0</ele><time>2026-05-03T13:46:24Z</time></trkpt><trkpt lat="44.703731851980294" lon="9.569288107134785"><ele>455.5</ele><time>2026-05-03T13:46:25Z</time></trkpt><trkpt lat="44.703835405771194" lon="9.569342247869093"><ele>454.0</ele><time>2026-05-03T13:46:26Z</time></trkpt><trkpt lat="44.70393496346337" lon="9.569419450253811"><ele>454.0</ele><time>2026-05-03T13:46:27Z</time></trkpt><trkpt lat="44.70400577894088" lon="9.569515946362962"><ele>454.0</ele><time>2026-05-03T13:46:28Z</time></trkpt><trkpt lat="44.704053749576694" lon="9.569627374767512"><ele>454.0</ele><time>2026-05-03T13:46:29Z</time></trkpt><trkpt lat="44.704093809399694" lon="9.569730800877231"><ele>454.0</ele><time>2026-05-03T13:46:30Z</time></trkpt><trkpt lat="44.704154075748825" lon="9.569849132430306"><ele>454.0</ele><time>2026-05-03T13:46:31Z</time></trkpt><trkpt lat="44.70421106806716" lon="9.569964755281276"><ele>456.1666666666667</ele><time>2026-05-03T13:46:32Z</time></trkpt><trkpt lat="44.70425582666568" lon="9.570062844140278"><ele>458.33333333333337</ele><time>2026-05-03T13:46:33Z</time></trkpt><trkpt lat="44.704301605103076" lon="9.57015074850943"><ele>460.5</ele><time>2026-05-03T13:46:34Z</time></trkpt><trkpt lat="44.70436276320047" lon="9.570251984844877"><ele>462.66666666666663</ele><time>2026-05-03T13:46:35Z</time></trkpt><trkpt lat="44.704429105126685" lon="9.570342154996892"><ele>464.8333333333333</ele><time>2026-05-03T13:46:36Z</time></trkpt><trkpt lat="44.70450039690967" lon="9.570438520332617"><ele>467.0</ele><time>2026-05-03T13:46:37Z</time></trkpt><trkpt lat="44.70460941516269" lon="9.570476831669607"><ele>467.0</ele><time>2026-05-03T13:46:38Z</time></trkpt><trkpt lat="44.7047228573305" lon="9.570473318333546"><ele>467.00000000000006</ele><time>2026-05-03T13:46:39Z</time></trkpt><trkpt lat="44.70483134662328" lon="9.570431584754397"><ele>467.00000000000006</ele><time>2026-05-03T13:46:40Z</time></trkpt><trkpt lat="44.704920963206995" lon="9.570341829179883"><ele>467.0</ele><time>2026-05-03T13:46:41Z</time></trkpt><trkpt lat="44.704973320527735" lon="9.570203776977568"><ele>467.0</ele><time>2026-05-03T13:46:42Z</time></trkpt><trkpt lat="44.70501451027172" lon="9.570047228337032"><ele>467.0</ele><time>2026-05-03T13:46:43Z</time></trkpt><trkpt lat="44.705048618697056" lon="9.569882204678434"><ele>467.0</ele><time>2026-05-03T13:46:44Z</time></trkpt><trkpt lat="44.70509810684849" lon="9.569734955746558"><ele>467.0</ele><time>2026-05-03T13:46:45Z</time></trkpt><trkpt lat="44.70515952120381" lon="9.569594142496978"><ele>467.0</ele><time>2026-05-03T13:46:46Z</time></trkpt><trkpt lat="44.70523639628303" lon="9.56945904225025"><ele>467.25</ele><time>2026-05-03T13:46:47Z</time></trkpt><trkpt lat="44.70531611835011" lon="9.569323760993187"><ele>467.5</ele><time>2026-05-03T13:46:48Z</time></trkpt><trkpt lat="44.7054034011481" lon="9.569183696474736"><ele>467.75</ele><time>2026-05-03T13:46:49Z</time></trkpt><trkpt lat="44.70547812702949" lon="9.569082639032"><ele>468.0</ele><time>2026-05-03T13:46:50Z</time></trkpt><trkpt lat="44.70554806453121" lon="9.568991207692918"><ele>468.0</ele><time>2026-05-03T13:46:51Z</time></trkpt><trkpt lat="44.70561480085959" lon="9.568913782871808"><ele>468.0</ele><time>2026-05-03T13:46:52Z</time></trkpt><trkpt lat="44.705673126186554" lon="9.568845561679561"><ele>468.0</ele><time>2026-05-03T13:46:53Z</time></trkpt><trkpt lat="44.70572767150003" lon="9.568784148820965"><ele>468.0</ele><time>2026-05-03T13:46:54Z</time></trkpt><trkpt lat="44.70578048743957" lon="9.568715828163269"><ele>468.0</ele><time>2026-05-03T13:46:55Z</time></trkpt><trkpt lat="44.70582238212032" lon="9.568647770059611"><ele>468.0</ele><time>2026-05-03T13:46:56Z</time></trkpt><trkpt lat="44.705894125473776" lon="9.568536657250718"><ele>467.59999999999997</ele><time>2026-05-03T13:46:58Z</time></trkpt><trkpt lat="44.705968217476226" lon="9.568424539931172"><ele>467.19999999999993</ele><time>2026-05-03T13:47:00Z</time></trkpt><trkpt lat="44.70602675564615" lon="9.568322173120109"><ele>466.8</ele><time>2026-05-03T13:47:01Z</time></trkpt><trkpt lat="44.70608810821487" lon="9.568236663161189"><ele>466.4</ele><time>2026-05-03T13:47:02Z</time></trkpt><trkpt lat="44.70618538430651" lon="9.568093931168924"><ele>466.0</ele><time>2026-05-03T13:47:04Z</time></trkpt><trkpt lat="44.70625448285655" lon="9.568012446247431"><ele>466.0</ele><time>2026-05-03T13:47:05Z</time></trkpt><trkpt lat="44.70634282825505" lon="9.567935768409379"><ele>466.0</ele><time>2026-05-03T13:47:07Z</time></trkpt><trkpt lat="44.706441870010785" lon="9.567861433206154"><ele>466.0</ele><time>2026-05-03T13:47:09Z</time></trkpt><trkpt lat="44.70656707766063" lon="9.567819921196216"><ele>466.0</ele><time>2026-05-03T13:47:11Z</time></trkpt><trkpt lat="44.706656324672025" lon="9.567798512305302"><ele>466.0</ele><time>2026-05-03T13:47:12Z</time></trkpt><trkpt lat="44.706757193916665" lon="9.567776794731648"><ele>463.20000000000005</ele><time>2026-05-03T13:47:13Z</time></trkpt><trkpt lat="44.70685623883212" lon="9.567759809507576"><ele>460.40000000000003</ele><time>2026-05-03T13:47:14Z</time></trkpt><trkpt lat="44.70695236884588" lon="9.567741405692999"><ele>457.6</ele><time>2026-05-03T13:47:15Z</time></trkpt><trkpt lat="44.70704924808311" lon="9.567722790645309"><ele>454.8</ele><time>2026-05-03T13:47:16Z</time></trkpt><trkpt lat="44.707151648196096" lon="9.567704970301943"><ele>452.0</ele><time>2026-05-03T13:47:17Z</time></trkpt><trkpt lat="44.70725269011251" lon="9.567690781886467"><ele>452.0</ele><time>2026-05-03T13:47:18Z</time></trkpt><trkpt lat="44.707354781047606" lon="9.567681287900037"><ele>452.00000000000006</ele><time>2026-05-03T13:47:19Z</time></trkpt><trkpt lat="44.70746347899042" lon="9.567673306969787"><ele>452.00000000000006</ele><time>2026-05-03T13:47:20Z</time></trkpt><trkpt lat="44.7075667407355" lon="9.567671620499334"><ele>452.0</ele><time>2026-05-03T13:47:21Z</time></trkpt><trkpt lat="44.707667151012366" lon="9.567680522869741"><ele>452.0</ele><time>2026-05-03T13:47:22Z</time></trkpt><trkpt lat="44.70777340192711" lon="9.567726467397446"><ele>452.6</ele><time>2026-05-03T13:47:23Z</time></trkpt><trkpt lat="44.70786322266048" lon="9.56781001182029"><ele>453.20000000000005</ele><time>2026-05-03T13:47:24Z</time></trkpt><trkpt lat="44.70794622635196" lon="9.567909427980462"><ele>453.8</ele><time>2026-05-03T13:47:25Z</time></trkpt><trkpt lat="44.70802986840996" lon="9.568007548013266"><ele>454.4</ele><time>2026-05-03T13:47:26Z</time></trkpt><trkpt lat="44.70812054328642" lon="9.568093543071983"><ele>455.0</ele><time>2026-05-03T13:47:27Z</time></trkpt><trkpt lat="44.70822478168533" lon="9.568155570198972"><ele>455.0</ele><time>2026-05-03T13:47:28Z</time></trkpt><trkpt lat="44.7083249146392" lon="9.568190113035481"><ele>455.0</ele><time>2026-05-03T13:47:29Z</time></trkpt><trkpt lat="44.70842404841287" lon="9.568201238382642"><ele>455.0</ele><time>2026-05-03T13:47:30Z</time></trkpt><trkpt lat="44.708526921632924" lon="9.568200035110657"><ele>455.0</ele><time>2026-05-03T13:47:31Z</time></trkpt><trkpt lat="44.708631350391535" lon="9.568166832604613"><ele>455.0</ele><time>2026-05-03T13:47:32Z</time></trkpt><trkpt lat="44.708730394135245" lon="9.568107036254137"><ele>453.0</ele><time>2026-05-03T13:47:33Z</time></trkpt><trkpt lat="44.708819545845174" lon="9.568036645867476"><ele>451.0</ele><time>2026-05-03T13:47:34Z</time></trkpt><trkpt lat="44.70891878938649" lon="9.567975217336018"><ele>449.0</ele><time>2026-05-03T13:47:35Z</time></trkpt><trkpt lat="44.70901889696087" lon="9.567948939272416"><ele>447.0</ele><time>2026-05-03T13:47:36Z</time></trkpt><trkpt lat="44.70912599284794" lon="9.567978320805604"><ele>445.0</ele><time>2026-05-03T13:47:37Z</time></trkpt><trkpt lat="44.70923200040439" lon="9.568046965195748"><ele>445.0</ele><time>2026-05-03T13:47:38Z</time></trkpt><trkpt lat="44.70933725420279" lon="9.5681430872779"><ele>445.0</ele><time>2026-05-03T13:47:39Z</time></trkpt><trkpt lat="44.70944020552431" lon="9.568237302182558"><ele>445.0</ele><time>2026-05-03T13:47:40Z</time></trkpt><trkpt lat="44.709543255540616" lon="9.568324297006427"><ele>445.0</ele><time>2026-05-03T13:47:41Z</time></trkpt><trkpt lat="44.709650565699" lon="9.568398835213493"><ele>445.6</ele><time>2026-05-03T13:47:42Z</time></trkpt><trkpt lat="44.70975322769933" lon="9.568459427501766"><ele>446.2</ele><time>2026-05-03T13:47:43Z</time></trkpt><trkpt lat="44.709854715049" lon="9.568517006441049"><ele>446.79999999999995</ele><time>2026-05-03T13:47:44Z</time></trkpt><trkpt lat="44.709956332551066" lon="9.568575062344001"><ele>447.4</ele><time>2026-05-03T13:47:45Z</time></trkpt><trkpt lat="44.71005659473784" lon="9.568641990159017"><ele>448.0</ele><time>2026-05-03T13:47:46Z</time></trkpt><trkpt lat="44.71015326491899" lon="9.568708644201408"><ele>446.79999999999995</ele><time>2026-05-03T13:47:47Z</time></trkpt><trkpt lat="44.71024666402176" lon="9.568771073537729"><ele>445.59999999999997</ele><time>2026-05-03T13:47:48Z</time></trkpt><trkpt lat="44.71032751189954" lon="9.568839077344164"><ele>444.40000000000003</ele><time>2026-05-03T13:47:49Z</time></trkpt><trkpt lat="44.71040757743024" lon="9.568927329990268"><ele>443.20000000000005</ele><time>2026-05-03T13:47:50Z</time></trkpt><trkpt lat="44.710483994860816" lon="9.569030367331406"><ele>442.0</ele><time>2026-05-03T13:47:51Z</time></trkpt><trkpt lat="44.71054959426655" lon="9.569136215391628"><ele>442.0</ele><time>2026-05-03T13:47:52Z</time></trkpt><trkpt lat="44.71061732515352" lon="9.569237954024713"><ele>442.00000000000006</ele><time>2026-05-03T13:47:53Z</time></trkpt><trkpt lat="44.71068012994821" lon="9.569334824695147"><ele>442.00000000000006</ele><time>2026-05-03T13:47:54Z</time></trkpt><trkpt lat="44.710741214949444" lon="9.569434534643879"><ele>442.0</ele><time>2026-05-03T13:47:55Z</time></trkpt><trkpt lat="44.7108017355529" lon="9.569536016622047"><ele>442.0</ele><time>2026-05-03T13:47:56Z</time></trkpt><trkpt lat="44.71085297698098" lon="9.56962292340216"><ele>442.6</ele><time>2026-05-03T13:47:57Z</time></trkpt><trkpt lat="44.71091370709838" lon="9.569714509244792"><ele>443.20000000000005</ele><time>2026-05-03T13:47:58Z</time></trkpt><trkpt lat="44.71098385107317" lon="9.569802852423567"><ele>443.8</ele><time>2026-05-03T13:47:59Z</time></trkpt><trkpt lat="44.711062899255275" lon="9.569892354785965"><ele>444.4</ele><time>2026-05-03T13:48:00Z</time></trkpt><trkpt lat="44.7111513040128" lon="9.569966672979714"><ele>445.0</ele><time>2026-05-03T13:48:01Z</time></trkpt><trkpt lat="44.71124656915362" lon="9.570028028415482"><ele>442.8</ele><time>2026-05-03T13:48:02Z</time></trkpt><trkpt lat="44.711336015175306" lon="9.570070626111077"><ele>440.6</ele><time>2026-05-03T13:48:03Z</time></trkpt><trkpt lat="44.71143938584278" lon="9.570091865103661"><ele>438.4</ele><time>2026-05-03T13:48:04Z</time></trkpt><trkpt lat="44.71155222694337" lon="9.5700868232295"><ele>436.2</ele><time>2026-05-03T13:48:05Z</time></trkpt><trkpt lat="44.711659258414855" lon="9.570040710614938"><ele>434.0</ele><time>2026-05-03T13:48:06Z</time></trkpt><trkpt lat="44.71174830112332" lon="9.569972444391107"><ele>434.0</ele><time>2026-05-03T13:48:07Z</time></trkpt><trkpt lat="44.71182724365239" lon="9.569890533181843"><ele>434.0</ele><time>2026-05-03T13:48:08Z</time></trkpt><trkpt lat="44.71191217936443" lon="9.569800698515355"><ele>434.0</ele><time>2026-05-03T13:48:09Z</time></trkpt><trkpt lat="44.71199326662009" lon="9.569709222837467"><ele>434.0</ele><time>2026-05-03T13:48:10Z</time></trkpt><trkpt lat="44.71207419883281" lon="9.569615484592681"><ele>434.0</ele><time>2026-05-03T13:48:11Z</time></trkpt><trkpt lat="44.712150370682686" lon="9.569531730721163"><ele>432.79999999999995</ele><time>2026-05-03T13:48:12Z</time></trkpt><trkpt lat="44.712224853241715" lon="9.569449576092095"><ele>431.59999999999997</ele><time>2026-05-03T13:48:13Z</time></trkpt><trkpt lat="44.71230108839799" lon="9.569361960630511"><ele>430.4</ele><time>2026-05-03T13:48:14Z</time></trkpt><trkpt lat="44.71237879502868" lon="9.569276948943733"><ele>429.2</ele><time>2026-05-03T13:48:15Z</time></trkpt><trkpt lat="44.71245063968617" lon="9.56919376477022"><ele>428.0</ele><time>2026-05-03T13:48:16Z</time></trkpt><trkpt lat="44.71252463558853" lon="9.569109567402782"><ele>427.99999999999994</ele><time>2026-05-03T13:48:17Z</time></trkpt><trkpt lat="44.712592175050496" lon="9.569034522400042"><ele>428.0</ele><time>2026-05-03T13:48:18Z</time></trkpt><trkpt lat="44.71266284050869" lon="9.568960155647781"><ele>428.0</ele><time>2026-05-03T13:48:19Z</time></trkpt><trkpt lat="44.7127403157186" lon="9.568905490132106"><ele>428.0</ele><time>2026-05-03T13:48:20Z</time></trkpt><trkpt lat="44.71282616426091" lon="9.568873144136603"><ele>427.99999999999994</ele><time>2026-05-03T13:48:21Z</time></trkpt><trkpt lat="44.712911549250244" lon="9.568861844442852"><ele>428.0</ele><time>2026-05-03T13:48:22Z</time></trkpt><trkpt lat="44.71300006419488" lon="9.568868780721598"><ele>429.42857142857144</ele><time>2026-05-03T13:48:23Z</time></trkpt><trkpt lat="44.713072980351136" lon="9.56888535260083"><ele>430.8571428571429</ele><time>2026-05-03T13:48:24Z</time></trkpt><trkpt lat="44.713140776149515" lon="9.568903368371513"><ele>432.28571428571433</ele><time>2026-05-03T13:48:25Z</time></trkpt><trkpt lat="44.7132102211492" lon="9.568928018788819"><ele>433.7142857142857</ele><time>2026-05-03T13:48:26Z</time></trkpt><trkpt lat="44.71327386392284" lon="9.568961725157582"><ele>435.1428571428571</ele><time>2026-05-03T13:48:27Z</time></trkpt><trkpt lat="44.71332951201054" lon="9.56900474126468"><ele>436.5714285714286</ele><time>2026-05-03T13:48:28Z</time></trkpt><trkpt lat="44.71338408043619" lon="9.569058896014695"><ele>438.0</ele><time>2026-05-03T13:48:29Z</time></trkpt><trkpt lat="44.71343933452195" lon="9.569124882421143"><ele>438.0</ele><time>2026-05-03T13:48:30Z</time></trkpt><trkpt lat="44.713483996881074" lon="9.569188133862221"><ele>437.99999999999994</ele><time>2026-05-03T13:48:31Z</time></trkpt><trkpt lat="44.713522684491664" lon="9.569317999027646"><ele>437.99999999999994</ele><time>2026-05-03T13:48:33Z</time></trkpt><trkpt lat="44.71362750751593" lon="9.569202801276528"><ele>438.0</ele><time>2026-05-03T13:49:25Z</time></trkpt><trkpt lat="44.71374277212664" lon="9.569265636900916"><ele>438.0</ele><time>2026-05-03T13:49:36Z</time></trkpt><trkpt lat="44.71365222640051" lon="9.56923343373349"><ele>438.0</ele><time>2026-05-03T13:50:12Z</time></trkpt><trkpt lat="44.71362944838364" lon="9.569150727810378"><ele>438.0</ele><time>2026-05-03T13:50:34Z</time></trkpt><trkpt lat="44.71355717780069" lon="9.569109712741739"><ele>438.0</ele><time>2026-05-03T13:52:06Z</time></trkpt><trkpt lat="44.71346057086361" lon="9.568991265934057"><ele>438.0</ele><time>2026-05-03T13:52:08Z</time></trkpt><trkpt lat="44.713394612134444" lon="9.56895059446436"><ele>438.0</ele><time>2026-05-03T13:52:09Z</time></trkpt><trkpt lat="44.713327613844854" lon="9.568914242860524"><ele>438.0</ele><time>2026-05-03T13:52:11Z</time></trkpt><trkpt lat="44.71326278987894" lon="9.568879259633471"><ele>438.0</ele><time>2026-05-03T13:52:25Z</time></trkpt><trkpt lat="44.7131888769987" lon="9.568754422918468"><ele>437.99999999999994</ele><time>2026-05-03T13:52:27Z</time></trkpt><trkpt lat="44.71315536904849" lon="9.568646410115209"><ele>437.99999999999994</ele><time>2026-05-03T13:52:28Z</time></trkpt><trkpt lat="44.71313910516644" lon="9.568502949667648"><ele>438.0</ele><time>2026-05-03T13:52:29Z</time></trkpt><trkpt lat="44.71310769802085" lon="9.568375061009785"><ele>438.0</ele><time>2026-05-03T13:52:30Z</time></trkpt><trkpt lat="44.71308034739742" lon="9.56824647264174"><ele>440.1666666666667</ele><time>2026-05-03T13:52:31Z</time></trkpt><trkpt lat="44.713040448240214" lon="9.568120719877017"><ele>442.33333333333337</ele><time>2026-05-03T13:52:32Z</time></trkpt><trkpt lat="44.712991045170284" lon="9.568032776927662"><ele>444.5</ele><time>2026-05-03T13:52:33Z</time></trkpt><trkpt lat="44.71293563359437" lon="9.567984274337242"><ele>446.6666666666667</ele><time>2026-05-03T13:52:34Z</time></trkpt><trkpt lat="44.7128428933361" lon="9.567921751100359"><ele>448.83333333333337</ele><time>2026-05-03T13:52:36Z</time></trkpt><trkpt lat="44.712775348571334" lon="9.567818248268738"><ele>451.0</ele><time>2026-05-03T13:52:38Z</time></trkpt><trkpt lat="44.7128091625873" lon="9.567659900518418"><ele>452.6</ele><time>2026-05-03T13:52:40Z</time></trkpt><trkpt lat="44.71286965592715" lon="9.567582891962152"><ele>454.20000000000005</ele><time>2026-05-03T13:52:41Z</time></trkpt><trkpt lat="44.712931240859355" lon="9.567508105767205"><ele>455.79999999999995</ele><time>2026-05-03T13:52:42Z</time></trkpt><trkpt lat="44.71299595737389" lon="9.567416265557108"><ele>457.4</ele><time>2026-05-03T13:52:43Z</time></trkpt><trkpt lat="44.713056208664625" lon="9.56730252417289"><ele>459.0</ele><time>2026-05-03T13:52:44Z</time></trkpt><trkpt lat="44.7131092502596" lon="9.567171480171725"><ele>459.0</ele><time>2026-05-03T13:52:45Z</time></trkpt><trkpt lat="44.713130623010024" lon="9.56704397739036"><ele>459.0</ele><time>2026-05-03T13:52:46Z</time></trkpt><trkpt lat="44.71311716941364" lon="9.566933136751457"><ele>459.0</ele><time>2026-05-03T13:52:47Z</time></trkpt><trkpt lat="44.71309130979126" lon="9.56683890502265"><ele>459.0</ele><time>2026-05-03T13:52:48Z</time></trkpt><trkpt lat="44.7130545753997" lon="9.566697858477323"><ele>459.0</ele><time>2026-05-03T13:52:50Z</time></trkpt><trkpt lat="44.71303155621838" lon="9.566613423979755"><ele>459.0</ele><time>2026-05-03T13:52:51Z</time></trkpt><trkpt lat="44.71300694946026" lon="9.56652018509289"><ele>458.3333333333333</ele><time>2026-05-03T13:52:52Z</time></trkpt><trkpt lat="44.71298308304749" lon="9.566428366633643"><ele>457.66666666666663</ele><time>2026-05-03T13:52:53Z</time></trkpt><trkpt lat="44.71295945596341" lon="9.566305847148978"><ele>457.0</ele><time>2026-05-03T13:52:55Z</time></trkpt><trkpt lat="44.71296977919188" lon="9.56620598207764"><ele>456.3333333333333</ele><time>2026-05-03T13:53:01Z</time></trkpt><trkpt lat="44.71295589742623" lon="9.566117041939043"><ele>455.66666666666663</ele><time>2026-05-03T13:53:02Z</time></trkpt><trkpt lat="44.7129552464897" lon="9.565966406675404"><ele>455.0</ele><time>2026-05-03T13:53:03Z</time></trkpt><trkpt lat="44.7129848532679" lon="9.565799036778941"><ele>455.0</ele><time>2026-05-03T13:53:04Z</time></trkpt><trkpt lat="44.71303359526559" lon="9.5656533093848"><ele>455.0</ele><time>2026-05-03T13:53:05Z</time></trkpt><trkpt lat="44.71307190127601" lon="9.56554683994531"><ele>455.0</ele><time>2026-05-03T13:53:06Z</time></trkpt><trkpt lat="44.71309601524175" lon="9.565429086716001"><ele>455.0</ele><time>2026-05-03T13:53:07Z</time></trkpt><trkpt lat="44.713121727419406" lon="9.565283745755846"><ele>455.0</ele><time>2026-05-03T13:53:08Z</time></trkpt><trkpt lat="44.713108820404535" lon="9.565188494794105"><ele>457.3333333333333</ele><time>2026-05-03T13:53:09Z</time></trkpt><trkpt lat="44.7131066035191" lon="9.565071366743656"><ele>459.66666666666663</ele><time>2026-05-03T13:53:10Z</time></trkpt><trkpt lat="44.71307682083353" lon="9.564989643465438"><ele>462.0</ele><time>2026-05-03T13:53:11Z</time></trkpt><trkpt lat="44.71343467327522" lon="9.564814819553687"><ele>462.0</ele><time>2026-05-03T13:53:12Z</time></trkpt><trkpt lat="44.713442778722786" lon="9.564673530778784"><ele>462.0</ele><time>2026-05-03T13:53:13Z</time></trkpt><trkpt lat="44.71343976365126" lon="9.564560675688723"><ele>462.0</ele><time>2026-05-03T13:53:14Z</time></trkpt><trkpt lat="44.71343185549902" lon="9.564439331579916"><ele>462.0</ele><time>2026-05-03T13:53:15Z</time></trkpt><trkpt lat="44.713444506735144" lon="9.564336914567447"><ele>462.0</ele><time>2026-05-03T13:53:16Z</time></trkpt><trkpt lat="44.71347289363319" lon="9.564227924361553"><ele>462.0</ele><time>2026-05-03T13:53:17Z</time></trkpt><trkpt lat="44.71350048007178" lon="9.564142554258728"><ele>463.5</ele><time>2026-05-03T13:53:18Z</time></trkpt><trkpt lat="44.71355356278547" lon="9.564049121886223"><ele>465.0</ele><time>2026-05-03T13:53:19Z</time></trkpt><trkpt lat="44.71360703618017" lon="9.56397836433851"><ele>466.5</ele><time>2026-05-03T13:53:20Z</time></trkpt><trkpt lat="44.71364811612633" lon="9.563878428554103"><ele>468.0</ele><time>2026-05-03T13:53:21Z</time></trkpt><trkpt lat="44.713664288394426" lon="9.563746116868684"><ele>469.5</ele><time>2026-05-03T13:53:22Z</time></trkpt><trkpt lat="44.71368150162639" lon="9.563617793860624"><ele>471.0</ele><time>2026-05-03T13:53:23Z</time></trkpt><trkpt lat="44.71370786257794" lon="9.563496636878707"><ele>473.3333333333333</ele><time>2026-05-03T13:53:24Z</time></trkpt><trkpt lat="44.71372086967106" lon="9.563385360958035"><ele>475.66666666666663</ele><time>2026-05-03T13:53:25Z</time></trkpt><trkpt lat="44.713739099503016" lon="9.563294852827989"><ele>478.0</ele><time>2026-05-03T13:53:26Z</time></trkpt><trkpt lat="44.713837719433975" lon="9.563269158514906"><ele>480.3333333333333</ele><time>2026-05-03T13:53:28Z</time></trkpt><trkpt lat="44.71389906731036" lon="9.563246460427722"><ele>482.66666666666663</ele><time>2026-05-03T13:53:29Z</time></trkpt><trkpt lat="44.713951544469644" lon="9.563190220488265"><ele>485.0</ele><time>2026-05-03T13:53:30Z</time></trkpt><trkpt lat="44.71402076855028" lon="9.563144103204374"><ele>484.99999999999994</ele><time>2026-05-03T13:53:31Z</time></trkpt><trkpt lat="44.71408944008711" lon="9.563158631297078"><ele>485.0</ele><time>2026-05-03T13:53:32Z</time></trkpt><trkpt lat="44.71415463195317" lon="9.563187367733793"><ele>485.0</ele><time>2026-05-03T13:53:33Z</time></trkpt><trkpt lat="44.71425491595479" lon="9.563222754020057"><ele>485.0</ele><time>2026-05-03T13:53:35Z</time></trkpt><trkpt lat="44.714323547301404" lon="9.56320094376035"><ele>484.99999999999994</ele><time>2026-05-03T13:53:36Z</time></trkpt><trkpt lat="44.714380972296695" lon="9.563156049721112"><ele>485.0</ele><time>2026-05-03T13:53:37Z</time></trkpt><trkpt lat="44.71444505301508" lon="9.56310016954209"><ele>485.99999999999994</ele><time>2026-05-03T13:53:38Z</time></trkpt><trkpt lat="44.714494610425746" lon="9.563038540667785"><ele>487.0</ele><time>2026-05-03T13:53:39Z</time></trkpt><trkpt lat="44.7145399960212" lon="9.562950298496377"><ele>488.0</ele><time>2026-05-03T13:53:40Z</time></trkpt><trkpt lat="44.71457112082129" lon="9.56285279637108"><ele>489.0</ele><time>2026-05-03T13:53:41Z</time></trkpt><trkpt lat="44.71460203678826" lon="9.56276470370817"><ele>489.99999999999994</ele><time>2026-05-03T13:53:42Z</time></trkpt><trkpt lat="44.714645105566234" lon="9.562633370964209"><ele>491.0</ele><time>2026-05-03T13:53:44Z</time></trkpt><trkpt lat="44.71467855065323" lon="9.56254787284223"><ele>493.20000000000005</ele><time>2026-05-03T13:53:45Z</time></trkpt><trkpt lat="44.714700939690864" lon="9.562451912254552"><ele>495.40000000000003</ele><time>2026-05-03T13:53:46Z</time></trkpt><trkpt lat="44.71472051583525" lon="9.562362027245195"><ele>497.6</ele><time>2026-05-03T13:53:47Z</time></trkpt><trkpt lat="44.71477579259178" lon="9.562167763781401"><ele>499.8</ele><time>2026-05-03T13:53:49Z</time></trkpt><trkpt lat="44.71480541188017" lon="9.562068685508185"><ele>502.0</ele><time>2026-05-03T13:53:50Z</time></trkpt><trkpt lat="44.71485924344061" lon="9.561966326038615"><ele>503.6</ele><time>2026-05-03T13:53:51Z</time></trkpt><trkpt lat="44.714919228672485" lon="9.561878599758076"><ele>505.20000000000005</ele><time>2026-05-03T13:53:52Z</time></trkpt><trkpt lat="44.71498754366957" lon="9.561831511680525"><ele>506.8</ele><time>2026-05-03T13:53:53Z</time></trkpt><trkpt lat="44.71509272558236" lon="9.56176385868822"><ele>508.4</ele><time>2026-05-03T13:53:55Z</time></trkpt><trkpt lat="44.715201620830435" lon="9.561666928096992"><ele>510.0</ele><time>2026-05-03T13:53:57Z</time></trkpt><trkpt lat="44.715268861451875" lon="9.5616218869561"><ele>512.1666666666666</ele><time>2026-05-03T13:53:58Z</time></trkpt><trkpt lat="44.7153141541867" lon="9.561549763822164"><ele>514.3333333333334</ele><time>2026-05-03T13:53:59Z</time></trkpt><trkpt lat="44.7153272658627" lon="9.561397275832332"><ele>516.5</ele><time>2026-05-03T13:54:01Z</time></trkpt><trkpt lat="44.715344988185294" lon="9.561257128428704"><ele>518.6666666666667</ele><time>2026-05-03T13:54:03Z</time></trkpt><trkpt lat="44.71535481327555" lon="9.561157299576902"><ele>520.8333333333334</ele><time>2026-05-03T13:54:04Z</time></trkpt><trkpt lat="44.715386315296485" lon="9.561064028032542"><ele>523.0</ele><time>2026-05-03T13:54:05Z</time></trkpt><trkpt lat="44.71543394418388" lon="9.560965971439908"><ele>523.1999999999999</ele><time>2026-05-03T13:54:06Z</time></trkpt><trkpt lat="44.71548792514998" lon="9.5608810184502"><ele>523.4</ele><time>2026-05-03T13:54:07Z</time></trkpt><trkpt lat="44.71558286547064" lon="9.560702335640253"><ele>523.5999999999999</ele><time>2026-05-03T13:54:09Z</time></trkpt><trkpt lat="44.715640677882114" lon="9.5605833200187"><ele>523.8</ele><time>2026-05-03T13:54:10Z</time></trkpt><trkpt lat="44.71567334401262" lon="9.560478926925649"><ele>524.0</ele><time>2026-05-03T13:54:11Z</time></trkpt><trkpt lat="44.715710052985855" lon="9.560403264543602"><ele>525.0</ele><time>2026-05-03T13:54:12Z</time></trkpt><trkpt lat="44.71576146712764" lon="9.560290181601935"><ele>526.0</ele><time>2026-05-03T13:54:14Z</time></trkpt><trkpt lat="44.71587245441145" lon="9.560174954100594"><ele>527.0</ele><time>2026-05-03T13:54:16Z</time></trkpt><trkpt lat="44.7159524330842" lon="9.560108633201882"><ele>528.0</ele><time>2026-05-03T13:54:17Z</time></trkpt><trkpt lat="44.71604340876797" lon="9.56007986773973"><ele>529.0</ele><time>2026-05-03T13:54:18Z</time></trkpt><trkpt lat="44.71613087445573" lon="9.560056894290916"><ele>532.0</ele><time>2026-05-03T13:54:19Z</time></trkpt><trkpt lat="44.71619826531104" lon="9.560003093739166"><ele>535.0</ele><time>2026-05-03T13:54:20Z</time></trkpt><trkpt lat="44.716263969654" lon="9.559900704521468"><ele>538.0</ele><time>2026-05-03T13:54:21Z</time></trkpt><trkpt lat="44.716318028668375" lon="9.559783897539576"><ele>541.0</ele><time>2026-05-03T13:54:22Z</time></trkpt><trkpt lat="44.71636375617045" lon="9.55964674104228"><ele>544.0</ele><time>2026-05-03T13:54:23Z</time></trkpt><trkpt lat="44.71640274642215" lon="9.55954441435544"><ele>543.8333333333334</ele><time>2026-05-03T13:54:24Z</time></trkpt><trkpt lat="44.71645307495901" lon="9.55948250027708"><ele>543.6666666666667</ele><time>2026-05-03T13:54:25Z</time></trkpt><trkpt lat="44.71651237623702" lon="9.55939139213264"><ele>543.5</ele><time>2026-05-03T13:54:26Z</time></trkpt><trkpt lat="44.71655813728189" lon="9.55928936946506"><ele>543.3333333333334</ele><time>2026-05-03T13:54:27Z</time></trkpt><trkpt lat="44.71660632742714" lon="9.559200818504923"><ele>543.1666666666666</ele><time>2026-05-03T13:54:28Z</time></trkpt><trkpt lat="44.716641781436486" lon="9.55910083935495"><ele>543.0</ele><time>2026-05-03T13:54:29Z</time></trkpt><trkpt lat="44.71667064158312" lon="9.558983346839643"><ele>543.0</ele><time>2026-05-03T13:54:30Z</time></trkpt><trkpt lat="44.716660548388866" lon="9.55888118996379"><ele>543.0</ele><time>2026-05-03T13:54:31Z</time></trkpt><trkpt lat="44.716659928079565" lon="9.558693022366624"><ele>543.0</ele><time>2026-05-03T13:54:33Z</time></trkpt><trkpt lat="44.71667567282749" lon="9.55857129671123"><ele>543.0</ele><time>2026-05-03T13:54:34Z</time></trkpt><trkpt lat="44.716653348066465" lon="9.558471157345195"><ele>543.0</ele><time>2026-05-03T13:54:35Z</time></trkpt><trkpt lat="44.716641568302535" lon="9.558356738850096"><ele>543.8333333333334</ele><time>2026-05-03T13:54:36Z</time></trkpt><trkpt lat="44.71662670897209" lon="9.558249505723088"><ele>544.6666666666666</ele><time>2026-05-03T13:54:37Z</time></trkpt><trkpt lat="44.71662775019025" lon="9.558127990805607"><ele>545.5</ele><time>2026-05-03T13:54:38Z</time></trkpt><trkpt lat="44.716645068923185" lon="9.558006253005972"><ele>546.3333333333333</ele><time>2026-05-03T13:54:39Z</time></trkpt><trkpt lat="44.716664341286524" lon="9.557894684777573"><ele>547.1666666666666</ele><time>2026-05-03T13:54:40Z</time></trkpt><trkpt lat="44.716685317612004" lon="9.557809198063199"><ele>548.0</ele><time>2026-05-03T13:54:41Z</time></trkpt><trkpt lat="44.71670211385998" lon="9.557713073363022"><ele>549.4</ele><time>2026-05-03T13:54:42Z</time></trkpt><trkpt lat="44.7167593336114" lon="9.55753956889271"><ele>550.8</ele><time>2026-05-03T13:54:44Z</time></trkpt><trkpt lat="44.71677317978599" lon="9.557411613038859"><ele>552.2</ele><time>2026-05-03T13:54:45Z</time></trkpt><trkpt lat="44.716790718019226" lon="9.557306220394208"><ele>553.6</ele><time>2026-05-03T13:54:46Z</time></trkpt><trkpt lat="44.71681331505059" lon="9.557156651898728"><ele>555.0</ele><time>2026-05-03T13:54:48Z</time></trkpt><trkpt lat="44.71681525384067" lon="9.556993280775428"><ele>556.6666666666666</ele><time>2026-05-03T13:54:50Z</time></trkpt><trkpt lat="44.716832455115664" lon="9.556904258324915"><ele>558.3333333333334</ele><time>2026-05-03T13:54:51Z</time></trkpt><trkpt lat="44.71684781862491" lon="9.556788640947008"><ele>560.0</ele><time>2026-05-03T13:54:52Z</time></trkpt><trkpt lat="44.71686029523698" lon="9.556700942571704"><ele>561.6666666666667</ele><time>2026-05-03T13:54:53Z</time></trkpt><trkpt lat="44.71681318362165" lon="9.556546707757613"><ele>563.3333333333334</ele><time>2026-05-03T13:54:55Z</time></trkpt><trkpt lat="44.71677342594691" lon="9.556463695570612"><ele>565.0</ele><time>2026-05-03T13:54:56Z</time></trkpt><trkpt lat="44.716754290425" lon="9.55636677170186"><ele>565.0</ele><time>2026-05-03T13:54:57Z</time></trkpt><trkpt lat="44.716762243923256" lon="9.556223773238933"><ele>565.0</ele><time>2026-05-03T13:54:59Z</time></trkpt><trkpt lat="44.716791491876506" lon="9.556137587141162"><ele>565.0</ele><time>2026-05-03T13:55:00Z</time></trkpt><trkpt lat="44.716840288681105" lon="9.556038441711664"><ele>565.0</ele><time>2026-05-03T13:55:01Z</time></trkpt><trkpt lat="44.71690862439875" lon="9.55593057862643"><ele>565.0</ele><time>2026-05-03T13:55:02Z</time></trkpt><trkpt lat="44.71697336988229" lon="9.55584907058762"><ele>565.0</ele><time>2026-05-03T13:55:03Z</time></trkpt><trkpt lat="44.716984088838984" lon="9.555718378501057"><ele>567.0</ele><time>2026-05-03T13:55:05Z</time></trkpt><trkpt lat="44.71702530697522" lon="9.555562807440324"><ele>569.0</ele><time>2026-05-03T13:55:07Z</time></trkpt><trkpt lat="44.717064420529034" lon="9.555481205476598"><ele>571.0</ele><time>2026-05-03T13:55:08Z</time></trkpt><trkpt lat="44.71709435525296" lon="9.555400143523613"><ele>573.0</ele><time>2026-05-03T13:55:09Z</time></trkpt><trkpt lat="44.71709982115525" lon="9.555211661803067"><ele>575.0</ele><time>2026-05-03T13:55:11Z</time></trkpt><trkpt lat="44.717092793890146" lon="9.555114493513258"><ele>576.0</ele><time>2026-05-03T13:55:12Z</time></trkpt><trkpt lat="44.717094650105814" lon="9.555009359518678"><ele>577.0</ele><time>2026-05-03T13:55:13Z</time></trkpt><trkpt lat="44.717129769885005" lon="9.554925457790763"><ele>578.0</ele><time>2026-05-03T13:55:14Z</time></trkpt><trkpt lat="44.71718442502618" lon="9.55486277389075"><ele>579.0</ele><time>2026-05-03T13:55:15Z</time></trkpt><trkpt lat="44.71723912350754" lon="9.554811269200288"><ele>580.0</ele><time>2026-05-03T13:55:16Z</time></trkpt><trkpt lat="44.717305582195344" lon="9.554781357413436"><ele>581.0</ele><time>2026-05-03T13:55:17Z</time></trkpt><trkpt lat="44.717386754876294" lon="9.55474485913325"><ele>582.0</ele><time>2026-05-03T13:55:19Z</time></trkpt><trkpt lat="44.71745789791207" lon="9.554779626917203"><ele>582.0</ele><time>2026-05-03T13:55:21Z</time></trkpt><trkpt lat="44.71753327495644" lon="9.554808158660709"><ele>582.0</ele><time>2026-05-03T13:55:23Z</time></trkpt><trkpt lat="44.71759339665822" lon="9.554746186759687"><ele>582.0</ele><time>2026-05-03T13:55:25Z</time></trkpt><trkpt lat="44.71765683361631" lon="9.554621711196615"><ele>582.0</ele><time>2026-05-03T13:55:27Z</time></trkpt><trkpt lat="44.71773269780862" lon="9.554505257964736"><ele>582.0</ele><time>2026-05-03T13:55:29Z</time></trkpt><trkpt lat="44.717778698608356" lon="9.5544431127938"><ele>582.0</ele><time>2026-05-03T13:55:30Z</time></trkpt><trkpt lat="44.71782833664286" lon="9.55436565006058"><ele>586.4</ele><time>2026-05-03T13:55:32Z</time></trkpt><trkpt lat="44.71787296419613" lon="9.554230518133835"><ele>590.8000000000001</ele><time>2026-05-03T13:55:34Z</time></trkpt><trkpt lat="44.71791175253674" lon="9.55411845272561"><ele>595.2</ele><time>2026-05-03T13:55:36Z</time></trkpt><trkpt lat="44.717948383263845" lon="9.554015141562193"><ele>599.6</ele><time>2026-05-03T13:55:38Z</time></trkpt><trkpt lat="44.717971022000995" lon="9.553860974077772"><ele>604.0</ele><time>2026-05-03T13:55:40Z</time></trkpt><trkpt lat="44.718012826362305" lon="9.553757925854715"><ele>605.4</ele><time>2026-05-03T13:55:42Z</time></trkpt><trkpt lat="44.71798549318442" lon="9.55363138038896"><ele>606.8</ele><time>2026-05-03T13:55:44Z</time></trkpt><trkpt lat="44.71798983594077" lon="9.553537300466857"><ele>608.2</ele><time>2026-05-03T13:55:46Z</time></trkpt><trkpt lat="44.71810008599866" lon="9.553307138993683"><ele>609.6</ele><time>2026-05-03T13:55:48Z</time></trkpt><trkpt lat="44.71810002897451" lon="9.553194412611395"><ele>611.0</ele><time>2026-05-03T13:55:49Z</time></trkpt><trkpt lat="44.718068207703894" lon="9.553081105923"><ele>611.0</ele><time>2026-05-03T13:55:50Z</time></trkpt><trkpt lat="44.71808762213868" lon="9.552920106761688"><ele>611.0</ele><time>2026-05-03T13:55:52Z</time></trkpt><trkpt lat="44.71810737997832" lon="9.552762300085995"><ele>611.0</ele><time>2026-05-03T13:55:54Z</time></trkpt><trkpt lat="44.71808586442962" lon="9.552677436632106"><ele>611.0</ele><time>2026-05-03T13:55:55Z</time></trkpt><trkpt lat="44.71796335964866" lon="9.552612895301342"><ele>611.0</ele><time>2026-05-03T13:55:57Z</time></trkpt><trkpt lat="44.71792571125913" lon="9.552520557178742"><ele>612.4</ele><time>2026-05-03T13:55:58Z</time></trkpt><trkpt lat="44.71790701624272" lon="9.552431268600653"><ele>613.8</ele><time>2026-05-03T13:55:59Z</time></trkpt><trkpt lat="44.717941053622475" lon="9.552264912593222"><ele>615.1999999999999</ele><time>2026-05-03T13:56:01Z</time></trkpt><trkpt lat="44.71801671031494" lon="9.552139236259297"><ele>616.6</ele><time>2026-05-03T13:56:03Z</time></trkpt><trkpt lat="44.7180249122953" lon="9.551997548616484"><ele>618.0</ele><time>2026-05-03T13:56:05Z</time></trkpt><trkpt lat="44.71797996827487" lon="9.551913626711443"><ele>618.7142857142858</ele><time>2026-05-03T13:56:07Z</time></trkpt><trkpt lat="44.71795287050739" lon="9.551830565906938"><ele>619.4285714285714</ele><time>2026-05-03T13:56:10Z</time></trkpt><trkpt lat="44.71790564437362" lon="9.551749957990037"><ele>620.1428571428571</ele><time>2026-05-03T13:56:12Z</time></trkpt><trkpt lat="44.717847603388606" lon="9.551700209613422"><ele>620.8571428571429</ele><time>2026-05-03T13:56:13Z</time></trkpt><trkpt lat="44.71778386949497" lon="9.551614020339194"><ele>621.5714285714286</ele><time>2026-05-03T13:56:17Z</time></trkpt><trkpt lat="44.71780284100993" lon="9.551495096614897"><ele>622.2857142857143</ele><time>2026-05-03T13:56:19Z</time></trkpt><trkpt lat="44.71783704213332" lon="9.55141599003066"><ele>623.0</ele><time>2026-05-03T13:56:22Z</time></trkpt><trkpt lat="44.71787024594135" lon="9.551339111095926"><ele>623.0</ele><time>2026-05-03T13:56:32Z</time></trkpt><trkpt lat="44.717900558370864" lon="9.5512112415338"><ele>623.0</ele><time>2026-05-03T13:56:34Z</time></trkpt><trkpt lat="44.71791258117934" lon="9.551105220469088"><ele>623.0</ele><time>2026-05-03T13:56:35Z</time></trkpt><trkpt lat="44.71793884388861" lon="9.550980922852569"><ele>623.0</ele><time>2026-05-03T13:56:36Z</time></trkpt><trkpt lat="44.71801449074209" lon="9.550861808109357"><ele>623.0</ele><time>2026-05-03T13:56:38Z</time></trkpt><trkpt lat="44.71803336362726" lon="9.550726917536393"><ele>624.0</ele><time>2026-05-03T13:56:40Z</time></trkpt><trkpt lat="44.718006413085654" lon="9.550619744446907"><ele>625.0</ele><time>2026-05-03T13:56:52Z</time></trkpt><trkpt lat="44.718026151151335" lon="9.550475365969527"><ele>626.0</ele><time>2026-05-03T13:56:55Z</time></trkpt><trkpt lat="44.718091756265665" lon="9.550377927345961"><ele>627.0</ele><time>2026-05-03T13:56:56Z</time></trkpt><trkpt lat="44.71815430454251" lon="9.55028531285541"><ele>628.0</ele><time>2026-05-03T13:56:57Z</time></trkpt><trkpt lat="44.71821527434742" lon="9.55015601512057"><ele>629.5</ele><time>2026-05-03T13:56:58Z</time></trkpt><trkpt lat="44.71823085095633" lon="9.550045633413966"><ele>631.0</ele><time>2026-05-03T13:56:59Z</time></trkpt><trkpt lat="44.71827833554893" lon="9.549972418468432"><ele>632.5</ele><time>2026-05-03T13:57:01Z</time></trkpt><trkpt lat="44.71832982094743" lon="9.549882884755954"><ele>634.0</ele><time>2026-05-03T13:57:02Z</time></trkpt><trkpt lat="44.71837124817548" lon="9.549809645614864"><ele>635.5</ele><time>2026-05-03T13:57:03Z</time></trkpt><trkpt lat="44.71838635430389" lon="9.549685800135027"><ele>637.0</ele><time>2026-05-03T13:57:05Z</time></trkpt><trkpt lat="44.71837660492922" lon="9.549584872867364"><ele>639.8</ele><time>2026-05-03T13:57:07Z</time></trkpt><trkpt lat="44.71840168546549" lon="9.549492594254628"><ele>642.6</ele><time>2026-05-03T13:57:08Z</time></trkpt><trkpt lat="44.718447876739354" lon="9.549328413850102"><ele>645.4</ele><time>2026-05-03T13:57:10Z</time></trkpt><trkpt lat="44.71850157410139" lon="9.549167493654132"><ele>648.1999999999999</ele><time>2026-05-03T13:57:12Z</time></trkpt><trkpt lat="44.718555886468415" lon="9.54911054772058"><ele>651.0</ele><time>2026-05-03T13:57:13Z</time></trkpt><trkpt lat="44.718626330593416" lon="9.549054386683082"><ele>652.8333333333334</ele><time>2026-05-03T13:57:14Z</time></trkpt><trkpt lat="44.718649224144606" lon="9.548910261024542"><ele>654.6666666666666</ele><time>2026-05-03T13:57:16Z</time></trkpt><trkpt lat="44.71866944573825" lon="9.548822517622986"><ele>656.5</ele><time>2026-05-03T13:57:17Z</time></trkpt><trkpt lat="44.71869962918745" lon="9.548678101337556"><ele>658.3333333333333</ele><time>2026-05-03T13:57:19Z</time></trkpt><trkpt lat="44.7187574483328" lon="9.548549441476927"><ele>660.1666666666666</ele><time>2026-05-03T13:57:21Z</time></trkpt><trkpt lat="44.71880365369988" lon="9.548487503090794"><ele>662.0</ele><time>2026-05-03T13:57:22Z</time></trkpt><trkpt lat="44.718864322100416" lon="9.548342906371182"><ele>663.4000000000001</ele><time>2026-05-03T13:57:24Z</time></trkpt><trkpt lat="44.71891945334444" lon="9.54824312684158"><ele>664.8000000000001</ele><time>2026-05-03T13:57:26Z</time></trkpt><trkpt lat="44.718939287232686" lon="9.548152521445534"><ele>666.2</ele><time>2026-05-03T13:57:28Z</time></trkpt><trkpt lat="44.719038449292555" lon="9.54814161102779"><ele>667.6</ele><time>2026-05-03T13:57:30Z</time></trkpt><trkpt lat="44.719094729021" lon="9.548091794258859"><ele>669.0</ele><time>2026-05-03T13:57:31Z</time></trkpt><trkpt lat="44.71922137963162" lon="9.548021239747904"><ele>669.0</ele><time>2026-05-03T13:57:33Z</time></trkpt><trkpt lat="44.71932385336123" lon="9.547994901775404"><ele>669.0</ele><time>2026-05-03T13:57:34Z</time></trkpt><trkpt lat="44.71938784750322" lon="9.547971625127882"><ele>669.0</ele><time>2026-05-03T13:57:35Z</time></trkpt><trkpt lat="44.71948915358698" lon="9.547928698089539"><ele>669.0</ele><time>2026-05-03T13:57:37Z</time></trkpt><trkpt lat="44.71954850639398" lon="9.54781966731925"><ele>669.0</ele><time>2026-05-03T13:57:45Z</time></trkpt><trkpt lat="44.719564295062035" lon="9.547728217275269"><ele>669.0</ele><time>2026-05-03T13:57:46Z</time></trkpt><trkpt lat="44.71957853422518" lon="9.547630444525897"><ele>673.4000000000001</ele><time>2026-05-03T13:57:47Z</time></trkpt><trkpt lat="44.719597900494854" lon="9.54748107798514"><ele>677.8</ele><time>2026-05-03T13:57:49Z</time></trkpt><trkpt lat="44.71959514136678" lon="9.547371212641448"><ele>682.2</ele><time>2026-05-03T13:58:42Z</time></trkpt><trkpt lat="44.719619162035464" lon="9.547231380749986"><ele>686.5999999999999</ele><time>2026-05-03T13:58:45Z</time></trkpt><trkpt lat="44.71965216913379" lon="9.547084718409057"><ele>691.0</ele><time>2026-05-03T13:58:46Z</time></trkpt><trkpt lat="44.719671190925034" lon="9.546952423657839"><ele>692.4</ele><time>2026-05-03T13:58:47Z</time></trkpt><trkpt lat="44.719694015211104" lon="9.546818220867547"><ele>693.8</ele><time>2026-05-03T13:58:48Z</time></trkpt><trkpt lat="44.71972408248345" lon="9.54672099605473"><ele>695.1999999999999</ele><time>2026-05-03T13:58:49Z</time></trkpt><trkpt lat="44.71978466368504" lon="9.546574763700233"><ele>696.5999999999999</ele><time>2026-05-03T13:58:51Z</time></trkpt><trkpt lat="44.71982254341294" lon="9.546465981707144"><ele>698.0</ele><time>2026-05-03T13:58:52Z</time></trkpt><trkpt lat="44.71983018044903" lon="9.54630643137284"><ele>699.5</ele><time>2026-05-03T13:58:54Z</time></trkpt><trkpt lat="44.71981052236706" lon="9.546175714187491"><ele>701.0</ele><time>2026-05-03T13:58:56Z</time></trkpt><trkpt lat="44.71982712708481" lon="9.546055377925098"><ele>702.5</ele><time>2026-05-03T13:58:57Z</time></trkpt><trkpt lat="44.7198621729338" lon="9.54596183195756"><ele>704.0</ele><time>2026-05-03T13:58:58Z</time></trkpt><trkpt lat="44.719874977518565" lon="9.545868376484739"><ele>705.5</ele><time>2026-05-03T13:58:59Z</time></trkpt><trkpt lat="44.71987774500208" lon="9.545760243029468"><ele>707.0</ele><time>2026-05-03T13:59:00Z</time></trkpt><trkpt lat="44.719898949553944" lon="9.545610423850398"><ele>707.0</ele><time>2026-05-03T13:59:02Z</time></trkpt><trkpt lat="44.71991348455282" lon="9.545502035269294"><ele>707.0</ele><time>2026-05-03T13:59:03Z</time></trkpt><trkpt lat="44.71994779475235" lon="9.545402916016776"><ele>707.0</ele><time>2026-05-03T13:59:04Z</time></trkpt><trkpt lat="44.71998187720758" lon="9.545328425746986"><ele>707.0</ele><time>2026-05-03T13:59:05Z</time></trkpt><trkpt lat="44.72003015801804" lon="9.545255358745305"><ele>707.0</ele><time>2026-05-03T13:59:06Z</time></trkpt><trkpt lat="44.720102233957554" lon="9.5451166550354"><ele>707.0</ele><time>2026-05-03T13:59:08Z</time></trkpt><trkpt lat="44.72011871594766" lon="9.544962328366205"><ele>709.0</ele><time>2026-05-03T13:59:10Z</time></trkpt><trkpt lat="44.72008113253293" lon="9.544840568898476"><ele>711.0</ele><time>2026-05-03T13:59:12Z</time></trkpt><trkpt lat="44.720087582405576" lon="9.544710426114099"><ele>713.0</ele><time>2026-05-03T13:59:14Z</time></trkpt><trkpt lat="44.720111392562245" lon="9.544554126149954"><ele>715.0</ele><time>2026-05-03T13:59:16Z</time></trkpt><trkpt lat="44.72017465137986" lon="9.544446583765644"><ele>717.0</ele><time>2026-05-03T13:59:18Z</time></trkpt><trkpt lat="44.72022072966349" lon="9.544328851660707"><ele>720.4000000000001</ele><time>2026-05-03T13:59:20Z</time></trkpt><trkpt lat="44.72028288808459" lon="9.544187731680685"><ele>723.8000000000001</ele><time>2026-05-03T13:59:22Z</time></trkpt><trkpt lat="44.72036997506225" lon="9.544107702364245"><ele>727.2</ele><time>2026-05-03T13:59:24Z</time></trkpt><trkpt lat="44.720417304021666" lon="9.543988612771125"><ele>730.6</ele><time>2026-05-03T13:59:26Z</time></trkpt><trkpt lat="44.72045364023282" lon="9.543904213157406"><ele>734.0</ele><time>2026-05-03T13:59:27Z</time></trkpt><trkpt lat="44.7205091102063" lon="9.54378359980808"><ele>735.8333333333333</ele><time>2026-05-03T13:59:29Z</time></trkpt><trkpt lat="44.720562200454545" lon="9.543667843527817"><ele>737.6666666666666</ele><time>2026-05-03T13:59:31Z</time></trkpt><trkpt lat="44.7206060631622" lon="9.543505264539606"><ele>739.5</ele><time>2026-05-03T13:59:33Z</time></trkpt><trkpt lat="44.720625338711315" lon="9.543403872852757"><ele>741.3333333333334</ele><time>2026-05-03T13:59:34Z</time></trkpt><trkpt lat="44.720645112455884" lon="9.54330857544957"><ele>743.1666666666667</ele><time>2026-05-03T13:59:35Z</time></trkpt><trkpt lat="44.72064796928569" lon="9.543219798514253"><ele>745.0</ele><time>2026-05-03T13:59:36Z</time></trkpt><trkpt lat="44.72064715350676" lon="9.54305071060663"><ele>745.0</ele><time>2026-05-03T13:59:38Z</time></trkpt><trkpt lat="44.720643379857954" lon="9.542959754732077"><ele>745.0</ele><time>2026-05-03T13:59:39Z</time></trkpt><trkpt lat="44.72063553029363" lon="9.54287177122972"><ele>745.0</ele><time>2026-05-03T13:59:40Z</time></trkpt><trkpt lat="44.72064856993002" lon="9.542705372623931"><ele>745.0</ele><time>2026-05-03T13:59:42Z</time></trkpt><trkpt lat="44.72065395467862" lon="9.542604838092052"><ele>745.0</ele><time>2026-05-03T13:59:43Z</time></trkpt><trkpt lat="44.72063839539827" lon="9.542431505472157"><ele>745.0</ele><time>2026-05-03T13:59:45Z</time></trkpt><trkpt lat="44.72063733353467" lon="9.542338665101777"><ele>747.4</ele><time>2026-05-03T13:59:46Z</time></trkpt><trkpt lat="44.72066476565675" lon="9.542178511273896"><ele>749.8</ele><time>2026-05-03T13:59:48Z</time></trkpt><trkpt lat="44.72068410886501" lon="9.542006390448275"><ele>752.2</ele><time>2026-05-03T13:59:50Z</time></trkpt><trkpt lat="44.72068925241438" lon="9.541911715464943"><ele>754.6</ele><time>2026-05-03T13:59:51Z</time></trkpt><trkpt lat="44.720685717161125" lon="9.541765843274103"><ele>757.0</ele><time>2026-05-03T13:59:53Z</time></trkpt><trkpt lat="44.720687689892934" lon="9.541620692670582"><ele>758.6666666666667</ele><time>2026-05-03T13:59:55Z</time></trkpt><trkpt lat="44.720600046472484" lon="9.541556602437366"><ele>760.3333333333334</ele><time>2026-05-03T13:59:57Z</time></trkpt><trkpt lat="44.7205027242443" lon="9.54148095352841"><ele>762.0</ele><time>2026-05-03T13:59:59Z</time></trkpt><trkpt lat="44.720438725491455" lon="9.54144104082168"><ele>763.6666666666666</ele><time>2026-05-03T14:00:00Z</time></trkpt><trkpt lat="44.72039350300516" lon="9.541378129984432"><ele>765.3333333333333</ele><time>2026-05-03T14:00:01Z</time></trkpt><trkpt lat="44.72040287030656" lon="9.541242206500858"><ele>767.0</ele><time>2026-05-03T14:00:03Z</time></trkpt><trkpt lat="44.72042128957876" lon="9.541153091738531"><ele>768.5</ele><time>2026-05-03T14:00:04Z</time></trkpt><trkpt lat="44.720452543455785" lon="9.541060243431648"><ele>770.0</ele><time>2026-05-03T14:00:05Z</time></trkpt><trkpt lat="44.72050503914748" lon="9.54093051444293"><ele>771.5</ele><time>2026-05-03T14:00:06Z</time></trkpt><trkpt lat="44.72055990813202" lon="9.540827710834993"><ele>773.0</ele><time>2026-05-03T14:00:07Z</time></trkpt><trkpt lat="44.72060538918386" lon="9.54072559503292"><ele>774.5000000000001</ele><time>2026-05-03T14:00:08Z</time></trkpt><trkpt lat="44.72063684778698" lon="9.540622108802713"><ele>776.0</ele><time>2026-05-03T14:00:09Z</time></trkpt><trkpt lat="44.7206626779727" lon="9.540506687682486"><ele>776.0</ele><time>2026-05-03T14:00:10Z</time></trkpt><trkpt lat="44.72068560830357" lon="9.540418881939933"><ele>776.0</ele><time>2026-05-03T14:00:11Z</time></trkpt><trkpt lat="44.72071593556965" lon="9.540332670846313"><ele>776.0</ele><time>2026-05-03T14:00:12Z</time></trkpt><trkpt lat="44.72074405734878" lon="9.540234549216253"><ele>776.0</ele><time>2026-05-03T14:00:13Z</time></trkpt><trkpt lat="44.72077148761517" lon="9.54010894474256"><ele>776.0</ele><time>2026-05-03T14:00:14Z</time></trkpt><trkpt lat="44.720773194043886" lon="9.540008727822489"><ele>776.0</ele><time>2026-05-03T14:00:15Z</time></trkpt><trkpt lat="44.72076675726558" lon="9.539918814368473"><ele>776.0</ele><time>2026-05-03T14:00:16Z</time></trkpt><trkpt lat="44.72073843314464" lon="9.539746133822796"><ele>777.8333333333334</ele><time>2026-05-03T14:00:18Z</time></trkpt><trkpt lat="44.72073239213323" lon="9.539645277824793"><ele>779.6666666666667</ele><time>2026-05-03T14:00:19Z</time></trkpt><trkpt lat="44.72074034729983" lon="9.539536622524679"><ele>781.5</ele><time>2026-05-03T14:00:20Z</time></trkpt><trkpt lat="44.720737066319685" lon="9.53937438811383"><ele>783.3333333333333</ele><time>2026-05-03T14:00:22Z</time></trkpt><trkpt lat="44.7207218485063" lon="9.53927802837953"><ele>785.1666666666666</ele><time>2026-05-03T14:00:23Z</time></trkpt><trkpt lat="44.72068705460201" lon="9.539138265081169"><ele>787.0</ele><time>2026-05-03T14:00:25Z</time></trkpt><trkpt lat="44.72066861305842" lon="9.53901139578059"><ele>788.9999999999999</ele><time>2026-05-03T14:00:28Z</time></trkpt><trkpt lat="44.72064704962318" lon="9.538882801885672"><ele>791.0</ele><time>2026-05-03T14:00:30Z</time></trkpt><trkpt lat="44.72063364836816" lon="9.538783001383479"><ele>793.0</ele><time>2026-05-03T14:00:32Z</time></trkpt><trkpt lat="44.72065809563374" lon="9.53866071759952"><ele>795.0</ele><time>2026-05-03T14:00:34Z</time></trkpt><trkpt lat="44.72075561561796" lon="9.538645618227164"><ele>796.9999999999999</ele><time>2026-05-03T14:00:37Z</time></trkpt><trkpt lat="44.72079968176828" lon="9.538712692176375"><ele>799.0</ele><time>2026-05-03T14:00:38Z</time></trkpt><trkpt lat="44.720829884099544" lon="9.538791721487314"><ele>799.0</ele><time>2026-05-03T14:00:39Z</time></trkpt><trkpt lat="44.720902891783744" lon="9.538899213547314"><ele>799.0</ele><time>2026-05-03T14:00:41Z</time></trkpt><trkpt lat="44.7209850282599" lon="9.538990375517153"><ele>799.0</ele><time>2026-05-03T14:00:43Z</time></trkpt><trkpt lat="44.721066323586555" lon="9.538983089981992"><ele>799.0</ele><time>2026-05-03T14:00:45Z</time></trkpt><trkpt lat="44.721144863587476" lon="9.538894389525737"><ele>799.0</ele><time>2026-05-03T14:00:47Z</time></trkpt><trkpt lat="44.72119346241282" lon="9.538789179825075"><ele>800.3333333333333</ele><time>2026-05-03T14:00:49Z</time></trkpt><trkpt lat="44.721208952270345" lon="9.538681178083536"><ele>801.6666666666666</ele><time>2026-05-03T14:00:51Z</time></trkpt><trkpt lat="44.7211450365827" lon="9.538623247169514"><ele>803.0</ele><time>2026-05-03T14:00:53Z</time></trkpt><trkpt lat="44.721076635448675" lon="9.538524651049837"><ele>804.3333333333333</ele><time>2026-05-03T14:00:55Z</time></trkpt><trkpt lat="44.72102963190722" lon="9.538426587554442"><ele>805.6666666666666</ele><time>2026-05-03T14:00:56Z</time></trkpt><trkpt lat="44.721035609495814" lon="9.538312027702803"><ele>807.0</ele><time>2026-05-03T14:00:57Z</time></trkpt><trkpt lat="44.721086465697724" lon="9.538197430917565"><ele>809.0</ele><time>2026-05-03T14:00:59Z</time></trkpt><trkpt lat="44.72116740397351" lon="9.538095163447453"><ele>811.0</ele><time>2026-05-03T14:01:01Z</time></trkpt><trkpt lat="44.721223711227005" lon="9.537998107968953"><ele>813.0</ele><time>2026-05-03T14:01:19Z</time></trkpt><trkpt lat="44.721305811449156" lon="9.537856593776558"><ele>815.0</ele><time>2026-05-03T14:01:21Z</time></trkpt><trkpt lat="44.72125999995577" lon="9.537693174947224"><ele>817.6</ele><time>2026-05-03T14:01:22Z</time></trkpt><trkpt lat="44.7213269117317" lon="9.537526909153557"><ele>820.2</ele><time>2026-05-03T14:01:24Z</time></trkpt><trkpt lat="44.72139258322915" lon="9.537425128987904"><ele>822.8</ele><time>2026-05-03T14:01:26Z</time></trkpt><trkpt lat="44.721485970473296" lon="9.53744002688905"><ele>825.4</ele><time>2026-05-03T14:01:28Z</time></trkpt><trkpt lat="44.72158382622057" lon="9.537440676654107"><ele>828.0</ele><time>2026-05-03T14:01:30Z</time></trkpt><trkpt lat="44.72169530137215" lon="9.537388664836026"><ele>828.0</ele><time>2026-05-03T14:01:32Z</time></trkpt><trkpt lat="44.721762319959964" lon="9.537347588043218"><ele>828.0</ele><time>2026-05-03T14:01:33Z</time></trkpt><trkpt lat="44.721828229422464" lon="9.537313880748908"><ele>828.0</ele><time>2026-05-03T14:01:34Z</time></trkpt><trkpt lat="44.72187299535665" lon="9.537232466896398"><ele>828.0</ele><time>2026-05-03T14:01:36Z</time></trkpt><trkpt lat="44.721914484314425" lon="9.537105614050848"><ele>828.0</ele><time>2026-05-03T14:01:38Z</time></trkpt><trkpt lat="44.721953254023475" lon="9.536956549938418"><ele>828.0</ele><time>2026-05-03T14:01:40Z</time></trkpt><trkpt lat="44.7220341823333" lon="9.536834078455199"><ele>831.2</ele><time>2026-05-03T14:01:42Z</time></trkpt><trkpt lat="44.72208575566265" lon="9.536714056756342"><ele>834.4</ele><time>2026-05-03T14:01:44Z</time></trkpt><trkpt lat="44.72209200154001" lon="9.536530899308092"><ele>837.6</ele><time>2026-05-03T14:01:46Z</time></trkpt><trkpt lat="44.72210790793628" lon="9.536426267573761"><ele>840.8000000000001</ele><time>2026-05-03T14:01:47Z</time></trkpt><trkpt lat="44.72214167973414" lon="9.536334399283042"><ele>844.0</ele><time>2026-05-03T14:01:48Z</time></trkpt><trkpt lat="44.72221035648412" lon="9.536218971233305"><ele>845.4999999999999</ele><time>2026-05-03T14:01:50Z</time></trkpt><trkpt lat="44.7222488221725" lon="9.536042336281456"><ele>847.0</ele><time>2026-05-03T14:01:52Z</time></trkpt><trkpt lat="44.72225880659125" lon="9.535950383892796"><ele>848.5</ele><time>2026-05-03T14:01:53Z</time></trkpt><trkpt lat="44.72227958383973" lon="9.535848907103025"><ele>850.0</ele><time>2026-05-03T14:01:54Z</time></trkpt><trkpt lat="44.72231303374726" lon="9.53574902653549"><ele>851.4999999999999</ele><time>2026-05-03T14:01:55Z</time></trkpt><trkpt lat="44.72235491991355" lon="9.53566690421961"><ele>853.0</ele><time>2026-05-03T14:01:56Z</time></trkpt><trkpt lat="44.7223987848119" lon="9.53559845513162"><ele>853.0</ele><time>2026-05-03T14:01:57Z</time></trkpt><trkpt lat="44.722480649704195" lon="9.535490293740146"><ele>853.0</ele><time>2026-05-03T14:01:59Z</time></trkpt><trkpt lat="44.72253411096783" lon="9.5353436796643"><ele>853.0</ele><time>2026-05-03T14:02:01Z</time></trkpt><trkpt lat="44.72259057807439" lon="9.535187395531882"><ele>853.0</ele><time>2026-05-03T14:02:03Z</time></trkpt><trkpt lat="44.72262793528125" lon="9.535112101231267"><ele>853.0</ele><time>2026-05-03T14:02:04Z</time></trkpt><trkpt lat="44.72264251951013" lon="9.534954311451894"><ele>854.0</ele><time>2026-05-03T14:02:06Z</time></trkpt><trkpt lat="44.722652762406774" lon="9.534851835149304"><ele>855.0</ele><time>2026-05-03T14:02:07Z</time></trkpt><trkpt lat="44.722671567171055" lon="9.534746229903835"><ele>856.0</ele><time>2026-05-03T14:02:08Z</time></trkpt><trkpt lat="44.72269508171008" lon="9.534641330905751"><ele>857.0</ele><time>2026-05-03T14:02:09Z</time></trkpt><trkpt lat="44.72270620257806" lon="9.534548293249395"><ele>858.0</ele><time>2026-05-03T14:02:10Z</time></trkpt><trkpt lat="44.722709869827675" lon="9.534457631114769"><ele>859.0</ele><time>2026-05-03T14:02:11Z</time></trkpt><trkpt lat="44.72271302180659" lon="9.534365437180535"><ele>860.0</ele><time>2026-05-03T14:02:14Z</time></trkpt><trkpt lat="44.72267142132088" lon="9.534261994543"><ele>862.4</ele><time>2026-05-03T14:02:48Z</time></trkpt><trkpt lat="44.722602398049055" lon="9.534194761394616"><ele>864.8</ele><time>2026-05-03T14:02:49Z</time></trkpt><trkpt lat="44.722524381629555" lon="9.53411386627154"><ele>867.2</ele><time>2026-05-03T14:02:50Z</time></trkpt><trkpt lat="44.722449938962654" lon="9.533995928117564"><ele>869.6</ele><time>2026-05-03T14:02:51Z</time></trkpt><trkpt lat="44.72235249171253" lon="9.53389465571882"><ele>872.0</ele><time>2026-05-03T14:02:52Z</time></trkpt><trkpt lat="44.72225060257505" lon="9.533812183084274"><ele>872.0</ele><time>2026-05-03T14:02:53Z</time></trkpt><trkpt lat="44.72217026501113" lon="9.533728160609998"><ele>872.0</ele><time>2026-05-03T14:02:54Z</time></trkpt><trkpt lat="44.72209115086585" lon="9.533656668084548"><ele>872.0</ele><time>2026-05-03T14:02:55Z</time></trkpt><trkpt lat="44.72201381340363" lon="9.533585245067435"><ele>872.0</ele><time>2026-05-03T14:02:56Z</time></trkpt><trkpt lat="44.72196935072754" lon="9.533504866555536"><ele>872.0</ele><time>2026-05-03T14:02:57Z</time></trkpt><trkpt lat="44.72188365679695" lon="9.533393881625399"><ele>871.8</ele><time>2026-05-03T14:02:59Z</time></trkpt><trkpt lat="44.72182808689236" lon="9.533305701814067"><ele>871.6</ele><time>2026-05-03T14:03:01Z</time></trkpt><trkpt lat="44.721815459721725" lon="9.533208051674716"><ele>871.3999999999999</ele><time>2026-05-03T14:03:03Z</time></trkpt><trkpt lat="44.721783587168204" lon="9.533125515951753"><ele>871.1999999999999</ele><time>2026-05-03T14:03:05Z</time></trkpt><trkpt lat="44.72175996536049" lon="9.533001769726596"><ele>871.0</ele><time>2026-05-03T14:03:07Z</time></trkpt><trkpt lat="44.72207717497639" lon="9.532949061053605"><ele>873.4</ele><time>2026-05-03T14:03:08Z</time></trkpt><trkpt lat="44.722156999606334" lon="9.532875784888304"><ele>875.8</ele><time>2026-05-03T14:03:09Z</time></trkpt><trkpt lat="44.72221944528444" lon="9.532784948143238"><ele>878.1999999999999</ele><time>2026-05-03T14:03:10Z</time></trkpt><trkpt lat="44.72230626599761" lon="9.532757153320288"><ele>880.5999999999999</ele><time>2026-05-03T14:03:12Z</time></trkpt><trkpt lat="44.722390699049704" lon="9.532862782638412"><ele>883.0</ele><time>2026-05-03T14:03:14Z</time></trkpt><trkpt lat="44.722442728192014" lon="9.5329400871734"><ele>883.0</ele><time>2026-05-03T14:03:15Z</time></trkpt><trkpt lat="44.72249753637584" lon="9.533024420017153"><ele>883.0</ele><time>2026-05-03T14:03:16Z</time></trkpt><trkpt lat="44.72254951217293" lon="9.533085825267767"><ele>883.0</ele><time>2026-05-03T14:03:17Z</time></trkpt><trkpt lat="44.72261819722202" lon="9.533116441361186"><ele>883.0</ele><time>2026-05-03T14:03:18Z</time></trkpt><trkpt lat="44.72268664320575" lon="9.533093976661542"><ele>883.0</ele><time>2026-05-03T14:03:19Z</time></trkpt><trkpt lat="44.72275032322856" lon="9.533040581514694"><ele>883.0</ele><time>2026-05-03T14:03:20Z</time></trkpt><trkpt lat="44.72279947122109" lon="9.532983663304263"><ele>883.0</ele><time>2026-05-03T14:03:21Z</time></trkpt><trkpt lat="44.72291005149077" lon="9.532899467365835"><ele>885.7142857142858</ele><time>2026-05-03T14:03:23Z</time></trkpt><trkpt lat="44.722969868704695" lon="9.53286797221259"><ele>888.4285714285713</ele><time>2026-05-03T14:03:24Z</time></trkpt><trkpt lat="44.723030250977466" lon="9.53281781320585"><ele>891.1428571428571</ele><time>2026-05-03T14:03:25Z</time></trkpt><trkpt lat="44.723091530537545" lon="9.532758996540533"><ele>893.8571428571429</ele><time>2026-05-03T14:03:26Z</time></trkpt><trkpt lat="44.723143465931045" lon="9.532685536823113"><ele>896.5714285714287</ele><time>2026-05-03T14:03:27Z</time></trkpt><trkpt lat="44.72318785067509" lon="9.532601886541292"><ele>899.2857142857142</ele><time>2026-05-03T14:03:28Z</time></trkpt><trkpt lat="44.72325947857163" lon="9.532521127838203"><ele>902.0</ele><time>2026-05-03T14:03:29Z</time></trkpt><trkpt lat="44.72331455587468" lon="9.532444457653849"><ele>902.0000000000001</ele><time>2026-05-03T14:03:30Z</time></trkpt><trkpt lat="44.723359087131996" lon="9.532379873610601"><ele>902.0</ele><time>2026-05-03T14:03:31Z</time></trkpt><trkpt lat="44.72341883254862" lon="9.532314111880222"><ele>902.0</ele><time>2026-05-03T14:03:32Z</time></trkpt><trkpt lat="44.72351698631828" lon="9.53218823595771"><ele>902.0</ele><time>2026-05-03T14:03:34Z</time></trkpt><trkpt lat="44.723591506317725" lon="9.532162387880565"><ele>902.0000000000001</ele><time>2026-05-03T14:03:35Z</time></trkpt><trkpt lat="44.72366295496849" lon="9.532112968313445"><ele>902.0</ele><time>2026-05-03T14:03:36Z</time></trkpt><trkpt lat="44.723716081291805" lon="9.532043735103993"><ele>904.5000000000001</ele><time>2026-05-03T14:03:37Z</time></trkpt><trkpt lat="44.72377583067797" lon="9.531964436987577"><ele>907.0</ele><time>2026-05-03T14:03:38Z</time></trkpt><trkpt lat="44.72383200429076" lon="9.531891618081875"><ele>909.5</ele><time>2026-05-03T14:03:39Z</time></trkpt><trkpt lat="44.72390849491937" lon="9.531835256851398"><ele>912.0</ele><time>2026-05-03T14:03:40Z</time></trkpt><trkpt lat="44.723989170531226" lon="9.531791008589217"><ele>914.5000000000001</ele><time>2026-05-03T14:03:41Z</time></trkpt><trkpt lat="44.72407290009211" lon="9.531751001155767"><ele>917.0</ele><time>2026-05-03T14:03:42Z</time></trkpt><trkpt lat="44.72414452991792" lon="9.531745335217304"><ele>917.0000000000001</ele><time>2026-05-03T14:03:43Z</time></trkpt><trkpt lat="44.724223847549105" lon="9.531731048062571"><ele>917.0</ele><time>2026-05-03T14:03:44Z</time></trkpt><trkpt lat="44.72429560152252" lon="9.531700111643616"><ele>917.0</ele><time>2026-05-03T14:03:45Z</time></trkpt><trkpt lat="44.72436536049904" lon="9.531671366700817"><ele>917.0</ele><time>2026-05-03T14:03:46Z</time></trkpt><trkpt lat="44.72447037425257" lon="9.5315709458708"><ele>917.0000000000001</ele><time>2026-05-03T14:03:48Z</time></trkpt><trkpt lat="44.724514005579984" lon="9.531462457221954"><ele>917.0</ele><time>2026-05-03T14:03:49Z</time></trkpt><trkpt lat="44.724559711873475" lon="9.53135387742371"><ele>918.0000000000001</ele><time>2026-05-03T14:03:50Z</time></trkpt><trkpt lat="44.724597674661375" lon="9.531277708892727"><ele>919.0</ele><time>2026-05-03T14:03:51Z</time></trkpt><trkpt lat="44.72464044832507" lon="9.53120388701019"><ele>920.0</ele><time>2026-05-03T14:03:52Z</time></trkpt><trkpt lat="44.72468249084988" lon="9.531120270183754"><ele>921.0</ele><time>2026-05-03T14:03:53Z</time></trkpt><trkpt lat="44.72474090671339" lon="9.531013699895974"><ele>922.0000000000001</ele><time>2026-05-03T14:03:54Z</time></trkpt><trkpt lat="44.72479287246488" lon="9.530922302905362"><ele>923.0</ele><time>2026-05-03T14:03:55Z</time></trkpt><trkpt lat="44.7248441780392" lon="9.530832423033454"><ele>926.4</ele><time>2026-05-03T14:03:56Z</time></trkpt><trkpt lat="44.724901522097014" lon="9.53074154481548"><ele>929.8</ele><time>2026-05-03T14:03:57Z</time></trkpt><trkpt lat="44.7249939746758" lon="9.530621200805408"><ele>933.2</ele><time>2026-05-03T14:03:59Z</time></trkpt><trkpt lat="44.72506221726518" lon="9.530533944191905"><ele>936.6</ele><time>2026-05-03T14:04:00Z</time></trkpt><trkpt lat="44.72514093435903" lon="9.530448246828488"><ele>940.0</ele><time>2026-05-03T14:04:01Z</time></trkpt><trkpt lat="44.725220285166756" lon="9.530347541408386"><ele>944.0</ele><time>2026-05-03T14:04:02Z</time></trkpt><trkpt lat="44.72529463559561" lon="9.5302438144902"><ele>948.0</ele><time>2026-05-03T14:04:03Z</time></trkpt><trkpt lat="44.72538426298069" lon="9.530129591627807"><ele>952.0</ele><time>2026-05-03T14:04:04Z</time></trkpt><trkpt lat="44.72547815571587" lon="9.530026481970557"><ele>956.0</ele><time>2026-05-03T14:04:05Z</time></trkpt><trkpt lat="44.72553011792227" lon="9.529943334115849"><ele>960.0</ele><time>2026-05-03T14:04:06Z</time></trkpt><trkpt lat="44.72558412109907" lon="9.529868471526537"><ele>960.0</ele><time>2026-05-03T14:04:07Z</time></trkpt><trkpt lat="44.725663565045565" lon="9.529806484597284"><ele>960.0</ele><time>2026-05-03T14:04:08Z</time></trkpt><trkpt lat="44.725744504357266" lon="9.529764624109543"><ele>960.0</ele><time>2026-05-03T14:04:09Z</time></trkpt><trkpt lat="44.72587895998842" lon="9.52975013883543"><ele>960.0</ele><time>2026-05-03T14:04:11Z</time></trkpt><trkpt lat="44.72595628930009" lon="9.529713955125942"><ele>960.0</ele><time>2026-05-03T14:04:12Z</time></trkpt><trkpt lat="44.72601951412701" lon="9.529644954517941"><ele>961.0</ele><time>2026-05-03T14:04:13Z</time></trkpt><trkpt lat="44.72607318372348" lon="9.52956160311319"><ele>962.0</ele><time>2026-05-03T14:04:14Z</time></trkpt><trkpt lat="44.72610029341076" lon="9.529468718778412"><ele>963.0</ele><time>2026-05-03T14:04:15Z</time></trkpt><trkpt lat="44.726149532057654" lon="9.529361631575677"><ele>964.0</ele><time>2026-05-03T14:04:16Z</time></trkpt><trkpt lat="44.72619123762653" lon="9.529272061689483"><ele>965.0</ele><time>2026-05-03T14:04:17Z</time></trkpt><trkpt lat="44.726224299514755" lon="9.529186138663292"><ele>966.0</ele><time>2026-05-03T14:04:18Z</time></trkpt><trkpt lat="44.72626475768972" lon="9.529086000910143"><ele>968.5999999999999</ele><time>2026-05-03T14:04:19Z</time></trkpt><trkpt lat="44.72629779459863" lon="9.52891798423393"><ele>971.1999999999999</ele><time>2026-05-03T14:04:21Z</time></trkpt><trkpt lat="44.726383751154025" lon="9.528901810914435"><ele>973.8000000000001</ele><time>2026-05-03T14:04:24Z</time></trkpt><trkpt lat="44.72644378990158" lon="9.52894568290597"><ele>976.4000000000001</ele><time>2026-05-03T14:04:25Z</time></trkpt><trkpt lat="44.726488015618706" lon="9.529016275176032"><ele>979.0</ele><time>2026-05-03T14:04:26Z</time></trkpt><trkpt lat="44.726603151106616" lon="9.52904672922639"><ele>979.0</ele><time>2026-05-03T14:04:28Z</time></trkpt><trkpt lat="44.72666349167053" lon="9.529018704418249"><ele>979.0</ele><time>2026-05-03T14:04:29Z</time></trkpt><trkpt lat="44.726725018009645" lon="9.528990700179568"><ele>979.0</ele><time>2026-05-03T14:04:30Z</time></trkpt><trkpt lat="44.72679558919861" lon="9.52888925009026"><ele>979.0</ele><time>2026-05-03T14:04:32Z</time></trkpt><trkpt lat="44.72683642516132" lon="9.528811347102943"><ele>979.0</ele><time>2026-05-03T14:04:33Z</time></trkpt><trkpt lat="44.726884696372" lon="9.528737869447738"><ele>979.0</ele><time>2026-05-03T14:04:34Z</time></trkpt><trkpt lat="44.72694192985816" lon="9.5286618686345"><ele>979.0</ele><time>2026-05-03T14:04:35Z</time></trkpt><trkpt lat="44.727001733565366" lon="9.528563002805218"><ele>983.2</ele><time>2026-05-03T14:04:36Z</time></trkpt><trkpt lat="44.72706017520594" lon="9.528461406755508"><ele>987.4000000000001</ele><time>2026-05-03T14:04:37Z</time></trkpt><trkpt lat="44.72712569639227" lon="9.52836167735655"><ele>991.6</ele><time>2026-05-03T14:04:38Z</time></trkpt><trkpt lat="44.7271970857152" lon="9.528274496363332"><ele>995.8</ele><time>2026-05-03T14:04:39Z</time></trkpt><trkpt lat="44.72727918841256" lon="9.52821247592646"><ele>1000.0</ele><time>2026-05-03T14:04:40Z</time></trkpt><trkpt lat="44.72735469629052" lon="9.528152689474176"><ele>999.9999999999999</ele><time>2026-05-03T14:04:41Z</time></trkpt><trkpt lat="44.72741199053399" lon="9.52811447580278"><ele>1000.0</ele><time>2026-05-03T14:04:42Z</time></trkpt><trkpt lat="44.7274868536749" lon="9.52806904660072"><ele>1000.0</ele><time>2026-05-03T14:04:43Z</time></trkpt><trkpt lat="44.72754645401994" lon="9.52801786086276"><ele>1000.0</ele><time>2026-05-03T14:04:44Z</time></trkpt><trkpt lat="44.727613536109004" lon="9.52797949213401"><ele>999.9999999999999</ele><time>2026-05-03T14:04:45Z</time></trkpt><trkpt lat="44.72770730736024" lon="9.528024077589185"><ele>1000.0</ele><time>2026-05-03T14:04:47Z</time></trkpt><trkpt lat="44.72776989951138" lon="9.528075727634853"><ele>1002.9999999999999</ele><time>2026-05-03T14:04:48Z</time></trkpt><trkpt lat="44.72787599536698" lon="9.528049570863315"><ele>1006.0</ele><time>2026-05-03T14:04:50Z</time></trkpt><trkpt lat="44.72795114255613" lon="9.527980825966416"><ele>1009.0</ele><time>2026-05-03T14:04:51Z</time></trkpt><trkpt lat="44.72801365023059" lon="9.527878943767444"><ele>1012.0</ele><time>2026-05-03T14:04:52Z</time></trkpt><trkpt lat="44.72805880166169" lon="9.527788304803886"><ele>1014.9999999999999</ele><time>2026-05-03T14:04:53Z</time></trkpt><trkpt lat="44.72807624041051" lon="9.52770208843168"><ele>1018.0</ele><time>2026-05-03T14:04:54Z</time></trkpt><trkpt lat="44.72801349747222" lon="9.527541987096926"><ele>1019.4</ele><time>2026-05-03T14:04:56Z</time></trkpt><trkpt lat="44.72797817476121" lon="9.527424851569144"><ele>1020.8</ele><time>2026-05-03T14:04:57Z</time></trkpt><trkpt lat="44.72795295468208" lon="9.527276246419381"><ele>1022.2</ele><time>2026-05-03T14:04:58Z</time></trkpt><trkpt lat="44.72794787496593" lon="9.527140783733982"><ele>1023.6</ele><time>2026-05-03T14:04:59Z</time></trkpt><trkpt lat="44.72793232105972" lon="9.527024396638975"><ele>1025.0</ele><time>2026-05-03T14:05:00Z</time></trkpt><trkpt lat="44.72792403398058" lon="9.526925305401324"><ele>1026.0</ele><time>2026-05-03T14:05:01Z</time></trkpt><trkpt lat="44.727999221154604" lon="9.526775669489892"><ele>1027.0</ele><time>2026-05-03T14:05:03Z</time></trkpt><trkpt lat="44.728048602939346" lon="9.52669090412743"><ele>1028.0</ele><time>2026-05-03T14:05:04Z</time></trkpt><trkpt lat="44.728113013826466" lon="9.526635011242936"><ele>1029.0</ele><time>2026-05-03T14:05:05Z</time></trkpt><trkpt lat="44.72817591657036" lon="9.526606381556038"><ele>1030.0</ele><time>2026-05-03T14:05:06Z</time></trkpt><trkpt lat="44.7282474783348" lon="9.526591489134953"><ele>1031.0</ele><time>2026-05-03T14:05:07Z</time></trkpt><trkpt lat="44.72831888317623" lon="9.526545823444238"><ele>1031.0</ele><time>2026-05-03T14:05:08Z</time></trkpt><trkpt lat="44.72835938939242" lon="9.526453247891315"><ele>1031.0</ele><time>2026-05-03T14:05:09Z</time></trkpt><trkpt lat="44.72839141622659" lon="9.526350054003919"><ele>1031.0</ele><time>2026-05-03T14:05:10Z</time></trkpt><trkpt lat="44.72836115575967" lon="9.526264746700685"><ele>1031.0</ele><time>2026-05-03T14:05:11Z</time></trkpt><trkpt lat="44.72833646829924" lon="9.52617983098127"><ele>1031.0</ele><time>2026-05-03T14:05:12Z</time></trkpt><trkpt lat="44.72832007187408" lon="9.526085176244187"><ele>1031.0</ele><time>2026-05-03T14:05:13Z</time></trkpt><trkpt lat="44.72834387800017" lon="9.525989259883946"><ele>1031.0</ele><time>2026-05-03T14:05:14Z</time></trkpt><trkpt lat="44.72837059442412" lon="9.525895234497925"><ele>1032.0</ele><time>2026-05-03T14:05:15Z</time></trkpt><trkpt lat="44.72840241137727" lon="9.525809707266154"><ele>1033.0</ele><time>2026-05-03T14:05:16Z</time></trkpt><trkpt lat="44.7284486799044" lon="9.525706630215437"><ele>1034.0</ele><time>2026-05-03T14:05:17Z</time></trkpt><trkpt lat="44.728521159191004" lon="9.52561287071397"><ele>1035.0</ele><time>2026-05-03T14:05:18Z</time></trkpt><trkpt lat="44.72857780082121" lon="9.525531677030617"><ele>1036.0</ele><time>2026-05-03T14:05:19Z</time></trkpt><trkpt lat="44.72866097305297" lon="9.525424432013022"><ele>1037.0</ele><time>2026-05-03T14:05:20Z</time></trkpt><trkpt lat="44.728732611844926" lon="9.52529531282814"><ele>1037.8</ele><time>2026-05-03T14:05:21Z</time></trkpt><trkpt lat="44.72875877315175" lon="9.525197861858143"><ele>1038.6</ele><time>2026-05-03T14:05:22Z</time></trkpt><trkpt lat="44.72876897989764" lon="9.525022268246174"><ele>1039.3999999999999</ele><time>2026-05-03T14:05:24Z</time></trkpt><trkpt lat="44.72872224887638" lon="9.524902568625697"><ele>1040.2</ele><time>2026-05-03T14:05:25Z</time></trkpt><trkpt lat="44.7286787411941" lon="9.524774850779485"><ele>1041.0</ele><time>2026-05-03T14:05:26Z</time></trkpt><trkpt lat="44.728646523260295" lon="9.524633262334289"><ele>1038.6</ele><time>2026-05-03T14:05:27Z</time></trkpt><trkpt lat="44.72861040032388" lon="9.524486346472415"><ele>1036.1999999999998</ele><time>2026-05-03T14:05:28Z</time></trkpt><trkpt lat="44.728589217292054" lon="9.524343493951514"><ele>1033.8000000000002</ele><time>2026-05-03T14:05:29Z</time></trkpt><trkpt lat="44.72857909395807" lon="9.524252728548396"><ele>1031.4</ele><time>2026-05-03T14:05:30Z</time></trkpt><trkpt lat="44.728619961557726" lon="9.52438779302343"><ele>1029.0</ele><time>2026-05-03T14:05:34Z</time></trkpt><trkpt lat="44.728762560573415" lon="9.524482791499572"><ele>1031.4</ele><time>2026-05-03T14:05:35Z</time></trkpt><trkpt lat="44.728794635854285" lon="9.524624623811393"><ele>1033.8000000000002</ele><time>2026-05-03T14:05:36Z</time></trkpt><trkpt lat="44.72885708237815" lon="9.524742201859931"><ele>1036.1999999999998</ele><time>2026-05-03T14:05:37Z</time></trkpt><trkpt lat="44.728927840910266" lon="9.52486165351804"><ele>1038.6</ele><time>2026-05-03T14:05:38Z</time></trkpt><trkpt lat="44.729007453073216" lon="9.524980035285243"><ele>1041.0</ele><time>2026-05-03T14:05:39Z</time></trkpt><trkpt lat="44.72908412374047" lon="9.525101373208367"><ele>1041.0</ele><time>2026-05-03T14:05:40Z</time></trkpt><trkpt lat="44.72914370824864" lon="9.525152780140044"><ele>1041.0</ele><time>2026-05-03T14:05:41Z</time></trkpt><trkpt lat="44.72920082461753" lon="9.52521747670047"><ele>1041.0</ele><time>2026-05-03T14:05:42Z</time></trkpt><trkpt lat="44.729269261788005" lon="9.525307645732354"><ele>1041.0</ele><time>2026-05-03T14:05:43Z</time></trkpt><trkpt lat="44.72936259920827" lon="9.52540076959863"><ele>1041.0</ele><time>2026-05-03T14:05:44Z</time></trkpt><trkpt lat="44.729445624252634" lon="9.52546279413436"><ele>1041.0</ele><time>2026-05-03T14:05:45Z</time></trkpt><trkpt lat="44.72955017437672" lon="9.525509579823197"><ele>1044.25</ele><time>2026-05-03T14:05:46Z</time></trkpt><trkpt lat="44.72967133477434" lon="9.525538012838751"><ele>1047.5</ele><time>2026-05-03T14:05:47Z</time></trkpt><trkpt lat="44.729779447813755" lon="9.525584875391095"><ele>1050.75</ele><time>2026-05-03T14:05:48Z</time></trkpt><trkpt lat="44.729885568295806" lon="9.525664023310378"><ele>1054.0</ele><time>2026-05-03T14:05:49Z</time></trkpt><trkpt lat="44.729968347558" lon="9.525768245707498"><ele>1054.0</ele><time>2026-05-03T14:05:50Z</time></trkpt><trkpt lat="44.730086726188546" lon="9.525865338993878"><ele>1054.0</ele><time>2026-05-03T14:05:51Z</time></trkpt><trkpt lat="44.73019201820028" lon="9.525908441431454"><ele>1054.0</ele><time>2026-05-03T14:05:52Z</time></trkpt><trkpt lat="44.73029628963464" lon="9.525974663614138"><ele>1054.0</ele><time>2026-05-03T14:05:53Z</time></trkpt><trkpt lat="44.730410761894575" lon="9.526057312208016"><ele>1053.8</ele><time>2026-05-03T14:05:54Z</time></trkpt><trkpt lat="44.73051577576572" lon="9.526120615896966"><ele>1053.6000000000001</ele><time>2026-05-03T14:05:55Z</time></trkpt><trkpt lat="44.730604238792914" lon="9.526183767145017"><ele>1053.4</ele><time>2026-05-03T14:05:56Z</time></trkpt><trkpt lat="44.7306845350396" lon="9.526205533568808"><ele>1053.2</ele><time>2026-05-03T14:05:57Z</time></trkpt><trkpt lat="44.73078123665417" lon="9.526277993877667"><ele>1053.0</ele><time>2026-05-03T14:05:58Z</time></trkpt><trkpt lat="44.73087576255179" lon="9.526372725095252"><ele>1054.5</ele><time>2026-05-03T14:05:59Z</time></trkpt><trkpt lat="44.73096935724718" lon="9.52645928783182"><ele>1056.0</ele><time>2026-05-03T14:06:00Z</time></trkpt><trkpt lat="44.7310531197337" lon="9.526512154903113"><ele>1057.5</ele><time>2026-05-03T14:06:01Z</time></trkpt><trkpt lat="44.731150034504395" lon="9.526605351765985"><ele>1059.0</ele><time>2026-05-03T14:06:02Z</time></trkpt><trkpt lat="44.73126418903634" lon="9.526690833854893"><ele>1060.25</ele><time>2026-05-03T14:06:03Z</time></trkpt><trkpt lat="44.731372867945424" lon="9.526728616642712"><ele>1061.5</ele><time>2026-05-03T14:06:04Z</time></trkpt><trkpt lat="44.73149885663675" lon="9.526775736508908"><ele>1062.75</ele><time>2026-05-03T14:06:05Z</time></trkpt><trkpt lat="44.7316119832669" lon="9.526811438311698"><ele>1064.0</ele><time>2026-05-03T14:06:06Z</time></trkpt><trkpt lat="44.73171000102928" lon="9.526860558320527"><ele>1064.0</ele><time>2026-05-03T14:06:07Z</time></trkpt><trkpt lat="44.731823246596875" lon="9.526860714210645"><ele>1064.0</ele><time>2026-05-03T14:06:08Z</time></trkpt><trkpt lat="44.73190729353444" lon="9.52681528186236"><ele>1064.0</ele><time>2026-05-03T14:06:09Z</time></trkpt><trkpt lat="44.73198983691473" lon="9.526819796387894"><ele>1064.0</ele><time>2026-05-03T14:06:10Z</time></trkpt><trkpt lat="44.73207433311598" lon="9.526863806089917"><ele>1064.0</ele><time>2026-05-03T14:06:11Z</time></trkpt><trkpt lat="44.73215255243057" lon="9.526929772303026"><ele>1063.8333333333335</ele><time>2026-05-03T14:06:12Z</time></trkpt><trkpt lat="44.73222169420619" lon="9.52697405008849"><ele>1063.6666666666667</ele><time>2026-05-03T14:06:13Z</time></trkpt><trkpt lat="44.73233226123392" lon="9.527000941121738"><ele>1063.5</ele><time>2026-05-03T14:06:14Z</time></trkpt><trkpt lat="44.73241261308468" lon="9.527020512718119"><ele>1063.3333333333333</ele><time>2026-05-03T14:06:15Z</time></trkpt><trkpt lat="44.732483236676025" lon="9.527078792891478"><ele>1063.1666666666665</ele><time>2026-05-03T14:06:16Z</time></trkpt><trkpt lat="44.73251166932884" lon="9.52716901555584"><ele>1063.0</ele><time>2026-05-03T14:06:17Z</time></trkpt><trkpt lat="44.73254026109265" lon="9.527303843962208"><ele>1063.5</ele><time>2026-05-03T14:06:18Z</time></trkpt><trkpt lat="44.73258957061168" lon="9.527453295819214"><ele>1064.0</ele><time>2026-05-03T14:06:19Z</time></trkpt><trkpt lat="44.73267871448897" lon="9.52757459840506"><ele>1064.5</ele><time>2026-05-03T14:06:20Z</time></trkpt><trkpt lat="44.73277041011056" lon="9.527696122896096"><ele>1065.0</ele><time>2026-05-03T14:06:21Z</time></trkpt><trkpt lat="44.73287529690829" lon="9.527771067419188"><ele>1065.0</ele><time>2026-05-03T14:06:22Z</time></trkpt><trkpt lat="44.73295915279895" lon="9.527872695743184"><ele>1065.0</ele><time>2026-05-03T14:06:23Z</time></trkpt><trkpt lat="44.73301444175362" lon="9.527973992059737"><ele>1065.0</ele><time>2026-05-03T14:06:24Z</time></trkpt><trkpt lat="44.733092280216354" lon="9.52804517158601"><ele>1065.0</ele><time>2026-05-03T14:06:25Z</time></trkpt><trkpt lat="44.73317990996167" lon="9.528119862733442"><ele>1065.0</ele><time>2026-05-03T14:06:26Z</time></trkpt><trkpt lat="44.733245076117925" lon="9.528215968912502"><ele>1065.6</ele><time>2026-05-03T14:06:27Z</time></trkpt><trkpt lat="44.733297534835074" lon="9.528324460495407"><ele>1066.2</ele><time>2026-05-03T14:06:28Z</time></trkpt><trkpt lat="44.73335024102301" lon="9.528394261709076"><ele>1066.8</ele><time>2026-05-03T14:06:29Z</time></trkpt><trkpt lat="44.7334312948742" lon="9.528437849178632"><ele>1067.4</ele><time>2026-05-03T14:06:30Z</time></trkpt><trkpt lat="44.73353219319517" lon="9.528455806985107"><ele>1068.0</ele><time>2026-05-03T14:06:31Z</time></trkpt><trkpt lat="44.73363389874262" lon="9.52846249589188"><ele>1068.0</ele><time>2026-05-03T14:06:32Z</time></trkpt><trkpt lat="44.733732433304375" lon="9.528492034206012"><ele>1068.0</ele><time>2026-05-03T14:06:33Z</time></trkpt><trkpt lat="44.733808454009754" lon="9.528545481093897"><ele>1068.0</ele><time>2026-05-03T14:06:34Z</time></trkpt><trkpt lat="44.733876370236864" lon="9.52862167456724"><ele>1068.0</ele><time>2026-05-03T14:06:35Z</time></trkpt><trkpt lat="44.733950310333654" lon="9.528682253067377"><ele>1068.0</ele><time>2026-05-03T14:06:36Z</time></trkpt><trkpt lat="44.73401565849112" lon="9.528734994586719"><ele>1068.0</ele><time>2026-05-03T14:06:37Z</time></trkpt><trkpt lat="44.7340658835462" lon="9.528869271176047"><ele>1069.1666666666667</ele><time>2026-05-03T14:06:39Z</time></trkpt><trkpt lat="44.73408412363051" lon="9.528964568447657"><ele>1070.3333333333333</ele><time>2026-05-03T14:06:40Z</time></trkpt><trkpt lat="44.73410977506097" lon="9.529062069659581"><ele>1071.5</ele><time>2026-05-03T14:06:41Z</time></trkpt><trkpt lat="44.73416062036956" lon="9.529163489355666"><ele>1072.6666666666665</ele><time>2026-05-03T14:06:42Z</time></trkpt><trkpt lat="44.73421187328851" lon="9.529253628871912"><ele>1073.8333333333333</ele><time>2026-05-03T14:06:43Z</time></trkpt><trkpt lat="44.73424227119901" lon="9.529402206684951"><ele>1075.0</ele><time>2026-05-03T14:06:44Z</time></trkpt><trkpt lat="44.73428503375793" lon="9.529547773968984"><ele>1075.2</ele><time>2026-05-03T14:06:45Z</time></trkpt><trkpt lat="44.7343483139675" lon="9.52967066048698"><ele>1075.4</ele><time>2026-05-03T14:06:46Z</time></trkpt><trkpt lat="44.734419245503545" lon="9.529787649502751"><ele>1075.6</ele><time>2026-05-03T14:06:47Z</time></trkpt><trkpt lat="44.73449009835667" lon="9.529893901839205"><ele>1075.8</ele><time>2026-05-03T14:06:48Z</time></trkpt><trkpt lat="44.73456606366223" lon="9.529967054787766"><ele>1076.0</ele><time>2026-05-03T14:06:49Z</time></trkpt><trkpt lat="44.734642777016376" lon="9.530009987666132"><ele>1079.25</ele><time>2026-05-03T14:06:50Z</time></trkpt><trkpt lat="44.73469045275716" lon="9.530219022876054"><ele>1082.5</ele><time>2026-05-03T14:06:52Z</time></trkpt><trkpt lat="44.734754407731984" lon="9.530324605009886"><ele>1085.75</ele><time>2026-05-03T14:06:53Z</time></trkpt><trkpt lat="44.73485394164359" lon="9.530423433684518"><ele>1089.0</ele><time>2026-05-03T14:06:54Z</time></trkpt><trkpt lat="44.7349584346357" lon="9.530516178683122"><ele>1089.6000000000001</ele><time>2026-05-03T14:06:55Z</time></trkpt><trkpt lat="44.73506076010837" lon="9.530604481527702"><ele>1090.2</ele><time>2026-05-03T14:06:56Z</time></trkpt><trkpt lat="44.73515045546149" lon="9.530710432774422"><ele>1090.8000000000002</ele><time>2026-05-03T14:06:57Z</time></trkpt><trkpt lat="44.73523084465035" lon="9.530790916002886"><ele>1091.4</ele><time>2026-05-03T14:06:58Z</time></trkpt><trkpt lat="44.735312168642814" lon="9.530827324119468"><ele>1092.0</ele><time>2026-05-03T14:06:59Z</time></trkpt><trkpt lat="44.73540809640819" lon="9.530839886681765"><ele>1092.8</ele><time>2026-05-03T14:07:00Z</time></trkpt><trkpt lat="44.73548524537173" lon="9.530887400280829"><ele>1093.6</ele><time>2026-05-03T14:07:01Z</time></trkpt><trkpt lat="44.73555401017716" lon="9.530999194341502"><ele>1094.3999999999999</ele><time>2026-05-03T14:07:02Z</time></trkpt><trkpt lat="44.7355998605095" lon="9.531143491176762"><ele>1095.2</ele><time>2026-05-03T14:07:03Z</time></trkpt><trkpt lat="44.735642007570846" lon="9.531293158599233"><ele>1096.0</ele><time>2026-05-03T14:07:04Z</time></trkpt><trkpt lat="44.7356674076545" lon="9.53144060592298"><ele>1097.3999999999999</ele><time>2026-05-03T14:07:05Z</time></trkpt><trkpt lat="44.73570927645157" lon="9.531599052654867"><ele>1098.8</ele><time>2026-05-03T14:07:06Z</time></trkpt><trkpt lat="44.73575102944855" lon="9.531748737170494"><ele>1100.1999999999998</ele><time>2026-05-03T14:07:07Z</time></trkpt><trkpt lat="44.73578234522158" lon="9.531858187119877"><ele>1101.6</ele><time>2026-05-03T14:07:08Z</time></trkpt><trkpt lat="44.7358269791827" lon="9.53194692568733"><ele>1103.0</ele><time>2026-05-03T14:07:09Z</time></trkpt><trkpt lat="44.73588948687082" lon="9.532007852399287"><ele>1103.0</ele><time>2026-05-03T14:07:10Z</time></trkpt><trkpt lat="44.73597082456589" lon="9.532018830006189"><ele>1103.0</ele><time>2026-05-03T14:07:11Z</time></trkpt><trkpt lat="44.73610901005324" lon="9.532010861029535"><ele>1103.0</ele><time>2026-05-03T14:07:12Z</time></trkpt><trkpt lat="44.73626638885832" lon="9.532020606859792"><ele>1103.0</ele><time>2026-05-03T14:07:13Z</time></trkpt><trkpt lat="44.73639446047891" lon="9.532029487258527"><ele>1103.2</ele><time>2026-05-03T14:07:14Z</time></trkpt><trkpt lat="44.73651178611036" lon="9.532028886184856"><ele>1103.4</ele><time>2026-05-03T14:07:15Z</time></trkpt><trkpt lat="44.73663673191468" lon="9.532034071182256"><ele>1103.6000000000001</ele><time>2026-05-03T14:07:16Z</time></trkpt><trkpt lat="44.73675588097524" lon="9.532066643054371"><ele>1103.8</ele><time>2026-05-03T14:07:17Z</time></trkpt><trkpt lat="44.73681280225614" lon="9.532106863231965"><ele>1104.0</ele><time>2026-05-03T14:07:18Z</time></trkpt><trkpt lat="44.73685637705626" lon="9.532246292563586"><ele>1105.2</ele><time>2026-05-03T14:07:21Z</time></trkpt><trkpt lat="44.73691143278783" lon="9.532330971980764"><ele>1106.4</ele><time>2026-05-03T14:07:22Z</time></trkpt><trkpt lat="44.73699737775698" lon="9.532404160014673"><ele>1107.6</ele><time>2026-05-03T14:07:23Z</time></trkpt><trkpt lat="44.737109251421806" lon="9.532447047910402"><ele>1108.8</ele><time>2026-05-03T14:07:24Z</time></trkpt><trkpt lat="44.7372108988675" lon="9.532505391255446"><ele>1110.0</ele><time>2026-05-03T14:07:25Z</time></trkpt><trkpt lat="44.737329933917756" lon="9.532577166121131"><ele>1110.0</ele><time>2026-05-03T14:07:26Z</time></trkpt><trkpt lat="44.73744862268875" lon="9.532637170343449"><ele>1110.0</ele><time>2026-05-03T14:07:27Z</time></trkpt><trkpt lat="44.73756514842381" lon="9.532696285027225"><ele>1110.0</ele><time>2026-05-03T14:07:28Z</time></trkpt><trkpt lat="44.73767618982555" lon="9.532761197038258"><ele>1110.0</ele><time>2026-05-03T14:07:29Z</time></trkpt><trkpt lat="44.73780411253319" lon="9.532817698362699"><ele>1112.0</ele><time>2026-05-03T14:07:30Z</time></trkpt><trkpt lat="44.73789072888133" lon="9.532856923588943"><ele>1114.0</ele><time>2026-05-03T14:07:31Z</time></trkpt><trkpt lat="44.737959019930855" lon="9.532931653255826"><ele>1116.0</ele><time>2026-05-03T14:07:32Z</time></trkpt><trkpt lat="44.73804400173396" lon="9.533009634683964"><ele>1118.0</ele><time>2026-05-03T14:07:33Z</time></trkpt><trkpt lat="44.73815467223708" lon="9.533072226874845"><ele>1120.0</ele><time>2026-05-03T14:07:34Z</time></trkpt><trkpt lat="44.738269594210394" lon="9.533130657635096"><ele>1120.8</ele><time>2026-05-03T14:07:35Z</time></trkpt><trkpt lat="44.738383718656245" lon="9.533104163572883"><ele>1121.6</ele><time>2026-05-03T14:07:37Z</time></trkpt><trkpt lat="44.73845237501991" lon="9.533039127737398"><ele>1122.4</ele><time>2026-05-03T14:07:38Z</time></trkpt><trkpt lat="44.73857789632074" lon="9.53301841872848"><ele>1123.2</ele><time>2026-05-03T14:07:40Z</time></trkpt><trkpt lat="44.738640244367126" lon="9.533074827231472"><ele>1124.0</ele><time>2026-05-03T14:07:41Z</time></trkpt><trkpt lat="44.73871090442086" lon="9.533154109986084"><ele>1126.8</ele><time>2026-05-03T14:07:42Z</time></trkpt><trkpt lat="44.73879446316517" lon="9.533229070057745"><ele>1129.6000000000001</ele><time>2026-05-03T14:07:43Z</time></trkpt><trkpt lat="44.738885176263466" lon="9.533294382215148"><ele>1132.4</ele><time>2026-05-03T14:07:44Z</time></trkpt><trkpt lat="44.738990490408426" lon="9.533312196071842"><ele>1135.2</ele><time>2026-05-03T14:07:45Z</time></trkpt><trkpt lat="44.739078840193116" lon="9.533319846961872"><ele>1138.0</ele><time>2026-05-03T14:07:46Z</time></trkpt><trkpt lat="44.739167199597695" lon="9.533365321135772"><ele>1138.0</ele><time>2026-05-03T14:07:47Z</time></trkpt><trkpt lat="44.7392805640869" lon="9.533393346164514"><ele>1138.0</ele><time>2026-05-03T14:07:48Z</time></trkpt><trkpt lat="44.73940606725217" lon="9.533420854901328"><ele>1138.0</ele><time>2026-05-03T14:07:49Z</time></trkpt><trkpt lat="44.73951841895549" lon="9.533453760893547"><ele>1138.0</ele><time>2026-05-03T14:07:50Z</time></trkpt><trkpt lat="44.739624289788416" lon="9.533492309276854"><ele>1139.2</ele><time>2026-05-03T14:07:51Z</time></trkpt><trkpt lat="44.739711236927555" lon="9.533548764900516"><ele>1140.4</ele><time>2026-05-03T14:07:52Z</time></trkpt><trkpt lat="44.739770306521045" lon="9.533657537759789"><ele>1141.6000000000001</ele><time>2026-05-03T14:07:54Z</time></trkpt><trkpt lat="44.7398733508842" lon="9.53380715194345"><ele>1142.8</ele><time>2026-05-03T14:07:56Z</time></trkpt><trkpt lat="44.73995427095231" lon="9.533890840367592"><ele>1144.0</ele><time>2026-05-03T14:07:57Z</time></trkpt><trkpt lat="44.74004382876423" lon="9.533985245528593"><ele>1145.2</ele><time>2026-05-03T14:07:58Z</time></trkpt><trkpt lat="44.740127422944575" lon="9.534086611236903"><ele>1146.4</ele><time>2026-05-03T14:07:59Z</time></trkpt><trkpt lat="44.74020633396302" lon="9.534169737428893"><ele>1147.6</ele><time>2026-05-03T14:08:00Z</time></trkpt><trkpt lat="44.7402957503828" lon="9.534239377792979"><ele>1148.8</ele><time>2026-05-03T14:08:01Z</time></trkpt><trkpt lat="44.74038516937161" lon="9.534303543713808"><ele>1150.0</ele><time>2026-05-03T14:08:02Z</time></trkpt><trkpt lat="44.74047070314093" lon="9.534369365019826"><ele>1151.3333333333333</ele><time>2026-05-03T14:08:03Z</time></trkpt><trkpt lat="44.74054722768932" lon="9.5344458059341"><ele>1152.6666666666665</ele><time>2026-05-03T14:08:04Z</time></trkpt><trkpt lat="44.740593211323485" lon="9.534545653823393"><ele>1154.0</ele><time>2026-05-03T14:08:05Z</time></trkpt><trkpt lat="44.740646185129265" lon="9.534639225331897"><ele>1155.3333333333333</ele><time>2026-05-03T14:08:06Z</time></trkpt><trkpt lat="44.74070398486908" lon="9.53472356728458"><ele>1156.6666666666667</ele><time>2026-05-03T14:08:07Z</time></trkpt><trkpt lat="44.74076265206837" lon="9.534779750082526"><ele>1158.0</ele><time>2026-05-03T14:08:08Z</time></trkpt><trkpt lat="44.74083932199136" lon="9.53486312086115"><ele>1160.25</ele><time>2026-05-03T14:08:09Z</time></trkpt><trkpt lat="44.74091562713613" lon="9.53498432723167"><ele>1162.5</ele><time>2026-05-03T14:08:10Z</time></trkpt><trkpt lat="44.74096664513534" lon="9.53514135597965"><ele>1164.75</ele><time>2026-05-03T14:08:11Z</time></trkpt><trkpt lat="44.741000577126364" lon="9.535313632100342"><ele>1167.0</ele><time>2026-05-03T14:08:12Z</time></trkpt><trkpt lat="44.74103059349885" lon="9.535433872600132"><ele>1170.0</ele><time>2026-05-03T14:08:13Z</time></trkpt><trkpt lat="44.741081487496224" lon="9.535537203975489"><ele>1173.0</ele><time>2026-05-03T14:08:14Z</time></trkpt><trkpt lat="44.74115224874428" lon="9.535617860226717"><ele>1176.0</ele><time>2026-05-03T14:08:15Z</time></trkpt><trkpt lat="44.74122949607268" lon="9.535709747046553"><ele>1179.0</ele><time>2026-05-03T14:08:16Z</time></trkpt><trkpt lat="44.741289857504604" lon="9.535808612596163"><ele>1182.0</ele><time>2026-05-03T14:08:17Z</time></trkpt><trkpt lat="44.741340618013254" lon="9.535901826498204"><ele>1182.0</ele><time>2026-05-03T14:08:18Z</time></trkpt><trkpt lat="44.74143455285859" lon="9.535986332091735"><ele>1182.0</ele><time>2026-05-03T14:08:19Z</time></trkpt><trkpt lat="44.74153035686761" lon="9.536059094874824"><ele>1182.0</ele><time>2026-05-03T14:08:20Z</time></trkpt><trkpt lat="44.7416325022926" lon="9.53615619968306"><ele>1182.0</ele><time>2026-05-03T14:08:21Z</time></trkpt><trkpt lat="44.74173387163871" lon="9.536238481483021"><ele>1182.75</ele><time>2026-05-03T14:08:22Z</time></trkpt><trkpt lat="44.74184670109148" lon="9.536310682446361"><ele>1183.5</ele><time>2026-05-03T14:08:23Z</time></trkpt><trkpt lat="44.7419476913595" lon="9.536391038800817"><ele>1184.25</ele><time>2026-05-03T14:08:24Z</time></trkpt><trkpt lat="44.74204977218791" lon="9.536459180815205"><ele>1185.0</ele><time>2026-05-03T14:08:25Z</time></trkpt><trkpt lat="44.74215002034427" lon="9.536525011312213"><ele>1188.8</ele><time>2026-05-03T14:08:26Z</time></trkpt><trkpt lat="44.74223987007411" lon="9.536577473353251"><ele>1192.6</ele><time>2026-05-03T14:08:27Z</time></trkpt><trkpt lat="44.742320988318745" lon="9.536626229761996"><ele>1196.4</ele><time>2026-05-03T14:08:28Z</time></trkpt><trkpt lat="44.74241302109557" lon="9.536676675672547"><ele>1200.2</ele><time>2026-05-03T14:08:29Z</time></trkpt><trkpt lat="44.742502623835854" lon="9.536715728178933"><ele>1204.0</ele><time>2026-05-03T14:08:30Z</time></trkpt><trkpt lat="44.74259789329933" lon="9.536760360014922"><ele>1204.0</ele><time>2026-05-03T14:08:31Z</time></trkpt><trkpt lat="44.742700785007" lon="9.53682573296016"><ele>1204.0</ele><time>2026-05-03T14:08:32Z</time></trkpt><trkpt lat="44.74278626058016" lon="9.53687159526553"><ele>1204.0</ele><time>2026-05-03T14:08:33Z</time></trkpt><trkpt lat="44.74286340276362" lon="9.53692816042145"><ele>1204.0</ele><time>2026-05-03T14:08:34Z</time></trkpt><trkpt lat="44.7429353915717" lon="9.537009814535924"><ele>1204.0</ele><time>2026-05-03T14:08:35Z</time></trkpt><trkpt lat="44.7429892640113" lon="9.537119475007376"><ele>1208.8</ele><time>2026-05-03T14:08:36Z</time></trkpt><trkpt lat="44.74305259063831" lon="9.537245572243961"><ele>1213.6000000000001</ele><time>2026-05-03T14:08:37Z</time></trkpt><trkpt lat="44.743117033612776" lon="9.537335098260774"><ele>1218.4</ele><time>2026-05-03T14:08:38Z</time></trkpt><trkpt lat="44.743189249394554" lon="9.537409569339"><ele>1223.2</ele><time>2026-05-03T14:08:39Z</time></trkpt><trkpt lat="44.7432765143198" lon="9.537453187116457"><ele>1228.0</ele><time>2026-05-03T14:08:40Z</time></trkpt><trkpt lat="44.74338193542108" lon="9.537515545013793"><ele>1228.0</ele><time>2026-05-03T14:08:41Z</time></trkpt><trkpt lat="44.74347695032374" lon="9.537588526979299"><ele>1228.0</ele><time>2026-05-03T14:08:42Z</time></trkpt><trkpt lat="44.743563214222796" lon="9.537664587820348"><ele>1228.0</ele><time>2026-05-03T14:08:43Z</time></trkpt><trkpt lat="44.74365778388784" lon="9.537731893775126"><ele>1228.0</ele><time>2026-05-03T14:08:44Z</time></trkpt><trkpt lat="44.743737891050124" lon="9.537803942566045"><ele>1228.0</ele><time>2026-05-03T14:08:45Z</time></trkpt><trkpt lat="44.743799418803455" lon="9.53788887018496"><ele>1230.5</ele><time>2026-05-03T14:08:46Z</time></trkpt><trkpt lat="44.74383436111049" lon="9.537974574060968"><ele>1233.0</ele><time>2026-05-03T14:08:47Z</time></trkpt><trkpt lat="44.74388262452495" lon="9.538070701273753"><ele>1235.5</ele><time>2026-05-03T14:08:48Z</time></trkpt><trkpt lat="44.743931502269454" lon="9.538159339121657"><ele>1238.0</ele><time>2026-05-03T14:08:49Z</time></trkpt><trkpt lat="44.74398782324517" lon="9.538248470264804"><ele>1240.5</ele><time>2026-05-03T14:08:50Z</time></trkpt><trkpt lat="44.74404447589121" lon="9.53833543632113"><ele>1243.0</ele><time>2026-05-03T14:08:51Z</time></trkpt><trkpt lat="44.74409728043935" lon="9.538427904852034"><ele>1243.0</ele><time>2026-05-03T14:08:52Z</time></trkpt><trkpt lat="44.74416594056486" lon="9.538539931513402"><ele>1243.0</ele><time>2026-05-03T14:08:53Z</time></trkpt><trkpt lat="44.7442339117647" lon="9.538666034753655"><ele>1243.0</ele><time>2026-05-03T14:08:54Z</time></trkpt><trkpt lat="44.74430032642906" lon="9.538782820063416"><ele>1243.0</ele><time>2026-05-03T14:08:55Z</time></trkpt><trkpt lat="44.74434894593345" lon="9.538874422272103"><ele>1243.0</ele><time>2026-05-03T14:08:56Z</time></trkpt><trkpt lat="44.744451553747496" lon="9.538918860589897"><ele>1243.0</ele><time>2026-05-03T14:08:58Z</time></trkpt><trkpt lat="44.744514776616064" lon="9.538866006606542"><ele>1243.0</ele><time>2026-05-03T14:08:59Z</time></trkpt><trkpt lat="44.74458531190644" lon="9.538780907644055"><ele>1243.0</ele><time>2026-05-03T14:09:00Z</time></trkpt><trkpt lat="44.74467557393929" lon="9.538676353581378"><ele>1243.0</ele><time>2026-05-03T14:09:01Z</time></trkpt><trkpt lat="44.744763115876765" lon="9.538569627488785"><ele>1243.0</ele><time>2026-05-03T14:09:02Z</time></trkpt><trkpt lat="44.74484520799719" lon="9.538457580899072"><ele>1243.4</ele><time>2026-05-03T14:09:03Z</time></trkpt><trkpt lat="44.744919899896715" lon="9.538357722339878"><ele>1243.8</ele><time>2026-05-03T14:09:04Z</time></trkpt><trkpt lat="44.74500041936555" lon="9.538258686903331"><ele>1244.2</ele><time>2026-05-03T14:09:05Z</time></trkpt><trkpt lat="44.74507673814824" lon="9.53816275246227"><ele>1244.6</ele><time>2026-05-03T14:09:06Z</time></trkpt><trkpt lat="44.7451527888492" lon="9.538073893358272"><ele>1245.0</ele><time>2026-05-03T14:09:07Z</time></trkpt><trkpt lat="44.74522349889948" lon="9.53798658067527"><ele>1243.3333333333333</ele><time>2026-05-03T14:09:08Z</time></trkpt><trkpt lat="44.74528564106987" lon="9.537900053751132"><ele>1241.6666666666667</ele><time>2026-05-03T14:09:09Z</time></trkpt><trkpt lat="44.74534126198219" lon="9.537821375553694"><ele>1240.0</ele><time>2026-05-03T14:09:10Z</time></trkpt><trkpt lat="44.74539081165741" lon="9.537747480526818"><ele>1238.3333333333335</ele><time>2026-05-03T14:09:11Z</time></trkpt><trkpt lat="44.745448709745496" lon="9.537670871920758"><ele>1236.6666666666667</ele><time>2026-05-03T14:09:12Z</time></trkpt><trkpt lat="44.74550538743976" lon="9.537599367157307"><ele>1235.0</ele><time>2026-05-03T14:09:13Z</time></trkpt><trkpt lat="44.74555876868199" lon="9.537534435219522"><ele>1235.0</ele><time>2026-05-03T14:09:14Z</time></trkpt><trkpt lat="44.745607792318935" lon="9.537466479737958"><ele>1235.0</ele><time>2026-05-03T14:09:15Z</time></trkpt><trkpt lat="44.74566130354196" lon="9.537400850870391"><ele>1235.0</ele><time>2026-05-03T14:09:16Z</time></trkpt><trkpt lat="44.74572530837553" lon="9.537334849564921"><ele>1235.0</ele><time>2026-05-03T14:09:17Z</time></trkpt><trkpt lat="44.745805847574466" lon="9.537262694688414"><ele>1235.0</ele><time>2026-05-03T14:09:18Z</time></trkpt><trkpt lat="44.745887024950186" lon="9.537194086488556"><ele>1235.0</ele><time>2026-05-03T14:09:19Z</time></trkpt><trkpt lat="44.745957431256784" lon="9.537135751011654"><ele>1235.0</ele><time>2026-05-03T14:09:20Z</time></trkpt><trkpt lat="44.74603519890319" lon="9.537085695572134"><ele>1235.0</ele><time>2026-05-03T14:09:21Z</time></trkpt><trkpt lat="44.74611513329598" lon="9.537057349452242"><ele>1235.0</ele><time>2026-05-03T14:09:22Z</time></trkpt><trkpt lat="44.74620463949893" lon="9.537037593905792"><ele>1235.0</ele><time>2026-05-03T14:09:23Z</time></trkpt><trkpt lat="44.74628541493791" lon="9.537032632504415"><ele>1235.0</ele><time>2026-05-03T14:09:24Z</time></trkpt><trkpt lat="44.746361327550765" lon="9.537027245407087"><ele>1235.0</ele><time>2026-05-03T14:09:25Z</time></trkpt><trkpt lat="44.746441551800466" lon="9.53702119180692"><ele>1235.8</ele><time>2026-05-03T14:09:26Z</time></trkpt><trkpt lat="44.746512800896994" lon="9.537032198485848"><ele>1236.6</ele><time>2026-05-03T14:09:27Z</time></trkpt><trkpt lat="44.74658500562725" lon="9.537056419947099"><ele>1237.4</ele><time>2026-05-03T14:09:29Z</time></trkpt><trkpt lat="44.74668165657507" lon="9.537068985139548"><ele>1238.2</ele><time>2026-05-03T14:10:10Z</time></trkpt><trkpt lat="44.7467911538933" lon="9.53707504329322"><ele>1239.0</ele><time>2026-05-03T14:10:12Z</time></trkpt><trkpt lat="44.74689782912251" lon="9.537057210594604"><ele>1238.8333333333333</ele><time>2026-05-03T14:10:14Z</time></trkpt><trkpt lat="44.74700629198099" lon="9.537013403279042"><ele>1238.6666666666667</ele><time>2026-05-03T14:10:16Z</time></trkpt><trkpt lat="44.747071254463975" lon="9.536994489953166"><ele>1238.5</ele><time>2026-05-03T14:10:17Z</time></trkpt><trkpt lat="44.747146620880166" lon="9.536959891204331"><ele>1238.3333333333335</ele><time>2026-05-03T14:10:18Z</time></trkpt><trkpt lat="44.7472117211388" lon="9.536921802349816"><ele>1238.1666666666667</ele><time>2026-05-03T14:10:19Z</time></trkpt><trkpt lat="44.74727080296473" lon="9.536867977440286"><ele>1238.0</ele><time>2026-05-03T14:10:20Z</time></trkpt><trkpt lat="44.74732847601835" lon="9.536823308099736"><ele>1238.0</ele><time>2026-05-03T14:10:21Z</time></trkpt><trkpt lat="44.747399811993745" lon="9.53680364964092"><ele>1238.0</ele><time>2026-05-03T14:10:22Z</time></trkpt><trkpt lat="44.74748823386493" lon="9.536800281743197"><ele>1238.0</ele><time>2026-05-03T14:10:24Z</time></trkpt><trkpt lat="44.747602296705615" lon="9.536859648437629"><ele>1238.0</ele><time>2026-05-03T14:10:26Z</time></trkpt><trkpt lat="44.74773038016417" lon="9.53690704932945"><ele>1238.0</ele><time>2026-05-03T14:10:28Z</time></trkpt><trkpt lat="44.747864561683315" lon="9.536908929537967"><ele>1237.75</ele><time>2026-05-03T14:10:30Z</time></trkpt><trkpt lat="44.74796837361645" lon="9.536901627950407"><ele>1237.5</ele><time>2026-05-03T14:10:32Z</time></trkpt><trkpt lat="44.74809058088177" lon="9.536854418028046"><ele>1237.25</ele><time>2026-05-03T14:10:34Z</time></trkpt><trkpt lat="44.748194349348694" lon="9.536778054413835"><ele>1237.0</ele><time>2026-05-03T14:10:36Z</time></trkpt><trkpt lat="44.748282894172625" lon="9.536655818392644"><ele>1237.0</ele><time>2026-05-03T14:10:38Z</time></trkpt><trkpt lat="44.748391098784815" lon="9.536559253286791"><ele>1237.0</ele><time>2026-05-03T14:10:40Z</time></trkpt><trkpt lat="44.74848318123982" lon="9.536494028321979"><ele>1237.0</ele><time>2026-05-03T14:10:42Z</time></trkpt><trkpt lat="44.74859707351077" lon="9.536483716510538"><ele>1237.0</ele><time>2026-05-03T14:10:44Z</time></trkpt><trkpt lat="44.748718881693975" lon="9.53649300507217"><ele>1236.0</ele><time>2026-05-03T14:10:46Z</time></trkpt><trkpt lat="44.74878484531827" lon="9.536541002602066"><ele>1235.0</ele><time>2026-05-03T14:10:48Z</time></trkpt><trkpt lat="44.74882201615436" lon="9.53665565527242"><ele>1234.0</ele><time>2026-05-03T14:10:50Z</time></trkpt><trkpt lat="44.74886601838445" lon="9.536828815915822"><ele>1233.0</ele><time>2026-05-03T14:10:52Z</time></trkpt><trkpt lat="44.74888930509159" lon="9.536913528677125"><ele>1232.0</ele><time>2026-05-03T14:10:53Z</time></trkpt><trkpt lat="44.748932329800255" lon="9.536988064666602"><ele>1231.0</ele><time>2026-05-03T14:10:54Z</time></trkpt><trkpt lat="44.74900416578909" lon="9.537155340741391"><ele>1231.0</ele><time>2026-05-03T14:10:56Z</time></trkpt><trkpt lat="44.74905288171304" lon="9.537249983224134"><ele>1231.0</ele><time>2026-05-03T14:10:57Z</time></trkpt><trkpt lat="44.74909999121069" lon="9.537366441955912"><ele>1231.0</ele><time>2026-05-03T14:10:58Z</time></trkpt><trkpt lat="44.749148872635686" lon="9.537467065506142"><ele>1231.0</ele><time>2026-05-03T14:10:59Z</time></trkpt><trkpt lat="44.74919060020945" lon="9.537544007081305"><ele>1231.0</ele><time>2026-05-03T14:11:00Z</time></trkpt><trkpt lat="44.74923340947534" lon="9.537631484727653"><ele>1231.0</ele><time>2026-05-03T14:11:01Z</time></trkpt><trkpt lat="44.74927475715119" lon="9.537730465428517"><ele>1231.0</ele><time>2026-05-03T14:11:02Z</time></trkpt><trkpt lat="44.74932347149892" lon="9.537812984653662"><ele>1231.0</ele><time>2026-05-03T14:11:03Z</time></trkpt><trkpt lat="44.749411339440314" lon="9.537999422440237"><ele>1231.0</ele><time>2026-05-03T14:11:05Z</time></trkpt><trkpt lat="44.74946135406555" lon="9.538128770051367"><ele>1231.0</ele><time>2026-05-03T14:11:06Z</time></trkpt><trkpt lat="44.7494964097943" lon="9.538236764050799"><ele>1231.0</ele><time>2026-05-03T14:11:07Z</time></trkpt><trkpt lat="44.74957716484758" lon="9.53836429632079"><ele>1230.8333333333333</ele><time>2026-05-03T14:11:09Z</time></trkpt><trkpt lat="44.74963655888567" lon="9.538446443649553"><ele>1230.6666666666665</ele><time>2026-05-03T14:11:10Z</time></trkpt><trkpt lat="44.74969949413785" lon="9.538542991904345"><ele>1230.5</ele><time>2026-05-03T14:11:11Z</time></trkpt><trkpt lat="44.74975599118878" lon="9.538604831006232"><ele>1230.3333333333333</ele><time>2026-05-03T14:11:12Z</time></trkpt><trkpt lat="44.74981781672755" lon="9.538627364826711"><ele>1230.1666666666667</ele><time>2026-05-03T14:11:13Z</time></trkpt><trkpt lat="44.749906634971936" lon="9.53864326935976"><ele>1230.0</ele><time>2026-05-03T14:11:15Z</time></trkpt><trkpt lat="44.7500104111305" lon="9.538658204492673"><ele>1230.0</ele><time>2026-05-03T14:11:17Z</time></trkpt><trkpt lat="44.750075635841284" lon="9.538683420687757"><ele>1230.0</ele><time>2026-05-03T14:11:18Z</time></trkpt><trkpt lat="44.750162993680505" lon="9.538707435019147"><ele>1230.0</ele><time>2026-05-03T14:11:19Z</time></trkpt><trkpt lat="44.750237689145564" lon="9.538736748076476"><ele>1230.0</ele><time>2026-05-03T14:11:20Z</time></trkpt><trkpt lat="44.75032320483698" lon="9.538766057514906"><ele>1230.0</ele><time>2026-05-03T14:11:21Z</time></trkpt><trkpt lat="44.75043301221704" lon="9.538816129158787"><ele>1230.0</ele><time>2026-05-03T14:11:22Z</time></trkpt><trkpt lat="44.75053998973701" lon="9.538846323584233"><ele>1225.4</ele><time>2026-05-03T14:11:23Z</time></trkpt><trkpt lat="44.7506012023116" lon="9.538887149791867"><ele>1220.8</ele><time>2026-05-03T14:11:24Z</time></trkpt><trkpt lat="44.75068518647255" lon="9.538943122771439"><ele>1216.2</ele><time>2026-05-03T14:11:26Z</time></trkpt><trkpt lat="44.75078832860776" lon="9.538996294348419"><ele>1211.6</ele><time>2026-05-03T14:11:28Z</time></trkpt><trkpt lat="44.750922659712955" lon="9.539015830902912"><ele>1207.0</ele><time>2026-05-03T14:11:30Z</time></trkpt><trkpt lat="44.751029348483115" lon="9.53911362595744"><ele>1207.3333333333333</ele><time>2026-05-03T14:11:32Z</time></trkpt><trkpt lat="44.75107425629379" lon="9.539185482256642"><ele>1207.6666666666665</ele><time>2026-05-03T14:11:33Z</time></trkpt><trkpt lat="44.75118470571302" lon="9.539231635099897"><ele>1208.0</ele><time>2026-05-03T14:11:35Z</time></trkpt><trkpt lat="44.751259476984536" lon="9.539250604123419"><ele>1208.3333333333333</ele><time>2026-05-03T14:11:36Z</time></trkpt><trkpt lat="44.751338724819426" lon="9.539284466927668"><ele>1208.6666666666667</ele><time>2026-05-03T14:11:37Z</time></trkpt><trkpt lat="44.75140059279706" lon="9.539319539957637"><ele>1209.0</ele><time>2026-05-03T14:11:38Z</time></trkpt><trkpt lat="44.751487259192174" lon="9.539386375793734"><ele>1209.0</ele><time>2026-05-03T14:11:40Z</time></trkpt><trkpt lat="44.751558472920934" lon="9.539457456908996"><ele>1209.0</ele><time>2026-05-03T14:11:41Z</time></trkpt><trkpt lat="44.75163509918812" lon="9.539509796269932"><ele>1209.0</ele><time>2026-05-03T14:11:42Z</time></trkpt><trkpt lat="44.75170227382917" lon="9.539527819400444"><ele>1209.0</ele><time>2026-05-03T14:11:43Z</time></trkpt><trkpt lat="44.75180550169758" lon="9.539615403684378"><ele>1209.0</ele><time>2026-05-03T14:11:45Z</time></trkpt><trkpt lat="44.75188108840482" lon="9.539623191710675"><ele>1209.0</ele><time>2026-05-03T14:11:47Z</time></trkpt><trkpt lat="44.75189290033036" lon="9.539730311241984"><ele>1203.4</ele><time>2026-05-03T14:11:49Z</time></trkpt><trkpt lat="44.751921632872126" lon="9.539811670086776"><ele>1197.8000000000002</ele><time>2026-05-03T14:11:51Z</time></trkpt><trkpt lat="44.751996167487896" lon="9.539811534899453"><ele>1192.1999999999998</ele><time>2026-05-03T14:11:52Z</time></trkpt><trkpt lat="44.75209667225712" lon="9.539850900143874"><ele>1186.6</ele><time>2026-05-03T14:11:53Z</time></trkpt><trkpt lat="44.75218221298026" lon="9.539856164817627"><ele>1181.0</ele><time>2026-05-03T14:11:54Z</time></trkpt><trkpt lat="44.752280747917695" lon="9.53975212445251"><ele>1181.0</ele><time>2026-05-03T14:11:56Z</time></trkpt><trkpt lat="44.75234025402815" lon="9.539811122599751"><ele>1181.0</ele><time>2026-05-03T14:11:59Z</time></trkpt><trkpt lat="44.75241335718564" lon="9.539824665237319"><ele>1181.0</ele><time>2026-05-03T14:12:02Z</time></trkpt><trkpt lat="44.75247261516042" lon="9.539864127402232"><ele>1181.0</ele><time>2026-05-03T14:12:17Z</time></trkpt><trkpt lat="44.752436707646055" lon="9.539960983243516"><ele>1181.0</ele><time>2026-05-03T14:12:57Z</time></trkpt><trkpt lat="44.75250707105031" lon="9.539992394873392"><ele>1181.0</ele><time>2026-05-03T14:13:05Z</time></trkpt><trkpt lat="44.75257064249958" lon="9.539965273779721"><ele>1181.0</ele><time>2026-05-03T14:13:09Z</time></trkpt><trkpt lat="44.75262718113793" lon="9.539921700975787"><ele>1176.0</ele><time>2026-05-03T14:13:11Z</time></trkpt><trkpt lat="44.75270753439426" lon="9.539959172107787"><ele>1171.0</ele><time>2026-05-03T14:13:13Z</time></trkpt><trkpt lat="44.75283089349592" lon="9.539971792765709"><ele>1166.0</ele><time>2026-05-03T14:13:15Z</time></trkpt><trkpt lat="44.752906069074314" lon="9.53995243336839"><ele>1161.0</ele><time>2026-05-03T14:13:16Z</time></trkpt><trkpt lat="44.75298025399279" lon="9.539911784363149"><ele>1156.0</ele><time>2026-05-03T14:13:17Z</time></trkpt><trkpt lat="44.75308165057925" lon="9.53990246753782"><ele>1156.0</ele><time>2026-05-03T14:13:19Z</time></trkpt><trkpt lat="44.75315646408828" lon="9.539893602967455"><ele>1156.0</ele><time>2026-05-03T14:13:20Z</time></trkpt><trkpt lat="44.75329239327703" lon="9.539859968193571"><ele>1156.0</ele><time>2026-05-03T14:13:22Z</time></trkpt><trkpt lat="44.75335970671524" lon="9.539886555165785"><ele>1156.0</ele><time>2026-05-03T14:13:23Z</time></trkpt><trkpt lat="44.75343327169998" lon="9.539892446692933"><ele>1156.0</ele><time>2026-05-03T14:13:24Z</time></trkpt><trkpt lat="44.753496405931806" lon="9.53990945283911"><ele>1156.0</ele><time>2026-05-03T14:13:25Z</time></trkpt><trkpt lat="44.75361065133172" lon="9.539875922527436"><ele>1153.0</ele><time>2026-05-03T14:13:27Z</time></trkpt><trkpt lat="44.75368907121263" lon="9.539820278463784"><ele>1150.0</ele><time>2026-05-03T14:13:28Z</time></trkpt><trkpt lat="44.75376630774199" lon="9.539822078845557"><ele>1147.0</ele><time>2026-05-03T14:13:29Z</time></trkpt><trkpt lat="44.75384581138923" lon="9.539841734451956"><ele>1144.0</ele><time>2026-05-03T14:13:30Z</time></trkpt><trkpt lat="44.7539137473567" lon="9.539872954459799"><ele>1141.0</ele><time>2026-05-03T14:13:31Z</time></trkpt><trkpt lat="44.753973854085416" lon="9.539921860516385"><ele>1138.0</ele><time>2026-05-03T14:13:32Z</time></trkpt><trkpt lat="44.75404438652033" lon="9.539945741237576"><ele>1138.0</ele><time>2026-05-03T14:13:33Z</time></trkpt><trkpt lat="44.75411180050025" lon="9.539967746679032"><ele>1138.0</ele><time>2026-05-03T14:13:34Z</time></trkpt><trkpt lat="44.754179725876526" lon="9.540038617507564"><ele>1138.0</ele><time>2026-05-03T14:13:36Z</time></trkpt><trkpt lat="44.75426868615872" lon="9.540072085419235"><ele>1138.0</ele><time>2026-05-03T14:13:38Z</time></trkpt><trkpt lat="44.75434265235818" lon="9.54005912277468"><ele>1138.0</ele><time>2026-05-03T14:13:40Z</time></trkpt><trkpt lat="44.75443268481783" lon="9.540048982614074"><ele>1138.0</ele><time>2026-05-03T14:13:58Z</time></trkpt><trkpt lat="44.75450934339292" lon="9.54001977730508"><ele>1134.5</ele><time>2026-05-03T14:14:00Z</time></trkpt><trkpt lat="44.754598125159454" lon="9.539959429872328"><ele>1131.0</ele><time>2026-05-03T14:14:02Z</time></trkpt><trkpt lat="44.754664407169514" lon="9.539916139749177"><ele>1127.5</ele><time>2026-05-03T14:14:03Z</time></trkpt><trkpt lat="44.75471591434508" lon="9.539865078906873"><ele>1124.0</ele><time>2026-05-03T14:14:04Z</time></trkpt><trkpt lat="44.75477593006172" lon="9.539816113324544"><ele>1120.5</ele><time>2026-05-03T14:14:05Z</time></trkpt><trkpt lat="44.75486465396096" lon="9.539741976582423"><ele>1117.0</ele><time>2026-05-03T14:14:07Z</time></trkpt><trkpt lat="44.75495492479525" lon="9.539644044493219"><ele>1117.0</ele><time>2026-05-03T14:14:09Z</time></trkpt><trkpt lat="44.75502145723148" lon="9.53960862261751"><ele>1117.0</ele><time>2026-05-03T14:14:10Z</time></trkpt><trkpt lat="44.755088282327186" lon="9.539582991154102"><ele>1117.0</ele><time>2026-05-03T14:14:11Z</time></trkpt><trkpt lat="44.75516651712445" lon="9.539554889500423"><ele>1117.0</ele><time>2026-05-03T14:14:12Z</time></trkpt><trkpt lat="44.75525949205717" lon="9.539506884087675"><ele>1117.0</ele><time>2026-05-03T14:14:14Z</time></trkpt><trkpt lat="44.75536986953369" lon="9.53950526546244"><ele>1117.0</ele><time>2026-05-03T14:14:16Z</time></trkpt><trkpt lat="44.75547900321203" lon="9.53946938709765"><ele>1112.8</ele><time>2026-05-03T14:14:18Z</time></trkpt><trkpt lat="44.75557707637539" lon="9.539465044666587"><ele>1108.6</ele><time>2026-05-03T14:14:20Z</time></trkpt><trkpt lat="44.75568936365514" lon="9.539444316088472"><ele>1104.3999999999999</ele><time>2026-05-03T14:14:22Z</time></trkpt><trkpt lat="44.75575993547647" lon="9.539436983789836"><ele>1100.2</ele><time>2026-05-03T14:14:23Z</time></trkpt><trkpt lat="44.75582503504094" lon="9.539454358748014"><ele>1096.0</ele><time>2026-05-03T14:14:24Z</time></trkpt><trkpt lat="44.755936702144794" lon="9.539455273993878"><ele>1090.8</ele><time>2026-05-03T14:14:26Z</time></trkpt><trkpt lat="44.75603807448374" lon="9.539394238770893"><ele>1085.6</ele><time>2026-05-03T14:14:28Z</time></trkpt><trkpt lat="44.756149145302125" lon="9.539379639716541"><ele>1080.4</ele><time>2026-05-03T14:14:30Z</time></trkpt><trkpt lat="44.7562501127638" lon="9.539454465510497"><ele>1075.2</ele><time>2026-05-03T14:14:32Z</time></trkpt><trkpt lat="44.756356334476315" lon="9.539435917693524"><ele>1070.0</ele><time>2026-05-03T14:14:34Z</time></trkpt><trkpt lat="44.75644315089963" lon="9.539443427971053"><ele>1070.0</ele><time>2026-05-03T14:14:36Z</time></trkpt><trkpt lat="44.75653857277535" lon="9.539537341947874"><ele>1070.0</ele><time>2026-05-03T14:14:38Z</time></trkpt><trkpt lat="44.756605690625264" lon="9.53962964668738"><ele>1070.0</ele><time>2026-05-03T14:14:40Z</time></trkpt><trkpt lat="44.75659184772541" lon="9.539783255782062"><ele>1070.0</ele><time>2026-05-03T14:14:42Z</time></trkpt><trkpt lat="44.75666284708905" lon="9.539850088557344"><ele>1070.0</ele><time>2026-05-03T14:14:44Z</time></trkpt><trkpt lat="44.75675760141641" lon="9.539940186007705"><ele>1069.6</ele><time>2026-05-03T14:14:46Z</time></trkpt><trkpt lat="44.756821877579206" lon="9.540088696398401"><ele>1069.2</ele><time>2026-05-03T14:14:48Z</time></trkpt><trkpt lat="44.756910530258665" lon="9.540172646551117"><ele>1068.8</ele><time>2026-05-03T14:14:50Z</time></trkpt><trkpt lat="44.75699399814557" lon="9.540229612001136"><ele>1068.4</ele><time>2026-05-03T14:14:52Z</time></trkpt><trkpt lat="44.75706347724751" lon="9.540343908816821"><ele>1068.0</ele><time>2026-05-03T14:14:54Z</time></trkpt><trkpt lat="44.75708923855038" lon="9.540427003828308"><ele>1063.8</ele><time>2026-05-03T14:14:55Z</time></trkpt><trkpt lat="44.75718658347496" lon="9.540560697801347"><ele>1059.6</ele><time>2026-05-03T14:14:57Z</time></trkpt><trkpt lat="44.757259805532286" lon="9.540587210366276"><ele>1055.4</ele><time>2026-05-03T14:14:58Z</time></trkpt><trkpt lat="44.75736261336916" lon="9.54065512035336"><ele>1051.2</ele><time>2026-05-03T14:15:00Z</time></trkpt><trkpt lat="44.757455858792895" lon="9.540641522311953"><ele>1047.0</ele><time>2026-05-03T14:15:02Z</time></trkpt><trkpt lat="44.757546057458974" lon="9.540639061513174"><ele>1047.0</ele><time>2026-05-03T14:15:04Z</time></trkpt><trkpt lat="44.757622187986954" lon="9.5406336852581"><ele>1047.0</ele><time>2026-05-03T14:15:06Z</time></trkpt><trkpt lat="44.757710357326204" lon="9.540687548275951"><ele>1047.0</ele><time>2026-05-03T14:15:08Z</time></trkpt><trkpt lat="44.757794723447795" lon="9.540866900904604"><ele>1047.0</ele><time>2026-05-03T14:15:10Z</time></trkpt><trkpt lat="44.75789608968088" lon="9.540863035774924"><ele>1047.0</ele><time>2026-05-03T14:15:12Z</time></trkpt><trkpt lat="44.757921008748" lon="9.540768153713248"><ele>1043.6</ele><time>2026-05-03T14:15:13Z</time></trkpt><trkpt lat="44.75796974593496" lon="9.540684544621483"><ele>1040.2</ele><time>2026-05-03T14:15:14Z</time></trkpt><trkpt lat="44.75810451192177" lon="9.540699991217467"><ele>1036.8</ele><time>2026-05-03T14:15:16Z</time></trkpt><trkpt lat="44.75816802021502" lon="9.54075713666959"><ele>1033.4</ele><time>2026-05-03T14:15:17Z</time></trkpt><trkpt lat="44.758237970131056" lon="9.540820007804863"><ele>1030.0</ele><time>2026-05-03T14:15:18Z</time></trkpt><trkpt lat="44.7583060903506" lon="9.540881535322042"><ele>1030.0</ele><time>2026-05-03T14:15:19Z</time></trkpt><trkpt lat="44.758381936343646" lon="9.540959258756839"><ele>1030.0</ele><time>2026-05-03T14:15:20Z</time></trkpt><trkpt lat="44.75844159451914" lon="9.541043346179386"><ele>1030.0</ele><time>2026-05-03T14:15:21Z</time></trkpt><trkpt lat="44.75849197588326" lon="9.54113381324669"><ele>1030.0</ele><time>2026-05-03T14:15:23Z</time></trkpt><trkpt lat="44.75847176758224" lon="9.541222595620203"><ele>1030.0</ele><time>2026-05-03T14:15:24Z</time></trkpt><trkpt lat="44.75851389753756" lon="9.541413976084007"><ele>1027.8</ele><time>2026-05-03T14:15:26Z</time></trkpt><trkpt lat="44.75856799805516" lon="9.541525447491908"><ele>1025.6</ele><time>2026-05-03T14:15:27Z</time></trkpt><trkpt lat="44.75860772615672" lon="9.541627332813526"><ele>1023.4000000000001</ele><time>2026-05-03T14:15:28Z</time></trkpt><trkpt lat="44.75866233338148" lon="9.541740450883877"><ele>1021.2</ele><time>2026-05-03T14:15:29Z</time></trkpt><trkpt lat="44.758699568236956" lon="9.541825016661923"><ele>1019.0</ele><time>2026-05-03T14:15:30Z</time></trkpt><trkpt lat="44.75878816123118" lon="9.542016083650342"><ele>1018.6</ele><time>2026-05-03T14:15:32Z</time></trkpt><trkpt lat="44.75882383078282" lon="9.542092453491565"><ele>1018.2</ele><time>2026-05-03T14:15:33Z</time></trkpt><trkpt lat="44.758855946062354" lon="9.5421989413026"><ele>1017.8000000000001</ele><time>2026-05-03T14:15:34Z</time></trkpt><trkpt lat="44.75895657916213" lon="9.542287448342396"><ele>1017.4000000000001</ele><time>2026-05-03T14:15:36Z</time></trkpt><trkpt lat="44.759034038476564" lon="9.542275480005443"><ele>1017.0</ele><time>2026-05-03T14:15:37Z</time></trkpt><trkpt lat="44.75916208585314" lon="9.542288587398227"><ele>1017.0</ele><time>2026-05-03T14:15:39Z</time></trkpt><trkpt lat="44.759236107995875" lon="9.542359428556738"><ele>1017.0</ele><time>2026-05-03T14:15:40Z</time></trkpt><trkpt lat="44.75929699607604" lon="9.542459374566885"><ele>1017.0</ele><time>2026-05-03T14:15:41Z</time></trkpt><trkpt lat="44.75934671423538" lon="9.542546950416385"><ele>1017.0</ele><time>2026-05-03T14:15:42Z</time></trkpt><trkpt lat="44.75942015960945" lon="9.542675163013692"><ele>1017.0</ele><time>2026-05-03T14:15:44Z</time></trkpt><trkpt lat="44.75949473817877" lon="9.542780913112352"><ele>1013.8</ele><time>2026-05-03T14:15:46Z</time></trkpt><trkpt lat="44.75955468943756" lon="9.542869033851625"><ele>1010.6</ele><time>2026-05-03T14:15:48Z</time></trkpt><trkpt lat="44.75960558559469" lon="9.542986871205352"><ele>1007.3999999999999</ele><time>2026-05-03T14:15:50Z</time></trkpt><trkpt lat="44.75965480559784" lon="9.543077511054245"><ele>1004.1999999999999</ele><time>2026-05-03T14:16:01Z</time></trkpt><trkpt lat="44.75971304663165" lon="9.543184807955917"><ele>1001.0</ele><time>2026-05-03T14:16:03Z</time></trkpt><trkpt lat="44.75980130692675" lon="9.543228594207726"><ele>1000.5999999999999</ele><time>2026-05-03T14:16:06Z</time></trkpt><trkpt lat="44.759885301153204" lon="9.54332890932589"><ele>1000.1999999999999</ele><time>2026-05-03T14:16:08Z</time></trkpt><trkpt lat="44.75998413107638" lon="9.54346935197873"><ele>999.8000000000001</ele><time>2026-05-03T14:16:10Z</time></trkpt><trkpt lat="44.76006089725993" lon="9.543522537276344"><ele>999.4000000000001</ele><time>2026-05-03T14:16:11Z</time></trkpt><trkpt lat="44.76014565814862" lon="9.543591926313406"><ele>999.0</ele><time>2026-05-03T14:16:12Z</time></trkpt><trkpt lat="44.76022932637279" lon="9.543667755012404"><ele>996.2</ele><time>2026-05-03T14:16:13Z</time></trkpt><trkpt lat="44.76028903928861" lon="9.543708885967497"><ele>993.4000000000001</ele><time>2026-05-03T14:16:14Z</time></trkpt><trkpt lat="44.760385310521315" lon="9.543849107927077"><ele>990.6</ele><time>2026-05-03T14:16:16Z</time></trkpt><trkpt lat="44.76046279608067" lon="9.543973428541756"><ele>987.8</ele><time>2026-05-03T14:16:17Z</time></trkpt><trkpt lat="44.76054032762408" lon="9.54406252081003"><ele>985.0</ele><time>2026-05-03T14:16:18Z</time></trkpt><trkpt lat="44.76062883999471" lon="9.544086056660246"><ele>985.0</ele><time>2026-05-03T14:16:20Z</time></trkpt><trkpt lat="44.76071711530941" lon="9.544128435317534"><ele>985.0</ele><time>2026-05-03T14:16:22Z</time></trkpt><trkpt lat="44.76083527884517" lon="9.544114093771705"><ele>985.0</ele><time>2026-05-03T14:16:25Z</time></trkpt><trkpt lat="44.76096717772566" lon="9.544162284572952"><ele>985.0</ele><time>2026-05-03T14:16:27Z</time></trkpt><trkpt lat="44.76102327147909" lon="9.544228658541648"><ele>985.0</ele><time>2026-05-03T14:16:28Z</time></trkpt><trkpt lat="44.76105991646175" lon="9.544317771561401"><ele>984.6</ele><time>2026-05-03T14:16:29Z</time></trkpt><trkpt lat="44.76111002284445" lon="9.544427012105858"><ele>984.2</ele><time>2026-05-03T14:16:30Z</time></trkpt><trkpt lat="44.761155340197796" lon="9.544531378870953"><ele>983.8</ele><time>2026-05-03T14:16:31Z</time></trkpt><trkpt lat="44.76120521556211" lon="9.54461247573893"><ele>983.4</ele><time>2026-05-03T14:16:32Z</time></trkpt><trkpt lat="44.76134303461541" lon="9.544722705036456"><ele>983.0</ele><time>2026-05-03T14:16:34Z</time></trkpt><trkpt lat="44.76143133381558" lon="9.544768838477234"><ele>984.6666666666667</ele><time>2026-05-03T14:16:35Z</time></trkpt><trkpt lat="44.76150508745242" lon="9.544832403689423"><ele>986.3333333333334</ele><time>2026-05-03T14:16:36Z</time></trkpt><trkpt lat="44.76156779213654" lon="9.544921047025749"><ele>988.0</ele><time>2026-05-03T14:16:37Z</time></trkpt><trkpt lat="44.76161127380173" lon="9.544987141142867"><ele>989.6666666666667</ele><time>2026-05-03T14:16:38Z</time></trkpt><trkpt lat="44.76166520601712" lon="9.545064512475207"><ele>991.3333333333334</ele><time>2026-05-03T14:16:39Z</time></trkpt><trkpt lat="44.76172497270502" lon="9.545171597884522"><ele>993.0</ele><time>2026-05-03T14:16:40Z</time></trkpt><trkpt lat="44.76176279703628" lon="9.545286867144927"><ele>993.5</ele><time>2026-05-03T14:16:41Z</time></trkpt><trkpt lat="44.76178252542857" lon="9.545401263169287"><ele>994.0</ele><time>2026-05-03T14:16:42Z</time></trkpt><trkpt lat="44.761774945563154" lon="9.545514198985456"><ele>994.5</ele><time>2026-05-03T14:16:43Z</time></trkpt><trkpt lat="44.761773852930794" lon="9.545612970371083"><ele>995.0</ele><time>2026-05-03T14:16:44Z</time></trkpt><trkpt lat="44.76179799955427" lon="9.54571461713434"><ele>995.5</ele><time>2026-05-03T14:16:45Z</time></trkpt><trkpt lat="44.761818966490765" lon="9.54588256669969"><ele>996.0</ele><time>2026-05-03T14:16:47Z</time></trkpt><trkpt lat="44.76183132856295" lon="9.54602957288464"><ele>996.0</ele><time>2026-05-03T14:16:48Z</time></trkpt><trkpt lat="44.761844063050354" lon="9.546132126597035"><ele>996.0</ele><time>2026-05-03T14:16:49Z</time></trkpt><trkpt lat="44.76186536142201" lon="9.546279021167793"><ele>996.0</ele><time>2026-05-03T14:16:51Z</time></trkpt><trkpt lat="44.761906479269705" lon="9.546370933146038"><ele>996.0</ele><time>2026-05-03T14:16:52Z</time></trkpt><trkpt lat="44.761959824061016" lon="9.546457216123173"><ele>996.0</ele><time>2026-05-03T14:16:53Z</time></trkpt><trkpt lat="44.76202405054444" lon="9.546502981138218"><ele>996.0</ele><time>2026-05-03T14:16:54Z</time></trkpt><trkpt lat="44.76209818126603" lon="9.54655119749679"><ele>996.1666666666666</ele><time>2026-05-03T14:16:55Z</time></trkpt><trkpt lat="44.76216674765086" lon="9.546590322994698"><ele>996.3333333333333</ele><time>2026-05-03T14:16:56Z</time></trkpt><trkpt lat="44.762216569156976" lon="9.546685429318112"><ele>996.5</ele><time>2026-05-03T14:16:57Z</time></trkpt><trkpt lat="44.7622546661123" lon="9.546773286987307"><ele>996.6666666666666</ele><time>2026-05-03T14:16:58Z</time></trkpt><trkpt lat="44.76231454434499" lon="9.546934630128343"><ele>996.8333333333333</ele><time>2026-05-03T14:17:00Z</time></trkpt><trkpt lat="44.762344819457624" lon="9.54701770132161"><ele>997.0</ele><time>2026-05-03T14:17:01Z</time></trkpt><trkpt lat="44.76245832884386" lon="9.547127116584289"><ele>996.4999999999999</ele><time>2026-05-03T14:17:03Z</time></trkpt><trkpt lat="44.762519978010864" lon="9.54720172285032"><ele>996.0</ele><time>2026-05-03T14:17:04Z</time></trkpt><trkpt lat="44.762591404114744" lon="9.547267029187756"><ele>995.5</ele><time>2026-05-03T14:17:05Z</time></trkpt><trkpt lat="44.76265057411207" lon="9.547340653935862"><ele>995.0</ele><time>2026-05-03T14:17:06Z</time></trkpt><trkpt lat="44.762680947042334" lon="9.547431359133702"><ele>994.4999999999999</ele><time>2026-05-03T14:17:07Z</time></trkpt><trkpt lat="44.762714117442236" lon="9.547538415559824"><ele>994.0</ele><time>2026-05-03T14:17:08Z</time></trkpt><trkpt lat="44.76275852305208" lon="9.547620482261737"><ele>993.9999999999999</ele><time>2026-05-03T14:17:09Z</time></trkpt><trkpt lat="44.762821443023846" lon="9.54766241996763"><ele>994.0</ele><time>2026-05-03T14:17:10Z</time></trkpt><trkpt lat="44.762887106797926" lon="9.547721617070332"><ele>994.0</ele><time>2026-05-03T14:17:11Z</time></trkpt><trkpt lat="44.76295600740259" lon="9.547774192706582"><ele>994.0</ele><time>2026-05-03T14:17:12Z</time></trkpt><trkpt lat="44.76301775878606" lon="9.547841795986114"><ele>993.9999999999999</ele><time>2026-05-03T14:17:13Z</time></trkpt><trkpt lat="44.76306115503068" lon="9.547910767061381"><ele>994.0</ele><time>2026-05-03T14:17:14Z</time></trkpt><trkpt lat="44.763125523991036" lon="9.548010361881856"><ele>993.9999999999999</ele><time>2026-05-03T14:17:15Z</time></trkpt><trkpt lat="44.76317713627368" lon="9.548069394180928"><ele>994.0</ele><time>2026-05-03T14:17:16Z</time></trkpt><trkpt lat="44.76324701004415" lon="9.548097004476345"><ele>994.0</ele><time>2026-05-03T14:17:17Z</time></trkpt><trkpt lat="44.76332481521784" lon="9.548134225079595"><ele>994.0</ele><time>2026-05-03T14:17:18Z</time></trkpt><trkpt lat="44.763403903753655" lon="9.548180716008249"><ele>993.9999999999999</ele><time>2026-05-03T14:17:19Z</time></trkpt><trkpt lat="44.76349041112581" lon="9.548193557406506"><ele>994.0</ele><time>2026-05-03T14:17:20Z</time></trkpt><trkpt lat="44.76358339986815" lon="9.548175660567686"><ele>994.0</ele><time>2026-05-03T14:17:21Z</time></trkpt><trkpt lat="44.7636822637054" lon="9.548165256732476"><ele>994.0000000000001</ele><time>2026-05-03T14:17:22Z</time></trkpt><trkpt lat="44.763782303843335" lon="9.548154812143721"><ele>994.0000000000001</ele><time>2026-05-03T14:17:23Z</time></trkpt><trkpt lat="44.76385806080104" lon="9.54818962506437"><ele>994.0</ele><time>2026-05-03T14:17:24Z</time></trkpt><trkpt lat="44.76397710207029" lon="9.548287957385615"><ele>994.0</ele><time>2026-05-03T14:17:26Z</time></trkpt><trkpt lat="44.764063096042555" lon="9.548306915402806"><ele>994.0</ele><time>2026-05-03T14:17:27Z</time></trkpt><trkpt lat="44.764134500054" lon="9.548288475713049"><ele>994.0000000000001</ele><time>2026-05-03T14:17:28Z</time></trkpt><trkpt lat="44.76419647444074" lon="9.548254794099513"><ele>994.0000000000001</ele><time>2026-05-03T14:17:29Z</time></trkpt><trkpt lat="44.764325294279566" lon="9.548261274109935"><ele>994.0</ele><time>2026-05-03T14:17:31Z</time></trkpt><trkpt lat="44.764400414690485" lon="9.548301895053225"><ele>994.0</ele><time>2026-05-03T14:17:32Z</time></trkpt><trkpt lat="44.764514468807164" lon="9.548349631731996"><ele>991.9999999999999</ele><time>2026-05-03T14:17:34Z</time></trkpt><trkpt lat="44.76462303567992" lon="9.548448862594396"><ele>990.0</ele><time>2026-05-03T14:17:36Z</time></trkpt><trkpt lat="44.764677571865064" lon="9.548496058362183"><ele>988.0</ele><time>2026-05-03T14:17:37Z</time></trkpt><trkpt lat="44.7647399145711" lon="9.548560260532748"><ele>986.0</ele><time>2026-05-03T14:17:38Z</time></trkpt><trkpt lat="44.76480295594258" lon="9.54862864762825"><ele>983.9999999999999</ele><time>2026-05-03T14:17:39Z</time></trkpt><trkpt lat="44.7648673867025" lon="9.548672115019334"><ele>982.0</ele><time>2026-05-03T14:17:40Z</time></trkpt><trkpt lat="44.76492837599952" lon="9.54873252399907"><ele>981.9999999999999</ele><time>2026-05-03T14:17:41Z</time></trkpt><trkpt lat="44.76498771442363" lon="9.548810646789434"><ele>982.0</ele><time>2026-05-03T14:17:42Z</time></trkpt><trkpt lat="44.76505914533806" lon="9.548913268927429"><ele>982.0</ele><time>2026-05-03T14:17:43Z</time></trkpt><trkpt lat="44.76512024002979" lon="9.54902764549748"><ele>982.0</ele><time>2026-05-03T14:17:44Z</time></trkpt><trkpt lat="44.76518590482173" lon="9.549089298640734"><ele>981.9999999999999</ele><time>2026-05-03T14:17:45Z</time></trkpt><trkpt lat="44.765255526613146" lon="9.549111753583468"><ele>982.0</ele><time>2026-05-03T14:17:46Z</time></trkpt><trkpt lat="44.76533455377894" lon="9.549135392215817"><ele>980.3333333333333</ele><time>2026-05-03T14:17:47Z</time></trkpt><trkpt lat="44.76540595902733" lon="9.549146296218684"><ele>978.6666666666666</ele><time>2026-05-03T14:17:48Z</time></trkpt><trkpt lat="44.765440625983985" lon="9.549272225600792"><ele>977.0</ele><time>2026-05-03T14:17:50Z</time></trkpt><trkpt lat="44.765485957771006" lon="9.549375599940491"><ele>975.3333333333333</ele><time>2026-05-03T14:17:51Z</time></trkpt><trkpt lat="44.76552604101776" lon="9.549447444942272"><ele>973.6666666666666</ele><time>2026-05-03T14:17:52Z</time></trkpt><trkpt lat="44.76558855857363" lon="9.54949200454313"><ele>972.0</ele><time>2026-05-03T14:17:53Z</time></trkpt><trkpt lat="44.76567249938956" lon="9.549531061255315"><ele>971.4000000000001</ele><time>2026-05-03T14:17:54Z</time></trkpt><trkpt lat="44.76575793749405" lon="9.549572995447674"><ele>970.8000000000001</ele><time>2026-05-03T14:17:55Z</time></trkpt><trkpt lat="44.76582708988634" lon="9.54959653220139"><ele>970.2</ele><time>2026-05-03T14:17:56Z</time></trkpt><trkpt lat="44.76590394034213" lon="9.54960479451774"><ele>969.6</ele><time>2026-05-03T14:17:57Z</time></trkpt><trkpt lat="44.7660293456589" lon="9.549691081651924"><ele>969.0</ele><time>2026-05-03T14:17:59Z</time></trkpt><trkpt lat="44.76609767918358" lon="9.549774555278885"><ele>968.0</ele><time>2026-05-03T14:18:00Z</time></trkpt><trkpt lat="44.766161593287165" lon="9.549879086800667"><ele>967.0</ele><time>2026-05-03T14:18:01Z</time></trkpt><trkpt lat="44.76621094161567" lon="9.549965862999803"><ele>966.0</ele><time>2026-05-03T14:18:02Z</time></trkpt><trkpt lat="44.76625209683325" lon="9.550042498596238"><ele>965.0</ele><time>2026-05-03T14:18:03Z</time></trkpt><trkpt lat="44.76629723325095" lon="9.550141633193817"><ele>964.0</ele><time>2026-05-03T14:18:04Z</time></trkpt><trkpt lat="44.76633848552915" lon="9.550222856832043"><ele>963.0</ele><time>2026-05-03T14:18:05Z</time></trkpt><trkpt lat="44.76642668994671" lon="9.550322078638333"><ele>962.0</ele><time>2026-05-03T14:18:07Z</time></trkpt><trkpt lat="44.7664745325456" lon="9.550451419302686"><ele>961.0</ele><time>2026-05-03T14:18:09Z</time></trkpt><trkpt lat="44.766543405916146" lon="9.550601592915307"><ele>960.0</ele><time>2026-05-03T14:18:11Z</time></trkpt><trkpt lat="44.76660969293456" lon="9.55073190354806"><ele>959.0</ele><time>2026-05-03T14:18:12Z</time></trkpt><trkpt lat="44.76668032828538" lon="9.550832980216324"><ele>958.0</ele><time>2026-05-03T14:18:13Z</time></trkpt><trkpt lat="44.766752576333595" lon="9.550904460111063"><ele>957.9999999999999</ele><time>2026-05-03T14:18:14Z</time></trkpt><trkpt lat="44.76684182067743" lon="9.550984299856033"><ele>958.0</ele><time>2026-05-03T14:18:15Z</time></trkpt><trkpt lat="44.76690656524399" lon="9.551061995327645"><ele>958.0</ele><time>2026-05-03T14:18:16Z</time></trkpt><trkpt lat="44.7669347744841" lon="9.551144524045649"><ele>958.0</ele><time>2026-05-03T14:18:17Z</time></trkpt><trkpt lat="44.76695234231" lon="9.55123316601083"><ele>957.9999999999999</ele><time>2026-05-03T14:18:18Z</time></trkpt><trkpt lat="44.76698822917863" lon="9.551367659908955"><ele>958.0</ele><time>2026-05-03T14:18:20Z</time></trkpt><trkpt lat="44.76696275674426" lon="9.551242206364961"><ele>957.3333333333333</ele><time>2026-05-03T14:19:01Z</time></trkpt><trkpt lat="44.76692204459442" lon="9.55113517148151"><ele>956.6666666666666</ele><time>2026-05-03T14:19:03Z</time></trkpt><trkpt lat="44.76699020788606" lon="9.551014261162305"><ele>956.0</ele><time>2026-05-03T14:19:06Z</time></trkpt><trkpt lat="44.767053792206724" lon="9.550938281872586"><ele>955.3333333333333</ele><time>2026-05-03T14:19:08Z</time></trkpt><trkpt lat="44.76711052196107" lon="9.550878075944023"><ele>954.6666666666666</ele><time>2026-05-03T14:19:09Z</time></trkpt><trkpt lat="44.76715832623126" lon="9.55081507067821"><ele>954.0</ele><time>2026-05-03T14:19:10Z</time></trkpt><trkpt lat="44.76725049739833" lon="9.5507314508521"><ele>954.0</ele><time>2026-05-03T14:19:12Z</time></trkpt><trkpt lat="44.76734179513636" lon="9.550645340707074"><ele>954.0000000000001</ele><time>2026-05-03T14:19:14Z</time></trkpt><trkpt lat="44.76744093993389" lon="9.55057382055908"><ele>954.0000000000001</ele><time>2026-05-03T14:19:16Z</time></trkpt><trkpt lat="44.76751119242769" lon="9.550540653256201"><ele>954.0</ele><time>2026-05-03T14:19:18Z</time></trkpt><trkpt lat="44.76760581629402" lon="9.550464668491996"><ele>954.0</ele><time>2026-05-03T14:19:20Z</time></trkpt><trkpt lat="44.76769107053704" lon="9.550413168734957"><ele>953.2</ele><time>2026-05-03T14:19:22Z</time></trkpt><trkpt lat="44.767791475748595" lon="9.550434455426108"><ele>952.4000000000001</ele><time>2026-05-03T14:19:24Z</time></trkpt><trkpt lat="44.76784074596369" lon="9.550504090461578"><ele>951.6</ele><time>2026-05-03T14:19:25Z</time></trkpt><trkpt lat="44.76795973942494" lon="9.550569980643493"><ele>950.8</ele><time>2026-05-03T14:19:27Z</time></trkpt><trkpt lat="44.76805793145012" lon="9.550556063107084"><ele>950.0</ele><time>2026-05-03T14:19:29Z</time></trkpt><trkpt lat="44.76813314693389" lon="9.550503699808434"><ele>950.0</ele><time>2026-05-03T14:19:30Z</time></trkpt><trkpt lat="44.76821450100982" lon="9.550452305381034"><ele>950.0</ele><time>2026-05-03T14:19:31Z</time></trkpt><trkpt lat="44.76827622699664" lon="9.550408619939939"><ele>950.0</ele><time>2026-05-03T14:19:32Z</time></trkpt><trkpt lat="44.76832926402113" lon="9.55034466785347"><ele>950.0</ele><time>2026-05-03T14:19:33Z</time></trkpt><trkpt lat="44.76841185012128" lon="9.550241118442237"><ele>950.0</ele><time>2026-05-03T14:19:34.999Z</time></trkpt><trkpt lat="44.76844788984436" lon="9.55006650184616"><ele>949.4</ele><time>2026-05-03T14:19:36.999Z</time></trkpt><trkpt lat="44.7684770782994" lon="9.54992908368096"><ele>948.8</ele><time>2026-05-03T14:19:37.999Z</time></trkpt><trkpt lat="44.768504477636306" lon="9.549788182133609"><ele>948.2</ele><time>2026-05-03T14:19:38.999Z</time></trkpt><trkpt lat="44.76849469573604" lon="9.549698310891294"><ele>947.6</ele><time>2026-05-03T14:19:40Z</time></trkpt><trkpt lat="44.768538164496064" lon="9.549549224444563"><ele>947.0</ele><time>2026-05-03T14:19:42Z</time></trkpt><trkpt lat="44.76862524420952" lon="9.549471567966789"><ele>945.1666666666667</ele><time>2026-05-03T14:19:43Z</time></trkpt><trkpt lat="44.76871957799886" lon="9.549440876217629"><ele>943.3333333333334</ele><time>2026-05-03T14:19:44Z</time></trkpt><trkpt lat="44.768756999456386" lon="9.549365257707102"><ele>941.5</ele><time>2026-05-03T14:19:53Z</time></trkpt><trkpt lat="44.768809932612264" lon="9.549316083386474"><ele>939.6666666666667</ele><time>2026-05-03T14:19:56Z</time></trkpt><trkpt lat="44.768869596352374" lon="9.549284775294348"><ele>937.8333333333334</ele><time>2026-05-03T14:20:07Z</time></trkpt><trkpt lat="44.76894825073151" lon="9.549251899701733"><ele>936.0</ele><time>2026-05-03T14:20:11Z</time></trkpt><trkpt lat="44.769028560912396" lon="9.549246317650077"><ele>936.0</ele><time>2026-05-03T14:20:13Z</time></trkpt><trkpt lat="44.76911890939608" lon="9.549159626027235"><ele>936.0</ele><time>2026-05-03T14:20:15Z</time></trkpt><trkpt lat="44.76925464201294" lon="9.549097879290477"><ele>936.0</ele><time>2026-05-03T14:20:17Z</time></trkpt><trkpt lat="44.76934924591803" lon="9.549061196671762"><ele>936.0</ele><time>2026-05-03T14:20:19Z</time></trkpt><trkpt lat="44.76947835681567" lon="9.549158561078391"><ele>934.5999999999999</ele><time>2026-05-03T14:20:21Z</time></trkpt><trkpt lat="44.76956754463127" lon="9.549238322375743"><ele>933.1999999999999</ele><time>2026-05-03T14:20:22Z</time></trkpt><trkpt lat="44.769660949310484" lon="9.549273933770113"><ele>931.8000000000001</ele><time>2026-05-03T14:20:23Z</time></trkpt><trkpt lat="44.76975955219954" lon="9.549269150266248"><ele>930.4000000000001</ele><time>2026-05-03T14:20:24Z</time></trkpt><trkpt lat="44.7698508118227" lon="9.549274735646776"><ele>929.0</ele><time>2026-05-03T14:20:25Z</time></trkpt><trkpt lat="44.76990551367897" lon="9.549324590324684"><ele>929.0</ele><time>2026-05-03T14:20:26Z</time></trkpt><trkpt lat="44.76997040695819" lon="9.549439028313243"><ele>929.0000000000001</ele><time>2026-05-03T14:20:27Z</time></trkpt><trkpt lat="44.770060169068735" lon="9.549545240716185"><ele>929.0000000000001</ele><time>2026-05-03T14:20:28Z</time></trkpt><trkpt lat="44.77008735816791" lon="9.549683029565864"><ele>929.0</ele><time>2026-05-03T14:20:30Z</time></trkpt><trkpt lat="44.77005814901418" lon="9.549803664940299"><ele>929.0</ele><time>2026-05-03T14:20:31Z</time></trkpt><trkpt lat="44.770041577101075" lon="9.549906592070329"><ele>928.8333333333334</ele><time>2026-05-03T14:20:32Z</time></trkpt><trkpt lat="44.76999367832397" lon="9.550005325670194"><ele>928.6666666666667</ele><time>2026-05-03T14:20:37Z</time></trkpt><trkpt lat="44.769956509793055" lon="9.550091614222664"><ele>928.5</ele><time>2026-05-03T14:20:40Z</time></trkpt><trkpt lat="44.769953076070834" lon="9.550182137150445"><ele>928.3333333333333</ele><time>2026-05-03T14:20:43Z</time></trkpt><trkpt lat="44.76998949834313" lon="9.550309990384433"><ele>928.1666666666666</ele><time>2026-05-03T14:20:46Z</time></trkpt><trkpt lat="44.770076742014396" lon="9.550294311775898"><ele>928.0</ele><time>2026-05-03T14:20:49Z</time></trkpt><trkpt lat="44.770200796717795" lon="9.5502753506802"><ele>926.6666666666666</ele><time>2026-05-03T14:20:51Z</time></trkpt><trkpt lat="44.77029322246437" lon="9.550348077438688"><ele>925.3333333333333</ele><time>2026-05-03T14:20:53Z</time></trkpt><trkpt lat="44.770332563151946" lon="9.55042042972367"><ele>924.0</ele><time>2026-05-03T14:20:54Z</time></trkpt><trkpt lat="44.77036400831627" lon="9.550524933836503"><ele>922.6666666666667</ele><time>2026-05-03T14:20:55Z</time></trkpt><trkpt lat="44.77041189900697" lon="9.550608169074932"><ele>921.3333333333334</ele><time>2026-05-03T14:20:56Z</time></trkpt><trkpt lat="44.77044984295434" lon="9.550764775179934"><ele>920.0</ele><time>2026-05-03T14:20:58Z</time></trkpt><trkpt lat="44.77046335688674" lon="9.550873491194059"><ele>919.6</ele><time>2026-05-03T14:20:59Z</time></trkpt><trkpt lat="44.77054454987305" lon="9.551009896823771"><ele>919.2</ele><time>2026-05-03T14:21:01Z</time></trkpt><trkpt lat="44.7705929432991" lon="9.551067250813723"><ele>918.8</ele><time>2026-05-03T14:21:02Z</time></trkpt><trkpt lat="44.7706749049093" lon="9.55109639120246"><ele>918.4</ele><time>2026-05-03T14:21:04Z</time></trkpt><trkpt lat="44.77071984626422" lon="9.55098378385101"><ele>918.0</ele><time>2026-05-03T14:21:06Z</time></trkpt><trkpt lat="44.77078792836731" lon="9.550881504975623"><ele>918.0</ele><time>2026-05-03T14:21:07Z</time></trkpt><trkpt lat="44.77085507158522" lon="9.550790248113811"><ele>918.0</ele><time>2026-05-03T14:21:08Z</time></trkpt><trkpt lat="44.770907881763" lon="9.55070733006808"><ele>918.0</ele><time>2026-05-03T14:21:09Z</time></trkpt><trkpt lat="44.770935798085254" lon="9.550602508316215"><ele>918.0</ele><time>2026-05-03T14:21:10Z</time></trkpt><trkpt lat="44.77095142674678" lon="9.550515109416933"><ele>918.0</ele><time>2026-05-03T14:21:11Z</time></trkpt><trkpt lat="44.77101473026298" lon="9.550502087836886"><ele>918.0</ele><time>2026-05-03T14:21:14Z</time></trkpt><trkpt lat="44.77106170316434" lon="9.550410383114063"><ele>914.4</ele><time>2026-05-03T14:21:17Z</time></trkpt><trkpt lat="44.771093466353975" lon="9.550298213476754"><ele>910.8</ele><time>2026-05-03T14:21:21Z</time></trkpt><trkpt lat="44.771157611772146" lon="9.550195313602297"><ele>907.2</ele><time>2026-05-03T14:21:23Z</time></trkpt><trkpt lat="44.77124464480463" lon="9.550141528295399"><ele>903.6</ele><time>2026-05-03T14:21:24Z</time></trkpt><trkpt lat="44.771329351190246" lon="9.550071247782876"><ele>900.0</ele><time>2026-05-03T14:21:26Z</time></trkpt><trkpt lat="44.77141140900963" lon="9.54997838405447"><ele>900.0</ele><time>2026-05-03T14:21:28Z</time></trkpt><trkpt lat="44.77147447476966" lon="9.549971850758988"><ele>900.0</ele><time>2026-05-03T14:21:29Z</time></trkpt><trkpt lat="44.77154441305635" lon="9.549975739292222"><ele>900.0</ele><time>2026-05-03T14:21:30Z</time></trkpt><trkpt lat="44.77163197974028" lon="9.549973110495042"><ele>900.0</ele><time>2026-05-03T14:21:31Z</time></trkpt><trkpt lat="44.771694661970834" lon="9.549999408398893"><ele>900.0</ele><time>2026-05-03T14:21:32Z</time></trkpt><trkpt lat="44.771759882840406" lon="9.550032024040691"><ele>900.0</ele><time>2026-05-03T14:21:33Z</time></trkpt><trkpt lat="44.771856822625956" lon="9.550069070086916"><ele>897.8333333333334</ele><time>2026-05-03T14:21:33.999Z</time></trkpt><trkpt lat="44.77191179199065" lon="9.55011927688484"><ele>895.6666666666667</ele><time>2026-05-03T14:21:36.999Z</time></trkpt><trkpt lat="44.77198173838471" lon="9.55015594999375"><ele>893.5</ele><time>2026-05-03T14:21:41.999Z</time></trkpt><trkpt lat="44.77209897969416" lon="9.550188232270253"><ele>891.3333333333334</ele><time>2026-05-03T14:21:43.999Z</time></trkpt><trkpt lat="44.772166954104435" lon="9.55020510796797"><ele>889.1666666666667</ele><time>2026-05-03T14:21:44.999Z</time></trkpt><trkpt lat="44.77224595303198" lon="9.55021928153627"><ele>887.0</ele><time>2026-05-03T14:21:46Z</time></trkpt><trkpt lat="44.772327937834014" lon="9.5502597877136"><ele>887.0000000000001</ele><time>2026-05-03T14:21:48Z</time></trkpt><trkpt lat="44.772390597910004" lon="9.550371791894573"><ele>887.0</ele><time>2026-05-03T14:21:50Z</time></trkpt><trkpt lat="44.77243115153948" lon="9.550442994699607"><ele>887.0</ele><time>2026-05-03T14:21:51Z</time></trkpt><trkpt lat="44.772470854168105" lon="9.550540938427378"><ele>887.0</ele><time>2026-05-03T14:21:52Z</time></trkpt><trkpt lat="44.772510385470504" lon="9.550661520786901"><ele>887.0000000000001</ele><time>2026-05-03T14:21:53Z</time></trkpt><trkpt lat="44.77256595660863" lon="9.550759938659729"><ele>887.0</ele><time>2026-05-03T14:21:54Z</time></trkpt><trkpt lat="44.772616694946876" lon="9.55087148648202"><ele>887.4000000000001</ele><time>2026-05-03T14:21:55Z</time></trkpt><trkpt lat="44.7726694192388" lon="9.55095900231096"><ele>887.8000000000001</ele><time>2026-05-03T14:21:56Z</time></trkpt><trkpt lat="44.77274307029373" lon="9.551059195357055"><ele>888.2</ele><time>2026-05-03T14:21:57Z</time></trkpt><trkpt lat="44.772852745830576" lon="9.551113366964076"><ele>888.6</ele><time>2026-05-03T14:21:59Z</time></trkpt><trkpt lat="44.77294598360019" lon="9.551251958150418"><ele>889.0</ele><time>2026-05-03T14:22:01Z</time></trkpt><trkpt lat="44.77299466749428" lon="9.551332785453813"><ele>888.9999999999999</ele><time>2026-05-03T14:22:02Z</time></trkpt><trkpt lat="44.77304001470441" lon="9.551431488497604"><ele>889.0</ele><time>2026-05-03T14:22:03Z</time></trkpt><trkpt lat="44.77305956518259" lon="9.551534139037086"><ele>889.0</ele><time>2026-05-03T14:22:04Z</time></trkpt><trkpt lat="44.77312969506446" lon="9.551592109629695"><ele>889.0</ele><time>2026-05-03T14:22:06Z</time></trkpt><trkpt lat="44.77321262857476" lon="9.551541675059587"><ele>888.9999999999999</ele><time>2026-05-03T14:22:08Z</time></trkpt><trkpt lat="44.773287736949435" lon="9.551450051099664"><ele>889.0</ele><time>2026-05-03T14:22:09Z</time></trkpt><trkpt lat="44.7733868830382" lon="9.551328588486474"><ele>888.9999999999999</ele><time>2026-05-03T14:22:10Z</time></trkpt><trkpt lat="44.77345679818045" lon="9.551235261947724"><ele>889.0</ele><time>2026-05-03T14:22:11Z</time></trkpt><trkpt lat="44.77351748311764" lon="9.551184931310322"><ele>889.0</ele><time>2026-05-03T14:22:12Z</time></trkpt><trkpt lat="44.77359265771822" lon="9.551180263481125"><ele>889.0</ele><time>2026-05-03T14:22:13Z</time></trkpt><trkpt lat="44.773654209121204" lon="9.551206145752287"><ele>888.9999999999999</ele><time>2026-05-03T14:22:14Z</time></trkpt><trkpt lat="44.77374123776979" lon="9.551204943631303"><ele>889.0</ele><time>2026-05-03T14:22:15Z</time></trkpt><trkpt lat="44.77382067470288" lon="9.551153113091113"><ele>887.6</ele><time>2026-05-03T14:22:16Z</time></trkpt><trkpt lat="44.77390106587846" lon="9.551135433630794"><ele>886.2</ele><time>2026-05-03T14:22:17Z</time></trkpt><trkpt lat="44.77398222960292" lon="9.551142655082261"><ele>884.8000000000001</ele><time>2026-05-03T14:22:18Z</time></trkpt><trkpt lat="44.77408812098462" lon="9.551120268306656"><ele>883.4000000000001</ele><time>2026-05-03T14:22:19Z</time></trkpt><trkpt lat="44.77418202573433" lon="9.551091162679839"><ele>882.0</ele><time>2026-05-03T14:22:20Z</time></trkpt><trkpt lat="44.77427200001476" lon="9.551056308202167"><ele>880.5</ele><time>2026-05-03T14:22:21Z</time></trkpt><trkpt lat="44.774358644350855" lon="9.550999477659595"><ele>879.0</ele><time>2026-05-03T14:22:22Z</time></trkpt><trkpt lat="44.77444432138916" lon="9.550952870371797"><ele>877.5</ele><time>2026-05-03T14:22:23Z</time></trkpt><trkpt lat="44.77452663142084" lon="9.55091904212314"><ele>876.0</ele><time>2026-05-03T14:22:24Z</time></trkpt><trkpt lat="44.77461656315068" lon="9.550880897667717"><ele>874.5</ele><time>2026-05-03T14:22:25Z</time></trkpt><trkpt lat="44.774696082255765" lon="9.550864904080674"><ele>873.0</ele><time>2026-05-03T14:22:26Z</time></trkpt><trkpt lat="44.77478069645681" lon="9.550877761710167"><ele>873.0</ele><time>2026-05-03T14:22:27Z</time></trkpt><trkpt lat="44.77486992882611" lon="9.550925311574687"><ele>873.0</ele><time>2026-05-03T14:22:28Z</time></trkpt><trkpt lat="44.774943866265765" lon="9.551015795705453"><ele>873.0</ele><time>2026-05-03T14:22:29Z</time></trkpt><trkpt lat="44.77502598828642" lon="9.551109951265733"><ele>873.0</ele><time>2026-05-03T14:22:30Z</time></trkpt><trkpt lat="44.7751291812825" lon="9.551171988726608"><ele>873.0</ele><time>2026-05-03T14:22:31Z</time></trkpt><trkpt lat="44.77523200268488" lon="9.551199451357114"><ele>870.4</ele><time>2026-05-03T14:22:32Z</time></trkpt><trkpt lat="44.775295074065184" lon="9.551246752837177"><ele>867.8</ele><time>2026-05-03T14:22:33Z</time></trkpt><trkpt lat="44.775348785437004" lon="9.55139920820668"><ele>865.2</ele><time>2026-05-03T14:22:35Z</time></trkpt><trkpt lat="44.77535543743423" lon="9.551490801214369"><ele>862.6</ele><time>2026-05-03T14:22:36Z</time></trkpt><trkpt lat="44.77537103800803" lon="9.551636331179154"><ele>860.0</ele><time>2026-05-03T14:22:37Z</time></trkpt><trkpt lat="44.775402267532755" lon="9.551807671656933"><ele>860.0</ele><time>2026-05-03T14:22:38Z</time></trkpt><trkpt lat="44.77540742531308" lon="9.551973127088061"><ele>860.0</ele><time>2026-05-03T14:22:39Z</time></trkpt><trkpt lat="44.775421377928" lon="9.55211483133077"><ele>860.0</ele><time>2026-05-03T14:22:40Z</time></trkpt><trkpt lat="44.77547565080151" lon="9.552189289934436"><ele>860.0</ele><time>2026-05-03T14:22:41Z</time></trkpt><trkpt lat="44.775558707424466" lon="9.552253319885718"><ele>860.0</ele><time>2026-05-03T14:22:42Z</time></trkpt><trkpt lat="44.7756542414678" lon="9.552316259456218"><ele>860.6</ele><time>2026-05-03T14:22:43Z</time></trkpt><trkpt lat="44.77573210042784" lon="9.552329401134342"><ele>861.2</ele><time>2026-05-03T14:22:44Z</time></trkpt><trkpt lat="44.77578622846948" lon="9.552419841897946"><ele>861.8</ele><time>2026-05-03T14:22:46Z</time></trkpt><trkpt lat="44.77583814332802" lon="9.552530987488213"><ele>862.4</ele><time>2026-05-03T14:22:47Z</time></trkpt><trkpt lat="44.77591494597569" lon="9.552608561103641"><ele>863.0</ele><time>2026-05-03T14:22:48Z</time></trkpt><trkpt lat="44.7760283364797" lon="9.552652244185913"><ele>863.0</ele><time>2026-05-03T14:22:49Z</time></trkpt><trkpt lat="44.77614187569566" lon="9.552707909649621"><ele>863.0</ele><time>2026-05-03T14:22:50Z</time></trkpt><trkpt lat="44.77624775840692" lon="9.552770601553082"><ele>863.0</ele><time>2026-05-03T14:22:51Z</time></trkpt><trkpt lat="44.776351316574555" lon="9.552822348421488"><ele>863.0</ele><time>2026-05-03T14:22:52Z</time></trkpt><trkpt lat="44.77643263785036" lon="9.552854965208914"><ele>863.0</ele><time>2026-05-03T14:22:53Z</time></trkpt><trkpt lat="44.77652223692327" lon="9.552865817407914"><ele>865.5999999999999</ele><time>2026-05-03T14:22:54Z</time></trkpt><trkpt lat="44.77659806323938" lon="9.552885885317249"><ele>868.1999999999999</ele><time>2026-05-03T14:22:55Z</time></trkpt><trkpt lat="44.77670019020556" lon="9.552951957150876"><ele>870.8</ele><time>2026-05-03T14:22:56Z</time></trkpt><trkpt lat="44.776778002269936" lon="9.553037779181041"><ele>873.4</ele><time>2026-05-03T14:22:57Z</time></trkpt><trkpt lat="44.776848682233634" lon="9.553063851411274"><ele>876.0</ele><time>2026-05-03T14:22:58Z</time></trkpt><trkpt lat="44.776981529596334" lon="9.55301729000761"><ele>876.0</ele><time>2026-05-03T14:23:00Z</time></trkpt><trkpt lat="44.777081792365365" lon="9.552995740094035"><ele>876.0</ele><time>2026-05-03T14:23:01Z</time></trkpt><trkpt lat="44.77719919359886" lon="9.55298601075582"><ele>876.0</ele><time>2026-05-03T14:23:02Z</time></trkpt><trkpt lat="44.77729993695769" lon="9.55298907138338"><ele>876.0</ele><time>2026-05-03T14:23:03Z</time></trkpt><trkpt lat="44.77743509777857" lon="9.552974864909721"><ele>876.0</ele><time>2026-05-03T14:23:05Z</time></trkpt><trkpt lat="44.77751704011534" lon="9.552944772043373"><ele>875.9999999999999</ele><time>2026-05-03T14:23:06Z</time></trkpt><trkpt lat="44.777573848243925" lon="9.552881868795657"><ele>875.9999999999999</ele><time>2026-05-03T14:23:07Z</time></trkpt><trkpt lat="44.77765959442145" lon="9.552776539908018"><ele>876.0</ele><time>2026-05-03T14:23:08Z</time></trkpt><trkpt lat="44.7777595196615" lon="9.552685400305249"><ele>876.0</ele><time>2026-05-03T14:23:09Z</time></trkpt><trkpt lat="44.77784564591215" lon="9.552599859343628"><ele>875.0</ele><time>2026-05-03T14:23:10Z</time></trkpt><trkpt lat="44.77788410439229" lon="9.552504797847956"><ele>873.9999999999999</ele><time>2026-05-03T14:23:11Z</time></trkpt><trkpt lat="44.777914716814514" lon="9.552357064672021"><ele>872.9999999999999</ele><time>2026-05-03T14:23:12Z</time></trkpt><trkpt lat="44.777958632902674" lon="9.552229147475192"><ele>872.0</ele><time>2026-05-03T14:23:13Z</time></trkpt><trkpt lat="44.77799840510852" lon="9.552142662834056"><ele>871.0</ele><time>2026-05-03T14:23:14Z</time></trkpt><trkpt lat="44.778081628643385" lon="9.552051841380553"><ele>871.0</ele><time>2026-05-03T14:23:15Z</time></trkpt><trkpt lat="44.77814882989639" lon="9.551986050393964"><ele>870.9999999999999</ele><time>2026-05-03T14:23:16Z</time></trkpt><trkpt lat="44.77822864846877" lon="9.551962253026655"><ele>870.9999999999999</ele><time>2026-05-03T14:23:18Z</time></trkpt><trkpt lat="44.778297047085736" lon="9.55208670110749"><ele>871.0</ele><time>2026-05-03T14:23:20Z</time></trkpt><trkpt lat="44.77835605877908" lon="9.552184827442879"><ele>871.0</ele><time>2026-05-03T14:23:21Z</time></trkpt><trkpt lat="44.77840417078144" lon="9.552296130590518"><ele>871.0</ele><time>2026-05-03T14:23:22Z</time></trkpt><trkpt lat="44.77845731871776" lon="9.552372609331737"><ele>870.9999999999999</ele><time>2026-05-03T14:23:23Z</time></trkpt><trkpt lat="44.77854297309141" lon="9.552445391454075"><ele>870.9999999999999</ele><time>2026-05-03T14:23:24Z</time></trkpt><trkpt lat="44.77863317527702" lon="9.552484920436717"><ele>871.0</ele><time>2026-05-03T14:23:25Z</time></trkpt><trkpt lat="44.77873606521523" lon="9.55248100470319"><ele>871.0</ele><time>2026-05-03T14:23:25.999Z</time></trkpt><trkpt lat="44.77884022163784" lon="9.552468172990887"><ele>868.5999999999999</ele><time>2026-05-03T14:23:26.999Z</time></trkpt><trkpt lat="44.77892243796338" lon="9.552485782841673"><ele>866.1999999999999</ele><time>2026-05-03T14:23:27.999Z</time></trkpt><trkpt lat="44.77901302904617" lon="9.552483445807422"><ele>863.8000000000001</ele><time>2026-05-03T14:23:28.999Z</time></trkpt><trkpt lat="44.77910954276652" lon="9.5524904843094"><ele>861.4000000000001</ele><time>2026-05-03T14:23:29.999Z</time></trkpt><trkpt lat="44.77918900562674" lon="9.552517483136581"><ele>859.0</ele><time>2026-05-03T14:23:30.999Z</time></trkpt><trkpt lat="44.77929233963251" lon="9.552547179097656"><ele>856.1666666666666</ele><time>2026-05-03T14:23:31.999Z</time></trkpt><trkpt lat="44.77938743859932" lon="9.552577235610622"><ele>853.3333333333333</ele><time>2026-05-03T14:23:32.999Z</time></trkpt><trkpt lat="44.77946991498869" lon="9.55261521095524"><ele>850.5</ele><time>2026-05-03T14:23:33.999Z</time></trkpt><trkpt lat="44.77953367153035" lon="9.552654802524506"><ele>847.6666666666667</ele><time>2026-05-03T14:23:34.999Z</time></trkpt><trkpt lat="44.77959401690019" lon="9.552707873263719"><ele>844.8333333333334</ele><time>2026-05-03T14:23:35.999Z</time></trkpt><trkpt lat="44.77968437334751" lon="9.552762775103611"><ele>842.0</ele><time>2026-05-03T14:23:36.999Z</time></trkpt><trkpt lat="44.77977595385619" lon="9.552785459819363"><ele>842.0000000000001</ele><time>2026-05-03T14:23:37.999Z</time></trkpt><trkpt lat="44.779865723583974" lon="9.552800372435872"><ele>842.0</ele><time>2026-05-03T14:23:38.999Z</time></trkpt><trkpt lat="44.779948418887784" lon="9.552808199242355"><ele>842.0</ele><time>2026-05-03T14:23:39.999Z</time></trkpt><trkpt lat="44.7800198702389" lon="9.5528018962246"><ele>842.0</ele><time>2026-05-03T14:23:40.999Z</time></trkpt><trkpt lat="44.78012136892198" lon="9.552873964708326"><ele>842.0000000000001</ele><time>2026-05-03T14:23:42.999Z</time></trkpt><trkpt lat="44.78016927014552" lon="9.552932211672697"><ele>842.0</ele><time>2026-05-03T14:23:43.999Z</time></trkpt><trkpt lat="44.780225772544355" lon="9.552976980006736"><ele>838.4000000000001</ele><time>2026-05-03T14:23:44.999Z</time></trkpt><trkpt lat="44.78028687217468" lon="9.55305572111453"><ele>834.8000000000001</ele><time>2026-05-03T14:23:45.999Z</time></trkpt><trkpt lat="44.78035596599874" lon="9.553147412471816"><ele>831.2</ele><time>2026-05-03T14:23:47.999Z</time></trkpt><trkpt lat="44.78049315687707" lon="9.553066313266443"><ele>827.6</ele><time>2026-05-03T14:23:49.999Z</time></trkpt><trkpt lat="44.78059350794742" lon="9.55305806342915"><ele>824.0</ele><time>2026-05-03T14:23:52Z</time></trkpt><trkpt lat="44.780655978118155" lon="9.553071010566518"><ele>824.0000000000001</ele><time>2026-05-03T14:23:55Z</time></trkpt><trkpt lat="44.78075724333312" lon="9.553102868508052"><ele>824.0</ele><time>2026-05-03T14:24:00Z</time></trkpt><trkpt lat="44.78082295521565" lon="9.553068185734206"><ele>824.0</ele><time>2026-05-03T14:24:02Z</time></trkpt><trkpt lat="44.78084237911576" lon="9.552934285617043"><ele>824.0</ele><time>2026-05-03T14:24:04Z</time></trkpt><trkpt lat="44.7808924204072" lon="9.55285413741851"><ele>824.0000000000001</ele><time>2026-05-03T14:24:05Z</time></trkpt><trkpt lat="44.780972622358554" lon="9.552885893064024"><ele>824.0</ele><time>2026-05-03T14:24:07Z</time></trkpt><trkpt lat="44.78099520820164" lon="9.552975406207453"><ele>824.0000000000001</ele><time>2026-05-03T14:24:08Z</time></trkpt><trkpt lat="44.78099849877406" lon="9.553077514251358"><ele>824.0</ele><time>2026-05-03T14:24:09Z</time></trkpt><trkpt lat="44.78096982280675" lon="9.553174833480963"><ele>824.0</ele><time>2026-05-03T14:24:10Z</time></trkpt><trkpt lat="44.780921910482945" lon="9.553281753656254"><ele>824.0</ele><time>2026-05-03T14:24:11Z</time></trkpt><trkpt lat="44.78087490838792" lon="9.55336706860781"><ele>824.0000000000001</ele><time>2026-05-03T14:24:12Z</time></trkpt><trkpt lat="44.780871822258966" lon="9.55349129463888"><ele>824.0</ele><time>2026-05-03T14:24:14Z</time></trkpt><trkpt lat="44.780965851610254" lon="9.553532490757611"><ele>819.5</ele><time>2026-05-03T14:24:16Z</time></trkpt><trkpt lat="44.78109295772032" lon="9.553441686154917"><ele>815.0</ele><time>2026-05-03T14:24:18Z</time></trkpt><trkpt lat="44.78118417125181" lon="9.553375850752346"><ele>810.5</ele><time>2026-05-03T14:24:19Z</time></trkpt><trkpt lat="44.78129083947685" lon="9.55330753463559"><ele>806.0</ele><time>2026-05-03T14:24:20Z</time></trkpt><trkpt lat="44.78139109752793" lon="9.553236806844504"><ele>806.0</ele><time>2026-05-03T14:24:21Z</time></trkpt><trkpt lat="44.78150331661812" lon="9.553191928251044"><ele>806.0</ele><time>2026-05-03T14:24:22Z</time></trkpt><trkpt lat="44.781600154548954" lon="9.553153284179345"><ele>806.0</ele><time>2026-05-03T14:24:23Z</time></trkpt><trkpt lat="44.78170086360045" lon="9.553119915481243"><ele>806.0</ele><time>2026-05-03T14:24:24Z</time></trkpt><trkpt lat="44.78180051494444" lon="9.5530899672757"><ele>806.0</ele><time>2026-05-03T14:24:25Z</time></trkpt><trkpt lat="44.78189906864665" lon="9.553064198936264"><ele>801.75</ele><time>2026-05-03T14:24:26Z</time></trkpt><trkpt lat="44.7819998814234" lon="9.553023043342161"><ele>797.5</ele><time>2026-05-03T14:24:27Z</time></trkpt><trkpt lat="44.78210922310564" lon="9.552989768804228"><ele>793.25</ele><time>2026-05-03T14:24:28Z</time></trkpt><trkpt lat="44.78224061995061" lon="9.552953605750023"><ele>789.0</ele><time>2026-05-03T14:24:29Z</time></trkpt><trkpt lat="44.78236937969108" lon="9.552920711493769"><ele>789.0</ele><time>2026-05-03T14:24:30Z</time></trkpt><trkpt lat="44.78248900458138" lon="9.552900913268958"><ele>789.0</ele><time>2026-05-03T14:24:31Z</time></trkpt><trkpt lat="44.7826044331173" lon="9.552871857858284"><ele>789.0</ele><time>2026-05-03T14:24:32Z</time></trkpt><trkpt lat="44.78271070061279" lon="9.552849620038439"><ele>789.0</ele><time>2026-05-03T14:24:33Z</time></trkpt><trkpt lat="44.78282020597604" lon="9.552838687976985"><ele>788.0</ele><time>2026-05-03T14:24:34Z</time></trkpt><trkpt lat="44.78292106311522" lon="9.552819322203417"><ele>787.0</ele><time>2026-05-03T14:24:35Z</time></trkpt><trkpt lat="44.783017638148316" lon="9.552787801586542"><ele>786.0</ele><time>2026-05-03T14:24:36Z</time></trkpt><trkpt lat="44.78311869228074" lon="9.552754827381937"><ele>785.0</ele><time>2026-05-03T14:24:37Z</time></trkpt><trkpt lat="44.78324943828481" lon="9.552728340997144"><ele>784.0</ele><time>2026-05-03T14:24:38Z</time></trkpt><trkpt lat="44.7833936136701" lon="9.552703505988681"><ele>783.0</ele><time>2026-05-03T14:24:39Z</time></trkpt><trkpt lat="44.78354345247335" lon="9.552676506504774"><ele>782.0</ele><time>2026-05-03T14:24:40Z</time></trkpt><trkpt lat="44.78369455454018" lon="9.552650044534289"><ele>781.0</ele><time>2026-05-03T14:24:41Z</time></trkpt><trkpt lat="44.783835216013735" lon="9.552631707321542"><ele>780.0</ele><time>2026-05-03T14:24:42Z</time></trkpt><trkpt lat="44.78396489603883" lon="9.552620201774156"><ele>780.0</ele><time>2026-05-03T14:24:43Z</time></trkpt><trkpt lat="44.784086820573386" lon="9.552612101306421"><ele>780.0</ele><time>2026-05-03T14:24:44Z</time></trkpt><trkpt lat="44.78421261050531" lon="9.552602314469649"><ele>780.0</ele><time>2026-05-03T14:24:45Z</time></trkpt><trkpt lat="44.784324261752026" lon="9.552580801515385"><ele>780.0</ele><time>2026-05-03T14:24:46Z</time></trkpt><trkpt lat="44.784404181583675" lon="9.552556575277936"><ele>780.0</ele><time>2026-05-03T14:24:47Z</time></trkpt><trkpt lat="44.7844310914615" lon="9.552465157138563"><ele>780.0</ele><time>2026-05-03T14:24:57Z</time></trkpt><trkpt lat="44.78434636193145" lon="9.552352542791631"><ele>780.0</ele><time>2026-05-03T14:24:59Z</time></trkpt><trkpt lat="44.78428389353494" lon="9.552280742405456"><ele>780.0</ele><time>2026-05-03T14:25:00Z</time></trkpt><trkpt lat="44.784346525677854" lon="9.55212464913012"><ele>780.0</ele><time>2026-05-03T14:25:03Z</time></trkpt><trkpt lat="44.78439151728632" lon="9.551996947289984"><ele>780.0</ele><time>2026-05-03T14:25:04Z</time></trkpt><trkpt lat="44.78439140310604" lon="9.551905785707028"><ele>779.2</ele><time>2026-05-03T14:25:27.999Z</time></trkpt><trkpt lat="44.78449601380553" lon="9.551867719463521"><ele>778.4</ele><time>2026-05-03T14:25:29.999Z</time></trkpt><trkpt lat="44.78458976761831" lon="9.551854652542614"><ele>777.5999999999999</ele><time>2026-05-03T14:25:30.999Z</time></trkpt><trkpt lat="44.78469019684703" lon="9.551815187693284"><ele>776.8</ele><time>2026-05-03T14:25:31.999Z</time></trkpt><trkpt lat="44.78480605605885" lon="9.551764954748904"><ele>776.0</ele><time>2026-05-03T14:25:32.999Z</time></trkpt><trkpt lat="44.78488743074293" lon="9.551736308369847"><ele>776.0</ele><time>2026-05-03T14:25:33.999Z</time></trkpt><trkpt lat="44.78500871038433" lon="9.55176753757802"><ele>776.0</ele><time>2026-05-03T14:25:35.999Z</time></trkpt><trkpt lat="44.78506985548116" lon="9.551794030571072"><ele>776.0</ele><time>2026-05-03T14:25:36.999Z</time></trkpt><trkpt lat="44.78514221798631" lon="9.551808189224007"><ele>776.0</ele><time>2026-05-03T14:25:37.999Z</time></trkpt><trkpt lat="44.785166885894306" lon="9.551922221124158"><ele>776.0</ele><time>2026-05-03T14:25:39.999Z</time></trkpt><trkpt lat="44.785687916670405" lon="9.551667786953438"><ele>774.1999999999999</ele><time>2026-05-03T14:25:46.999Z</time></trkpt><trkpt lat="44.7857688029968" lon="9.55171376301037"><ele>772.4</ele><time>2026-05-03T14:25:48.999Z</time></trkpt><trkpt lat="44.78587995813692" lon="9.551697430011853"><ele>770.6</ele><time>2026-05-03T14:25:50.999Z</time></trkpt><trkpt lat="44.78596662881782" lon="9.55169503155389"><ele>768.8</ele><time>2026-05-03T14:25:51.999Z</time></trkpt><trkpt lat="44.786060397749715" lon="9.551734684733956"><ele>767.0</ele><time>2026-05-03T14:26:03Z</time></trkpt><trkpt lat="44.78613111872095" lon="9.551757123812905"><ele>766.0</ele><time>2026-05-03T14:26:05Z</time></trkpt><trkpt lat="44.78621496613852" lon="9.55175691248772"><ele>765.0</ele><time>2026-05-03T14:26:07Z</time></trkpt><trkpt lat="44.786281039665326" lon="9.551764077669516"><ele>764.0</ele><time>2026-05-03T14:26:08Z</time></trkpt><trkpt lat="44.78637959592333" lon="9.551768573965537"><ele>763.0</ele><time>2026-05-03T14:26:09Z</time></trkpt><trkpt lat="44.78644246775243" lon="9.551788425236737"><ele>762.0</ele><time>2026-05-03T14:26:10Z</time></trkpt><trkpt lat="44.786537776762316" lon="9.55180808778913"><ele>761.0</ele><time>2026-05-03T14:26:12Z</time></trkpt><trkpt lat="44.78657637579323" lon="9.551692089003897"><ele>761.0</ele><time>2026-05-03T14:26:14Z</time></trkpt><trkpt lat="44.78664551612496" lon="9.55164408768352"><ele>761.0</ele><time>2026-05-03T14:26:16Z</time></trkpt><trkpt lat="44.786713339262405" lon="9.551575463692654"><ele>761.0</ele><time>2026-05-03T14:26:18Z</time></trkpt><trkpt lat="44.78682212161446" lon="9.551512382721386"><ele>761.0</ele><time>2026-05-03T14:26:20Z</time></trkpt><trkpt lat="44.78690492890803" lon="9.551505895995682"><ele>761.0</ele><time>2026-05-03T14:26:21Z</time></trkpt><trkpt lat="44.786977174342866" lon="9.551515357714678"><ele>761.0</ele><time>2026-05-03T14:26:22Z</time></trkpt><trkpt lat="44.787069224449205" lon="9.551556461072138"><ele>760.8333333333333</ele><time>2026-05-03T14:26:24Z</time></trkpt><trkpt lat="44.78715003747513" lon="9.551622462799028"><ele>760.6666666666666</ele><time>2026-05-03T14:26:27Z</time></trkpt><trkpt lat="44.78723534717291" lon="9.551619479477626"><ele>760.5</ele><time>2026-05-03T14:26:29Z</time></trkpt><trkpt lat="44.78732609512308" lon="9.551556092341515"><ele>760.3333333333334</ele><time>2026-05-03T14:26:31Z</time></trkpt><trkpt lat="44.78738423782727" lon="9.551520685432163"><ele>760.1666666666667</ele><time>2026-05-03T14:26:32Z</time></trkpt><trkpt lat="44.787455292641994" lon="9.551490997382482"><ele>760.0</ele><time>2026-05-03T14:26:33Z</time></trkpt><trkpt lat="44.7875184767627" lon="9.551472950201179"><ele>760.0</ele><time>2026-05-03T14:26:35Z</time></trkpt><trkpt lat="44.78759900488304" lon="9.551411541479425"><ele>760.0</ele><time>2026-05-03T14:26:37Z</time></trkpt><trkpt lat="44.78766249299735" lon="9.55136271824334"><ele>760.0</ele><time>2026-05-03T14:26:58Z</time></trkpt><trkpt lat="44.78770860988427" lon="9.551282834076163"><ele>760.0</ele><time>2026-05-03T14:27:04Z</time></trkpt><trkpt lat="44.787779462413894" lon="9.551241650960794"><ele>760.0</ele><time>2026-05-03T14:27:11.999Z</time></trkpt><trkpt lat="44.78784771822492" lon="9.55120055639387"><ele>760.0</ele><time>2026-05-03T14:27:21.999Z</time></trkpt><trkpt lat="44.78789048830699" lon="9.551134206787664"><ele>761.6666666666667</ele><time>2026-05-03T14:31:27.999Z</time></trkpt><trkpt lat="44.78798272483386" lon="9.551035057444448"><ele>763.3333333333334</ele><time>2026-05-03T14:31:30.999Z</time></trkpt><trkpt lat="44.78804211334607" lon="9.550965334538127"><ele>765.0</ele><time>2026-05-03T14:31:32.999Z</time></trkpt><trkpt lat="44.78810070043358" lon="9.550910426124092"><ele>766.6666666666667</ele><time>2026-05-03T14:31:34.999Z</time></trkpt><trkpt lat="44.78816566234724" lon="9.550831830891765"><ele>768.3333333333334</ele><time>2026-05-03T14:31:36.999Z</time></trkpt><trkpt lat="44.7882475018358" lon="9.550768031592453"><ele>770.0</ele><time>2026-05-03T14:31:38.999Z</time></trkpt><trkpt lat="44.78832888106363" lon="9.550710637875355"><ele>770.0</ele><time>2026-05-03T14:31:40.999Z</time></trkpt><trkpt lat="44.78838487410221" lon="9.550625944943796"><ele>770.0</ele><time>2026-05-03T14:31:43.999Z</time></trkpt><trkpt lat="44.788478828259755" lon="9.550549498705076"><ele>770.0</ele><time>2026-05-03T14:31:45.999Z</time></trkpt><trkpt lat="44.78859390208028" lon="9.550480483399854"><ele>770.0</ele><time>2026-05-03T14:31:47.999Z</time></trkpt><trkpt lat="44.788705353471016" lon="9.550442163563112"><ele>770.0</ele><time>2026-05-03T14:31:49.999Z</time></trkpt><trkpt lat="44.78877426345084" lon="9.550393785385758"><ele>770.3333333333334</ele><time>2026-05-03T14:31:50.999Z</time></trkpt><trkpt lat="44.7888279871334" lon="9.55033038333092"><ele>770.6666666666667</ele><time>2026-05-03T14:31:51.999Z</time></trkpt><trkpt lat="44.78891452560882" lon="9.550236451372903"><ele>771.0</ele><time>2026-05-03T14:31:53.999Z</time></trkpt><trkpt lat="44.78898057301631" lon="9.550177082250151"><ele>771.3333333333333</ele><time>2026-05-03T14:31:54.999Z</time></trkpt><trkpt lat="44.789049180863124" lon="9.550122737956343"><ele>771.6666666666666</ele><time>2026-05-03T14:31:55.999Z</time></trkpt><trkpt lat="44.789106831274815" lon="9.550086490032951"><ele>772.0</ele><time>2026-05-03T14:31:56.999Z</time></trkpt><trkpt lat="44.78917137069986" lon="9.550041003843342"><ele>771.9999999999999</ele><time>2026-05-03T14:31:57.999Z</time></trkpt><trkpt lat="44.789235848494606" lon="9.54999866987828"><ele>772.0</ele><time>2026-05-03T14:31:58.999Z</time></trkpt><trkpt lat="44.78929956607851" lon="9.549984077950302"><ele>772.0</ele><time>2026-05-03T14:31:59.999Z</time></trkpt><trkpt lat="44.78936593625982" lon="9.549969444359386"><ele>772.0</ele><time>2026-05-03T14:32:00.999Z</time></trkpt><trkpt lat="44.7894450388645" lon="9.54993396863722"><ele>771.9999999999999</ele><time>2026-05-03T14:32:01.999Z</time></trkpt><trkpt lat="44.78955933205145" lon="9.549873804600605"><ele>772.0</ele><time>2026-05-03T14:32:03.999Z</time></trkpt><trkpt lat="44.78962741705371" lon="9.549838212591212"><ele>771.6666666666666</ele><time>2026-05-03T14:32:04.999Z</time></trkpt><trkpt lat="44.78976772318411" lon="9.549795962725105"><ele>771.3333333333333</ele><time>2026-05-03T14:32:06.999Z</time></trkpt><trkpt lat="44.78984506501611" lon="9.549799808316552"><ele>771.0</ele><time>2026-05-03T14:32:07.999Z</time></trkpt><trkpt lat="44.789909324881" lon="9.549811015442007"><ele>770.6666666666667</ele><time>2026-05-03T14:32:08.999Z</time></trkpt><trkpt lat="44.78997642788488" lon="9.549831772621282"><ele>770.3333333333334</ele><time>2026-05-03T14:32:09.999Z</time></trkpt><trkpt lat="44.79004368146152" lon="9.549827557850751"><ele>770.0</ele><time>2026-05-03T14:32:10.999Z</time></trkpt><trkpt lat="44.79010250315644" lon="9.549780921361949"><ele>770.0000000000001</ele><time>2026-05-03T14:32:11.999Z</time></trkpt><trkpt lat="44.79015924488217" lon="9.54968472427463"><ele>770.0</ele><time>2026-05-03T14:32:12.999Z</time></trkpt><trkpt lat="44.790196896042254" lon="9.549584584713738"><ele>770.0</ele><time>2026-05-03T14:32:13.999Z</time></trkpt><trkpt lat="44.79025404945594" lon="9.54953329031554"><ele>770.0</ele><time>2026-05-03T14:32:14.999Z</time></trkpt><trkpt lat="44.79033937803629" lon="9.549493460843197"><ele>770.0000000000001</ele><time>2026-05-03T14:32:16Z</time></trkpt><trkpt lat="44.79043428007927" lon="9.549473194772926"><ele>770.0</ele><time>2026-05-03T14:32:17Z</time></trkpt><trkpt lat="44.7905407056212" lon="9.549446517598454"><ele>768.8</ele><time>2026-05-03T14:32:18Z</time></trkpt><trkpt lat="44.79060439317891" lon="9.54946876653713"><ele>767.6</ele><time>2026-05-03T14:32:20Z</time></trkpt><trkpt lat="44.7906996820771" lon="9.549444678950042"><ele>766.4000000000001</ele><time>2026-05-03T14:32:22Z</time></trkpt><trkpt lat="44.790811704933375" lon="9.54936342082384"><ele>765.2</ele><time>2026-05-03T14:32:24Z</time></trkpt><trkpt lat="44.79089020015228" lon="9.5493096177215"><ele>764.0</ele><time>2026-05-03T14:32:25Z</time></trkpt><trkpt lat="44.7909748307055" lon="9.549259412171663"><ele>766.6</ele><time>2026-05-03T14:32:26Z</time></trkpt><trkpt lat="44.79107205674853" lon="9.549222930099596"><ele>769.2</ele><time>2026-05-03T14:32:27Z</time></trkpt><trkpt lat="44.79115606707464" lon="9.549185332242153"><ele>771.8000000000001</ele><time>2026-05-03T14:32:28Z</time></trkpt><trkpt lat="44.79123451071114" lon="9.549163371394668"><ele>774.4000000000001</ele><time>2026-05-03T14:32:29Z</time></trkpt><trkpt lat="44.791292166949916" lon="9.54912361639847"><ele>777.0</ele><time>2026-05-03T14:32:30Z</time></trkpt><trkpt lat="44.791414381133464" lon="9.54903124757754"><ele>777.0</ele><time>2026-05-03T14:32:32Z</time></trkpt><trkpt lat="44.79148460433758" lon="9.548987485545904"><ele>777.0</ele><time>2026-05-03T14:32:33Z</time></trkpt><trkpt lat="44.79154132421751" lon="9.548932214309973"><ele>777.0</ele><time>2026-05-03T14:32:34Z</time></trkpt><trkpt lat="44.79160997533415" lon="9.548896146725601"><ele>777.0</ele><time>2026-05-03T14:32:35Z</time></trkpt><trkpt lat="44.79168524789333" lon="9.548871374024326"><ele>777.0</ele><time>2026-05-03T14:32:36Z</time></trkpt><trkpt lat="44.79174073260284" lon="9.548824485660814"><ele>777.0</ele><time>2026-05-03T14:32:37Z</time></trkpt><trkpt lat="44.791846026256344" lon="9.54888570709656"><ele>779.2</ele><time>2026-05-03T14:32:39Z</time></trkpt><trkpt lat="44.79200160786492" lon="9.548876984613697"><ele>781.4000000000001</ele><time>2026-05-03T14:32:41Z</time></trkpt><trkpt lat="44.79208149285597" lon="9.548891596436361"><ele>783.5999999999999</ele><time>2026-05-03T14:32:42Z</time></trkpt><trkpt lat="44.7921513691217" lon="9.548916118326806"><ele>785.8</ele><time>2026-05-03T14:32:43Z</time></trkpt><trkpt lat="44.7922344502963" lon="9.548949849722238"><ele>788.0</ele><time>2026-05-03T14:32:44Z</time></trkpt><trkpt lat="44.79231512547675" lon="9.548964932341715"><ele>788.0</ele><time>2026-05-03T14:32:45Z</time></trkpt><trkpt lat="44.792384173262995" lon="9.548967377566527"><ele>788.0</ele><time>2026-05-03T14:32:46Z</time></trkpt><trkpt lat="44.79245692442873" lon="9.548943470063712"><ele>788.0</ele><time>2026-05-03T14:32:47Z</time></trkpt><trkpt lat="44.79253180354481" lon="9.548918130586411"><ele>788.0</ele><time>2026-05-03T14:32:48Z</time></trkpt><trkpt lat="44.79260481446161" lon="9.548926996906719"><ele>788.0</ele><time>2026-05-03T14:32:49Z</time></trkpt><trkpt lat="44.79268201269089" lon="9.548943043351887"><ele>788.0</ele><time>2026-05-03T14:32:50Z</time></trkpt><trkpt lat="44.79275484958829" lon="9.548957347556644"><ele>788.0</ele><time>2026-05-03T14:32:51Z</time></trkpt><trkpt lat="44.79287128426355" lon="9.549040748709663"><ele>790.5999999999999</ele><time>2026-05-03T14:32:53Z</time></trkpt><trkpt lat="44.79299830151811" lon="9.549022941631327"><ele>793.1999999999999</ele><time>2026-05-03T14:32:55Z</time></trkpt><trkpt lat="44.79306368905359" lon="9.549015158415079"><ele>795.8</ele><time>2026-05-03T14:32:56Z</time></trkpt><trkpt lat="44.79315477578266" lon="9.549036965055134"><ele>798.4</ele><time>2026-05-03T14:32:58Z</time></trkpt><trkpt lat="44.79321220237931" lon="9.549087154119757"><ele>801.0</ele><time>2026-05-03T14:32:59Z</time></trkpt><trkpt lat="44.79328321454359" lon="9.549204132832273"><ele>801.0</ele><time>2026-05-03T14:33:01Z</time></trkpt><trkpt lat="44.79329424275381" lon="9.549295367514897"><ele>801.0</ele><time>2026-05-03T14:33:02Z</time></trkpt><trkpt lat="44.793332686857646" lon="9.54938313287326"><ele>801.0</ele><time>2026-05-03T14:33:03Z</time></trkpt><trkpt lat="44.793430019920855" lon="9.549460007235542"><ele>801.0</ele><time>2026-05-03T14:33:05Z</time></trkpt><trkpt lat="44.793500610269604" lon="9.549434547819045"><ele>801.0</ele><time>2026-05-03T14:33:06Z</time></trkpt><trkpt lat="44.79357015172669" lon="9.549424510426256"><ele>801.0</ele><time>2026-05-03T14:33:07Z</time></trkpt><trkpt lat="44.793647987852985" lon="9.549427603966485"><ele>803.5999999999999</ele><time>2026-05-03T14:33:08Z</time></trkpt><trkpt lat="44.79371476278503" lon="9.549416206794858"><ele>806.2</ele><time>2026-05-03T14:33:09Z</time></trkpt><trkpt lat="44.79376743166512" lon="9.54950202380439"><ele>808.8</ele><time>2026-05-03T14:33:11Z</time></trkpt><trkpt lat="44.79379467986941" lon="9.549606411490835"><ele>811.4000000000001</ele><time>2026-05-03T14:33:12Z</time></trkpt><trkpt lat="44.79389143409627" lon="9.549719613552416"><ele>814.0</ele><time>2026-05-03T14:33:14Z</time></trkpt><trkpt lat="44.79400376863283" lon="9.549736987064268"><ele>815.6</ele><time>2026-05-03T14:33:16Z</time></trkpt><trkpt lat="44.79406442817947" lon="9.549777753978056"><ele>817.2</ele><time>2026-05-03T14:33:17Z</time></trkpt><trkpt lat="44.79414524343636" lon="9.54979506349443"><ele>818.8000000000001</ele><time>2026-05-03T14:33:19Z</time></trkpt><trkpt lat="44.79423782266961" lon="9.549882906507557"><ele>820.4000000000001</ele><time>2026-05-03T14:33:21Z</time></trkpt><trkpt lat="44.79427106635098" lon="9.5500147823825"><ele>822.0</ele><time>2026-05-03T14:33:23Z</time></trkpt><trkpt lat="44.794378792530786" lon="9.550069486878893"><ele>825.0</ele><time>2026-05-03T14:33:25Z</time></trkpt><trkpt lat="44.79449541749145" lon="9.549987125945"><ele>828.0</ele><time>2026-05-03T14:33:27Z</time></trkpt><trkpt lat="44.79457967434957" lon="9.549937098054448"><ele>831.0</ele><time>2026-05-03T14:33:28Z</time></trkpt><trkpt lat="44.79465213507184" lon="9.549926958806145"><ele>834.0</ele><time>2026-05-03T14:33:29Z</time></trkpt><trkpt lat="44.79471889179508" lon="9.54997079954609"><ele>837.0</ele><time>2026-05-03T14:33:30Z</time></trkpt><trkpt lat="44.794794633612575" lon="9.550028313149275"><ele>837.0</ele><time>2026-05-03T14:33:31Z</time></trkpt><trkpt lat="44.79489809745767" lon="9.549971355516242"><ele>837.0</ele><time>2026-05-03T14:33:33Z</time></trkpt><trkpt lat="44.795004750900176" lon="9.550051542362345"><ele>837.0</ele><time>2026-05-03T14:33:35Z</time></trkpt><trkpt lat="44.79511407509422" lon="9.550114333211763"><ele>837.0</ele><time>2026-05-03T14:33:36.999Z</time></trkpt><trkpt lat="44.79518438315391" lon="9.55007438582954"><ele>837.0</ele><time>2026-05-03T14:33:37.999Z</time></trkpt><trkpt lat="44.7952679734166" lon="9.550116702853336"><ele>838.1666666666666</ele><time>2026-05-03T14:33:39.999Z</time></trkpt><trkpt lat="44.79533816132034" lon="9.550170232905836"><ele>839.3333333333333</ele><time>2026-05-03T14:33:40.999Z</time></trkpt><trkpt lat="44.79542838588388" lon="9.550164360126509"><ele>840.5</ele><time>2026-05-03T14:33:41.999Z</time></trkpt><trkpt lat="44.79549966925302" lon="9.550163805496078"><ele>841.6666666666666</ele><time>2026-05-03T14:33:42.999Z</time></trkpt><trkpt lat="44.795591390529935" lon="9.550168818756044"><ele>842.8333333333333</ele><time>2026-05-03T14:33:45.999Z</time></trkpt><trkpt lat="44.79568296483801" lon="9.550194278505343"><ele>844.0</ele><time>2026-05-03T14:33:47.999Z</time></trkpt><trkpt lat="44.79573038264789" lon="9.550282848777659"><ele>843.9999999999999</ele><time>2026-05-03T14:33:49.999Z</time></trkpt><trkpt lat="44.79578820442505" lon="9.550346950807581"><ele>844.0</ele><time>2026-05-03T14:33:50.999Z</time></trkpt><trkpt lat="44.79582535643572" lon="9.550420467770744"><ele>844.0</ele><time>2026-05-03T14:33:52.999Z</time></trkpt><trkpt lat="44.79586341287041" lon="9.550504814244205"><ele>844.0</ele><time>2026-05-03T14:33:55.999Z</time></trkpt><trkpt lat="44.79590188938868" lon="9.550628616828241"><ele>843.9999999999999</ele><time>2026-05-03T14:33:58.999Z</time></trkpt><trkpt lat="44.79591071554831" lon="9.5507225871305"><ele>844.0</ele><time>2026-05-03T14:33:59.999Z</time></trkpt><trkpt lat="44.79597907633668" lon="9.550805089016501"><ele>843.8333333333333</ele><time>2026-05-03T14:34:02.999Z</time></trkpt><trkpt lat="44.79599836868465" lon="9.550890270022283"><ele>843.6666666666666</ele><time>2026-05-03T14:34:05.999Z</time></trkpt><trkpt lat="44.79598072630229" lon="9.550978997092212"><ele>843.5</ele><time>2026-05-03T14:34:08.999Z</time></trkpt><trkpt lat="44.79603475529699" lon="9.551091772148936"><ele>843.3333333333333</ele><time>2026-05-03T14:34:10.999Z</time></trkpt><trkpt lat="44.79606839436092" lon="9.551195656551162"><ele>843.1666666666666</ele><time>2026-05-03T14:34:11.999Z</time></trkpt><trkpt lat="44.7960904429255" lon="9.551319541592925"><ele>843.0</ele><time>2026-05-03T14:34:12.999Z</time></trkpt><trkpt lat="44.79608138283313" lon="9.551469834931513"><ele>843.0</ele><time>2026-05-03T14:34:13.999Z</time></trkpt><trkpt lat="44.796073179869495" lon="9.551599129085844"><ele>843.0</ele><time>2026-05-03T14:34:14.999Z</time></trkpt><trkpt lat="44.796068248155876" lon="9.551693999147997"><ele>843.0</ele><time>2026-05-03T14:34:15.999Z</time></trkpt><trkpt lat="44.79612569487155" lon="9.551739538113496"><ele>843.0</ele><time>2026-05-03T14:34:18.999Z</time></trkpt><trkpt lat="44.79615177624507" lon="9.551847283630972"><ele>843.0</ele><time>2026-05-03T14:34:22Z</time></trkpt><trkpt lat="44.796177204377734" lon="9.552007916870952"><ele>843.0</ele><time>2026-05-03T14:34:24Z</time></trkpt><trkpt lat="44.79621076300805" lon="9.552089580961653"><ele>844.0</ele><time>2026-05-03T14:34:25Z</time></trkpt><trkpt lat="44.79624560144979" lon="9.552186603346625"><ele>845.0</ele><time>2026-05-03T14:34:26Z</time></trkpt><trkpt lat="44.79627908389886" lon="9.552262033588072"><ele>846.0</ele><time>2026-05-03T14:34:27Z</time></trkpt><trkpt lat="44.79632654028256" lon="9.552406144709513"><ele>847.0</ele><time>2026-05-03T14:34:29Z</time></trkpt><trkpt lat="44.79634928851127" lon="9.552549827895307"><ele>848.0</ele><time>2026-05-03T14:34:31Z</time></trkpt><trkpt lat="44.796392371190464" lon="9.552700975316645"><ele>848.0</ele><time>2026-05-03T14:34:33Z</time></trkpt><trkpt lat="44.796411521455326" lon="9.55280201142827"><ele>848.0</ele><time>2026-05-03T14:34:34Z</time></trkpt><trkpt lat="44.796438049444426" lon="9.552931404571943"><ele>848.0</ele><time>2026-05-03T14:34:35Z</time></trkpt><trkpt lat="44.796484650391506" lon="9.55306608824886"><ele>848.0</ele><time>2026-05-03T14:34:36Z</time></trkpt><trkpt lat="44.79653646622956" lon="9.553190891904745"><ele>848.0</ele><time>2026-05-03T14:34:37Z</time></trkpt><trkpt lat="44.79655077083777" lon="9.553323142654765"><ele>847.5999999999999</ele><time>2026-05-03T14:34:38Z</time></trkpt><trkpt lat="44.796565465002686" lon="9.553428217390504"><ele>847.1999999999999</ele><time>2026-05-03T14:34:39Z</time></trkpt><trkpt lat="44.79662007680018" lon="9.553532085171625"><ele>846.8</ele><time>2026-05-03T14:34:41Z</time></trkpt><trkpt lat="44.7966091393293" lon="9.553703343635586"><ele>846.4</ele><time>2026-05-03T14:34:43Z</time></trkpt><trkpt lat="44.796650306385565" lon="9.553828427778473"><ele>846.0</ele><time>2026-05-03T14:34:44Z</time></trkpt><trkpt lat="44.79669335236124" lon="9.55392608078401"><ele>845.1999999999999</ele><time>2026-05-03T14:34:45Z</time></trkpt><trkpt lat="44.79673213755328" lon="9.554104918174037"><ele>844.4</ele><time>2026-05-03T14:34:47Z</time></trkpt><trkpt lat="44.79675885673232" lon="9.554224987940412"><ele>843.6</ele><time>2026-05-03T14:34:48Z</time></trkpt><trkpt lat="44.796782982735735" lon="9.554343679079176"><ele>842.8</ele><time>2026-05-03T14:34:49Z</time></trkpt><trkpt lat="44.79683410865358" lon="9.554444007486062"><ele>842.0</ele><time>2026-05-03T14:34:50Z</time></trkpt><trkpt lat="44.79691087850173" lon="9.554509235074857"><ele>842.3333333333334</ele><time>2026-05-03T14:34:51Z</time></trkpt><trkpt lat="44.796993936433026" lon="9.554567186244647"><ele>842.6666666666667</ele><time>2026-05-03T14:34:52Z</time></trkpt><trkpt lat="44.79705637977925" lon="9.554616322250691"><ele>843.0</ele><time>2026-05-03T14:34:53Z</time></trkpt><trkpt lat="44.797129961703924" lon="9.554672949077348"><ele>843.3333333333333</ele><time>2026-05-03T14:34:54Z</time></trkpt><trkpt lat="44.79718797389834" lon="9.554731200263117"><ele>843.6666666666666</ele><time>2026-05-03T14:34:55Z</time></trkpt><trkpt lat="44.79718128117722" lon="9.554826767372427"><ele>844.0</ele><time>2026-05-03T14:34:57Z</time></trkpt><trkpt lat="44.79729202946659" lon="9.554879814738648"><ele>844.0</ele><time>2026-05-03T14:34:59Z</time></trkpt><trkpt lat="44.79737960162226" lon="9.554917088119584"><ele>844.0</ele><time>2026-05-03T14:35:00Z</time></trkpt><trkpt lat="44.79742431493617" lon="9.554989468199127"><ele>844.0</ele><time>2026-05-03T14:35:01Z</time></trkpt><trkpt lat="44.79753255002611" lon="9.555098172891253"><ele>844.0</ele><time>2026-05-03T14:35:03Z</time></trkpt><trkpt lat="44.79761091137857" lon="9.55513256249579"><ele>844.0</ele><time>2026-05-03T14:35:04Z</time></trkpt><trkpt lat="44.79768555305619" lon="9.5551644167459"><ele>844.1666666666666</ele><time>2026-05-03T14:35:05Z</time></trkpt><trkpt lat="44.79775237358683" lon="9.555208073218784"><ele>844.3333333333333</ele><time>2026-05-03T14:35:06Z</time></trkpt><trkpt lat="44.797815277784" lon="9.555263732014467"><ele>844.5</ele><time>2026-05-03T14:35:07Z</time></trkpt><trkpt lat="44.79787415379652" lon="9.555307695742487"><ele>844.6666666666667</ele><time>2026-05-03T14:35:08Z</time></trkpt><trkpt lat="44.7979559666552" lon="9.555430471009966"><ele>844.8333333333334</ele><time>2026-05-03T14:35:10Z</time></trkpt><trkpt lat="44.798016555959805" lon="9.55546420336298"><ele>845.0</ele><time>2026-05-03T14:35:11Z</time></trkpt><trkpt lat="44.798101793526556" lon="9.555491662500415"><ele>844.1666666666667</ele><time>2026-05-03T14:35:12Z</time></trkpt><trkpt lat="44.798177089543195" lon="9.555500948000496"><ele>843.3333333333334</ele><time>2026-05-03T14:35:13Z</time></trkpt><trkpt lat="44.79824182858968" lon="9.555516065646874"><ele>842.5</ele><time>2026-05-03T14:35:14Z</time></trkpt><trkpt lat="44.798308520971865" lon="9.555541482133634"><ele>841.6666666666667</ele><time>2026-05-03T14:35:15Z</time></trkpt><trkpt lat="44.79842961280633" lon="9.55560286232349"><ele>840.8333333333334</ele><time>2026-05-03T14:35:17Z</time></trkpt><trkpt lat="44.79849622764556" lon="9.555601353627578"><ele>840.0</ele><time>2026-05-03T14:35:18Z</time></trkpt><trkpt lat="44.798559967019614" lon="9.555538066120215"><ele>840.0</ele><time>2026-05-03T14:35:20Z</time></trkpt><trkpt lat="44.79851236265721" lon="9.555382251687263"><ele>840.0</ele><time>2026-05-03T14:35:26Z</time></trkpt><trkpt lat="44.79845137343946" lon="9.555265194843532"><ele>840.0</ele><time>2026-05-03T14:35:28Z</time></trkpt><trkpt lat="44.79838028285364" lon="9.555167532091602"><ele>840.0</ele><time>2026-05-03T14:35:30Z</time></trkpt><trkpt lat="44.798309636583575" lon="9.555126486977116"><ele>840.0</ele><time>2026-05-03T14:35:31Z</time></trkpt><trkpt lat="44.798226321714424" lon="9.55505742714519"><ele>841.0</ele><time>2026-05-03T14:35:32Z</time></trkpt><trkpt lat="44.798149131104836" lon="9.554992760203362"><ele>842.0</ele><time>2026-05-03T14:35:33Z</time></trkpt><trkpt lat="44.79808072415282" lon="9.554969083171411"><ele>843.0</ele><time>2026-05-03T14:35:34Z</time></trkpt><trkpt lat="44.79798271369538" lon="9.554905588300658"><ele>844.0</ele><time>2026-05-03T14:35:35.999Z</time></trkpt><trkpt lat="44.797930132461275" lon="9.554756914874739"><ele>845.0</ele><time>2026-05-03T14:35:48.999Z</time></trkpt><trkpt lat="44.79791657908418" lon="9.554645998142732"><ele>845.0000000000001</ele><time>2026-05-03T14:35:49.999Z</time></trkpt><trkpt lat="44.797946762973815" lon="9.554538705922194"><ele>845.0</ele><time>2026-05-03T14:35:50.999Z</time></trkpt><trkpt lat="44.797995873906416" lon="9.554465227773521"><ele>845.0</ele><time>2026-05-03T14:35:51.999Z</time></trkpt><trkpt lat="44.79806081795605" lon="9.554424325921321"><ele>845.0</ele><time>2026-05-03T14:35:52.999Z</time></trkpt><trkpt lat="44.79813835904486" lon="9.55438163240311"><ele>845.0000000000001</ele><time>2026-05-03T14:35:53.999Z</time></trkpt><trkpt lat="44.79818256812953" lon="9.554288613471666"><ele>845.0</ele><time>2026-05-03T14:35:54.999Z</time></trkpt><trkpt lat="44.798198927071645" lon="9.554170483255941"><ele>843.0000000000001</ele><time>2026-05-03T14:35:55.999Z</time></trkpt><trkpt lat="44.79820668345728" lon="9.554074014910812"><ele>841.0</ele><time>2026-05-03T14:35:56.999Z</time></trkpt><trkpt lat="44.798198753753496" lon="9.553985555084278"><ele>839.0</ele><time>2026-05-03T14:35:57.999Z</time></trkpt><trkpt lat="44.798242569889375" lon="9.553880343372423"><ele>837.0</ele><time>2026-05-03T14:35:59.999Z</time></trkpt><trkpt lat="44.7982790579535" lon="9.553786745692335"><ele>835.0000000000001</ele><time>2026-05-03T14:36:00.999Z</time></trkpt><trkpt lat="44.79832931780152" lon="9.553689445390873"><ele>833.0</ele><time>2026-05-03T14:36:01.999Z</time></trkpt><trkpt lat="44.798381765028495" lon="9.553609474352053"><ele>830.6666666666667</ele><time>2026-05-03T14:36:02.999Z</time></trkpt><trkpt lat="44.79843634206917" lon="9.553532836319453"><ele>828.3333333333334</ele><time>2026-05-03T14:36:03.999Z</time></trkpt><trkpt lat="44.79848061002735" lon="9.553446637874409"><ele>826.0</ele><time>2026-05-03T14:36:04.999Z</time></trkpt><trkpt lat="44.79852457782782" lon="9.553288211762128"><ele>823.6666666666667</ele><time>2026-05-03T14:36:06.999Z</time></trkpt><trkpt lat="44.798582322968315" lon="9.553181025361072"><ele>821.3333333333334</ele><time>2026-05-03T14:36:07.999Z</time></trkpt><trkpt lat="44.798636034524826" lon="9.55310177702442"><ele>819.0</ele><time>2026-05-03T14:36:08.999Z</time></trkpt><trkpt lat="44.798761377449914" lon="9.553064129304197"><ele>816.3333333333334</ele><time>2026-05-03T14:36:10.999Z</time></trkpt><trkpt lat="44.79882955376704" lon="9.552998243614331"><ele>813.6666666666667</ele><time>2026-05-03T14:36:11.999Z</time></trkpt><trkpt lat="44.798868029790476" lon="9.552892364045327"><ele>811.0</ele><time>2026-05-03T14:36:12.999Z</time></trkpt><trkpt lat="44.79888279694426" lon="9.552780101102032"><ele>808.3333333333334</ele><time>2026-05-03T14:36:13.999Z</time></trkpt><trkpt lat="44.79890715581171" lon="9.552683408731347"><ele>805.6666666666667</ele><time>2026-05-03T14:36:14.999Z</time></trkpt><trkpt lat="44.7988756773267" lon="9.552586894030664"><ele>803.0</ele><time>2026-05-03T14:36:16.999Z</time></trkpt><trkpt lat="44.7987863868934" lon="9.552483146708107"><ele>802.8333333333334</ele><time>2026-05-03T14:36:18.999Z</time></trkpt><trkpt lat="44.798747776830474" lon="9.552408046994561"><ele>802.6666666666667</ele><time>2026-05-03T14:36:19.999Z</time></trkpt><trkpt lat="44.7987255891362" lon="9.552320171945036"><ele>802.5</ele><time>2026-05-03T14:36:20.999Z</time></trkpt><trkpt lat="44.79865060417147" lon="9.552184606885541"><ele>802.3333333333333</ele><time>2026-05-03T14:36:22.999Z</time></trkpt><trkpt lat="44.798572396833784" lon="9.552112658194911"><ele>802.1666666666666</ele><time>2026-05-03T14:36:24.999Z</time></trkpt><trkpt lat="44.79849394399578" lon="9.552083713375936"><ele>802.0</ele><time>2026-05-03T14:36:29Z</time></trkpt><trkpt lat="44.79841647747825" lon="9.552068485346593"><ele>799.0</ele><time>2026-05-03T14:36:30Z</time></trkpt><trkpt lat="44.798405504872406" lon="9.551964606905962"><ele>796.0</ele><time>2026-05-03T14:36:32Z</time></trkpt><trkpt lat="44.798498335227606" lon="9.551820297451336"><ele>793.0</ele><time>2026-05-03T14:36:34Z</time></trkpt><trkpt lat="44.79859194568526" lon="9.551757116608202"><ele>790.0</ele><time>2026-05-03T14:36:36Z</time></trkpt><trkpt lat="44.79866004200895" lon="9.55173542232974"><ele>787.0</ele><time>2026-05-03T14:36:37Z</time></trkpt><trkpt lat="44.798734196767306" lon="9.55171784972217"><ele>784.1666666666666</ele><time>2026-05-03T14:36:38Z</time></trkpt><trkpt lat="44.7988068533985" lon="9.551691484714064"><ele>781.3333333333333</ele><time>2026-05-03T14:36:39Z</time></trkpt><trkpt lat="44.798889175872304" lon="9.551679319216388"><ele>778.5</ele><time>2026-05-03T14:36:40Z</time></trkpt><trkpt lat="44.79897489222093" lon="9.551672999842882"><ele>775.6666666666667</ele><time>2026-05-03T14:36:41Z</time></trkpt><trkpt lat="44.79902989333326" lon="9.551616497351668"><ele>772.8333333333334</ele><time>2026-05-03T14:36:42Z</time></trkpt><trkpt lat="44.79904759963261" lon="9.551530186842355"><ele>770.0</ele><time>2026-05-03T14:36:44Z</time></trkpt><trkpt lat="44.79915575585117" lon="9.551478277731007"><ele>770.0000000000001</ele><time>2026-05-03T14:36:50Z</time></trkpt><trkpt lat="44.799247211410986" lon="9.551439621358266"><ele>770.0</ele><time>2026-05-03T14:36:51Z</time></trkpt><trkpt lat="44.79934226918523" lon="9.551454555872432"><ele>770.0</ele><time>2026-05-03T14:36:53Z</time></trkpt><trkpt lat="44.79939667636592" lon="9.551603261868545"><ele>770.0</ele><time>2026-05-03T14:36:55Z</time></trkpt><trkpt lat="44.79940987530453" lon="9.551700877258607"><ele>770.0000000000001</ele><time>2026-05-03T14:36:56Z</time></trkpt><trkpt lat="44.79942874049244" lon="9.551792959987221"><ele>770.0</ele><time>2026-05-03T14:36:57Z</time></trkpt><trkpt lat="44.79947205227614" lon="9.551874468764641"><ele>769.8</ele><time>2026-05-03T14:36:58Z</time></trkpt><trkpt lat="44.79954786631905" lon="9.551937119973271"><ele>769.6</ele><time>2026-05-03T14:36:59Z</time></trkpt><trkpt lat="44.79962553951549" lon="9.551975019288516"><ele>769.4000000000001</ele><time>2026-05-03T14:37:00Z</time></trkpt><trkpt lat="44.799728446755516" lon="9.552099250020813"><ele>769.2</ele><time>2026-05-03T14:37:02Z</time></trkpt><trkpt lat="44.79975376273994" lon="9.552187935499548"><ele>769.0</ele><time>2026-05-03T14:37:03Z</time></trkpt><trkpt lat="44.79976270046361" lon="9.552296985086455"><ele>769.0</ele><time>2026-05-03T14:37:04Z</time></trkpt><trkpt lat="44.79977750539438" lon="9.552389259573948"><ele>769.0</ele><time>2026-05-03T14:37:05Z</time></trkpt><trkpt lat="44.79987226813874" lon="9.552504530453804"><ele>769.0</ele><time>2026-05-03T14:37:07Z</time></trkpt><trkpt lat="44.799963131098636" lon="9.552472921622206"><ele>769.0</ele><time>2026-05-03T14:37:08Z</time></trkpt><trkpt lat="44.800050309514376" lon="9.552438317929099"><ele>769.0</ele><time>2026-05-03T14:37:09Z</time></trkpt><trkpt lat="44.80014155718518" lon="9.552435076605125"><ele>767.6666666666666</ele><time>2026-05-03T14:37:10Z</time></trkpt><trkpt lat="44.80023354131036" lon="9.552425957563944"><ele>766.3333333333333</ele><time>2026-05-03T14:37:11Z</time></trkpt><trkpt lat="44.80031181969259" lon="9.552419997731421"><ele>765.0</ele><time>2026-05-03T14:37:12Z</time></trkpt><trkpt lat="44.800395647441" lon="9.552389856528103"><ele>763.6666666666666</ele><time>2026-05-03T14:37:13Z</time></trkpt><trkpt lat="44.800483559606" lon="9.552377508054404"><ele>762.3333333333333</ele><time>2026-05-03T14:37:14Z</time></trkpt><trkpt lat="44.800565788001414" lon="9.552369032969514"><ele>761.0</ele><time>2026-05-03T14:37:15Z</time></trkpt><trkpt lat="44.80065049669174" lon="9.552330243741796"><ele>761.0</ele><time>2026-05-03T14:37:16Z</time></trkpt><trkpt lat="44.80073499600566" lon="9.552297643251006"><ele>761.0</ele><time>2026-05-03T14:37:17Z</time></trkpt><trkpt lat="44.80081739522375" lon="9.552299473248535"><ele>761.0</ele><time>2026-05-03T14:37:18Z</time></trkpt><trkpt lat="44.800883052075164" lon="9.552305458878184"><ele>761.0</ele><time>2026-05-03T14:37:19Z</time></trkpt><trkpt lat="44.80098382858566" lon="9.552401647895978"><ele>761.0</ele><time>2026-05-03T14:37:21Z</time></trkpt><trkpt lat="44.80106220824907" lon="9.552465323309981"><ele>761.0</ele><time>2026-05-03T14:37:23Z</time></trkpt><trkpt lat="44.80114756925888" lon="9.552551961172487"><ele>761.6666666666666</ele><time>2026-05-03T14:37:25Z</time></trkpt><trkpt lat="44.80119596628664" lon="9.55261636666694"><ele>762.3333333333333</ele><time>2026-05-03T14:37:26Z</time></trkpt><trkpt lat="44.8012757453631" lon="9.552708584678555"><ele>763.0</ele><time>2026-05-03T14:37:28Z</time></trkpt><trkpt lat="44.801340975466374" lon="9.552790561383036"><ele>763.6666666666666</ele><time>2026-05-03T14:37:30Z</time></trkpt><trkpt lat="44.80141866904329" lon="9.552850960999073"><ele>764.3333333333334</ele><time>2026-05-03T14:37:32Z</time></trkpt><trkpt lat="44.80150586348168" lon="9.552889199256402"><ele>765.0</ele><time>2026-05-03T14:37:34Z</time></trkpt><trkpt lat="44.80159975305334" lon="9.55280436459911"><ele>763.1666666666666</ele><time>2026-05-03T14:37:36Z</time></trkpt><trkpt lat="44.801674079791965" lon="9.552711430721645"><ele>761.3333333333334</ele><time>2026-05-03T14:37:38Z</time></trkpt><trkpt lat="44.80177995995476" lon="9.55267988609778"><ele>759.5</ele><time>2026-05-03T14:37:40Z</time></trkpt><trkpt lat="44.80184902741224" lon="9.552695960143627"><ele>757.6666666666667</ele><time>2026-05-03T14:37:41Z</time></trkpt><trkpt lat="44.80191275474883" lon="9.552674567094305"><ele>755.8333333333334</ele><time>2026-05-03T14:37:42Z</time></trkpt><trkpt lat="44.801977417815664" lon="9.552689680018483"><ele>754.0</ele><time>2026-05-03T14:37:43Z</time></trkpt><trkpt lat="44.80204770211893" lon="9.552694981369996"><ele>752.6666666666667</ele><time>2026-05-03T14:37:44Z</time></trkpt><trkpt lat="44.80211814615081" lon="9.55271178310919"><ele>751.3333333333334</ele><time>2026-05-03T14:37:45Z</time></trkpt><trkpt lat="44.80216497725578" lon="9.55278147675438"><ele>750.0</ele><time>2026-05-03T14:38:11.999Z</time></trkpt><trkpt lat="44.80224603009232" lon="9.552881647106085"><ele>748.6666666666666</ele><time>2026-05-03T14:38:13.999Z</time></trkpt><trkpt lat="44.802295324820356" lon="9.552958376671274"><ele>747.3333333333333</ele><time>2026-05-03T14:38:14.999Z</time></trkpt><trkpt lat="44.80237838405066" lon="9.553066165098366"><ele>746.0</ele><time>2026-05-03T14:38:16.999Z</time></trkpt><trkpt lat="44.802430694568855" lon="9.55318732483505"><ele>746.0</ele><time>2026-05-03T14:38:18.999Z</time></trkpt><trkpt lat="44.8024770805524" lon="9.553292685170664"><ele>746.0</ele><time>2026-05-03T14:38:20.999Z</time></trkpt><trkpt lat="44.8025127986032" lon="9.55337504514819"><ele>746.0</ele><time>2026-05-03T14:38:21.999Z</time></trkpt><trkpt lat="44.80254387136218" lon="9.553456866409675"><ele>746.0</ele><time>2026-05-03T14:38:22.999Z</time></trkpt><trkpt lat="44.80254505010265" lon="9.553611286958365"><ele>746.0</ele><time>2026-05-03T14:38:24.999Z</time></trkpt><trkpt lat="44.8025074443448" lon="9.553797163968243"><ele>745.5999999999999</ele><time>2026-05-03T14:38:26.999Z</time></trkpt><trkpt lat="44.802467629255354" lon="9.55390910942803"><ele>745.2</ele><time>2026-05-03T14:38:27.999Z</time></trkpt><trkpt lat="44.80242541200748" lon="9.554047112053752"><ele>744.8</ele><time>2026-05-03T14:38:28.999Z</time></trkpt><trkpt lat="44.80238339575756" lon="9.55419920256173"><ele>744.4000000000001</ele><time>2026-05-03T14:38:29.999Z</time></trkpt><trkpt lat="44.80235327579396" lon="9.554337261216586"><ele>744.0</ele><time>2026-05-03T14:38:30.999Z</time></trkpt><trkpt lat="44.80234127389404" lon="9.554458287434064"><ele>743.6</ele><time>2026-05-03T14:38:31.999Z</time></trkpt><trkpt lat="44.80233270947185" lon="9.554597906963226"><ele>743.2</ele><time>2026-05-03T14:38:32.999Z</time></trkpt><trkpt lat="44.80233053823188" lon="9.554743978227506"><ele>742.8000000000001</ele><time>2026-05-03T14:38:34Z</time></trkpt><trkpt lat="44.80231809445647" lon="9.554879038084403"><ele>742.4000000000001</ele><time>2026-05-03T14:38:35Z</time></trkpt><trkpt lat="44.80230458882325" lon="9.555017010166992"><ele>742.0</ele><time>2026-05-03T14:38:36Z</time></trkpt><trkpt lat="44.80229905214269" lon="9.55516569046539"><ele>742.0</ele><time>2026-05-03T14:38:37Z</time></trkpt><trkpt lat="44.802306167505286" lon="9.555303923853664"><ele>742.0</ele><time>2026-05-03T14:38:38Z</time></trkpt><trkpt lat="44.8023162035634" lon="9.55544761330094"><ele>742.0</ele><time>2026-05-03T14:38:39Z</time></trkpt><trkpt lat="44.80232046698068" lon="9.555608901084593"><ele>742.0</ele><time>2026-05-03T14:38:40Z</time></trkpt><trkpt lat="44.80233045229482" lon="9.55575030078402"><ele>742.0</ele><time>2026-05-03T14:38:41Z</time></trkpt><trkpt lat="44.8023547366051" lon="9.555879127646008"><ele>742.3333333333334</ele><time>2026-05-03T14:38:42Z</time></trkpt><trkpt lat="44.802403792791935" lon="9.55597853556316"><ele>742.6666666666667</ele><time>2026-05-03T14:38:43Z</time></trkpt><trkpt lat="44.80246647149433" lon="9.55603912978886"><ele>743.0</ele><time>2026-05-03T14:38:44Z</time></trkpt><trkpt lat="44.80254589726045" lon="9.55606777749443"><ele>743.3333333333334</ele><time>2026-05-03T14:38:45Z</time></trkpt><trkpt lat="44.80263120576089" lon="9.556118455666077"><ele>743.6666666666666</ele><time>2026-05-03T14:38:46Z</time></trkpt><trkpt lat="44.802700817130344" lon="9.556201896639589"><ele>744.0</ele><time>2026-05-03T14:38:47Z</time></trkpt><trkpt lat="44.80273628141981" lon="9.556289735104212"><ele>740.6666666666666</ele><time>2026-05-03T14:38:48Z</time></trkpt><trkpt lat="44.802765191544765" lon="9.556401168801381"><ele>737.3333333333334</ele><time>2026-05-03T14:38:49Z</time></trkpt><trkpt lat="44.8027910290186" lon="9.556538299741751"><ele>734.0</ele><time>2026-05-03T14:38:50Z</time></trkpt><trkpt lat="44.802815824193885" lon="9.556671424106836"><ele>730.6666666666667</ele><time>2026-05-03T14:38:51Z</time></trkpt><trkpt lat="44.80282373694696" lon="9.556782704581584"><ele>727.3333333333334</ele><time>2026-05-03T14:38:52Z</time></trkpt><trkpt lat="44.802838626498236" lon="9.55690130938275"><ele>724.0</ele><time>2026-05-03T14:38:53Z</time></trkpt><trkpt lat="44.80284967726248" lon="9.557027146885096"><ele>724.4000000000001</ele><time>2026-05-03T14:38:54Z</time></trkpt><trkpt lat="44.80285992687133" lon="9.557161667475292"><ele>724.8</ele><time>2026-05-03T14:38:55Z</time></trkpt><trkpt lat="44.80284023798956" lon="9.557301548395117"><ele>725.2</ele><time>2026-05-03T14:38:56Z</time></trkpt><trkpt lat="44.80285744097207" lon="9.557439214463107"><ele>725.5999999999999</ele><time>2026-05-03T14:38:57Z</time></trkpt><trkpt lat="44.80286303409749" lon="9.557577368008332"><ele>726.0</ele><time>2026-05-03T14:38:58Z</time></trkpt><trkpt lat="44.80284695235448" lon="9.557694399502113"><ele>726.0</ele><time>2026-05-03T14:38:59Z</time></trkpt><trkpt lat="44.80287133172708" lon="9.557795971482873"><ele>726.0</ele><time>2026-05-03T14:39:00Z</time></trkpt><trkpt lat="44.80280336140407" lon="9.558093751907"><ele>726.0</ele><time>2026-05-03T14:39:02Z</time></trkpt><trkpt lat="44.80284144417084" lon="9.5581906198575"><ele>726.0</ele><time>2026-05-03T14:39:03Z</time></trkpt><trkpt lat="44.802871449874566" lon="9.55828627398156"><ele>727.0</ele><time>2026-05-03T14:39:04Z</time></trkpt><trkpt lat="44.802906177158164" lon="9.558396980112615"><ele>728.0</ele><time>2026-05-03T14:39:07Z</time></trkpt><trkpt lat="44.8030895891353" lon="9.55887874686622"><ele>728.0</ele><time>2026-05-03T14:39:10Z</time></trkpt><trkpt lat="44.80339282378374" lon="9.558765076270308"><ele>728.0</ele><time>2026-05-03T14:39:13Z</time></trkpt><trkpt lat="44.803416258530916" lon="9.558617176741068"><ele>728.0</ele><time>2026-05-03T14:39:14Z</time></trkpt><trkpt lat="44.80347675507393" lon="9.558757273362893"><ele>726.0</ele><time>2026-05-03T14:39:15Z</time></trkpt><trkpt lat="44.8035768372058" lon="9.55874677205474"><ele>724.0</ele><time>2026-05-03T14:39:17Z</time></trkpt><trkpt lat="44.80371467555688" lon="9.558804684084418"><ele>722.0</ele><time>2026-05-03T14:39:19Z</time></trkpt><trkpt lat="44.80375915701018" lon="9.558907432784906"><ele>720.0</ele><time>2026-05-03T14:39:20Z</time></trkpt><trkpt lat="44.80382360634503" lon="9.55901636092921"><ele>718.0</ele><time>2026-05-03T14:39:21Z</time></trkpt><trkpt lat="44.80390882401258" lon="9.559096065081084"><ele>718.0</ele><time>2026-05-03T14:39:22Z</time></trkpt><trkpt lat="44.80398824970149" lon="9.559177818615574"><ele>718.0</ele><time>2026-05-03T14:39:23Z</time></trkpt><trkpt lat="44.80407379678197" lon="9.559255524712142"><ele>718.0</ele><time>2026-05-03T14:39:24Z</time></trkpt><trkpt lat="44.80416189371277" lon="9.559319231427212"><ele>718.0</ele><time>2026-05-03T14:39:25Z</time></trkpt><trkpt lat="44.804263600220125" lon="9.559352405614787"><ele>718.0</ele><time>2026-05-03T14:39:26Z</time></trkpt><trkpt lat="44.8043733272976" lon="9.559364014435905"><ele>718.8</ele><time>2026-05-03T14:39:27Z</time></trkpt><trkpt lat="44.80448531540213" lon="9.559403556016667"><ele>719.5999999999999</ele><time>2026-05-03T14:39:28Z</time></trkpt><trkpt lat="44.80458827899553" lon="9.559427165935594"><ele>720.4000000000001</ele><time>2026-05-03T14:39:29Z</time></trkpt><trkpt lat="44.80468565864807" lon="9.559455625026196"><ele>721.2</ele><time>2026-05-03T14:39:30Z</time></trkpt><trkpt lat="44.80477337010878" lon="9.55948651946845"><ele>722.0</ele><time>2026-05-03T14:39:31Z</time></trkpt><trkpt lat="44.804845481485685" lon="9.559536285139934"><ele>720.6666666666666</ele><time>2026-05-03T14:39:32Z</time></trkpt><trkpt lat="44.80491586121024" lon="9.559582325285197"><ele>719.3333333333333</ele><time>2026-05-03T14:39:33Z</time></trkpt><trkpt lat="44.804993892040265" lon="9.559618860131026"><ele>718.0</ele><time>2026-05-03T14:39:34Z</time></trkpt><trkpt lat="44.805070781357784" lon="9.559616648889145"><ele>716.6666666666666</ele><time>2026-05-03T14:39:35Z</time></trkpt><trkpt lat="44.80514915484725" lon="9.559628847780754"><ele>715.3333333333334</ele><time>2026-05-03T14:39:36Z</time></trkpt><trkpt lat="44.80522522592661" lon="9.559662238849173"><ele>714.0</ele><time>2026-05-03T14:39:37Z</time></trkpt><trkpt lat="44.80530582033389" lon="9.559681118364162"><ele>713.2</ele><time>2026-05-03T14:39:38Z</time></trkpt><trkpt lat="44.8053921873764" lon="9.559700807129536"><ele>712.4000000000001</ele><time>2026-05-03T14:39:39Z</time></trkpt><trkpt lat="44.80549382042872" lon="9.559732242108456"><ele>711.6</ele><time>2026-05-03T14:39:40Z</time></trkpt><trkpt lat="44.80559023109124" lon="9.559779595655712"><ele>710.8</ele><time>2026-05-03T14:39:41Z</time></trkpt><trkpt lat="44.80569564750824" lon="9.559846843329147"><ele>710.0</ele><time>2026-05-03T14:39:42Z</time></trkpt><trkpt lat="44.80578730507934" lon="9.559923353644825"><ele>710.0</ele><time>2026-05-03T14:39:43Z</time></trkpt><trkpt lat="44.80588203046717" lon="9.560024121131073"><ele>710.0</ele><time>2026-05-03T14:39:44Z</time></trkpt><trkpt lat="44.805972774065204" lon="9.560123647891329"><ele>710.0</ele><time>2026-05-03T14:39:45Z</time></trkpt><trkpt lat="44.8060558706347" lon="9.560204497121044"><ele>710.0</ele><time>2026-05-03T14:39:46Z</time></trkpt><trkpt lat="44.80613776108293" lon="9.56030471760969"><ele>710.0</ele><time>2026-05-03T14:39:47Z</time></trkpt><trkpt lat="44.80624016694214" lon="9.560396054860574"><ele>710.75</ele><time>2026-05-03T14:39:48Z</time></trkpt><trkpt lat="44.80635884108713" lon="9.56046364403429"><ele>711.5</ele><time>2026-05-03T14:39:49Z</time></trkpt><trkpt lat="44.80647651464495" lon="9.560520766659753"><ele>712.25</ele><time>2026-05-03T14:39:50Z</time></trkpt><trkpt lat="44.80658623256805" lon="9.560567108936986"><ele>713.0</ele><time>2026-05-03T14:39:51Z</time></trkpt><trkpt lat="44.80669182666657" lon="9.560612163915625"><ele>713.0</ele><time>2026-05-03T14:39:52Z</time></trkpt><trkpt lat="44.80678886180912" lon="9.560664777211038"><ele>713.0</ele><time>2026-05-03T14:39:53Z</time></trkpt><trkpt lat="44.806887100362886" lon="9.560730910798151"><ele>713.0</ele><time>2026-05-03T14:39:54Z</time></trkpt><trkpt lat="44.80699177902927" lon="9.560793423195076"><ele>713.0</ele><time>2026-05-03T14:39:55Z</time></trkpt><trkpt lat="44.807084558887844" lon="9.560882016542658"><ele>713.0</ele><time>2026-05-03T14:39:56Z</time></trkpt><trkpt lat="44.80716462180715" lon="9.560968813184692"><ele>713.1666666666666</ele><time>2026-05-03T14:39:57Z</time></trkpt><trkpt lat="44.807229558916674" lon="9.561038912264005"><ele>713.3333333333333</ele><time>2026-05-03T14:39:58Z</time></trkpt><trkpt lat="44.807261802853134" lon="9.561122685129444"><ele>713.5</ele><time>2026-05-03T14:39:58.999Z</time></trkpt><trkpt lat="44.80731642243095" lon="9.561204059468249"><ele>713.6666666666666</ele><time>2026-05-03T14:40:00.999Z</time></trkpt><trkpt lat="44.80736708677182" lon="9.561256750465391"><ele>713.8333333333334</ele><time>2026-05-03T14:40:02.999Z</time></trkpt><trkpt lat="44.80747401408577" lon="9.561367955455363"><ele>714.0</ele><time>2026-05-03T14:40:04.999Z</time></trkpt><trkpt lat="44.807535841876344" lon="9.56143225669934"><ele>715.25</ele><time>2026-05-03T14:40:05.999Z</time></trkpt><trkpt lat="44.80741510333379" lon="9.56156355074907"><ele>716.5</ele><time>2026-05-03T14:40:06.999Z</time></trkpt><trkpt lat="44.807422015226805" lon="9.561698780061871"><ele>717.75</ele><time>2026-05-03T14:40:08.999Z</time></trkpt><trkpt lat="44.807439708310056" lon="9.561871815906565"><ele>719.0</ele><time>2026-05-03T14:40:10.999Z</time></trkpt><trkpt lat="44.807469480155106" lon="9.561988880407553"><ele>720.0</ele><time>2026-05-03T14:40:11.999Z</time></trkpt><trkpt lat="44.807533581754704" lon="9.562142495654658"><ele>721.0</ele><time>2026-05-03T14:40:12.999Z</time></trkpt><trkpt lat="44.807613843483686" lon="9.562240943775144"><ele>722.0</ele><time>2026-05-03T14:40:13.999Z</time></trkpt><trkpt lat="44.80766684768304" lon="9.562330044765575"><ele>723.0</ele><time>2026-05-03T14:40:14.999Z</time></trkpt><trkpt lat="44.807739931196615" lon="9.562450471733294"><ele>724.0</ele><time>2026-05-03T14:40:15.999Z</time></trkpt><trkpt lat="44.80780893639321" lon="9.562547953695805"><ele>724.0</ele><time>2026-05-03T14:40:16.999Z</time></trkpt><trkpt lat="44.8078651675021" lon="9.562618905023141"><ele>724.0</ele><time>2026-05-03T14:40:17.999Z</time></trkpt><trkpt lat="44.80791864289136" lon="9.562695502605196"><ele>724.0</ele><time>2026-05-03T14:40:18.999Z</time></trkpt><trkpt lat="44.807970543377266" lon="9.562771977552428"><ele>724.0</ele><time>2026-05-03T14:40:19.999Z</time></trkpt><trkpt lat="44.80805639138272" lon="9.562900155628416"><ele>724.0</ele><time>2026-05-03T14:40:21.999Z</time></trkpt><trkpt lat="44.80811278375981" lon="9.562984354224604"><ele>724.0</ele><time>2026-05-03T14:40:22.999Z</time></trkpt><trkpt lat="44.80816096377269" lon="9.56306454942778"><ele>723.0</ele><time>2026-05-03T14:40:23.999Z</time></trkpt><trkpt lat="44.80827531971215" lon="9.563209843101797"><ele>722.0</ele><time>2026-05-03T14:40:24.999Z</time></trkpt><trkpt lat="44.80832824723474" lon="9.56328160347219"><ele>721.0</ele><time>2026-05-03T14:40:25.999Z</time></trkpt><trkpt lat="44.80838983894198" lon="9.56334245131163"><ele>720.0</ele><time>2026-05-03T14:40:26.999Z</time></trkpt><trkpt lat="44.8084642348922" lon="9.563392765102853"><ele>719.0</ele><time>2026-05-03T14:40:28.999Z</time></trkpt><trkpt lat="44.808574692347484" lon="9.563441987040179"><ele>740.0</ele><time>2026-05-03T14:40:30.999Z</time></trkpt><trkpt lat="44.80904250497171" lon="9.562837358504106"><ele>741.0</ele><time>2026-05-03T14:40:32.999Z</time></trkpt><trkpt lat="44.80910626244891" lon="9.562900868194546"><ele>742.0</ele><time>2026-05-03T14:40:33.999Z</time></trkpt><trkpt lat="44.809154165550076" lon="9.562992487268245"><ele>743.0</ele><time>2026-05-03T14:40:34.999Z</time></trkpt><trkpt lat="44.809190153826435" lon="9.563068122779722"><ele>744.0</ele><time>2026-05-03T14:40:35.999Z</time></trkpt><trkpt lat="44.80929683943516" lon="9.563071503375447"><ele>745.0</ele><time>2026-05-03T14:40:37.999Z</time></trkpt><trkpt lat="44.80938607968003" lon="9.563057740568595"><ele>746.0</ele><time>2026-05-03T14:40:38.999Z</time></trkpt><trkpt lat="44.80946234526106" lon="9.563055592782664"><ele>750.0</ele><time>2026-05-03T14:40:40Z</time></trkpt><trkpt lat="44.80953335680817" lon="9.562970814212571"><ele>754.0</ele><time>2026-05-03T14:40:41Z</time></trkpt><trkpt lat="44.80956362575559" lon="9.562871043457372"><ele>758.0</ele><time>2026-05-03T14:40:42Z</time></trkpt><trkpt lat="44.80958473368288" lon="9.562764898442232"><ele>762.0</ele><time>2026-05-03T14:40:43Z</time></trkpt><trkpt lat="44.80963884599914" lon="9.562673269642278"><ele>766.0</ele><time>2026-05-03T14:40:44Z</time></trkpt><trkpt lat="44.80975934043692" lon="9.562524287507646"><ele>766.0</ele><time>2026-05-03T14:40:46Z</time></trkpt><trkpt lat="44.8098109114957" lon="9.562423091356143"><ele>766.0</ele><time>2026-05-03T14:40:47Z</time></trkpt><trkpt lat="44.80986829971387" lon="9.562344267809998"><ele>766.0</ele><time>2026-05-03T14:40:48Z</time></trkpt><trkpt lat="44.80993908487765" lon="9.562270812087784"><ele>766.0</ele><time>2026-05-03T14:40:49Z</time></trkpt><trkpt lat="44.81001532599601" lon="9.562229003753583"><ele>766.0</ele><time>2026-05-03T14:40:50Z</time></trkpt><trkpt lat="44.810110548495665" lon="9.562211933050353"><ele>766.0</ele><time>2026-05-03T14:40:51Z</time></trkpt><trkpt lat="44.810193765138294" lon="9.562173698790907"><ele>767.8</ele><time>2026-05-03T14:40:52Z</time></trkpt><trkpt lat="44.81029472937632" lon="9.562139527762843"><ele>769.5999999999999</ele><time>2026-05-03T14:40:53Z</time></trkpt><trkpt lat="44.810384421551454" lon="9.56211942851468"><ele>771.4</ele><time>2026-05-03T14:40:54Z</time></trkpt><trkpt lat="44.81048205353128" lon="9.56212263056666"><ele>773.2</ele><time>2026-05-03T14:40:55Z</time></trkpt><trkpt lat="44.81058088999758" lon="9.56211028105646"><ele>775.0</ele><time>2026-05-03T14:40:56Z</time></trkpt><trkpt lat="44.81069096379363" lon="9.562089250542373"><ele>774.9999999999999</ele><time>2026-05-03T14:40:57Z</time></trkpt><trkpt lat="44.81077481580364" lon="9.56206870049408"><ele>775.0</ele><time>2026-05-03T14:40:58Z</time></trkpt><trkpt lat="44.81085508899911" lon="9.562045280700131"><ele>775.0</ele><time>2026-05-03T14:40:59Z</time></trkpt><trkpt lat="44.81093715169435" lon="9.56201663128096"><ele>775.0</ele><time>2026-05-03T14:41:00Z</time></trkpt><trkpt lat="44.81102281221535" lon="9.562009919255852"><ele>774.9999999999999</ele><time>2026-05-03T14:41:01Z</time></trkpt><trkpt lat="44.81110082721842" lon="9.561992041832989"><ele>775.0</ele><time>2026-05-03T14:41:02Z</time></trkpt><trkpt lat="44.811213710166655" lon="9.5619684509388"><ele>772.6</ele><time>2026-05-03T14:41:03Z</time></trkpt><trkpt lat="44.81132402753966" lon="9.561956202174485"><ele>770.2</ele><time>2026-05-03T14:41:04Z</time></trkpt><trkpt lat="44.8114203525807" lon="9.561938821082903"><ele>767.8</ele><time>2026-05-03T14:41:05Z</time></trkpt><trkpt lat="44.81148501083737" lon="9.561929275300939"><ele>765.4</ele><time>2026-05-03T14:41:06Z</time></trkpt><trkpt lat="44.81161157329478" lon="9.561940405308269"><ele>763.0</ele><time>2026-05-03T14:41:08Z</time></trkpt><trkpt lat="44.81168347223491" lon="9.561965663774124"><ele>763.0</ele><time>2026-05-03T14:41:09Z</time></trkpt><trkpt lat="44.811766040795334" lon="9.56198726844296"><ele>763.0</ele><time>2026-05-03T14:41:10Z</time></trkpt><trkpt lat="44.811831710311445" lon="9.56202045481917"><ele>763.0</ele><time>2026-05-03T14:41:11Z</time></trkpt><trkpt lat="44.81193989412657" lon="9.561934046312775"><ele>763.0</ele><time>2026-05-03T14:41:13Z</time></trkpt><trkpt lat="44.81204531292277" lon="9.561882996183705"><ele>763.0</ele><time>2026-05-03T14:41:14Z</time></trkpt><trkpt lat="44.81213517168987" lon="9.56184978250416"><ele>762.3333333333334</ele><time>2026-05-03T14:41:15Z</time></trkpt><trkpt lat="44.81222276632206" lon="9.561852418194363"><ele>761.6666666666667</ele><time>2026-05-03T14:41:16Z</time></trkpt><trkpt lat="44.81231144864808" lon="9.56185106419567"><ele>761.0</ele><time>2026-05-03T14:41:17Z</time></trkpt><trkpt lat="44.81239517625661" lon="9.56186036318875"><ele>760.3333333333334</ele><time>2026-05-03T14:41:18Z</time></trkpt><trkpt lat="44.812490249606945" lon="9.561879125507268"><ele>759.6666666666666</ele><time>2026-05-03T14:41:19Z</time></trkpt><trkpt lat="44.81256819762072" lon="9.561890335773976"><ele>759.0</ele><time>2026-05-03T14:41:20Z</time></trkpt><trkpt lat="44.81262995306341" lon="9.56190794693915"><ele>760.8333333333334</ele><time>2026-05-03T14:41:21Z</time></trkpt><trkpt lat="44.81269731234704" lon="9.56190324138545"><ele>762.6666666666667</ele><time>2026-05-03T14:41:22Z</time></trkpt><trkpt lat="44.81279895675056" lon="9.56192397197517"><ele>764.5</ele><time>2026-05-03T14:41:23Z</time></trkpt><trkpt lat="44.81290078438312" lon="9.561936116718412"><ele>766.3333333333334</ele><time>2026-05-03T14:41:24Z</time></trkpt><trkpt lat="44.81297978124386" lon="9.562023534324062"><ele>768.1666666666667</ele><time>2026-05-03T14:41:26Z</time></trkpt><trkpt lat="44.813041052001545" lon="9.562072240619527"><ele>770.0</ele><time>2026-05-03T14:41:27Z</time></trkpt><trkpt lat="44.81307271557707" lon="9.562215681747137"><ele>770.0</ele><time>2026-05-03T14:41:29Z</time></trkpt><trkpt lat="44.81312220233435" lon="9.562400582590508"><ele>770.0</ele><time>2026-05-03T14:41:31Z</time></trkpt><trkpt lat="44.813164946984955" lon="9.56252593810063"><ele>770.0</ele><time>2026-05-03T14:41:32Z</time></trkpt><trkpt lat="44.813135857775784" lon="9.562625553099545"><ele>770.0</ele><time>2026-05-03T14:41:33Z</time></trkpt><trkpt lat="44.81314584054735" lon="9.562741811132467"><ele>770.0</ele><time>2026-05-03T14:41:35Z</time></trkpt><trkpt lat="44.81323006638666" lon="9.562683637467213"><ele>770.0000000000001</ele><time>2026-05-03T14:41:37Z</time></trkpt><trkpt lat="44.813284239346444" lon="9.562590700287085"><ele>770.0</ele><time>2026-05-03T14:41:38Z</time></trkpt><trkpt lat="44.81335807385326" lon="9.56252803962834"><ele>770.0</ele><time>2026-05-03T14:41:39Z</time></trkpt><trkpt lat="44.813443939847836" lon="9.56251144922173"><ele>770.0</ele><time>2026-05-03T14:41:40Z</time></trkpt><trkpt lat="44.813518614217436" lon="9.562514993247254"><ele>770.0000000000001</ele><time>2026-05-03T14:41:41Z</time></trkpt><trkpt lat="44.81360603442536" lon="9.56250073054891"><ele>770.0</ele><time>2026-05-03T14:41:42Z</time></trkpt><trkpt lat="44.81370568439716" lon="9.562478894859545"><ele>770.2</ele><time>2026-05-03T14:41:43Z</time></trkpt><trkpt lat="44.81379749248015" lon="9.562449396512097"><ele>770.4</ele><time>2026-05-03T14:41:44Z</time></trkpt><trkpt lat="44.8138609521543" lon="9.56243408180569"><ele>770.5999999999999</ele><time>2026-05-03T14:41:45Z</time></trkpt><trkpt lat="44.813993354079564" lon="9.562467748804188"><ele>770.8</ele><time>2026-05-03T14:41:47Z</time></trkpt><trkpt lat="44.81408152917861" lon="9.5624879566183"><ele>771.0</ele><time>2026-05-03T14:41:48Z</time></trkpt><trkpt lat="44.81414651130137" lon="9.562512219741217"><ele>771.0</ele><time>2026-05-03T14:41:49Z</time></trkpt><trkpt lat="44.81420876078624" lon="9.562575626885376"><ele>771.0</ele><time>2026-05-03T14:41:50Z</time></trkpt><trkpt lat="44.81430464833933" lon="9.562645116406424"><ele>771.0</ele><time>2026-05-03T14:41:52Z</time></trkpt><trkpt lat="44.81436719529414" lon="9.562668964703933"><ele>771.0</ele><time>2026-05-03T14:41:53Z</time></trkpt><trkpt lat="44.81442865025497" lon="9.562716081247515"><ele>771.0</ele><time>2026-05-03T14:41:54Z</time></trkpt><trkpt lat="44.8144940624193" lon="9.5627912876857"><ele>771.0</ele><time>2026-05-03T14:41:55Z</time></trkpt><trkpt lat="44.81455470564297" lon="9.56288248337909"><ele>768.3333333333334</ele><time>2026-05-03T14:41:56Z</time></trkpt><trkpt lat="44.81456940148093" lon="9.562982106258124"><ele>765.6666666666666</ele><time>2026-05-03T14:41:57Z</time></trkpt><trkpt lat="44.81456666338292" lon="9.563102513699278"><ele>763.0</ele><time>2026-05-03T14:41:58Z</time></trkpt><trkpt lat="44.8145490240538" lon="9.56320260999182"><ele>760.3333333333333</ele><time>2026-05-03T14:41:59Z</time></trkpt><trkpt lat="44.81448945379848" lon="9.563262702710423"><ele>757.6666666666666</ele><time>2026-05-03T14:42:00Z</time></trkpt><trkpt lat="44.81445995163109" lon="9.563348595006975"><ele>755.0</ele><time>2026-05-03T14:42:01Z</time></trkpt><trkpt lat="44.814432349594966" lon="9.563469924079657"><ele>755.0</ele><time>2026-05-03T14:42:02Z</time></trkpt><trkpt lat="44.81442323145399" lon="9.56364249534189"><ele>755.0</ele><time>2026-05-03T14:42:03Z</time></trkpt><trkpt lat="44.81446049866686" lon="9.563757789113652"><ele>755.0</ele><time>2026-05-03T14:42:03.999Z</time></trkpt><trkpt lat="44.81449251335133" lon="9.563854891192397"><ele>755.0</ele><time>2026-05-03T14:42:04.999Z</time></trkpt><trkpt lat="44.814498687726235" lon="9.564007869781737"><ele>755.0</ele><time>2026-05-03T14:42:06.999Z</time></trkpt><trkpt lat="44.8144954872064" lon="9.564125281927382"><ele>757.0</ele><time>2026-05-03T14:42:07.999Z</time></trkpt><trkpt lat="44.814474593893" lon="9.564265190109076"><ele>759.0</ele><time>2026-05-03T14:42:08.999Z</time></trkpt><trkpt lat="44.81450643223894" lon="9.564388808250946"><ele>761.0</ele><time>2026-05-03T14:42:09.999Z</time></trkpt><trkpt lat="44.81456589044414" lon="9.564517432315718"><ele>763.0</ele><time>2026-05-03T14:42:10.999Z</time></trkpt><trkpt lat="44.81463454996879" lon="9.564584776518759"><ele>765.0</ele><time>2026-05-03T14:42:11.999Z</time></trkpt><trkpt lat="44.81466462700533" lon="9.56472098273292"><ele>766.0</ele><time>2026-05-03T14:42:13.999Z</time></trkpt><trkpt lat="44.814714705785676" lon="9.564838201204397"><ele>767.0</ele><time>2026-05-03T14:42:14.999Z</time></trkpt><trkpt lat="44.814742007791246" lon="9.564924940879903"><ele>768.0</ele><time>2026-05-03T14:42:15.999Z</time></trkpt><trkpt lat="44.814739902286135" lon="9.565015075735323"><ele>769.0</ele><time>2026-05-03T14:42:17.999Z</time></trkpt><trkpt lat="44.814731734766845" lon="9.565170558237467"><ele>770.0</ele><time>2026-05-03T14:42:19.999Z</time></trkpt><trkpt lat="44.81482782647094" lon="9.565075185175631"><ele>770.0000000000001</ele><time>2026-05-03T14:42:23.999Z</time></trkpt><trkpt lat="44.81486531058399" lon="9.56496947298026"><ele>770.0</ele><time>2026-05-03T14:42:24.999Z</time></trkpt><trkpt lat="44.81492682202422" lon="9.564906872027153"><ele>770.0</ele><time>2026-05-03T14:42:25.999Z</time></trkpt><trkpt lat="44.814988784021594" lon="9.564867543826153"><ele>770.0</ele><time>2026-05-03T14:42:26.999Z</time></trkpt><trkpt lat="44.815053622373846" lon="9.564858946702703"><ele>770.0000000000001</ele><time>2026-05-03T14:42:27.999Z</time></trkpt><trkpt lat="44.81510954057146" lon="9.564905889277272"><ele>770.0</ele><time>2026-05-03T14:42:28.999Z</time></trkpt><trkpt lat="44.815200392109936" lon="9.564985802915736"><ele>765.2</ele><time>2026-05-03T14:42:29.999Z</time></trkpt><trkpt lat="44.81529766774139" lon="9.565071099640292"><ele>760.4</ele><time>2026-05-03T14:42:30.999Z</time></trkpt><trkpt lat="44.81537535992744" lon="9.565108891658127"><ele>755.5999999999999</ele><time>2026-05-03T14:42:31.999Z</time></trkpt><trkpt lat="44.8154652530333" lon="9.565095248953785"><ele>750.8</ele><time>2026-05-03T14:42:32.999Z</time></trkpt><trkpt lat="44.81554755733007" lon="9.56509923102148"><ele>746.0</ele><time>2026-05-03T14:42:33.999Z</time></trkpt><trkpt lat="44.81562702359606" lon="9.565124584265108"><ele>746.0</ele><time>2026-05-03T14:42:34.999Z</time></trkpt><trkpt lat="44.81568756470559" lon="9.565151196979874"><ele>746.0</ele><time>2026-05-03T14:42:35.999Z</time></trkpt><trkpt lat="44.81577490703252" lon="9.565063881842832"><ele>746.0</ele><time>2026-05-03T14:42:38.999Z</time></trkpt><trkpt lat="44.81582394806716" lon="9.565001334624492"><ele>746.0</ele><time>2026-05-03T14:42:39.999Z</time></trkpt><trkpt lat="44.81588620636451" lon="9.564943806034027"><ele>746.0</ele><time>2026-05-03T14:42:40.999Z</time></trkpt><trkpt lat="44.81595686316494" lon="9.564907818074628"><ele>746.0</ele><time>2026-05-03T14:42:41.999Z</time></trkpt><trkpt lat="44.81602339396447" lon="9.56489381658371"><ele>744.8571428571429</ele><time>2026-05-03T14:42:42.999Z</time></trkpt><trkpt lat="44.816091667773094" lon="9.56487764734248"><ele>743.7142857142858</ele><time>2026-05-03T14:42:43.999Z</time></trkpt><trkpt lat="44.81612832043587" lon="9.564791160525786"><ele>742.5714285714286</ele><time>2026-05-03T14:42:46Z</time></trkpt><trkpt lat="44.81609204512612" lon="9.56470245284851"><ele>741.4285714285714</ele><time>2026-05-03T14:42:47Z</time></trkpt><trkpt lat="44.81606556395369" lon="9.56460557067029"><ele>740.2857142857142</ele><time>2026-05-03T14:42:48Z</time></trkpt><trkpt lat="44.81607938541145" lon="9.564513263636893"><ele>739.1428571428571</ele><time>2026-05-03T14:42:49Z</time></trkpt><trkpt lat="44.81611361623362" lon="9.564403799698267"><ele>738.0</ele><time>2026-05-03T14:42:50Z</time></trkpt><trkpt lat="44.81615733314899" lon="9.564320272210711"><ele>738.0</ele><time>2026-05-03T14:42:51Z</time></trkpt><trkpt lat="44.81621628933195" lon="9.564258369860212"><ele>738.0</ele><time>2026-05-03T14:42:52Z</time></trkpt><trkpt lat="44.81628733262206" lon="9.564228212759165"><ele>738.0</ele><time>2026-05-03T14:42:53Z</time></trkpt><trkpt lat="44.816382351394296" lon="9.564207408987967"><ele>738.0</ele><time>2026-05-03T14:42:54Z</time></trkpt><trkpt lat="44.81646012135706" lon="9.564223631210146"><ele>738.0</ele><time>2026-05-03T14:42:55Z</time></trkpt><trkpt lat="44.81653202101798" lon="9.564343971740426"><ele>738.0</ele><time>2026-05-03T14:42:56Z</time></trkpt><trkpt lat="44.816612515668275" lon="9.56447720308698"><ele>737.0</ele><time>2026-05-03T14:42:57Z</time></trkpt><trkpt lat="44.81667767308133" lon="9.56453572663082"><ele>736.0</ele><time>2026-05-03T14:42:58Z</time></trkpt><trkpt lat="44.816751595828656" lon="9.564583233599583"><ele>735.0</ele><time>2026-05-03T14:42:59Z</time></trkpt><trkpt lat="44.816852440640126" lon="9.56461204695227"><ele>734.0</ele><time>2026-05-03T14:43:00Z</time></trkpt><trkpt lat="44.81694528835734" lon="9.564640967366866"><ele>733.0</ele><time>2026-05-03T14:43:01Z</time></trkpt><trkpt lat="44.81700713813256" lon="9.564679269457296"><ele>732.0</ele><time>2026-05-03T14:43:02Z</time></trkpt><trkpt lat="44.81707677546966" lon="9.564719500343022"><ele>730.8333333333334</ele><time>2026-05-03T14:43:03Z</time></trkpt><trkpt lat="44.81714873332565" lon="9.564745974667757"><ele>729.6666666666666</ele><time>2026-05-03T14:43:04Z</time></trkpt><trkpt lat="44.81722748832154" lon="9.56476263635322"><ele>728.5</ele><time>2026-05-03T14:43:05Z</time></trkpt><trkpt lat="44.8173148467766" lon="9.564762357657608"><ele>727.3333333333333</ele><time>2026-05-03T14:43:06Z</time></trkpt><trkpt lat="44.81740180847711" lon="9.564749080708113"><ele>726.1666666666666</ele><time>2026-05-03T14:43:07Z</time></trkpt><trkpt lat="44.81747554618025" lon="9.564776639887388"><ele>725.0</ele><time>2026-05-03T14:43:08Z</time></trkpt><trkpt lat="44.81755849850025" lon="9.564835924569364"><ele>721.0</ele><time>2026-05-03T14:43:10Z</time></trkpt><trkpt lat="44.817659046104154" lon="9.564820784981002"><ele>717.0</ele><time>2026-05-03T14:43:12Z</time></trkpt><trkpt lat="44.8177240836241" lon="9.564747807428336"><ele>713.0</ele><time>2026-05-03T14:43:13Z</time></trkpt><trkpt lat="44.8177989298463" lon="9.564682482128722"><ele>709.0</ele><time>2026-05-03T14:43:14Z</time></trkpt><trkpt lat="44.81786157452436" lon="9.564583223761826"><ele>705.0</ele><time>2026-05-03T14:43:15Z</time></trkpt><trkpt lat="44.81788211330666" lon="9.564468880165109"><ele>704.8333333333334</ele><time>2026-05-03T14:43:16Z</time></trkpt><trkpt lat="44.817873059196806" lon="9.564362270927838"><ele>704.6666666666666</ele><time>2026-05-03T14:43:17Z</time></trkpt><trkpt lat="44.817856559143806" lon="9.564265645396105"><ele>704.5</ele><time>2026-05-03T14:43:18Z</time></trkpt><trkpt lat="44.81784216252526" lon="9.564120006865371"><ele>704.3333333333333</ele><time>2026-05-03T14:43:20Z</time></trkpt><trkpt lat="44.81785381711843" lon="9.563992263453388"><ele>704.1666666666666</ele><time>2026-05-03T14:43:21Z</time></trkpt><trkpt lat="44.81787726229511" lon="9.56384560895097"><ele>704.0</ele><time>2026-05-03T14:43:22Z</time></trkpt><trkpt lat="44.81789036691188" lon="9.563737490953057"><ele>705.1666666666666</ele><time>2026-05-03T14:43:23Z</time></trkpt><trkpt lat="44.817927598583985" lon="9.563613454942491"><ele>706.3333333333333</ele><time>2026-05-03T14:43:24Z</time></trkpt><trkpt lat="44.81795307861321" lon="9.563487118479964"><ele>707.5</ele><time>2026-05-03T14:43:25Z</time></trkpt><trkpt lat="44.81795365503253" lon="9.563384541753694"><ele>708.6666666666666</ele><time>2026-05-03T14:43:26Z</time></trkpt><trkpt lat="44.81792424032589" lon="9.563291647240495"><ele>709.8333333333334</ele><time>2026-05-03T14:43:28Z</time></trkpt><trkpt lat="44.8179538043884" lon="9.563149260469428"><ele>711.0</ele><time>2026-05-03T14:43:31Z</time></trkpt><trkpt lat="44.81801899216806" lon="9.563082319666321"><ele>711.0</ele><time>2026-05-03T14:43:32Z</time></trkpt><trkpt lat="44.818093343970595" lon="9.563061293434053"><ele>711.0</ele><time>2026-05-03T14:43:33Z</time></trkpt><trkpt lat="44.8181611100321" lon="9.563029651181747"><ele>711.0</ele><time>2026-05-03T14:43:34Z</time></trkpt><trkpt lat="44.81821521192336" lon="9.562981119084288"><ele>711.0</ele><time>2026-05-03T14:43:35Z</time></trkpt><trkpt lat="44.81827591077975" lon="9.562913939832264"><ele>711.0</ele><time>2026-05-03T14:43:36Z</time></trkpt><trkpt lat="44.81834202892332" lon="9.56283743796018"><ele>711.0</ele><time>2026-05-03T14:43:37Z</time></trkpt><trkpt lat="44.81843759915166" lon="9.562791114819962"><ele>709.0</ele><time>2026-05-03T14:43:38Z</time></trkpt><trkpt lat="44.81852266694176" lon="9.562784702587534"><ele>707.0</ele><time>2026-05-03T14:43:39Z</time></trkpt><trkpt lat="44.81860904762773" lon="9.562762516359694"><ele>705.0</ele><time>2026-05-03T14:43:40Z</time></trkpt><trkpt lat="44.81869506288882" lon="9.562711896083243"><ele>703.0</ele><time>2026-05-03T14:43:41Z</time></trkpt><trkpt lat="44.81875571042975" lon="9.562617255157653"><ele>701.0</ele><time>2026-05-03T14:43:42Z</time></trkpt><trkpt lat="44.818826059673526" lon="9.5625272277624"><ele>701.0</ele><time>2026-05-03T14:43:43Z</time></trkpt><trkpt lat="44.81890987996837" lon="9.562467262386459"><ele>701.0</ele><time>2026-05-03T14:43:44Z</time></trkpt><trkpt lat="44.819012890071484" lon="9.562427214735003"><ele>701.0</ele><time>2026-05-03T14:43:45Z</time></trkpt><trkpt lat="44.819115874091835" lon="9.562422486386883"><ele>701.0</ele><time>2026-05-03T14:43:46Z</time></trkpt><trkpt lat="44.81920351730415" lon="9.56241727970467"><ele>701.0</ele><time>2026-05-03T14:43:47Z</time></trkpt><trkpt lat="44.81927330147841" lon="9.562376973832865"><ele>700.8</ele><time>2026-05-03T14:43:48Z</time></trkpt><trkpt lat="44.819334957786936" lon="9.562281845726012"><ele>700.5999999999999</ele><time>2026-05-03T14:43:49Z</time></trkpt><trkpt lat="44.819450570200196" lon="9.562185915471996"><ele>700.4</ele><time>2026-05-03T14:43:50Z</time></trkpt><trkpt lat="44.819543817180325" lon="9.562115808143407"><ele>700.2</ele><time>2026-05-03T14:43:51Z</time></trkpt><trkpt lat="44.81962941653873" lon="9.562033991019149"><ele>700.0</ele><time>2026-05-03T14:43:52Z</time></trkpt><trkpt lat="44.8196718192627" lon="9.561963031346371"><ele>700.0</ele><time>2026-05-03T14:43:53Z</time></trkpt><trkpt lat="44.819709166708265" lon="9.561820646352007"><ele>700.0</ele><time>2026-05-03T14:43:55Z</time></trkpt><trkpt lat="44.81969512818746" lon="9.561684957149042"><ele>700.0</ele><time>2026-05-03T14:43:56Z</time></trkpt><trkpt lat="44.819701841699725" lon="9.561531561296384"><ele>700.0</ele><time>2026-05-03T14:43:57Z</time></trkpt><trkpt lat="44.81970723852615" lon="9.561425682859829"><ele>700.0</ele><time>2026-05-03T14:43:58Z</time></trkpt><trkpt lat="44.81972004268113" lon="9.561328320385703"><ele>700.0</ele><time>2026-05-03T14:43:59Z</time></trkpt><trkpt lat="44.819714588445976" lon="9.561211081865727"><ele>700.0</ele><time>2026-05-03T14:44:00Z</time></trkpt><trkpt lat="44.819705158468885" lon="9.561109940128878"><ele>700.0</ele><time>2026-05-03T14:44:01Z</time></trkpt><trkpt lat="44.81975093301004" lon="9.560954606563651"><ele>700.0</ele><time>2026-05-03T14:44:03Z</time></trkpt><trkpt lat="44.81974483611765" lon="9.56082531958376"><ele>700.0</ele><time>2026-05-03T14:44:04Z</time></trkpt><trkpt lat="44.81973136314389" lon="9.560691041808594"><ele>700.0</ele><time>2026-05-03T14:44:05Z</time></trkpt><trkpt lat="44.8197339066538" lon="9.56056710888702"><ele>700.0</ele><time>2026-05-03T14:44:06Z</time></trkpt><trkpt lat="44.819757911558966" lon="9.56045132471926"><ele>700.0</ele><time>2026-05-03T14:44:07Z</time></trkpt><trkpt lat="44.81979241138122" lon="9.560349258405575"><ele>700.0</ele><time>2026-05-03T14:44:08Z</time></trkpt><trkpt lat="44.81982687500619" lon="9.560255628614376"><ele>700.0</ele><time>2026-05-03T14:44:09Z</time></trkpt><trkpt lat="44.81984774624701" lon="9.560126702891262"><ele>700.0</ele><time>2026-05-03T14:44:10Z</time></trkpt><trkpt lat="44.8198475272834" lon="9.56002302648168"><ele>700.0</ele><time>2026-05-03T14:44:11Z</time></trkpt><trkpt lat="44.81987596256354" lon="9.559927204397065"><ele>700.0</ele><time>2026-05-03T14:44:12Z</time></trkpt><trkpt lat="44.81992867718827" lon="9.559809784657292"><ele>700.0</ele><time>2026-05-03T14:44:13Z</time></trkpt><trkpt lat="44.819981509881934" lon="9.559692785660035"><ele>700.0</ele><time>2026-05-03T14:44:13.999Z</time></trkpt><trkpt lat="44.82001819855474" lon="9.559583709433848"><ele>700.0</ele><time>2026-05-03T14:44:14.999Z</time></trkpt><trkpt lat="44.82004921678832" lon="9.55946094814989"><ele>700.0</ele><time>2026-05-03T14:44:15.999Z</time></trkpt><trkpt lat="44.82009344522214" lon="9.559325146777644"><ele>701.2</ele><time>2026-05-03T14:44:16.999Z</time></trkpt><trkpt lat="44.8201349638486" lon="9.559203800615856"><ele>702.4</ele><time>2026-05-03T14:44:17.999Z</time></trkpt><trkpt lat="44.82020164238786" lon="9.559076844606201"><ele>703.5999999999999</ele><time>2026-05-03T14:44:19.999Z</time></trkpt><trkpt lat="44.820318187097264" lon="9.559004648971962"><ele>704.8</ele><time>2026-05-03T14:44:21.999Z</time></trkpt><trkpt lat="44.8203915036693" lon="9.558917042890265"><ele>706.0</ele><time>2026-05-03T14:44:22.999Z</time></trkpt><trkpt lat="44.82044203713691" lon="9.558788162708899"><ele>702.4</ele><time>2026-05-03T14:44:23.999Z</time></trkpt><trkpt lat="44.820473808038145" lon="9.558662560102762"><ele>698.8</ele><time>2026-05-03T14:44:24.999Z</time></trkpt><trkpt lat="44.82049976694954" lon="9.558547526724242"><ele>695.1999999999999</ele><time>2026-05-03T14:44:25.999Z</time></trkpt><trkpt lat="44.82052838069765" lon="9.558419383765512"><ele>691.5999999999999</ele><time>2026-05-03T14:44:26.999Z</time></trkpt><trkpt lat="44.82056607317971" lon="9.55828787008144"><ele>688.0</ele><time>2026-05-03T14:44:27.999Z</time></trkpt><trkpt lat="44.820594709822444" lon="9.55816508899496"><ele>688.0</ele><time>2026-05-03T14:44:28.999Z</time></trkpt><trkpt lat="44.82061799846296" lon="9.558035654709819"><ele>688.0</ele><time>2026-05-03T14:44:29.999Z</time></trkpt><trkpt lat="44.82063525599251" lon="9.557910565495362"><ele>688.0</ele><time>2026-05-03T14:44:30.999Z</time></trkpt><trkpt lat="44.82063533640043" lon="9.557775994578833"><ele>688.0</ele><time>2026-05-03T14:44:31.999Z</time></trkpt><trkpt lat="44.820622254682085" lon="9.55764578903906"><ele>688.0</ele><time>2026-05-03T14:44:32.999Z</time></trkpt><trkpt lat="44.82060871048301" lon="9.557527811504212"><ele>685.0</ele><time>2026-05-03T14:44:33.999Z</time></trkpt><trkpt lat="44.82060266616382" lon="9.557423635658024"><ele>682.0</ele><time>2026-05-03T14:44:34.999Z</time></trkpt><trkpt lat="44.820590420356375" lon="9.557243499207502"><ele>679.0</ele><time>2026-05-03T14:44:36.999Z</time></trkpt><trkpt lat="44.82057189368255" lon="9.557123573685347"><ele>676.0</ele><time>2026-05-03T14:44:37.999Z</time></trkpt><trkpt lat="44.820563307878466" lon="9.556986471914446"><ele>673.0</ele><time>2026-05-03T14:44:38.999Z</time></trkpt><trkpt lat="44.8205702750868" lon="9.556870763703474"><ele>671.8333333333334</ele><time>2026-05-03T14:44:39.999Z</time></trkpt><trkpt lat="44.82057772377965" lon="9.556769973577861"><ele>670.6666666666667</ele><time>2026-05-03T14:44:40.999Z</time></trkpt><trkpt lat="44.82060186117882" lon="9.556626295381292"><ele>669.5</ele><time>2026-05-03T14:44:42.999Z</time></trkpt><trkpt lat="44.82057202685758" lon="9.55653235496636"><ele>668.3333333333334</ele><time>2026-05-03T14:44:44.999Z</time></trkpt><trkpt lat="44.82055727976476" lon="9.556444196220708"><ele>667.1666666666666</ele><time>2026-05-03T14:44:46.999Z</time></trkpt><trkpt lat="44.82055110005091" lon="9.556344539908547"><ele>666.0</ele><time>2026-05-03T14:44:47.999Z</time></trkpt><trkpt lat="44.82056788984256" lon="9.556216968148377"><ele>664.1666666666666</ele><time>2026-05-03T14:44:48.999Z</time></trkpt><trkpt lat="44.82059785518622" lon="9.55609752377411"><ele>662.3333333333334</ele><time>2026-05-03T14:44:49.999Z</time></trkpt><trkpt lat="44.820585345533715" lon="9.55598134705184"><ele>660.5</ele><time>2026-05-03T14:44:50.999Z</time></trkpt><trkpt lat="44.82060395521947" lon="9.55589325712331"><ele>658.6666666666667</ele><time>2026-05-03T14:44:52Z</time></trkpt><trkpt lat="44.820599441625454" lon="9.555780863691917"><ele>656.8333333333334</ele><time>2026-05-03T14:44:53Z</time></trkpt><trkpt lat="44.82060822705443" lon="9.555662749858463"><ele>655.0</ele><time>2026-05-03T14:44:54Z</time></trkpt><trkpt lat="44.82063758659112" lon="9.55555291250328"><ele>655.0</ele><time>2026-05-03T14:44:55Z</time></trkpt><trkpt lat="44.820651558955404" lon="9.555446212654257"><ele>655.0</ele><time>2026-05-03T14:44:56Z</time></trkpt><trkpt lat="44.82068105359368" lon="9.555340226694184"><ele>655.0</ele><time>2026-05-03T14:44:58Z</time></trkpt><trkpt lat="44.820796343197244" lon="9.555406087912347"><ele>655.0</ele><time>2026-05-03T14:45:00Z</time></trkpt><trkpt lat="44.82089975340756" lon="9.555354349333724"><ele>655.0</ele><time>2026-05-03T14:45:02Z</time></trkpt><trkpt lat="44.82093809806621" lon="9.555444156331484"><ele>652.75</ele><time>2026-05-03T14:45:06Z</time></trkpt><trkpt lat="44.820998925080275" lon="9.555720024008657"><ele>650.5</ele><time>2026-05-03T14:45:08Z</time></trkpt><trkpt lat="44.82104677681704" lon="9.555793210428282"><ele>648.25</ele><time>2026-05-03T14:45:12Z</time></trkpt><trkpt lat="44.8211044160438" lon="9.555867281216134"><ele>646.0</ele><time>2026-05-03T14:45:16Z</time></trkpt><trkpt lat="44.821187007101905" lon="9.55593961305543"><ele>646.0</ele><time>2026-05-03T14:45:18Z</time></trkpt><trkpt lat="44.821247712346825" lon="9.555971964006948"><ele>646.0</ele><time>2026-05-03T14:45:20Z</time></trkpt><trkpt lat="44.821328167486456" lon="9.556023038971222"><ele>646.0</ele><time>2026-05-03T14:45:23Z</time></trkpt><trkpt lat="44.82141647143883" lon="9.556118690535454"><ele>646.0</ele><time>2026-05-03T14:45:25Z</time></trkpt><trkpt lat="44.82148304126397" lon="9.556156893322598"><ele>646.0</ele><time>2026-05-03T14:45:26Z</time></trkpt><trkpt lat="44.821574978747854" lon="9.556195761694351"><ele>646.0</ele><time>2026-05-03T14:45:27Z</time></trkpt><trkpt lat="44.82163491814836" lon="9.556251888634772"><ele>649.75</ele><time>2026-05-03T14:45:28Z</time></trkpt><trkpt lat="44.821711971092924" lon="9.556408140229042"><ele>653.5</ele><time>2026-05-03T14:45:30Z</time></trkpt><trkpt lat="44.821801372479534" lon="9.556434450718138"><ele>657.25</ele><time>2026-05-03T14:45:32Z</time></trkpt><trkpt lat="44.82189604835577" lon="9.556406325160664"><ele>661.0</ele><time>2026-05-03T14:45:34Z</time></trkpt><trkpt lat="44.822026895529085" lon="9.556369804086014"><ele>662.1666666666667</ele><time>2026-05-03T14:45:36Z</time></trkpt><trkpt lat="44.822099869058796" lon="9.556352109785086"><ele>663.3333333333334</ele><time>2026-05-03T14:45:37Z</time></trkpt><trkpt lat="44.822163967446976" lon="9.556349609775001"><ele>664.5</ele><time>2026-05-03T14:45:38Z</time></trkpt><trkpt lat="44.822231144576335" lon="9.556357434072357"><ele>665.6666666666666</ele><time>2026-05-03T14:45:39Z</time></trkpt><trkpt lat="44.82232012880362" lon="9.556350204611048"><ele>666.8333333333333</ele><time>2026-05-03T14:45:40Z</time></trkpt><trkpt lat="44.82241500810648" lon="9.556322662662271"><ele>668.0</ele><time>2026-05-03T14:45:41Z</time></trkpt><trkpt lat="44.82253066469166" lon="9.556312959922424"><ele>668.0</ele><time>2026-05-03T14:45:42Z</time></trkpt><trkpt lat="44.822617822018955" lon="9.5563240682354"><ele>668.0</ele><time>2026-05-03T14:45:43Z</time></trkpt><trkpt lat="44.822698485534964" lon="9.556367018745341"><ele>668.0</ele><time>2026-05-03T14:45:44Z</time></trkpt><trkpt lat="44.82278885933787" lon="9.556431864643407"><ele>668.0</ele><time>2026-05-03T14:45:45Z</time></trkpt><trkpt lat="44.8228817804658" lon="9.556527758720145"><ele>668.0</ele><time>2026-05-03T14:45:46Z</time></trkpt><trkpt lat="44.82295834948828" lon="9.556627467355327"><ele>668.8333333333333</ele><time>2026-05-03T14:45:47Z</time></trkpt><trkpt lat="44.82300835178887" lon="9.556742375892357"><ele>669.6666666666666</ele><time>2026-05-03T14:45:48Z</time></trkpt><trkpt lat="44.82305596761349" lon="9.556831555630675"><ele>670.5</ele><time>2026-05-03T14:45:49Z</time></trkpt><trkpt lat="44.823125367457" lon="9.556887421545351"><ele>671.3333333333334</ele><time>2026-05-03T14:45:50Z</time></trkpt><trkpt lat="44.82318831118451" lon="9.556913108783553"><ele>672.1666666666667</ele><time>2026-05-03T14:45:51Z</time></trkpt><trkpt lat="44.823250741093446" lon="9.55696182056766"><ele>673.0</ele><time>2026-05-03T14:45:53Z</time></trkpt><trkpt lat="44.82330451002838" lon="9.557061826026471"><ele>673.0</ele><time>2026-05-03T14:45:56Z</time></trkpt><trkpt lat="44.82333108207039" lon="9.557153721669215"><ele>673.0</ele><time>2026-05-03T14:45:57Z</time></trkpt><trkpt lat="44.823348013324114" lon="9.557266871503511"><ele>673.0</ele><time>2026-05-03T14:45:58Z</time></trkpt><trkpt lat="44.823369437839176" lon="9.557384546662005"><ele>673.0</ele><time>2026-05-03T14:45:59Z</time></trkpt><trkpt lat="44.823415075335916" lon="9.55745000876633"><ele>673.0</ele><time>2026-05-03T14:46:00Z</time></trkpt><trkpt lat="44.82351414114756" lon="9.557484842710227"><ele>673.0</ele><time>2026-05-03T14:46:02Z</time></trkpt><trkpt lat="44.82359050007097" lon="9.557509626210162"><ele>674.0</ele><time>2026-05-03T14:46:05Z</time></trkpt><trkpt lat="44.82371134709756" lon="9.557482876259797"><ele>675.0</ele><time>2026-05-03T14:46:07Z</time></trkpt><trkpt lat="44.82378914460837" lon="9.557440509092626"><ele>676.0</ele><time>2026-05-03T14:46:09Z</time></trkpt><trkpt lat="44.823864665000656" lon="9.55738303702013"><ele>677.0</ele><time>2026-05-03T14:46:12Z</time></trkpt><trkpt lat="44.8239606098186" lon="9.557338404192924"><ele>678.0</ele><time>2026-05-03T14:46:14Z</time></trkpt><trkpt lat="44.824041431461644" lon="9.557290658406647"><ele>678.0</ele><time>2026-05-03T14:46:15Z</time></trkpt><trkpt lat="44.8241226982491" lon="9.557239007789954"><ele>678.0</ele><time>2026-05-03T14:46:16Z</time></trkpt><trkpt lat="44.82417276048927" lon="9.557176821257855"><ele>678.0</ele><time>2026-05-03T14:46:17Z</time></trkpt><trkpt lat="44.82422054362863" lon="9.556949238478216"><ele>678.0</ele><time>2026-05-03T14:46:19Z</time></trkpt><trkpt lat="44.824246036222846" lon="9.556745879068579"><ele>676.5</ele><time>2026-05-03T14:46:20Z</time></trkpt><trkpt lat="44.8242576421257" lon="9.556558799664376"><ele>675.0</ele><time>2026-05-03T14:46:21Z</time></trkpt><trkpt lat="44.82426354385038" lon="9.55644527870659"><ele>673.5</ele><time>2026-05-03T14:46:22Z</time></trkpt><trkpt lat="44.824333939695975" lon="9.556287088019143"><ele>672.0</ele><time>2026-05-03T14:46:23.999Z</time></trkpt><trkpt lat="44.82439752655137" lon="9.556156917740465"><ele>672.0</ele><time>2026-05-03T14:46:24.999Z</time></trkpt><trkpt lat="44.824447499289015" lon="9.55603337660952"><ele>672.0</ele><time>2026-05-03T14:46:25.999Z</time></trkpt><trkpt lat="44.824484355183" lon="9.555926888536696"><ele>672.0</ele><time>2026-05-03T14:46:26.999Z</time></trkpt><trkpt lat="44.82457741968476" lon="9.555852170282495"><ele>672.0</ele><time>2026-05-03T14:46:28.999Z</time></trkpt><trkpt lat="44.82465762759571" lon="9.555863775035514"><ele>672.0</ele><time>2026-05-03T14:46:29.999Z</time></trkpt><trkpt lat="44.82475164113731" lon="9.55584628197037"><ele>672.0</ele><time>2026-05-03T14:46:30.999Z</time></trkpt><trkpt lat="44.82486182094754" lon="9.555880936908107"><ele>672.0</ele><time>2026-05-03T14:46:31.999Z</time></trkpt><trkpt lat="44.82497412871377" lon="9.555884005659266"><ele>672.0</ele><time>2026-05-03T14:46:32.999Z</time></trkpt><trkpt lat="44.82507430099494" lon="9.555902385772367"><ele>672.0</ele><time>2026-05-03T14:46:33.999Z</time></trkpt><trkpt lat="44.825156030966944" lon="9.555933333649351"><ele>672.0</ele><time>2026-05-03T14:46:34.999Z</time></trkpt><trkpt lat="44.82525300282476" lon="9.55598720944605"><ele>670.6</ele><time>2026-05-03T14:46:35.999Z</time></trkpt><trkpt lat="44.82536764243375" lon="9.556019512197382"><ele>669.2</ele><time>2026-05-03T14:46:36.999Z</time></trkpt><trkpt lat="44.82545672202812" lon="9.556053039241968"><ele>667.8</ele><time>2026-05-03T14:46:37.999Z</time></trkpt><trkpt lat="44.825541891904344" lon="9.556066309967067"><ele>666.4</ele><time>2026-05-03T14:46:38.999Z</time></trkpt><trkpt lat="44.825623608698926" lon="9.556097170478404"><ele>665.0</ele><time>2026-05-03T14:46:39.999Z</time></trkpt><trkpt lat="44.82570696806982" lon="9.556110200548064"><ele>665.0</ele><time>2026-05-03T14:46:40.999Z</time></trkpt><trkpt lat="44.825764183539846" lon="9.556153773327306"><ele>665.0</ele><time>2026-05-03T14:46:41.999Z</time></trkpt><trkpt lat="44.8258549875769" lon="9.556275590216657"><ele>665.0</ele><time>2026-05-03T14:46:43.999Z</time></trkpt><trkpt lat="44.82590771079393" lon="9.556335268763064"><ele>665.0</ele><time>2026-05-03T14:46:44.999Z</time></trkpt><trkpt lat="44.82597368626136" lon="9.556369004356982"><ele>665.0</ele><time>2026-05-03T14:46:45.999Z</time></trkpt><trkpt lat="44.826057223980996" lon="9.556380729038434"><ele>665.0</ele><time>2026-05-03T14:46:46.999Z</time></trkpt><trkpt lat="44.82614794210153" lon="9.55632471466493"><ele>665.2857142857143</ele><time>2026-05-03T14:46:48.999Z</time></trkpt><trkpt lat="44.826214751507344" lon="9.556275863634987"><ele>665.5714285714286</ele><time>2026-05-03T14:46:49.999Z</time></trkpt><trkpt lat="44.826286707711645" lon="9.556233949746224"><ele>665.8571428571429</ele><time>2026-05-03T14:46:50.999Z</time></trkpt><trkpt lat="44.826353337080626" lon="9.55620961829622"><ele>666.1428571428571</ele><time>2026-05-03T14:46:51.999Z</time></trkpt><trkpt lat="44.826427312600345" lon="9.556198529775402"><ele>666.4285714285714</ele><time>2026-05-03T14:46:52.999Z</time></trkpt><trkpt lat="44.82649164556827" lon="9.556191957227782"><ele>666.7142857142858</ele><time>2026-05-03T14:46:53.999Z</time></trkpt><trkpt lat="44.826558965733874" lon="9.556175208158493"><ele>667.0</ele><time>2026-05-03T14:46:54.999Z</time></trkpt><trkpt lat="44.82662767379775" lon="9.556144862283356"><ele>667.0</ele><time>2026-05-03T14:46:55.999Z</time></trkpt><trkpt lat="44.82670765989746" lon="9.556112999943458"><ele>667.0</ele><time>2026-05-03T14:46:56.999Z</time></trkpt><trkpt lat="44.82678555732186" lon="9.55608068668107"><ele>667.0</ele><time>2026-05-03T14:46:58Z</time></trkpt><trkpt lat="44.82689688347943" lon="9.556042154411083"><ele>667.0</ele><time>2026-05-03T14:47:00Z</time></trkpt><trkpt lat="44.82696095859527" lon="9.556024118809129"><ele>667.0</ele><time>2026-05-03T14:47:01Z</time></trkpt><trkpt lat="44.827038412888065" lon="9.5560161553156"><ele>667.0</ele><time>2026-05-03T14:47:02Z</time></trkpt><trkpt lat="44.8271108830261" lon="9.556013777547072"><ele>667.7142857142858</ele><time>2026-05-03T14:47:03Z</time></trkpt><trkpt lat="44.82718418856456" lon="9.556000034421091"><ele>668.4285714285714</ele><time>2026-05-03T14:47:04Z</time></trkpt><trkpt lat="44.827266413747374" lon="9.555991657784121"><ele>669.1428571428571</ele><time>2026-05-03T14:47:05Z</time></trkpt><trkpt lat="44.82734884404554" lon="9.55598884250895"><ele>669.8571428571429</ele><time>2026-05-03T14:47:06Z</time></trkpt><trkpt lat="44.82741938594917" lon="9.555992856718879"><ele>670.5714285714286</ele><time>2026-05-03T14:47:07Z</time></trkpt><trkpt lat="44.82748320795864" lon="9.556016606956952"><ele>671.2857142857143</ele><time>2026-05-03T14:47:08Z</time></trkpt><trkpt lat="44.82755097044427" lon="9.556029548402334"><ele>672.0</ele><time>2026-05-03T14:47:09Z</time></trkpt><trkpt lat="44.82763016384911" lon="9.556054122274759"><ele>672.4000000000001</ele><time>2026-05-03T14:47:10Z</time></trkpt><trkpt lat="44.827717078240084" lon="9.55608361868597"><ele>672.8000000000001</ele><time>2026-05-03T14:47:11Z</time></trkpt><trkpt lat="44.82780932578958" lon="9.556104459203318"><ele>673.2</ele><time>2026-05-03T14:47:12Z</time></trkpt><trkpt lat="44.82793208542907" lon="9.556092269481784"><ele>673.6</ele><time>2026-05-03T14:47:13Z</time></trkpt><trkpt lat="44.82805016489322" lon="9.556062914795389"><ele>674.0</ele><time>2026-05-03T14:47:14Z</time></trkpt><trkpt lat="44.828122819388746" lon="9.55607213541671"><ele>674.0</ele><time>2026-05-03T14:47:15Z</time></trkpt><trkpt lat="44.828189522515395" lon="9.556092825054854"><ele>674.0</ele><time>2026-05-03T14:47:16Z</time></trkpt><trkpt lat="44.828274413467746" lon="9.556117773146262"><ele>674.0</ele><time>2026-05-03T14:47:17Z</time></trkpt><trkpt lat="44.82837896283917" lon="9.556095454659925"><ele>674.0</ele><time>2026-05-03T14:47:18Z</time></trkpt><trkpt lat="44.8284324590018" lon="9.55600991599271"><ele>674.0</ele><time>2026-05-03T14:47:24Z</time></trkpt><trkpt lat="44.828539899295556" lon="9.556038917753991"><ele>672.5</ele><time>2026-05-03T14:47:27Z</time></trkpt><trkpt lat="44.8285672911451" lon="9.556125859768011"><ele>671.0</ele><time>2026-05-03T14:47:30Z</time></trkpt><trkpt lat="44.82861888533841" lon="9.556244872451336"><ele>669.5</ele><time>2026-05-03T14:47:33Z</time></trkpt><trkpt lat="44.82870009965184" lon="9.5563633358635"><ele>668.0</ele><time>2026-05-03T14:47:35Z</time></trkpt><trkpt lat="44.828775467621476" lon="9.556447203389727"><ele>666.5</ele><time>2026-05-03T14:47:36Z</time></trkpt><trkpt lat="44.828830408341894" lon="9.556508563081257"><ele>665.0</ele><time>2026-05-03T14:47:37Z</time></trkpt><trkpt lat="44.8288807501415" lon="9.556620936702297"><ele>665.0</ele><time>2026-05-03T14:47:39Z</time></trkpt><trkpt lat="44.828909395399336" lon="9.556735786275759"><ele>665.0</ele><time>2026-05-03T14:47:40Z</time></trkpt><trkpt lat="44.828921703609396" lon="9.55687095007592"><ele>665.0</ele><time>2026-05-03T14:47:41Z</time></trkpt><trkpt lat="44.82893252748537" lon="9.55698911773465"><ele>665.0</ele><time>2026-05-03T14:47:42Z</time></trkpt><trkpt lat="44.828946607361445" lon="9.557084682307487"><ele>665.0</ele><time>2026-05-03T14:47:43Z</time></trkpt><trkpt lat="44.82894042988649" lon="9.557179338244804"><ele>665.0</ele><time>2026-05-03T14:47:44Z</time></trkpt><trkpt lat="44.82892433937436" lon="9.557270991456688"><ele>665.1666666666666</ele><time>2026-05-03T14:47:45Z</time></trkpt><trkpt lat="44.82893034315126" lon="9.557365244749512"><ele>665.3333333333333</ele><time>2026-05-03T14:47:48Z</time></trkpt><trkpt lat="44.82894329462008" lon="9.557454985712845"><ele>665.5</ele><time>2026-05-03T14:47:51Z</time></trkpt><trkpt lat="44.82895419399545" lon="9.557559961397178"><ele>665.6666666666666</ele><time>2026-05-03T14:47:55Z</time></trkpt><trkpt lat="44.828931471045124" lon="9.557660384255156"><ele>665.8333333333334</ele><time>2026-05-03T14:47:59Z</time></trkpt><trkpt lat="44.82894006670013" lon="9.557749329185663"><ele>666.0</ele><time>2026-05-03T14:48:01Z</time></trkpt><trkpt lat="44.82894168066158" lon="9.557902053336463"><ele>665.1999999999999</ele><time>2026-05-03T14:48:03Z</time></trkpt><trkpt lat="44.82890958901569" lon="9.558018184846663"><ele>664.4</ele><time>2026-05-03T14:48:05Z</time></trkpt><trkpt lat="44.82893272059597" lon="9.558193350989423"><ele>663.6</ele><time>2026-05-03T14:48:07Z</time></trkpt><trkpt lat="44.828952536627" lon="9.558366232275391"><ele>662.8</ele><time>2026-05-03T14:48:09Z</time></trkpt><trkpt lat="44.828953614304176" lon="9.558460743974381"><ele>662.0</ele><time>2026-05-03T14:48:10Z</time></trkpt><trkpt lat="44.828988517151004" lon="9.558578390673288"><ele>662.0</ele><time>2026-05-03T14:48:11Z</time></trkpt><trkpt lat="44.82901466932512" lon="9.558668931886599"><ele>662.0</ele><time>2026-05-03T14:48:12Z</time></trkpt><trkpt lat="44.82906918851968" lon="9.558787725445102"><ele>662.0</ele><time>2026-05-03T14:48:13Z</time></trkpt><trkpt lat="44.829115524339215" lon="9.558908345799662"><ele>662.0</ele><time>2026-05-03T14:48:14Z</time></trkpt><trkpt lat="44.82915144719642" lon="9.55898260835075"><ele>662.0</ele><time>2026-05-03T14:48:15Z</time></trkpt><trkpt lat="44.82922724287628" lon="9.559014743410977"><ele>662.0</ele><time>2026-05-03T14:48:16Z</time></trkpt><trkpt lat="44.8293017797056" lon="9.559085212427057"><ele>657.6</ele><time>2026-05-03T14:48:17Z</time></trkpt><trkpt lat="44.829366693812" lon="9.559156439154744"><ele>653.2</ele><time>2026-05-03T14:48:18Z</time></trkpt><trkpt lat="44.82943137505334" lon="9.559231015851164"><ele>648.8</ele><time>2026-05-03T14:48:19Z</time></trkpt><trkpt lat="44.8294954400447" lon="9.55938016763819"><ele>644.4</ele><time>2026-05-03T14:48:20.999Z</time></trkpt><trkpt lat="44.829578226993775" lon="9.55955723902747"><ele>640.0</ele><time>2026-05-03T14:48:22.999Z</time></trkpt><trkpt lat="44.82961549583283" lon="9.559725332705433"><ele>640.0</ele><time>2026-05-03T14:48:24.999Z</time></trkpt><trkpt lat="44.829648597689165" lon="9.559826497181387"><ele>640.0</ele><time>2026-05-03T14:48:25.999Z</time></trkpt><trkpt lat="44.829684762386684" lon="9.559917233879318"><ele>640.0</ele><time>2026-05-03T14:48:26.999Z</time></trkpt><trkpt lat="44.829679283372656" lon="9.560012444623586"><ele>640.0</ele><time>2026-05-03T14:48:27.999Z</time></trkpt><trkpt lat="44.82968118309467" lon="9.560142101702304"><ele>640.0</ele><time>2026-05-03T14:48:28.999Z</time></trkpt><trkpt lat="44.82969886946249" lon="9.560269766841719"><ele>640.0</ele><time>2026-05-03T14:48:29.999Z</time></trkpt><trkpt lat="44.82972145028085" lon="9.560380486397843"><ele>638.8</ele><time>2026-05-03T14:48:30.999Z</time></trkpt><trkpt lat="44.82974479993708" lon="9.560497227999242"><ele>637.6</ele><time>2026-05-03T14:48:31.999Z</time></trkpt><trkpt lat="44.829772300577034" lon="9.560608495398373"><ele>636.4</ele><time>2026-05-03T14:48:32.999Z</time></trkpt><trkpt lat="44.82980270478866" lon="9.560698538615489"><ele>635.2</ele><time>2026-05-03T14:48:33.999Z</time></trkpt><trkpt lat="44.82980720764613" lon="9.56088168273026"><ele>634.0</ele><time>2026-05-03T14:48:35.999Z</time></trkpt><trkpt lat="44.829813094345575" lon="9.561034344705613"><ele>634.0</ele><time>2026-05-03T14:48:36.999Z</time></trkpt><trkpt lat="44.82980950736541" lon="9.561165396775186"><ele>634.0</ele><time>2026-05-03T14:48:37.999Z</time></trkpt><trkpt lat="44.8297876060372" lon="9.561255351714383"><ele>634.0</ele><time>2026-05-03T14:48:38.999Z</time></trkpt><trkpt lat="44.82974741080379" lon="9.561351994952405"><ele>634.0</ele><time>2026-05-03T14:48:39.999Z</time></trkpt><trkpt lat="44.82972240939963" lon="9.561470042535515"><ele>634.0</ele><time>2026-05-03T14:48:40.999Z</time></trkpt><trkpt lat="44.82971275029148" lon="9.561572546294768"><ele>634.0</ele><time>2026-05-03T14:48:41.999Z</time></trkpt><trkpt lat="44.82969457843993" lon="9.561689989769143"><ele>633.6</ele><time>2026-05-03T14:48:42.999Z</time></trkpt><trkpt lat="44.829697646365275" lon="9.561780178707322"><ele>633.2</ele><time>2026-05-03T14:48:43.999Z</time></trkpt><trkpt lat="44.82973914846689" lon="9.561944500153555"><ele>632.8000000000001</ele><time>2026-05-03T14:48:45.999Z</time></trkpt><trkpt lat="44.82978674685696" lon="9.562053958338941"><ele>632.4</ele><time>2026-05-03T14:48:46.999Z</time></trkpt><trkpt lat="44.829826153869796" lon="9.562184483256384"><ele>632.0</ele><time>2026-05-03T14:48:47.999Z</time></trkpt><trkpt lat="44.82985894736789" lon="9.562284758942068"><ele>632.6666666666666</ele><time>2026-05-03T14:48:48.999Z</time></trkpt><trkpt lat="44.82989109023438" lon="9.562386608160054"><ele>633.3333333333333</ele><time>2026-05-03T14:48:49.999Z</time></trkpt><trkpt lat="44.82987439174445" lon="9.562501464681828"><ele>634.0</ele><time>2026-05-03T14:48:50.999Z</time></trkpt><trkpt lat="44.82982576133533" lon="9.562596988045383"><ele>634.6666666666666</ele><time>2026-05-03T14:48:51.999Z</time></trkpt><trkpt lat="44.829787239301986" lon="9.562773454001528"><ele>635.3333333333334</ele><time>2026-05-03T14:48:53.999Z</time></trkpt><trkpt lat="44.82979901661257" lon="9.562870075783817"><ele>636.0</ele><time>2026-05-03T14:48:54.999Z</time></trkpt><trkpt lat="44.8298612055037" lon="9.562973942369224"><ele>636.0</ele><time>2026-05-03T14:48:56.999Z</time></trkpt><trkpt lat="44.829908893300434" lon="9.563040186813891"><ele>636.0</ele><time>2026-05-03T14:48:57.999Z</time></trkpt><trkpt lat="44.829964759333905" lon="9.563121580397583"><ele>636.0</ele><time>2026-05-03T14:48:58.999Z</time></trkpt><trkpt lat="44.83001623554281" lon="9.563202554850914"><ele>636.0</ele><time>2026-05-03T14:48:59.999Z</time></trkpt><trkpt lat="44.83008939053937" lon="9.563309113624761"><ele>636.0</ele><time>2026-05-03T14:49:01.999Z</time></trkpt><trkpt lat="44.83017466587253" lon="9.563406968274025"><ele>636.0</ele><time>2026-05-03T14:49:04Z</time></trkpt><trkpt lat="44.83023115509208" lon="9.563512653952456"><ele>635.8</ele><time>2026-05-03T14:49:06Z</time></trkpt><trkpt lat="44.8303159091703" lon="9.563597587922986"><ele>635.6</ele><time>2026-05-03T14:49:08Z</time></trkpt><trkpt lat="44.83040679376249" lon="9.563681156379696"><ele>635.4</ele><time>2026-05-03T14:49:10Z</time></trkpt><trkpt lat="44.83043418586673" lon="9.563772301548887"><ele>635.2</ele><time>2026-05-03T14:49:11Z</time></trkpt><trkpt lat="44.830454307972396" lon="9.563884204840209"><ele>635.0</ele><time>2026-05-03T14:49:12Z</time></trkpt><trkpt lat="44.830503446194975" lon="9.563985349884659"><ele>636.4</ele><time>2026-05-03T14:49:13Z</time></trkpt><trkpt lat="44.83056165083706" lon="9.564080775908888"><ele>637.8</ele><time>2026-05-03T14:49:14Z</time></trkpt><trkpt lat="44.830638422484846" lon="9.564213215495169"><ele>639.2</ele><time>2026-05-03T14:49:16Z</time></trkpt><trkpt lat="44.83070798001107" lon="9.564268289810832"><ele>640.6</ele><time>2026-05-03T14:49:17Z</time></trkpt><trkpt lat="44.83077109287288" lon="9.564292041051061"><ele>642.0</ele><time>2026-05-03T14:49:18Z</time></trkpt><trkpt lat="44.83085115987631" lon="9.564361991976751"><ele>642.0</ele><time>2026-05-03T14:49:19Z</time></trkpt><trkpt lat="44.83092297069257" lon="9.564409784226767"><ele>642.0</ele><time>2026-05-03T14:49:20Z</time></trkpt><trkpt lat="44.831005335606335" lon="9.564472744355264"><ele>642.0</ele><time>2026-05-03T14:49:21Z</time></trkpt><trkpt lat="44.83109674730778" lon="9.56453961102569"><ele>642.0</ele><time>2026-05-03T14:49:23Z</time></trkpt><trkpt lat="44.83115683287803" lon="9.564628761759462"><ele>642.0</ele><time>2026-05-03T14:49:25Z</time></trkpt><trkpt lat="44.83120652867389" lon="9.564699238889451"><ele>642.0</ele><time>2026-05-03T14:49:26Z</time></trkpt><trkpt lat="44.83124291097936" lon="9.564771952263508"><ele>642.0</ele><time>2026-05-03T14:49:27Z</time></trkpt><trkpt lat="44.831343840941436" lon="9.564775273173135"><ele>642.0</ele><time>2026-05-03T14:49:29Z</time></trkpt><trkpt lat="44.831467979212505" lon="9.564803932182134"><ele>642.0</ele><time>2026-05-03T14:49:31Z</time></trkpt><trkpt lat="44.831577522752255" lon="9.564897394761786"><ele>642.0</ele><time>2026-05-03T14:49:33Z</time></trkpt><trkpt lat="44.83163500503961" lon="9.564947354559216"><ele>642.0</ele><time>2026-05-03T14:49:34Z</time></trkpt><trkpt lat="44.8317006923996" lon="9.565004784540358"><ele>642.0</ele><time>2026-05-03T14:49:35Z</time></trkpt><trkpt lat="44.83176901937405" lon="9.56504393319523"><ele>642.0</ele><time>2026-05-03T14:49:36Z</time></trkpt><trkpt lat="44.83183554482667" lon="9.565051591940442"><ele>642.0</ele><time>2026-05-03T14:49:37Z</time></trkpt><trkpt lat="44.83190756781601" lon="9.565048360354803"><ele>642.0</ele><time>2026-05-03T14:49:38Z</time></trkpt><trkpt lat="44.83202232417763" lon="9.565024089013582"><ele>642.0</ele><time>2026-05-03T14:49:40Z</time></trkpt><trkpt lat="44.83208986875605" lon="9.56504151590375"><ele>642.0</ele><time>2026-05-03T14:49:41Z</time></trkpt><trkpt lat="44.83218904718768" lon="9.565087682931935"><ele>639.4</ele><time>2026-05-03T14:49:43Z</time></trkpt><trkpt lat="44.83229341120688" lon="9.565093259142836"><ele>636.8000000000001</ele><time>2026-05-03T14:49:45Z</time></trkpt><trkpt lat="44.83240925859207" lon="9.565082855820117"><ele>634.2</ele><time>2026-05-03T14:49:47Z</time></trkpt><trkpt lat="44.83248046680912" lon="9.565061107759284"><ele>631.6</ele><time>2026-05-03T14:49:48Z</time></trkpt><trkpt lat="44.832566101709425" lon="9.565010910449478"><ele>629.0</ele><time>2026-05-03T14:49:49Z</time></trkpt><trkpt lat="44.83260788524546" lon="9.564933228223905"><ele>623.75</ele><time>2026-05-03T14:49:50Z</time></trkpt><trkpt lat="44.83267625186384" lon="9.564822650459787"><ele>618.5</ele><time>2026-05-03T14:49:52Z</time></trkpt><trkpt lat="44.83275304081791" lon="9.564718992249942"><ele>613.25</ele><time>2026-05-03T14:49:54Z</time></trkpt><trkpt lat="44.83285423906849" lon="9.56461728309747"><ele>608.0</ele><time>2026-05-03T14:49:56Z</time></trkpt><trkpt lat="44.83295692023127" lon="9.564539379831215"><ele>608.0</ele><time>2026-05-03T14:49:58Z</time></trkpt><trkpt lat="44.83307040496523" lon="9.564638139869704"><ele>608.0</ele><time>2026-05-03T14:50:00Z</time></trkpt><trkpt lat="44.833197982983066" lon="9.564664284578184"><ele>608.0</ele><time>2026-05-03T14:50:02Z</time></trkpt><trkpt lat="44.833307373024844" lon="9.56467991480966"><ele>608.0</ele><time>2026-05-03T14:50:04Z</time></trkpt><trkpt lat="44.833380256568724" lon="9.564673623232563"><ele>608.0</ele><time>2026-05-03T14:50:05Z</time></trkpt><trkpt lat="44.833445935277545" lon="9.564628184907086"><ele>604.5</ele><time>2026-05-03T14:50:06Z</time></trkpt><trkpt lat="44.83352745356593" lon="9.564542331709829"><ele>601.0</ele><time>2026-05-03T14:50:08Z</time></trkpt><trkpt lat="44.833585239309855" lon="9.564445738533458"><ele>597.5</ele><time>2026-05-03T14:50:10Z</time></trkpt><trkpt lat="44.833620611250375" lon="9.564356190139145"><ele>594.0</ele><time>2026-05-03T14:50:12Z</time></trkpt><trkpt lat="44.833637928172195" lon="9.564267576570014"><ele>590.5</ele><time>2026-05-03T14:50:14Z</time></trkpt><trkpt lat="44.83365024877172" lon="9.564175118203526"><ele>587.0</ele><time>2026-05-03T14:50:17Z</time></trkpt><trkpt lat="44.83364245310966" lon="9.564059065596288"><ele>587.0</ele><time>2026-05-03T14:50:19Z</time></trkpt><trkpt lat="44.83362185077604" lon="9.563957219171591"><ele>587.0</ele><time>2026-05-03T14:50:21Z</time></trkpt><trkpt lat="44.83360603806597" lon="9.563821334938746"><ele>587.0</ele><time>2026-05-03T14:50:23Z</time></trkpt><trkpt lat="44.83364267197174" lon="9.563720281136975"><ele>587.0</ele><time>2026-05-03T14:50:25Z</time></trkpt><trkpt lat="44.83370718746992" lon="9.563706002688322"><ele>587.0</ele><time>2026-05-03T14:50:27Z</time></trkpt><trkpt lat="44.83376844588364" lon="9.563792846980839"><ele>587.0</ele><time>2026-05-03T14:50:28.999Z</time></trkpt><trkpt lat="44.833876176898514" lon="9.563880269407047"><ele>587.0</ele><time>2026-05-03T14:50:30.999Z</time></trkpt><trkpt lat="44.83402448655382" lon="9.563925518613294"><ele>587.0</ele><time>2026-05-03T14:50:32.999Z</time></trkpt><trkpt lat="44.834131547799984" lon="9.563959864001056"><ele>587.0</ele><time>2026-05-03T14:50:33.999Z</time></trkpt><trkpt lat="44.834222060657034" lon="9.563987728477088"><ele>587.0</ele><time>2026-05-03T14:50:34.999Z</time></trkpt><trkpt lat="44.834301393164814" lon="9.563988542666415"><ele>587.0</ele><time>2026-05-03T14:50:35.999Z</time></trkpt><trkpt lat="44.83438074154934" lon="9.563946525548536"><ele>583.2857142857143</ele><time>2026-05-03T14:50:36.999Z</time></trkpt><trkpt lat="44.834451387778465" lon="9.563976362330557"><ele>579.5714285714287</ele><time>2026-05-03T14:50:37.999Z</time></trkpt><trkpt lat="44.83449699309173" lon="9.564057848404898"><ele>575.8571428571429</ele><time>2026-05-03T14:50:38.999Z</time></trkpt><trkpt lat="44.83454735116157" lon="9.564130803414042"><ele>572.1428571428571</ele><time>2026-05-03T14:50:39.999Z</time></trkpt><trkpt lat="44.834608920099264" lon="9.564198370837754"><ele>568.4285714285713</ele><time>2026-05-03T14:50:40.999Z</time></trkpt><trkpt lat="44.83466991132787" lon="9.564275710819278"><ele>564.7142857142857</ele><time>2026-05-03T14:50:41.999Z</time></trkpt><trkpt lat="44.83471267877346" lon="9.564344196288728"><ele>561.0</ele><time>2026-05-03T14:50:42.999Z</time></trkpt><trkpt lat="44.83474763099664" lon="9.56443381109664"><ele>561.0</ele><time>2026-05-03T14:50:43.999Z</time></trkpt><trkpt lat="44.834786319926636" lon="9.564513737693302"><ele>561.0</ele><time>2026-05-03T14:50:44.999Z</time></trkpt><trkpt lat="44.83484142335555" lon="9.564590506891179"><ele>561.0</ele><time>2026-05-03T14:50:45.999Z</time></trkpt><trkpt lat="44.83490630041081" lon="9.564692067119514"><ele>561.0</ele><time>2026-05-03T14:50:46.999Z</time></trkpt><trkpt lat="44.83498585306262" lon="9.564772296074"><ele>561.0</ele><time>2026-05-03T14:50:47.999Z</time></trkpt><trkpt lat="44.835101076069535" lon="9.564881952221304"><ele>558.5</ele><time>2026-05-03T14:50:49.999Z</time></trkpt><trkpt lat="44.83517952918293" lon="9.564888085061206"><ele>556.0</ele><time>2026-05-03T14:50:50.999Z</time></trkpt><trkpt lat="44.83526502572353" lon="9.56487626489961"><ele>553.5</ele><time>2026-05-03T14:50:51.999Z</time></trkpt><trkpt lat="44.83536973137698" lon="9.564893379891867"><ele>551.0</ele><time>2026-05-03T14:50:52.999Z</time></trkpt><trkpt lat="44.835468287020994" lon="9.564923479189087"><ele>548.5</ele><time>2026-05-03T14:50:53.999Z</time></trkpt><trkpt lat="44.835537598662505" lon="9.564955907730457"><ele>546.0</ele><time>2026-05-03T14:50:54.999Z</time></trkpt><trkpt lat="44.835688625602884" lon="9.564885248197045"><ele>546.0</ele><time>2026-05-03T14:50:56.999Z</time></trkpt><trkpt lat="44.835769658367894" lon="9.56480963416314"><ele>546.0</ele><time>2026-05-03T14:50:57.999Z</time></trkpt><trkpt lat="44.83585294130998" lon="9.56477114894887"><ele>546.0</ele><time>2026-05-03T14:50:58.999Z</time></trkpt><trkpt lat="44.83595286289208" lon="9.564750311257013"><ele>546.0</ele><time>2026-05-03T14:50:59.999Z</time></trkpt><trkpt lat="44.83603116835767" lon="9.564757058834447"><ele>546.0</ele><time>2026-05-03T14:51:00.999Z</time></trkpt><trkpt lat="44.83609545483687" lon="9.564766767344917"><ele>546.0</ele><time>2026-05-03T14:51:01.999Z</time></trkpt><trkpt lat="44.836219899275164" lon="9.564774806718866"><ele>545.6</ele><time>2026-05-03T14:51:03.999Z</time></trkpt><trkpt lat="44.83630516583798" lon="9.564791565955025"><ele>545.2</ele><time>2026-05-03T14:51:04.999Z</time></trkpt><trkpt lat="44.83640130341744" lon="9.564815326238733"><ele>544.8</ele><time>2026-05-03T14:51:05.999Z</time></trkpt><trkpt lat="44.83650942676836" lon="9.564845413366015"><ele>544.4</ele><time>2026-05-03T14:51:06.999Z</time></trkpt><trkpt lat="44.83662825407821" lon="9.564864249373736"><ele>544.0</ele><time>2026-05-03T14:51:07.999Z</time></trkpt><trkpt lat="44.836742560876786" lon="9.564870916716416"><ele>545.0</ele><time>2026-05-03T14:51:08.999Z</time></trkpt><trkpt lat="44.83684826791752" lon="9.564869481086712"><ele>546.0</ele><time>2026-05-03T14:51:10Z</time></trkpt><trkpt lat="44.83694430777289" lon="9.564875879250854"><ele>547.0</ele><time>2026-05-03T14:51:11Z</time></trkpt><trkpt lat="44.83703393008392" lon="9.564899632927533"><ele>548.0</ele><time>2026-05-03T14:51:12Z</time></trkpt><trkpt lat="44.837123994212185" lon="9.564933525328623"><ele>549.0</ele><time>2026-05-03T14:51:13Z</time></trkpt><trkpt lat="44.837192566287555" lon="9.564978851593908"><ele>549.0</ele><time>2026-05-03T14:51:14Z</time></trkpt><trkpt lat="44.83726775063727" lon="9.56501181102859"><ele>549.0</ele><time>2026-05-03T14:51:15Z</time></trkpt><trkpt lat="44.83736799720493" lon="9.565023003974883"><ele>549.0</ele><time>2026-05-03T14:51:16Z</time></trkpt><trkpt lat="44.8374726037084" lon="9.565011033294564"><ele>549.0</ele><time>2026-05-03T14:51:17Z</time></trkpt><trkpt lat="44.837587268412754" lon="9.564969454009198"><ele>549.0</ele><time>2026-05-03T14:51:18Z</time></trkpt><trkpt lat="44.83768864721102" lon="9.56492557988611"><ele>547.4</ele><time>2026-05-03T14:51:19Z</time></trkpt><trkpt lat="44.83776591314539" lon="9.564886688750423"><ele>545.8</ele><time>2026-05-03T14:51:20Z</time></trkpt><trkpt lat="44.83786411982453" lon="9.564842614719831"><ele>544.2</ele><time>2026-05-03T14:51:21Z</time></trkpt><trkpt lat="44.83796065447746" lon="9.564792350606181"><ele>542.6</ele><time>2026-05-03T14:51:22Z</time></trkpt><trkpt lat="44.83805193635141" lon="9.564751993267219"><ele>541.0</ele><time>2026-05-03T14:51:23Z</time></trkpt><trkpt lat="44.83813384600481" lon="9.564740897114447"><ele>541.0</ele><time>2026-05-03T14:51:24Z</time></trkpt><trkpt lat="44.83821771804267" lon="9.564743685026997"><ele>541.0</ele><time>2026-05-03T14:51:25Z</time></trkpt><trkpt lat="44.83829372587195" lon="9.564742626100838"><ele>541.0</ele><time>2026-05-03T14:51:26Z</time></trkpt><trkpt lat="44.83837320488599" lon="9.564714820110805"><ele>541.0</ele><time>2026-05-03T14:51:27Z</time></trkpt><trkpt lat="44.83844064348031" lon="9.564662486990121"><ele>541.0</ele><time>2026-05-03T14:51:28Z</time></trkpt><trkpt lat="44.83851204181639" lon="9.5646000770996"><ele>541.0</ele><time>2026-05-03T14:51:29Z</time></trkpt><trkpt lat="44.83857866995947" lon="9.564551960372786"><ele>538.7142857142858</ele><time>2026-05-03T14:51:30Z</time></trkpt><trkpt lat="44.83864287204476" lon="9.564510691579532"><ele>536.4285714285714</ele><time>2026-05-03T14:51:31Z</time></trkpt><trkpt lat="44.838711286672705" lon="9.564475143668943"><ele>534.1428571428571</ele><time>2026-05-03T14:51:32Z</time></trkpt><trkpt lat="44.83878102980106" lon="9.564434015955353"><ele>531.8571428571429</ele><time>2026-05-03T14:51:33Z</time></trkpt><trkpt lat="44.838841511716815" lon="9.56435575287897"><ele>529.5714285714286</ele><time>2026-05-03T14:51:34Z</time></trkpt><trkpt lat="44.838885971121464" lon="9.564280186510807"><ele>527.2857142857143</ele><time>2026-05-03T14:51:35Z</time></trkpt><trkpt lat="44.838930229519754" lon="9.564195900815658"><ele>525.0</ele><time>2026-05-03T14:51:36Z</time></trkpt><trkpt lat="44.83897150917721" lon="9.564100976848428"><ele>525.0</ele><time>2026-05-03T14:51:37Z</time></trkpt><trkpt lat="44.83902095070999" lon="9.563992239147856"><ele>525.0</ele><time>2026-05-03T14:51:38Z</time></trkpt><trkpt lat="44.83909599941899" lon="9.563927930316193"><ele>525.0</ele><time>2026-05-03T14:51:40Z</time></trkpt><trkpt lat="44.83915897395011" lon="9.563961188805532"><ele>525.0</ele><time>2026-05-03T14:51:41Z</time></trkpt><trkpt lat="44.839234058376" lon="9.563963193232839"><ele>525.0</ele><time>2026-05-03T14:51:42Z</time></trkpt><trkpt lat="44.83931082524726" lon="9.563938998052821"><ele>525.0</ele><time>2026-05-03T14:51:43Z</time></trkpt><trkpt lat="44.83937904312589" lon="9.563958855143813"><ele>521.5</ele><time>2026-05-03T14:51:44Z</time></trkpt><trkpt lat="44.839445807678096" lon="9.563955481595423"><ele>518.0</ele><time>2026-05-03T14:51:45Z</time></trkpt><trkpt lat="44.83952044354958" lon="9.563924448014108"><ele>514.5</ele><time>2026-05-03T14:51:46Z</time></trkpt><trkpt lat="44.8395997810632" lon="9.563909748433305"><ele>511.0</ele><time>2026-05-03T14:51:47Z</time></trkpt><trkpt lat="44.83967914390046" lon="9.563877504782244"><ele>507.5</ele><time>2026-05-03T14:51:48Z</time></trkpt><trkpt lat="44.83975030366589" lon="9.563830607793214"><ele>504.0</ele><time>2026-05-03T14:51:49Z</time></trkpt><trkpt lat="44.839821479143836" lon="9.56377162736758"><ele>504.0</ele><time>2026-05-03T14:51:50Z</time></trkpt><trkpt lat="44.839886761685136" lon="9.56370843094026"><ele>504.0</ele><time>2026-05-03T14:51:51Z</time></trkpt><trkpt lat="44.839944735143646" lon="9.563640472158486"><ele>504.0</ele><time>2026-05-03T14:51:52Z</time></trkpt><trkpt lat="44.84000771364967" lon="9.563568125750104"><ele>504.0</ele><time>2026-05-03T14:51:53Z</time></trkpt><trkpt lat="44.840054232338545" lon="9.563501420145885"><ele>504.0</ele><time>2026-05-03T14:51:54Z</time></trkpt><trkpt lat="44.84010337309733" lon="9.563435305827808"><ele>504.0</ele><time>2026-05-03T14:51:55Z</time></trkpt><trkpt lat="44.84014631613868" lon="9.563368351148204"><ele>504.0</ele><time>2026-05-03T14:51:56Z</time></trkpt><trkpt lat="44.84020672987338" lon="9.56330238879417"><ele>504.0</ele><time>2026-05-03T14:51:58Z</time></trkpt><trkpt lat="44.84020811691429" lon="9.563405004418343"><ele>504.0</ele><time>2026-05-03T14:52:02Z</time></trkpt><trkpt lat="44.840181151071995" lon="9.563532456678677"><ele>504.0</ele><time>2026-05-03T14:52:03Z</time></trkpt><trkpt lat="44.840143443839374" lon="9.563703367086744"><ele>504.0</ele><time>2026-05-03T14:52:04Z</time></trkpt><trkpt lat="44.840105546067605" lon="9.563871291955694"><ele>504.0</ele><time>2026-05-03T14:52:05Z</time></trkpt><trkpt lat="44.84006516100088" lon="9.564049260302593"><ele>504.0</ele><time>2026-05-03T14:52:06Z</time></trkpt><trkpt lat="44.840022741637576" lon="9.564234975294708"><ele>504.0</ele><time>2026-05-03T14:52:07Z</time></trkpt><trkpt lat="44.839980885197726" lon="9.564399303587608"><ele>504.0</ele><time>2026-05-03T14:52:08Z</time></trkpt><trkpt lat="44.83993670986654" lon="9.564539695705463"><ele>504.0</ele><time>2026-05-03T14:52:09Z</time></trkpt><trkpt lat="44.83989077209373" lon="9.564654451497576"><ele>503.0</ele><time>2026-05-03T14:52:10Z</time></trkpt><trkpt lat="44.83983939501087" lon="9.564744556424513"><ele>502.0</ele><time>2026-05-03T14:52:11Z</time></trkpt><trkpt lat="44.839790122308635" lon="9.564830289424899"><ele>501.0</ele><time>2026-05-03T14:52:12Z</time></trkpt><trkpt lat="44.83969770892383" lon="9.564882641328955"><ele>500.0</ele><time>2026-05-03T14:52:13Z</time></trkpt><trkpt lat="44.83961953802531" lon="9.564953296672037"><ele>499.0</ele><time>2026-05-03T14:52:14Z</time></trkpt><trkpt lat="44.83956579645199" lon="9.565029202096833"><ele>498.0</ele><time>2026-05-03T14:52:15Z</time></trkpt><trkpt lat="44.83955771530365" lon="9.565118897340072"><ele>498.0</ele><time>2026-05-03T14:52:16Z</time></trkpt><trkpt lat="44.83957559726951" lon="9.565209706220609"><ele>498.0</ele><time>2026-05-03T14:52:17Z</time></trkpt><trkpt lat="44.83963252236465" lon="9.565274792134899"><ele>498.0</ele><time>2026-05-03T14:52:18Z</time></trkpt><trkpt lat="44.839642992239604" lon="9.565377324279774"><ele>498.0</ele><time>2026-05-03T14:52:19Z</time></trkpt><trkpt lat="44.83965581842902" lon="9.565523333522952"><ele>498.0</ele><time>2026-05-03T14:52:20Z</time></trkpt><trkpt lat="44.8396416463095" lon="9.565667760661237"><ele>498.0</ele><time>2026-05-03T14:52:21Z</time></trkpt><trkpt lat="44.83960823898635" lon="9.565783829007406"><ele>497.0</ele><time>2026-05-03T14:52:22Z</time></trkpt><trkpt lat="44.83955886279542" lon="9.565861133304177"><ele>496.0</ele><time>2026-05-03T14:52:23Z</time></trkpt><trkpt lat="44.839508843003166" lon="9.565929495473252"><ele>495.0</ele><time>2026-05-03T14:52:24Z</time></trkpt><trkpt lat="44.83945917785912" lon="9.565988964330248"><ele>494.0</ele><time>2026-05-03T14:52:25Z</time></trkpt><trkpt lat="44.83939462966791" lon="9.566034579550776"><ele>493.0</ele><time>2026-05-03T14:52:26Z</time></trkpt><trkpt lat="44.83931725264378" lon="9.566096645147153"><ele>492.0</ele><time>2026-05-03T14:52:27Z</time></trkpt><trkpt lat="44.83923262897187" lon="9.566157025750405"><ele>493.0</ele><time>2026-05-03T14:52:28Z</time></trkpt><trkpt lat="44.839155671300965" lon="9.566208567086035"><ele>494.00000000000006</ele><time>2026-05-03T14:52:29Z</time></trkpt><trkpt lat="44.83912622564851" lon="9.566336698586191"><ele>495.00000000000006</ele><time>2026-05-03T14:52:30Z</time></trkpt><trkpt lat="44.83913401599965" lon="9.566500871277043"><ele>496.0</ele><time>2026-05-03T14:52:31Z</time></trkpt><trkpt lat="44.83909741121928" lon="9.566621005685306"><ele>497.0</ele><time>2026-05-03T14:52:32Z</time></trkpt><trkpt lat="44.83903818793131" lon="9.56668356372776"><ele>497.0</ele><time>2026-05-03T14:52:33Z</time></trkpt><trkpt lat="44.83896754603539" lon="9.566722743118197"><ele>497.00000000000006</ele><time>2026-05-03T14:52:34Z</time></trkpt><trkpt lat="44.838874731740795" lon="9.566763118188748"><ele>497.00000000000006</ele><time>2026-05-03T14:52:35Z</time></trkpt><trkpt lat="44.83878315413457" lon="9.566863827465564"><ele>497.0</ele><time>2026-05-03T14:52:36Z</time></trkpt><trkpt lat="44.83872158807464" lon="9.566983908159603"><ele>497.0</ele><time>2026-05-03T14:52:36.999Z</time></trkpt><trkpt lat="44.838659356012975" lon="9.567096618945534"><ele>497.6</ele><time>2026-05-03T14:52:37.999Z</time></trkpt><trkpt lat="44.83862562697089" lon="9.567220316550799"><ele>498.20000000000005</ele><time>2026-05-03T14:52:38.999Z</time></trkpt><trkpt lat="44.83861587189585" lon="9.567363593741263"><ele>498.8</ele><time>2026-05-03T14:52:39.999Z</time></trkpt><trkpt lat="44.838621754503436" lon="9.56750598030591"><ele>499.4</ele><time>2026-05-03T14:52:40.999Z</time></trkpt><trkpt lat="44.83864230303642" lon="9.567629082126858"><ele>500.0</ele><time>2026-05-03T14:52:41.999Z</time></trkpt><trkpt lat="44.838660239993004" lon="9.56772646400684"><ele>500.0</ele><time>2026-05-03T14:52:42.999Z</time></trkpt><trkpt lat="44.83880133875353" lon="9.567783650444605"><ele>500.0</ele><time>2026-05-03T14:52:43.999Z</time></trkpt><trkpt lat="44.83887599129144" lon="9.567852002957983"><ele>500.0</ele><time>2026-05-03T14:52:44.999Z</time></trkpt><trkpt lat="44.83895372288222" lon="9.567909770893637"><ele>500.0</ele><time>2026-05-03T14:52:45.999Z</time></trkpt><trkpt lat="44.83902886335311" lon="9.567955422254663"><ele>500.0</ele><time>2026-05-03T14:52:46.999Z</time></trkpt><trkpt lat="44.83909272992154" lon="9.568019803952925"><ele>502.2</ele><time>2026-05-03T14:52:47.999Z</time></trkpt><trkpt lat="44.839171785370894" lon="9.568075774797924"><ele>504.4</ele><time>2026-05-03T14:52:48.999Z</time></trkpt><trkpt lat="44.83924316548865" lon="9.568152524662418"><ele>506.6</ele><time>2026-05-03T14:52:49.999Z</time></trkpt><trkpt lat="44.83930503559762" lon="9.568260759377967"><ele>508.8</ele><time>2026-05-03T14:52:50.999Z</time></trkpt><trkpt lat="44.83938972629187" lon="9.568361075932996"><ele>511.0</ele><time>2026-05-03T14:52:51.999Z</time></trkpt><trkpt lat="44.83947602855569" lon="9.568449717584658"><ele>511.0</ele><time>2026-05-03T14:52:52.999Z</time></trkpt><trkpt lat="44.83955013806523" lon="9.568552415744843"><ele>511.0</ele><time>2026-05-03T14:52:53.999Z</time></trkpt><trkpt lat="44.839631554288" lon="9.56864062583825"><ele>511.0</ele><time>2026-05-03T14:52:54.999Z</time></trkpt><trkpt lat="44.83968846468205" lon="9.568733519448937"><ele>511.0</ele><time>2026-05-03T14:52:55.999Z</time></trkpt><trkpt lat="44.83976371197597" lon="9.568806445117309"><ele>511.0</ele><time>2026-05-03T14:52:56.999Z</time></trkpt><trkpt lat="44.839843756453575" lon="9.568886447945207"><ele>514.25</ele><time>2026-05-03T14:52:57.999Z</time></trkpt><trkpt lat="44.83995289223712" lon="9.56891823685284"><ele>517.5</ele><time>2026-05-03T14:52:58.999Z</time></trkpt><trkpt lat="44.840076125105334" lon="9.568919395616868"><ele>520.75</ele><time>2026-05-03T14:52:59.999Z</time></trkpt><trkpt lat="44.840199293419424" lon="9.568912705942678"><ele>524.0</ele><time>2026-05-03T14:53:00.999Z</time></trkpt><trkpt lat="44.84033754494385" lon="9.568897722780518"><ele>524.0</ele><time>2026-05-03T14:53:01.999Z</time></trkpt><trkpt lat="44.840473966674274" lon="9.568842983916454"><ele>524.0</ele><time>2026-05-03T14:53:02.999Z</time></trkpt><trkpt lat="44.84058500093176" lon="9.568839303512354"><ele>524.0</ele><time>2026-05-03T14:53:03.999Z</time></trkpt><trkpt lat="44.84067276054223" lon="9.568882144923233"><ele>524.0</ele><time>2026-05-03T14:53:04.999Z</time></trkpt><trkpt lat="44.84076576173789" lon="9.568918355650682"><ele>524.0</ele><time>2026-05-03T14:53:05.999Z</time></trkpt><trkpt lat="44.8408460788199" lon="9.568960723688566"><ele>524.0</ele><time>2026-05-03T14:53:06.999Z</time></trkpt><trkpt lat="44.84092973899465" lon="9.568994658560845"><ele>524.0</ele><time>2026-05-03T14:53:07.999Z</time></trkpt><trkpt lat="44.840991291797984" lon="9.56906398639409"><ele>524.0</ele><time>2026-05-03T14:53:08.999Z</time></trkpt><trkpt lat="44.84101438185324" lon="9.569211783026836"><ele>524.0</ele><time>2026-05-03T14:53:10.999Z</time></trkpt><trkpt lat="44.84099148263549" lon="9.569299528575018"><ele>524.0</ele><time>2026-05-03T14:53:11.999Z</time></trkpt><trkpt lat="44.84094408488699" lon="9.569413744252788"><ele>524.0</ele><time>2026-05-03T14:53:12.999Z</time></trkpt><trkpt lat="44.84093529097076" lon="9.569524471679431"><ele>522.2</ele><time>2026-05-03T14:53:13.999Z</time></trkpt><trkpt lat="44.84101614695068" lon="9.569614944600364"><ele>520.4</ele><time>2026-05-03T14:53:16Z</time></trkpt><trkpt lat="44.841094968810594" lon="9.569612223729429"><ele>518.6</ele><time>2026-05-03T14:53:17Z</time></trkpt><trkpt lat="44.84120326652873" lon="9.569617159919229"><ele>516.8</ele><time>2026-05-03T14:53:18Z</time></trkpt><trkpt lat="44.84132534518609" lon="9.569677721434557"><ele>515.0</ele><time>2026-05-03T14:53:19Z</time></trkpt><trkpt lat="44.84141607006236" lon="9.569689039074698"><ele>515.0</ele><time>2026-05-03T14:53:20Z</time></trkpt><trkpt lat="44.84148391721556" lon="9.569712190353576"><ele>515.0</ele><time>2026-05-03T14:53:21Z</time></trkpt><trkpt lat="44.841588686618564" lon="9.56968809023689"><ele>515.0</ele><time>2026-05-03T14:53:22Z</time></trkpt><trkpt lat="44.84169826773964" lon="9.569742231488174"><ele>515.0</ele><time>2026-05-03T14:53:23Z</time></trkpt><trkpt lat="44.84182016906987" lon="9.569769375304746"><ele>515.0</ele><time>2026-05-03T14:53:24Z</time></trkpt><trkpt lat="44.841926939474135" lon="9.569803670265582"><ele>513.0</ele><time>2026-05-03T14:53:25Z</time></trkpt><trkpt lat="44.84202075595478" lon="9.569818574661339"><ele>511.0</ele><time>2026-05-03T14:53:26Z</time></trkpt><trkpt lat="44.842110632827314" lon="9.569781995467004"><ele>509.0</ele><time>2026-05-03T14:53:27Z</time></trkpt><trkpt lat="44.84219317794723" lon="9.569739721567132"><ele>507.0</ele><time>2026-05-03T14:53:28Z</time></trkpt><trkpt lat="44.84227716445705" lon="9.56970956614934"><ele>504.99999999999994</ele><time>2026-05-03T14:53:29Z</time></trkpt><trkpt lat="44.84235078001556" lon="9.56965383753883"><ele>503.0</ele><time>2026-05-03T14:53:30Z</time></trkpt><trkpt lat="44.842390172760254" lon="9.5695470873859"><ele>502.99999999999994</ele><time>2026-05-03T14:53:31Z</time></trkpt><trkpt lat="44.84244631372493" lon="9.569506251364915"><ele>503.0</ele><time>2026-05-03T14:53:32Z</time></trkpt><trkpt lat="44.842519811755444" lon="9.569459760713157"><ele>503.0</ele><time>2026-05-03T14:53:34Z</time></trkpt><trkpt lat="44.842554983233086" lon="9.569617300470448"><ele>503.0</ele><time>2026-05-03T14:53:36Z</time></trkpt><trkpt lat="44.84256966545957" lon="9.569750602543339"><ele>502.99999999999994</ele><time>2026-05-03T14:53:38Z</time></trkpt><trkpt lat="44.84264561831658" lon="9.569736777289043"><ele>503.0</ele><time>2026-05-03T14:53:40Z</time></trkpt><trkpt lat="44.84276447787192" lon="9.569657427591958"><ele>503.0</ele><time>2026-05-03T14:53:42Z</time></trkpt><trkpt lat="44.842868981473345" lon="9.569680729715406"><ele>503.0</ele><time>2026-05-03T14:53:43Z</time></trkpt><trkpt lat="44.84298351827135" lon="9.56970187778403"><ele>503.0</ele><time>2026-05-03T14:53:44Z</time></trkpt><trkpt lat="44.843093697369454" lon="9.569772292072251"><ele>503.0</ele><time>2026-05-03T14:53:45Z</time></trkpt><trkpt lat="44.843188246563386" lon="9.569853058495537"><ele>503.0</ele><time>2026-05-03T14:53:46Z</time></trkpt><trkpt lat="44.84320028128366" lon="9.570005102907139"><ele>502.99999999999994</ele><time>2026-05-03T14:53:47Z</time></trkpt><trkpt lat="44.843211701692184" lon="9.570132261720714"><ele>502.99999999999994</ele><time>2026-05-03T14:53:48Z</time></trkpt><trkpt lat="44.843216930348085" lon="9.570274568865575"><ele>503.0</ele><time>2026-05-03T14:53:49Z</time></trkpt><trkpt lat="44.843217453965416" lon="9.570408534095918"><ele>503.0</ele><time>2026-05-03T14:53:50Z</time></trkpt><trkpt lat="44.84321650292061" lon="9.57053629415399"><ele>503.3333333333333</ele><time>2026-05-03T14:53:51Z</time></trkpt><trkpt lat="44.84321481203809" lon="9.57065782081155"><ele>503.66666666666663</ele><time>2026-05-03T14:53:52Z</time></trkpt><trkpt lat="44.84321185575411" lon="9.570759034802153"><ele>504.0</ele><time>2026-05-03T14:53:53Z</time></trkpt><trkpt lat="44.84320900379591" lon="9.570853948799911"><ele>504.33333333333337</ele><time>2026-05-03T14:53:54Z</time></trkpt><trkpt lat="44.8432079586356" lon="9.571028441049286"><ele>504.6666666666667</ele><time>2026-05-03T14:53:56Z</time></trkpt><trkpt lat="44.8432082461886" lon="9.571124253405886"><ele>505.0</ele><time>2026-05-03T14:53:57Z</time></trkpt><trkpt lat="44.84320789105322" lon="9.571213514540387"><ele>505.1666666666667</ele><time>2026-05-03T14:53:58Z</time></trkpt><trkpt lat="44.84321589572542" lon="9.571373689468237"><ele>505.33333333333337</ele><time>2026-05-03T14:54:00Z</time></trkpt><trkpt lat="44.843227060543875" lon="9.571478198649055"><ele>505.5</ele><time>2026-05-03T14:54:01Z</time></trkpt><trkpt lat="44.84323634429525" lon="9.571592171191426"><ele>505.66666666666663</ele><time>2026-05-03T14:54:02Z</time></trkpt><trkpt lat="44.84325648928508" lon="9.571743052936684"><ele>505.8333333333333</ele><time>2026-05-03T14:54:04Z</time></trkpt><trkpt lat="44.84326770286921" lon="9.5718404782979"><ele>506.0</ele><time>2026-05-03T14:54:06Z</time></trkpt><trkpt lat="44.84327979592971" lon="9.571959312215617"><ele>506.0</ele><time>2026-05-03T14:54:08Z</time></trkpt><trkpt lat="44.843291372134" lon="9.572070014860852"><ele>506.0</ele><time>2026-05-03T14:54:11Z</time></trkpt><trkpt lat="44.84327835396604" lon="9.57217351698795"><ele>506.0</ele><time>2026-05-03T14:55:23Z</time></trkpt><trkpt lat="44.843263302715556" lon="9.572324644596678"><ele>506.0</ele><time>2026-05-03T14:55:25Z</time></trkpt><trkpt lat="44.843252280097055" lon="9.57241278369193"><ele>506.0</ele><time>2026-05-03T14:55:26Z</time></trkpt><trkpt lat="44.843227049254125" lon="9.572600474938225"><ele>505.99999999999994</ele><time>2026-05-03T14:55:28Z</time></trkpt><trkpt lat="44.843219154926494" lon="9.572700108699676"><ele>506.0</ele><time>2026-05-03T14:55:29Z</time></trkpt><trkpt lat="44.8432163679808" lon="9.572813979888483"><ele>506.0</ele><time>2026-05-03T14:55:30Z</time></trkpt><trkpt lat="44.843215988530346" lon="9.572939941515187"><ele>506.0</ele><time>2026-05-03T14:55:31Z</time></trkpt><trkpt lat="44.84321648649354" lon="9.573075730786107"><ele>505.99999999999994</ele><time>2026-05-03T14:55:32Z</time></trkpt><trkpt lat="44.843215850380545" lon="9.57320593291636"><ele>506.0</ele><time>2026-05-03T14:55:33Z</time></trkpt><trkpt lat="44.84321522431611" lon="9.573334078453653"><ele>506.4</ele><time>2026-05-03T14:55:34Z</time></trkpt><trkpt lat="44.84321451760848" lon="9.573469071200051"><ele>506.8</ele><time>2026-05-03T14:55:35Z</time></trkpt><trkpt lat="44.84321341741166" lon="9.573616671327377"><ele>507.19999999999993</ele><time>2026-05-03T14:55:36Z</time></trkpt><trkpt lat="44.84321198424057" lon="9.573766453577269"><ele>507.59999999999997</ele><time>2026-05-03T14:55:37Z</time></trkpt><trkpt lat="44.843226367509835" lon="9.573920309225212"><ele>508.0</ele><time>2026-05-03T14:55:38Z</time></trkpt><trkpt lat="44.84321946032727" lon="9.574067896078482"><ele>508.0</ele><time>2026-05-03T14:55:39Z</time></trkpt><trkpt lat="44.84320926651232" lon="9.574222068536733"><ele>508.0</ele><time>2026-05-03T14:55:40Z</time></trkpt><trkpt lat="44.84319205890868" lon="9.574384282273696"><ele>508.0</ele><time>2026-05-03T14:55:41Z</time></trkpt><trkpt lat="44.84316938698306" lon="9.574547216945824"><ele>508.0</ele><time>2026-05-03T14:55:42Z</time></trkpt><trkpt lat="44.84313830354092" lon="9.574705839949534"><ele>508.4</ele><time>2026-05-03T14:55:43Z</time></trkpt><trkpt lat="44.84313158243838" lon="9.574874081875764"><ele>508.79999999999995</ele><time>2026-05-03T14:55:44Z</time></trkpt><trkpt lat="44.843144375484904" lon="9.575013795410376"><ele>509.2</ele><time>2026-05-03T14:55:45Z</time></trkpt><trkpt lat="44.84314625118705" lon="9.575133431583648"><ele>509.6</ele><time>2026-05-03T14:55:46Z</time></trkpt><trkpt lat="44.84316591646989" lon="9.575249225808633"><ele>510.0</ele><time>2026-05-03T14:55:47Z</time></trkpt><trkpt lat="44.84321222935519" lon="9.575346690208752"><ele>510.0</ele><time>2026-05-03T14:55:48Z</time></trkpt><trkpt lat="44.84327367980566" lon="9.575455269588645"><ele>510.0</ele><time>2026-05-03T14:55:49Z</time></trkpt><trkpt lat="44.84332959949662" lon="9.57558438799689"><ele>510.0</ele><time>2026-05-03T14:55:50Z</time></trkpt><trkpt lat="44.8433951736012" lon="9.575714336700129"><ele>510.0</ele><time>2026-05-03T14:55:51Z</time></trkpt><trkpt lat="44.84345947828122" lon="9.575839167720419"><ele>510.0</ele><time>2026-05-03T14:55:52Z</time></trkpt><trkpt lat="44.843517768187986" lon="9.575939926424782"><ele>510.0</ele><time>2026-05-03T14:55:53Z</time></trkpt><trkpt lat="44.843569858612405" lon="9.576021359167857"><ele>510.0</ele><time>2026-05-03T14:55:54Z</time></trkpt><trkpt lat="44.84364042963617" lon="9.576092390887469"><ele>510.0</ele><time>2026-05-03T14:55:55Z</time></trkpt><trkpt lat="44.843719168793704" lon="9.576140698597326"><ele>510.0</ele><time>2026-05-03T14:55:56Z</time></trkpt><trkpt lat="44.84381388650178" lon="9.576174109360785"><ele>510.0</ele><time>2026-05-03T14:55:57Z</time></trkpt><trkpt lat="44.84392883541978" lon="9.576186132777913"><ele>508.6</ele><time>2026-05-03T14:55:58Z</time></trkpt><trkpt lat="44.84404177138272" lon="9.576193393814153"><ele>507.2</ele><time>2026-05-03T14:55:59Z</time></trkpt><trkpt lat="44.84413881347123" lon="9.576203914866523"><ele>505.79999999999995</ele><time>2026-05-03T14:56:00Z</time></trkpt><trkpt lat="44.844227291425696" lon="9.576222448096935"><ele>504.4</ele><time>2026-05-03T14:56:01Z</time></trkpt><trkpt lat="44.84429887247968" lon="9.576256657489125"><ele>503.0</ele><time>2026-05-03T14:56:02Z</time></trkpt><trkpt lat="44.84436231788341" lon="9.576313396814555"><ele>501.99999999999994</ele><time>2026-05-03T14:56:03Z</time></trkpt><trkpt lat="44.8443980333321" lon="9.576406426138131"><ele>501.0</ele><time>2026-05-03T14:56:04Z</time></trkpt><trkpt lat="44.844403023933786" lon="9.57651550876097"><ele>500.0</ele><time>2026-05-03T14:56:05Z</time></trkpt><trkpt lat="44.84436253752287" lon="9.576640786590618"><ele>499.0</ele><time>2026-05-03T14:56:06Z</time></trkpt><trkpt lat="44.84434197932206" lon="9.57676385232406"><ele>497.99999999999994</ele><time>2026-05-03T14:56:07Z</time></trkpt><trkpt lat="44.84430210842428" lon="9.57688693817348"><ele>497.0</ele><time>2026-05-03T14:56:08Z</time></trkpt><trkpt lat="44.84426986360899" lon="9.577021555947328"><ele>497.0</ele><time>2026-05-03T14:56:09Z</time></trkpt><trkpt lat="44.844247148678335" lon="9.577134087561051"><ele>497.00000000000006</ele><time>2026-05-03T14:56:10Z</time></trkpt><trkpt lat="44.844243668905314" lon="9.57725163532486"><ele>497.00000000000006</ele><time>2026-05-03T14:56:11Z</time></trkpt><trkpt lat="44.84426979958311" lon="9.577381537856148"><ele>497.0</ele><time>2026-05-03T14:56:12Z</time></trkpt><trkpt lat="44.84432320700754" lon="9.577521174758719"><ele>497.0</ele><time>2026-05-03T14:56:13Z</time></trkpt><trkpt lat="44.844369172735455" lon="9.57766995820251"><ele>499.20000000000005</ele><time>2026-05-03T14:56:14Z</time></trkpt><trkpt lat="44.84443231722763" lon="9.577795603787395"><ele>501.40000000000003</ele><time>2026-05-03T14:56:15Z</time></trkpt><trkpt lat="44.84452056120806" lon="9.57788928084837"><ele>503.59999999999997</ele><time>2026-05-03T14:56:16Z</time></trkpt><trkpt lat="44.84459984513993" lon="9.577990832748592"><ele>505.79999999999995</ele><time>2026-05-03T14:56:17Z</time></trkpt><trkpt lat="44.84466261745724" lon="9.578074671744163"><ele>508.0</ele><time>2026-05-03T14:56:18Z</time></trkpt><trkpt lat="44.844691089517426" lon="9.578175798202452"><ele>508.0</ele><time>2026-05-03T14:56:19Z</time></trkpt><trkpt lat="44.844719209994636" lon="9.578271376098161"><ele>507.99999999999994</ele><time>2026-05-03T14:56:20Z</time></trkpt><trkpt lat="44.84471135999272" lon="9.578398149995554"><ele>507.99999999999994</ele><time>2026-05-03T14:56:21Z</time></trkpt><trkpt lat="44.844679004102716" lon="9.578525070521042"><ele>508.0</ele><time>2026-05-03T14:56:22Z</time></trkpt><trkpt lat="44.84464198553146" lon="9.578671131391616"><ele>508.0</ele><time>2026-05-03T14:56:23Z</time></trkpt><trkpt lat="44.8446201387119" lon="9.57880953614354"><ele>508.2</ele><time>2026-05-03T14:56:24Z</time></trkpt><trkpt lat="44.84459209523925" lon="9.578951898373461"><ele>508.4</ele><time>2026-05-03T14:56:25Z</time></trkpt><trkpt lat="44.84458581414691" lon="9.579103067458782"><ele>508.59999999999997</ele><time>2026-05-03T14:56:26Z</time></trkpt><trkpt lat="44.844574800996455" lon="9.579260463511897"><ele>508.79999999999995</ele><time>2026-05-03T14:56:27Z</time></trkpt><trkpt lat="44.84463800285214" lon="9.579403610250672"><ele>509.0</ele><time>2026-05-03T14:56:28Z</time></trkpt><trkpt lat="44.84470335705244" lon="9.5795387405766"><ele>508.4</ele><time>2026-05-03T14:56:29Z</time></trkpt><trkpt lat="44.844782350762465" lon="9.57966194670525"><ele>507.79999999999995</ele><time>2026-05-03T14:56:30Z</time></trkpt><trkpt lat="44.84484946147416" lon="9.579793991011172"><ele>507.20000000000005</ele><time>2026-05-03T14:56:31Z</time></trkpt><trkpt lat="44.844920590165785" lon="9.579912455363505"><ele>506.6</ele><time>2026-05-03T14:56:32Z</time></trkpt><trkpt lat="44.84498407890342" lon="9.58003025721128"><ele>506.0</ele><time>2026-05-03T14:56:33Z</time></trkpt><trkpt lat="44.84504775861595" lon="9.580164364602798"><ele>506.0</ele><time>2026-05-03T14:56:34Z</time></trkpt><trkpt lat="44.84511398385087" lon="9.58028405068212"><ele>506.0</ele><time>2026-05-03T14:56:35Z</time></trkpt><trkpt lat="44.84517567235675" lon="9.58040051620763"><ele>506.0</ele><time>2026-05-03T14:56:36Z</time></trkpt><trkpt lat="44.84523507719834" lon="9.580526168575076"><ele>506.0</ele><time>2026-05-03T14:56:37Z</time></trkpt><trkpt lat="44.845298225031726" lon="9.580652499105668"><ele>506.0</ele><time>2026-05-03T14:56:38Z</time></trkpt><trkpt lat="44.84535307665088" lon="9.580785837596451"><ele>506.25</ele><time>2026-05-03T14:56:39Z</time></trkpt><trkpt lat="44.84540624348535" lon="9.580927448663333"><ele>506.5</ele><time>2026-05-03T14:56:40Z</time></trkpt><trkpt lat="44.845465441406084" lon="9.581075965856435"><ele>506.75</ele><time>2026-05-03T14:56:41Z</time></trkpt><trkpt lat="44.84552487128463" lon="9.581231740699478"><ele>507.0</ele><time>2026-05-03T14:56:42Z</time></trkpt><trkpt lat="44.845595413341954" lon="9.581375847811787"><ele>507.0</ele><time>2026-05-03T14:56:43Z</time></trkpt><trkpt lat="44.8456648613631" lon="9.581503907786715"><ele>507.0</ele><time>2026-05-03T14:56:44Z</time></trkpt><trkpt lat="44.84572046680509" lon="9.581614516653381"><ele>507.0</ele><time>2026-05-03T14:56:45Z</time></trkpt><trkpt lat="44.845774596363285" lon="9.581698536230544"><ele>507.0</ele><time>2026-05-03T14:56:46Z</time></trkpt><trkpt lat="44.84584065128767" lon="9.581748264674628"><ele>507.0</ele><time>2026-05-03T14:56:46.999Z</time></trkpt><trkpt lat="44.84591523736105" lon="9.581780925428696"><ele>507.0</ele><time>2026-05-03T14:56:47.999Z</time></trkpt><trkpt lat="44.846032868880215" lon="9.581815831168356"><ele>510.20000000000005</ele><time>2026-05-03T14:56:49.999Z</time></trkpt><trkpt lat="44.84611099512228" lon="9.581932520167525"><ele>513.4000000000001</ele><time>2026-05-03T14:56:51.999Z</time></trkpt><trkpt lat="44.8461197672037" lon="9.582037594305314"><ele>516.5999999999999</ele><time>2026-05-03T14:56:52.999Z</time></trkpt><trkpt lat="44.846068470901244" lon="9.582150705268788"><ele>519.8</ele><time>2026-05-03T14:56:53.999Z</time></trkpt><trkpt lat="44.846038197471245" lon="9.582256663384367"><ele>523.0</ele><time>2026-05-03T14:56:54.999Z</time></trkpt><trkpt lat="44.84599497279068" lon="9.58236553573666"><ele>521.1999999999999</ele><time>2026-05-03T14:56:55.999Z</time></trkpt><trkpt lat="44.84593180382585" lon="9.582457022916026"><ele>519.4</ele><time>2026-05-03T14:56:56.999Z</time></trkpt><trkpt lat="44.84585856108744" lon="9.582522357903208"><ele>517.5999999999999</ele><time>2026-05-03T14:56:57.999Z</time></trkpt><trkpt lat="44.845776021580306" lon="9.582598359592579"><ele>515.8</ele><time>2026-05-03T14:56:58.999Z</time></trkpt><trkpt lat="44.845686976546816" lon="9.582686055391886"><ele>514.0</ele><time>2026-05-03T14:56:59.999Z</time></trkpt><trkpt lat="44.845593677406754" lon="9.582805037786667"><ele>516.0</ele><time>2026-05-03T14:57:00.999Z</time></trkpt><trkpt lat="44.84551628899245" lon="9.582926933964398"><ele>518.0</ele><time>2026-05-03T14:57:01.999Z</time></trkpt><trkpt lat="44.84543149368604" lon="9.583061036595343"><ele>520.0</ele><time>2026-05-03T14:57:02.999Z</time></trkpt><trkpt lat="44.84535020170638" lon="9.583182798461303"><ele>522.0</ele><time>2026-05-03T14:57:03.999Z</time></trkpt><trkpt lat="44.845274987847915" lon="9.58329493897589"><ele>522.0</ele><time>2026-05-03T14:57:04.999Z</time></trkpt><trkpt lat="44.84519623083753" lon="9.583404665321195"><ele>522.0</ele><time>2026-05-03T14:57:05.999Z</time></trkpt><trkpt lat="44.84511489595365" lon="9.583514382745342"><ele>522.0</ele><time>2026-05-03T14:57:06.999Z</time></trkpt><trkpt lat="44.84505374192498" lon="9.583628229090486"><ele>522.0</ele><time>2026-05-03T14:57:07.999Z</time></trkpt><trkpt lat="44.844997828049884" lon="9.583694640593556"><ele>522.0</ele><time>2026-05-03T14:57:08.999Z</time></trkpt><trkpt lat="44.844939009364" lon="9.583756401658368"><ele>521.3333333333334</ele><time>2026-05-03T14:57:11.999Z</time></trkpt><trkpt lat="44.84505529674161" lon="9.583825649982229"><ele>520.6666666666666</ele><time>2026-05-03T14:57:13.999Z</time></trkpt><trkpt lat="44.8451370382338" lon="9.58381743518837"><ele>520.0</ele><time>2026-05-03T14:57:14.999Z</time></trkpt><trkpt lat="44.84521350589032" lon="9.583786687488415"><ele>519.3333333333333</ele><time>2026-05-03T14:57:15.999Z</time></trkpt><trkpt lat="44.84528030995628" lon="9.583770798897321"><ele>518.6666666666666</ele><time>2026-05-03T14:57:16.999Z</time></trkpt><trkpt lat="44.84535106634926" lon="9.583758331062105"><ele>518.0</ele><time>2026-05-03T14:57:17.999Z</time></trkpt><trkpt lat="44.845418642861574" lon="9.583739796100925"><ele>517.8333333333333</ele><time>2026-05-03T14:57:18.999Z</time></trkpt><trkpt lat="44.8454905095107" lon="9.583708819503787"><ele>517.6666666666666</ele><time>2026-05-03T14:57:19.999Z</time></trkpt><trkpt lat="44.84556304069501" lon="9.58367813735037"><ele>517.5</ele><time>2026-05-03T14:57:20.999Z</time></trkpt><trkpt lat="44.84563339715165" lon="9.58363679972328"><ele>517.3333333333334</ele><time>2026-05-03T14:57:21.999Z</time></trkpt><trkpt lat="44.84570528939524" lon="9.583600109253211"><ele>517.1666666666667</ele><time>2026-05-03T14:57:22.999Z</time></trkpt><trkpt lat="44.84578057641145" lon="9.583558421070208"><ele>517.0</ele><time>2026-05-03T14:57:23.999Z</time></trkpt><trkpt lat="44.845853213994836" lon="9.583514280544465"><ele>518.0</ele><time>2026-05-03T14:57:24.999Z</time></trkpt><trkpt lat="44.845924934132476" lon="9.583471684043573"><ele>519.0</ele><time>2026-05-03T14:57:25.999Z</time></trkpt><trkpt lat="44.8459967604495" lon="9.58343176923888"><ele>520.0</ele><time>2026-05-03T14:57:26.999Z</time></trkpt><trkpt lat="44.84611160367344" lon="9.583356750323617"><ele>521.0</ele><time>2026-05-03T14:57:29Z</time></trkpt><trkpt lat="44.84617430721135" lon="9.583318894660767"><ele>522.0</ele><time>2026-05-03T14:57:30Z</time></trkpt><trkpt lat="44.84628245863866" lon="9.583271105916848"><ele>522.4</ele><time>2026-05-03T14:57:32Z</time></trkpt><trkpt lat="44.846323389027816" lon="9.583354335393947"><ele>522.8000000000001</ele><time>2026-05-03T14:57:34Z</time></trkpt><trkpt lat="44.84639684981747" lon="9.583446390684797"><ele>523.2</ele><time>2026-05-03T14:57:36Z</time></trkpt><trkpt lat="44.846461323425" lon="9.583566736145777"><ele>523.6</ele><time>2026-05-03T14:57:38Z</time></trkpt><trkpt lat="44.846544299658724" lon="9.5836751810895"><ele>524.0</ele><time>2026-05-03T14:57:40Z</time></trkpt><trkpt lat="44.8466128463277" lon="9.58375213766168"><ele>524.4</ele><time>2026-05-03T14:57:42Z</time></trkpt><trkpt lat="44.84667858972158" lon="9.583822484308145"><ele>524.8</ele><time>2026-05-03T14:57:44Z</time></trkpt><trkpt lat="44.846750518662205" lon="9.583897916348953"><ele>525.2</ele><time>2026-05-03T14:57:46Z</time></trkpt><trkpt lat="44.84682048439647" lon="9.583965760422249"><ele>525.6</ele><time>2026-05-03T14:57:48Z</time></trkpt><trkpt lat="44.84690110765555" lon="9.584023168056715"><ele>526.0</ele><time>2026-05-03T14:57:50Z</time></trkpt><trkpt lat="44.84699090562496" lon="9.584117667066861"><ele>526.0</ele><time>2026-05-03T14:57:52Z</time></trkpt><trkpt lat="44.84708655728276" lon="9.584219380441631"><ele>526.0</ele><time>2026-05-03T14:57:54Z</time></trkpt><trkpt lat="44.8471426828996" lon="9.584285400826703"><ele>526.0</ele><time>2026-05-03T14:57:55Z</time></trkpt><trkpt lat="44.847210665229504" lon="9.584351486291911"><ele>526.0</ele><time>2026-05-03T14:57:56Z</time></trkpt><trkpt lat="44.84729901928503" lon="9.58437271791864"><ele>526.0</ele><time>2026-05-03T14:57:57Z</time></trkpt><trkpt lat="44.84740024603747" lon="9.584432429553466"><ele>526.0</ele><time>2026-05-03T14:57:58Z</time></trkpt><trkpt lat="44.847497836814924" lon="9.584489995853156"><ele>526.0</ele><time>2026-05-03T14:57:59Z</time></trkpt><trkpt lat="44.847563220321184" lon="9.584513549202212"><ele>526.0</ele><time>2026-05-03T14:58:00Z</time></trkpt><trkpt lat="44.84765501407408" lon="9.584539299405328"><ele>526.0</ele><time>2026-05-03T14:58:01Z</time></trkpt><trkpt lat="44.84772402449706" lon="9.584547517706506"><ele>526.0</ele><time>2026-05-03T14:58:02Z</time></trkpt><trkpt lat="44.847847578022325" lon="9.584522177204413"><ele>525.0</ele><time>2026-05-03T14:58:04Z</time></trkpt><trkpt lat="44.847936741632665" lon="9.584527254420912"><ele>524.0</ele><time>2026-05-03T14:58:05Z</time></trkpt><trkpt lat="44.848433404893214" lon="9.585066792134278"><ele>525.5</ele><time>2026-05-03T14:58:10Z</time></trkpt><trkpt lat="44.84854014808062" lon="9.5851199243188"><ele>527.0</ele><time>2026-05-03T14:58:11Z</time></trkpt><trkpt lat="44.848643646787224" lon="9.585154357444491"><ele>528.5</ele><time>2026-05-03T14:58:12Z</time></trkpt><trkpt lat="44.848718884240945" lon="9.585186815370996"><ele>530.0</ele><time>2026-05-03T14:58:13Z</time></trkpt><trkpt lat="44.84878492569021" lon="9.585195782558147"><ele>531.5</ele><time>2026-05-03T14:58:14Z</time></trkpt><trkpt lat="44.84886705232099" lon="9.585191157041425"><ele>533.0</ele><time>2026-05-03T14:58:15Z</time></trkpt><trkpt lat="44.8489727751037" lon="9.585177374189715"><ele>533.0</ele><time>2026-05-03T14:58:16Z</time></trkpt><trkpt lat="44.84907315670204" lon="9.58516631626759"><ele>533.0</ele><time>2026-05-03T14:58:17Z</time></trkpt><trkpt lat="44.84918162401772" lon="9.585175964200324"><ele>533.0</ele><time>2026-05-03T14:58:18Z</time></trkpt><trkpt lat="44.84928258800892" lon="9.585188904498597"><ele>533.0</ele><time>2026-05-03T14:58:19Z</time></trkpt><trkpt lat="44.84937743381983" lon="9.585197875693316"><ele>533.0</ele><time>2026-05-03T14:58:20Z</time></trkpt><trkpt lat="44.849469627420035" lon="9.585196773081323"><ele>532.4</ele><time>2026-05-03T14:58:21Z</time></trkpt><trkpt lat="44.84956191678248" lon="9.585198066157552"><ele>531.8</ele><time>2026-05-03T14:58:22Z</time></trkpt><trkpt lat="44.84965113125151" lon="9.585246193865029"><ele>531.2</ele><time>2026-05-03T14:58:23Z</time></trkpt><trkpt lat="44.84973431193093" lon="9.585313382451826"><ele>530.6</ele><time>2026-05-03T14:58:24Z</time></trkpt><trkpt lat="44.84980059316665" lon="9.585411828528093"><ele>530.0</ele><time>2026-05-03T14:58:25Z</time></trkpt><trkpt lat="44.84985383153583" lon="9.58550066215369"><ele>530.0</ele><time>2026-05-03T14:58:26Z</time></trkpt><trkpt lat="44.849932490863914" lon="9.585555925788544"><ele>530.0</ele><time>2026-05-03T14:58:27Z</time></trkpt><trkpt lat="44.850015108556896" lon="9.585554907826294"><ele>530.0</ele><time>2026-05-03T14:58:28Z</time></trkpt><trkpt lat="44.85009540405843" lon="9.585552550224653"><ele>530.0</ele><time>2026-05-03T14:58:29Z</time></trkpt><trkpt lat="44.85016101008014" lon="9.585605452672608"><ele>530.0</ele><time>2026-05-03T14:58:30Z</time></trkpt><trkpt lat="44.85020426089247" lon="9.585709256496967"><ele>530.0</ele><time>2026-05-03T14:58:31Z</time></trkpt><trkpt lat="44.85024256366645" lon="9.585818478415836"><ele>531.6</ele><time>2026-05-03T14:58:32Z</time></trkpt><trkpt lat="44.85027609226532" lon="9.58594442838455"><ele>533.2</ele><time>2026-05-03T14:58:33Z</time></trkpt><trkpt lat="44.8503112630135" lon="9.586072967590928"><ele>534.8</ele><time>2026-05-03T14:58:34Z</time></trkpt><trkpt lat="44.85036659551415" lon="9.586178068959757"><ele>536.4</ele><time>2026-05-03T14:58:35Z</time></trkpt><trkpt lat="44.850444009060254" lon="9.586296276337514"><ele>538.0</ele><time>2026-05-03T14:58:36Z</time></trkpt><trkpt lat="44.85050009129684" lon="9.586408801329945"><ele>538.0</ele><time>2026-05-03T14:58:37Z</time></trkpt><trkpt lat="44.850559756805744" lon="9.58648380421063"><ele>538.0</ele><time>2026-05-03T14:58:38Z</time></trkpt><trkpt lat="44.85063540142105" lon="9.586548501448227"><ele>538.0</ele><time>2026-05-03T14:58:38.999Z</time></trkpt><trkpt lat="44.850735648201166" lon="9.586594523800365"><ele>538.0</ele><time>2026-05-03T14:58:39.999Z</time></trkpt><trkpt lat="44.850829713785565" lon="9.586613255819017"><ele>538.0</ele><time>2026-05-03T14:58:40.999Z</time></trkpt><trkpt lat="44.850894509795054" lon="9.586640064442326"><ele>538.0</ele><time>2026-05-03T14:58:41.999Z</time></trkpt><trkpt lat="44.85097475586682" lon="9.586754632605448"><ele>537.0</ele><time>2026-05-03T14:58:43.999Z</time></trkpt><trkpt lat="44.850999506328705" lon="9.586854457443634"><ele>536.0</ele><time>2026-05-03T14:58:44.999Z</time></trkpt><trkpt lat="44.85100634831266" lon="9.586984031095442"><ele>535.0</ele><time>2026-05-03T14:58:45.999Z</time></trkpt><trkpt lat="44.85101304745283" lon="9.587115989947375"><ele>534.0</ele><time>2026-05-03T14:58:46.999Z</time></trkpt><trkpt lat="44.85101953091877" lon="9.587271646044965"><ele>533.0</ele><time>2026-05-03T14:58:47.999Z</time></trkpt><trkpt lat="44.85101892701424" lon="9.58739526057923"><ele>530.8</ele><time>2026-05-03T14:58:48.999Z</time></trkpt><trkpt lat="44.851021269991286" lon="9.587520850430733"><ele>528.5999999999999</ele><time>2026-05-03T14:58:49.999Z</time></trkpt><trkpt lat="44.85102186014146" lon="9.58766553821073"><ele>526.4000000000001</ele><time>2026-05-03T14:58:50.999Z</time></trkpt><trkpt lat="44.85102669417101" lon="9.587812969042734"><ele>524.2</ele><time>2026-05-03T14:58:51.999Z</time></trkpt><trkpt lat="44.85104144878923" lon="9.587951151251012"><ele>522.0</ele><time>2026-05-03T14:58:52.999Z</time></trkpt><trkpt lat="44.85105566286126" lon="9.588085977121684"><ele>520.0</ele><time>2026-05-03T14:58:53.999Z</time></trkpt><trkpt lat="44.85105960837307" lon="9.588199961439532"><ele>518.0</ele><time>2026-05-03T14:58:54.999Z</time></trkpt><trkpt lat="44.85105993933092" lon="9.58831131715415"><ele>516.0</ele><time>2026-05-03T14:58:55.999Z</time></trkpt><trkpt lat="44.85111041240853" lon="9.588460979485612"><ele>514.0</ele><time>2026-05-03T14:58:57.999Z</time></trkpt><trkpt lat="44.85122133988843" lon="9.588511079831605"><ele>512.0</ele><time>2026-05-03T14:58:59.999Z</time></trkpt><trkpt lat="44.85128083909487" lon="9.588553420998574"><ele>510.16666666666663</ele><time>2026-05-03T14:59:00.999Z</time></trkpt><trkpt lat="44.851275292211845" lon="9.588735704616164"><ele>508.3333333333333</ele><time>2026-05-03T14:59:02.999Z</time></trkpt><trkpt lat="44.851253187727735" lon="9.588840665176015"><ele>506.5</ele><time>2026-05-03T14:59:03.999Z</time></trkpt><trkpt lat="44.85124056529334" lon="9.588946114032149"><ele>504.66666666666663</ele><time>2026-05-03T14:59:04.999Z</time></trkpt><trkpt lat="44.851230953220835" lon="9.589047847700746"><ele>502.8333333333333</ele><time>2026-05-03T14:59:05.999Z</time></trkpt><trkpt lat="44.85123578723909" lon="9.589145099942188"><ele>501.0</ele><time>2026-05-03T14:59:06.999Z</time></trkpt><trkpt lat="44.851202851896915" lon="9.589252817013309"><ele>501.0</ele><time>2026-05-03T14:59:07.999Z</time></trkpt><trkpt lat="44.851145833109136" lon="9.589342199582386"><ele>501.0</ele><time>2026-05-03T14:59:08.999Z</time></trkpt><trkpt lat="44.85111914447687" lon="9.589463669928382"><ele>501.0</ele><time>2026-05-03T14:59:09.999Z</time></trkpt><trkpt lat="44.851104055000185" lon="9.589562163769612"><ele>501.0</ele><time>2026-05-03T14:59:10.999Z</time></trkpt><trkpt lat="44.85109548818895" lon="9.589761438345517"><ele>501.0</ele><time>2026-05-03T14:59:12.999Z</time></trkpt><trkpt lat="44.851088337531664" lon="9.58989764094663"><ele>498.6</ele><time>2026-05-03T14:59:13.999Z</time></trkpt><trkpt lat="44.851080113090454" lon="9.590041537649425"><ele>496.20000000000005</ele><time>2026-05-03T14:59:14.999Z</time></trkpt><trkpt lat="44.8510797645112" lon="9.59016361380169"><ele>493.79999999999995</ele><time>2026-05-03T14:59:15.999Z</time></trkpt><trkpt lat="44.85107915391366" lon="9.59028943152567"><ele>491.4</ele><time>2026-05-03T14:59:16.999Z</time></trkpt><trkpt lat="44.85107095465782" lon="9.590421750049481"><ele>489.0</ele><time>2026-05-03T14:59:17.999Z</time></trkpt><trkpt lat="44.85104324447893" lon="9.59053945473869"><ele>490.5</ele><time>2026-05-03T14:59:18.999Z</time></trkpt><trkpt lat="44.851014145203195" lon="9.590665001263156"><ele>492.0</ele><time>2026-05-03T14:59:19.999Z</time></trkpt><trkpt lat="44.850965802988846" lon="9.59075948831252"><ele>493.5</ele><time>2026-05-03T14:59:20.999Z</time></trkpt><trkpt lat="44.850909462802264" lon="9.590841492746113"><ele>495.0</ele><time>2026-05-03T14:59:21.999Z</time></trkpt><trkpt lat="44.850876457629305" lon="9.590922456266275"><ele>496.5</ele><time>2026-05-03T14:59:22.999Z</time></trkpt><trkpt lat="44.850815823706036" lon="9.591042457371765"><ele>498.0</ele><time>2026-05-03T14:59:23.999Z</time></trkpt><trkpt lat="44.85075392498233" lon="9.591168077930428"><ele>496.4</ele><time>2026-05-03T14:59:24.999Z</time></trkpt><trkpt lat="44.850715832699535" lon="9.591293972790544"><ele>494.79999999999995</ele><time>2026-05-03T14:59:25.999Z</time></trkpt><trkpt lat="44.85070656441302" lon="9.591412275816284"><ele>493.2</ele><time>2026-05-03T14:59:26.999Z</time></trkpt><trkpt lat="44.850685874132985" lon="9.591549012532916"><ele>491.6</ele><time>2026-05-03T14:59:27.999Z</time></trkpt><trkpt lat="44.85065702309142" lon="9.591676858874397"><ele>490.0</ele><time>2026-05-03T14:59:28.999Z</time></trkpt><trkpt lat="44.85062405045698" lon="9.591790383291526"><ele>490.0</ele><time>2026-05-03T14:59:29.999Z</time></trkpt><trkpt lat="44.85058812336475" lon="9.591906550494867"><ele>490.0</ele><time>2026-05-03T14:59:30.999Z</time></trkpt><trkpt lat="44.85055151780836" lon="9.592045899857458"><ele>490.0</ele><time>2026-05-03T14:59:31.999Z</time></trkpt><trkpt lat="44.8505317641481" lon="9.592191414711275"><ele>490.0</ele><time>2026-05-03T14:59:32.999Z</time></trkpt><trkpt lat="44.8505073551008" lon="9.592330122801144"><ele>490.0</ele><time>2026-05-03T14:59:34Z</time></trkpt><trkpt lat="44.850483636964746" lon="9.592472208581198"><ele>488.0</ele><time>2026-05-03T14:59:35Z</time></trkpt><trkpt lat="44.850467554893896" lon="9.592611589525385"><ele>486.0</ele><time>2026-05-03T14:59:36Z</time></trkpt><trkpt lat="44.85046479296954" lon="9.592758164008183"><ele>484.0</ele><time>2026-05-03T14:59:37Z</time></trkpt><trkpt lat="44.850459574914424" lon="9.592874211184423"><ele>482.0</ele><time>2026-05-03T14:59:38Z</time></trkpt><trkpt lat="44.8504461797856" lon="9.592994340095503"><ele>480.0</ele><time>2026-05-03T14:59:39Z</time></trkpt><trkpt lat="44.850433568765645" lon="9.593113259581934"><ele>479.1666666666667</ele><time>2026-05-03T14:59:40Z</time></trkpt><trkpt lat="44.85042321481478" lon="9.59323028069231"><ele>478.33333333333337</ele><time>2026-05-03T14:59:41Z</time></trkpt><trkpt lat="44.850433796171" lon="9.593357677632255"><ele>477.5</ele><time>2026-05-03T14:59:42Z</time></trkpt><trkpt lat="44.85044519109891" lon="9.593474534987573"><ele>476.6666666666667</ele><time>2026-05-03T14:59:43Z</time></trkpt><trkpt lat="44.85044638346791" lon="9.593572899298378"><ele>475.83333333333337</ele><time>2026-05-03T14:59:44Z</time></trkpt><trkpt lat="44.850419225928185" lon="9.593653475380208"><ele>475.0</ele><time>2026-05-03T14:59:45Z</time></trkpt><trkpt lat="44.85038254408839" lon="9.593756195698289"><ele>473.33333333333337</ele><time>2026-05-03T14:59:46Z</time></trkpt><trkpt lat="44.85035026337474" lon="9.593855861805396"><ele>471.6666666666667</ele><time>2026-05-03T14:59:47Z</time></trkpt><trkpt lat="44.850324304697274" lon="9.59395312373454"><ele>470.0</ele><time>2026-05-03T14:59:48Z</time></trkpt><trkpt lat="44.85029994613448" lon="9.594042374012654"><ele>468.33333333333337</ele><time>2026-05-03T14:59:49Z</time></trkpt><trkpt lat="44.85029670903031" lon="9.594148112223062"><ele>466.6666666666667</ele><time>2026-05-03T14:59:50Z</time></trkpt><trkpt lat="44.8503271243023" lon="9.594243187175799"><ele>465.0</ele><time>2026-05-03T14:59:51Z</time></trkpt><trkpt lat="44.85036621630766" lon="9.594416457890635"><ele>463.3333333333333</ele><time>2026-05-03T14:59:53Z</time></trkpt><trkpt lat="44.8503676142457" lon="9.594543463097779"><ele>461.66666666666663</ele><time>2026-05-03T14:59:54Z</time></trkpt><trkpt lat="44.850361245757696" lon="9.594672510849815"><ele>460.0</ele><time>2026-05-03T14:59:55Z</time></trkpt><trkpt lat="44.850348331192514" lon="9.594797676547358"><ele>458.3333333333333</ele><time>2026-05-03T14:59:56Z</time></trkpt><trkpt lat="44.850348084331806" lon="9.594905905742396"><ele>456.66666666666663</ele><time>2026-05-03T14:59:57Z</time></trkpt><trkpt lat="44.850357611537305" lon="9.595019530504834"><ele>455.0</ele><time>2026-05-03T14:59:58Z</time></trkpt><trkpt lat="44.850373335173536" lon="9.595131451886541"><ele>454.99999999999994</ele><time>2026-05-03T14:59:59Z</time></trkpt><trkpt lat="44.850382020793276" lon="9.595221938315236"><ele>455.0</ele><time>2026-05-03T15:00:00Z</time></trkpt><trkpt lat="44.85040793269624" lon="9.595336197303617"><ele>455.0</ele><time>2026-05-03T15:00:02Z</time></trkpt><trkpt lat="44.850471350887354" lon="9.595360363671055"><ele>455.0</ele><time>2026-05-03T15:00:05Z</time></trkpt><trkpt lat="44.850568239831325" lon="9.595338085298174"><ele>454.99999999999994</ele><time>2026-05-03T15:00:07Z</time></trkpt><trkpt lat="44.85064215971764" lon="9.595282144678288"><ele>455.0</ele><time>2026-05-03T15:00:08Z</time></trkpt><trkpt lat="44.850700552515015" lon="9.595226445692976"><ele>454.99999999999994</ele><time>2026-05-03T15:00:09Z</time></trkpt><trkpt lat="44.850761854742714" lon="9.595298456362245"><ele>455.0</ele><time>2026-05-03T15:00:13Z</time></trkpt><trkpt lat="44.8507035493286" lon="9.595382827488907"><ele>455.0</ele><time>2026-05-03T15:00:16Z</time></trkpt><trkpt lat="44.85065689666085" lon="9.595468931810096"><ele>455.0</ele><time>2026-05-03T15:00:18Z</time></trkpt><trkpt lat="44.85061965958824" lon="9.595553826112189"><ele>454.99999999999994</ele><time>2026-05-03T15:00:20Z</time></trkpt><trkpt lat="44.850571203530585" lon="9.595735495321607"><ele>455.0</ele><time>2026-05-03T15:00:22Z</time></trkpt><trkpt lat="44.85054592095306" lon="9.595829819386084"><ele>453.6</ele><time>2026-05-03T15:00:23Z</time></trkpt><trkpt lat="44.85050727457173" lon="9.59594587471804"><ele>452.2</ele><time>2026-05-03T15:00:25Z</time></trkpt><trkpt lat="44.850556105593284" lon="9.595792342491437"><ele>450.79999999999995</ele><time>2026-05-03T15:00:37Z</time></trkpt><trkpt lat="44.85060371789866" lon="9.595620030004541"><ele>449.4</ele><time>2026-05-03T15:00:38Z</time></trkpt><trkpt lat="44.8506624334305" lon="9.595504665406075"><ele>448.0</ele><time>2026-05-03T15:00:39Z</time></trkpt><trkpt lat="44.85072230757127" lon="9.595397948094696"><ele>449.4</ele><time>2026-05-03T15:00:40Z</time></trkpt><trkpt lat="44.85076721517198" lon="9.595284694787814"><ele>450.79999999999995</ele><time>2026-05-03T15:00:41Z</time></trkpt><trkpt lat="44.850776099899235" lon="9.5951889295495"><ele>452.2</ele><time>2026-05-03T15:00:42Z</time></trkpt><trkpt lat="44.850834356970346" lon="9.595047194374592"><ele>453.6</ele><time>2026-05-03T15:00:44Z</time></trkpt><trkpt lat="44.85089963368023" lon="9.594984399118644"><ele>455.0</ele><time>2026-05-03T15:00:45Z</time></trkpt><trkpt lat="44.85097483061938" lon="9.594889342309429"><ele>451.8</ele><time>2026-05-03T15:00:47Z</time></trkpt><trkpt lat="44.85105775393184" lon="9.594793978848415"><ele>448.6</ele><time>2026-05-03T15:00:49Z</time></trkpt><trkpt lat="44.85112415361696" lon="9.5946876106851"><ele>445.4</ele><time>2026-05-03T15:00:51Z</time></trkpt><trkpt lat="44.8511647633327" lon="9.59456173602372"><ele>442.2</ele><time>2026-05-03T15:00:52.999Z</time></trkpt><trkpt lat="44.851187336136746" lon="9.5944528624458"><ele>439.0</ele><time>2026-05-03T15:00:54.999Z</time></trkpt><trkpt lat="44.851165598412955" lon="9.59431870896806"><ele>439.0</ele><time>2026-05-03T15:00:56.999Z</time></trkpt><trkpt lat="44.85112079548907" lon="9.59422882476413"><ele>439.0</ele><time>2026-05-03T15:00:57.999Z</time></trkpt><trkpt lat="44.851081306387954" lon="9.594119803899686"><ele>439.0</ele><time>2026-05-03T15:00:58.999Z</time></trkpt><trkpt lat="44.85107730204557" lon="9.59398869785889"><ele>439.0</ele><time>2026-05-03T15:00:59.999Z</time></trkpt><trkpt lat="44.851109291983455" lon="9.59385696625274"><ele>439.0</ele><time>2026-05-03T15:01:00.999Z</time></trkpt><trkpt lat="44.85115183786935" lon="9.593729812018877"><ele>439.83333333333337</ele><time>2026-05-03T15:01:01.999Z</time></trkpt><trkpt lat="44.85118695651089" lon="9.593605926898531"><ele>440.6666666666667</ele><time>2026-05-03T15:01:02.999Z</time></trkpt><trkpt lat="44.85121333363288" lon="9.593486218764937"><ele>441.5</ele><time>2026-05-03T15:01:03.999Z</time></trkpt><trkpt lat="44.85124832633793" lon="9.59338212857499"><ele>442.33333333333337</ele><time>2026-05-03T15:01:04.999Z</time></trkpt><trkpt lat="44.85129224471016" lon="9.593305577339969"><ele>443.1666666666667</ele><time>2026-05-03T15:01:05.999Z</time></trkpt><trkpt lat="44.85135181056254" lon="9.593237374994308"><ele>444.0</ele><time>2026-05-03T15:01:06.999Z</time></trkpt><trkpt lat="44.851413777020866" lon="9.593148681759587"><ele>444.0</ele><time>2026-05-03T15:01:07.999Z</time></trkpt><trkpt lat="44.851466150543764" lon="9.593046131941646"><ele>444.0</ele><time>2026-05-03T15:01:08.999Z</time></trkpt><trkpt lat="44.851522538736305" lon="9.592929730376653"><ele>444.0</ele><time>2026-05-03T15:01:09.999Z</time></trkpt><trkpt lat="44.85157846877739" lon="9.592807851076792"><ele>444.0</ele><time>2026-05-03T15:01:10.999Z</time></trkpt><trkpt lat="44.85163957931077" lon="9.592680806958992"><ele>444.0</ele><time>2026-05-03T15:01:11.999Z</time></trkpt><trkpt lat="44.85170444586013" lon="9.592561295759182"><ele>443.79999999999995</ele><time>2026-05-03T15:01:12.999Z</time></trkpt><trkpt lat="44.851750634134405" lon="9.592471146748009"><ele>443.59999999999997</ele><time>2026-05-03T15:01:13.999Z</time></trkpt><trkpt lat="44.85182890319697" lon="9.592313156292008"><ele>443.4</ele><time>2026-05-03T15:01:15.999Z</time></trkpt><trkpt lat="44.851887421143694" lon="9.592228860115084"><ele>443.2</ele><time>2026-05-03T15:01:16.999Z</time></trkpt><trkpt lat="44.8519486143151" lon="9.592146028631829"><ele>443.0</ele><time>2026-05-03T15:01:17.999Z</time></trkpt><trkpt lat="44.85204110078327" lon="9.592056907392589"><ele>443.0</ele><time>2026-05-03T15:01:18.999Z</time></trkpt><trkpt lat="44.852126334005625" lon="9.592014201500968"><ele>442.99999999999994</ele><time>2026-05-03T15:01:19.999Z</time></trkpt><trkpt lat="44.852209278374474" lon="9.592003654956713"><ele>442.99999999999994</ele><time>2026-05-03T15:01:20.999Z</time></trkpt><trkpt lat="44.85228359572043" lon="9.592068991404187"><ele>443.0</ele><time>2026-05-03T15:01:21.999Z</time></trkpt><trkpt lat="44.85238274631896" lon="9.592095665005761"><ele>443.0</ele><time>2026-05-03T15:01:22.999Z</time></trkpt><trkpt lat="44.85247985770095" lon="9.592129548926854"><ele>443.0</ele><time>2026-05-03T15:01:23.999Z</time></trkpt><trkpt lat="44.85258968200856" lon="9.592153207787067"><ele>443.0</ele><time>2026-05-03T15:01:24.999Z</time></trkpt><trkpt lat="44.85270833281968" lon="9.592164195451048"><ele>443.0</ele><time>2026-05-03T15:01:25.999Z</time></trkpt><trkpt lat="44.8528303365568" lon="9.592186403733905"><ele>443.0</ele><time>2026-05-03T15:01:26.999Z</time></trkpt><trkpt lat="44.85293475879007" lon="9.59222083854234"><ele>443.8333333333333</ele><time>2026-05-03T15:01:27.999Z</time></trkpt><trkpt lat="44.85301531526936" lon="9.592275235758073"><ele>444.66666666666663</ele><time>2026-05-03T15:01:28.999Z</time></trkpt><trkpt lat="44.85308843714224" lon="9.59235038223571"><ele>445.5</ele><time>2026-05-03T15:01:29.999Z</time></trkpt><trkpt lat="44.85317423700707" lon="9.59242879165883"><ele>446.33333333333337</ele><time>2026-05-03T15:01:30.999Z</time></trkpt><trkpt lat="44.853255693174624" lon="9.592500726793014"><ele>447.1666666666667</ele><time>2026-05-03T15:01:31.999Z</time></trkpt><trkpt lat="44.85331708905284" lon="9.592542636654615"><ele>448.0</ele><time>2026-05-03T15:01:32.999Z</time></trkpt><trkpt lat="44.85337939180275" lon="9.592566943838493"><ele>448.4</ele><time>2026-05-03T15:01:33.999Z</time></trkpt><trkpt lat="44.853460857489594" lon="9.592578029664947"><ele>448.79999999999995</ele><time>2026-05-03T15:01:34.999Z</time></trkpt><trkpt lat="44.8535565625037" lon="9.592582407285335"><ele>449.2</ele><time>2026-05-03T15:01:35.999Z</time></trkpt><trkpt lat="44.85366209916409" lon="9.592568639128885"><ele>449.6</ele><time>2026-05-03T15:01:36.999Z</time></trkpt><trkpt lat="44.8537684896761" lon="9.592563662197698"><ele>450.0</ele><time>2026-05-03T15:01:37.999Z</time></trkpt><trkpt lat="44.85385145293523" lon="9.592584779951249"><ele>450.0</ele><time>2026-05-03T15:01:38.999Z</time></trkpt><trkpt lat="44.853917651618644" lon="9.592658541225875"><ele>450.0</ele><time>2026-05-03T15:01:40Z</time></trkpt><trkpt lat="44.85398799630185" lon="9.592709768143735"><ele>450.0</ele><time>2026-05-03T15:01:41Z</time></trkpt><trkpt lat="44.85407239140706" lon="9.592804275290002"><ele>450.0</ele><time>2026-05-03T15:01:42Z</time></trkpt><trkpt lat="44.854167436000495" lon="9.592854528827855"><ele>450.0</ele><time>2026-05-03T15:01:43Z</time></trkpt><trkpt lat="44.85425140833396" lon="9.592920500449921"><ele>449.8</ele><time>2026-05-03T15:01:44Z</time></trkpt><trkpt lat="44.854349879286126" lon="9.592962883054774"><ele>449.6</ele><time>2026-05-03T15:01:45Z</time></trkpt><trkpt lat="44.85444482157496" lon="9.592992712987499"><ele>449.4</ele><time>2026-05-03T15:01:46Z</time></trkpt><trkpt lat="44.85455017584932" lon="9.593016743182872"><ele>449.2</ele><time>2026-05-03T15:01:47Z</time></trkpt><trkpt lat="44.85466011640358" lon="9.593036674718565"><ele>449.0</ele><time>2026-05-03T15:01:48Z</time></trkpt><trkpt lat="44.85476228000077" lon="9.593042506647164"><ele>449.0</ele><time>2026-05-03T15:01:49Z</time></trkpt><trkpt lat="44.854870531717076" lon="9.593052606559853"><ele>449.0</ele><time>2026-05-03T15:01:50Z</time></trkpt><trkpt lat="44.85497825699648" lon="9.593068897660908"><ele>449.0</ele><time>2026-05-03T15:01:51Z</time></trkpt><trkpt lat="44.85507223457283" lon="9.5931364105431"><ele>449.0</ele><time>2026-05-03T15:01:52Z</time></trkpt><trkpt lat="44.85516898047091" lon="9.593198820315525"><ele>449.0</ele><time>2026-05-03T15:01:53Z</time></trkpt><trkpt lat="44.85525710022348" lon="9.593269613911785"><ele>448.5</ele><time>2026-05-03T15:01:54Z</time></trkpt><trkpt lat="44.85535503657141" lon="9.593338540846831"><ele>448.0</ele><time>2026-05-03T15:01:55Z</time></trkpt><trkpt lat="44.85543567288233" lon="9.59345744252487"><ele>447.5</ele><time>2026-05-03T15:01:56Z</time></trkpt><trkpt lat="44.855517396983366" lon="9.593574542607675"><ele>447.0</ele><time>2026-05-03T15:01:57Z</time></trkpt><trkpt lat="44.855607630144796" lon="9.593692137995042"><ele>447.0</ele><time>2026-05-03T15:01:58Z</time></trkpt><trkpt lat="44.85567491373409" lon="9.593805938202191"><ele>447.0</ele><time>2026-05-03T15:01:59Z</time></trkpt><trkpt lat="44.85574438953459" lon="9.593919433999751"><ele>447.0</ele><time>2026-05-03T15:02:00Z</time></trkpt><trkpt lat="44.85583838065518" lon="9.594027262259893"><ele>447.0</ele><time>2026-05-03T15:02:01Z</time></trkpt><trkpt lat="44.855938694577496" lon="9.5941404611507"><ele>448.25</ele><time>2026-05-03T15:02:02Z</time></trkpt><trkpt lat="44.856044087328094" lon="9.594265390834796"><ele>449.5</ele><time>2026-05-03T15:02:03Z</time></trkpt><trkpt lat="44.856149257544054" lon="9.594381645446525"><ele>450.75</ele><time>2026-05-03T15:02:04Z</time></trkpt><trkpt lat="44.856229749358135" lon="9.594479432628852"><ele>452.0</ele><time>2026-05-03T15:02:05Z</time></trkpt><trkpt lat="44.85629132825946" lon="9.594570263621634"><ele>451.99999999999994</ele><time>2026-05-03T15:02:06Z</time></trkpt><trkpt lat="44.85635529820824" lon="9.594677136472958"><ele>452.0</ele><time>2026-05-03T15:02:07Z</time></trkpt><trkpt lat="44.85641586262065" lon="9.594784009552047"><ele>452.0</ele><time>2026-05-03T15:02:08Z</time></trkpt><trkpt lat="44.8564670550331" lon="9.5948687592615"><ele>452.0</ele><time>2026-05-03T15:02:09Z</time></trkpt><trkpt lat="44.85651416034242" lon="9.59497018463044"><ele>451.99999999999994</ele><time>2026-05-03T15:02:10Z</time></trkpt><trkpt lat="44.856531027290345" lon="9.595087366550096"><ele>452.0</ele><time>2026-05-03T15:02:11Z</time></trkpt><trkpt lat="44.85654585956305" lon="9.595212772890019"><ele>448.25</ele><time>2026-05-03T15:02:12Z</time></trkpt><trkpt lat="44.85657270505335" lon="9.59535273580214"><ele>444.5</ele><time>2026-05-03T15:02:13Z</time></trkpt><trkpt lat="44.85661768539268" lon="9.595498878368979"><ele>440.75</ele><time>2026-05-03T15:02:14Z</time></trkpt><trkpt lat="44.8566560142117" lon="9.59566436726633"><ele>437.0</ele><time>2026-05-03T15:02:15Z</time></trkpt><trkpt lat="44.856698774488514" lon="9.59581640515859"><ele>437.0</ele><time>2026-05-03T15:02:16Z</time></trkpt><trkpt lat="44.856742291260495" lon="9.595955478871879"><ele>437.00000000000006</ele><time>2026-05-03T15:02:17Z</time></trkpt><trkpt lat="44.85678422752785" lon="9.59607166042685"><ele>437.00000000000006</ele><time>2026-05-03T15:02:18Z</time></trkpt><trkpt lat="44.85682223771699" lon="9.59619580620519"><ele>437.0</ele><time>2026-05-03T15:02:19Z</time></trkpt><trkpt lat="44.85686683552855" lon="9.596310012782979"><ele>437.0</ele><time>2026-05-03T15:02:20Z</time></trkpt><trkpt lat="44.85691579678669" lon="9.596425841125852"><ele>437.40000000000003</ele><time>2026-05-03T15:02:21Z</time></trkpt><trkpt lat="44.85698162782853" lon="9.596547465780619"><ele>437.80000000000007</ele><time>2026-05-03T15:02:22Z</time></trkpt><trkpt lat="44.857049751349244" lon="9.596652621925411"><ele>438.2</ele><time>2026-05-03T15:02:23Z</time></trkpt><trkpt lat="44.857108558618954" lon="9.59674903732899"><ele>438.6</ele><time>2026-05-03T15:02:24Z</time></trkpt><trkpt lat="44.857159019178034" lon="9.596833107193804"><ele>439.0</ele><time>2026-05-03T15:02:25Z</time></trkpt><trkpt lat="44.85720375169967" lon="9.596919305580306"><ele>437.50000000000006</ele><time>2026-05-03T15:02:26Z</time></trkpt><trkpt lat="44.85723129194234" lon="9.597007490626751"><ele>436.0</ele><time>2026-05-03T15:02:27Z</time></trkpt><trkpt lat="44.857247522481146" lon="9.597104242862455"><ele>434.5</ele><time>2026-05-03T15:02:28Z</time></trkpt><trkpt lat="44.857257015034264" lon="9.597270278711976"><ele>433.0</ele><time>2026-05-03T15:02:30Z</time></trkpt><trkpt lat="44.85723881279992" lon="9.597429293866703"><ele>431.50000000000006</ele><time>2026-05-03T15:02:32Z</time></trkpt><trkpt lat="44.85724606272859" lon="9.597526773630719"><ele>430.0</ele><time>2026-05-03T15:02:33Z</time></trkpt><trkpt lat="44.857242700537995" lon="9.59765195051355"><ele>430.00000000000006</ele><time>2026-05-03T15:02:34Z</time></trkpt><trkpt lat="44.85723220495587" lon="9.59778229341832"><ele>430.0</ele><time>2026-05-03T15:02:35Z</time></trkpt><trkpt lat="44.857230179079025" lon="9.597893674821394"><ele>430.0</ele><time>2026-05-03T15:02:36Z</time></trkpt><trkpt lat="44.857231060542524" lon="9.597993109035844"><ele>430.0</ele><time>2026-05-03T15:02:37Z</time></trkpt><trkpt lat="44.85723092906841" lon="9.598099913711875"><ele>430.00000000000006</ele><time>2026-05-03T15:02:38Z</time></trkpt><trkpt lat="44.85721780979385" lon="9.598196764303696"><ele>430.0</ele><time>2026-05-03T15:02:39Z</time></trkpt><trkpt lat="44.85722787980443" lon="9.598287862864339"><ele>430.0</ele><time>2026-05-03T15:02:40Z</time></trkpt><trkpt lat="44.857222062961235" lon="9.598452582514478"><ele>430.0</ele><time>2026-05-03T15:02:42Z</time></trkpt><trkpt lat="44.85724640915996" lon="9.598609516813568"><ele>430.0</ele><time>2026-05-03T15:02:44Z</time></trkpt><trkpt lat="44.85725940438383" lon="9.598725451261146"><ele>430.0</ele><time>2026-05-03T15:02:46Z</time></trkpt><trkpt lat="44.857235129896175" lon="9.598849023463343"><ele>430.0</ele><time>2026-05-03T15:02:48Z</time></trkpt><trkpt lat="44.85720872464944" lon="9.598994183977721"><ele>430.0</ele><time>2026-05-03T15:02:50Z</time></trkpt><trkpt lat="44.85718871304453" lon="9.599087607826883"><ele>430.0</ele><time>2026-05-03T15:02:52Z</time></trkpt><trkpt lat="44.85734027261446" lon="9.59918969795036"><ele>430.0</ele><time>2026-05-03T15:02:53Z</time></trkpt><trkpt lat="44.8573887832613" lon="9.599256082382032"><ele>430.0</ele><time>2026-05-03T15:02:54Z</time></trkpt><trkpt lat="44.85745060182763" lon="9.599381568008598"><ele>430.0</ele><time>2026-05-03T15:02:56Z</time></trkpt><trkpt lat="44.85748969084911" lon="9.599451528138518"><ele>429.6666666666667</ele><time>2026-05-03T15:02:57Z</time></trkpt><trkpt lat="44.85752807144631" lon="9.599534850438777"><ele>429.33333333333337</ele><time>2026-05-03T15:02:58Z</time></trkpt><trkpt lat="44.85757799660934" lon="9.599628072758655"><ele>429.0</ele><time>2026-05-03T15:02:59Z</time></trkpt><trkpt lat="44.85761427997651" lon="9.599708715965901"><ele>428.66666666666663</ele><time>2026-05-03T15:03:00Z</time></trkpt><trkpt lat="44.85765161056245" lon="9.59988909308291"><ele>428.3333333333333</ele><time>2026-05-03T15:03:02Z</time></trkpt><trkpt lat="44.85766779544942" lon="9.599997583783926"><ele>428.0</ele><time>2026-05-03T15:03:03Z</time></trkpt><trkpt lat="44.857680470299755" lon="9.600115805613743"><ele>428.0</ele><time>2026-05-03T15:03:04Z</time></trkpt><trkpt lat="44.85769173466091" lon="9.600237523331572"><ele>428.0</ele><time>2026-05-03T15:03:05Z</time></trkpt><trkpt lat="44.85776955145351" lon="9.60038527445808"><ele>428.0</ele><time>2026-05-03T15:03:06Z</time></trkpt><trkpt lat="44.85782131935145" lon="9.600528316233932"><ele>428.0</ele><time>2026-05-03T15:03:07Z</time></trkpt><trkpt lat="44.85786889738104" lon="9.600690815562555"><ele>428.0</ele><time>2026-05-03T15:03:08Z</time></trkpt><trkpt lat="44.85790649137981" lon="9.600852478810829"><ele>428.0</ele><time>2026-05-03T15:03:09Z</time></trkpt><trkpt lat="44.857929100733585" lon="9.601002392986803"><ele>428.0</ele><time>2026-05-03T15:03:10Z</time></trkpt><trkpt lat="44.857945389926066" lon="9.601151879377603"><ele>428.0</ele><time>2026-05-03T15:03:11Z</time></trkpt><trkpt lat="44.85796089682901" lon="9.601315919951126"><ele>428.0</ele><time>2026-05-03T15:03:12Z</time></trkpt><trkpt lat="44.8579792594488" lon="9.601468234789618"><ele>427.99999999999994</ele><time>2026-05-03T15:03:13Z</time></trkpt><trkpt lat="44.85801536757849" lon="9.601585757041704"><ele>427.99999999999994</ele><time>2026-05-03T15:03:14Z</time></trkpt><trkpt lat="44.85804288029289" lon="9.60171611265446"><ele>428.0</ele><time>2026-05-03T15:03:15Z</time></trkpt><trkpt lat="44.85807290835213" lon="9.601847063027906"><ele>428.0</ele><time>2026-05-03T15:03:16Z</time></trkpt><trkpt lat="44.858105865875686" lon="9.601987870113838"><ele>427.79999999999995</ele><time>2026-05-03T15:03:17Z</time></trkpt><trkpt lat="44.858131435126786" lon="9.602135171491488"><ele>427.59999999999997</ele><time>2026-05-03T15:03:17.999Z</time></trkpt><trkpt lat="44.8581888680067" lon="9.602254898790903"><ele>427.40000000000003</ele><time>2026-05-03T15:03:18.999Z</time></trkpt><trkpt lat="44.858229441293496" lon="9.602351942909"><ele>427.20000000000005</ele><time>2026-05-03T15:03:19.999Z</time></trkpt><trkpt lat="44.85835343124801" lon="9.602414887536012"><ele>427.0</ele><time>2026-05-03T15:03:21.999Z</time></trkpt><trkpt lat="44.85843032888154" lon="9.602412727552723"><ele>428.40000000000003</ele><time>2026-05-03T15:03:22.999Z</time></trkpt><trkpt lat="44.85850035326906" lon="9.602319621479529"><ele>429.80000000000007</ele><time>2026-05-03T15:03:23.999Z</time></trkpt><trkpt lat="44.858564342933434" lon="9.602237630232835"><ele>431.2</ele><time>2026-05-03T15:03:24.999Z</time></trkpt><trkpt lat="44.85863905793601" lon="9.60215661439232"><ele>432.6</ele><time>2026-05-03T15:03:25.999Z</time></trkpt><trkpt lat="44.85873114468362" lon="9.602111395635848"><ele>434.0</ele><time>2026-05-03T15:03:26.999Z</time></trkpt><trkpt lat="44.85882097248662" lon="9.60204563944491"><ele>435.6</ele><time>2026-05-03T15:03:27.999Z</time></trkpt><trkpt lat="44.85891104419257" lon="9.60197333506014"><ele>437.2</ele><time>2026-05-03T15:03:28.999Z</time></trkpt><trkpt lat="44.85900077023323" lon="9.601882640265222"><ele>438.80000000000007</ele><time>2026-05-03T15:03:29.999Z</time></trkpt><trkpt lat="44.85908485713156" lon="9.601783096526859"><ele>440.40000000000003</ele><time>2026-05-03T15:03:30.999Z</time></trkpt><trkpt lat="44.85917369733349" lon="9.601678256362202"><ele>442.0</ele><time>2026-05-03T15:03:31.999Z</time></trkpt><trkpt lat="44.85926827024088" lon="9.601571979891936"><ele>446.5</ele><time>2026-05-03T15:03:32.999Z</time></trkpt><trkpt lat="44.859374668988" lon="9.601452518685445"><ele>451.0</ele><time>2026-05-03T15:03:33.999Z</time></trkpt><trkpt lat="44.859481499897605" lon="9.601363183140126"><ele>455.5</ele><time>2026-05-03T15:03:34.999Z</time></trkpt><trkpt lat="44.85959465819145" lon="9.601292474705053"><ele>460.0</ele><time>2026-05-03T15:03:35.999Z</time></trkpt><trkpt lat="44.859708644228974" lon="9.601253121477564"><ele>460.0</ele><time>2026-05-03T15:03:36.999Z</time></trkpt><trkpt lat="44.85983098798327" lon="9.601202539074086"><ele>460.0</ele><time>2026-05-03T15:03:37.999Z</time></trkpt><trkpt lat="44.859923819815" lon="9.601114169886458"><ele>460.0</ele><time>2026-05-03T15:03:38.999Z</time></trkpt><trkpt lat="44.86000399339115" lon="9.601047982057677"><ele>460.0</ele><time>2026-05-03T15:03:39.999Z</time></trkpt><trkpt lat="44.86005947762343" lon="9.600959018397198"><ele>460.0</ele><time>2026-05-03T15:03:40.999Z</time></trkpt><trkpt lat="44.86005975217356" lon="9.60082477058128"><ele>459.5</ele><time>2026-05-03T15:03:41.999Z</time></trkpt><trkpt lat="44.86006448481011" lon="9.600678704952553"><ele>459.0</ele><time>2026-05-03T15:03:42.999Z</time></trkpt><trkpt lat="44.86006734908732" lon="9.600513688163895"><ele>458.5</ele><time>2026-05-03T15:03:43.999Z</time></trkpt><trkpt lat="44.86002260331671" lon="9.600356922881543"><ele>458.0</ele><time>2026-05-03T15:03:44.999Z</time></trkpt><trkpt lat="44.859995550248634" lon="9.600194411062478"><ele>459.25</ele><time>2026-05-03T15:03:46Z</time></trkpt><trkpt lat="44.85992903213176" lon="9.600050853463598"><ele>460.5</ele><time>2026-05-03T15:03:47Z</time></trkpt><trkpt lat="44.85985385567978" lon="9.599921367639409"><ele>461.75</ele><time>2026-05-03T15:03:48Z</time></trkpt><trkpt lat="44.85979054497138" lon="9.599790784050011"><ele>463.0</ele><time>2026-05-03T15:03:49Z</time></trkpt><trkpt lat="44.85973106955898" lon="9.59966853839805"><ele>463.0</ele><time>2026-05-03T15:03:50Z</time></trkpt><trkpt lat="44.859678492152995" lon="9.599538203562906"><ele>462.99999999999994</ele><time>2026-05-03T15:03:51Z</time></trkpt><trkpt lat="44.85965020073393" lon="9.599389259605454"><ele>462.99999999999994</ele><time>2026-05-03T15:03:52Z</time></trkpt><trkpt lat="44.85964088230077" lon="9.599234989722833"><ele>463.0</ele><time>2026-05-03T15:03:53Z</time></trkpt><trkpt lat="44.85965652937234" lon="9.599079591578432"><ele>463.0</ele><time>2026-05-03T15:03:54Z</time></trkpt><trkpt lat="44.859688071476725" lon="9.59892077921097"><ele>464.79999999999995</ele><time>2026-05-03T15:03:55Z</time></trkpt><trkpt lat="44.8597302897337" lon="9.598773712460531"><ele>466.59999999999997</ele><time>2026-05-03T15:03:56Z</time></trkpt><trkpt lat="44.859808343172716" lon="9.598681355186583"><ele>468.40000000000003</ele><time>2026-05-03T15:03:57Z</time></trkpt><trkpt lat="44.859895703480994" lon="9.598617886880403"><ele>470.20000000000005</ele><time>2026-05-03T15:03:58Z</time></trkpt><trkpt lat="44.85999235181773" lon="9.598528081691404"><ele>472.0</ele><time>2026-05-03T15:03:59Z</time></trkpt><trkpt lat="44.86010381270705" lon="9.59843151473843"><ele>476.25</ele><time>2026-05-03T15:04:00Z</time></trkpt><trkpt lat="44.86019882496068" lon="9.59833753316412"><ele>480.5</ele><time>2026-05-03T15:04:01Z</time></trkpt><trkpt lat="44.860279926593904" lon="9.598219206578536"><ele>484.75</ele><time>2026-05-03T15:04:02Z</time></trkpt><trkpt lat="44.860359513187106" lon="9.598077753725281"><ele>489.0</ele><time>2026-05-03T15:04:03Z</time></trkpt><trkpt lat="44.860446691745594" lon="9.597931304365051"><ele>486.25</ele><time>2026-05-03T15:04:04Z</time></trkpt><trkpt lat="44.86053235335311" lon="9.597795615907204"><ele>483.5</ele><time>2026-05-03T15:04:05Z</time></trkpt><trkpt lat="44.86060918709578" lon="9.597658436566668"><ele>480.75</ele><time>2026-05-03T15:04:06Z</time></trkpt><trkpt lat="44.86070272718148" lon="9.597538069605877"><ele>478.0</ele><time>2026-05-03T15:04:07Z</time></trkpt><trkpt lat="44.86079640153999" lon="9.59742860262014"><ele>478.0</ele><time>2026-05-03T15:04:08Z</time></trkpt><trkpt lat="44.86089299751577" lon="9.597312794947555"><ele>477.99999999999994</ele><time>2026-05-03T15:04:09Z</time></trkpt><trkpt lat="44.86099514734049" lon="9.597237444803298"><ele>477.99999999999994</ele><time>2026-05-03T15:04:10Z</time></trkpt><trkpt lat="44.86105641795709" lon="9.597156208925508"><ele>478.0</ele><time>2026-05-03T15:04:11Z</time></trkpt><trkpt lat="44.861139602763956" lon="9.597114421850533"><ele>478.0</ele><time>2026-05-03T15:04:12Z</time></trkpt><trkpt lat="44.861221539128614" lon="9.597022046493375"><ele>476.79999999999995</ele><time>2026-05-03T15:04:13Z</time></trkpt><trkpt lat="44.86130573328537" lon="9.596958221204213"><ele>475.59999999999997</ele><time>2026-05-03T15:04:14Z</time></trkpt><trkpt lat="44.8613853980431" lon="9.59689089837989"><ele>474.40000000000003</ele><time>2026-05-03T15:04:15Z</time></trkpt><trkpt lat="44.86146239874712" lon="9.596815732575722"><ele>473.20000000000005</ele><time>2026-05-03T15:04:16Z</time></trkpt><trkpt lat="44.86155029446565" lon="9.596728747457389"><ele>472.0</ele><time>2026-05-03T15:04:17Z</time></trkpt><trkpt lat="44.86164457132429" lon="9.596633408706044"><ele>472.0</ele><time>2026-05-03T15:04:18Z</time></trkpt><trkpt lat="44.86174172800615" lon="9.596529813971102"><ele>472.00000000000006</ele><time>2026-05-03T15:04:19Z</time></trkpt><trkpt lat="44.86184280199205" lon="9.596447857898362"><ele>472.00000000000006</ele><time>2026-05-03T15:04:20Z</time></trkpt><trkpt lat="44.86192951681929" lon="9.596355423512524"><ele>472.0</ele><time>2026-05-03T15:04:21Z</time></trkpt><trkpt lat="44.861998603611255" lon="9.596251981353475"><ele>472.0</ele><time>2026-05-03T15:04:22Z</time></trkpt><trkpt lat="44.86206251796208" lon="9.596160172821874"><ele>470.8</ele><time>2026-05-03T15:04:23Z</time></trkpt><trkpt lat="44.862099802935525" lon="9.596053359047536"><ele>469.6</ele><time>2026-05-03T15:04:24Z</time></trkpt><trkpt lat="44.862110673228294" lon="9.595932139353824"><ele>468.40000000000003</ele><time>2026-05-03T15:04:25Z</time></trkpt><trkpt lat="44.86210778014231" lon="9.595787723329055"><ele>467.20000000000005</ele><time>2026-05-03T15:04:26Z</time></trkpt><trkpt lat="44.862125747538116" lon="9.595632712784763"><ele>466.0</ele><time>2026-05-03T15:04:27Z</time></trkpt><trkpt lat="44.86219289377435" lon="9.595533627868772"><ele>466.0</ele><time>2026-05-03T15:04:28Z</time></trkpt><trkpt lat="44.86226165366675" lon="9.595447188886622"><ele>466.0</ele><time>2026-05-03T15:04:29Z</time></trkpt><trkpt lat="44.862346719607714" lon="9.59538745773036"><ele>466.0</ele><time>2026-05-03T15:04:30Z</time></trkpt><trkpt lat="44.86244002201265" lon="9.595362197854175"><ele>466.0</ele><time>2026-05-03T15:04:31Z</time></trkpt><trkpt lat="44.86253803229719" lon="9.595342491780407"><ele>466.0</ele><time>2026-05-03T15:04:32Z</time></trkpt><trkpt lat="44.86265933922392" lon="9.595335605727358"><ele>469.0</ele><time>2026-05-03T15:04:33Z</time></trkpt><trkpt lat="44.862764157211835" lon="9.595366946242626"><ele>472.0</ele><time>2026-05-03T15:04:34Z</time></trkpt><trkpt lat="44.862859047356004" lon="9.595418986948923"><ele>475.0</ele><time>2026-05-03T15:04:35Z</time></trkpt><trkpt lat="44.86295825627287" lon="9.595476863910928"><ele>478.0</ele><time>2026-05-03T15:04:36Z</time></trkpt><trkpt lat="44.86306263939135" lon="9.595553683375378"><ele>481.0</ele><time>2026-05-03T15:04:37Z</time></trkpt><trkpt lat="44.86316678259203" lon="9.595641464729562"><ele>481.0</ele><time>2026-05-03T15:04:38Z</time></trkpt><trkpt lat="44.86324764340699" lon="9.595779695228961"><ele>481.0</ele><time>2026-05-03T15:04:39Z</time></trkpt><trkpt lat="44.863347567955884" lon="9.595896234960371"><ele>481.0</ele><time>2026-05-03T15:04:40Z</time></trkpt><trkpt lat="44.86343223527145" lon="9.596030644707804"><ele>481.0</ele><time>2026-05-03T15:04:41Z</time></trkpt><trkpt lat="44.86352422883263" lon="9.596152293282401"><ele>482.6</ele><time>2026-05-03T15:04:42Z</time></trkpt><trkpt lat="44.86361575716779" lon="9.596243926213727"><ele>484.20000000000005</ele><time>2026-05-03T15:04:43Z</time></trkpt><trkpt lat="44.86370551526396" lon="9.596249827795958"><ele>485.79999999999995</ele><time>2026-05-03T15:04:44Z</time></trkpt><trkpt lat="44.863796776428686" lon="9.596274802775328"><ele>487.4</ele><time>2026-05-03T15:04:45Z</time></trkpt><trkpt lat="44.86390352849789" lon="9.596191844723315"><ele>489.0</ele><time>2026-05-03T15:04:46Z</time></trkpt><trkpt lat="44.864000531116645" lon="9.596120626059427"><ele>489.0</ele><time>2026-05-03T15:04:47Z</time></trkpt><trkpt lat="44.86412317557445" lon="9.596092614330253"><ele>489.0</ele><time>2026-05-03T15:04:48Z</time></trkpt><trkpt lat="44.864238105784686" lon="9.596088105689942"><ele>489.0</ele><time>2026-05-03T15:04:49Z</time></trkpt><trkpt lat="44.86435661493648" lon="9.596127003016285"><ele>489.0</ele><time>2026-05-03T15:04:50Z</time></trkpt><trkpt lat="44.864479159215215" lon="9.59614867524754"><ele>489.25</ele><time>2026-05-03T15:04:51Z</time></trkpt><trkpt lat="44.86459801355891" lon="9.596116174767248"><ele>489.5</ele><time>2026-05-03T15:04:52Z</time></trkpt><trkpt lat="44.864713330067836" lon="9.596058908297923"><ele>489.75</ele><time>2026-05-03T15:04:53Z</time></trkpt><trkpt lat="44.864819462943174" lon="9.595956179695643"><ele>490.0</ele><time>2026-05-03T15:04:54Z</time></trkpt><trkpt lat="44.86492667071239" lon="9.595865148177861"><ele>490.0</ele><time>2026-05-03T15:04:55Z</time></trkpt><trkpt lat="44.86504275366087" lon="9.595862582869087"><ele>490.0</ele><time>2026-05-03T15:04:56Z</time></trkpt><trkpt lat="44.865135453941456" lon="9.595817413070638"><ele>490.0</ele><time>2026-05-03T15:04:57Z</time></trkpt><trkpt lat="44.865209429323365" lon="9.59576374977532"><ele>490.0</ele><time>2026-05-03T15:04:58Z</time></trkpt><trkpt lat="44.86528598814396" lon="9.595689261077544"><ele>490.0</ele><time>2026-05-03T15:04:59Z</time></trkpt><trkpt lat="44.865336308139916" lon="9.5955648743902"><ele>488.75</ele><time>2026-05-03T15:05:00Z</time></trkpt><trkpt lat="44.86538597092394" lon="9.595407458997874"><ele>487.5</ele><time>2026-05-03T15:05:01Z</time></trkpt><trkpt lat="44.86542742642537" lon="9.595258282555845"><ele>486.25</ele><time>2026-05-03T15:05:02Z</time></trkpt><trkpt lat="44.86546128595588" lon="9.595112209775792"><ele>485.0</ele><time>2026-05-03T15:05:03Z</time></trkpt><trkpt lat="44.86549514349123" lon="9.594960795569165"><ele>485.0</ele><time>2026-05-03T15:05:04Z</time></trkpt><trkpt lat="44.865530426504534" lon="9.594817602466605"><ele>485.0</ele><time>2026-05-03T15:05:05Z</time></trkpt><trkpt lat="44.86558458567824" lon="9.594673580755435"><ele>485.0</ele><time>2026-05-03T15:05:06Z</time></trkpt><trkpt lat="44.86564850324629" lon="9.594543361302996"><ele>485.0</ele><time>2026-05-03T15:05:07Z</time></trkpt><trkpt lat="44.86572714866418" lon="9.594429546545179"><ele>485.0</ele><time>2026-05-03T15:05:08Z</time></trkpt><trkpt lat="44.86580287226689" lon="9.594313407432344"><ele>486.4</ele><time>2026-05-03T15:05:09Z</time></trkpt><trkpt lat="44.865870422554764" lon="9.59420059803564"><ele>487.8</ele><time>2026-05-03T15:05:10Z</time></trkpt><trkpt lat="44.865939692971715" lon="9.594080605375758"><ele>489.20000000000005</ele><time>2026-05-03T15:05:11Z</time></trkpt><trkpt lat="44.86599289750514" lon="9.59395782592992"><ele>490.6</ele><time>2026-05-03T15:05:12Z</time></trkpt><trkpt lat="44.86601853740804" lon="9.593829696865896"><ele>492.0</ele><time>2026-05-03T15:05:13Z</time></trkpt><trkpt lat="44.86600722314763" lon="9.59369225729954"><ele>493.8</ele><time>2026-05-03T15:05:14Z</time></trkpt><trkpt lat="44.865994350601824" lon="9.593546613947606"><ele>495.6</ele><time>2026-05-03T15:05:15Z</time></trkpt><trkpt lat="44.865996442923226" lon="9.593396312738975"><ele>497.40000000000003</ele><time>2026-05-03T15:05:16Z</time></trkpt><trkpt lat="44.866017684776" lon="9.593252890856828"><ele>499.20000000000005</ele><time>2026-05-03T15:05:17Z</time></trkpt><trkpt lat="44.8660402148022" lon="9.593109772017687"><ele>501.0</ele><time>2026-05-03T15:05:18Z</time></trkpt><trkpt lat="44.866052670412046" lon="9.592949888349803"><ele>502.6</ele><time>2026-05-03T15:05:19Z</time></trkpt><trkpt lat="44.866063096764215" lon="9.592785828854655"><ele>504.20000000000005</ele><time>2026-05-03T15:05:20Z</time></trkpt><trkpt lat="44.86606884199979" lon="9.592632259417922"><ele>505.79999999999995</ele><time>2026-05-03T15:05:21Z</time></trkpt><trkpt lat="44.86609752084196" lon="9.592482679492399"><ele>507.4</ele><time>2026-05-03T15:05:22Z</time></trkpt><trkpt lat="44.86616026303269" lon="9.592363261569043"><ele>509.0</ele><time>2026-05-03T15:05:23Z</time></trkpt><trkpt lat="44.8662407133169" lon="9.592259245770158"><ele>509.0</ele><time>2026-05-03T15:05:24Z</time></trkpt><trkpt lat="44.86633891573938" lon="9.5921654001903"><ele>509.0</ele><time>2026-05-03T15:05:25Z</time></trkpt><trkpt lat="44.866443983917605" lon="9.592115403390574"><ele>509.0</ele><time>2026-05-03T15:05:26Z</time></trkpt><trkpt lat="44.866522379355466" lon="9.592064915080284"><ele>509.0</ele><time>2026-05-03T15:05:27Z</time></trkpt><trkpt lat="44.866607807941115" lon="9.592107205585922"><ele>509.0</ele><time>2026-05-03T15:05:28Z</time></trkpt><trkpt lat="44.86669705858547" lon="9.592085751935693"><ele>509.0</ele><time>2026-05-03T15:05:28.999Z</time></trkpt><trkpt lat="44.86676699236639" lon="9.59208401910772"><ele>509.0</ele><time>2026-05-03T15:05:29.999Z</time></trkpt><trkpt lat="44.86685863198434" lon="9.592061250112495"><ele>509.0</ele><time>2026-05-03T15:05:31.999Z</time></trkpt><trkpt lat="44.866930026305575" lon="9.592175270540103"><ele>509.0</ele><time>2026-05-03T15:05:33.999Z</time></trkpt><trkpt lat="44.866926471308346" lon="9.592332878264557"><ele>509.0</ele><time>2026-05-03T15:05:35.999Z</time></trkpt><trkpt lat="44.866939499266884" lon="9.592430812190226"><ele>509.16666666666663</ele><time>2026-05-03T15:05:36.999Z</time></trkpt><trkpt lat="44.86695443356816" lon="9.592534147884203"><ele>509.3333333333333</ele><time>2026-05-03T15:05:37.999Z</time></trkpt><trkpt lat="44.866975099516274" lon="9.592651629526502"><ele>509.5</ele><time>2026-05-03T15:05:38.999Z</time></trkpt><trkpt lat="44.86700438899086" lon="9.592775917670393"><ele>509.66666666666663</ele><time>2026-05-03T15:05:39.999Z</time></trkpt><trkpt lat="44.867040762276325" lon="9.592896247487868"><ele>509.8333333333333</ele><time>2026-05-03T15:05:40.999Z</time></trkpt><trkpt lat="44.867082755390356" lon="9.593016020005168"><ele>510.0</ele><time>2026-05-03T15:05:41.999Z</time></trkpt><trkpt lat="44.86714500137291" lon="9.59311724633943"><ele>510.6</ele><time>2026-05-03T15:05:42.999Z</time></trkpt><trkpt lat="44.867201803114185" lon="9.593219055559274"><ele>511.2</ele><time>2026-05-03T15:05:43.999Z</time></trkpt><trkpt lat="44.86726531058173" lon="9.593291095129484"><ele>511.79999999999995</ele><time>2026-05-03T15:05:44.999Z</time></trkpt><trkpt lat="44.86734462112184" lon="9.59336041674616"><ele>512.4</ele><time>2026-05-03T15:05:45.999Z</time></trkpt><trkpt lat="44.86742566908922" lon="9.593414767037423"><ele>513.0</ele><time>2026-05-03T15:05:46.999Z</time></trkpt><trkpt lat="44.86752387036304" lon="9.59347081741973"><ele>511.79999999999995</ele><time>2026-05-03T15:05:47.999Z</time></trkpt><trkpt lat="44.86761887302411" lon="9.593503107527724"><ele>510.59999999999997</ele><time>2026-05-03T15:05:48.999Z</time></trkpt><trkpt lat="44.86771921137612" lon="9.59351609826412"><ele>509.40000000000003</ele><time>2026-05-03T15:05:49.999Z</time></trkpt><trkpt lat="44.86781439007592" lon="9.593522755101619"><ele>508.20000000000005</ele><time>2026-05-03T15:05:50.999Z</time></trkpt><trkpt lat="44.86790137641974" lon="9.59352779729494"><ele>507.0</ele><time>2026-05-03T15:05:52Z</time></trkpt><trkpt lat="44.86800002446989" lon="9.59353995578063"><ele>507.0</ele><time>2026-05-03T15:05:53Z</time></trkpt><trkpt lat="44.868107374643735" lon="9.593559930540325"><ele>507.00000000000006</ele><time>2026-05-03T15:05:54Z</time></trkpt><trkpt lat="44.86820746351816" lon="9.593575148048343"><ele>507.00000000000006</ele><time>2026-05-03T15:05:55Z</time></trkpt><trkpt lat="44.86829564431565" lon="9.593609821467375"><ele>507.0</ele><time>2026-05-03T15:05:56Z</time></trkpt><trkpt lat="44.868371085750674" lon="9.593639274581454"><ele>507.0</ele><time>2026-05-03T15:05:57Z</time></trkpt><trkpt lat="44.86844904841856" lon="9.593684452611415"><ele>506.8333333333333</ele><time>2026-05-03T15:05:58Z</time></trkpt><trkpt lat="44.868511610752364" lon="9.593734595478457"><ele>506.66666666666663</ele><time>2026-05-03T15:05:59Z</time></trkpt><trkpt lat="44.8685647408874" lon="9.593793272069629"><ele>506.5</ele><time>2026-05-03T15:06:00Z</time></trkpt><trkpt lat="44.86861756486895" lon="9.593869853093235"><ele>506.3333333333333</ele><time>2026-05-03T15:06:01Z</time></trkpt><trkpt lat="44.868669351474225" lon="9.593949217731435"><ele>506.16666666666663</ele><time>2026-05-03T15:06:02Z</time></trkpt><trkpt lat="44.86872335386508" lon="9.594039591455171"><ele>506.0</ele><time>2026-05-03T15:06:03Z</time></trkpt><trkpt lat="44.868778663598874" lon="9.594136228172161"><ele>505.99999999999994</ele><time>2026-05-03T15:06:04Z</time></trkpt><trkpt lat="44.86882979155904" lon="9.594236670053181"><ele>506.0</ele><time>2026-05-03T15:06:05Z</time></trkpt><trkpt lat="44.868873505296264" lon="9.594329286802722"><ele>506.0</ele><time>2026-05-03T15:06:06Z</time></trkpt><trkpt lat="44.86892001201415" lon="9.594431259659409"><ele>506.0</ele><time>2026-05-03T15:06:07Z</time></trkpt><trkpt lat="44.86896871205025" lon="9.59453282531841"><ele>505.99999999999994</ele><time>2026-05-03T15:06:08Z</time></trkpt><trkpt lat="44.86903705024724" lon="9.59461906180245"><ele>506.0</ele><time>2026-05-03T15:06:09Z</time></trkpt><trkpt lat="44.86910070995083" lon="9.594724494896589"><ele>506.0</ele><time>2026-05-03T15:06:10Z</time></trkpt><trkpt lat="44.869157962098356" lon="9.594820101601295"><ele>506.0</ele><time>2026-05-03T15:06:11Z</time></trkpt><trkpt lat="44.8692237707046" lon="9.59490998533436"><ele>506.0</ele><time>2026-05-03T15:06:12Z</time></trkpt><trkpt lat="44.86930284811468" lon="9.594990332803027"><ele>506.0</ele><time>2026-05-03T15:06:13Z</time></trkpt><trkpt lat="44.86938328256226" lon="9.595093942420913"><ele>506.0</ele><time>2026-05-03T15:06:14Z</time></trkpt><trkpt lat="44.86948360135646" lon="9.59520149702646"><ele>506.0</ele><time>2026-05-03T15:06:15Z</time></trkpt><trkpt lat="44.86959360288271" lon="9.595295533062739"><ele>506.0</ele><time>2026-05-03T15:06:16Z</time></trkpt><trkpt lat="44.869707719627115" lon="9.595390556181528"><ele>506.0</ele><time>2026-05-03T15:06:17Z</time></trkpt><trkpt lat="44.86982028330878" lon="9.595470126426573"><ele>506.0</ele><time>2026-05-03T15:06:18Z</time></trkpt><trkpt lat="44.86993165500566" lon="9.595579732026392"><ele>507.0</ele><time>2026-05-03T15:06:19Z</time></trkpt><trkpt lat="44.870047301882664" lon="9.595650423843137"><ele>508.0</ele><time>2026-05-03T15:06:20Z</time></trkpt><trkpt lat="44.87017923192446" lon="9.595691770701233"><ele>509.0</ele><time>2026-05-03T15:06:21Z</time></trkpt><trkpt lat="44.87029524429095" lon="9.595733112523948"><ele>510.0</ele><time>2026-05-03T15:06:22Z</time></trkpt><trkpt lat="44.87040122292238" lon="9.595769895186315"><ele>510.0</ele><time>2026-05-03T15:06:23Z</time></trkpt><trkpt lat="44.87051311898351" lon="9.59581525366472"><ele>510.0</ele><time>2026-05-03T15:06:24Z</time></trkpt><trkpt lat="44.87062372509173" lon="9.59586323576187"><ele>510.0</ele><time>2026-05-03T15:06:25Z</time></trkpt><trkpt lat="44.87073814009835" lon="9.595902735797889"><ele>510.0</ele><time>2026-05-03T15:06:26Z</time></trkpt><trkpt lat="44.870846874431976" lon="9.59594862482256"><ele>508.0</ele><time>2026-05-03T15:06:27Z</time></trkpt><trkpt lat="44.87095769258404" lon="9.596002173573375"><ele>506.0</ele><time>2026-05-03T15:06:28Z</time></trkpt><trkpt lat="44.87107222476372" lon="9.596059974340532"><ele>504.0</ele><time>2026-05-03T15:06:29Z</time></trkpt><trkpt lat="44.871178415853336" lon="9.596110617106659"><ele>502.0</ele><time>2026-05-03T15:06:30Z</time></trkpt><trkpt lat="44.87127625468622" lon="9.596161460205899"><ele>504.25</ele><time>2026-05-03T15:06:31Z</time></trkpt><trkpt lat="44.87137944084613" lon="9.596230562059992"><ele>506.5</ele><time>2026-05-03T15:06:32Z</time></trkpt><trkpt lat="44.871488598155246" lon="9.596319388411109"><ele>508.75</ele><time>2026-05-03T15:06:33Z</time></trkpt><trkpt lat="44.871593855622784" lon="9.596427254955799"><ele>511.0</ele><time>2026-05-03T15:06:34Z</time></trkpt><trkpt lat="44.87171577575209" lon="9.596517972540557"><ele>506.5</ele><time>2026-05-03T15:06:35Z</time></trkpt><trkpt lat="44.87180802819442" lon="9.596653461290853"><ele>502.0</ele><time>2026-05-03T15:06:36Z</time></trkpt><trkpt lat="44.87191246517011" lon="9.5967435781502"><ele>497.5</ele><time>2026-05-03T15:06:37Z</time></trkpt><trkpt lat="44.872012930874405" lon="9.596857219238085"><ele>493.0</ele><time>2026-05-03T15:06:38Z</time></trkpt><trkpt lat="44.87208602896858" lon="9.596990754427255"><ele>495.0</ele><time>2026-05-03T15:06:39Z</time></trkpt><trkpt lat="44.872178756126566" lon="9.597100439621235"><ele>497.0</ele><time>2026-05-03T15:06:40Z</time></trkpt><trkpt lat="44.87227201818991" lon="9.59721246015594"><ele>499.0</ele><time>2026-05-03T15:06:41Z</time></trkpt><trkpt lat="44.87237062955428" lon="9.597332464407144"><ele>501.0</ele><time>2026-05-03T15:06:42Z</time></trkpt><trkpt lat="44.87248193531801" lon="9.597467333730958"><ele>501.0</ele><time>2026-05-03T15:06:43Z</time></trkpt><trkpt lat="44.87260580823873" lon="9.597611532971381"><ele>501.0</ele><time>2026-05-03T15:06:44Z</time></trkpt><trkpt lat="44.87272154547094" lon="9.597748164644837"><ele>501.0</ele><time>2026-05-03T15:06:45Z</time></trkpt><trkpt lat="44.8728144417432" lon="9.597858525963291"><ele>501.0</ele><time>2026-05-03T15:06:46Z</time></trkpt><trkpt lat="44.87290549706928" lon="9.597967802890585"><ele>501.25</ele><time>2026-05-03T15:06:47Z</time></trkpt><trkpt lat="44.87300452759255" lon="9.598086650671695"><ele>501.5</ele><time>2026-05-03T15:06:48Z</time></trkpt><trkpt lat="44.87309503857521" lon="9.598195274098325"><ele>501.75</ele><time>2026-05-03T15:06:49Z</time></trkpt><trkpt lat="44.873186001995876" lon="9.598306524489622"><ele>502.0</ele><time>2026-05-03T15:06:50Z</time></trkpt><trkpt lat="44.8732763524837" lon="9.598422977291179"><ele>502.0</ele><time>2026-05-03T15:06:51Z</time></trkpt><trkpt lat="44.873353291486914" lon="9.598522951189869"><ele>502.00000000000006</ele><time>2026-05-03T15:06:52Z</time></trkpt><trkpt lat="44.873427480484935" lon="9.59859589632327"><ele>502.00000000000006</ele><time>2026-05-03T15:06:53Z</time></trkpt><trkpt lat="44.87349066302705" lon="9.598677851068926"><ele>502.0</ele><time>2026-05-03T15:06:54Z</time></trkpt><trkpt lat="44.873561846693775" lon="9.598765497205541"><ele>502.0</ele><time>2026-05-03T15:06:55Z</time></trkpt><trkpt lat="44.873627929483284" lon="9.598836430622827"><ele>501.8</ele><time>2026-05-03T15:06:56Z</time></trkpt><trkpt lat="44.87369368227895" lon="9.598908588012222"><ele>501.6</ele><time>2026-05-03T15:06:57Z</time></trkpt><trkpt lat="44.873774689763366" lon="9.598992466835599"><ele>501.40000000000003</ele><time>2026-05-03T15:06:58Z</time></trkpt><trkpt lat="44.87385826050911" lon="9.5990800009111"><ele>501.20000000000005</ele><time>2026-05-03T15:06:59Z</time></trkpt><trkpt lat="44.873943274129374" lon="9.599171178618953"><ele>501.0</ele><time>2026-05-03T15:07:00Z</time></trkpt><trkpt lat="44.87402366828445" lon="9.599268472248824"><ele>501.0</ele><time>2026-05-03T15:07:01Z</time></trkpt><trkpt lat="44.87410084480778" lon="9.599362091982362"><ele>501.0</ele><time>2026-05-03T15:07:02Z</time></trkpt><trkpt lat="44.87416774959376" lon="9.599464627027196"><ele>501.0</ele><time>2026-05-03T15:07:03Z</time></trkpt><trkpt lat="44.87421393036617" lon="9.599581436294292"><ele>501.0</ele><time>2026-05-03T15:07:04Z</time></trkpt><trkpt lat="44.8742503594828" lon="9.599715416620707"><ele>501.0</ele><time>2026-05-03T15:07:05Z</time></trkpt><trkpt lat="44.874287030292834" lon="9.59985624487993"><ele>502.0</ele><time>2026-05-03T15:07:06Z</time></trkpt><trkpt lat="44.87432544326687" lon="9.599997094033304"><ele>503.0</ele><time>2026-05-03T15:07:07Z</time></trkpt><trkpt lat="44.87439717863158" lon="9.600106005463454"><ele>504.0</ele><time>2026-05-03T15:07:08Z</time></trkpt><trkpt lat="44.874463697745995" lon="9.600227973643376"><ele>505.0</ele><time>2026-05-03T15:07:09Z</time></trkpt><trkpt lat="44.874531627542275" lon="9.600353030605527"><ele>506.0</ele><time>2026-05-03T15:07:10Z</time></trkpt><trkpt lat="44.87459409749402" lon="9.600477443779843"><ele>506.0</ele><time>2026-05-03T15:07:11Z</time></trkpt><trkpt lat="44.874663747304446" lon="9.60058844820478"><ele>506.0</ele><time>2026-05-03T15:07:12Z</time></trkpt><trkpt lat="44.87473093297766" lon="9.600704339563785"><ele>506.0</ele><time>2026-05-03T15:07:13Z</time></trkpt><trkpt lat="44.874775562118735" lon="9.600832829015221"><ele>506.0</ele><time>2026-05-03T15:07:14Z</time></trkpt><trkpt lat="44.874826497442825" lon="9.60096095809912"><ele>506.0</ele><time>2026-05-03T15:07:15Z</time></trkpt><trkpt lat="44.87488051168711" lon="9.601079897155046"><ele>503.4</ele><time>2026-05-03T15:07:16Z</time></trkpt><trkpt lat="44.87491251038909" lon="9.60122570908448"><ele>500.8</ele><time>2026-05-03T15:07:17Z</time></trkpt><trkpt lat="44.87494776485722" lon="9.601380534254131"><ele>498.19999999999993</ele><time>2026-05-03T15:07:18Z</time></trkpt><trkpt lat="44.87498937150911" lon="9.601527096546516"><ele>495.59999999999997</ele><time>2026-05-03T15:07:19Z</time></trkpt><trkpt lat="44.87502217458892" lon="9.60167185434665"><ele>493.0</ele><time>2026-05-03T15:07:20Z</time></trkpt><trkpt lat="44.8750682372154" lon="9.601824139831713"><ele>493.0</ele><time>2026-05-03T15:07:21Z</time></trkpt><trkpt lat="44.87510131574273" lon="9.60196826441915"><ele>492.99999999999994</ele><time>2026-05-03T15:07:22Z</time></trkpt><trkpt lat="44.875135491357014" lon="9.602112464467034"><ele>492.99999999999994</ele><time>2026-05-03T15:07:23Z</time></trkpt><trkpt lat="44.875171702385764" lon="9.60226067728312"><ele>493.0</ele><time>2026-05-03T15:07:24Z</time></trkpt><trkpt lat="44.87520791767568" lon="9.602408288125275"><ele>493.0</ele><time>2026-05-03T15:07:25Z</time></trkpt><trkpt lat="44.87526361046064" lon="9.602541544694638"><ele>490.4</ele><time>2026-05-03T15:07:26Z</time></trkpt><trkpt lat="44.875313329638296" lon="9.602675203340933"><ele>487.79999999999995</ele><time>2026-05-03T15:07:27Z</time></trkpt><trkpt lat="44.875360948096414" lon="9.60280257210379"><ele>485.2</ele><time>2026-05-03T15:07:28Z</time></trkpt><trkpt lat="44.875422365079025" lon="9.602922856901941"><ele>482.6</ele><time>2026-05-03T15:07:29Z</time></trkpt><trkpt lat="44.87547474086374" lon="9.603036883703155"><ele>480.0</ele><time>2026-05-03T15:07:30Z</time></trkpt><trkpt lat="44.87552594762279" lon="9.6031495933874"><ele>479.6666666666667</ele><time>2026-05-03T15:07:31Z</time></trkpt><trkpt lat="44.875573337844905" lon="9.603259659123378"><ele>479.33333333333337</ele><time>2026-05-03T15:07:32Z</time></trkpt><trkpt lat="44.875592750153935" lon="9.603374148218178"><ele>479.0</ele><time>2026-05-03T15:07:33Z</time></trkpt><trkpt lat="44.87561696063891" lon="9.603479930867818"><ele>478.6666666666667</ele><time>2026-05-03T15:07:34Z</time></trkpt><trkpt lat="44.87563412456396" lon="9.603584986639545"><ele>478.33333333333337</ele><time>2026-05-03T15:07:35Z</time></trkpt><trkpt lat="44.87563405397132" lon="9.603719864891143"><ele>478.0</ele><time>2026-05-03T15:07:36Z</time></trkpt><trkpt lat="44.87561657721756" lon="9.60386428173487"><ele>476.5</ele><time>2026-05-03T15:07:37Z</time></trkpt><trkpt lat="44.87557883864173" lon="9.604013557214268"><ele>475.0</ele><time>2026-05-03T15:07:38Z</time></trkpt><trkpt lat="44.875513041607334" lon="9.604158655337223"><ele>473.5</ele><time>2026-05-03T15:07:39Z</time></trkpt><trkpt lat="44.875450215634885" lon="9.604310153580993"><ele>472.0</ele><time>2026-05-03T15:07:40Z</time></trkpt><trkpt lat="44.87536192005173" lon="9.604455986650937"><ele>470.6666666666667</ele><time>2026-05-03T15:07:41Z</time></trkpt><trkpt lat="44.87530334183183" lon="9.604665023573238"><ele>469.33333333333337</ele><time>2026-05-03T15:07:42Z</time></trkpt><trkpt lat="44.87526779995107" lon="9.604873424373029"><ele>468.0</ele><time>2026-05-03T15:07:43Z</time></trkpt><trkpt lat="44.875254295684535" lon="9.605089784836363"><ele>468.0</ele><time>2026-05-03T15:07:44Z</time></trkpt><trkpt lat="44.875261774790204" lon="9.605311322578407"><ele>468.0</ele><time>2026-05-03T15:07:44.999Z</time></trkpt><trkpt lat="44.87528833463913" lon="9.605519461992765"><ele>468.0</ele><time>2026-05-03T15:07:45.999Z</time></trkpt><trkpt lat="44.8753206719494" lon="9.605696459377233"><ele>468.0</ele><time>2026-05-03T15:07:46.999Z</time></trkpt><trkpt lat="44.875380803867586" lon="9.605841029717398"><ele>470.0</ele><time>2026-05-03T15:07:47.999Z</time></trkpt><trkpt lat="44.87546945519217" lon="9.605968905051935"><ele>472.0</ele><time>2026-05-03T15:07:48.999Z</time></trkpt><trkpt lat="44.875559685979255" lon="9.606106463906235"><ele>474.0</ele><time>2026-05-03T15:07:49.999Z</time></trkpt><trkpt lat="44.87564793378395" lon="9.606237651422914"><ele>476.0</ele><time>2026-05-03T15:07:50.999Z</time></trkpt><trkpt lat="44.87574839435597" lon="9.606386499136937"><ele>475.25</ele><time>2026-05-03T15:07:51.999Z</time></trkpt><trkpt lat="44.87582789394814" lon="9.60656584789598"><ele>474.5</ele><time>2026-05-03T15:07:52.999Z</time></trkpt><trkpt lat="44.87589657960051" lon="9.606748956679517"><ele>473.75</ele><time>2026-05-03T15:07:53.999Z</time></trkpt><trkpt lat="44.87597525675564" lon="9.606925544392853"><ele>473.0</ele><time>2026-05-03T15:07:54.999Z</time></trkpt><trkpt lat="44.87606796266003" lon="9.607064226740704"><ele>473.0</ele><time>2026-05-03T15:07:55.999Z</time></trkpt><trkpt lat="44.87617261980736" lon="9.607186851658389"><ele>473.0</ele><time>2026-05-03T15:07:56.999Z</time></trkpt><trkpt lat="44.876293646609334" lon="9.607315048571335"><ele>473.0</ele><time>2026-05-03T15:07:58Z</time></trkpt><trkpt lat="44.8763972232604" lon="9.607441774422945"><ele>473.0</ele><time>2026-05-03T15:07:59Z</time></trkpt><trkpt lat="44.876475444006026" lon="9.607561642277272"><ele>473.0</ele><time>2026-05-03T15:08:00Z</time></trkpt><trkpt lat="44.8765465265152" lon="9.607691005138506"><ele>473.0</ele><time>2026-05-03T15:08:01Z</time></trkpt><trkpt lat="44.87661199474029" lon="9.60783993134058"><ele>473.0</ele><time>2026-05-03T15:08:02Z</time></trkpt><trkpt lat="44.87667342962657" lon="9.608023731598959"><ele>473.0</ele><time>2026-05-03T15:08:03Z</time></trkpt><trkpt lat="44.8767243250955" lon="9.60822822905565"><ele>471.0</ele><time>2026-05-03T15:08:04Z</time></trkpt><trkpt lat="44.87681074865395" lon="9.60841337834851"><ele>469.0</ele><time>2026-05-03T15:08:05Z</time></trkpt><trkpt lat="44.87686850564174" lon="9.608581035001214"><ele>467.0</ele><time>2026-05-03T15:08:06Z</time></trkpt><trkpt lat="44.87692038622944" lon="9.608720924239595"><ele>465.0</ele><time>2026-05-03T15:08:07Z</time></trkpt><trkpt lat="44.87699320103196" lon="9.608860836239812"><ele>465.0</ele><time>2026-05-03T15:08:08Z</time></trkpt><trkpt lat="44.87707874591195" lon="9.60898076395594"><ele>465.0</ele><time>2026-05-03T15:08:09Z</time></trkpt><trkpt lat="44.877176945497254" lon="9.60908742472371"><ele>465.0</ele><time>2026-05-03T15:08:10Z</time></trkpt><trkpt lat="44.877286305148495" lon="9.609173631124607"><ele>465.0</ele><time>2026-05-03T15:08:11Z</time></trkpt><trkpt lat="44.87738719072563" lon="9.609242335883431"><ele>465.0</ele><time>2026-05-03T15:08:12Z</time></trkpt><trkpt lat="44.877486850638995" lon="9.609321078711"><ele>465.0</ele><time>2026-05-03T15:08:13Z</time></trkpt><trkpt lat="44.87759823051569" lon="9.609402418082933"><ele>465.0</ele><time>2026-05-03T15:08:14Z</time></trkpt><trkpt lat="44.87770278942657" lon="9.609462870814307"><ele>465.0</ele><time>2026-05-03T15:08:15Z</time></trkpt><trkpt lat="44.87780546430824" lon="9.609506541110143"><ele>463.2</ele><time>2026-05-03T15:08:16Z</time></trkpt><trkpt lat="44.877902735280905" lon="9.609563042598792"><ele>461.4</ele><time>2026-05-03T15:08:17Z</time></trkpt><trkpt lat="44.87798116222519" lon="9.60963872911603"><ele>459.6</ele><time>2026-05-03T15:08:18Z</time></trkpt><trkpt lat="44.878039790914656" lon="9.609733465448848"><ele>457.8</ele><time>2026-05-03T15:08:19Z</time></trkpt><trkpt lat="44.87806735921073" lon="9.609880160176965"><ele>456.0</ele><time>2026-05-03T15:08:20Z</time></trkpt><trkpt lat="44.878044353953925" lon="9.610034479848942"><ele>456.0</ele><time>2026-05-03T15:08:21Z</time></trkpt><trkpt lat="44.87801106054182" lon="9.610172749801004"><ele>456.0</ele><time>2026-05-03T15:08:22Z</time></trkpt><trkpt lat="44.877952874821" lon="9.61028776501556"><ele>456.0</ele><time>2026-05-03T15:08:23Z</time></trkpt><trkpt lat="44.87788185373058" lon="9.610410813825466"><ele>456.0</ele><time>2026-05-03T15:08:24Z</time></trkpt><trkpt lat="44.877781670007636" lon="9.610512644022672"><ele>456.0</ele><time>2026-05-03T15:08:25Z</time></trkpt><trkpt lat="44.87768489555274" lon="9.610632991291162"><ele>456.5</ele><time>2026-05-03T15:08:26Z</time></trkpt><trkpt lat="44.87758089684746" lon="9.610752931509143"><ele>457.0</ele><time>2026-05-03T15:08:27Z</time></trkpt><trkpt lat="44.87747597792963" lon="9.610879056077568"><ele>457.5</ele><time>2026-05-03T15:08:28Z</time></trkpt><trkpt lat="44.87737092680427" lon="9.611010330755512"><ele>458.0</ele><time>2026-05-03T15:08:29Z</time></trkpt><trkpt lat="44.877261604422564" lon="9.611144330484281"><ele>455.25</ele><time>2026-05-03T15:08:30Z</time></trkpt><trkpt lat="44.87719179183552" lon="9.611321932544168"><ele>452.5</ele><time>2026-05-03T15:08:31Z</time></trkpt><trkpt lat="44.87713237522649" lon="9.611492040862215"><ele>449.75</ele><time>2026-05-03T15:08:32Z</time></trkpt><trkpt lat="44.87706118777889" lon="9.611643479546755"><ele>447.0</ele><time>2026-05-03T15:08:33Z</time></trkpt><trkpt lat="44.87701039531016" lon="9.611789025841752"><ele>447.0</ele><time>2026-05-03T15:08:34Z</time></trkpt><trkpt lat="44.876964221656614" lon="9.61194016265906"><ele>447.0</ele><time>2026-05-03T15:08:35Z</time></trkpt><trkpt lat="44.876899606296796" lon="9.612084527117448"><ele>447.0</ele><time>2026-05-03T15:08:36Z</time></trkpt><trkpt lat="44.87681982610353" lon="9.612202129861497"><ele>447.0</ele><time>2026-05-03T15:08:37Z</time></trkpt><trkpt lat="44.87672696922938" lon="9.612325515916412"><ele>445.5</ele><time>2026-05-03T15:08:38Z</time></trkpt><trkpt lat="44.876636009352964" lon="9.612441029201705"><ele>444.0</ele><time>2026-05-03T15:08:39Z</time></trkpt><trkpt lat="44.8765504571321" lon="9.612547937782308"><ele>442.5</ele><time>2026-05-03T15:08:40Z</time></trkpt><trkpt lat="44.87644790276131" lon="9.612641965599135"><ele>441.0</ele><time>2026-05-03T15:08:41Z</time></trkpt><trkpt lat="44.876360479905614" lon="9.612748731708477"><ele>439.25</ele><time>2026-05-03T15:08:42Z</time></trkpt><trkpt lat="44.87627466251579" lon="9.612864790098572"><ele>437.5</ele><time>2026-05-03T15:08:43Z</time></trkpt><trkpt lat="44.87619733280865" lon="9.612996749515297"><ele>435.75</ele><time>2026-05-03T15:08:44Z</time></trkpt><trkpt lat="44.87614288691767" lon="9.613141841612554"><ele>434.0</ele><time>2026-05-03T15:08:45Z</time></trkpt><trkpt lat="44.87611820044771" lon="9.613302411568355"><ele>434.0</ele><time>2026-05-03T15:08:46Z</time></trkpt><trkpt lat="44.87609014332133" lon="9.613470719497313"><ele>434.0</ele><time>2026-05-03T15:08:47Z</time></trkpt><trkpt lat="44.87605582656608" lon="9.613641432534784"><ele>434.0</ele><time>2026-05-03T15:08:48Z</time></trkpt><trkpt lat="44.87604129347116" lon="9.61380079391516"><ele>434.0</ele><time>2026-05-03T15:08:49Z</time></trkpt><trkpt lat="44.876027821829844" lon="9.61394977686176"><ele>432.2</ele><time>2026-05-03T15:08:50Z</time></trkpt><trkpt lat="44.87601413602782" lon="9.614101128217683"><ele>430.4</ele><time>2026-05-03T15:08:51Z</time></trkpt><trkpt lat="44.876000871993085" lon="9.614247815787666"><ele>428.6</ele><time>2026-05-03T15:08:52Z</time></trkpt><trkpt lat="44.87598601923543" lon="9.614404682964393"><ele>426.8</ele><time>2026-05-03T15:08:53Z</time></trkpt><trkpt lat="44.87596889128157" lon="9.614574576181958"><ele>425.0</ele><time>2026-05-03T15:08:54Z</time></trkpt><trkpt lat="44.87595303844024" lon="9.614731821509979"><ele>426.0</ele><time>2026-05-03T15:08:55Z</time></trkpt><trkpt lat="44.87593826722182" lon="9.614878339128197"><ele>427.0</ele><time>2026-05-03T15:08:56Z</time></trkpt><trkpt lat="44.875922474429785" lon="9.61501811320346"><ele>428.0</ele><time>2026-05-03T15:08:57Z</time></trkpt><trkpt lat="44.87589585785605" lon="9.615151454586208"><ele>429.0</ele><time>2026-05-03T15:08:58Z</time></trkpt><trkpt lat="44.875845971287255" lon="9.61522188222081"><ele>430.0</ele><time>2026-05-03T15:08:59Z</time></trkpt><trkpt lat="44.87574695919216" lon="9.615269813957756"><ele>430.0</ele><time>2026-05-03T15:09:01Z</time></trkpt><trkpt lat="44.87565212926955" lon="9.615231552936017"><ele>430.0</ele><time>2026-05-03T15:09:02Z</time></trkpt><trkpt lat="44.87555296144482" lon="9.61519542256673"><ele>430.0</ele><time>2026-05-03T15:09:03Z</time></trkpt><trkpt lat="44.875450653570525" lon="9.61518667954471"><ele>430.0</ele><time>2026-05-03T15:09:04Z</time></trkpt><trkpt lat="44.87534434444806" lon="9.615216146887095"><ele>430.0</ele><time>2026-05-03T15:09:05Z</time></trkpt><trkpt lat="44.875243332732595" lon="9.615289080542416"><ele>429.5</ele><time>2026-05-03T15:09:06Z</time></trkpt><trkpt lat="44.87514707814444" lon="9.615380792747137"><ele>429.0</ele><time>2026-05-03T15:09:07Z</time></trkpt><trkpt lat="44.87505094017747" lon="9.615484108746138"><ele>428.5</ele><time>2026-05-03T15:09:08Z</time></trkpt><trkpt lat="44.87495797399457" lon="9.615590265509056"><ele>428.0</ele><time>2026-05-03T15:09:09Z</time></trkpt><trkpt lat="44.874876415299774" lon="9.615687060078384"><ele>427.99999999999994</ele><time>2026-05-03T15:09:10Z</time></trkpt><trkpt lat="44.87480161749447" lon="9.615783732057297"><ele>428.0</ele><time>2026-05-03T15:09:11Z</time></trkpt><trkpt lat="44.8747334756374" lon="9.615869609923642"><ele>428.0</ele><time>2026-05-03T15:09:12Z</time></trkpt><trkpt lat="44.87470439304259" lon="9.615953925605451"><ele>428.0</ele><time>2026-05-03T15:09:13Z</time></trkpt><trkpt lat="44.874691551362424" lon="9.616051186277792"><ele>427.99999999999994</ele><time>2026-05-03T15:09:14Z</time></trkpt><trkpt lat="44.87472468323499" lon="9.616158804389134"><ele>428.0</ele><time>2026-05-03T15:09:15Z</time></trkpt><trkpt lat="44.87482766556481" lon="9.616213515609127"><ele>427.99999999999994</ele><time>2026-05-03T15:09:16Z</time></trkpt><trkpt lat="44.87491273615027" lon="9.61620735916037"><ele>428.0</ele><time>2026-05-03T15:09:17Z</time></trkpt><trkpt lat="44.87498567237349" lon="9.616143234099377"><ele>428.0</ele><time>2026-05-03T15:09:18Z</time></trkpt><trkpt lat="44.875034598900854" lon="9.616041912271301"><ele>428.0</ele><time>2026-05-03T15:09:19Z</time></trkpt><trkpt lat="44.87507936292937" lon="9.615916634549126"><ele>427.99999999999994</ele><time>2026-05-03T15:09:20Z</time></trkpt><trkpt lat="44.875124162404894" lon="9.615806583616004"><ele>428.0</ele><time>2026-05-03T15:09:21Z</time></trkpt><trkpt lat="44.87518413621705" lon="9.61571320368716"><ele>426.59999999999997</ele><time>2026-05-03T15:09:22Z</time></trkpt><trkpt lat="44.87526057892356" lon="9.615663720601757"><ele>425.19999999999993</ele><time>2026-05-03T15:09:23Z</time></trkpt><trkpt lat="44.875352030872904" lon="9.615683465645956"><ele>423.8</ele><time>2026-05-03T15:09:24Z</time></trkpt><trkpt lat="44.875426702019915" lon="9.615771989659567"><ele>422.4</ele><time>2026-05-03T15:09:25Z</time></trkpt><trkpt lat="44.87549340533949" lon="9.615885444055"><ele>421.0</ele><time>2026-05-03T15:09:26Z</time></trkpt><trkpt lat="44.87557917905604" lon="9.61601146574475"><ele>418.75</ele><time>2026-05-03T15:09:27Z</time></trkpt><trkpt lat="44.87565139919012" lon="9.616156649477535"><ele>416.5</ele><time>2026-05-03T15:09:28Z</time></trkpt><trkpt lat="44.875706452121264" lon="9.616320620254333"><ele>414.25</ele><time>2026-05-03T15:09:29Z</time></trkpt><trkpt lat="44.87573097497682" lon="9.616476911489753"><ele>412.0</ele><time>2026-05-03T15:09:30Z</time></trkpt><trkpt lat="44.875737312179446" lon="9.616634465270236"><ele>412.0</ele><time>2026-05-03T15:09:31Z</time></trkpt><trkpt lat="44.87573574550035" lon="9.616793154741588"><ele>412.0</ele><time>2026-05-03T15:09:32Z</time></trkpt><trkpt lat="44.87575352898428" lon="9.61696685117703"><ele>412.0</ele><time>2026-05-03T15:09:33Z</time></trkpt><trkpt lat="44.87575093449136" lon="9.61715322484755"><ele>412.0</ele><time>2026-05-03T15:09:34Z</time></trkpt><trkpt lat="44.8757523631688" lon="9.617327964535164"><ele>410.8</ele><time>2026-05-03T15:09:35Z</time></trkpt><trkpt lat="44.875738118498184" lon="9.61748702894222"><ele>409.6</ele><time>2026-05-03T15:09:36Z</time></trkpt><trkpt lat="44.87575483576607" lon="9.617638968540511"><ele>408.40000000000003</ele><time>2026-05-03T15:09:37Z</time></trkpt><trkpt lat="44.875769922393076" lon="9.617783786435593"><ele>407.20000000000005</ele><time>2026-05-03T15:09:38Z</time></trkpt><trkpt lat="44.875818583006286" lon="9.617900729356004"><ele>406.0</ele><time>2026-05-03T15:09:39Z</time></trkpt><trkpt lat="44.87587996428629" lon="9.61800736788021"><ele>405.00000000000006</ele><time>2026-05-03T15:09:40Z</time></trkpt><trkpt lat="44.875940627588356" lon="9.618129631800395"><ele>404.0</ele><time>2026-05-03T15:09:41Z</time></trkpt><trkpt lat="44.87597552373967" lon="9.61824198119909"><ele>403.0</ele><time>2026-05-03T15:09:42Z</time></trkpt><trkpt lat="44.875988710852035" lon="9.618347912698734"><ele>402.0</ele><time>2026-05-03T15:09:42.999Z</time></trkpt><trkpt lat="44.875960369040584" lon="9.618442979821062"><ele>401.00000000000006</ele><time>2026-05-03T15:09:43.999Z</time></trkpt><trkpt lat="44.875900077650094" lon="9.618506272084034"><ele>400.0</ele><time>2026-05-03T15:09:44.999Z</time></trkpt><trkpt lat="44.875808920139356" lon="9.618507284371336"><ele>400.0</ele><time>2026-05-03T15:09:45.999Z</time></trkpt><trkpt lat="44.875721643437316" lon="9.618459484293814"><ele>400.0</ele><time>2026-05-03T15:09:46.999Z</time></trkpt><trkpt lat="44.87564137293953" lon="9.618378093924868"><ele>400.0</ele><time>2026-05-03T15:09:47.999Z</time></trkpt><trkpt lat="44.875563413411555" lon="9.618287860413762"><ele>400.0</ele><time>2026-05-03T15:09:48.999Z</time></trkpt><trkpt lat="44.875497088747196" lon="9.618182146629866"><ele>400.0</ele><time>2026-05-03T15:09:49.999Z</time></trkpt><trkpt lat="44.87546080951858" lon="9.618069022037497"><ele>400.0</ele><time>2026-05-03T15:09:50.999Z</time></trkpt><trkpt lat="44.87547418212642" lon="9.617939701409854"><ele>400.0</ele><time>2026-05-03T15:09:51.999Z</time></trkpt><trkpt lat="44.87549368297044" lon="9.617801770540195"><ele>400.0</ele><time>2026-05-03T15:09:52.999Z</time></trkpt><trkpt lat="44.87548391203567" lon="9.617636613953696"><ele>400.0</ele><time>2026-05-03T15:09:53.999Z</time></trkpt><trkpt lat="44.875426349577396" lon="9.617476520830444"><ele>400.0</ele><time>2026-05-03T15:09:54.999Z</time></trkpt><trkpt lat="44.87534640240345" lon="9.617343613144461"><ele>399.0</ele><time>2026-05-03T15:09:55.999Z</time></trkpt><trkpt lat="44.87526097965607" lon="9.617240246589345"><ele>398.0</ele><time>2026-05-03T15:09:56.999Z</time></trkpt><trkpt lat="44.875177660606205" lon="9.617162552284153"><ele>397.0</ele><time>2026-05-03T15:09:57.999Z</time></trkpt><trkpt lat="44.87509878032852" lon="9.617128170972736"><ele>396.0</ele><time>2026-05-03T15:09:58.999Z</time></trkpt><trkpt lat="44.87501790382754" lon="9.617136184410924"><ele>395.0</ele><time>2026-05-03T15:09:59.999Z</time></trkpt><trkpt lat="44.87494842031189" lon="9.617171675804682"><ele>395.0</ele><time>2026-05-03T15:10:00.999Z</time></trkpt><trkpt lat="44.87490189964091" lon="9.617274228740575"><ele>395.0</ele><time>2026-05-03T15:10:01.999Z</time></trkpt><trkpt lat="44.8748530147062" lon="9.61736590571257"><ele>395.0</ele><time>2026-05-03T15:10:02.999Z</time></trkpt><trkpt lat="44.87487211052724" lon="9.617524144382676"><ele>395.0</ele><time>2026-05-03T15:10:04Z</time></trkpt><trkpt lat="44.87488640646372" lon="9.617683603342758"><ele>395.0</ele><time>2026-05-03T15:10:05Z</time></trkpt><trkpt lat="44.87490256688339" lon="9.61785683529362"><ele>392.75</ele><time>2026-05-03T15:10:06Z</time></trkpt><trkpt lat="44.874914921032754" lon="9.618050939667274"><ele>390.5</ele><time>2026-05-03T15:10:07Z</time></trkpt><trkpt lat="44.87493861501218" lon="9.6182491949826"><ele>388.25</ele><time>2026-05-03T15:10:08Z</time></trkpt><trkpt lat="44.87493969933367" lon="9.61844726142867"><ele>386.0</ele><time>2026-05-03T15:10:09Z</time></trkpt><trkpt lat="44.87494942658754" lon="9.618638325170272"><ele>385.0</ele><time>2026-05-03T15:10:10Z</time></trkpt><trkpt lat="44.8749583314246" lon="9.618796549331357"><ele>384.0</ele><time>2026-05-03T15:10:11Z</time></trkpt><trkpt lat="44.874971712535185" lon="9.618952481714844"><ele>383.0</ele><time>2026-05-03T15:10:12Z</time></trkpt><trkpt lat="44.8749865792014" lon="9.619103983390751"><ele>382.0</ele><time>2026-05-03T15:10:13Z</time></trkpt><trkpt lat="44.87500078728754" lon="9.6192670929362"><ele>381.0</ele><time>2026-05-03T15:10:14Z</time></trkpt><trkpt lat="44.87502558983739" lon="9.61944176550035"><ele>382.5</ele><time>2026-05-03T15:10:15Z</time></trkpt><trkpt lat="44.87504496768867" lon="9.61962029665591"><ele>384.0</ele><time>2026-05-03T15:10:16Z</time></trkpt><trkpt lat="44.87506003509211" lon="9.619794566064165"><ele>385.5</ele><time>2026-05-03T15:10:17Z</time></trkpt><trkpt lat="44.87508587725183" lon="9.619964981038848"><ele>387.0</ele><time>2026-05-03T15:10:18Z</time></trkpt><trkpt lat="44.8751055484472" lon="9.620107162199135"><ele>387.0</ele><time>2026-05-03T15:10:19Z</time></trkpt><trkpt lat="44.875135164353736" lon="9.620301416615517"><ele>387.0</ele><time>2026-05-03T15:10:20Z</time></trkpt><trkpt lat="44.87515301690731" lon="9.620457758296276"><ele>387.0</ele><time>2026-05-03T15:10:21Z</time></trkpt><trkpt lat="44.87516289890208" lon="9.62061854628599"><ele>387.0</ele><time>2026-05-03T15:10:22Z</time></trkpt><trkpt lat="44.87519007009803" lon="9.620797824729761"><ele>384.5</ele><time>2026-05-03T15:10:23Z</time></trkpt><trkpt lat="44.8752387906997" lon="9.620968617407438"><ele>382.0</ele><time>2026-05-03T15:10:24Z</time></trkpt><trkpt lat="44.875290350955545" lon="9.62113073123705"><ele>379.5</ele><time>2026-05-03T15:10:25Z</time></trkpt><trkpt lat="44.87533480989548" lon="9.621285829997134"><ele>377.0</ele><time>2026-05-03T15:10:26Z</time></trkpt><trkpt lat="44.875389966323326" lon="9.621444012541723"><ele>374.0</ele><time>2026-05-03T15:10:27Z</time></trkpt><trkpt lat="44.87544571834127" lon="9.621607910934667"><ele>371.0</ele><time>2026-05-03T15:10:28Z</time></trkpt><trkpt lat="44.87549634197534" lon="9.621772308681157"><ele>368.0</ele><time>2026-05-03T15:10:29Z</time></trkpt><trkpt lat="44.87548482781049" lon="9.621936622783913"><ele>365.0</ele><time>2026-05-03T15:10:30Z</time></trkpt><trkpt lat="44.875467598683755" lon="9.622075756438647"><ele>363.2</ele><time>2026-05-03T15:10:31Z</time></trkpt><trkpt lat="44.87543397095918" lon="9.622198739405082"><ele>361.4</ele><time>2026-05-03T15:10:32Z</time></trkpt><trkpt lat="44.87539649195456" lon="9.622309530617606"><ele>359.6</ele><time>2026-05-03T15:10:33Z</time></trkpt><trkpt lat="44.875296246630995" lon="9.622326411338404"><ele>357.8</ele><time>2026-05-03T15:10:35Z</time></trkpt><trkpt lat="44.87523655407619" lon="9.62226976481777"><ele>356.0</ele><time>2026-05-03T15:10:36Z</time></trkpt><trkpt lat="44.87517197997832" lon="9.622149917881687"><ele>357.0</ele><time>2026-05-03T15:10:37Z</time></trkpt><trkpt lat="44.875111170806484" lon="9.621971658352624"><ele>358.0</ele><time>2026-05-03T15:10:38Z</time></trkpt><trkpt lat="44.87503791189558" lon="9.62177046263628"><ele>359.0</ele><time>2026-05-03T15:10:39Z</time></trkpt><trkpt lat="44.87495116311446" lon="9.62156860892757"><ele>359.0</ele><time>2026-05-03T15:10:40Z</time></trkpt><trkpt lat="44.87485718255266" lon="9.621354275034745"><ele>359.0</ele><time>2026-05-03T15:10:41Z</time></trkpt><trkpt lat="44.87474999748257" lon="9.621138801199674"><ele>359.0</ele><time>2026-05-03T15:10:42Z</time></trkpt><trkpt lat="44.874678064689974" lon="9.62097552456834"><ele>360.5</ele><time>2026-05-03T15:10:43Z</time></trkpt><trkpt lat="44.874609061993894" lon="9.620822172113675"><ele>362.0</ele><time>2026-05-03T15:10:44Z</time></trkpt><trkpt lat="44.874544833728386" lon="9.62067520316583"><ele>363.5</ele><time>2026-05-03T15:10:45Z</time></trkpt><trkpt lat="44.8744815377278" lon="9.620561928847634"><ele>365.0</ele><time>2026-05-03T15:10:46Z</time></trkpt><trkpt lat="44.87439985092756" lon="9.620453835055311"><ele>365.0</ele><time>2026-05-03T15:10:47Z</time></trkpt><trkpt lat="44.874327139923295" lon="9.620414994106124"><ele>365.0</ele><time>2026-05-03T15:10:48Z</time></trkpt><trkpt lat="44.87425430993628" lon="9.620430917298377"><ele>365.0</ele><time>2026-05-03T15:10:49Z</time></trkpt><trkpt lat="44.87417218904525" lon="9.620464602761963"><ele>365.0</ele><time>2026-05-03T15:10:50Z</time></trkpt><trkpt lat="44.87410891553828" lon="9.620583809314448"><ele>365.0</ele><time>2026-05-03T15:10:51Z</time></trkpt><trkpt lat="44.87409480522349" lon="9.620718171704233"><ele>365.0</ele><time>2026-05-03T15:10:52Z</time></trkpt><trkpt lat="44.87414187365534" lon="9.62087398359069"><ele>362.75</ele><time>2026-05-03T15:10:53Z</time></trkpt><trkpt lat="44.874184752485995" lon="9.621045593997275"><ele>360.5</ele><time>2026-05-03T15:10:54Z</time></trkpt><trkpt lat="44.87421946145785" lon="9.621229783677641"><ele>358.25</ele><time>2026-05-03T15:10:55Z</time></trkpt><trkpt lat="44.8742421398932" lon="9.621410408935311"><ele>356.0</ele><time>2026-05-03T15:10:56Z</time></trkpt><trkpt lat="44.87425355068135" lon="9.621615496287225"><ele>356.75</ele><time>2026-05-03T15:10:57Z</time></trkpt><trkpt lat="44.874285957648674" lon="9.621824752904171"><ele>357.5</ele><time>2026-05-03T15:10:58Z</time></trkpt><trkpt lat="44.874317348162194" lon="9.622030378576365"><ele>358.25</ele><time>2026-05-03T15:10:59Z</time></trkpt><trkpt lat="44.87435747034569" lon="9.622206804866082"><ele>359.0</ele><time>2026-05-03T15:11:00Z</time></trkpt><trkpt lat="44.87437852011038" lon="9.622384602118332"><ele>357.4</ele><time>2026-05-03T15:11:01Z</time></trkpt><trkpt lat="44.87440319813442" lon="9.622563890541054"><ele>355.79999999999995</ele><time>2026-05-03T15:11:02Z</time></trkpt><trkpt lat="44.87442511795922" lon="9.622719475577936"><ele>354.20000000000005</ele><time>2026-05-03T15:11:03Z</time></trkpt><trkpt lat="44.874449087911515" lon="9.622868270165345"><ele>352.6</ele><time>2026-05-03T15:11:04Z</time></trkpt><trkpt lat="44.874473520080485" lon="9.623002242496122"><ele>351.0</ele><time>2026-05-03T15:11:05Z</time></trkpt><trkpt lat="44.87450673853365" lon="9.623133559192176"><ele>348.8</ele><time>2026-05-03T15:11:06Z</time></trkpt><trkpt lat="44.87455670393521" lon="9.623248321084255"><ele>346.6</ele><time>2026-05-03T15:11:07Z</time></trkpt><trkpt lat="44.874636928875255" lon="9.62334117937664"><ele>344.4</ele><time>2026-05-03T15:11:08Z</time></trkpt><trkpt lat="44.87473633730114" lon="9.623427411603375"><ele>342.2</ele><time>2026-05-03T15:11:09Z</time></trkpt><trkpt lat="44.87483094724373" lon="9.623508754954106"><ele>340.0</ele><time>2026-05-03T15:11:10Z</time></trkpt><trkpt lat="44.87489993280214" lon="9.623596239787474"><ele>340.0</ele><time>2026-05-03T15:11:11Z</time></trkpt><trkpt lat="44.87496857300492" lon="9.623646970845556"><ele>340.0</ele><time>2026-05-03T15:11:12Z</time></trkpt><trkpt lat="44.87503141170134" lon="9.623772821865634"><ele>340.0</ele><time>2026-05-03T15:11:14Z</time></trkpt><trkpt lat="44.87495499426031" lon="9.623974347658992"><ele>340.0</ele><time>2026-05-03T15:11:16Z</time></trkpt><trkpt lat="44.87494081912879" lon="9.624093195155767"><ele>340.0</ele><time>2026-05-03T15:11:17Z</time></trkpt><trkpt lat="44.87495834610689" lon="9.624222590191335"><ele>339.5</ele><time>2026-05-03T15:11:18Z</time></trkpt><trkpt lat="44.874969651155205" lon="9.624320837493228"><ele>339.0</ele><time>2026-05-03T15:11:19Z</time></trkpt><trkpt lat="44.87502467850664" lon="9.624458540426767"><ele>338.5</ele><time>2026-05-03T15:11:21Z</time></trkpt><trkpt lat="44.87505605655753" lon="9.624542274541724"><ele>338.0</ele><time>2026-05-03T15:11:22Z</time></trkpt><trkpt lat="44.87509644441043" lon="9.624627238916194"><ele>337.5</ele><time>2026-05-03T15:11:23Z</time></trkpt><trkpt lat="44.875159783037134" lon="9.624704656968841"><ele>337.0</ele><time>2026-05-03T15:11:24Z</time></trkpt><trkpt lat="44.87523616661531" lon="9.62479071528716"><ele>336.25</ele><time>2026-05-03T15:11:25Z</time></trkpt><trkpt lat="44.875320596315376" lon="9.624895900693888"><ele>335.5</ele><time>2026-05-03T15:11:26Z</time></trkpt><trkpt lat="44.87540821724452" lon="9.625012871903492"><ele>334.75</ele><time>2026-05-03T15:11:27Z</time></trkpt><trkpt lat="44.87549631864455" lon="9.625129389995442"><ele>334.0</ele><time>2026-05-03T15:11:28Z</time></trkpt><trkpt lat="44.875586322547086" lon="9.625245652228905"><ele>337.25</ele><time>2026-05-03T15:11:29Z</time></trkpt><trkpt lat="44.875663245112044" lon="9.625377348301612"><ele>340.5</ele><time>2026-05-03T15:11:30Z</time></trkpt><trkpt lat="44.8757412965492" lon="9.625512997160564"><ele>343.75</ele><time>2026-05-03T15:11:31Z</time></trkpt><trkpt lat="44.87582484514756" lon="9.625659022501594"><ele>347.0</ele><time>2026-05-03T15:11:32Z</time></trkpt><trkpt lat="44.875893568976295" lon="9.625816157009842"><ele>339.5</ele><time>2026-05-03T15:11:33Z</time></trkpt><trkpt lat="44.87595902385368" lon="9.625969100270426"><ele>332.0</ele><time>2026-05-03T15:11:34Z</time></trkpt><trkpt lat="44.876006651899694" lon="9.626120515342654"><ele>324.5</ele><time>2026-05-03T15:11:35Z</time></trkpt><trkpt lat="44.87604375691171" lon="9.626281989757672"><ele>317.0</ele><time>2026-05-03T15:11:36Z</time></trkpt><trkpt lat="44.876074908605" lon="9.626451771790586"><ele>317.0</ele><time>2026-05-03T15:11:37Z</time></trkpt><trkpt lat="44.87606555362685" lon="9.626621458376396"><ele>317.0</ele><time>2026-05-03T15:11:38Z</time></trkpt><trkpt lat="44.87603875702134" lon="9.626798462585576"><ele>317.0</ele><time>2026-05-03T15:11:39Z</time></trkpt><trkpt lat="44.87599933687293" lon="9.626982767097674"><ele>317.0</ele><time>2026-05-03T15:11:40Z</time></trkpt><trkpt lat="44.875968647980095" lon="9.62718086114386"><ele>318.75</ele><time>2026-05-03T15:11:41Z</time></trkpt><trkpt lat="44.87597250356204" lon="9.627402352760305"><ele>320.5</ele><time>2026-05-03T15:11:42Z</time></trkpt><trkpt lat="44.87598605011133" lon="9.62759832692163"><ele>322.25</ele><time>2026-05-03T15:11:43Z</time></trkpt><trkpt lat="44.87600532100659" lon="9.627774381903057"><ele>324.0</ele><time>2026-05-03T15:11:44Z</time></trkpt><trkpt lat="44.876031625637346" lon="9.627941585648943"><ele>326.0</ele><time>2026-05-03T15:11:45Z</time></trkpt><trkpt lat="44.87605771036674" lon="9.628115664186923"><ele>328.0</ele><time>2026-05-03T15:11:46Z</time></trkpt><trkpt lat="44.876074009023306" lon="9.628280366598915"><ele>330.0</ele><time>2026-05-03T15:11:47Z</time></trkpt><trkpt lat="44.87608072381563" lon="9.628464732764742"><ele>332.0</ele><time>2026-05-03T15:11:48Z</time></trkpt><trkpt lat="44.87605582069578" lon="9.628659223879097"><ele>332.0</ele><time>2026-05-03T15:11:48.999Z</time></trkpt><trkpt lat="44.87604103035488" lon="9.628860820383006"><ele>332.0</ele><time>2026-05-03T15:11:49.999Z</time></trkpt><trkpt lat="44.876000923674624" lon="9.629057782141146"><ele>332.0</ele><time>2026-05-03T15:11:50.999Z</time></trkpt><trkpt lat="44.875961328208014" lon="9.629245071412818"><ele>332.0</ele><time>2026-05-03T15:11:51.999Z</time></trkpt><trkpt lat="44.87591908851577" lon="9.629423413806752"><ele>327.75</ele><time>2026-05-03T15:11:52.999Z</time></trkpt><trkpt lat="44.87587086043343" lon="9.629602730849887"><ele>323.5</ele><time>2026-05-03T15:11:53.999Z</time></trkpt><trkpt lat="44.875828481408455" lon="9.629788589628706"><ele>319.25</ele><time>2026-05-03T15:11:54.999Z</time></trkpt><trkpt lat="44.87581185734246" lon="9.629984642991507"><ele>315.0</ele><time>2026-05-03T15:11:55.999Z</time></trkpt><trkpt lat="44.875803509273744" lon="9.63017952999816"><ele>313.25</ele><time>2026-05-03T15:11:56.999Z</time></trkpt><trkpt lat="44.87579315359015" lon="9.630372894166953"><ele>311.5</ele><time>2026-05-03T15:11:57.999Z</time></trkpt><trkpt lat="44.87577742418143" lon="9.630557613931163"><ele>309.75</ele><time>2026-05-03T15:11:58.999Z</time></trkpt><trkpt lat="44.87573014375153" lon="9.630719704356387"><ele>308.0</ele><time>2026-05-03T15:11:59.999Z</time></trkpt><trkpt lat="44.87567213712263" lon="9.63086682070972"><ele>308.0</ele><time>2026-05-03T15:12:00.999Z</time></trkpt><trkpt lat="44.87561037771587" lon="9.631032877553933"><ele>308.0</ele><time>2026-05-03T15:12:01.999Z</time></trkpt><trkpt lat="44.87553055619805" lon="9.63120479970481"><ele>308.0</ele><time>2026-05-03T15:12:02.999Z</time></trkpt><trkpt lat="44.87545273296689" lon="9.631374596093524"><ele>308.0</ele><time>2026-05-03T15:12:03.999Z</time></trkpt><trkpt lat="44.87537317364478" lon="9.631537430108729"><ele>306.0</ele><time>2026-05-03T15:12:04.999Z</time></trkpt><trkpt lat="44.875293720055296" lon="9.63169816567468"><ele>304.0</ele><time>2026-05-03T15:12:05.999Z</time></trkpt><trkpt lat="44.87521781951696" lon="9.631852658471404"><ele>302.0</ele><time>2026-05-03T15:12:06.999Z</time></trkpt><trkpt lat="44.87515477157107" lon="9.631994863916207"><ele>300.0</ele><time>2026-05-03T15:12:07.999Z</time></trkpt><trkpt lat="44.87510458655205" lon="9.632135123657473"><ele>300.4</ele><time>2026-05-03T15:12:08.999Z</time></trkpt><trkpt lat="44.87506753301593" lon="9.632278108601295"><ele>300.8</ele><time>2026-05-03T15:12:10Z</time></trkpt><trkpt lat="44.87505635434441" lon="9.632420848791721"><ele>301.2</ele><time>2026-05-03T15:12:11Z</time></trkpt><trkpt lat="44.875064850251555" lon="9.632560069008317"><ele>301.6</ele><time>2026-05-03T15:12:12Z</time></trkpt><trkpt lat="44.87505156905965" lon="9.632682872335733"><ele>302.0</ele><time>2026-05-03T15:12:13Z</time></trkpt><trkpt lat="44.87504591915281" lon="9.63280034053743"><ele>301.83333333333337</ele><time>2026-05-03T15:12:14Z</time></trkpt><trkpt lat="44.87502377416457" lon="9.63292435489815"><ele>301.6666666666667</ele><time>2026-05-03T15:12:15Z</time></trkpt><trkpt lat="44.874981459352846" lon="9.633031880059136"><ele>301.5</ele><time>2026-05-03T15:12:16Z</time></trkpt><trkpt lat="44.87494620587354" lon="9.63312237206373"><ele>301.3333333333333</ele><time>2026-05-03T15:12:17Z</time></trkpt><trkpt lat="44.87492465887621" lon="9.63321823344677"><ele>301.16666666666663</ele><time>2026-05-03T15:12:18Z</time></trkpt><trkpt lat="44.87492247446151" lon="9.633336356420436"><ele>301.0</ele><time>2026-05-03T15:12:19Z</time></trkpt><trkpt lat="44.8749444676905" lon="9.633460870910259"><ele>301.0</ele><time>2026-05-03T15:12:20Z</time></trkpt><trkpt lat="44.87496908289304" lon="9.633571485659873"><ele>301.0</ele><time>2026-05-03T15:12:21Z</time></trkpt><trkpt lat="44.875002790655316" lon="9.633664612644864"><ele>301.0</ele><time>2026-05-03T15:12:22Z</time></trkpt><trkpt lat="44.87502302489199" lon="9.633765480783351"><ele>301.0</ele><time>2026-05-03T15:12:23Z</time></trkpt><trkpt lat="44.87504854922501" lon="9.633846964599554"><ele>301.0</ele><time>2026-05-03T15:12:24Z</time></trkpt><trkpt lat="44.87519801935384" lon="9.633789874934111"><ele>301.0</ele><time>2026-05-03T15:12:27Z</time></trkpt><trkpt lat="44.87525441415001" lon="9.63372510232785"><ele>301.0</ele><time>2026-05-03T15:12:28Z</time></trkpt><trkpt lat="44.875316410947086" lon="9.633646995570764"><ele>301.0</ele><time>2026-05-03T15:12:29Z</time></trkpt><trkpt lat="44.87539341095785" lon="9.633555525414211"><ele>301.0</ele><time>2026-05-03T15:12:30Z</time></trkpt><trkpt lat="44.87547179662018" lon="9.633486857674212"><ele>301.0</ele><time>2026-05-03T15:12:31Z</time></trkpt><trkpt lat="44.87557809651987" lon="9.633523554271353"><ele>301.0</ele><time>2026-05-03T15:12:33Z</time></trkpt><trkpt lat="44.87569723248988" lon="9.633639499809652"><ele>301.3333333333333</ele><time>2026-05-03T15:12:35Z</time></trkpt><trkpt lat="44.875773661324665" lon="9.633677806078989"><ele>301.66666666666663</ele><time>2026-05-03T15:12:36Z</time></trkpt><trkpt lat="44.875836315607344" lon="9.633662588622654"><ele>302.0</ele><time>2026-05-03T15:12:37Z</time></trkpt><trkpt lat="44.875926559147075" lon="9.633663092017855"><ele>302.3333333333333</ele><time>2026-05-03T15:12:38Z</time></trkpt><trkpt lat="44.87601909007673" lon="9.63364435086616"><ele>302.6666666666667</ele><time>2026-05-03T15:12:39Z</time></trkpt><trkpt lat="44.876111406560256" lon="9.633607735206498"><ele>303.0</ele><time>2026-05-03T15:12:40Z</time></trkpt><trkpt lat="44.87620796159895" lon="9.633600494123279"><ele>302.2</ele><time>2026-05-03T15:12:41Z</time></trkpt><trkpt lat="44.876305752431755" lon="9.633616311581893"><ele>301.4</ele><time>2026-05-03T15:12:42Z</time></trkpt><trkpt lat="44.87640883532219" lon="9.633613431476157"><ele>300.59999999999997</ele><time>2026-05-03T15:12:43Z</time></trkpt><trkpt lat="44.876500821327504" lon="9.633618325137949"><ele>299.8</ele><time>2026-05-03T15:12:44Z</time></trkpt><trkpt lat="44.87659780492466" lon="9.633631716898481"><ele>299.0</ele><time>2026-05-03T15:12:45Z</time></trkpt><trkpt lat="44.8767040127665" lon="9.6336282942771"><ele>300.0</ele><time>2026-05-03T15:12:46Z</time></trkpt><trkpt lat="44.87680925083919" lon="9.633651287110345"><ele>301.0</ele><time>2026-05-03T15:12:47Z</time></trkpt><trkpt lat="44.87689602412266" lon="9.633658860154977"><ele>302.0</ele><time>2026-05-03T15:12:48Z</time></trkpt><trkpt lat="44.87698035949748" lon="9.633646451655283"><ele>303.0</ele><time>2026-05-03T15:12:49Z</time></trkpt><trkpt lat="44.87708118498711" lon="9.633654340334008"><ele>304.0</ele><time>2026-05-03T15:12:50Z</time></trkpt><trkpt lat="44.87716463055883" lon="9.63364974448293"><ele>304.0</ele><time>2026-05-03T15:12:51Z</time></trkpt><trkpt lat="44.877234186630034" lon="9.633662008235921"><ele>304.0</ele><time>2026-05-03T15:12:52Z</time></trkpt><trkpt lat="44.87733157582606" lon="9.633704545033062"><ele>304.0</ele><time>2026-05-03T15:12:53Z</time></trkpt><trkpt lat="44.877427767393" lon="9.63376419296608"><ele>304.0</ele><time>2026-05-03T15:12:54Z</time></trkpt><trkpt lat="44.87753390446298" lon="9.633836836893938"><ele>304.0</ele><time>2026-05-03T15:12:55Z</time></trkpt><trkpt lat="44.877646107719315" lon="9.633902562867151"><ele>304.0</ele><time>2026-05-03T15:12:56Z</time></trkpt><trkpt lat="44.87775033464684" lon="9.633920081160257"><ele>304.0</ele><time>2026-05-03T15:12:57Z</time></trkpt><trkpt lat="44.877839919547675" lon="9.633955844233748"><ele>304.0</ele><time>2026-05-03T15:12:58Z</time></trkpt><trkpt lat="44.87791458579509" lon="9.633962983124588"><ele>304.0</ele><time>2026-05-03T15:12:59Z</time></trkpt><trkpt lat="44.8779985828623" lon="9.633985450176892"><ele>304.0</ele><time>2026-05-03T15:13:00Z</time></trkpt><trkpt lat="44.87807161487796" lon="9.634030709419031"><ele>304.0</ele><time>2026-05-03T15:13:01Z</time></trkpt><trkpt lat="44.87814984214957" lon="9.63409699672594"><ele>304.0</ele><time>2026-05-03T15:13:02Z</time></trkpt><trkpt lat="44.878239060962514" lon="9.634164095664048"><ele>304.0</ele><time>2026-05-03T15:13:03Z</time></trkpt><trkpt lat="44.87831130429121" lon="9.634186999441747"><ele>304.0</ele><time>2026-05-03T15:13:04Z</time></trkpt><trkpt lat="44.878377828386874" lon="9.634205547527069"><ele>304.0</ele><time>2026-05-03T15:13:05Z</time></trkpt><trkpt lat="44.87847382260497" lon="9.634212144258175"><ele>304.0</ele><time>2026-05-03T15:13:07Z</time></trkpt><trkpt lat="44.8785488711418" lon="9.634207191846214"><ele>304.0</ele><time>2026-05-03T15:13:09Z</time></trkpt><trkpt lat="44.878581500074944" lon="9.634456757745655"><ele>306.16666666666663</ele><time>2026-05-03T15:13:11Z</time></trkpt><trkpt lat="44.87859545478704" lon="9.634566842559273"><ele>308.3333333333333</ele><time>2026-05-03T15:13:12Z</time></trkpt><trkpt lat="44.87861069785283" lon="9.634675419364765"><ele>310.5</ele><time>2026-05-03T15:13:13Z</time></trkpt><trkpt lat="44.87862748685766" lon="9.634794427108815"><ele>312.6666666666667</ele><time>2026-05-03T15:13:14Z</time></trkpt><trkpt lat="44.8786525748012" lon="9.634922342713855"><ele>314.83333333333337</ele><time>2026-05-03T15:13:15Z</time></trkpt><trkpt lat="44.878677687568796" lon="9.635053598178626"><ele>317.0</ele><time>2026-05-03T15:13:16Z</time></trkpt><trkpt lat="44.87870025368646" lon="9.635187593008073"><ele>317.0</ele><time>2026-05-03T15:13:17Z</time></trkpt><trkpt lat="44.87871982557201" lon="9.635295164426186"><ele>317.0</ele><time>2026-05-03T15:13:18Z</time></trkpt><trkpt lat="44.87874437515803" lon="9.635403590225819"><ele>317.0</ele><time>2026-05-03T15:13:19Z</time></trkpt><trkpt lat="44.8788233664817" lon="9.635476140871216"><ele>317.0</ele><time>2026-05-03T15:13:21Z</time></trkpt><trkpt lat="44.87889988493363" lon="9.635475534779584"><ele>317.0</ele><time>2026-05-03T15:13:22Z</time></trkpt><trkpt lat="44.878979911961856" lon="9.635488986349344"><ele>317.0</ele><time>2026-05-03T15:13:23Z</time></trkpt><trkpt lat="44.8790744226217" lon="9.635514914421686"><ele>318.8</ele><time>2026-05-03T15:13:24Z</time></trkpt><trkpt lat="44.87918462417772" lon="9.635558613981843"><ele>320.6</ele><time>2026-05-03T15:13:25Z</time></trkpt><trkpt lat="44.87926039439599" lon="9.635626064326908"><ele>322.40000000000003</ele><time>2026-05-03T15:13:26Z</time></trkpt><trkpt lat="44.8793156538831" lon="9.635701772734608"><ele>324.2</ele><time>2026-05-03T15:13:27Z</time></trkpt><trkpt lat="44.87937166874337" lon="9.635789307468677"><ele>326.0</ele><time>2026-05-03T15:13:28Z</time></trkpt><trkpt lat="44.87943239715928" lon="9.635874287005926"><ele>326.6</ele><time>2026-05-03T15:13:29Z</time></trkpt><trkpt lat="44.8795085566304" lon="9.635957860280719"><ele>327.20000000000005</ele><time>2026-05-03T15:13:30Z</time></trkpt><trkpt lat="44.87958411550477" lon="9.636018655810464"><ele>327.79999999999995</ele><time>2026-05-03T15:13:31Z</time></trkpt><trkpt lat="44.87972782266417" lon="9.63607193075179"><ele>328.4</ele><time>2026-05-03T15:13:33Z</time></trkpt><trkpt lat="44.879830773139275" lon="9.636088929515925"><ele>329.0</ele><time>2026-05-03T15:13:34Z</time></trkpt><trkpt lat="44.87995545628904" lon="9.63611567464226"><ele>328.75</ele><time>2026-05-03T15:13:35Z</time></trkpt><trkpt lat="44.880076476537845" lon="9.636145727343907"><ele>328.5</ele><time>2026-05-03T15:13:36Z</time></trkpt><trkpt lat="44.880188763673736" lon="9.636154640527739"><ele>328.25</ele><time>2026-05-03T15:13:37Z</time></trkpt><trkpt lat="44.88030006979784" lon="9.636142332636762"><ele>328.0</ele><time>2026-05-03T15:13:38Z</time></trkpt><trkpt lat="44.88041454996477" lon="9.636108126507098"><ele>328.0</ele><time>2026-05-03T15:13:39Z</time></trkpt><trkpt lat="44.880530549451905" lon="9.636074190051529"><ele>328.0</ele><time>2026-05-03T15:13:40Z</time></trkpt><trkpt lat="44.880625543794594" lon="9.636041496977096"><ele>328.0</ele><time>2026-05-03T15:13:41Z</time></trkpt><trkpt lat="44.88071515143876" lon="9.636022433827037"><ele>328.0</ele><time>2026-05-03T15:13:42Z</time></trkpt><trkpt lat="44.880795903824186" lon="9.636012549426924"><ele>328.0</ele><time>2026-05-03T15:13:43Z</time></trkpt><trkpt lat="44.88087510307418" lon="9.636009322212889"><ele>326.66666666666663</ele><time>2026-05-03T15:13:44Z</time></trkpt><trkpt lat="44.880946535866244" lon="9.636080723131089"><ele>325.3333333333333</ele><time>2026-05-03T15:13:46Z</time></trkpt><trkpt lat="44.88096669793179" lon="9.636169059792515"><ele>324.0</ele><time>2026-05-03T15:13:47Z</time></trkpt><trkpt lat="44.880983708709245" lon="9.636262795168784"><ele>322.6666666666667</ele><time>2026-05-03T15:13:48Z</time></trkpt><trkpt lat="44.881016355372154" lon="9.636418990228398"><ele>321.33333333333337</ele><time>2026-05-03T15:13:50Z</time></trkpt><trkpt lat="44.88102072796186" lon="9.636511387839848"><ele>320.0</ele><time>2026-05-03T15:13:51Z</time></trkpt><trkpt lat="44.881033641823166" lon="9.636621459688023"><ele>319.33333333333337</ele><time>2026-05-03T15:13:52Z</time></trkpt><trkpt lat="44.88105922273843" lon="9.636727533784724"><ele>318.6666666666667</ele><time>2026-05-03T15:13:53Z</time></trkpt><trkpt lat="44.88107444871511" lon="9.636818548965122"><ele>318.0</ele><time>2026-05-03T15:13:54Z</time></trkpt><trkpt lat="44.88109659213864" lon="9.636928131504462"><ele>317.3333333333333</ele><time>2026-05-03T15:13:55Z</time></trkpt><trkpt lat="44.88112945755271" lon="9.637020551293794"><ele>316.66666666666663</ele><time>2026-05-03T15:13:56Z</time></trkpt><trkpt lat="44.88117346575563" lon="9.637109949587117"><ele>316.0</ele><time>2026-05-03T15:13:57Z</time></trkpt><trkpt lat="44.881229668653205" lon="9.6372221545195"><ele>315.2</ele><time>2026-05-03T15:13:58Z</time></trkpt><trkpt lat="44.88129232639859" lon="9.63731573014515"><ele>314.40000000000003</ele><time>2026-05-03T15:13:59Z</time></trkpt><trkpt lat="44.88136104129886" lon="9.637387659119446"><ele>313.6</ele><time>2026-05-03T15:14:00Z</time></trkpt><trkpt lat="44.88145860812269" lon="9.637477743972147"><ele>312.8</ele><time>2026-05-03T15:14:01Z</time></trkpt><trkpt lat="44.88155471730701" lon="9.637564386631748"><ele>312.0</ele><time>2026-05-03T15:14:02Z</time></trkpt><trkpt lat="44.88165734772925" lon="9.637630625973165"><ele>312.0</ele><time>2026-05-03T15:14:03Z</time></trkpt><trkpt lat="44.8817510103338" lon="9.63766033659669"><ele>312.0</ele><time>2026-05-03T15:14:04Z</time></trkpt><trkpt lat="44.88183490835057" lon="9.637666348254898"><ele>312.0</ele><time>2026-05-03T15:14:05Z</time></trkpt><trkpt lat="44.8819285041386" lon="9.637660781199775"><ele>312.0</ele><time>2026-05-03T15:14:06Z</time></trkpt><trkpt lat="44.882003727519525" lon="9.637655886927812"><ele>312.0</ele><time>2026-05-03T15:14:07Z</time></trkpt><trkpt lat="44.882129111907055" lon="9.637747559521221"><ele>311.8333333333333</ele><time>2026-05-03T15:14:09Z</time></trkpt><trkpt lat="44.882213465777056" lon="9.63777393674861"><ele>311.6666666666667</ele><time>2026-05-03T15:14:09.999Z</time></trkpt><trkpt lat="44.882309556914755" lon="9.63779176635492"><ele>311.5</ele><time>2026-05-03T15:14:10.999Z</time></trkpt><trkpt lat="44.882386676426066" lon="9.637804807452529"><ele>311.33333333333337</ele><time>2026-05-03T15:14:11.999Z</time></trkpt><trkpt lat="44.88247553935528" lon="9.637811970383346"><ele>311.1666666666667</ele><time>2026-05-03T15:14:12.999Z</time></trkpt><trkpt lat="44.88255414650078" lon="9.63783670648058"><ele>311.0</ele><time>2026-05-03T15:14:13.999Z</time></trkpt><trkpt lat="44.88262204553397" lon="9.637854739561357"><ele>311.0</ele><time>2026-05-03T15:14:14.999Z</time></trkpt><trkpt lat="44.88270496396957" lon="9.637872348261919"><ele>311.0</ele><time>2026-05-03T15:14:16Z</time></trkpt><trkpt lat="44.882796872376396" lon="9.63789395795669"><ele>311.0</ele><time>2026-05-03T15:14:17Z</time></trkpt><trkpt lat="44.88288853896963" lon="9.637917903294003"><ele>311.0</ele><time>2026-05-03T15:14:18Z</time></trkpt><trkpt lat="44.882960083789065" lon="9.63792999161553"><ele>311.0</ele><time>2026-05-03T15:14:19Z</time></trkpt><trkpt lat="44.88305080678435" lon="9.637960017417585"><ele>311.0</ele><time>2026-05-03T15:14:20Z</time></trkpt><trkpt lat="44.88313006960842" lon="9.637960883882423"><ele>311.0</ele><time>2026-05-03T15:14:21Z</time></trkpt><trkpt lat="44.88322759742612" lon="9.637975060117919"><ele>311.0</ele><time>2026-05-03T15:14:22Z</time></trkpt><trkpt lat="44.88331302084924" lon="9.637994644133398"><ele>311.0</ele><time>2026-05-03T15:14:23Z</time></trkpt><trkpt lat="44.88340678063269" lon="9.638019724485572"><ele>311.0</ele><time>2026-05-03T15:14:24Z</time></trkpt><trkpt lat="44.883516733014496" lon="9.638044184372529"><ele>311.0</ele><time>2026-05-03T15:14:25Z</time></trkpt><trkpt lat="44.88361798481601" lon="9.63806503693155"><ele>311.0</ele><time>2026-05-03T15:14:26Z</time></trkpt><trkpt lat="44.88370855877468" lon="9.638088773333813"><ele>311.0</ele><time>2026-05-03T15:14:27Z</time></trkpt><trkpt lat="44.88381058444522" lon="9.63811890670931"><ele>311.0</ele><time>2026-05-03T15:14:28Z</time></trkpt><trkpt lat="44.883912870331194" lon="9.638143891921404"><ele>311.0</ele><time>2026-05-03T15:14:29Z</time></trkpt><trkpt lat="44.88400733372682" lon="9.63817350932246"><ele>311.0</ele><time>2026-05-03T15:14:30Z</time></trkpt><trkpt lat="44.88410154230779" lon="9.638226245753469"><ele>311.0</ele><time>2026-05-03T15:14:31Z</time></trkpt><trkpt lat="44.88416811334714" lon="9.638274440960846"><ele>311.0</ele><time>2026-05-03T15:14:32Z</time></trkpt><trkpt lat="44.88425377329938" lon="9.638309685017582"><ele>311.0</ele><time>2026-05-03T15:14:33Z</time></trkpt><trkpt lat="44.88435153861165" lon="9.638208397250626"><ele>311.0</ele><time>2026-05-03T15:14:35Z</time></trkpt><trkpt lat="44.8844050782903" lon="9.638108713565943"><ele>311.0</ele><time>2026-05-03T15:14:36Z</time></trkpt><trkpt lat="44.88448621485634" lon="9.63805281419306"><ele>311.0</ele><time>2026-05-03T15:14:37Z</time></trkpt><trkpt lat="44.884573974013804" lon="9.637998108226837"><ele>311.0</ele><time>2026-05-03T15:14:38Z</time></trkpt><trkpt lat="44.88463599800785" lon="9.637944813927177"><ele>311.0</ele><time>2026-05-03T15:14:39Z</time></trkpt><trkpt lat="44.88470891650363" lon="9.637865757469172"><ele>311.0</ele><time>2026-05-03T15:14:40Z</time></trkpt><trkpt lat="44.88479832664664" lon="9.637779125384684"><ele>311.0</ele><time>2026-05-03T15:14:41Z</time></trkpt><trkpt lat="44.88488690505279" lon="9.637726161670571"><ele>310.33333333333337</ele><time>2026-05-03T15:14:42Z</time></trkpt><trkpt lat="44.8849665769927" lon="9.637710653670318"><ele>309.6666666666667</ele><time>2026-05-03T15:14:43Z</time></trkpt><trkpt lat="44.88506416206846" lon="9.637718048621316"><ele>309.0</ele><time>2026-05-03T15:14:44Z</time></trkpt><trkpt lat="44.885145301848716" lon="9.637708277286677"><ele>308.3333333333333</ele><time>2026-05-03T15:14:45Z</time></trkpt><trkpt lat="44.88523494151049" lon="9.637688587289487"><ele>307.66666666666663</ele><time>2026-05-03T15:14:46Z</time></trkpt><trkpt lat="44.885327851904755" lon="9.637654636401725"><ele>307.0</ele><time>2026-05-03T15:14:47Z</time></trkpt><trkpt lat="44.885425728872576" lon="9.6376028512502"><ele>307.0</ele><time>2026-05-03T15:14:48Z</time></trkpt><trkpt lat="44.88551467361685" lon="9.637572488699227"><ele>307.0</ele><time>2026-05-03T15:14:49Z</time></trkpt><trkpt lat="44.88559167890781" lon="9.637575877719824"><ele>307.0</ele><time>2026-05-03T15:14:50Z</time></trkpt><trkpt lat="44.88565956782823" lon="9.637562305252391"><ele>307.0</ele><time>2026-05-03T15:14:51Z</time></trkpt><trkpt lat="44.88572349451571" lon="9.637525956332011"><ele>307.0</ele><time>2026-05-03T15:14:52Z</time></trkpt><trkpt lat="44.88581399733213" lon="9.637488173635374"><ele>307.0</ele><time>2026-05-03T15:14:53Z</time></trkpt><trkpt lat="44.88590516228096" lon="9.637459722174972"><ele>306.66666666666663</ele><time>2026-05-03T15:14:54Z</time></trkpt><trkpt lat="44.8859665372707" lon="9.6373959418098"><ele>306.3333333333333</ele><time>2026-05-03T15:14:55Z</time></trkpt><trkpt lat="44.88603144539726" lon="9.637332853522526"><ele>306.0</ele><time>2026-05-03T15:14:56Z</time></trkpt><trkpt lat="44.88611508276297" lon="9.637259339569024"><ele>305.6666666666667</ele><time>2026-05-03T15:14:57Z</time></trkpt><trkpt lat="44.886185715975394" lon="9.63722818736589"><ele>305.33333333333337</ele><time>2026-05-03T15:14:58Z</time></trkpt><trkpt lat="44.886261032492705" lon="9.637218072524913"><ele>305.0</ele><time>2026-05-03T15:14:59Z</time></trkpt><trkpt lat="44.886352936866324" lon="9.637223907654349"><ele>305.0</ele><time>2026-05-03T15:15:00Z</time></trkpt><trkpt lat="44.886448543399986" lon="9.63720849428127"><ele>305.0</ele><time>2026-05-03T15:15:01Z</time></trkpt><trkpt lat="44.88654440208103" lon="9.637161303999063"><ele>305.0</ele><time>2026-05-03T15:15:02Z</time></trkpt><trkpt lat="44.88665815341403" lon="9.637125525256517"><ele>305.0</ele><time>2026-05-03T15:15:03Z</time></trkpt><trkpt lat="44.88674605081212" lon="9.637091577998344"><ele>305.0</ele><time>2026-05-03T15:15:04Z</time></trkpt><trkpt lat="44.88682687281594" lon="9.637061281733004"><ele>303.83333333333337</ele><time>2026-05-03T15:15:05Z</time></trkpt><trkpt lat="44.88691411730437" lon="9.63704593346404"><ele>302.6666666666667</ele><time>2026-05-03T15:15:06Z</time></trkpt><trkpt lat="44.88699767933276" lon="9.637051545239824"><ele>301.5</ele><time>2026-05-03T15:15:07Z</time></trkpt><trkpt lat="44.8870696403013" lon="9.637048303376751"><ele>300.3333333333333</ele><time>2026-05-03T15:15:08Z</time></trkpt><trkpt lat="44.88714042663425" lon="9.637066558192416"><ele>299.16666666666663</ele><time>2026-05-03T15:15:09Z</time></trkpt><trkpt lat="44.88717441035889" lon="9.63723642853686"><ele>298.0</ele><time>2026-05-03T15:15:11Z</time></trkpt><trkpt lat="44.88729838928408" lon="9.637243569300534"><ele>298.0</ele><time>2026-05-03T15:15:13Z</time></trkpt><trkpt lat="44.887425657455154" lon="9.637220080178368"><ele>298.0</ele><time>2026-05-03T15:15:15Z</time></trkpt><trkpt lat="44.88751261737932" lon="9.637217068936298"><ele>298.0</ele><time>2026-05-03T15:15:16Z</time></trkpt><trkpt lat="44.88763466015234" lon="9.637206935731694"><ele>298.0</ele><time>2026-05-03T15:15:17Z</time></trkpt><trkpt lat="44.88776053805929" lon="9.6372025625817"><ele>297.0</ele><time>2026-05-03T15:15:18Z</time></trkpt><trkpt lat="44.88786707710393" lon="9.63721280897764"><ele>296.0</ele><time>2026-05-03T15:15:19Z</time></trkpt><trkpt lat="44.88796053887591" lon="9.637217669930672"><ele>295.0</ele><time>2026-05-03T15:15:20Z</time></trkpt><trkpt lat="44.888059565774874" lon="9.637231314821705"><ele>294.0</ele><time>2026-05-03T15:15:21Z</time></trkpt><trkpt lat="44.888155142942665" lon="9.637244343117754"><ele>293.0</ele><time>2026-05-03T15:15:22Z</time></trkpt><trkpt lat="44.888255002404236" lon="9.637246613795169"><ele>293.0</ele><time>2026-05-03T15:15:23Z</time></trkpt><trkpt lat="44.88834678142006" lon="9.637246662010572"><ele>293.0</ele><time>2026-05-03T15:15:24Z</time></trkpt><trkpt lat="44.888428854952316" lon="9.63725428997872"><ele>293.0</ele><time>2026-05-03T15:15:25Z</time></trkpt><trkpt lat="44.88849940624937" lon="9.637256205606104"><ele>293.0</ele><time>2026-05-03T15:15:26Z</time></trkpt><trkpt lat="44.888575526275254" lon="9.637255306984029"><ele>293.0</ele><time>2026-05-03T15:15:27Z</time></trkpt><trkpt lat="44.88864307113955" lon="9.637235632062719"><ele>293.0</ele><time>2026-05-03T15:15:28Z</time></trkpt><trkpt lat="44.888714506608395" lon="9.637194279963477"><ele>292.2</ele><time>2026-05-03T15:15:29Z</time></trkpt><trkpt lat="44.88881522434987" lon="9.637143260345281"><ele>291.4</ele><time>2026-05-03T15:15:30Z</time></trkpt><trkpt lat="44.88892217982052" lon="9.637144838033983"><ele>290.59999999999997</ele><time>2026-05-03T15:15:31Z</time></trkpt><trkpt lat="44.889028090667075" lon="9.637120007088663"><ele>289.8</ele><time>2026-05-03T15:15:32Z</time></trkpt><trkpt lat="44.889139083735124" lon="9.63711479456093"><ele>289.0</ele><time>2026-05-03T15:15:33Z</time></trkpt><trkpt lat="44.889253062181034" lon="9.637089996797911"><ele>288.25</ele><time>2026-05-03T15:15:34Z</time></trkpt><trkpt lat="44.889372241040064" lon="9.637058820490163"><ele>287.5</ele><time>2026-05-03T15:15:35Z</time></trkpt><trkpt lat="44.88948860130719" lon="9.637030382408515"><ele>286.75</ele><time>2026-05-03T15:15:36Z</time></trkpt><trkpt lat="44.88960153933919" lon="9.637050070810979"><ele>286.0</ele><time>2026-05-03T15:15:37Z</time></trkpt><trkpt lat="44.889703313900704" lon="9.63706605166662"><ele>286.0</ele><time>2026-05-03T15:15:38Z</time></trkpt><trkpt lat="44.8897921623784" lon="9.637093815204194"><ele>286.0</ele><time>2026-05-03T15:15:39Z</time></trkpt><trkpt lat="44.889876767642875" lon="9.63713054986994"><ele>286.0</ele><time>2026-05-03T15:15:40Z</time></trkpt><trkpt lat="44.889978427683644" lon="9.63719083368373"><ele>286.0</ele><time>2026-05-03T15:15:41Z</time></trkpt><trkpt lat="44.890082976543766" lon="9.637257242040839"><ele>286.0</ele><time>2026-05-03T15:15:42Z</time></trkpt><trkpt lat="44.89018138161101" lon="9.637315228315707"><ele>285.6</ele><time>2026-05-03T15:15:43Z</time></trkpt><trkpt lat="44.89028491621373" lon="9.637385928238146"><ele>285.20000000000005</ele><time>2026-05-03T15:15:44Z</time></trkpt><trkpt lat="44.890375285905165" lon="9.637449420960207"><ele>284.79999999999995</ele><time>2026-05-03T15:15:45Z</time></trkpt><trkpt lat="44.89045068881468" lon="9.637504910552488"><ele>284.4</ele><time>2026-05-03T15:15:46Z</time></trkpt><trkpt lat="44.890510407605674" lon="9.637564273848232"><ele>284.0</ele><time>2026-05-03T15:15:47Z</time></trkpt><trkpt lat="44.89056404401528" lon="9.637664854076002"><ele>284.0</ele><time>2026-05-03T15:15:48Z</time></trkpt><trkpt lat="44.89061746260336" lon="9.637768316569423"><ele>284.0</ele><time>2026-05-03T15:15:49Z</time></trkpt><trkpt lat="44.89066080897059" lon="9.637891073107768"><ele>284.0</ele><time>2026-05-03T15:15:50Z</time></trkpt><trkpt lat="44.890709617382754" lon="9.637989422529438"><ele>284.0</ele><time>2026-05-03T15:15:51Z</time></trkpt><trkpt lat="44.89078710039447" lon="9.63803679511696"><ele>284.0</ele><time>2026-05-03T15:15:52Z</time></trkpt><trkpt lat="44.89087657873824" lon="9.638089405418564"><ele>283.2</ele><time>2026-05-03T15:15:53Z</time></trkpt><trkpt lat="44.89097926742599" lon="9.638120614865933"><ele>282.4</ele><time>2026-05-03T15:15:54Z</time></trkpt><trkpt lat="44.891073937766365" lon="9.6381335374132"><ele>281.6</ele><time>2026-05-03T15:15:55Z</time></trkpt><trkpt lat="44.89115945806059" lon="9.63817944049278"><ele>280.8</ele><time>2026-05-03T15:15:56Z</time></trkpt><trkpt lat="44.891243440281535" lon="9.638227833269832"><ele>280.0</ele><time>2026-05-03T15:15:57Z</time></trkpt><trkpt lat="44.89134240339344" lon="9.638272386041944"><ele>280.0</ele><time>2026-05-03T15:15:58Z</time></trkpt><trkpt lat="44.891432174262896" lon="9.63833728286978"><ele>280.0</ele><time>2026-05-03T15:15:59Z</time></trkpt><trkpt lat="44.89153708993501" lon="9.638406187651205"><ele>280.0</ele><time>2026-05-03T15:16:00Z</time></trkpt><trkpt lat="44.89163859355769" lon="9.638476089249446"><ele>280.0</ele><time>2026-05-03T15:16:01Z</time></trkpt><trkpt lat="44.8917327451767" lon="9.638533031098312"><ele>280.0</ele><time>2026-05-03T15:16:02Z</time></trkpt><trkpt lat="44.89183741724081" lon="9.638586189222439"><ele>278.75</ele><time>2026-05-03T15:16:03Z</time></trkpt><trkpt lat="44.89195059227644" lon="9.638654490233838"><ele>277.5</ele><time>2026-05-03T15:16:04Z</time></trkpt><trkpt lat="44.892054432198606" lon="9.638696250280464"><ele>276.25</ele><time>2026-05-03T15:16:05Z</time></trkpt><trkpt lat="44.8921622433163" lon="9.638755209306039"><ele>275.0</ele><time>2026-05-03T15:16:06Z</time></trkpt><trkpt lat="44.892277286682635" lon="9.638824718088847"><ele>275.0</ele><time>2026-05-03T15:16:07Z</time></trkpt><trkpt lat="44.892386603080865" lon="9.63889703816404"><ele>275.0</ele><time>2026-05-03T15:16:08Z</time></trkpt><trkpt lat="44.8924889192528" lon="9.638959962547672"><ele>275.0</ele><time>2026-05-03T15:16:09Z</time></trkpt><trkpt lat="44.8925897263591" lon="9.63900841302129"><ele>275.0</ele><time>2026-05-03T15:16:10Z</time></trkpt><trkpt lat="44.89267854250687" lon="9.639037535811363"><ele>275.0</ele><time>2026-05-03T15:16:11Z</time></trkpt><trkpt lat="44.89278022749996" lon="9.639054899459133"><ele>273.6</ele><time>2026-05-03T15:16:12Z</time></trkpt><trkpt lat="44.8928910715833" lon="9.639069896131293"><ele>272.2</ele><time>2026-05-03T15:16:13Z</time></trkpt><trkpt lat="44.89300029699204" lon="9.639078024718911"><ele>270.8</ele><time>2026-05-03T15:16:14Z</time></trkpt><trkpt lat="44.89309971925802" lon="9.639090750729963"><ele>269.4</ele><time>2026-05-03T15:16:14.999Z</time></trkpt><trkpt lat="44.89320728899087" lon="9.639115137697363"><ele>268.0</ele><time>2026-05-03T15:16:15.999Z</time></trkpt><trkpt lat="44.89331756604167" lon="9.639156321168514"><ele>266.25</ele><time>2026-05-03T15:16:16.999Z</time></trkpt><trkpt lat="44.89344089439853" lon="9.63919930568708"><ele>264.5</ele><time>2026-05-03T15:16:17.999Z</time></trkpt><trkpt lat="44.89355996891488" lon="9.639237515349356"><ele>262.75</ele><time>2026-05-03T15:16:18.999Z</time></trkpt><trkpt lat="44.8936815581464" lon="9.639284219309735"><ele>261.0</ele><time>2026-05-03T15:16:19.999Z</time></trkpt><trkpt lat="44.89379777541269" lon="9.63933204997441"><ele>261.0</ele><time>2026-05-03T15:16:20.999Z</time></trkpt><trkpt lat="44.89390409423751" lon="9.63935368310941"><ele>261.0</ele><time>2026-05-03T15:16:22Z</time></trkpt><trkpt lat="44.89401339415332" lon="9.639352402107498"><ele>261.0</ele><time>2026-05-03T15:16:23Z</time></trkpt><trkpt lat="44.89411852244542" lon="9.639341910308719"><ele>261.0</ele><time>2026-05-03T15:16:24Z</time></trkpt><trkpt lat="44.89424686327373" lon="9.639327508920326"><ele>259.75</ele><time>2026-05-03T15:16:25Z</time></trkpt><trkpt lat="44.89438023543968" lon="9.639314926774881"><ele>258.5</ele><time>2026-05-03T15:16:26Z</time></trkpt><trkpt lat="44.894487975615014" lon="9.639314472879066"><ele>257.25</ele><time>2026-05-03T15:16:27Z</time></trkpt><trkpt lat="44.89459803683709" lon="9.6393110233264"><ele>256.0</ele><time>2026-05-03T15:16:28Z</time></trkpt><trkpt lat="44.89471024991614" lon="9.639301130054006"><ele>256.0</ele><time>2026-05-03T15:16:29Z</time></trkpt><trkpt lat="44.89482430086309" lon="9.639287457449834"><ele>256.0</ele><time>2026-05-03T15:16:30Z</time></trkpt><trkpt lat="44.89494934221773" lon="9.639273848462135"><ele>256.0</ele><time>2026-05-03T15:16:31Z</time></trkpt><trkpt lat="44.89507921790757" lon="9.639278581460777"><ele>256.0</ele><time>2026-05-03T15:16:32Z</time></trkpt><trkpt lat="44.895207729478216" lon="9.63927128328898"><ele>255.60000000000002</ele><time>2026-05-03T15:16:33Z</time></trkpt><trkpt lat="44.8953246907622" lon="9.639277463312876"><ele>255.20000000000002</ele><time>2026-05-03T15:16:34Z</time></trkpt><trkpt lat="44.89542268818329" lon="9.639280072399046"><ele>254.79999999999998</ele><time>2026-05-03T15:16:35Z</time></trkpt><trkpt lat="44.895523182589066" lon="9.639275402003653"><ele>254.39999999999998</ele><time>2026-05-03T15:16:36Z</time></trkpt><trkpt lat="44.89562016154993" lon="9.639262537113986"><ele>254.0</ele><time>2026-05-03T15:16:37Z</time></trkpt><trkpt lat="44.89572123740249" lon="9.639229626393186"><ele>254.0</ele><time>2026-05-03T15:16:38Z</time></trkpt><trkpt lat="44.895837529554285" lon="9.639214297211032"><ele>254.0</ele><time>2026-05-03T15:16:39Z</time></trkpt><trkpt lat="44.89595458967742" lon="9.639198602613666"><ele>254.0</ele><time>2026-05-03T15:16:40Z</time></trkpt><trkpt lat="44.89607673486549" lon="9.639183904238694"><ele>254.0</ele><time>2026-05-03T15:16:41Z</time></trkpt><trkpt lat="44.89619890787271" lon="9.639157018820466"><ele>254.25</ele><time>2026-05-03T15:16:42Z</time></trkpt><trkpt lat="44.89632455368389" lon="9.639156778891602"><ele>254.5</ele><time>2026-05-03T15:16:43Z</time></trkpt><trkpt lat="44.89644694264121" lon="9.63915430892359"><ele>254.75</ele><time>2026-05-03T15:16:44Z</time></trkpt><trkpt lat="44.89657501373339" lon="9.63915654811507"><ele>255.0</ele><time>2026-05-03T15:16:45Z</time></trkpt><trkpt lat="44.89669483809063" lon="9.639158970002557"><ele>254.6</ele><time>2026-05-03T15:16:46Z</time></trkpt><trkpt lat="44.89682497048336" lon="9.63917864930185"><ele>254.2</ele><time>2026-05-03T15:16:47Z</time></trkpt><trkpt lat="44.89693733320942" lon="9.639200785349809"><ele>253.8</ele><time>2026-05-03T15:16:48Z</time></trkpt><trkpt lat="44.89703145197322" lon="9.639227814668617"><ele>253.4</ele><time>2026-05-03T15:16:49Z</time></trkpt><trkpt lat="44.897131398381" lon="9.639266346831521"><ele>253.0</ele><time>2026-05-03T15:16:50Z</time></trkpt><trkpt lat="44.897237437131345" lon="9.639323623075505"><ele>253.0</ele><time>2026-05-03T15:16:51Z</time></trkpt><trkpt lat="44.89736045422276" lon="9.63934333271998"><ele>253.0</ele><time>2026-05-03T15:16:52Z</time></trkpt><trkpt lat="44.89749530072966" lon="9.639337271991742"><ele>253.0</ele><time>2026-05-03T15:16:53Z</time></trkpt><trkpt lat="44.897625724118086" lon="9.639369486779154"><ele>253.0</ele><time>2026-05-03T15:16:54Z</time></trkpt><trkpt lat="44.89775538273165" lon="9.639381519034782"><ele>252.5</ele><time>2026-05-03T15:16:55Z</time></trkpt><trkpt lat="44.89787518826141" lon="9.639393151701075"><ele>252.0</ele><time>2026-05-03T15:16:56Z</time></trkpt><trkpt lat="44.89799540089289" lon="9.63940482388511"><ele>251.5</ele><time>2026-05-03T15:16:57Z</time></trkpt><trkpt lat="44.8980984117102" lon="9.639413840314353"><ele>251.0</ele><time>2026-05-03T15:16:58Z</time></trkpt><trkpt lat="44.898225539135865" lon="9.63942463502037"><ele>251.0</ele><time>2026-05-03T15:16:59Z</time></trkpt><trkpt lat="44.898364014912836" lon="9.639435697775705"><ele>251.0</ele><time>2026-05-03T15:17:00Z</time></trkpt><trkpt lat="44.898482493366934" lon="9.639424222617103"><ele>251.0</ele><time>2026-05-03T15:17:01Z</time></trkpt><trkpt lat="44.89859915299209" lon="9.639438423159492"><ele>251.0</ele><time>2026-05-03T15:17:02Z</time></trkpt><trkpt lat="44.89872279155113" lon="9.639453748015496"><ele>249.25</ele><time>2026-05-03T15:17:03Z</time></trkpt><trkpt lat="44.89884414363433" lon="9.639465339842404"><ele>247.5</ele><time>2026-05-03T15:17:04Z</time></trkpt><trkpt lat="44.898960897571925" lon="9.63947663904138"><ele>245.75</ele><time>2026-05-03T15:17:05Z</time></trkpt><trkpt lat="44.89908717907725" lon="9.639483444745323"><ele>244.0</ele><time>2026-05-03T15:17:06Z</time></trkpt><trkpt lat="44.899215754756796" lon="9.639489436063469"><ele>243.25</ele><time>2026-05-03T15:17:07Z</time></trkpt><trkpt lat="44.89934499634701" lon="9.639499539558598"><ele>242.5</ele><time>2026-05-03T15:17:08Z</time></trkpt><trkpt lat="44.899468383631074" lon="9.639526272030912"><ele>241.75</ele><time>2026-05-03T15:17:09Z</time></trkpt><trkpt lat="44.8995954560034" lon="9.639571799894265"><ele>241.0</ele><time>2026-05-03T15:17:10Z</time></trkpt><trkpt lat="44.8997138156428" lon="9.63965879538797"><ele>241.0</ele><time>2026-05-03T15:17:11Z</time></trkpt><trkpt lat="44.89984428599341" lon="9.639706696778173"><ele>241.0</ele><time>2026-05-03T15:17:12Z</time></trkpt><trkpt lat="44.899960152539585" lon="9.639774292119078"><ele>241.0</ele><time>2026-05-03T15:17:13Z</time></trkpt><trkpt lat="44.90008072092996" lon="9.639837111193298"><ele>241.0</ele><time>2026-05-03T15:17:14Z</time></trkpt><trkpt lat="44.90020657301438" lon="9.639895686805595"><ele>240.75</ele><time>2026-05-03T15:17:15Z</time></trkpt><trkpt lat="44.90031723489927" lon="9.639950687651147"><ele>240.5</ele><time>2026-05-03T15:17:16Z</time></trkpt><trkpt lat="44.90043297291142" lon="9.640008830774336"><ele>240.25</ele><time>2026-05-03T15:17:17Z</time></trkpt><trkpt lat="44.90054474172286" lon="9.640063917387842"><ele>240.0</ele><time>2026-05-03T15:17:18Z</time></trkpt><trkpt lat="44.900662409029714" lon="9.640120749803291"><ele>240.0</ele><time>2026-05-03T15:17:19Z</time></trkpt><trkpt lat="44.90079033822326" lon="9.640183096466506"><ele>240.0</ele><time>2026-05-03T15:17:20Z</time></trkpt><trkpt lat="44.9009117927447" lon="9.640242194195007"><ele>240.0</ele><time>2026-05-03T15:17:21Z</time></trkpt><trkpt lat="44.90102962998911" lon="9.640298000451118"><ele>240.0</ele><time>2026-05-03T15:17:22Z</time></trkpt><trkpt lat="44.90114552458221" lon="9.6403529837638"><ele>239.0</ele><time>2026-05-03T15:17:23Z</time></trkpt><trkpt lat="44.901271750633505" lon="9.640412814967345"><ele>238.0</ele><time>2026-05-03T15:17:24Z</time></trkpt><trkpt lat="44.90140912046126" lon="9.640501559230795"><ele>237.0</ele><time>2026-05-03T15:17:25Z</time></trkpt><trkpt lat="44.90154759701992" lon="9.640569278909014"><ele>236.0</ele><time>2026-05-03T15:17:26Z</time></trkpt><trkpt lat="44.90168877626633" lon="9.640637331722195"><ele>235.5</ele><time>2026-05-03T15:17:27Z</time></trkpt><trkpt lat="44.901812773367105" lon="9.640697102235555"><ele>235.0</ele><time>2026-05-03T15:17:28Z</time></trkpt><trkpt lat="44.90192566287172" lon="9.640751518405828"><ele>234.5</ele><time>2026-05-03T15:17:29Z</time></trkpt><trkpt lat="44.902042706418" lon="9.640808661871787"><ele>234.0</ele><time>2026-05-03T15:17:30Z</time></trkpt><trkpt lat="44.902174482433544" lon="9.640851739936704"><ele>234.0</ele><time>2026-05-03T15:17:31Z</time></trkpt><trkpt lat="44.902295775428904" lon="9.640921131675492"><ele>234.0</ele><time>2026-05-03T15:17:32Z</time></trkpt><trkpt lat="44.90243010461845" lon="9.640984642004414"><ele>234.0</ele><time>2026-05-03T15:17:33Z</time></trkpt><trkpt lat="44.902553114159154" lon="9.64106458751315"><ele>234.0</ele><time>2026-05-03T15:17:34Z</time></trkpt><trkpt lat="44.90265999113388" lon="9.64111865099151"><ele>233.0</ele><time>2026-05-03T15:17:35Z</time></trkpt><trkpt lat="44.90279725439256" lon="9.641176028780063"><ele>232.0</ele><time>2026-05-03T15:17:36Z</time></trkpt><trkpt lat="44.902917408246296" lon="9.641230685781467"><ele>231.0</ele><time>2026-05-03T15:17:37Z</time></trkpt><trkpt lat="44.903017066740155" lon="9.641279758121875"><ele>230.0</ele><time>2026-05-03T15:17:38Z</time></trkpt><trkpt lat="44.90312508319901" lon="9.641332468234403"><ele>230.0</ele><time>2026-05-03T15:17:39Z</time></trkpt><trkpt lat="44.903229345694676" lon="9.641379578474922"><ele>230.0</ele><time>2026-05-03T15:17:40Z</time></trkpt><trkpt lat="44.90334013223591" lon="9.64143201822554"><ele>230.0</ele><time>2026-05-03T15:17:41Z</time></trkpt><trkpt lat="44.90346104236714" lon="9.64149020185686"><ele>230.0</ele><time>2026-05-03T15:17:42Z</time></trkpt><trkpt lat="44.903572008720126" lon="9.641543896181236"><ele>229.0</ele><time>2026-05-03T15:17:43Z</time></trkpt><trkpt lat="44.90366919397005" lon="9.641600330204351"><ele>228.0</ele><time>2026-05-03T15:17:44Z</time></trkpt><trkpt lat="44.90381043449058" lon="9.64165989094191"><ele>227.0</ele><time>2026-05-03T15:17:45Z</time></trkpt><trkpt lat="44.90392703861911" lon="9.641712310030682"><ele>226.0</ele><time>2026-05-03T15:17:46Z</time></trkpt><trkpt lat="44.90403282728477" lon="9.641765123305731"><ele>225.99999999999997</ele><time>2026-05-03T15:17:47Z</time></trkpt><trkpt lat="44.904126590830295" lon="9.641815964739497"><ele>226.0</ele><time>2026-05-03T15:17:48Z</time></trkpt><trkpt lat="44.904222741401504" lon="9.641864260134637"><ele>226.0</ele><time>2026-05-03T15:17:49Z</time></trkpt><trkpt lat="44.90429085457705" lon="9.64188979246079"><ele>226.0</ele><time>2026-05-03T15:17:50Z</time></trkpt><trkpt lat="44.904355275952646" lon="9.641945228125094"><ele>225.99999999999997</ele><time>2026-05-03T15:17:51Z</time></trkpt><trkpt lat="44.904417177512954" lon="9.642011545219107"><ele>226.0</ele><time>2026-05-03T15:17:53Z</time></trkpt><trkpt lat="44.90444220538639" lon="9.642163864081741"><ele>225.33333333333331</ele><time>2026-05-03T15:17:55Z</time></trkpt><trkpt lat="44.90437858842752" lon="9.642273714233763"><ele>224.66666666666666</ele><time>2026-05-03T15:17:56Z</time></trkpt><trkpt lat="44.90434495752871" lon="9.642416288196829"><ele>224.0</ele><time>2026-05-03T15:17:57Z</time></trkpt><trkpt lat="44.90433587777368" lon="9.64253278322697"><ele>223.33333333333331</ele><time>2026-05-03T15:17:58Z</time></trkpt><trkpt lat="44.90437327895833" lon="9.6426099414736"><ele>222.66666666666666</ele><time>2026-05-03T15:17:59Z</time></trkpt><trkpt lat="44.90442717320909" lon="9.642655961632396"><ele>222.0</ele><time>2026-05-03T15:18:00Z</time></trkpt><trkpt lat="44.904498718928345" lon="9.642678781443232"><ele>222.0</ele><time>2026-05-03T15:18:01Z</time></trkpt><trkpt lat="44.90456397825198" lon="9.642720070242193"><ele>222.0</ele><time>2026-05-03T15:18:02Z</time></trkpt><trkpt lat="44.904576258685395" lon="9.64283624733298"><ele>222.0</ele><time>2026-05-03T15:18:04Z</time></trkpt><trkpt lat="44.90454295683688" lon="9.64297284972867"><ele>222.0</ele><time>2026-05-03T15:18:05Z</time></trkpt><trkpt lat="44.90452292476405" lon="9.643085473824087"><ele>222.0</ele><time>2026-05-03T15:18:06Z</time></trkpt><trkpt lat="44.904538383396705" lon="9.643184730638788"><ele>222.0</ele><time>2026-05-03T15:18:07Z</time></trkpt><trkpt lat="44.90458129930891" lon="9.643251045448038"><ele>222.8</ele><time>2026-05-03T15:18:08Z</time></trkpt><trkpt lat="44.904633598292264" lon="9.643332863780467"><ele>223.6</ele><time>2026-05-03T15:18:09Z</time></trkpt><trkpt lat="44.904724713117126" lon="9.643324468843977"><ele>224.40000000000003</ele><time>2026-05-03T15:18:10Z</time></trkpt><trkpt lat="44.90481991233599" lon="9.643294877756242"><ele>225.20000000000002</ele><time>2026-05-03T15:18:11Z</time></trkpt><trkpt lat="44.90493220575027" lon="9.643291700471083"><ele>226.0</ele><time>2026-05-03T15:18:12Z</time></trkpt><trkpt lat="44.90504661721123" lon="9.643265521111577"><ele>224.99999999999997</ele><time>2026-05-03T15:18:13Z</time></trkpt><trkpt lat="44.90514865065677" lon="9.643242696542488"><ele>224.0</ele><time>2026-05-03T15:18:14Z</time></trkpt><trkpt lat="44.90525056868044" lon="9.64323076528757"><ele>223.0</ele><time>2026-05-03T15:18:15Z</time></trkpt><trkpt lat="44.90532294498667" lon="9.643236766007245"><ele>222.0</ele><time>2026-05-03T15:18:16Z</time></trkpt><trkpt lat="44.90539386444447" lon="9.643264392793354"><ele>220.99999999999997</ele><time>2026-05-03T15:18:17Z</time></trkpt><trkpt lat="44.905477600899864" lon="9.643308400242462"><ele>220.0</ele><time>2026-05-03T15:18:18Z</time></trkpt><trkpt lat="44.905560541827555" lon="9.643351134043723"><ele>220.0</ele><time>2026-05-03T15:18:19Z</time></trkpt><trkpt lat="44.90564456790381" lon="9.64337486258932"><ele>220.0</ele><time>2026-05-03T15:18:20Z</time></trkpt><trkpt lat="44.90573585571705" lon="9.643425596486765"><ele>220.0</ele><time>2026-05-03T15:18:21Z</time></trkpt><trkpt lat="44.905821522453074" lon="9.643476627395422"><ele>220.0</ele><time>2026-05-03T15:18:22Z</time></trkpt><trkpt lat="44.90590372256648" lon="9.643506784929968"><ele>220.0</ele><time>2026-05-03T15:18:23Z</time></trkpt><trkpt lat="44.90599453268013" lon="9.643532354204876"><ele>218.8</ele><time>2026-05-03T15:18:24Z</time></trkpt><trkpt lat="44.90609857245588" lon="9.643556530612512"><ele>217.6</ele><time>2026-05-03T15:18:25Z</time></trkpt><trkpt lat="44.9062065135405" lon="9.643579030224263"><ele>216.39999999999998</ele><time>2026-05-03T15:18:25.999Z</time></trkpt><trkpt lat="44.906310607042684" lon="9.643599468147317"><ele>215.2</ele><time>2026-05-03T15:18:26.999Z</time></trkpt><trkpt lat="44.90641375006254" lon="9.643607543697215"><ele>214.0</ele><time>2026-05-03T15:18:28Z</time></trkpt><trkpt lat="44.90651924703658" lon="9.643630251864662"><ele>211.0</ele><time>2026-05-03T15:18:29Z</time></trkpt><trkpt lat="44.90662049314373" lon="9.643673342244165"><ele>207.99999999999997</ele><time>2026-05-03T15:18:30Z</time></trkpt><trkpt lat="44.906718787871235" lon="9.64368506043077"><ele>205.0</ele><time>2026-05-03T15:18:31Z</time></trkpt><trkpt lat="44.90681358844466" lon="9.64372255838592"><ele>202.0</ele><time>2026-05-03T15:18:32Z</time></trkpt><trkpt lat="44.90690805261341" lon="9.64376207155783"><ele>199.0</ele><time>2026-05-03T15:18:33Z</time></trkpt><trkpt lat="44.906993686454555" lon="9.643822173112357"><ele>198.2</ele><time>2026-05-03T15:18:34Z</time></trkpt><trkpt lat="44.907082219578605" lon="9.643848363367004"><ele>197.39999999999998</ele><time>2026-05-03T15:18:35Z</time></trkpt><trkpt lat="44.907175478536146" lon="9.6438991783166"><ele>196.6</ele><time>2026-05-03T15:18:36Z</time></trkpt><trkpt lat="44.90729330436165" lon="9.643958043282066"><ele>195.8</ele><time>2026-05-03T15:18:37Z</time></trkpt><trkpt lat="44.90741150813082" lon="9.64403220680227"><ele>195.0</ele><time>2026-05-03T15:18:38Z</time></trkpt><trkpt lat="44.907525707908" lon="9.64410591669409"><ele>194.5</ele><time>2026-05-03T15:18:39Z</time></trkpt><trkpt lat="44.90760447026712" lon="9.644197375390897"><ele>194.0</ele><time>2026-05-03T15:18:41Z</time></trkpt><trkpt lat="44.90763496646686" lon="9.64428827514964"><ele>193.5</ele><time>2026-05-03T15:18:42Z</time></trkpt><trkpt lat="44.907637889401364" lon="9.644396254730221"><ele>193.0</ele><time>2026-05-03T15:18:43Z</time></trkpt><trkpt lat="44.90759228153498" lon="9.644516567791198"><ele>192.5</ele><time>2026-05-03T15:18:44Z</time></trkpt><trkpt lat="44.90755957255631" lon="9.644618327767844"><ele>192.0</ele><time>2026-05-03T15:18:45Z</time></trkpt><trkpt lat="44.90759181186776" lon="9.644779667707002"><ele>193.2</ele><time>2026-05-03T15:18:47Z</time></trkpt><trkpt lat="44.907628866834074" lon="9.644877502474902"><ele>194.39999999999998</ele><time>2026-05-03T15:18:48Z</time></trkpt><trkpt lat="44.907716028822904" lon="9.644920594171591"><ele>195.60000000000002</ele><time>2026-05-03T15:18:49Z</time></trkpt><trkpt lat="44.907795581947454" lon="9.644972769828767"><ele>196.8</ele><time>2026-05-03T15:18:50Z</time></trkpt><trkpt lat="44.907889582156315" lon="9.645035318811644"><ele>198.0</ele><time>2026-05-03T15:18:51Z</time></trkpt><trkpt lat="44.90798367253767" lon="9.645103322922582"><ele>198.0</ele><time>2026-05-03T15:18:52Z</time></trkpt><trkpt lat="44.90808265109299" lon="9.645159409848809"><ele>198.0</ele><time>2026-05-03T15:18:53Z</time></trkpt><trkpt lat="44.908154553272496" lon="9.645240194873537"><ele>198.0</ele><time>2026-05-03T15:18:54Z</time></trkpt><trkpt lat="44.908220840071735" lon="9.645305925069946"><ele>198.0</ele><time>2026-05-03T15:18:55Z</time></trkpt><trkpt lat="44.90827608809014" lon="9.645385140925328"><ele>198.0</ele><time>2026-05-03T15:18:56Z</time></trkpt><trkpt lat="44.90831156192398" lon="9.645472303453783"><ele>198.0</ele><time>2026-05-03T15:18:57Z</time></trkpt><trkpt lat="44.90834070557755" lon="9.64556011763056"><ele>200.2</ele><time>2026-05-03T15:18:58Z</time></trkpt><trkpt lat="44.90837062871311" lon="9.645680967941331"><ele>202.4</ele><time>2026-05-03T15:18:59Z</time></trkpt><trkpt lat="44.908406761811804" lon="9.645826130625359"><ele>204.6</ele><time>2026-05-03T15:19:00Z</time></trkpt><trkpt lat="44.9084006752595" lon="9.645988421379299"><ele>206.79999999999998</ele><time>2026-05-03T15:19:01Z</time></trkpt><trkpt lat="44.90839498984947" lon="9.646140195630814"><ele>209.0</ele><time>2026-05-03T15:19:02Z</time></trkpt><trkpt lat="44.90839830424766" lon="9.646313289461968"><ele>209.2</ele><time>2026-05-03T15:19:03Z</time></trkpt><trkpt lat="44.90838219881347" lon="9.646494819951075"><ele>209.39999999999998</ele><time>2026-05-03T15:19:04Z</time></trkpt><trkpt lat="44.90837289728823" lon="9.64667375314711"><ele>209.6</ele><time>2026-05-03T15:19:05Z</time></trkpt><trkpt lat="44.908368523866" lon="9.646806832301829"><ele>209.8</ele><time>2026-05-03T15:19:06Z</time></trkpt><trkpt lat="44.9083593879355" lon="9.646941518788415"><ele>210.0</ele><time>2026-05-03T15:19:07Z</time></trkpt><trkpt lat="44.90835385426126" lon="9.647062551843108"><ele>210.2</ele><time>2026-05-03T15:19:08Z</time></trkpt><trkpt lat="44.908350632691985" lon="9.647183764838541"><ele>210.4</ele><time>2026-05-03T15:19:09Z</time></trkpt><trkpt lat="44.90834583721537" lon="9.647303166188989"><ele>210.60000000000002</ele><time>2026-05-03T15:19:10Z</time></trkpt><trkpt lat="44.908337253347725" lon="9.647434799025701"><ele>210.8</ele><time>2026-05-03T15:19:11Z</time></trkpt><trkpt lat="44.9083272733772" lon="9.647571250814298"><ele>211.0</ele><time>2026-05-03T15:19:12Z</time></trkpt><trkpt lat="44.90831861307766" lon="9.647709274421594"><ele>210.8</ele><time>2026-05-03T15:19:13Z</time></trkpt><trkpt lat="44.90829894507043" lon="9.647835922027484"><ele>210.60000000000002</ele><time>2026-05-03T15:19:14Z</time></trkpt><trkpt lat="44.90827312444466" lon="9.647970875917203"><ele>210.4</ele><time>2026-05-03T15:19:15Z</time></trkpt><trkpt lat="44.908260256067656" lon="9.648107995287837"><ele>210.2</ele><time>2026-05-03T15:19:16Z</time></trkpt><trkpt lat="44.90824709180085" lon="9.648248267430827"><ele>210.0</ele><time>2026-05-03T15:19:17Z</time></trkpt><trkpt lat="44.90823344550227" lon="9.648398472143214"><ele>210.0</ele><time>2026-05-03T15:19:18Z</time></trkpt><trkpt lat="44.90822313307945" lon="9.648523650853411"><ele>210.0</ele><time>2026-05-03T15:19:19Z</time></trkpt><trkpt lat="44.90821288620808" lon="9.648648033866925"><ele>210.0</ele><time>2026-05-03T15:19:20Z</time></trkpt><trkpt lat="44.90821695200349" lon="9.648797915480607"><ele>210.0</ele><time>2026-05-03T15:19:21Z</time></trkpt><trkpt lat="44.90818797647873" lon="9.648950404282907"><ele>210.0</ele><time>2026-05-03T15:19:22Z</time></trkpt><trkpt lat="44.908175243830186" lon="9.649104961155324"><ele>209.8</ele><time>2026-05-03T15:19:23Z</time></trkpt><trkpt lat="44.908177676371814" lon="9.649263221141984"><ele>209.6</ele><time>2026-05-03T15:19:24Z</time></trkpt><trkpt lat="44.908161483753595" lon="9.649411789341308"><ele>209.39999999999998</ele><time>2026-05-03T15:19:25Z</time></trkpt><trkpt lat="44.908138256445454" lon="9.64952617062699"><ele>209.2</ele><time>2026-05-03T15:19:26Z</time></trkpt><trkpt lat="44.90814660946029" lon="9.649638217161256"><ele>209.0</ele><time>2026-05-03T15:19:27Z</time></trkpt><trkpt lat="44.90815706344138" lon="9.649734943105564"><ele>208.6</ele><time>2026-05-03T15:19:28Z</time></trkpt><trkpt lat="44.90817583323347" lon="9.649844766674104"><ele>208.2</ele><time>2026-05-03T15:19:29Z</time></trkpt><trkpt lat="44.908254679828865" lon="9.649931092915498"><ele>207.79999999999998</ele><time>2026-05-03T15:19:30Z</time></trkpt><trkpt lat="44.90836812937313" lon="9.6499529251691"><ele>207.39999999999998</ele><time>2026-05-03T15:19:31Z</time></trkpt><trkpt lat="44.90848012028789" lon="9.649974246933347"><ele>207.0</ele><time>2026-05-03T15:19:32Z</time></trkpt><trkpt lat="44.90859158922866" lon="9.650000559796426"><ele>206.2</ele><time>2026-05-03T15:19:33Z</time></trkpt><trkpt lat="44.908691660391966" lon="9.650048154307482"><ele>205.39999999999998</ele><time>2026-05-03T15:19:34Z</time></trkpt><trkpt lat="44.90878929020281" lon="9.650049698465153"><ele>204.60000000000002</ele><time>2026-05-03T15:19:35Z</time></trkpt><trkpt lat="44.90889667268624" lon="9.650090080483936"><ele>203.8</ele><time>2026-05-03T15:19:36Z</time></trkpt><trkpt lat="44.90899482968664" lon="9.650115325189512"><ele>203.0</ele><time>2026-05-03T15:19:37Z</time></trkpt><trkpt lat="44.909074090271524" lon="9.650147403465144"><ele>203.00000000000003</ele><time>2026-05-03T15:19:38Z</time></trkpt><trkpt lat="44.90913153689633" lon="9.650195827779946"><ele>203.0</ele><time>2026-05-03T15:19:39Z</time></trkpt><trkpt lat="44.90916281132201" lon="9.650304401314276"><ele>203.0</ele><time>2026-05-03T15:19:40Z</time></trkpt><trkpt lat="44.90917759487173" lon="9.650414351559114"><ele>203.0</ele><time>2026-05-03T15:19:41Z</time></trkpt><trkpt lat="44.909180976988026" lon="9.65055066668153"><ele>203.00000000000003</ele><time>2026-05-03T15:19:42Z</time></trkpt><trkpt lat="44.909196424778266" lon="9.65069759241646"><ele>203.0</ele><time>2026-05-03T15:19:43Z</time></trkpt><trkpt lat="44.90924588553878" lon="9.65080353794743"><ele>201.75</ele><time>2026-05-03T15:19:44Z</time></trkpt><trkpt lat="44.90930457570105" lon="9.65090293329421"><ele>200.5</ele><time>2026-05-03T15:19:45Z</time></trkpt><trkpt lat="44.90939690710029" lon="9.650990508494004"><ele>199.25</ele><time>2026-05-03T15:19:46Z</time></trkpt><trkpt lat="44.90950242165894" lon="9.651074693472655"><ele>198.0</ele><time>2026-05-03T15:19:47Z</time></trkpt><trkpt lat="44.90961563925079" lon="9.651162486832206"><ele>196.5</ele><time>2026-05-03T15:19:48Z</time></trkpt><trkpt lat="44.90972423878331" lon="9.6512442205273"><ele>195.0</ele><time>2026-05-03T15:19:49Z</time></trkpt><trkpt lat="44.90982651226382" lon="9.651317693300786"><ele>193.5</ele><time>2026-05-03T15:19:50Z</time></trkpt><trkpt lat="44.90992643708843" lon="9.651387403506108"><ele>192.0</ele><time>2026-05-03T15:19:51Z</time></trkpt><trkpt lat="44.91002034994989" lon="9.651468200658629"><ele>192.0</ele><time>2026-05-03T15:19:52Z</time></trkpt><trkpt lat="44.91010590024701" lon="9.651563543732331"><ele>192.0</ele><time>2026-05-03T15:19:53Z</time></trkpt><trkpt lat="44.91017637011684" lon="9.651679619522694"><ele>192.0</ele><time>2026-05-03T15:19:54Z</time></trkpt><trkpt lat="44.91021472100696" lon="9.65182236003856"><ele>192.0</ele><time>2026-05-03T15:19:55Z</time></trkpt><trkpt lat="44.91026878846098" lon="9.65196762925734"><ele>192.0</ele><time>2026-05-03T15:19:56Z</time></trkpt><trkpt lat="44.9103238950402" lon="9.652119192923088"><ele>191.75</ele><time>2026-05-03T15:19:57Z</time></trkpt><trkpt lat="44.91038596107199" lon="9.652271843614603"><ele>191.5</ele><time>2026-05-03T15:19:58Z</time></trkpt><trkpt lat="44.9104204978298" lon="9.65244027551917"><ele>191.25</ele><time>2026-05-03T15:19:59Z</time></trkpt><trkpt lat="44.91046224056379" lon="9.652597843613988"><ele>191.0</ele><time>2026-05-03T15:20:00Z</time></trkpt><trkpt lat="44.9104933534507" lon="9.652770879696797"><ele>192.0</ele><time>2026-05-03T15:20:01Z</time></trkpt><trkpt lat="44.910513748834205" lon="9.652950537405081"><ele>193.0</ele><time>2026-05-03T15:20:02Z</time></trkpt><trkpt lat="44.91054035756991" lon="9.653143551327187"><ele>194.0</ele><time>2026-05-03T15:20:03Z</time></trkpt><trkpt lat="44.91053831224243" lon="9.65334712169206"><ele>195.0</ele><time>2026-05-03T15:20:04Z</time></trkpt><trkpt lat="44.9105648047949" lon="9.653551150764828"><ele>196.0</ele><time>2026-05-03T15:20:05Z</time></trkpt><trkpt lat="44.91056671459076" lon="9.653747758951242"><ele>197.0</ele><time>2026-05-03T15:20:06Z</time></trkpt><trkpt lat="44.91053259059279" lon="9.653922644513958"><ele>198.0</ele><time>2026-05-03T15:20:07Z</time></trkpt><trkpt lat="44.91049461786792" lon="9.654101459294719"><ele>199.0</ele><time>2026-05-03T15:20:08Z</time></trkpt><trkpt lat="44.9104664225808" lon="9.654273929454297"><ele>199.0</ele><time>2026-05-03T15:20:09Z</time></trkpt><trkpt lat="44.91042034974306" lon="9.654408234882451"><ele>199.0</ele><time>2026-05-03T15:20:10Z</time></trkpt><trkpt lat="44.91036768607508" lon="9.654540468425578"><ele>199.0</ele><time>2026-05-03T15:20:11Z</time></trkpt><trkpt lat="44.910301419184194" lon="9.654665526563695"><ele>199.0</ele><time>2026-05-03T15:20:12Z</time></trkpt><trkpt lat="44.910217934674286" lon="9.654804364944582"><ele>198.66666666666666</ele><time>2026-05-03T15:20:13Z</time></trkpt><trkpt lat="44.91013708787578" lon="9.654975297328553"><ele>198.33333333333331</ele><time>2026-05-03T15:20:14Z</time></trkpt><trkpt lat="44.91006239916823" lon="9.655174124613561"><ele>198.0</ele><time>2026-05-03T15:20:15Z</time></trkpt><trkpt lat="44.91000119752867" lon="9.655362781586584"><ele>198.0</ele><time>2026-05-03T15:20:16Z</time></trkpt><trkpt lat="44.909939982276164" lon="9.65551938598458"><ele>198.0</ele><time>2026-05-03T15:20:17Z</time></trkpt><trkpt lat="44.90989293284447" lon="9.655678189759776"><ele>198.0</ele><time>2026-05-03T15:20:18Z</time></trkpt><trkpt lat="44.909840401877865" lon="9.65583402898951"><ele>198.0</ele><time>2026-05-03T15:20:19Z</time></trkpt><trkpt lat="44.90978871025088" lon="9.655996733347775"><ele>197.25</ele><time>2026-05-03T15:20:20Z</time></trkpt><trkpt lat="44.90973441123291" lon="9.656170564284126"><ele>196.5</ele><time>2026-05-03T15:20:21Z</time></trkpt><trkpt lat="44.90967811613207" lon="9.656330493774991"><ele>195.75</ele><time>2026-05-03T15:20:22Z</time></trkpt><trkpt lat="44.909602624585396" lon="9.65647613088135"><ele>195.0</ele><time>2026-05-03T15:20:22.999Z</time></trkpt><trkpt lat="44.909548447780956" lon="9.656650320506026"><ele>195.0</ele><time>2026-05-03T15:20:23.999Z</time></trkpt><trkpt lat="44.90947716675471" lon="9.656830193017534"><ele>195.0</ele><time>2026-05-03T15:20:24.999Z</time></trkpt><trkpt lat="44.90940852700462" lon="9.657005816248514"><ele>195.0</ele><time>2026-05-03T15:20:25.999Z</time></trkpt><trkpt lat="44.90933687322851" lon="9.657187547456598"><ele>195.0</ele><time>2026-05-03T15:20:26.999Z</time></trkpt><trkpt lat="44.90925670226986" lon="9.657348423799085"><ele>195.25</ele><time>2026-05-03T15:20:27.999Z</time></trkpt><trkpt lat="44.90920933401772" lon="9.657517875729152"><ele>195.5</ele><time>2026-05-03T15:20:28.999Z</time></trkpt><trkpt lat="44.90914807951853" lon="9.657671807955161"><ele>195.75</ele><time>2026-05-03T15:20:29.999Z</time></trkpt><trkpt lat="44.90909111784097" lon="9.657821435278777"><ele>196.0</ele><time>2026-05-03T15:20:30.999Z</time></trkpt><trkpt lat="44.90903321809948" lon="9.657972554354055"><ele>195.0</ele><time>2026-05-03T15:20:31.999Z</time></trkpt><trkpt lat="44.90896963877649" lon="9.65811670622681"><ele>194.0</ele><time>2026-05-03T15:20:32.999Z</time></trkpt><trkpt lat="44.90889697011758" lon="9.65825155921658"><ele>193.0</ele><time>2026-05-03T15:20:34Z</time></trkpt><trkpt lat="44.908812914177126" lon="9.65836279974885"><ele>192.0</ele><time>2026-05-03T15:20:35Z</time></trkpt><trkpt lat="44.90872072514099" lon="9.658460695877364"><ele>192.0</ele><time>2026-05-03T15:20:36Z</time></trkpt><trkpt lat="44.90863698108027" lon="9.658612659566248"><ele>192.0</ele><time>2026-05-03T15:20:37Z</time></trkpt><trkpt lat="44.90859488852615" lon="9.658828997411636"><ele>192.0</ele><time>2026-05-03T15:20:38Z</time></trkpt><trkpt lat="44.90854246210332" lon="9.659011431122849"><ele>192.0</ele><time>2026-05-03T15:20:39Z</time></trkpt><trkpt lat="44.90850559694938" lon="9.659206581635928"><ele>189.0</ele><time>2026-05-03T15:20:40Z</time></trkpt><trkpt lat="44.90847118939618" lon="9.659390732279782"><ele>186.0</ele><time>2026-05-03T15:20:41Z</time></trkpt><trkpt lat="44.90843903371803" lon="9.65957327761769"><ele>183.0</ele><time>2026-05-03T15:20:42Z</time></trkpt><trkpt lat="44.90840821655215" lon="9.659764749364356"><ele>180.0</ele><time>2026-05-03T15:20:43Z</time></trkpt><trkpt lat="44.90838021829885" lon="9.65996088453079"><ele>178.75</ele><time>2026-05-03T15:20:44Z</time></trkpt><trkpt lat="44.90835468792145" lon="9.660162098189247"><ele>177.5</ele><time>2026-05-03T15:20:45Z</time></trkpt><trkpt lat="44.90834377347321" lon="9.660347852222102"><ele>176.25</ele><time>2026-05-03T15:20:46Z</time></trkpt><trkpt lat="44.90830999939056" lon="9.660532951322567"><ele>175.0</ele><time>2026-05-03T15:20:47Z</time></trkpt><trkpt lat="44.90828852140602" lon="9.66072129667953"><ele>174.75</ele><time>2026-05-03T15:20:48Z</time></trkpt><trkpt lat="44.908282190716044" lon="9.660913820987929"><ele>174.5</ele><time>2026-05-03T15:20:49Z</time></trkpt><trkpt lat="44.9082571127979" lon="9.66110966582774"><ele>174.25</ele><time>2026-05-03T15:20:50Z</time></trkpt><trkpt lat="44.908229890642694" lon="9.661302163690653"><ele>174.0</ele><time>2026-05-03T15:20:51Z</time></trkpt><trkpt lat="44.90820491587238" lon="9.661495154452803"><ele>174.0</ele><time>2026-05-03T15:20:52Z</time></trkpt><trkpt lat="44.90818016754816" lon="9.661683199341917"><ele>174.0</ele><time>2026-05-03T15:20:53Z</time></trkpt><trkpt lat="44.90815731511815" lon="9.661873443257237"><ele>174.0</ele><time>2026-05-03T15:20:54Z</time></trkpt><trkpt lat="44.90813496367512" lon="9.662065143696983"><ele>174.0</ele><time>2026-05-03T15:20:55Z</time></trkpt><trkpt lat="44.908113466448626" lon="9.662263031084901"><ele>174.0</ele><time>2026-05-03T15:20:56Z</time></trkpt><trkpt lat="44.90809112150678" lon="9.662448504497785"><ele>174.0</ele><time>2026-05-03T15:20:57Z</time></trkpt><trkpt lat="44.90807408715662" lon="9.662626263844354"><ele>174.0</ele><time>2026-05-03T15:20:58Z</time></trkpt><trkpt lat="44.908051976809396" lon="9.662783229446559"><ele>174.0</ele><time>2026-05-03T15:20:59Z</time></trkpt><trkpt lat="44.90803827133348" lon="9.662910149273415"><ele>174.0</ele><time>2026-05-03T15:21:00Z</time></trkpt><trkpt lat="44.90802507720414" lon="9.663032666180536"><ele>174.0</ele><time>2026-05-03T15:21:01Z</time></trkpt><trkpt lat="44.9080106744011" lon="9.663151596465578"><ele>174.0</ele><time>2026-05-03T15:21:02Z</time></trkpt><trkpt lat="44.907993204099135" lon="9.663291260653903"><ele>174.0</ele><time>2026-05-03T15:21:03Z</time></trkpt><trkpt lat="44.90797699806079" lon="9.66343985304607"><ele>174.0</ele><time>2026-05-03T15:21:04Z</time></trkpt><trkpt lat="44.907966528236024" lon="9.663568683044822"><ele>173.79999999999998</ele><time>2026-05-03T15:21:05Z</time></trkpt><trkpt lat="44.90796056265201" lon="9.663690697449859"><ele>173.6</ele><time>2026-05-03T15:21:06Z</time></trkpt><trkpt lat="44.90794836829166" lon="9.663820608846565"><ele>173.4</ele><time>2026-05-03T15:21:07Z</time></trkpt><trkpt lat="44.907932884329476" lon="9.663929424431453"><ele>173.2</ele><time>2026-05-03T15:21:08Z</time></trkpt><trkpt lat="44.90790049754833" lon="9.66406011705568"><ele>173.0</ele><time>2026-05-03T15:21:10Z</time></trkpt><trkpt lat="44.9080295242624" lon="9.664173225592119"><ele>173.0</ele><time>2026-05-03T15:21:14Z</time></trkpt><trkpt lat="44.90812352188944" lon="9.664221144674892"><ele>173.0</ele><time>2026-05-03T15:21:16Z</time></trkpt></trkseg></trk></gpx>